<?xml version="1.0" encoding="UTF-8" standalone="no" ?>
<gpx xmlns="http://www.topografix.com/GPX/1/1" xmlns:xsi="http://www.w3.org/2001/XMLSchema-instance" xsi:schemaLocation="http://www.topografix.com/GPX/1/1 http://www.topografix.com/GPX/1/1/gpx.xsd" version="1.1" creator="VisuGPX - https://www.visugpx.com">
  <metadata>
    <name>MRT EVAUX LES BAINS 8</name>
    <desc><![CDATA[depart du camping,les bordes,la buissiere,les rieux,lemasroudier,malleville,la chezotte,les perichoux,les fontaines]]></desc>
  </metadata>
  <trk>
    <name><![CDATA[MRT EVAUX LES BAINS 8_1]]></name>
    <trkseg>
      <trkpt lat="46.17874" lon="2.48899">
        <ele>462</ele>
        <time>2015-04-20T11:51:45Z</time>
      </trkpt>
      <trkpt lat="46.17866" lon="2.48936">
        <ele>465</ele>
        <time>2015-04-20T11:52:18Z</time>
      </trkpt>
      <trkpt lat="46.17867" lon="2.48939">
        <ele>465</ele>
        <time>2015-04-20T11:52:20Z</time>
      </trkpt>
      <trkpt lat="46.17868" lon="2.48943">
        <ele>465</ele>
        <time>2015-04-20T11:52:22Z</time>
      </trkpt>
      <trkpt lat="46.1787" lon="2.48948">
        <ele>465</ele>
        <time>2015-04-20T11:52:25Z</time>
      </trkpt>
      <trkpt lat="46.17871" lon="2.4895">
        <ele>465</ele>
        <time>2015-04-20T11:52:27Z</time>
      </trkpt>
      <trkpt lat="46.17873" lon="2.48953">
        <ele>465</ele>
        <time>2015-04-20T11:52:29Z</time>
      </trkpt>
      <trkpt lat="46.17873" lon="2.48956">
        <ele>465</ele>
        <time>2015-04-20T11:52:31Z</time>
      </trkpt>
      <trkpt lat="46.17873" lon="2.4896">
        <ele>465</ele>
        <time>2015-04-20T11:52:33Z</time>
      </trkpt>
      <trkpt lat="46.17873" lon="2.48964">
        <ele>464</ele>
        <time>2015-04-20T11:52:35Z</time>
      </trkpt>
      <trkpt lat="46.17872" lon="2.48967">
        <ele>464</ele>
        <time>2015-04-20T11:52:37Z</time>
      </trkpt>
      <trkpt lat="46.1787" lon="2.48971">
        <ele>464</ele>
        <time>2015-04-20T11:52:39Z</time>
      </trkpt>
      <trkpt lat="46.17868" lon="2.48974">
        <ele>464</ele>
        <time>2015-04-20T11:52:41Z</time>
      </trkpt>
      <trkpt lat="46.17867" lon="2.48977">
        <ele>464</ele>
        <time>2015-04-20T11:52:43Z</time>
      </trkpt>
      <trkpt lat="46.17864" lon="2.4898">
        <ele>464</ele>
        <time>2015-04-20T11:52:45Z</time>
      </trkpt>
      <trkpt lat="46.17862" lon="2.48983">
        <ele>464</ele>
        <time>2015-04-20T11:52:47Z</time>
      </trkpt>
      <trkpt lat="46.17861" lon="2.48986">
        <ele>464</ele>
        <time>2015-04-20T11:52:49Z</time>
      </trkpt>
      <trkpt lat="46.17859" lon="2.48989">
        <ele>464</ele>
        <time>2015-04-20T11:52:51Z</time>
      </trkpt>
      <trkpt lat="46.17855" lon="2.48993">
        <ele>464</ele>
        <time>2015-04-20T11:52:54Z</time>
      </trkpt>
      <trkpt lat="46.17853" lon="2.48996">
        <ele>464</ele>
        <time>2015-04-20T11:52:56Z</time>
      </trkpt>
      <trkpt lat="46.17851" lon="2.48998">
        <ele>464</ele>
        <time>2015-04-20T11:52:58Z</time>
      </trkpt>
      <trkpt lat="46.17849" lon="2.49">
        <ele>464</ele>
        <time>2015-04-20T11:53:00Z</time>
      </trkpt>
      <trkpt lat="46.17847" lon="2.49003">
        <ele>464</ele>
        <time>2015-04-20T11:53:02Z</time>
      </trkpt>
      <trkpt lat="46.17844" lon="2.49005">
        <ele>464</ele>
        <time>2015-04-20T11:53:04Z</time>
      </trkpt>
      <trkpt lat="46.17842" lon="2.49006">
        <ele>464</ele>
        <time>2015-04-20T11:53:06Z</time>
      </trkpt>
      <trkpt lat="46.17839" lon="2.49007">
        <ele>464</ele>
        <time>2015-04-20T11:53:08Z</time>
      </trkpt>
      <trkpt lat="46.17836" lon="2.49008">
        <ele>464</ele>
        <time>2015-04-20T11:53:10Z</time>
      </trkpt>
      <trkpt lat="46.17833" lon="2.49009">
        <ele>464</ele>
        <time>2015-04-20T11:53:12Z</time>
      </trkpt>
      <trkpt lat="46.17831" lon="2.49009">
        <ele>464</ele>
        <time>2015-04-20T11:53:14Z</time>
      </trkpt>
      <trkpt lat="46.17828" lon="2.49009">
        <ele>464</ele>
        <time>2015-04-20T11:53:16Z</time>
      </trkpt>
      <trkpt lat="46.17824" lon="2.49009">
        <ele>464</ele>
        <time>2015-04-20T11:53:18Z</time>
      </trkpt>
      <trkpt lat="46.17823" lon="2.49008">
        <ele>464</ele>
        <time>2015-04-20T11:53:20Z</time>
      </trkpt>
      <trkpt lat="46.1782" lon="2.49008">
        <ele>464</ele>
        <time>2015-04-20T11:53:22Z</time>
      </trkpt>
      <trkpt lat="46.17818" lon="2.49007">
        <ele>464</ele>
        <time>2015-04-20T11:53:24Z</time>
      </trkpt>
      <trkpt lat="46.17816" lon="2.49006">
        <ele>464</ele>
        <time>2015-04-20T11:53:26Z</time>
      </trkpt>
      <trkpt lat="46.17814" lon="2.49004">
        <ele>464</ele>
        <time>2015-04-20T11:53:28Z</time>
      </trkpt>
      <trkpt lat="46.17812" lon="2.49001">
        <ele>463</ele>
        <time>2015-04-20T11:53:30Z</time>
      </trkpt>
      <trkpt lat="46.17808" lon="2.48998">
        <ele>463</ele>
        <time>2015-04-20T11:53:32Z</time>
      </trkpt>
      <trkpt lat="46.17802" lon="2.48994">
        <ele>463</ele>
        <time>2015-04-20T11:53:34Z</time>
      </trkpt>
      <trkpt lat="46.17797" lon="2.4899">
        <ele>463</ele>
        <time>2015-04-20T11:53:36Z</time>
      </trkpt>
      <trkpt lat="46.17794" lon="2.48986">
        <ele>465</ele>
        <time>2015-04-20T11:53:39Z</time>
      </trkpt>
      <trkpt lat="46.17792" lon="2.48982">
        <ele>467</ele>
        <time>2015-04-20T11:53:42Z</time>
      </trkpt>
      <trkpt lat="46.17792" lon="2.4898">
        <ele>467</ele>
        <time>2015-04-20T11:53:44Z</time>
      </trkpt>
      <trkpt lat="46.17791" lon="2.48977">
        <ele>467</ele>
        <time>2015-04-20T11:53:46Z</time>
      </trkpt>
      <trkpt lat="46.17791" lon="2.48974">
        <ele>467</ele>
        <time>2015-04-20T11:53:48Z</time>
      </trkpt>
      <trkpt lat="46.17791" lon="2.4897">
        <ele>467</ele>
        <time>2015-04-20T11:53:51Z</time>
      </trkpt>
      <trkpt lat="46.17791" lon="2.48967">
        <ele>466</ele>
        <time>2015-04-20T11:53:53Z</time>
      </trkpt>
      <trkpt lat="46.1779" lon="2.48961">
        <ele>464</ele>
        <time>2015-04-20T11:53:56Z</time>
      </trkpt>
      <trkpt lat="46.17791" lon="2.48957">
        <ele>464</ele>
        <time>2015-04-20T11:53:58Z</time>
      </trkpt>
      <trkpt lat="46.17791" lon="2.48954">
        <ele>464</ele>
        <time>2015-04-20T11:54:00Z</time>
      </trkpt>
      <trkpt lat="46.17791" lon="2.4895">
        <ele>463</ele>
        <time>2015-04-20T11:54:02Z</time>
      </trkpt>
      <trkpt lat="46.17791" lon="2.48946">
        <ele>463</ele>
        <time>2015-04-20T11:54:04Z</time>
      </trkpt>
      <trkpt lat="46.17791" lon="2.48942">
        <ele>462</ele>
        <time>2015-04-20T11:54:06Z</time>
      </trkpt>
      <trkpt lat="46.1779" lon="2.48938">
        <ele>462</ele>
        <time>2015-04-20T11:54:08Z</time>
      </trkpt>
      <trkpt lat="46.1779" lon="2.48934">
        <ele>462</ele>
        <time>2015-04-20T11:54:10Z</time>
      </trkpt>
      <trkpt lat="46.17789" lon="2.4893">
        <ele>462</ele>
        <time>2015-04-20T11:54:12Z</time>
      </trkpt>
      <trkpt lat="46.17789" lon="2.48927">
        <ele>462</ele>
        <time>2015-04-20T11:54:14Z</time>
      </trkpt>
      <trkpt lat="46.17789" lon="2.48923">
        <ele>462</ele>
        <time>2015-04-20T11:54:16Z</time>
      </trkpt>
      <trkpt lat="46.17788" lon="2.4892">
        <ele>462</ele>
        <time>2015-04-20T11:54:18Z</time>
      </trkpt>
      <trkpt lat="46.17788" lon="2.48916">
        <ele>462</ele>
        <time>2015-04-20T11:54:20Z</time>
      </trkpt>
      <trkpt lat="46.17787" lon="2.48911">
        <ele>462</ele>
        <time>2015-04-20T11:54:23Z</time>
      </trkpt>
      <trkpt lat="46.17786" lon="2.48907">
        <ele>462</ele>
        <time>2015-04-20T11:54:25Z</time>
      </trkpt>
      <trkpt lat="46.17785" lon="2.48903">
        <ele>462</ele>
        <time>2015-04-20T11:54:27Z</time>
      </trkpt>
      <trkpt lat="46.17785" lon="2.489">
        <ele>462</ele>
        <time>2015-04-20T11:54:29Z</time>
      </trkpt>
      <trkpt lat="46.17784" lon="2.48897">
        <ele>462</ele>
        <time>2015-04-20T11:54:31Z</time>
      </trkpt>
      <trkpt lat="46.17783" lon="2.48894">
        <ele>462</ele>
        <time>2015-04-20T11:54:33Z</time>
      </trkpt>
      <trkpt lat="46.17782" lon="2.48888">
        <ele>462</ele>
        <time>2015-04-20T11:54:36Z</time>
      </trkpt>
      <trkpt lat="46.17781" lon="2.48885">
        <ele>462</ele>
        <time>2015-04-20T11:54:38Z</time>
      </trkpt>
      <trkpt lat="46.17778" lon="2.48882">
        <ele>462</ele>
        <time>2015-04-20T11:54:40Z</time>
      </trkpt>
      <trkpt lat="46.17775" lon="2.48878">
        <ele>462</ele>
        <time>2015-04-20T11:54:43Z</time>
      </trkpt>
      <trkpt lat="46.17773" lon="2.48875">
        <ele>462</ele>
        <time>2015-04-20T11:54:45Z</time>
      </trkpt>
      <trkpt lat="46.17771" lon="2.48872">
        <ele>462</ele>
        <time>2015-04-20T11:54:47Z</time>
      </trkpt>
      <trkpt lat="46.17769" lon="2.4887">
        <ele>462</ele>
        <time>2015-04-20T11:54:49Z</time>
      </trkpt>
      <trkpt lat="46.17767" lon="2.48866">
        <ele>462</ele>
        <time>2015-04-20T11:54:51Z</time>
      </trkpt>
      <trkpt lat="46.17765" lon="2.48864">
        <ele>462</ele>
        <time>2015-04-20T11:54:53Z</time>
      </trkpt>
      <trkpt lat="46.17762" lon="2.48861">
        <ele>462</ele>
        <time>2015-04-20T11:54:55Z</time>
      </trkpt>
      <trkpt lat="46.1776" lon="2.48858">
        <ele>462</ele>
        <time>2015-04-20T11:54:57Z</time>
      </trkpt>
      <trkpt lat="46.17758" lon="2.48855">
        <ele>462</ele>
        <time>2015-04-20T11:54:59Z</time>
      </trkpt>
      <trkpt lat="46.17756" lon="2.48852">
        <ele>462</ele>
        <time>2015-04-20T11:55:01Z</time>
      </trkpt>
      <trkpt lat="46.17754" lon="2.48849">
        <ele>462</ele>
        <time>2015-04-20T11:55:03Z</time>
      </trkpt>
      <trkpt lat="46.17752" lon="2.48846">
        <ele>462</ele>
        <time>2015-04-20T11:55:05Z</time>
      </trkpt>
      <trkpt lat="46.17751" lon="2.48843">
        <ele>462</ele>
        <time>2015-04-20T11:55:07Z</time>
      </trkpt>
      <trkpt lat="46.17748" lon="2.48839">
        <ele>462</ele>
        <time>2015-04-20T11:55:10Z</time>
      </trkpt>
      <trkpt lat="46.17747" lon="2.48834">
        <ele>462</ele>
        <time>2015-04-20T11:55:12Z</time>
      </trkpt>
      <trkpt lat="46.17744" lon="2.4883">
        <ele>462</ele>
        <time>2015-04-20T11:55:15Z</time>
      </trkpt>
      <trkpt lat="46.17743" lon="2.48828">
        <ele>462</ele>
        <time>2015-04-20T11:55:17Z</time>
      </trkpt>
      <trkpt lat="46.17741" lon="2.48824">
        <ele>462</ele>
        <time>2015-04-20T11:55:20Z</time>
      </trkpt>
      <trkpt lat="46.17737" lon="2.4882">
        <ele>462</ele>
        <time>2015-04-20T11:55:23Z</time>
      </trkpt>
      <trkpt lat="46.17735" lon="2.48817">
        <ele>462</ele>
        <time>2015-04-20T11:55:25Z</time>
      </trkpt>
      <trkpt lat="46.17734" lon="2.48814">
        <ele>462</ele>
        <time>2015-04-20T11:55:27Z</time>
      </trkpt>
      <trkpt lat="46.17733" lon="2.48811">
        <ele>462</ele>
        <time>2015-04-20T11:55:29Z</time>
      </trkpt>
      <trkpt lat="46.17732" lon="2.48807">
        <ele>462</ele>
        <time>2015-04-20T11:55:31Z</time>
      </trkpt>
      <trkpt lat="46.17731" lon="2.48804">
        <ele>462</ele>
        <time>2015-04-20T11:55:33Z</time>
      </trkpt>
      <trkpt lat="46.1773" lon="2.488">
        <ele>462</ele>
        <time>2015-04-20T11:55:35Z</time>
      </trkpt>
      <trkpt lat="46.1773" lon="2.48795">
        <ele>462</ele>
        <time>2015-04-20T11:55:37Z</time>
      </trkpt>
      <trkpt lat="46.1773" lon="2.48792">
        <ele>462</ele>
        <time>2015-04-20T11:55:39Z</time>
      </trkpt>
      <trkpt lat="46.17729" lon="2.48788">
        <ele>462</ele>
        <time>2015-04-20T11:55:41Z</time>
      </trkpt>
      <trkpt lat="46.17729" lon="2.48784">
        <ele>462</ele>
        <time>2015-04-20T11:55:43Z</time>
      </trkpt>
      <trkpt lat="46.17728" lon="2.48781">
        <ele>462</ele>
        <time>2015-04-20T11:55:45Z</time>
      </trkpt>
      <trkpt lat="46.17728" lon="2.48777">
        <ele>462</ele>
        <time>2015-04-20T11:55:47Z</time>
      </trkpt>
      <trkpt lat="46.17728" lon="2.48773">
        <ele>462</ele>
        <time>2015-04-20T11:55:49Z</time>
      </trkpt>
      <trkpt lat="46.17728" lon="2.48768">
        <ele>462</ele>
        <time>2015-04-20T11:55:51Z</time>
      </trkpt>
      <trkpt lat="46.17727" lon="2.48765">
        <ele>462</ele>
        <time>2015-04-20T11:55:53Z</time>
      </trkpt>
      <trkpt lat="46.17727" lon="2.48761">
        <ele>463</ele>
        <time>2015-04-20T11:55:55Z</time>
      </trkpt>
      <trkpt lat="46.17727" lon="2.48757">
        <ele>463</ele>
        <time>2015-04-20T11:55:57Z</time>
      </trkpt>
      <trkpt lat="46.17727" lon="2.48753">
        <ele>463</ele>
        <time>2015-04-20T11:55:59Z</time>
      </trkpt>
      <trkpt lat="46.17727" lon="2.48749">
        <ele>463</ele>
        <time>2015-04-20T11:56:01Z</time>
      </trkpt>
      <trkpt lat="46.17725" lon="2.48745">
        <ele>464</ele>
        <time>2015-04-20T11:56:03Z</time>
      </trkpt>
      <trkpt lat="46.17724" lon="2.48742">
        <ele>464</ele>
        <time>2015-04-20T11:56:05Z</time>
      </trkpt>
      <trkpt lat="46.17723" lon="2.48739">
        <ele>464</ele>
        <time>2015-04-20T11:56:07Z</time>
      </trkpt>
      <trkpt lat="46.17722" lon="2.48735">
        <ele>464</ele>
        <time>2015-04-20T11:56:09Z</time>
      </trkpt>
      <trkpt lat="46.1772" lon="2.48731">
        <ele>464</ele>
        <time>2015-04-20T11:56:11Z</time>
      </trkpt>
      <trkpt lat="46.17719" lon="2.48728">
        <ele>464</ele>
        <time>2015-04-20T11:56:13Z</time>
      </trkpt>
      <trkpt lat="46.17718" lon="2.48724">
        <ele>464</ele>
        <time>2015-04-20T11:56:15Z</time>
      </trkpt>
      <trkpt lat="46.17717" lon="2.4872">
        <ele>464</ele>
        <time>2015-04-20T11:56:17Z</time>
      </trkpt>
      <trkpt lat="46.17715" lon="2.48716">
        <ele>464</ele>
        <time>2015-04-20T11:56:19Z</time>
      </trkpt>
      <trkpt lat="46.17714" lon="2.48713">
        <ele>464</ele>
        <time>2015-04-20T11:56:22Z</time>
      </trkpt>
      <trkpt lat="46.17712" lon="2.4871">
        <ele>464</ele>
        <time>2015-04-20T11:56:24Z</time>
      </trkpt>
      <trkpt lat="46.17712" lon="2.48706">
        <ele>464</ele>
        <time>2015-04-20T11:56:26Z</time>
      </trkpt>
      <trkpt lat="46.17711" lon="2.48703">
        <ele>464</ele>
        <time>2015-04-20T11:56:28Z</time>
      </trkpt>
      <trkpt lat="46.1771" lon="2.48699">
        <ele>464</ele>
        <time>2015-04-20T11:56:30Z</time>
      </trkpt>
      <trkpt lat="46.17708" lon="2.48696">
        <ele>464</ele>
        <time>2015-04-20T11:56:32Z</time>
      </trkpt>
      <trkpt lat="46.17707" lon="2.48692">
        <ele>464</ele>
        <time>2015-04-20T11:56:34Z</time>
      </trkpt>
      <trkpt lat="46.17706" lon="2.48688">
        <ele>464</ele>
        <time>2015-04-20T11:56:36Z</time>
      </trkpt>
      <trkpt lat="46.17706" lon="2.48682">
        <ele>464</ele>
        <time>2015-04-20T11:56:39Z</time>
      </trkpt>
      <trkpt lat="46.17706" lon="2.48678">
        <ele>464</ele>
        <time>2015-04-20T11:56:41Z</time>
      </trkpt>
      <trkpt lat="46.17706" lon="2.48674">
        <ele>464</ele>
        <time>2015-04-20T11:56:43Z</time>
      </trkpt>
      <trkpt lat="46.17706" lon="2.4867">
        <ele>464</ele>
        <time>2015-04-20T11:56:45Z</time>
      </trkpt>
      <trkpt lat="46.17707" lon="2.48666">
        <ele>464</ele>
        <time>2015-04-20T11:56:47Z</time>
      </trkpt>
      <trkpt lat="46.17707" lon="2.48662">
        <ele>464</ele>
        <time>2015-04-20T11:56:49Z</time>
      </trkpt>
      <trkpt lat="46.17708" lon="2.48659">
        <ele>464</ele>
        <time>2015-04-20T11:56:51Z</time>
      </trkpt>
      <trkpt lat="46.17708" lon="2.48655">
        <ele>464</ele>
        <time>2015-04-20T11:56:53Z</time>
      </trkpt>
      <trkpt lat="46.17708" lon="2.48651">
        <ele>464</ele>
        <time>2015-04-20T11:56:55Z</time>
      </trkpt>
      <trkpt lat="46.17708" lon="2.48647">
        <ele>464</ele>
        <time>2015-04-20T11:56:57Z</time>
      </trkpt>
      <trkpt lat="46.17709" lon="2.48643">
        <ele>464</ele>
        <time>2015-04-20T11:56:59Z</time>
      </trkpt>
      <trkpt lat="46.17709" lon="2.48639">
        <ele>464</ele>
        <time>2015-04-20T11:57:01Z</time>
      </trkpt>
      <trkpt lat="46.17709" lon="2.48635">
        <ele>464</ele>
        <time>2015-04-20T11:57:03Z</time>
      </trkpt>
      <trkpt lat="46.17709" lon="2.48632">
        <ele>464</ele>
        <time>2015-04-20T11:57:05Z</time>
      </trkpt>
      <trkpt lat="46.1771" lon="2.48628">
        <ele>464</ele>
        <time>2015-04-20T11:57:07Z</time>
      </trkpt>
      <trkpt lat="46.17711" lon="2.48624">
        <ele>464</ele>
        <time>2015-04-20T11:57:09Z</time>
      </trkpt>
      <trkpt lat="46.17711" lon="2.4862">
        <ele>464</ele>
        <time>2015-04-20T11:57:11Z</time>
      </trkpt>
      <trkpt lat="46.17712" lon="2.48616">
        <ele>464</ele>
        <time>2015-04-20T11:57:13Z</time>
      </trkpt>
      <trkpt lat="46.17714" lon="2.48612">
        <ele>464</ele>
        <time>2015-04-20T11:57:15Z</time>
      </trkpt>
      <trkpt lat="46.17714" lon="2.48608">
        <ele>464</ele>
        <time>2015-04-20T11:57:17Z</time>
      </trkpt>
      <trkpt lat="46.17713" lon="2.48604">
        <ele>464</ele>
        <time>2015-04-20T11:57:19Z</time>
      </trkpt>
      <trkpt lat="46.17712" lon="2.48601">
        <ele>464</ele>
        <time>2015-04-20T11:57:21Z</time>
      </trkpt>
      <trkpt lat="46.17712" lon="2.48597">
        <ele>464</ele>
        <time>2015-04-20T11:57:23Z</time>
      </trkpt>
      <trkpt lat="46.17711" lon="2.48592">
        <ele>464</ele>
        <time>2015-04-20T11:57:25Z</time>
      </trkpt>
      <trkpt lat="46.17709" lon="2.48588">
        <ele>464</ele>
        <time>2015-04-20T11:57:27Z</time>
      </trkpt>
      <trkpt lat="46.17707" lon="2.48586">
        <ele>464</ele>
        <time>2015-04-20T11:57:29Z</time>
      </trkpt>
      <trkpt lat="46.17703" lon="2.48582">
        <ele>464</ele>
        <time>2015-04-20T11:57:32Z</time>
      </trkpt>
      <trkpt lat="46.177" lon="2.48578">
        <ele>464</ele>
        <time>2015-04-20T11:57:35Z</time>
      </trkpt>
      <trkpt lat="46.17697" lon="2.48575">
        <ele>465</ele>
        <time>2015-04-20T11:57:39Z</time>
      </trkpt>
      <trkpt lat="46.17693" lon="2.48571">
        <ele>465</ele>
        <time>2015-04-20T11:57:42Z</time>
      </trkpt>
      <trkpt lat="46.17692" lon="2.48569">
        <ele>466</ele>
        <time>2015-04-20T11:57:44Z</time>
      </trkpt>
      <trkpt lat="46.17687" lon="2.48566">
        <ele>468</ele>
        <time>2015-04-20T11:57:47Z</time>
      </trkpt>
      <trkpt lat="46.17684" lon="2.48563">
        <ele>468</ele>
        <time>2015-04-20T11:57:49Z</time>
      </trkpt>
      <trkpt lat="46.1768" lon="2.48561">
        <ele>468</ele>
        <time>2015-04-20T11:57:51Z</time>
      </trkpt>
      <trkpt lat="46.17677" lon="2.48559">
        <ele>469</ele>
        <time>2015-04-20T11:57:54Z</time>
      </trkpt>
      <trkpt lat="46.17672" lon="2.48557">
        <ele>469</ele>
        <time>2015-04-20T11:57:57Z</time>
      </trkpt>
      <trkpt lat="46.17669" lon="2.48555">
        <ele>469</ele>
        <time>2015-04-20T11:58:00Z</time>
      </trkpt>
      <trkpt lat="46.17666" lon="2.48554">
        <ele>470</ele>
        <time>2015-04-20T11:58:03Z</time>
      </trkpt>
      <trkpt lat="46.17664" lon="2.48553">
        <ele>470</ele>
        <time>2015-04-20T11:58:05Z</time>
      </trkpt>
      <trkpt lat="46.1766" lon="2.48553">
        <ele>470</ele>
        <time>2015-04-20T11:58:07Z</time>
      </trkpt>
      <trkpt lat="46.17657" lon="2.48552">
        <ele>470</ele>
        <time>2015-04-20T11:58:10Z</time>
      </trkpt>
      <trkpt lat="46.17653" lon="2.4855">
        <ele>470</ele>
        <time>2015-04-20T11:58:12Z</time>
      </trkpt>
      <trkpt lat="46.1765" lon="2.48547">
        <ele>470</ele>
        <time>2015-04-20T11:58:16Z</time>
      </trkpt>
      <trkpt lat="46.17648" lon="2.48545">
        <ele>470</ele>
        <time>2015-04-20T11:58:18Z</time>
      </trkpt>
      <trkpt lat="46.17647" lon="2.48543">
        <ele>470</ele>
        <time>2015-04-20T11:58:20Z</time>
      </trkpt>
      <trkpt lat="46.17645" lon="2.48539">
        <ele>470</ele>
        <time>2015-04-20T11:58:22Z</time>
      </trkpt>
      <trkpt lat="46.17642" lon="2.48538">
        <ele>470</ele>
        <time>2015-04-20T11:58:24Z</time>
      </trkpt>
      <trkpt lat="46.17638" lon="2.48538">
        <ele>470</ele>
        <time>2015-04-20T11:58:27Z</time>
      </trkpt>
      <trkpt lat="46.17635" lon="2.48537">
        <ele>470</ele>
        <time>2015-04-20T11:58:29Z</time>
      </trkpt>
      <trkpt lat="46.17632" lon="2.48538">
        <ele>470</ele>
        <time>2015-04-20T11:58:31Z</time>
      </trkpt>
      <trkpt lat="46.1763" lon="2.48538">
        <ele>470</ele>
        <time>2015-04-20T11:58:33Z</time>
      </trkpt>
      <trkpt lat="46.17624" lon="2.48538">
        <ele>470</ele>
        <time>2015-04-20T11:58:35Z</time>
      </trkpt>
      <trkpt lat="46.17621" lon="2.48538">
        <ele>470</ele>
        <time>2015-04-20T11:58:37Z</time>
      </trkpt>
      <trkpt lat="46.17619" lon="2.48538">
        <ele>470</ele>
        <time>2015-04-20T11:58:40Z</time>
      </trkpt>
      <trkpt lat="46.17616" lon="2.48534">
        <ele>472</ele>
        <time>2015-04-20T11:58:42Z</time>
      </trkpt>
      <trkpt lat="46.17614" lon="2.48534">
        <ele>472</ele>
        <time>2015-04-20T11:58:45Z</time>
      </trkpt>
      <trkpt lat="46.17609" lon="2.48537">
        <ele>474</ele>
        <time>2015-04-20T11:58:48Z</time>
      </trkpt>
      <trkpt lat="46.17606" lon="2.48539">
        <ele>474</ele>
        <time>2015-04-20T11:58:51Z</time>
      </trkpt>
      <trkpt lat="46.17603" lon="2.48539">
        <ele>474</ele>
        <time>2015-04-20T11:58:55Z</time>
      </trkpt>
      <trkpt lat="46.17599" lon="2.48534">
        <ele>474</ele>
        <time>2015-04-20T11:58:58Z</time>
      </trkpt>
      <trkpt lat="46.17596" lon="2.48533">
        <ele>474</ele>
        <time>2015-04-20T11:59:00Z</time>
      </trkpt>
      <trkpt lat="46.17593" lon="2.48532">
        <ele>474</ele>
        <time>2015-04-20T11:59:02Z</time>
      </trkpt>
      <trkpt lat="46.1759" lon="2.48531">
        <ele>474</ele>
        <time>2015-04-20T11:59:05Z</time>
      </trkpt>
      <trkpt lat="46.17587" lon="2.48534">
        <ele>474</ele>
        <time>2015-04-20T11:59:07Z</time>
      </trkpt>
      <trkpt lat="46.17584" lon="2.48537">
        <ele>474</ele>
        <time>2015-04-20T11:59:09Z</time>
      </trkpt>
      <trkpt lat="46.17579" lon="2.48537">
        <ele>474</ele>
        <time>2015-04-20T11:59:11Z</time>
      </trkpt>
      <trkpt lat="46.17576" lon="2.48537">
        <ele>474</ele>
        <time>2015-04-20T11:59:13Z</time>
      </trkpt>
      <trkpt lat="46.17572" lon="2.48536">
        <ele>474</ele>
        <time>2015-04-20T11:59:17Z</time>
      </trkpt>
      <trkpt lat="46.17569" lon="2.48535">
        <ele>474</ele>
        <time>2015-04-20T11:59:19Z</time>
      </trkpt>
      <trkpt lat="46.17566" lon="2.48536">
        <ele>474</ele>
        <time>2015-04-20T11:59:22Z</time>
      </trkpt>
      <trkpt lat="46.17562" lon="2.48537">
        <ele>474</ele>
        <time>2015-04-20T11:59:24Z</time>
      </trkpt>
      <trkpt lat="46.17559" lon="2.48538">
        <ele>474</ele>
        <time>2015-04-20T11:59:27Z</time>
      </trkpt>
      <trkpt lat="46.17556" lon="2.48539">
        <ele>474</ele>
        <time>2015-04-20T11:59:29Z</time>
      </trkpt>
      <trkpt lat="46.17551" lon="2.48538">
        <ele>474</ele>
        <time>2015-04-20T11:59:32Z</time>
      </trkpt>
      <trkpt lat="46.17546" lon="2.48537">
        <ele>474</ele>
        <time>2015-04-20T11:59:34Z</time>
      </trkpt>
      <trkpt lat="46.17544" lon="2.48538">
        <ele>475</ele>
        <time>2015-04-20T11:59:37Z</time>
      </trkpt>
      <trkpt lat="46.17541" lon="2.48539">
        <ele>475</ele>
        <time>2015-04-20T11:59:39Z</time>
      </trkpt>
      <trkpt lat="46.17538" lon="2.48539">
        <ele>475</ele>
        <time>2015-04-20T11:59:42Z</time>
      </trkpt>
      <trkpt lat="46.17535" lon="2.48536">
        <ele>475</ele>
        <time>2015-04-20T11:59:44Z</time>
      </trkpt>
      <trkpt lat="46.17531" lon="2.48537">
        <ele>475</ele>
        <time>2015-04-20T11:59:47Z</time>
      </trkpt>
      <trkpt lat="46.17526" lon="2.48537">
        <ele>475</ele>
        <time>2015-04-20T11:59:49Z</time>
      </trkpt>
      <trkpt lat="46.17523" lon="2.48536">
        <ele>475</ele>
        <time>2015-04-20T11:59:52Z</time>
      </trkpt>
      <trkpt lat="46.17518" lon="2.48535">
        <ele>475</ele>
        <time>2015-04-20T11:59:54Z</time>
      </trkpt>
      <trkpt lat="46.17515" lon="2.48535">
        <ele>475</ele>
        <time>2015-04-20T11:59:57Z</time>
      </trkpt>
      <trkpt lat="46.17513" lon="2.48535">
        <ele>475</ele>
        <time>2015-04-20T11:59:59Z</time>
      </trkpt>
      <trkpt lat="46.17509" lon="2.48535">
        <ele>475</ele>
        <time>2015-04-20T12:00:02Z</time>
      </trkpt>
      <trkpt lat="46.17504" lon="2.48536">
        <ele>475</ele>
        <time>2015-04-20T12:00:04Z</time>
      </trkpt>
      <trkpt lat="46.17502" lon="2.48536">
        <ele>475</ele>
        <time>2015-04-20T12:00:07Z</time>
      </trkpt>
      <trkpt lat="46.17499" lon="2.48536">
        <ele>475</ele>
        <time>2015-04-20T12:00:09Z</time>
      </trkpt>
      <trkpt lat="46.17495" lon="2.48535">
        <ele>475</ele>
        <time>2015-04-20T12:00:12Z</time>
      </trkpt>
      <trkpt lat="46.17491" lon="2.48536">
        <ele>476</ele>
        <time>2015-04-20T12:00:15Z</time>
      </trkpt>
      <trkpt lat="46.17488" lon="2.48535">
        <ele>476</ele>
        <time>2015-04-20T12:00:17Z</time>
      </trkpt>
      <trkpt lat="46.17483" lon="2.48536">
        <ele>476</ele>
        <time>2015-04-20T12:00:19Z</time>
      </trkpt>
      <trkpt lat="46.1748" lon="2.48535">
        <ele>476</ele>
        <time>2015-04-20T12:00:22Z</time>
      </trkpt>
      <trkpt lat="46.17476" lon="2.48536">
        <ele>476</ele>
        <time>2015-04-20T12:00:24Z</time>
      </trkpt>
      <trkpt lat="46.17473" lon="2.48536">
        <ele>476</ele>
        <time>2015-04-20T12:00:27Z</time>
      </trkpt>
      <trkpt lat="46.17469" lon="2.48536">
        <ele>476</ele>
        <time>2015-04-20T12:00:29Z</time>
      </trkpt>
      <trkpt lat="46.17465" lon="2.48535">
        <ele>475</ele>
        <time>2015-04-20T12:00:32Z</time>
      </trkpt>
      <trkpt lat="46.17461" lon="2.48536">
        <ele>475</ele>
        <time>2015-04-20T12:00:34Z</time>
      </trkpt>
      <trkpt lat="46.17458" lon="2.48536">
        <ele>475</ele>
        <time>2015-04-20T12:00:37Z</time>
      </trkpt>
      <trkpt lat="46.17454" lon="2.48538">
        <ele>475</ele>
        <time>2015-04-20T12:00:39Z</time>
      </trkpt>
      <trkpt lat="46.17452" lon="2.4854">
        <ele>475</ele>
        <time>2015-04-20T12:00:41Z</time>
      </trkpt>
      <trkpt lat="46.17448" lon="2.48539">
        <ele>475</ele>
        <time>2015-04-20T12:00:43Z</time>
      </trkpt>
      <trkpt lat="46.17445" lon="2.48538">
        <ele>473</ele>
        <time>2015-04-20T12:00:45Z</time>
      </trkpt>
      <trkpt lat="46.17442" lon="2.48537">
        <ele>472</ele>
        <time>2015-04-20T12:00:48Z</time>
      </trkpt>
      <trkpt lat="46.17437" lon="2.48536">
        <ele>469</ele>
        <time>2015-04-20T12:00:50Z</time>
      </trkpt>
      <trkpt lat="46.17434" lon="2.48537">
        <ele>468</ele>
        <time>2015-04-20T12:00:53Z</time>
      </trkpt>
      <trkpt lat="46.17432" lon="2.4853">
        <ele>468</ele>
        <time>2015-04-20T12:00:55Z</time>
      </trkpt>
      <trkpt lat="46.17432" lon="2.48524">
        <ele>468</ele>
        <time>2015-04-20T12:00:58Z</time>
      </trkpt>
      <trkpt lat="46.17432" lon="2.4852">
        <ele>468</ele>
        <time>2015-04-20T12:01:00Z</time>
      </trkpt>
      <trkpt lat="46.17433" lon="2.48512">
        <ele>468</ele>
        <time>2015-04-20T12:01:03Z</time>
      </trkpt>
      <trkpt lat="46.17435" lon="2.48506">
        <ele>468</ele>
        <time>2015-04-20T12:01:05Z</time>
      </trkpt>
      <trkpt lat="46.17436" lon="2.48502">
        <ele>468</ele>
        <time>2015-04-20T12:01:08Z</time>
      </trkpt>
      <trkpt lat="46.17438" lon="2.48496">
        <ele>468</ele>
        <time>2015-04-20T12:01:10Z</time>
      </trkpt>
      <trkpt lat="46.17439" lon="2.48491">
        <ele>468</ele>
        <time>2015-04-20T12:01:12Z</time>
      </trkpt>
      <trkpt lat="46.17439" lon="2.48486">
        <ele>468</ele>
        <time>2015-04-20T12:01:15Z</time>
      </trkpt>
      <trkpt lat="46.17439" lon="2.48479">
        <ele>468</ele>
        <time>2015-04-20T12:01:17Z</time>
      </trkpt>
      <trkpt lat="46.1744" lon="2.48475">
        <ele>468</ele>
        <time>2015-04-20T12:01:19Z</time>
      </trkpt>
      <trkpt lat="46.17442" lon="2.48472">
        <ele>468</ele>
        <time>2015-04-20T12:01:21Z</time>
      </trkpt>
      <trkpt lat="46.17443" lon="2.48468">
        <ele>468</ele>
        <time>2015-04-20T12:01:24Z</time>
      </trkpt>
      <trkpt lat="46.17445" lon="2.48462">
        <ele>468</ele>
        <time>2015-04-20T12:01:27Z</time>
      </trkpt>
      <trkpt lat="46.17447" lon="2.48459">
        <ele>468</ele>
        <time>2015-04-20T12:01:29Z</time>
      </trkpt>
      <trkpt lat="46.1745" lon="2.48454">
        <ele>468</ele>
        <time>2015-04-20T12:01:31Z</time>
      </trkpt>
      <trkpt lat="46.17452" lon="2.48452">
        <ele>468</ele>
        <time>2015-04-20T12:01:34Z</time>
      </trkpt>
      <trkpt lat="46.17453" lon="2.48448">
        <ele>468</ele>
        <time>2015-04-20T12:01:36Z</time>
      </trkpt>
      <trkpt lat="46.17454" lon="2.48445">
        <ele>468</ele>
        <time>2015-04-20T12:01:39Z</time>
      </trkpt>
      <trkpt lat="46.17455" lon="2.48443">
        <ele>468</ele>
        <time>2015-04-20T12:01:41Z</time>
      </trkpt>
      <trkpt lat="46.17454" lon="2.48436">
        <ele>468</ele>
        <time>2015-04-20T12:01:44Z</time>
      </trkpt>
      <trkpt lat="46.17454" lon="2.48432">
        <ele>468</ele>
        <time>2015-04-20T12:01:46Z</time>
      </trkpt>
      <trkpt lat="46.17453" lon="2.48427">
        <ele>468</ele>
        <time>2015-04-20T12:01:49Z</time>
      </trkpt>
      <trkpt lat="46.17452" lon="2.48422">
        <ele>468</ele>
        <time>2015-04-20T12:01:51Z</time>
      </trkpt>
      <trkpt lat="46.17451" lon="2.48416">
        <ele>468</ele>
        <time>2015-04-20T12:01:53Z</time>
      </trkpt>
      <trkpt lat="46.1745" lon="2.48412">
        <ele>468</ele>
        <time>2015-04-20T12:01:55Z</time>
      </trkpt>
      <trkpt lat="46.17449" lon="2.48408">
        <ele>468</ele>
        <time>2015-04-20T12:01:57Z</time>
      </trkpt>
      <trkpt lat="46.17448" lon="2.48404">
        <ele>468</ele>
        <time>2015-04-20T12:02:00Z</time>
      </trkpt>
      <trkpt lat="46.17446" lon="2.48397">
        <ele>468</ele>
        <time>2015-04-20T12:02:02Z</time>
      </trkpt>
      <trkpt lat="46.17445" lon="2.48394">
        <ele>468</ele>
        <time>2015-04-20T12:02:05Z</time>
      </trkpt>
      <trkpt lat="46.17446" lon="2.48388">
        <ele>468</ele>
        <time>2015-04-20T12:02:08Z</time>
      </trkpt>
      <trkpt lat="46.17448" lon="2.48382">
        <ele>468</ele>
        <time>2015-04-20T12:02:11Z</time>
      </trkpt>
      <trkpt lat="46.17448" lon="2.48375">
        <ele>468</ele>
        <time>2015-04-20T12:02:13Z</time>
      </trkpt>
      <trkpt lat="46.17448" lon="2.48372">
        <ele>468</ele>
        <time>2015-04-20T12:02:16Z</time>
      </trkpt>
      <trkpt lat="46.17448" lon="2.48366">
        <ele>468</ele>
        <time>2015-04-20T12:02:18Z</time>
      </trkpt>
      <trkpt lat="46.17447" lon="2.48362">
        <ele>468</ele>
        <time>2015-04-20T12:02:21Z</time>
      </trkpt>
      <trkpt lat="46.17447" lon="2.48356">
        <ele>468</ele>
        <time>2015-04-20T12:02:23Z</time>
      </trkpt>
      <trkpt lat="46.17445" lon="2.48352">
        <ele>468</ele>
        <time>2015-04-20T12:02:26Z</time>
      </trkpt>
      <trkpt lat="46.17444" lon="2.48345">
        <ele>469</ele>
        <time>2015-04-20T12:02:28Z</time>
      </trkpt>
      <trkpt lat="46.17443" lon="2.48342">
        <ele>469</ele>
        <time>2015-04-20T12:02:31Z</time>
      </trkpt>
      <trkpt lat="46.17441" lon="2.48337">
        <ele>469</ele>
        <time>2015-04-20T12:02:33Z</time>
      </trkpt>
      <trkpt lat="46.1744" lon="2.48332">
        <ele>469</ele>
        <time>2015-04-20T12:02:37Z</time>
      </trkpt>
      <trkpt lat="46.17439" lon="2.48326">
        <ele>469</ele>
        <time>2015-04-20T12:02:39Z</time>
      </trkpt>
      <trkpt lat="46.17438" lon="2.48323">
        <ele>469</ele>
        <time>2015-04-20T12:02:42Z</time>
      </trkpt>
      <trkpt lat="46.17436" lon="2.48318">
        <ele>469</ele>
        <time>2015-04-20T12:02:45Z</time>
      </trkpt>
      <trkpt lat="46.17434" lon="2.48315">
        <ele>469</ele>
        <time>2015-04-20T12:02:47Z</time>
      </trkpt>
      <trkpt lat="46.17434" lon="2.48309">
        <ele>469</ele>
        <time>2015-04-20T12:02:49Z</time>
      </trkpt>
      <trkpt lat="46.17434" lon="2.48305">
        <ele>469</ele>
        <time>2015-04-20T12:02:52Z</time>
      </trkpt>
      <trkpt lat="46.17433" lon="2.48299">
        <ele>471</ele>
        <time>2015-04-20T12:02:54Z</time>
      </trkpt>
      <trkpt lat="46.17432" lon="2.48295">
        <ele>472</ele>
        <time>2015-04-20T12:02:57Z</time>
      </trkpt>
      <trkpt lat="46.17431" lon="2.48289">
        <ele>473</ele>
        <time>2015-04-20T12:03:00Z</time>
      </trkpt>
      <trkpt lat="46.17429" lon="2.48286">
        <ele>473</ele>
        <time>2015-04-20T12:03:02Z</time>
      </trkpt>
      <trkpt lat="46.17427" lon="2.48282">
        <ele>473</ele>
        <time>2015-04-20T12:03:04Z</time>
      </trkpt>
      <trkpt lat="46.17427" lon="2.48279">
        <ele>473</ele>
        <time>2015-04-20T12:03:07Z</time>
      </trkpt>
      <trkpt lat="46.17426" lon="2.48273">
        <ele>473</ele>
        <time>2015-04-20T12:03:09Z</time>
      </trkpt>
      <trkpt lat="46.17426" lon="2.4827">
        <ele>473</ele>
        <time>2015-04-20T12:03:12Z</time>
      </trkpt>
      <trkpt lat="46.17424" lon="2.48263">
        <ele>473</ele>
        <time>2015-04-20T12:03:14Z</time>
      </trkpt>
      <trkpt lat="46.17424" lon="2.4826">
        <ele>473</ele>
        <time>2015-04-20T12:03:17Z</time>
      </trkpt>
      <trkpt lat="46.17421" lon="2.48255">
        <ele>473</ele>
        <time>2015-04-20T12:03:19Z</time>
      </trkpt>
      <trkpt lat="46.1742" lon="2.48251">
        <ele>473</ele>
        <time>2015-04-20T12:03:22Z</time>
      </trkpt>
      <trkpt lat="46.17419" lon="2.48246">
        <ele>473</ele>
        <time>2015-04-20T12:03:24Z</time>
      </trkpt>
      <trkpt lat="46.17418" lon="2.48241">
        <ele>473</ele>
        <time>2015-04-20T12:03:27Z</time>
      </trkpt>
      <trkpt lat="46.17417" lon="2.48235">
        <ele>473</ele>
        <time>2015-04-20T12:03:29Z</time>
      </trkpt>
      <trkpt lat="46.17417" lon="2.48231">
        <ele>473</ele>
        <time>2015-04-20T12:03:32Z</time>
      </trkpt>
      <trkpt lat="46.17417" lon="2.48225">
        <ele>473</ele>
        <time>2015-04-20T12:03:34Z</time>
      </trkpt>
      <trkpt lat="46.17416" lon="2.48221">
        <ele>473</ele>
        <time>2015-04-20T12:03:37Z</time>
      </trkpt>
      <trkpt lat="46.17414" lon="2.48217">
        <ele>473</ele>
        <time>2015-04-20T12:03:39Z</time>
      </trkpt>
      <trkpt lat="46.17411" lon="2.48215">
        <ele>473</ele>
        <time>2015-04-20T12:03:42Z</time>
      </trkpt>
      <trkpt lat="46.17406" lon="2.48213">
        <ele>473</ele>
        <time>2015-04-20T12:03:44Z</time>
      </trkpt>
      <trkpt lat="46.17403" lon="2.48213">
        <ele>473</ele>
        <time>2015-04-20T12:03:47Z</time>
      </trkpt>
      <trkpt lat="46.17399" lon="2.48212">
        <ele>473</ele>
        <time>2015-04-20T12:03:49Z</time>
      </trkpt>
      <trkpt lat="46.17396" lon="2.48212">
        <ele>473</ele>
        <time>2015-04-20T12:03:52Z</time>
      </trkpt>
      <trkpt lat="46.17391" lon="2.48211">
        <ele>473</ele>
        <time>2015-04-20T12:03:54Z</time>
      </trkpt>
      <trkpt lat="46.17389" lon="2.48211">
        <ele>473</ele>
        <time>2015-04-20T12:03:56Z</time>
      </trkpt>
      <trkpt lat="46.17386" lon="2.4821">
        <ele>473</ele>
        <time>2015-04-20T12:03:58Z</time>
      </trkpt>
      <trkpt lat="46.17382" lon="2.48209">
        <ele>473</ele>
        <time>2015-04-20T12:04:00Z</time>
      </trkpt>
      <trkpt lat="46.17379" lon="2.48208">
        <ele>473</ele>
        <time>2015-04-20T12:04:02Z</time>
      </trkpt>
      <trkpt lat="46.17376" lon="2.48207">
        <ele>473</ele>
        <time>2015-04-20T12:04:04Z</time>
      </trkpt>
      <trkpt lat="46.17373" lon="2.48206">
        <ele>473</ele>
        <time>2015-04-20T12:04:07Z</time>
      </trkpt>
      <trkpt lat="46.17368" lon="2.48204">
        <ele>473</ele>
        <time>2015-04-20T12:04:09Z</time>
      </trkpt>
      <trkpt lat="46.17366" lon="2.48202">
        <ele>473</ele>
        <time>2015-04-20T12:04:12Z</time>
      </trkpt>
      <trkpt lat="46.17363" lon="2.48201">
        <ele>473</ele>
        <time>2015-04-20T12:04:14Z</time>
      </trkpt>
      <trkpt lat="46.1736" lon="2.482">
        <ele>473</ele>
        <time>2015-04-20T12:04:18Z</time>
      </trkpt>
      <trkpt lat="46.17355" lon="2.48199">
        <ele>473</ele>
        <time>2015-04-20T12:04:20Z</time>
      </trkpt>
      <trkpt lat="46.17354" lon="2.48199">
        <ele>473</ele>
        <time>2015-04-20T12:04:22Z</time>
      </trkpt>
      <trkpt lat="46.17352" lon="2.48199">
        <ele>472</ele>
        <time>2015-04-20T12:04:24Z</time>
      </trkpt>
      <trkpt lat="46.17349" lon="2.48198">
        <ele>472</ele>
        <time>2015-04-20T12:04:26Z</time>
      </trkpt>
      <trkpt lat="46.17345" lon="2.48199">
        <ele>472</ele>
        <time>2015-04-20T12:04:28Z</time>
      </trkpt>
      <trkpt lat="46.17342" lon="2.48199">
        <ele>472</ele>
        <time>2015-04-20T12:04:30Z</time>
      </trkpt>
      <trkpt lat="46.17339" lon="2.482">
        <ele>472</ele>
        <time>2015-04-20T12:04:33Z</time>
      </trkpt>
      <trkpt lat="46.17334" lon="2.482">
        <ele>472</ele>
        <time>2015-04-20T12:04:35Z</time>
      </trkpt>
      <trkpt lat="46.1733" lon="2.482">
        <ele>472</ele>
        <time>2015-04-20T12:04:37Z</time>
      </trkpt>
      <trkpt lat="46.17328" lon="2.48199">
        <ele>472</ele>
        <time>2015-04-20T12:04:39Z</time>
      </trkpt>
      <trkpt lat="46.17326" lon="2.482">
        <ele>472</ele>
        <time>2015-04-20T12:04:41Z</time>
      </trkpt>
      <trkpt lat="46.17324" lon="2.482">
        <ele>472</ele>
        <time>2015-04-20T12:04:43Z</time>
      </trkpt>
      <trkpt lat="46.17321" lon="2.48201">
        <ele>472</ele>
        <time>2015-04-20T12:04:45Z</time>
      </trkpt>
      <trkpt lat="46.17319" lon="2.48202">
        <ele>470</ele>
        <time>2015-04-20T12:04:47Z</time>
      </trkpt>
      <trkpt lat="46.17316" lon="2.48203">
        <ele>470</ele>
        <time>2015-04-20T12:04:49Z</time>
      </trkpt>
      <trkpt lat="46.17314" lon="2.48204">
        <ele>469</ele>
        <time>2015-04-20T12:04:51Z</time>
      </trkpt>
      <trkpt lat="46.17312" lon="2.48204">
        <ele>468</ele>
        <time>2015-04-20T12:04:53Z</time>
      </trkpt>
      <trkpt lat="46.17309" lon="2.48204">
        <ele>468</ele>
        <time>2015-04-20T12:04:55Z</time>
      </trkpt>
      <trkpt lat="46.17307" lon="2.48204">
        <ele>467</ele>
        <time>2015-04-20T12:04:57Z</time>
      </trkpt>
      <trkpt lat="46.17304" lon="2.48205">
        <ele>467</ele>
        <time>2015-04-20T12:04:59Z</time>
      </trkpt>
      <trkpt lat="46.17301" lon="2.48206">
        <ele>467</ele>
        <time>2015-04-20T12:05:01Z</time>
      </trkpt>
      <trkpt lat="46.17298" lon="2.48206">
        <ele>467</ele>
        <time>2015-04-20T12:05:04Z</time>
      </trkpt>
      <trkpt lat="46.17294" lon="2.48207">
        <ele>466</ele>
        <time>2015-04-20T12:05:06Z</time>
      </trkpt>
      <trkpt lat="46.1729" lon="2.48207">
        <ele>466</ele>
        <time>2015-04-20T12:05:09Z</time>
      </trkpt>
      <trkpt lat="46.17286" lon="2.48206">
        <ele>466</ele>
        <time>2015-04-20T12:05:11Z</time>
      </trkpt>
      <trkpt lat="46.17282" lon="2.48207">
        <ele>466</ele>
        <time>2015-04-20T12:05:13Z</time>
      </trkpt>
      <trkpt lat="46.17279" lon="2.48208">
        <ele>466</ele>
        <time>2015-04-20T12:05:15Z</time>
      </trkpt>
      <trkpt lat="46.17276" lon="2.48208">
        <ele>466</ele>
        <time>2015-04-20T12:05:17Z</time>
      </trkpt>
      <trkpt lat="46.17273" lon="2.48208">
        <ele>466</ele>
        <time>2015-04-20T12:05:20Z</time>
      </trkpt>
      <trkpt lat="46.17269" lon="2.48208">
        <ele>466</ele>
        <time>2015-04-20T12:05:22Z</time>
      </trkpt>
      <trkpt lat="46.17266" lon="2.48208">
        <ele>466</ele>
        <time>2015-04-20T12:05:24Z</time>
      </trkpt>
      <trkpt lat="46.17264" lon="2.48208">
        <ele>466</ele>
        <time>2015-04-20T12:05:26Z</time>
      </trkpt>
      <trkpt lat="46.17261" lon="2.48208">
        <ele>466</ele>
        <time>2015-04-20T12:05:28Z</time>
      </trkpt>
      <trkpt lat="46.17258" lon="2.48207">
        <ele>466</ele>
        <time>2015-04-20T12:05:30Z</time>
      </trkpt>
      <trkpt lat="46.17255" lon="2.48206">
        <ele>466</ele>
        <time>2015-04-20T12:05:32Z</time>
      </trkpt>
      <trkpt lat="46.17252" lon="2.48205">
        <ele>466</ele>
        <time>2015-04-20T12:05:34Z</time>
      </trkpt>
      <trkpt lat="46.17249" lon="2.48204">
        <ele>466</ele>
        <time>2015-04-20T12:05:37Z</time>
      </trkpt>
      <trkpt lat="46.17244" lon="2.48202">
        <ele>466</ele>
        <time>2015-04-20T12:05:41Z</time>
      </trkpt>
      <trkpt lat="46.1724" lon="2.48201">
        <ele>466</ele>
        <time>2015-04-20T12:05:43Z</time>
      </trkpt>
      <trkpt lat="46.17238" lon="2.482">
        <ele>466</ele>
        <time>2015-04-20T12:05:45Z</time>
      </trkpt>
      <trkpt lat="46.17236" lon="2.48199">
        <ele>466</ele>
        <time>2015-04-20T12:05:47Z</time>
      </trkpt>
      <trkpt lat="46.17233" lon="2.48199">
        <ele>466</ele>
        <time>2015-04-20T12:05:49Z</time>
      </trkpt>
      <trkpt lat="46.1723" lon="2.48197">
        <ele>466</ele>
        <time>2015-04-20T12:05:52Z</time>
      </trkpt>
      <trkpt lat="46.17225" lon="2.48196">
        <ele>466</ele>
        <time>2015-04-20T12:05:55Z</time>
      </trkpt>
      <trkpt lat="46.17223" lon="2.48195">
        <ele>466</ele>
        <time>2015-04-20T12:05:57Z</time>
      </trkpt>
      <trkpt lat="46.1722" lon="2.48194">
        <ele>466</ele>
        <time>2015-04-20T12:05:59Z</time>
      </trkpt>
      <trkpt lat="46.17218" lon="2.48193">
        <ele>466</ele>
        <time>2015-04-20T12:06:02Z</time>
      </trkpt>
      <trkpt lat="46.17213" lon="2.48192">
        <ele>466</ele>
        <time>2015-04-20T12:06:04Z</time>
      </trkpt>
      <trkpt lat="46.17211" lon="2.4819">
        <ele>466</ele>
        <time>2015-04-20T12:06:06Z</time>
      </trkpt>
      <trkpt lat="46.17208" lon="2.48189">
        <ele>466</ele>
        <time>2015-04-20T12:06:08Z</time>
      </trkpt>
      <trkpt lat="46.17206" lon="2.48188">
        <ele>466</ele>
        <time>2015-04-20T12:06:10Z</time>
      </trkpt>
      <trkpt lat="46.17204" lon="2.48187">
        <ele>466</ele>
        <time>2015-04-20T12:06:12Z</time>
      </trkpt>
      <trkpt lat="46.17201" lon="2.48187">
        <ele>466</ele>
        <time>2015-04-20T12:06:14Z</time>
      </trkpt>
      <trkpt lat="46.17197" lon="2.48186">
        <ele>466</ele>
        <time>2015-04-20T12:06:17Z</time>
      </trkpt>
      <trkpt lat="46.17194" lon="2.48185">
        <ele>466</ele>
        <time>2015-04-20T12:06:19Z</time>
      </trkpt>
      <trkpt lat="46.17191" lon="2.48184">
        <ele>466</ele>
        <time>2015-04-20T12:06:23Z</time>
      </trkpt>
      <trkpt lat="46.17187" lon="2.48182">
        <ele>466</ele>
        <time>2015-04-20T12:06:25Z</time>
      </trkpt>
      <trkpt lat="46.17183" lon="2.48181">
        <ele>465</ele>
        <time>2015-04-20T12:06:28Z</time>
      </trkpt>
      <trkpt lat="46.17179" lon="2.48179">
        <ele>465</ele>
        <time>2015-04-20T12:06:30Z</time>
      </trkpt>
      <trkpt lat="46.17177" lon="2.48178">
        <ele>465</ele>
        <time>2015-04-20T12:06:33Z</time>
      </trkpt>
      <trkpt lat="46.17173" lon="2.48176">
        <ele>465</ele>
        <time>2015-04-20T12:06:35Z</time>
      </trkpt>
      <trkpt lat="46.1717" lon="2.48175">
        <ele>465</ele>
        <time>2015-04-20T12:06:38Z</time>
      </trkpt>
      <trkpt lat="46.17166" lon="2.48173">
        <ele>465</ele>
        <time>2015-04-20T12:06:40Z</time>
      </trkpt>
      <trkpt lat="46.17164" lon="2.48172">
        <ele>465</ele>
        <time>2015-04-20T12:06:42Z</time>
      </trkpt>
      <trkpt lat="46.17161" lon="2.48171">
        <ele>465</ele>
        <time>2015-04-20T12:06:44Z</time>
      </trkpt>
      <trkpt lat="46.17158" lon="2.4817">
        <ele>465</ele>
        <time>2015-04-20T12:06:46Z</time>
      </trkpt>
      <trkpt lat="46.17155" lon="2.48169">
        <ele>465</ele>
        <time>2015-04-20T12:06:48Z</time>
      </trkpt>
      <trkpt lat="46.17153" lon="2.48168">
        <ele>465</ele>
        <time>2015-04-20T12:06:50Z</time>
      </trkpt>
      <trkpt lat="46.1715" lon="2.48167">
        <ele>465</ele>
        <time>2015-04-20T12:06:53Z</time>
      </trkpt>
      <trkpt lat="46.17145" lon="2.48166">
        <ele>465</ele>
        <time>2015-04-20T12:06:56Z</time>
      </trkpt>
      <trkpt lat="46.17142" lon="2.48165">
        <ele>465</ele>
        <time>2015-04-20T12:06:58Z</time>
      </trkpt>
      <trkpt lat="46.1714" lon="2.48164">
        <ele>465</ele>
        <time>2015-04-20T12:07:00Z</time>
      </trkpt>
      <trkpt lat="46.17137" lon="2.48163">
        <ele>465</ele>
        <time>2015-04-20T12:07:03Z</time>
      </trkpt>
      <trkpt lat="46.17133" lon="2.48162">
        <ele>465</ele>
        <time>2015-04-20T12:07:05Z</time>
      </trkpt>
      <trkpt lat="46.1713" lon="2.4816">
        <ele>465</ele>
        <time>2015-04-20T12:07:08Z</time>
      </trkpt>
      <trkpt lat="46.17125" lon="2.48156">
        <ele>465</ele>
        <time>2015-04-20T12:07:11Z</time>
      </trkpt>
      <trkpt lat="46.17123" lon="2.48155">
        <ele>465</ele>
        <time>2015-04-20T12:07:13Z</time>
      </trkpt>
      <trkpt lat="46.1712" lon="2.48153">
        <ele>465</ele>
        <time>2015-04-20T12:07:15Z</time>
      </trkpt>
      <trkpt lat="46.17117" lon="2.48151">
        <ele>465</ele>
        <time>2015-04-20T12:07:17Z</time>
      </trkpt>
      <trkpt lat="46.17114" lon="2.4815">
        <ele>465</ele>
        <time>2015-04-20T12:07:19Z</time>
      </trkpt>
      <trkpt lat="46.17112" lon="2.4815">
        <ele>465</ele>
        <time>2015-04-20T12:07:21Z</time>
      </trkpt>
      <trkpt lat="46.17108" lon="2.48148">
        <ele>465</ele>
        <time>2015-04-20T12:07:24Z</time>
      </trkpt>
      <trkpt lat="46.17105" lon="2.48147">
        <ele>465</ele>
        <time>2015-04-20T12:07:26Z</time>
      </trkpt>
      <trkpt lat="46.17102" lon="2.48146">
        <ele>465</ele>
        <time>2015-04-20T12:07:28Z</time>
      </trkpt>
      <trkpt lat="46.17099" lon="2.48145">
        <ele>465</ele>
        <time>2015-04-20T12:07:30Z</time>
      </trkpt>
      <trkpt lat="46.17097" lon="2.48144">
        <ele>465</ele>
        <time>2015-04-20T12:07:33Z</time>
      </trkpt>
      <trkpt lat="46.17094" lon="2.48142">
        <ele>465</ele>
        <time>2015-04-20T12:07:35Z</time>
      </trkpt>
      <trkpt lat="46.17091" lon="2.48141">
        <ele>465</ele>
        <time>2015-04-20T12:07:37Z</time>
      </trkpt>
      <trkpt lat="46.17088" lon="2.4814">
        <ele>465</ele>
        <time>2015-04-20T12:07:39Z</time>
      </trkpt>
      <trkpt lat="46.17085" lon="2.48138">
        <ele>465</ele>
        <time>2015-04-20T12:07:41Z</time>
      </trkpt>
      <trkpt lat="46.17082" lon="2.48137">
        <ele>465</ele>
        <time>2015-04-20T12:07:43Z</time>
      </trkpt>
      <trkpt lat="46.1708" lon="2.48136">
        <ele>465</ele>
        <time>2015-04-20T12:07:45Z</time>
      </trkpt>
      <trkpt lat="46.17077" lon="2.48135">
        <ele>465</ele>
        <time>2015-04-20T12:07:47Z</time>
      </trkpt>
      <trkpt lat="46.17074" lon="2.48134">
        <ele>465</ele>
        <time>2015-04-20T12:07:49Z</time>
      </trkpt>
      <trkpt lat="46.17071" lon="2.48133">
        <ele>465</ele>
        <time>2015-04-20T12:07:52Z</time>
      </trkpt>
      <trkpt lat="46.17068" lon="2.48132">
        <ele>465</ele>
        <time>2015-04-20T12:07:54Z</time>
      </trkpt>
      <trkpt lat="46.17065" lon="2.48131">
        <ele>465</ele>
        <time>2015-04-20T12:07:56Z</time>
      </trkpt>
      <trkpt lat="46.17063" lon="2.48131">
        <ele>465</ele>
        <time>2015-04-20T12:07:58Z</time>
      </trkpt>
      <trkpt lat="46.1706" lon="2.4813">
        <ele>465</ele>
        <time>2015-04-20T12:08:00Z</time>
      </trkpt>
      <trkpt lat="46.17057" lon="2.4813">
        <ele>465</ele>
        <time>2015-04-20T12:08:03Z</time>
      </trkpt>
      <trkpt lat="46.17054" lon="2.48128">
        <ele>465</ele>
        <time>2015-04-20T12:08:05Z</time>
      </trkpt>
      <trkpt lat="46.1705" lon="2.48128">
        <ele>465</ele>
        <time>2015-04-20T12:08:08Z</time>
      </trkpt>
      <trkpt lat="46.17048" lon="2.48127">
        <ele>465</ele>
        <time>2015-04-20T12:08:10Z</time>
      </trkpt>
      <trkpt lat="46.17044" lon="2.48125">
        <ele>465</ele>
        <time>2015-04-20T12:08:12Z</time>
      </trkpt>
      <trkpt lat="46.17042" lon="2.48124">
        <ele>465</ele>
        <time>2015-04-20T12:08:14Z</time>
      </trkpt>
      <trkpt lat="46.17039" lon="2.48124">
        <ele>465</ele>
        <time>2015-04-20T12:08:16Z</time>
      </trkpt>
      <trkpt lat="46.17036" lon="2.48123">
        <ele>465</ele>
        <time>2015-04-20T12:08:18Z</time>
      </trkpt>
      <trkpt lat="46.17034" lon="2.48122">
        <ele>465</ele>
        <time>2015-04-20T12:08:20Z</time>
      </trkpt>
      <trkpt lat="46.1703" lon="2.4812">
        <ele>465</ele>
        <time>2015-04-20T12:08:23Z</time>
      </trkpt>
      <trkpt lat="46.17028" lon="2.48119">
        <ele>465</ele>
        <time>2015-04-20T12:08:25Z</time>
      </trkpt>
      <trkpt lat="46.17025" lon="2.48118">
        <ele>465</ele>
        <time>2015-04-20T12:08:27Z</time>
      </trkpt>
      <trkpt lat="46.17023" lon="2.48117">
        <ele>465</ele>
        <time>2015-04-20T12:08:29Z</time>
      </trkpt>
      <trkpt lat="46.1702" lon="2.48116">
        <ele>465</ele>
        <time>2015-04-20T12:08:31Z</time>
      </trkpt>
      <trkpt lat="46.17017" lon="2.48115">
        <ele>465</ele>
        <time>2015-04-20T12:08:33Z</time>
      </trkpt>
      <trkpt lat="46.17014" lon="2.48115">
        <ele>465</ele>
        <time>2015-04-20T12:08:35Z</time>
      </trkpt>
      <trkpt lat="46.17012" lon="2.48113">
        <ele>465</ele>
        <time>2015-04-20T12:08:37Z</time>
      </trkpt>
      <trkpt lat="46.17009" lon="2.48112">
        <ele>465</ele>
        <time>2015-04-20T12:08:39Z</time>
      </trkpt>
      <trkpt lat="46.17007" lon="2.48111">
        <ele>465</ele>
        <time>2015-04-20T12:08:41Z</time>
      </trkpt>
      <trkpt lat="46.17002" lon="2.48109">
        <ele>465</ele>
        <time>2015-04-20T12:08:44Z</time>
      </trkpt>
      <trkpt lat="46.17" lon="2.48108">
        <ele>465</ele>
        <time>2015-04-20T12:08:46Z</time>
      </trkpt>
      <trkpt lat="46.16997" lon="2.48108">
        <ele>465</ele>
        <time>2015-04-20T12:08:48Z</time>
      </trkpt>
      <trkpt lat="46.16994" lon="2.48107">
        <ele>465</ele>
        <time>2015-04-20T12:08:50Z</time>
      </trkpt>
      <trkpt lat="46.16992" lon="2.48106">
        <ele>465</ele>
        <time>2015-04-20T12:08:52Z</time>
      </trkpt>
      <trkpt lat="46.16989" lon="2.48105">
        <ele>465</ele>
        <time>2015-04-20T12:08:54Z</time>
      </trkpt>
      <trkpt lat="46.16986" lon="2.48105">
        <ele>465</ele>
        <time>2015-04-20T12:08:56Z</time>
      </trkpt>
      <trkpt lat="46.16982" lon="2.48103">
        <ele>465</ele>
        <time>2015-04-20T12:08:58Z</time>
      </trkpt>
      <trkpt lat="46.16979" lon="2.48102">
        <ele>465</ele>
        <time>2015-04-20T12:09:00Z</time>
      </trkpt>
      <trkpt lat="46.16976" lon="2.48102">
        <ele>465</ele>
        <time>2015-04-20T12:09:02Z</time>
      </trkpt>
      <trkpt lat="46.16973" lon="2.48101">
        <ele>465</ele>
        <time>2015-04-20T12:09:04Z</time>
      </trkpt>
      <trkpt lat="46.1697" lon="2.48101">
        <ele>465</ele>
        <time>2015-04-20T12:09:06Z</time>
      </trkpt>
      <trkpt lat="46.16966" lon="2.48101">
        <ele>465</ele>
        <time>2015-04-20T12:09:09Z</time>
      </trkpt>
      <trkpt lat="46.16963" lon="2.481">
        <ele>465</ele>
        <time>2015-04-20T12:09:11Z</time>
      </trkpt>
      <trkpt lat="46.1696" lon="2.481">
        <ele>465</ele>
        <time>2015-04-20T12:09:13Z</time>
      </trkpt>
      <trkpt lat="46.16957" lon="2.481">
        <ele>465</ele>
        <time>2015-04-20T12:09:15Z</time>
      </trkpt>
      <trkpt lat="46.16954" lon="2.481">
        <ele>465</ele>
        <time>2015-04-20T12:09:17Z</time>
      </trkpt>
      <trkpt lat="46.16952" lon="2.48099">
        <ele>465</ele>
        <time>2015-04-20T12:09:19Z</time>
      </trkpt>
      <trkpt lat="46.16948" lon="2.48099">
        <ele>465</ele>
        <time>2015-04-20T12:09:21Z</time>
      </trkpt>
      <trkpt lat="46.16946" lon="2.48098">
        <ele>465</ele>
        <time>2015-04-20T12:09:23Z</time>
      </trkpt>
      <trkpt lat="46.16943" lon="2.48098">
        <ele>465</ele>
        <time>2015-04-20T12:09:25Z</time>
      </trkpt>
      <trkpt lat="46.1694" lon="2.48098">
        <ele>465</ele>
        <time>2015-04-20T12:09:28Z</time>
      </trkpt>
      <trkpt lat="46.16937" lon="2.48097">
        <ele>465</ele>
        <time>2015-04-20T12:09:30Z</time>
      </trkpt>
      <trkpt lat="46.16934" lon="2.48097">
        <ele>465</ele>
        <time>2015-04-20T12:09:32Z</time>
      </trkpt>
      <trkpt lat="46.16932" lon="2.48096">
        <ele>465</ele>
        <time>2015-04-20T12:09:34Z</time>
      </trkpt>
      <trkpt lat="46.16929" lon="2.48096">
        <ele>465</ele>
        <time>2015-04-20T12:09:36Z</time>
      </trkpt>
      <trkpt lat="46.16926" lon="2.48096">
        <ele>465</ele>
        <time>2015-04-20T12:09:38Z</time>
      </trkpt>
      <trkpt lat="46.16923" lon="2.48096">
        <ele>465</ele>
        <time>2015-04-20T12:09:40Z</time>
      </trkpt>
      <trkpt lat="46.1692" lon="2.48096">
        <ele>465</ele>
        <time>2015-04-20T12:09:42Z</time>
      </trkpt>
      <trkpt lat="46.16917" lon="2.48096">
        <ele>465</ele>
        <time>2015-04-20T12:09:44Z</time>
      </trkpt>
      <trkpt lat="46.16915" lon="2.48095">
        <ele>465</ele>
        <time>2015-04-20T12:09:46Z</time>
      </trkpt>
      <trkpt lat="46.16912" lon="2.48095">
        <ele>465</ele>
        <time>2015-04-20T12:09:48Z</time>
      </trkpt>
      <trkpt lat="46.16909" lon="2.48095">
        <ele>465</ele>
        <time>2015-04-20T12:09:50Z</time>
      </trkpt>
      <trkpt lat="46.16907" lon="2.48095">
        <ele>465</ele>
        <time>2015-04-20T12:09:52Z</time>
      </trkpt>
      <trkpt lat="46.16904" lon="2.48095">
        <ele>465</ele>
        <time>2015-04-20T12:09:54Z</time>
      </trkpt>
      <trkpt lat="46.16901" lon="2.48095">
        <ele>465</ele>
        <time>2015-04-20T12:09:56Z</time>
      </trkpt>
      <trkpt lat="46.16899" lon="2.48095">
        <ele>465</ele>
        <time>2015-04-20T12:09:58Z</time>
      </trkpt>
      <trkpt lat="46.16896" lon="2.48094">
        <ele>465</ele>
        <time>2015-04-20T12:10:00Z</time>
      </trkpt>
      <trkpt lat="46.16893" lon="2.48094">
        <ele>465</ele>
        <time>2015-04-20T12:10:02Z</time>
      </trkpt>
      <trkpt lat="46.1689" lon="2.48093">
        <ele>465</ele>
        <time>2015-04-20T12:10:04Z</time>
      </trkpt>
      <trkpt lat="46.16887" lon="2.48092">
        <ele>465</ele>
        <time>2015-04-20T12:10:06Z</time>
      </trkpt>
      <trkpt lat="46.16884" lon="2.48092">
        <ele>465</ele>
        <time>2015-04-20T12:10:08Z</time>
      </trkpt>
      <trkpt lat="46.16881" lon="2.48092">
        <ele>465</ele>
        <time>2015-04-20T12:10:10Z</time>
      </trkpt>
      <trkpt lat="46.16878" lon="2.48091">
        <ele>465</ele>
        <time>2015-04-20T12:10:12Z</time>
      </trkpt>
      <trkpt lat="46.16876" lon="2.4809">
        <ele>465</ele>
        <time>2015-04-20T12:10:14Z</time>
      </trkpt>
      <trkpt lat="46.16874" lon="2.4809">
        <ele>465</ele>
        <time>2015-04-20T12:10:16Z</time>
      </trkpt>
      <trkpt lat="46.1687" lon="2.4809">
        <ele>465</ele>
        <time>2015-04-20T12:10:18Z</time>
      </trkpt>
      <trkpt lat="46.16867" lon="2.48089">
        <ele>465</ele>
        <time>2015-04-20T12:10:20Z</time>
      </trkpt>
      <trkpt lat="46.16864" lon="2.48089">
        <ele>465</ele>
        <time>2015-04-20T12:10:23Z</time>
      </trkpt>
      <trkpt lat="46.16862" lon="2.48089">
        <ele>465</ele>
        <time>2015-04-20T12:10:25Z</time>
      </trkpt>
      <trkpt lat="46.16858" lon="2.48088">
        <ele>465</ele>
        <time>2015-04-20T12:10:27Z</time>
      </trkpt>
      <trkpt lat="46.16856" lon="2.48088">
        <ele>465</ele>
        <time>2015-04-20T12:10:29Z</time>
      </trkpt>
      <trkpt lat="46.16853" lon="2.48088">
        <ele>465</ele>
        <time>2015-04-20T12:10:31Z</time>
      </trkpt>
      <trkpt lat="46.16851" lon="2.48088">
        <ele>465</ele>
        <time>2015-04-20T12:10:33Z</time>
      </trkpt>
      <trkpt lat="46.16848" lon="2.48088">
        <ele>465</ele>
        <time>2015-04-20T12:10:35Z</time>
      </trkpt>
      <trkpt lat="46.16845" lon="2.48088">
        <ele>465</ele>
        <time>2015-04-20T12:10:38Z</time>
      </trkpt>
      <trkpt lat="46.16842" lon="2.48088">
        <ele>465</ele>
        <time>2015-04-20T12:10:40Z</time>
      </trkpt>
      <trkpt lat="46.16839" lon="2.48088">
        <ele>465</ele>
        <time>2015-04-20T12:10:42Z</time>
      </trkpt>
      <trkpt lat="46.16837" lon="2.48088">
        <ele>465</ele>
        <time>2015-04-20T12:10:44Z</time>
      </trkpt>
      <trkpt lat="46.16834" lon="2.48089">
        <ele>465</ele>
        <time>2015-04-20T12:10:46Z</time>
      </trkpt>
      <trkpt lat="46.16831" lon="2.48089">
        <ele>465</ele>
        <time>2015-04-20T12:10:48Z</time>
      </trkpt>
      <trkpt lat="46.16826" lon="2.48088">
        <ele>465</ele>
        <time>2015-04-20T12:10:51Z</time>
      </trkpt>
      <trkpt lat="46.16823" lon="2.48087">
        <ele>465</ele>
        <time>2015-04-20T12:10:53Z</time>
      </trkpt>
      <trkpt lat="46.1682" lon="2.48086">
        <ele>465</ele>
        <time>2015-04-20T12:10:55Z</time>
      </trkpt>
      <trkpt lat="46.16817" lon="2.48086">
        <ele>465</ele>
        <time>2015-04-20T12:10:57Z</time>
      </trkpt>
      <trkpt lat="46.16815" lon="2.48087">
        <ele>465</ele>
        <time>2015-04-20T12:10:59Z</time>
      </trkpt>
      <trkpt lat="46.16812" lon="2.48087">
        <ele>465</ele>
        <time>2015-04-20T12:11:01Z</time>
      </trkpt>
      <trkpt lat="46.16809" lon="2.48087">
        <ele>465</ele>
        <time>2015-04-20T12:11:03Z</time>
      </trkpt>
      <trkpt lat="46.16806" lon="2.48086">
        <ele>465</ele>
        <time>2015-04-20T12:11:05Z</time>
      </trkpt>
      <trkpt lat="46.16802" lon="2.48086">
        <ele>465</ele>
        <time>2015-04-20T12:11:08Z</time>
      </trkpt>
      <trkpt lat="46.168" lon="2.48086">
        <ele>465</ele>
        <time>2015-04-20T12:11:10Z</time>
      </trkpt>
      <trkpt lat="46.16797" lon="2.48086">
        <ele>465</ele>
        <time>2015-04-20T12:11:12Z</time>
      </trkpt>
      <trkpt lat="46.16795" lon="2.48085">
        <ele>465</ele>
        <time>2015-04-20T12:11:14Z</time>
      </trkpt>
      <trkpt lat="46.16792" lon="2.48085">
        <ele>465</ele>
        <time>2015-04-20T12:11:16Z</time>
      </trkpt>
      <trkpt lat="46.16789" lon="2.48085">
        <ele>465</ele>
        <time>2015-04-20T12:11:18Z</time>
      </trkpt>
      <trkpt lat="46.16787" lon="2.48085">
        <ele>465</ele>
        <time>2015-04-20T12:11:20Z</time>
      </trkpt>
      <trkpt lat="46.16784" lon="2.48085">
        <ele>465</ele>
        <time>2015-04-20T12:11:22Z</time>
      </trkpt>
      <trkpt lat="46.16782" lon="2.48085">
        <ele>465</ele>
        <time>2015-04-20T12:11:24Z</time>
      </trkpt>
      <trkpt lat="46.16779" lon="2.48084">
        <ele>465</ele>
        <time>2015-04-20T12:11:26Z</time>
      </trkpt>
      <trkpt lat="46.16776" lon="2.48085">
        <ele>465</ele>
        <time>2015-04-20T12:11:28Z</time>
      </trkpt>
      <trkpt lat="46.16774" lon="2.48084">
        <ele>465</ele>
        <time>2015-04-20T12:11:30Z</time>
      </trkpt>
      <trkpt lat="46.16771" lon="2.48083">
        <ele>465</ele>
        <time>2015-04-20T12:11:32Z</time>
      </trkpt>
      <trkpt lat="46.16768" lon="2.48083">
        <ele>465</ele>
        <time>2015-04-20T12:11:34Z</time>
      </trkpt>
      <trkpt lat="46.16764" lon="2.48082">
        <ele>465</ele>
        <time>2015-04-20T12:11:36Z</time>
      </trkpt>
      <trkpt lat="46.16761" lon="2.48082">
        <ele>465</ele>
        <time>2015-04-20T12:11:38Z</time>
      </trkpt>
      <trkpt lat="46.16759" lon="2.48081">
        <ele>465</ele>
        <time>2015-04-20T12:11:40Z</time>
      </trkpt>
      <trkpt lat="46.16756" lon="2.4808">
        <ele>465</ele>
        <time>2015-04-20T12:11:42Z</time>
      </trkpt>
      <trkpt lat="46.16753" lon="2.4808">
        <ele>465</ele>
        <time>2015-04-20T12:11:44Z</time>
      </trkpt>
      <trkpt lat="46.16749" lon="2.48079">
        <ele>465</ele>
        <time>2015-04-20T12:11:47Z</time>
      </trkpt>
      <trkpt lat="46.16747" lon="2.48079">
        <ele>465</ele>
        <time>2015-04-20T12:11:49Z</time>
      </trkpt>
      <trkpt lat="46.16744" lon="2.48078">
        <ele>465</ele>
        <time>2015-04-20T12:11:51Z</time>
      </trkpt>
      <trkpt lat="46.16741" lon="2.48078">
        <ele>465</ele>
        <time>2015-04-20T12:11:53Z</time>
      </trkpt>
      <trkpt lat="46.16737" lon="2.48078">
        <ele>465</ele>
        <time>2015-04-20T12:11:55Z</time>
      </trkpt>
      <trkpt lat="46.16734" lon="2.48077">
        <ele>465</ele>
        <time>2015-04-20T12:11:57Z</time>
      </trkpt>
      <trkpt lat="46.16732" lon="2.48078">
        <ele>465</ele>
        <time>2015-04-20T12:11:59Z</time>
      </trkpt>
      <trkpt lat="46.16729" lon="2.48077">
        <ele>465</ele>
        <time>2015-04-20T12:12:01Z</time>
      </trkpt>
      <trkpt lat="46.16727" lon="2.48076">
        <ele>465</ele>
        <time>2015-04-20T12:12:03Z</time>
      </trkpt>
      <trkpt lat="46.16725" lon="2.48076">
        <ele>465</ele>
        <time>2015-04-20T12:12:05Z</time>
      </trkpt>
      <trkpt lat="46.16723" lon="2.48076">
        <ele>465</ele>
        <time>2015-04-20T12:12:07Z</time>
      </trkpt>
      <trkpt lat="46.1672" lon="2.48076">
        <ele>465</ele>
        <time>2015-04-20T12:12:09Z</time>
      </trkpt>
      <trkpt lat="46.16718" lon="2.48076">
        <ele>465</ele>
        <time>2015-04-20T12:12:11Z</time>
      </trkpt>
      <trkpt lat="46.16715" lon="2.48076">
        <ele>465</ele>
        <time>2015-04-20T12:12:13Z</time>
      </trkpt>
      <trkpt lat="46.16713" lon="2.48076">
        <ele>465</ele>
        <time>2015-04-20T12:12:15Z</time>
      </trkpt>
      <trkpt lat="46.1671" lon="2.48076">
        <ele>465</ele>
        <time>2015-04-20T12:12:17Z</time>
      </trkpt>
      <trkpt lat="46.16707" lon="2.48076">
        <ele>465</ele>
        <time>2015-04-20T12:12:19Z</time>
      </trkpt>
      <trkpt lat="46.16705" lon="2.48076">
        <ele>465</ele>
        <time>2015-04-20T12:12:21Z</time>
      </trkpt>
      <trkpt lat="46.16702" lon="2.48075">
        <ele>465</ele>
        <time>2015-04-20T12:12:23Z</time>
      </trkpt>
      <trkpt lat="46.16699" lon="2.48075">
        <ele>465</ele>
        <time>2015-04-20T12:12:25Z</time>
      </trkpt>
      <trkpt lat="46.16696" lon="2.48075">
        <ele>465</ele>
        <time>2015-04-20T12:12:27Z</time>
      </trkpt>
      <trkpt lat="46.16693" lon="2.48074">
        <ele>465</ele>
        <time>2015-04-20T12:12:29Z</time>
      </trkpt>
      <trkpt lat="46.16691" lon="2.48075">
        <ele>465</ele>
        <time>2015-04-20T12:12:31Z</time>
      </trkpt>
      <trkpt lat="46.16688" lon="2.48075">
        <ele>465</ele>
        <time>2015-04-20T12:12:33Z</time>
      </trkpt>
      <trkpt lat="46.16686" lon="2.48075">
        <ele>465</ele>
        <time>2015-04-20T12:12:35Z</time>
      </trkpt>
      <trkpt lat="46.16683" lon="2.48075">
        <ele>465</ele>
        <time>2015-04-20T12:12:37Z</time>
      </trkpt>
      <trkpt lat="46.1668" lon="2.48074">
        <ele>465</ele>
        <time>2015-04-20T12:12:39Z</time>
      </trkpt>
      <trkpt lat="46.16678" lon="2.48074">
        <ele>465</ele>
        <time>2015-04-20T12:12:41Z</time>
      </trkpt>
      <trkpt lat="46.16675" lon="2.48074">
        <ele>465</ele>
        <time>2015-04-20T12:12:43Z</time>
      </trkpt>
      <trkpt lat="46.16673" lon="2.48074">
        <ele>465</ele>
        <time>2015-04-20T12:12:45Z</time>
      </trkpt>
      <trkpt lat="46.16669" lon="2.48074">
        <ele>465</ele>
        <time>2015-04-20T12:12:47Z</time>
      </trkpt>
      <trkpt lat="46.16667" lon="2.48074">
        <ele>465</ele>
        <time>2015-04-20T12:12:49Z</time>
      </trkpt>
      <trkpt lat="46.16664" lon="2.48074">
        <ele>465</ele>
        <time>2015-04-20T12:12:51Z</time>
      </trkpt>
      <trkpt lat="46.16661" lon="2.48074">
        <ele>465</ele>
        <time>2015-04-20T12:12:53Z</time>
      </trkpt>
      <trkpt lat="46.16659" lon="2.48073">
        <ele>465</ele>
        <time>2015-04-20T12:12:55Z</time>
      </trkpt>
      <trkpt lat="46.16657" lon="2.48072">
        <ele>465</ele>
        <time>2015-04-20T12:12:57Z</time>
      </trkpt>
      <trkpt lat="46.16654" lon="2.48072">
        <ele>465</ele>
        <time>2015-04-20T12:12:59Z</time>
      </trkpt>
      <trkpt lat="46.16651" lon="2.48072">
        <ele>465</ele>
        <time>2015-04-20T12:13:01Z</time>
      </trkpt>
      <trkpt lat="46.16648" lon="2.48071">
        <ele>465</ele>
        <time>2015-04-20T12:13:03Z</time>
      </trkpt>
      <trkpt lat="46.16646" lon="2.48071">
        <ele>465</ele>
        <time>2015-04-20T12:13:05Z</time>
      </trkpt>
      <trkpt lat="46.16643" lon="2.48071">
        <ele>465</ele>
        <time>2015-04-20T12:13:07Z</time>
      </trkpt>
      <trkpt lat="46.1664" lon="2.48071">
        <ele>465</ele>
        <time>2015-04-20T12:13:09Z</time>
      </trkpt>
      <trkpt lat="46.16637" lon="2.48071">
        <ele>465</ele>
        <time>2015-04-20T12:13:11Z</time>
      </trkpt>
      <trkpt lat="46.16635" lon="2.48071">
        <ele>465</ele>
        <time>2015-04-20T12:13:13Z</time>
      </trkpt>
      <trkpt lat="46.16632" lon="2.48071">
        <ele>465</ele>
        <time>2015-04-20T12:13:15Z</time>
      </trkpt>
      <trkpt lat="46.1663" lon="2.4807">
        <ele>465</ele>
        <time>2015-04-20T12:13:17Z</time>
      </trkpt>
      <trkpt lat="46.16627" lon="2.48068">
        <ele>465</ele>
        <time>2015-04-20T12:13:19Z</time>
      </trkpt>
      <trkpt lat="46.16625" lon="2.48066">
        <ele>465</ele>
        <time>2015-04-20T12:13:21Z</time>
      </trkpt>
      <trkpt lat="46.16623" lon="2.48063">
        <ele>465</ele>
        <time>2015-04-20T12:13:23Z</time>
      </trkpt>
      <trkpt lat="46.16619" lon="2.48059">
        <ele>465</ele>
        <time>2015-04-20T12:13:26Z</time>
      </trkpt>
      <trkpt lat="46.16618" lon="2.48056">
        <ele>465</ele>
        <time>2015-04-20T12:13:28Z</time>
      </trkpt>
      <trkpt lat="46.16616" lon="2.48052">
        <ele>465</ele>
        <time>2015-04-20T12:13:30Z</time>
      </trkpt>
      <trkpt lat="46.16613" lon="2.48048">
        <ele>465</ele>
        <time>2015-04-20T12:13:32Z</time>
      </trkpt>
      <trkpt lat="46.16611" lon="2.48045">
        <ele>465</ele>
        <time>2015-04-20T12:13:34Z</time>
      </trkpt>
      <trkpt lat="46.16609" lon="2.48043">
        <ele>465</ele>
        <time>2015-04-20T12:13:36Z</time>
      </trkpt>
      <trkpt lat="46.16606" lon="2.48038">
        <ele>465</ele>
        <time>2015-04-20T12:13:39Z</time>
      </trkpt>
      <trkpt lat="46.16603" lon="2.48035">
        <ele>465</ele>
        <time>2015-04-20T12:13:41Z</time>
      </trkpt>
      <trkpt lat="46.166" lon="2.48031">
        <ele>465</ele>
        <time>2015-04-20T12:13:44Z</time>
      </trkpt>
      <trkpt lat="46.16598" lon="2.48029">
        <ele>465</ele>
        <time>2015-04-20T12:13:46Z</time>
      </trkpt>
      <trkpt lat="46.16594" lon="2.48025">
        <ele>465</ele>
        <time>2015-04-20T12:13:50Z</time>
      </trkpt>
      <trkpt lat="46.16592" lon="2.48023">
        <ele>465</ele>
        <time>2015-04-20T12:13:52Z</time>
      </trkpt>
      <trkpt lat="46.1659" lon="2.48022">
        <ele>465</ele>
        <time>2015-04-20T12:13:54Z</time>
      </trkpt>
      <trkpt lat="46.16588" lon="2.4802">
        <ele>465</ele>
        <time>2015-04-20T12:13:56Z</time>
      </trkpt>
      <trkpt lat="46.16586" lon="2.48018">
        <ele>465</ele>
        <time>2015-04-20T12:13:58Z</time>
      </trkpt>
      <trkpt lat="46.16583" lon="2.48015">
        <ele>465</ele>
        <time>2015-04-20T12:14:01Z</time>
      </trkpt>
      <trkpt lat="46.1658" lon="2.48014">
        <ele>465</ele>
        <time>2015-04-20T12:14:03Z</time>
      </trkpt>
      <trkpt lat="46.16578" lon="2.48011">
        <ele>465</ele>
        <time>2015-04-20T12:14:05Z</time>
      </trkpt>
      <trkpt lat="46.16573" lon="2.48007">
        <ele>465</ele>
        <time>2015-04-20T12:14:09Z</time>
      </trkpt>
      <trkpt lat="46.16571" lon="2.48007">
        <ele>465</ele>
        <time>2015-04-20T12:14:11Z</time>
      </trkpt>
      <trkpt lat="46.16569" lon="2.48005">
        <ele>465</ele>
        <time>2015-04-20T12:14:13Z</time>
      </trkpt>
      <trkpt lat="46.16566" lon="2.48003">
        <ele>465</ele>
        <time>2015-04-20T12:14:15Z</time>
      </trkpt>
      <trkpt lat="46.16563" lon="2.48">
        <ele>465</ele>
        <time>2015-04-20T12:14:18Z</time>
      </trkpt>
      <trkpt lat="46.16561" lon="2.47997">
        <ele>465</ele>
        <time>2015-04-20T12:14:20Z</time>
      </trkpt>
      <trkpt lat="46.16558" lon="2.47996">
        <ele>465</ele>
        <time>2015-04-20T12:14:22Z</time>
      </trkpt>
      <trkpt lat="46.16556" lon="2.47994">
        <ele>465</ele>
        <time>2015-04-20T12:14:24Z</time>
      </trkpt>
      <trkpt lat="46.16553" lon="2.47991">
        <ele>465</ele>
        <time>2015-04-20T12:14:27Z</time>
      </trkpt>
      <trkpt lat="46.1655" lon="2.47989">
        <ele>465</ele>
        <time>2015-04-20T12:14:29Z</time>
      </trkpt>
      <trkpt lat="46.16548" lon="2.47987">
        <ele>465</ele>
        <time>2015-04-20T12:14:31Z</time>
      </trkpt>
      <trkpt lat="46.16546" lon="2.47984">
        <ele>465</ele>
        <time>2015-04-20T12:14:33Z</time>
      </trkpt>
      <trkpt lat="46.16543" lon="2.47982">
        <ele>465</ele>
        <time>2015-04-20T12:14:35Z</time>
      </trkpt>
      <trkpt lat="46.16541" lon="2.47979">
        <ele>465</ele>
        <time>2015-04-20T12:14:37Z</time>
      </trkpt>
      <trkpt lat="46.16538" lon="2.47977">
        <ele>465</ele>
        <time>2015-04-20T12:14:39Z</time>
      </trkpt>
      <trkpt lat="46.16535" lon="2.47974">
        <ele>465</ele>
        <time>2015-04-20T12:14:41Z</time>
      </trkpt>
      <trkpt lat="46.16533" lon="2.47972">
        <ele>465</ele>
        <time>2015-04-20T12:14:43Z</time>
      </trkpt>
      <trkpt lat="46.1653" lon="2.4797">
        <ele>466</ele>
        <time>2015-04-20T12:14:45Z</time>
      </trkpt>
      <trkpt lat="46.16528" lon="2.47968">
        <ele>466</ele>
        <time>2015-04-20T12:14:47Z</time>
      </trkpt>
      <trkpt lat="46.16525" lon="2.47967">
        <ele>466</ele>
        <time>2015-04-20T12:14:49Z</time>
      </trkpt>
      <trkpt lat="46.16523" lon="2.47966">
        <ele>466</ele>
        <time>2015-04-20T12:14:51Z</time>
      </trkpt>
      <trkpt lat="46.16521" lon="2.47964">
        <ele>466</ele>
        <time>2015-04-20T12:14:53Z</time>
      </trkpt>
      <trkpt lat="46.16518" lon="2.47962">
        <ele>466</ele>
        <time>2015-04-20T12:14:55Z</time>
      </trkpt>
      <trkpt lat="46.16516" lon="2.4796">
        <ele>466</ele>
        <time>2015-04-20T12:14:57Z</time>
      </trkpt>
      <trkpt lat="46.16514" lon="2.47958">
        <ele>466</ele>
        <time>2015-04-20T12:14:59Z</time>
      </trkpt>
      <trkpt lat="46.16512" lon="2.47956">
        <ele>466</ele>
        <time>2015-04-20T12:15:01Z</time>
      </trkpt>
      <trkpt lat="46.16509" lon="2.47954">
        <ele>466</ele>
        <time>2015-04-20T12:15:03Z</time>
      </trkpt>
      <trkpt lat="46.16507" lon="2.47952">
        <ele>466</ele>
        <time>2015-04-20T12:15:05Z</time>
      </trkpt>
      <trkpt lat="46.16505" lon="2.4795">
        <ele>466</ele>
        <time>2015-04-20T12:15:07Z</time>
      </trkpt>
      <trkpt lat="46.16502" lon="2.47948">
        <ele>466</ele>
        <time>2015-04-20T12:15:09Z</time>
      </trkpt>
      <trkpt lat="46.16499" lon="2.47943">
        <ele>466</ele>
        <time>2015-04-20T12:15:12Z</time>
      </trkpt>
      <trkpt lat="46.16497" lon="2.47941">
        <ele>466</ele>
        <time>2015-04-20T12:15:14Z</time>
      </trkpt>
      <trkpt lat="46.16496" lon="2.47938">
        <ele>466</ele>
        <time>2015-04-20T12:15:16Z</time>
      </trkpt>
      <trkpt lat="46.16493" lon="2.47933">
        <ele>466</ele>
        <time>2015-04-20T12:15:19Z</time>
      </trkpt>
      <trkpt lat="46.16491" lon="2.47929">
        <ele>466</ele>
        <time>2015-04-20T12:15:21Z</time>
      </trkpt>
      <trkpt lat="46.16489" lon="2.47925">
        <ele>466</ele>
        <time>2015-04-20T12:15:23Z</time>
      </trkpt>
      <trkpt lat="46.16487" lon="2.4792">
        <ele>466</ele>
        <time>2015-04-20T12:15:25Z</time>
      </trkpt>
      <trkpt lat="46.16486" lon="2.47917">
        <ele>466</ele>
        <time>2015-04-20T12:15:27Z</time>
      </trkpt>
      <trkpt lat="46.16484" lon="2.47913">
        <ele>466</ele>
        <time>2015-04-20T12:15:30Z</time>
      </trkpt>
      <trkpt lat="46.16482" lon="2.47907">
        <ele>466</ele>
        <time>2015-04-20T12:15:33Z</time>
      </trkpt>
      <trkpt lat="46.16481" lon="2.47903">
        <ele>466</ele>
        <time>2015-04-20T12:15:35Z</time>
      </trkpt>
      <trkpt lat="46.1648" lon="2.479">
        <ele>466</ele>
        <time>2015-04-20T12:15:37Z</time>
      </trkpt>
      <trkpt lat="46.16479" lon="2.47896">
        <ele>466</ele>
        <time>2015-04-20T12:15:39Z</time>
      </trkpt>
      <trkpt lat="46.16477" lon="2.47892">
        <ele>466</ele>
        <time>2015-04-20T12:15:41Z</time>
      </trkpt>
      <trkpt lat="46.16476" lon="2.47889">
        <ele>466</ele>
        <time>2015-04-20T12:15:43Z</time>
      </trkpt>
      <trkpt lat="46.16475" lon="2.47886">
        <ele>466</ele>
        <time>2015-04-20T12:15:45Z</time>
      </trkpt>
      <trkpt lat="46.16473" lon="2.47884">
        <ele>466</ele>
        <time>2015-04-20T12:15:47Z</time>
      </trkpt>
      <trkpt lat="46.16471" lon="2.47882">
        <ele>466</ele>
        <time>2015-04-20T12:15:49Z</time>
      </trkpt>
      <trkpt lat="46.16469" lon="2.47881">
        <ele>466</ele>
        <time>2015-04-20T12:15:51Z</time>
      </trkpt>
      <trkpt lat="46.16467" lon="2.47879">
        <ele>466</ele>
        <time>2015-04-20T12:15:53Z</time>
      </trkpt>
      <trkpt lat="46.16465" lon="2.47878">
        <ele>466</ele>
        <time>2015-04-20T12:15:55Z</time>
      </trkpt>
      <trkpt lat="46.16462" lon="2.47878">
        <ele>466</ele>
        <time>2015-04-20T12:15:57Z</time>
      </trkpt>
      <trkpt lat="46.16459" lon="2.47877">
        <ele>466</ele>
        <time>2015-04-20T12:15:59Z</time>
      </trkpt>
      <trkpt lat="46.16457" lon="2.47877">
        <ele>466</ele>
        <time>2015-04-20T12:16:01Z</time>
      </trkpt>
      <trkpt lat="46.16454" lon="2.47878">
        <ele>466</ele>
        <time>2015-04-20T12:16:03Z</time>
      </trkpt>
      <trkpt lat="46.16451" lon="2.47879">
        <ele>466</ele>
        <time>2015-04-20T12:16:05Z</time>
      </trkpt>
      <trkpt lat="46.16449" lon="2.47881">
        <ele>466</ele>
        <time>2015-04-20T12:16:07Z</time>
      </trkpt>
      <trkpt lat="46.16446" lon="2.47883">
        <ele>466</ele>
        <time>2015-04-20T12:16:09Z</time>
      </trkpt>
      <trkpt lat="46.16443" lon="2.47884">
        <ele>466</ele>
        <time>2015-04-20T12:16:11Z</time>
      </trkpt>
      <trkpt lat="46.16441" lon="2.47886">
        <ele>466</ele>
        <time>2015-04-20T12:16:13Z</time>
      </trkpt>
      <trkpt lat="46.16439" lon="2.47888">
        <ele>466</ele>
        <time>2015-04-20T12:16:15Z</time>
      </trkpt>
      <trkpt lat="46.16436" lon="2.4789">
        <ele>466</ele>
        <time>2015-04-20T12:16:17Z</time>
      </trkpt>
      <trkpt lat="46.16432" lon="2.47893">
        <ele>466</ele>
        <time>2015-04-20T12:16:20Z</time>
      </trkpt>
      <trkpt lat="46.16429" lon="2.47894">
        <ele>466</ele>
        <time>2015-04-20T12:16:22Z</time>
      </trkpt>
      <trkpt lat="46.16426" lon="2.47895">
        <ele>466</ele>
        <time>2015-04-20T12:16:24Z</time>
      </trkpt>
      <trkpt lat="46.16423" lon="2.47896">
        <ele>466</ele>
        <time>2015-04-20T12:16:26Z</time>
      </trkpt>
      <trkpt lat="46.16421" lon="2.47897">
        <ele>466</ele>
        <time>2015-04-20T12:16:28Z</time>
      </trkpt>
      <trkpt lat="46.16418" lon="2.47897">
        <ele>466</ele>
        <time>2015-04-20T12:16:30Z</time>
      </trkpt>
      <trkpt lat="46.16416" lon="2.47897">
        <ele>466</ele>
        <time>2015-04-20T12:16:32Z</time>
      </trkpt>
      <trkpt lat="46.16413" lon="2.47897">
        <ele>466</ele>
        <time>2015-04-20T12:16:34Z</time>
      </trkpt>
      <trkpt lat="46.1641" lon="2.47897">
        <ele>466</ele>
        <time>2015-04-20T12:16:36Z</time>
      </trkpt>
      <trkpt lat="46.16409" lon="2.47896">
        <ele>466</ele>
        <time>2015-04-20T12:16:38Z</time>
      </trkpt>
      <trkpt lat="46.16406" lon="2.47896">
        <ele>466</ele>
        <time>2015-04-20T12:16:40Z</time>
      </trkpt>
      <trkpt lat="46.16404" lon="2.47894">
        <ele>466</ele>
        <time>2015-04-20T12:16:42Z</time>
      </trkpt>
      <trkpt lat="46.16399" lon="2.47893">
        <ele>466</ele>
        <time>2015-04-20T12:16:45Z</time>
      </trkpt>
      <trkpt lat="46.16397" lon="2.47891">
        <ele>466</ele>
        <time>2015-04-20T12:16:47Z</time>
      </trkpt>
      <trkpt lat="46.16395" lon="2.4789">
        <ele>466</ele>
        <time>2015-04-20T12:16:49Z</time>
      </trkpt>
      <trkpt lat="46.16392" lon="2.47889">
        <ele>466</ele>
        <time>2015-04-20T12:16:51Z</time>
      </trkpt>
      <trkpt lat="46.16389" lon="2.47887">
        <ele>466</ele>
        <time>2015-04-20T12:16:53Z</time>
      </trkpt>
      <trkpt lat="46.16387" lon="2.47885">
        <ele>466</ele>
        <time>2015-04-20T12:16:55Z</time>
      </trkpt>
      <trkpt lat="46.16383" lon="2.47883">
        <ele>466</ele>
        <time>2015-04-20T12:16:58Z</time>
      </trkpt>
      <trkpt lat="46.1638" lon="2.47882">
        <ele>466</ele>
        <time>2015-04-20T12:17:00Z</time>
      </trkpt>
      <trkpt lat="46.16377" lon="2.47881">
        <ele>466</ele>
        <time>2015-04-20T12:17:02Z</time>
      </trkpt>
      <trkpt lat="46.16375" lon="2.47879">
        <ele>466</ele>
        <time>2015-04-20T12:17:04Z</time>
      </trkpt>
      <trkpt lat="46.16372" lon="2.47878">
        <ele>466</ele>
        <time>2015-04-20T12:17:06Z</time>
      </trkpt>
      <trkpt lat="46.1637" lon="2.47876">
        <ele>466</ele>
        <time>2015-04-20T12:17:08Z</time>
      </trkpt>
      <trkpt lat="46.16367" lon="2.47875">
        <ele>466</ele>
        <time>2015-04-20T12:17:10Z</time>
      </trkpt>
      <trkpt lat="46.16364" lon="2.47873">
        <ele>466</ele>
        <time>2015-04-20T12:17:12Z</time>
      </trkpt>
      <trkpt lat="46.1636" lon="2.47871">
        <ele>466</ele>
        <time>2015-04-20T12:17:15Z</time>
      </trkpt>
      <trkpt lat="46.16358" lon="2.4787">
        <ele>466</ele>
        <time>2015-04-20T12:17:17Z</time>
      </trkpt>
      <trkpt lat="46.16355" lon="2.47868">
        <ele>466</ele>
        <time>2015-04-20T12:17:19Z</time>
      </trkpt>
      <trkpt lat="46.16352" lon="2.47867">
        <ele>466</ele>
        <time>2015-04-20T12:17:21Z</time>
      </trkpt>
      <trkpt lat="46.16349" lon="2.47865">
        <ele>466</ele>
        <time>2015-04-20T12:17:23Z</time>
      </trkpt>
      <trkpt lat="46.16347" lon="2.47864">
        <ele>466</ele>
        <time>2015-04-20T12:17:25Z</time>
      </trkpt>
      <trkpt lat="46.16344" lon="2.47863">
        <ele>466</ele>
        <time>2015-04-20T12:17:27Z</time>
      </trkpt>
      <trkpt lat="46.16341" lon="2.47862">
        <ele>466</ele>
        <time>2015-04-20T12:17:29Z</time>
      </trkpt>
      <trkpt lat="46.16339" lon="2.47861">
        <ele>466</ele>
        <time>2015-04-20T12:17:31Z</time>
      </trkpt>
      <trkpt lat="46.16335" lon="2.47859">
        <ele>466</ele>
        <time>2015-04-20T12:17:34Z</time>
      </trkpt>
      <trkpt lat="46.16331" lon="2.47857">
        <ele>466</ele>
        <time>2015-04-20T12:17:37Z</time>
      </trkpt>
      <trkpt lat="46.16328" lon="2.47856">
        <ele>466</ele>
        <time>2015-04-20T12:17:39Z</time>
      </trkpt>
      <trkpt lat="46.16325" lon="2.47855">
        <ele>466</ele>
        <time>2015-04-20T12:17:41Z</time>
      </trkpt>
      <trkpt lat="46.16323" lon="2.47853">
        <ele>466</ele>
        <time>2015-04-20T12:17:43Z</time>
      </trkpt>
      <trkpt lat="46.16319" lon="2.47852">
        <ele>466</ele>
        <time>2015-04-20T12:17:46Z</time>
      </trkpt>
      <trkpt lat="46.16316" lon="2.47851">
        <ele>466</ele>
        <time>2015-04-20T12:17:48Z</time>
      </trkpt>
      <trkpt lat="46.16314" lon="2.4785">
        <ele>466</ele>
        <time>2015-04-20T12:17:50Z</time>
      </trkpt>
      <trkpt lat="46.16311" lon="2.47849">
        <ele>466</ele>
        <time>2015-04-20T12:17:52Z</time>
      </trkpt>
      <trkpt lat="46.16308" lon="2.47848">
        <ele>466</ele>
        <time>2015-04-20T12:17:54Z</time>
      </trkpt>
      <trkpt lat="46.16306" lon="2.47847">
        <ele>466</ele>
        <time>2015-04-20T12:17:56Z</time>
      </trkpt>
      <trkpt lat="46.16303" lon="2.47846">
        <ele>466</ele>
        <time>2015-04-20T12:17:58Z</time>
      </trkpt>
      <trkpt lat="46.163" lon="2.47845">
        <ele>466</ele>
        <time>2015-04-20T12:18:00Z</time>
      </trkpt>
      <trkpt lat="46.16297" lon="2.47844">
        <ele>466</ele>
        <time>2015-04-20T12:18:02Z</time>
      </trkpt>
      <trkpt lat="46.16294" lon="2.47843">
        <ele>466</ele>
        <time>2015-04-20T12:18:04Z</time>
      </trkpt>
      <trkpt lat="46.16291" lon="2.47841">
        <ele>466</ele>
        <time>2015-04-20T12:18:06Z</time>
      </trkpt>
      <trkpt lat="46.16287" lon="2.4784">
        <ele>466</ele>
        <time>2015-04-20T12:18:09Z</time>
      </trkpt>
      <trkpt lat="46.16285" lon="2.47839">
        <ele>466</ele>
        <time>2015-04-20T12:18:11Z</time>
      </trkpt>
      <trkpt lat="46.16282" lon="2.47838">
        <ele>466</ele>
        <time>2015-04-20T12:18:13Z</time>
      </trkpt>
      <trkpt lat="46.16279" lon="2.47837">
        <ele>466</ele>
        <time>2015-04-20T12:18:15Z</time>
      </trkpt>
      <trkpt lat="46.16275" lon="2.47836">
        <ele>466</ele>
        <time>2015-04-20T12:18:18Z</time>
      </trkpt>
      <trkpt lat="46.16272" lon="2.47835">
        <ele>466</ele>
        <time>2015-04-20T12:18:20Z</time>
      </trkpt>
      <trkpt lat="46.1627" lon="2.47834">
        <ele>466</ele>
        <time>2015-04-20T12:18:22Z</time>
      </trkpt>
      <trkpt lat="46.16267" lon="2.47833">
        <ele>466</ele>
        <time>2015-04-20T12:18:24Z</time>
      </trkpt>
      <trkpt lat="46.16263" lon="2.47831">
        <ele>466</ele>
        <time>2015-04-20T12:18:27Z</time>
      </trkpt>
      <trkpt lat="46.1626" lon="2.47829">
        <ele>466</ele>
        <time>2015-04-20T12:18:29Z</time>
      </trkpt>
      <trkpt lat="46.16257" lon="2.47828">
        <ele>466</ele>
        <time>2015-04-20T12:18:31Z</time>
      </trkpt>
      <trkpt lat="46.16254" lon="2.47826">
        <ele>466</ele>
        <time>2015-04-20T12:18:33Z</time>
      </trkpt>
      <trkpt lat="46.16251" lon="2.47825">
        <ele>466</ele>
        <time>2015-04-20T12:18:35Z</time>
      </trkpt>
      <trkpt lat="46.16249" lon="2.47823">
        <ele>466</ele>
        <time>2015-04-20T12:18:37Z</time>
      </trkpt>
      <trkpt lat="46.16246" lon="2.47822">
        <ele>466</ele>
        <time>2015-04-20T12:18:39Z</time>
      </trkpt>
      <trkpt lat="46.16243" lon="2.47821">
        <ele>466</ele>
        <time>2015-04-20T12:18:41Z</time>
      </trkpt>
      <trkpt lat="46.1624" lon="2.47819">
        <ele>466</ele>
        <time>2015-04-20T12:18:43Z</time>
      </trkpt>
      <trkpt lat="46.16238" lon="2.47818">
        <ele>466</ele>
        <time>2015-04-20T12:18:45Z</time>
      </trkpt>
      <trkpt lat="46.16235" lon="2.47816">
        <ele>466</ele>
        <time>2015-04-20T12:18:47Z</time>
      </trkpt>
      <trkpt lat="46.16233" lon="2.47815">
        <ele>466</ele>
        <time>2015-04-20T12:18:49Z</time>
      </trkpt>
      <trkpt lat="46.1623" lon="2.47813">
        <ele>466</ele>
        <time>2015-04-20T12:18:51Z</time>
      </trkpt>
      <trkpt lat="46.16227" lon="2.47812">
        <ele>466</ele>
        <time>2015-04-20T12:18:53Z</time>
      </trkpt>
      <trkpt lat="46.16223" lon="2.4781">
        <ele>466</ele>
        <time>2015-04-20T12:18:56Z</time>
      </trkpt>
      <trkpt lat="46.16221" lon="2.47808">
        <ele>466</ele>
        <time>2015-04-20T12:18:58Z</time>
      </trkpt>
      <trkpt lat="46.16218" lon="2.47806">
        <ele>466</ele>
        <time>2015-04-20T12:19:00Z</time>
      </trkpt>
      <trkpt lat="46.16215" lon="2.47805">
        <ele>466</ele>
        <time>2015-04-20T12:19:02Z</time>
      </trkpt>
      <trkpt lat="46.16213" lon="2.47804">
        <ele>466</ele>
        <time>2015-04-20T12:19:04Z</time>
      </trkpt>
      <trkpt lat="46.1621" lon="2.47802">
        <ele>466</ele>
        <time>2015-04-20T12:19:06Z</time>
      </trkpt>
      <trkpt lat="46.16208" lon="2.47801">
        <ele>466</ele>
        <time>2015-04-20T12:19:08Z</time>
      </trkpt>
      <trkpt lat="46.16205" lon="2.47799">
        <ele>466</ele>
        <time>2015-04-20T12:19:10Z</time>
      </trkpt>
      <trkpt lat="46.16202" lon="2.47798">
        <ele>466</ele>
        <time>2015-04-20T12:19:12Z</time>
      </trkpt>
      <trkpt lat="46.162" lon="2.47797">
        <ele>466</ele>
        <time>2015-04-20T12:19:14Z</time>
      </trkpt>
      <trkpt lat="46.16197" lon="2.47795">
        <ele>466</ele>
        <time>2015-04-20T12:19:16Z</time>
      </trkpt>
      <trkpt lat="46.16194" lon="2.47794">
        <ele>466</ele>
        <time>2015-04-20T12:19:18Z</time>
      </trkpt>
      <trkpt lat="46.16191" lon="2.47793">
        <ele>466</ele>
        <time>2015-04-20T12:19:20Z</time>
      </trkpt>
      <trkpt lat="46.16188" lon="2.47792">
        <ele>466</ele>
        <time>2015-04-20T12:19:22Z</time>
      </trkpt>
      <trkpt lat="46.16186" lon="2.4779">
        <ele>466</ele>
        <time>2015-04-20T12:19:24Z</time>
      </trkpt>
      <trkpt lat="46.16183" lon="2.47789">
        <ele>466</ele>
        <time>2015-04-20T12:19:26Z</time>
      </trkpt>
      <trkpt lat="46.16181" lon="2.47788">
        <ele>466</ele>
        <time>2015-04-20T12:19:28Z</time>
      </trkpt>
      <trkpt lat="46.16178" lon="2.47787">
        <ele>466</ele>
        <time>2015-04-20T12:19:30Z</time>
      </trkpt>
      <trkpt lat="46.16175" lon="2.47786">
        <ele>466</ele>
        <time>2015-04-20T12:19:32Z</time>
      </trkpt>
      <trkpt lat="46.16173" lon="2.47784">
        <ele>466</ele>
        <time>2015-04-20T12:19:34Z</time>
      </trkpt>
      <trkpt lat="46.1617" lon="2.47783">
        <ele>466</ele>
        <time>2015-04-20T12:19:36Z</time>
      </trkpt>
      <trkpt lat="46.16167" lon="2.47782">
        <ele>466</ele>
        <time>2015-04-20T12:19:38Z</time>
      </trkpt>
      <trkpt lat="46.16165" lon="2.47781">
        <ele>466</ele>
        <time>2015-04-20T12:19:40Z</time>
      </trkpt>
      <trkpt lat="46.16163" lon="2.4778">
        <ele>466</ele>
        <time>2015-04-20T12:19:42Z</time>
      </trkpt>
      <trkpt lat="46.1616" lon="2.47779">
        <ele>466</ele>
        <time>2015-04-20T12:19:44Z</time>
      </trkpt>
      <trkpt lat="46.16158" lon="2.47777">
        <ele>466</ele>
        <time>2015-04-20T12:19:46Z</time>
      </trkpt>
      <trkpt lat="46.16155" lon="2.47776">
        <ele>466</ele>
        <time>2015-04-20T12:19:48Z</time>
      </trkpt>
      <trkpt lat="46.16152" lon="2.47776">
        <ele>466</ele>
        <time>2015-04-20T12:19:50Z</time>
      </trkpt>
      <trkpt lat="46.1615" lon="2.47775">
        <ele>466</ele>
        <time>2015-04-20T12:19:52Z</time>
      </trkpt>
      <trkpt lat="46.16147" lon="2.47773">
        <ele>466</ele>
        <time>2015-04-20T12:19:54Z</time>
      </trkpt>
      <trkpt lat="46.16144" lon="2.47772">
        <ele>466</ele>
        <time>2015-04-20T12:19:56Z</time>
      </trkpt>
      <trkpt lat="46.16142" lon="2.47771">
        <ele>466</ele>
        <time>2015-04-20T12:19:58Z</time>
      </trkpt>
      <trkpt lat="46.16139" lon="2.47769">
        <ele>466</ele>
        <time>2015-04-20T12:20:00Z</time>
      </trkpt>
      <trkpt lat="46.16137" lon="2.47768">
        <ele>466</ele>
        <time>2015-04-20T12:20:02Z</time>
      </trkpt>
      <trkpt lat="46.16134" lon="2.47768">
        <ele>466</ele>
        <time>2015-04-20T12:20:04Z</time>
      </trkpt>
      <trkpt lat="46.16131" lon="2.47767">
        <ele>466</ele>
        <time>2015-04-20T12:20:06Z</time>
      </trkpt>
      <trkpt lat="46.16129" lon="2.47765">
        <ele>466</ele>
        <time>2015-04-20T12:20:08Z</time>
      </trkpt>
      <trkpt lat="46.16126" lon="2.47764">
        <ele>466</ele>
        <time>2015-04-20T12:20:10Z</time>
      </trkpt>
      <trkpt lat="46.16123" lon="2.47763">
        <ele>466</ele>
        <time>2015-04-20T12:20:12Z</time>
      </trkpt>
      <trkpt lat="46.16121" lon="2.47762">
        <ele>466</ele>
        <time>2015-04-20T12:20:14Z</time>
      </trkpt>
      <trkpt lat="46.16118" lon="2.4776">
        <ele>466</ele>
        <time>2015-04-20T12:20:16Z</time>
      </trkpt>
      <trkpt lat="46.16115" lon="2.47759">
        <ele>466</ele>
        <time>2015-04-20T12:20:18Z</time>
      </trkpt>
      <trkpt lat="46.16113" lon="2.47758">
        <ele>466</ele>
        <time>2015-04-20T12:20:20Z</time>
      </trkpt>
      <trkpt lat="46.1611" lon="2.47757">
        <ele>466</ele>
        <time>2015-04-20T12:20:22Z</time>
      </trkpt>
      <trkpt lat="46.16107" lon="2.47757">
        <ele>466</ele>
        <time>2015-04-20T12:20:24Z</time>
      </trkpt>
      <trkpt lat="46.16104" lon="2.47755">
        <ele>466</ele>
        <time>2015-04-20T12:20:26Z</time>
      </trkpt>
      <trkpt lat="46.16101" lon="2.47755">
        <ele>466</ele>
        <time>2015-04-20T12:20:28Z</time>
      </trkpt>
      <trkpt lat="46.16099" lon="2.47753">
        <ele>466</ele>
        <time>2015-04-20T12:20:30Z</time>
      </trkpt>
      <trkpt lat="46.16096" lon="2.47753">
        <ele>466</ele>
        <time>2015-04-20T12:20:32Z</time>
      </trkpt>
      <trkpt lat="46.16093" lon="2.47752">
        <ele>466</ele>
        <time>2015-04-20T12:20:34Z</time>
      </trkpt>
      <trkpt lat="46.1609" lon="2.47751">
        <ele>466</ele>
        <time>2015-04-20T12:20:36Z</time>
      </trkpt>
      <trkpt lat="46.16088" lon="2.47751">
        <ele>466</ele>
        <time>2015-04-20T12:20:38Z</time>
      </trkpt>
      <trkpt lat="46.16085" lon="2.4775">
        <ele>466</ele>
        <time>2015-04-20T12:20:40Z</time>
      </trkpt>
      <trkpt lat="46.16083" lon="2.4775">
        <ele>466</ele>
        <time>2015-04-20T12:20:42Z</time>
      </trkpt>
      <trkpt lat="46.1608" lon="2.47749">
        <ele>466</ele>
        <time>2015-04-20T12:20:44Z</time>
      </trkpt>
      <trkpt lat="46.16077" lon="2.47749">
        <ele>466</ele>
        <time>2015-04-20T12:20:46Z</time>
      </trkpt>
      <trkpt lat="46.16075" lon="2.47748">
        <ele>466</ele>
        <time>2015-04-20T12:20:48Z</time>
      </trkpt>
      <trkpt lat="46.16072" lon="2.47748">
        <ele>466</ele>
        <time>2015-04-20T12:20:50Z</time>
      </trkpt>
      <trkpt lat="46.16069" lon="2.47747">
        <ele>466</ele>
        <time>2015-04-20T12:20:52Z</time>
      </trkpt>
      <trkpt lat="46.16066" lon="2.47747">
        <ele>466</ele>
        <time>2015-04-20T12:20:54Z</time>
      </trkpt>
      <trkpt lat="46.16064" lon="2.47746">
        <ele>466</ele>
        <time>2015-04-20T12:20:56Z</time>
      </trkpt>
      <trkpt lat="46.16061" lon="2.47745">
        <ele>466</ele>
        <time>2015-04-20T12:20:58Z</time>
      </trkpt>
      <trkpt lat="46.16058" lon="2.47744">
        <ele>466</ele>
        <time>2015-04-20T12:21:00Z</time>
      </trkpt>
      <trkpt lat="46.16056" lon="2.47744">
        <ele>466</ele>
        <time>2015-04-20T12:21:02Z</time>
      </trkpt>
      <trkpt lat="46.16053" lon="2.47743">
        <ele>466</ele>
        <time>2015-04-20T12:21:04Z</time>
      </trkpt>
      <trkpt lat="46.1605" lon="2.47742">
        <ele>466</ele>
        <time>2015-04-20T12:21:06Z</time>
      </trkpt>
      <trkpt lat="46.16048" lon="2.47741">
        <ele>466</ele>
        <time>2015-04-20T12:21:08Z</time>
      </trkpt>
      <trkpt lat="46.16045" lon="2.4774">
        <ele>466</ele>
        <time>2015-04-20T12:21:10Z</time>
      </trkpt>
      <trkpt lat="46.16042" lon="2.47739">
        <ele>466</ele>
        <time>2015-04-20T12:21:12Z</time>
      </trkpt>
      <trkpt lat="46.1604" lon="2.47738">
        <ele>466</ele>
        <time>2015-04-20T12:21:14Z</time>
      </trkpt>
      <trkpt lat="46.16037" lon="2.47737">
        <ele>466</ele>
        <time>2015-04-20T12:21:16Z</time>
      </trkpt>
      <trkpt lat="46.16035" lon="2.47736">
        <ele>466</ele>
        <time>2015-04-20T12:21:18Z</time>
      </trkpt>
      <trkpt lat="46.16032" lon="2.47735">
        <ele>466</ele>
        <time>2015-04-20T12:21:20Z</time>
      </trkpt>
      <trkpt lat="46.16029" lon="2.47735">
        <ele>466</ele>
        <time>2015-04-20T12:21:22Z</time>
      </trkpt>
      <trkpt lat="46.16027" lon="2.47734">
        <ele>466</ele>
        <time>2015-04-20T12:21:24Z</time>
      </trkpt>
      <trkpt lat="46.16025" lon="2.47733">
        <ele>466</ele>
        <time>2015-04-20T12:21:26Z</time>
      </trkpt>
      <trkpt lat="46.16025" lon="2.47731">
        <ele>467</ele>
        <time>2015-04-20T12:21:37Z</time>
      </trkpt>
      <trkpt lat="46.16014" lon="2.47721">
        <ele>467</ele>
        <time>2015-04-20T12:21:45Z</time>
      </trkpt>
      <trkpt lat="46.16012" lon="2.47719">
        <ele>467</ele>
        <time>2015-04-20T12:21:47Z</time>
      </trkpt>
      <trkpt lat="46.1601" lon="2.47717">
        <ele>467</ele>
        <time>2015-04-20T12:21:49Z</time>
      </trkpt>
      <trkpt lat="46.16007" lon="2.47715">
        <ele>467</ele>
        <time>2015-04-20T12:21:51Z</time>
      </trkpt>
      <trkpt lat="46.16005" lon="2.47713">
        <ele>467</ele>
        <time>2015-04-20T12:21:53Z</time>
      </trkpt>
      <trkpt lat="46.16003" lon="2.4771">
        <ele>467</ele>
        <time>2015-04-20T12:21:55Z</time>
      </trkpt>
      <trkpt lat="46.16001" lon="2.47707">
        <ele>468</ele>
        <time>2015-04-20T12:21:57Z</time>
      </trkpt>
      <trkpt lat="46.16" lon="2.47704">
        <ele>468</ele>
        <time>2015-04-20T12:21:59Z</time>
      </trkpt>
      <trkpt lat="46.15999" lon="2.47701">
        <ele>469</ele>
        <time>2015-04-20T12:22:01Z</time>
      </trkpt>
      <trkpt lat="46.15996" lon="2.47697">
        <ele>469</ele>
        <time>2015-04-20T12:22:03Z</time>
      </trkpt>
      <trkpt lat="46.15994" lon="2.47692">
        <ele>469</ele>
        <time>2015-04-20T12:22:06Z</time>
      </trkpt>
      <trkpt lat="46.15992" lon="2.47688">
        <ele>470</ele>
        <time>2015-04-20T12:22:09Z</time>
      </trkpt>
      <trkpt lat="46.1599" lon="2.47685">
        <ele>470</ele>
        <time>2015-04-20T12:22:11Z</time>
      </trkpt>
      <trkpt lat="46.15988" lon="2.47682">
        <ele>470</ele>
        <time>2015-04-20T12:22:13Z</time>
      </trkpt>
      <trkpt lat="46.15986" lon="2.47679">
        <ele>470</ele>
        <time>2015-04-20T12:22:15Z</time>
      </trkpt>
      <trkpt lat="46.15983" lon="2.47675">
        <ele>470</ele>
        <time>2015-04-20T12:22:18Z</time>
      </trkpt>
      <trkpt lat="46.15981" lon="2.47672">
        <ele>470</ele>
        <time>2015-04-20T12:22:20Z</time>
      </trkpt>
      <trkpt lat="46.15978" lon="2.4767">
        <ele>470</ele>
        <time>2015-04-20T12:22:22Z</time>
      </trkpt>
      <trkpt lat="46.15976" lon="2.47667">
        <ele>470</ele>
        <time>2015-04-20T12:22:24Z</time>
      </trkpt>
      <trkpt lat="46.15974" lon="2.47664">
        <ele>470</ele>
        <time>2015-04-20T12:22:26Z</time>
      </trkpt>
      <trkpt lat="46.15972" lon="2.47662">
        <ele>470</ele>
        <time>2015-04-20T12:22:28Z</time>
      </trkpt>
      <trkpt lat="46.15969" lon="2.47659">
        <ele>470</ele>
        <time>2015-04-20T12:22:30Z</time>
      </trkpt>
      <trkpt lat="46.15966" lon="2.47655">
        <ele>470</ele>
        <time>2015-04-20T12:22:33Z</time>
      </trkpt>
      <trkpt lat="46.15964" lon="2.47653">
        <ele>470</ele>
        <time>2015-04-20T12:22:35Z</time>
      </trkpt>
      <trkpt lat="46.1596" lon="2.4765">
        <ele>470</ele>
        <time>2015-04-20T12:22:38Z</time>
      </trkpt>
      <trkpt lat="46.15958" lon="2.47648">
        <ele>470</ele>
        <time>2015-04-20T12:22:40Z</time>
      </trkpt>
      <trkpt lat="46.15957" lon="2.47647">
        <ele>470</ele>
        <time>2015-04-20T12:22:42Z</time>
      </trkpt>
      <trkpt lat="46.15953" lon="2.47645">
        <ele>470</ele>
        <time>2015-04-20T12:22:45Z</time>
      </trkpt>
      <trkpt lat="46.15951" lon="2.47643">
        <ele>470</ele>
        <time>2015-04-20T12:22:47Z</time>
      </trkpt>
      <trkpt lat="46.15948" lon="2.47642">
        <ele>470</ele>
        <time>2015-04-20T12:22:49Z</time>
      </trkpt>
      <trkpt lat="46.15946" lon="2.47641">
        <ele>470</ele>
        <time>2015-04-20T12:22:51Z</time>
      </trkpt>
      <trkpt lat="46.15943" lon="2.47639">
        <ele>470</ele>
        <time>2015-04-20T12:22:53Z</time>
      </trkpt>
      <trkpt lat="46.15941" lon="2.47637">
        <ele>470</ele>
        <time>2015-04-20T12:22:55Z</time>
      </trkpt>
      <trkpt lat="46.15937" lon="2.47635">
        <ele>470</ele>
        <time>2015-04-20T12:22:58Z</time>
      </trkpt>
      <trkpt lat="46.15935" lon="2.47634">
        <ele>470</ele>
        <time>2015-04-20T12:23:00Z</time>
      </trkpt>
      <trkpt lat="46.15932" lon="2.47632">
        <ele>470</ele>
        <time>2015-04-20T12:23:02Z</time>
      </trkpt>
      <trkpt lat="46.1593" lon="2.47631">
        <ele>470</ele>
        <time>2015-04-20T12:23:04Z</time>
      </trkpt>
      <trkpt lat="46.15927" lon="2.47629">
        <ele>470</ele>
        <time>2015-04-20T12:23:06Z</time>
      </trkpt>
      <trkpt lat="46.15924" lon="2.47629">
        <ele>470</ele>
        <time>2015-04-20T12:23:08Z</time>
      </trkpt>
      <trkpt lat="46.15922" lon="2.47627">
        <ele>470</ele>
        <time>2015-04-20T12:23:10Z</time>
      </trkpt>
      <trkpt lat="46.15919" lon="2.47626">
        <ele>470</ele>
        <time>2015-04-20T12:23:12Z</time>
      </trkpt>
      <trkpt lat="46.15917" lon="2.47624">
        <ele>471</ele>
        <time>2015-04-20T12:23:14Z</time>
      </trkpt>
      <trkpt lat="46.15914" lon="2.47623">
        <ele>471</ele>
        <time>2015-04-20T12:23:16Z</time>
      </trkpt>
      <trkpt lat="46.15911" lon="2.47621">
        <ele>471</ele>
        <time>2015-04-20T12:23:18Z</time>
      </trkpt>
      <trkpt lat="46.15909" lon="2.4762">
        <ele>471</ele>
        <time>2015-04-20T12:23:20Z</time>
      </trkpt>
      <trkpt lat="46.15907" lon="2.47618">
        <ele>471</ele>
        <time>2015-04-20T12:23:22Z</time>
      </trkpt>
      <trkpt lat="46.15904" lon="2.47616">
        <ele>471</ele>
        <time>2015-04-20T12:23:24Z</time>
      </trkpt>
      <trkpt lat="46.15901" lon="2.47615">
        <ele>471</ele>
        <time>2015-04-20T12:23:26Z</time>
      </trkpt>
      <trkpt lat="46.15899" lon="2.47614">
        <ele>471</ele>
        <time>2015-04-20T12:23:28Z</time>
      </trkpt>
      <trkpt lat="46.15896" lon="2.47612">
        <ele>471</ele>
        <time>2015-04-20T12:23:30Z</time>
      </trkpt>
      <trkpt lat="46.15894" lon="2.47611">
        <ele>471</ele>
        <time>2015-04-20T12:23:32Z</time>
      </trkpt>
      <trkpt lat="46.15891" lon="2.47609">
        <ele>471</ele>
        <time>2015-04-20T12:23:34Z</time>
      </trkpt>
      <trkpt lat="46.15888" lon="2.47608">
        <ele>471</ele>
        <time>2015-04-20T12:23:36Z</time>
      </trkpt>
      <trkpt lat="46.15886" lon="2.47607">
        <ele>471</ele>
        <time>2015-04-20T12:23:38Z</time>
      </trkpt>
      <trkpt lat="46.15883" lon="2.47605">
        <ele>471</ele>
        <time>2015-04-20T12:23:40Z</time>
      </trkpt>
      <trkpt lat="46.1588" lon="2.47604">
        <ele>471</ele>
        <time>2015-04-20T12:23:42Z</time>
      </trkpt>
      <trkpt lat="46.15877" lon="2.47601">
        <ele>471</ele>
        <time>2015-04-20T12:23:44Z</time>
      </trkpt>
      <trkpt lat="46.15874" lon="2.476">
        <ele>471</ele>
        <time>2015-04-20T12:23:46Z</time>
      </trkpt>
      <trkpt lat="46.15871" lon="2.47598">
        <ele>471</ele>
        <time>2015-04-20T12:23:48Z</time>
      </trkpt>
      <trkpt lat="46.15868" lon="2.47596">
        <ele>472</ele>
        <time>2015-04-20T12:23:51Z</time>
      </trkpt>
      <trkpt lat="46.15865" lon="2.47595">
        <ele>472</ele>
        <time>2015-04-20T12:23:53Z</time>
      </trkpt>
      <trkpt lat="46.15863" lon="2.47593">
        <ele>472</ele>
        <time>2015-04-20T12:23:55Z</time>
      </trkpt>
      <trkpt lat="46.1586" lon="2.47592">
        <ele>473</ele>
        <time>2015-04-20T12:23:57Z</time>
      </trkpt>
      <trkpt lat="46.15858" lon="2.47591">
        <ele>473</ele>
        <time>2015-04-20T12:23:59Z</time>
      </trkpt>
      <trkpt lat="46.15855" lon="2.47589">
        <ele>473</ele>
        <time>2015-04-20T12:24:01Z</time>
      </trkpt>
      <trkpt lat="46.15852" lon="2.47587">
        <ele>473</ele>
        <time>2015-04-20T12:24:03Z</time>
      </trkpt>
      <trkpt lat="46.1585" lon="2.47586">
        <ele>473</ele>
        <time>2015-04-20T12:24:05Z</time>
      </trkpt>
      <trkpt lat="46.15847" lon="2.47584">
        <ele>473</ele>
        <time>2015-04-20T12:24:07Z</time>
      </trkpt>
      <trkpt lat="46.15845" lon="2.47583">
        <ele>473</ele>
        <time>2015-04-20T12:24:09Z</time>
      </trkpt>
      <trkpt lat="46.15842" lon="2.47581">
        <ele>473</ele>
        <time>2015-04-20T12:24:11Z</time>
      </trkpt>
      <trkpt lat="46.15839" lon="2.4758">
        <ele>473</ele>
        <time>2015-04-20T12:24:13Z</time>
      </trkpt>
      <trkpt lat="46.15836" lon="2.47578">
        <ele>473</ele>
        <time>2015-04-20T12:24:16Z</time>
      </trkpt>
      <trkpt lat="46.15834" lon="2.47577">
        <ele>473</ele>
        <time>2015-04-20T12:24:18Z</time>
      </trkpt>
      <trkpt lat="46.15831" lon="2.47575">
        <ele>473</ele>
        <time>2015-04-20T12:24:20Z</time>
      </trkpt>
      <trkpt lat="46.15829" lon="2.47574">
        <ele>473</ele>
        <time>2015-04-20T12:24:22Z</time>
      </trkpt>
      <trkpt lat="46.15826" lon="2.47572">
        <ele>473</ele>
        <time>2015-04-20T12:24:24Z</time>
      </trkpt>
      <trkpt lat="46.15823" lon="2.4757">
        <ele>473</ele>
        <time>2015-04-20T12:24:26Z</time>
      </trkpt>
      <trkpt lat="46.1582" lon="2.47569">
        <ele>473</ele>
        <time>2015-04-20T12:24:28Z</time>
      </trkpt>
      <trkpt lat="46.15818" lon="2.47567">
        <ele>473</ele>
        <time>2015-04-20T12:24:30Z</time>
      </trkpt>
      <trkpt lat="46.15815" lon="2.47565">
        <ele>473</ele>
        <time>2015-04-20T12:24:32Z</time>
      </trkpt>
      <trkpt lat="46.15812" lon="2.47563">
        <ele>473</ele>
        <time>2015-04-20T12:24:34Z</time>
      </trkpt>
      <trkpt lat="46.15809" lon="2.47561">
        <ele>473</ele>
        <time>2015-04-20T12:24:36Z</time>
      </trkpt>
      <trkpt lat="46.15807" lon="2.47559">
        <ele>473</ele>
        <time>2015-04-20T12:24:38Z</time>
      </trkpt>
      <trkpt lat="46.15805" lon="2.47557">
        <ele>473</ele>
        <time>2015-04-20T12:24:40Z</time>
      </trkpt>
      <trkpt lat="46.15802" lon="2.47556">
        <ele>473</ele>
        <time>2015-04-20T12:24:42Z</time>
      </trkpt>
      <trkpt lat="46.15799" lon="2.47553">
        <ele>473</ele>
        <time>2015-04-20T12:24:45Z</time>
      </trkpt>
      <trkpt lat="46.15796" lon="2.47551">
        <ele>473</ele>
        <time>2015-04-20T12:24:47Z</time>
      </trkpt>
      <trkpt lat="46.15794" lon="2.4755">
        <ele>473</ele>
        <time>2015-04-20T12:24:49Z</time>
      </trkpt>
      <trkpt lat="46.15792" lon="2.47548">
        <ele>473</ele>
        <time>2015-04-20T12:24:51Z</time>
      </trkpt>
      <trkpt lat="46.15789" lon="2.47546">
        <ele>473</ele>
        <time>2015-04-20T12:24:53Z</time>
      </trkpt>
      <trkpt lat="46.15787" lon="2.47543">
        <ele>473</ele>
        <time>2015-04-20T12:24:55Z</time>
      </trkpt>
      <trkpt lat="46.15785" lon="2.47541">
        <ele>473</ele>
        <time>2015-04-20T12:24:57Z</time>
      </trkpt>
      <trkpt lat="46.15784" lon="2.47538">
        <ele>473</ele>
        <time>2015-04-20T12:24:59Z</time>
      </trkpt>
      <trkpt lat="46.15785" lon="2.47534">
        <ele>473</ele>
        <time>2015-04-20T12:25:01Z</time>
      </trkpt>
      <trkpt lat="46.15785" lon="2.4753">
        <ele>473</ele>
        <time>2015-04-20T12:25:03Z</time>
      </trkpt>
      <trkpt lat="46.15787" lon="2.47527">
        <ele>473</ele>
        <time>2015-04-20T12:25:05Z</time>
      </trkpt>
      <trkpt lat="46.15788" lon="2.47523">
        <ele>473</ele>
        <time>2015-04-20T12:25:07Z</time>
      </trkpt>
      <trkpt lat="46.15793" lon="2.47518">
        <ele>473</ele>
        <time>2015-04-20T12:25:11Z</time>
      </trkpt>
      <trkpt lat="46.15796" lon="2.47514">
        <ele>473</ele>
        <time>2015-04-20T12:25:14Z</time>
      </trkpt>
      <trkpt lat="46.15798" lon="2.47512">
        <ele>473</ele>
        <time>2015-04-20T12:25:16Z</time>
      </trkpt>
      <trkpt lat="46.15802" lon="2.47508">
        <ele>473</ele>
        <time>2015-04-20T12:25:19Z</time>
      </trkpt>
      <trkpt lat="46.15804" lon="2.47505">
        <ele>473</ele>
        <time>2015-04-20T12:25:21Z</time>
      </trkpt>
      <trkpt lat="46.15806" lon="2.47502">
        <ele>473</ele>
        <time>2015-04-20T12:25:23Z</time>
      </trkpt>
      <trkpt lat="46.15808" lon="2.47499">
        <ele>473</ele>
        <time>2015-04-20T12:25:25Z</time>
      </trkpt>
      <trkpt lat="46.1581" lon="2.47497">
        <ele>473</ele>
        <time>2015-04-20T12:25:27Z</time>
      </trkpt>
      <trkpt lat="46.15812" lon="2.47494">
        <ele>473</ele>
        <time>2015-04-20T12:25:29Z</time>
      </trkpt>
      <trkpt lat="46.15815" lon="2.4749">
        <ele>473</ele>
        <time>2015-04-20T12:25:32Z</time>
      </trkpt>
      <trkpt lat="46.15819" lon="2.47486">
        <ele>473</ele>
        <time>2015-04-20T12:25:35Z</time>
      </trkpt>
      <trkpt lat="46.15822" lon="2.47482">
        <ele>473</ele>
        <time>2015-04-20T12:25:38Z</time>
      </trkpt>
      <trkpt lat="46.15825" lon="2.47479">
        <ele>473</ele>
        <time>2015-04-20T12:25:41Z</time>
      </trkpt>
      <trkpt lat="46.15827" lon="2.47476">
        <ele>473</ele>
        <time>2015-04-20T12:25:43Z</time>
      </trkpt>
      <trkpt lat="46.15829" lon="2.47474">
        <ele>473</ele>
        <time>2015-04-20T12:25:45Z</time>
      </trkpt>
      <trkpt lat="46.15831" lon="2.4747">
        <ele>473</ele>
        <time>2015-04-20T12:25:47Z</time>
      </trkpt>
      <trkpt lat="46.15833" lon="2.47467">
        <ele>473</ele>
        <time>2015-04-20T12:25:49Z</time>
      </trkpt>
      <trkpt lat="46.15835" lon="2.47463">
        <ele>473</ele>
        <time>2015-04-20T12:25:51Z</time>
      </trkpt>
      <trkpt lat="46.15837" lon="2.4746">
        <ele>473</ele>
        <time>2015-04-20T12:25:53Z</time>
      </trkpt>
      <trkpt lat="46.15839" lon="2.47457">
        <ele>473</ele>
        <time>2015-04-20T12:25:55Z</time>
      </trkpt>
      <trkpt lat="46.1584" lon="2.47452">
        <ele>473</ele>
        <time>2015-04-20T12:25:57Z</time>
      </trkpt>
      <trkpt lat="46.15841" lon="2.47448">
        <ele>473</ele>
        <time>2015-04-20T12:25:59Z</time>
      </trkpt>
      <trkpt lat="46.15842" lon="2.47445">
        <ele>473</ele>
        <time>2015-04-20T12:26:01Z</time>
      </trkpt>
      <trkpt lat="46.15843" lon="2.47441">
        <ele>473</ele>
        <time>2015-04-20T12:26:03Z</time>
      </trkpt>
      <trkpt lat="46.15843" lon="2.47437">
        <ele>473</ele>
        <time>2015-04-20T12:26:05Z</time>
      </trkpt>
      <trkpt lat="46.15844" lon="2.47433">
        <ele>473</ele>
        <time>2015-04-20T12:26:07Z</time>
      </trkpt>
      <trkpt lat="46.15844" lon="2.47426">
        <ele>473</ele>
        <time>2015-04-20T12:26:09Z</time>
      </trkpt>
      <trkpt lat="46.15844" lon="2.47422">
        <ele>473</ele>
        <time>2015-04-20T12:26:12Z</time>
      </trkpt>
      <trkpt lat="46.15844" lon="2.47418">
        <ele>473</ele>
        <time>2015-04-20T12:26:14Z</time>
      </trkpt>
      <trkpt lat="46.15843" lon="2.47412">
        <ele>473</ele>
        <time>2015-04-20T12:26:17Z</time>
      </trkpt>
      <trkpt lat="46.15842" lon="2.47409">
        <ele>473</ele>
        <time>2015-04-20T12:26:19Z</time>
      </trkpt>
      <trkpt lat="46.15842" lon="2.47405">
        <ele>473</ele>
        <time>2015-04-20T12:26:21Z</time>
      </trkpt>
      <trkpt lat="46.15841" lon="2.47401">
        <ele>473</ele>
        <time>2015-04-20T12:26:23Z</time>
      </trkpt>
      <trkpt lat="46.1584" lon="2.47397">
        <ele>473</ele>
        <time>2015-04-20T12:26:25Z</time>
      </trkpt>
      <trkpt lat="46.15839" lon="2.47393">
        <ele>473</ele>
        <time>2015-04-20T12:26:27Z</time>
      </trkpt>
      <trkpt lat="46.15837" lon="2.4739">
        <ele>473</ele>
        <time>2015-04-20T12:26:29Z</time>
      </trkpt>
      <trkpt lat="46.15836" lon="2.47386">
        <ele>473</ele>
        <time>2015-04-20T12:26:31Z</time>
      </trkpt>
      <trkpt lat="46.15835" lon="2.47383">
        <ele>473</ele>
        <time>2015-04-20T12:26:33Z</time>
      </trkpt>
      <trkpt lat="46.15833" lon="2.47379">
        <ele>473</ele>
        <time>2015-04-20T12:26:35Z</time>
      </trkpt>
      <trkpt lat="46.15832" lon="2.47375">
        <ele>473</ele>
        <time>2015-04-20T12:26:37Z</time>
      </trkpt>
      <trkpt lat="46.1583" lon="2.47372">
        <ele>473</ele>
        <time>2015-04-20T12:26:39Z</time>
      </trkpt>
      <trkpt lat="46.15829" lon="2.47368">
        <ele>473</ele>
        <time>2015-04-20T12:26:41Z</time>
      </trkpt>
      <trkpt lat="46.15828" lon="2.47365">
        <ele>473</ele>
        <time>2015-04-20T12:26:43Z</time>
      </trkpt>
      <trkpt lat="46.15827" lon="2.47361">
        <ele>473</ele>
        <time>2015-04-20T12:26:45Z</time>
      </trkpt>
      <trkpt lat="46.15826" lon="2.47357">
        <ele>473</ele>
        <time>2015-04-20T12:26:47Z</time>
      </trkpt>
      <trkpt lat="46.15826" lon="2.47354">
        <ele>473</ele>
        <time>2015-04-20T12:26:49Z</time>
      </trkpt>
      <trkpt lat="46.15826" lon="2.4735">
        <ele>473</ele>
        <time>2015-04-20T12:26:51Z</time>
      </trkpt>
      <trkpt lat="46.15824" lon="2.47344">
        <ele>473</ele>
        <time>2015-04-20T12:26:54Z</time>
      </trkpt>
      <trkpt lat="46.15823" lon="2.47338">
        <ele>473</ele>
        <time>2015-04-20T12:26:57Z</time>
      </trkpt>
      <trkpt lat="46.15822" lon="2.47335">
        <ele>473</ele>
        <time>2015-04-20T12:26:59Z</time>
      </trkpt>
      <trkpt lat="46.15822" lon="2.4733">
        <ele>473</ele>
        <time>2015-04-20T12:27:01Z</time>
      </trkpt>
      <trkpt lat="46.15822" lon="2.47327">
        <ele>473</ele>
        <time>2015-04-20T12:27:03Z</time>
      </trkpt>
      <trkpt lat="46.15821" lon="2.47323">
        <ele>473</ele>
        <time>2015-04-20T12:27:05Z</time>
      </trkpt>
      <trkpt lat="46.15821" lon="2.47319">
        <ele>473</ele>
        <time>2015-04-20T12:27:07Z</time>
      </trkpt>
      <trkpt lat="46.1582" lon="2.47314">
        <ele>473</ele>
        <time>2015-04-20T12:27:09Z</time>
      </trkpt>
      <trkpt lat="46.15819" lon="2.47307">
        <ele>473</ele>
        <time>2015-04-20T12:27:12Z</time>
      </trkpt>
      <trkpt lat="46.15819" lon="2.47303">
        <ele>473</ele>
        <time>2015-04-20T12:27:14Z</time>
      </trkpt>
      <trkpt lat="46.15819" lon="2.47299">
        <ele>473</ele>
        <time>2015-04-20T12:27:16Z</time>
      </trkpt>
      <trkpt lat="46.15818" lon="2.47295">
        <ele>473</ele>
        <time>2015-04-20T12:27:18Z</time>
      </trkpt>
      <trkpt lat="46.15818" lon="2.47291">
        <ele>473</ele>
        <time>2015-04-20T12:27:20Z</time>
      </trkpt>
      <trkpt lat="46.15818" lon="2.47287">
        <ele>473</ele>
        <time>2015-04-20T12:27:22Z</time>
      </trkpt>
      <trkpt lat="46.15818" lon="2.47283">
        <ele>473</ele>
        <time>2015-04-20T12:27:24Z</time>
      </trkpt>
      <trkpt lat="46.15817" lon="2.47278">
        <ele>473</ele>
        <time>2015-04-20T12:27:26Z</time>
      </trkpt>
      <trkpt lat="46.15817" lon="2.47274">
        <ele>473</ele>
        <time>2015-04-20T12:27:28Z</time>
      </trkpt>
      <trkpt lat="46.15816" lon="2.4727">
        <ele>473</ele>
        <time>2015-04-20T12:27:30Z</time>
      </trkpt>
      <trkpt lat="46.15816" lon="2.47266">
        <ele>473</ele>
        <time>2015-04-20T12:27:32Z</time>
      </trkpt>
      <trkpt lat="46.15815" lon="2.47262">
        <ele>473</ele>
        <time>2015-04-20T12:27:34Z</time>
      </trkpt>
      <trkpt lat="46.15814" lon="2.47258">
        <ele>473</ele>
        <time>2015-04-20T12:27:36Z</time>
      </trkpt>
      <trkpt lat="46.15813" lon="2.47254">
        <ele>473</ele>
        <time>2015-04-20T12:27:38Z</time>
      </trkpt>
      <trkpt lat="46.15812" lon="2.4725">
        <ele>473</ele>
        <time>2015-04-20T12:27:40Z</time>
      </trkpt>
      <trkpt lat="46.1581" lon="2.47247">
        <ele>473</ele>
        <time>2015-04-20T12:27:42Z</time>
      </trkpt>
      <trkpt lat="46.15808" lon="2.47243">
        <ele>473</ele>
        <time>2015-04-20T12:27:44Z</time>
      </trkpt>
      <trkpt lat="46.15807" lon="2.4724">
        <ele>473</ele>
        <time>2015-04-20T12:27:46Z</time>
      </trkpt>
      <trkpt lat="46.15805" lon="2.47236">
        <ele>473</ele>
        <time>2015-04-20T12:27:48Z</time>
      </trkpt>
      <trkpt lat="46.15804" lon="2.47233">
        <ele>473</ele>
        <time>2015-04-20T12:27:50Z</time>
      </trkpt>
      <trkpt lat="46.15802" lon="2.4723">
        <ele>473</ele>
        <time>2015-04-20T12:27:52Z</time>
      </trkpt>
      <trkpt lat="46.158" lon="2.47227">
        <ele>473</ele>
        <time>2015-04-20T12:27:54Z</time>
      </trkpt>
      <trkpt lat="46.15799" lon="2.47223">
        <ele>473</ele>
        <time>2015-04-20T12:27:56Z</time>
      </trkpt>
      <trkpt lat="46.15797" lon="2.4722">
        <ele>473</ele>
        <time>2015-04-20T12:27:58Z</time>
      </trkpt>
      <trkpt lat="46.15795" lon="2.47217">
        <ele>473</ele>
        <time>2015-04-20T12:28:00Z</time>
      </trkpt>
      <trkpt lat="46.15793" lon="2.47212">
        <ele>473</ele>
        <time>2015-04-20T12:28:02Z</time>
      </trkpt>
      <trkpt lat="46.15791" lon="2.47209">
        <ele>473</ele>
        <time>2015-04-20T12:28:04Z</time>
      </trkpt>
      <trkpt lat="46.1579" lon="2.47206">
        <ele>473</ele>
        <time>2015-04-20T12:28:06Z</time>
      </trkpt>
      <trkpt lat="46.15788" lon="2.47201">
        <ele>473</ele>
        <time>2015-04-20T12:28:08Z</time>
      </trkpt>
      <trkpt lat="46.15787" lon="2.47198">
        <ele>473</ele>
        <time>2015-04-20T12:28:10Z</time>
      </trkpt>
      <trkpt lat="46.15786" lon="2.47195">
        <ele>473</ele>
        <time>2015-04-20T12:28:12Z</time>
      </trkpt>
      <trkpt lat="46.15786" lon="2.47192">
        <ele>473</ele>
        <time>2015-04-20T12:28:14Z</time>
      </trkpt>
      <trkpt lat="46.15785" lon="2.47188">
        <ele>473</ele>
        <time>2015-04-20T12:28:16Z</time>
      </trkpt>
      <trkpt lat="46.15785" lon="2.47184">
        <ele>473</ele>
        <time>2015-04-20T12:28:18Z</time>
      </trkpt>
      <trkpt lat="46.15784" lon="2.4718">
        <ele>473</ele>
        <time>2015-04-20T12:28:20Z</time>
      </trkpt>
      <trkpt lat="46.15785" lon="2.47176">
        <ele>473</ele>
        <time>2015-04-20T12:28:22Z</time>
      </trkpt>
      <trkpt lat="46.15785" lon="2.47172">
        <ele>473</ele>
        <time>2015-04-20T12:28:24Z</time>
      </trkpt>
      <trkpt lat="46.15783" lon="2.47167">
        <ele>473</ele>
        <time>2015-04-20T12:28:26Z</time>
      </trkpt>
      <trkpt lat="46.15783" lon="2.47162">
        <ele>473</ele>
        <time>2015-04-20T12:28:28Z</time>
      </trkpt>
      <trkpt lat="46.15784" lon="2.47157">
        <ele>473</ele>
        <time>2015-04-20T12:28:30Z</time>
      </trkpt>
      <trkpt lat="46.15784" lon="2.47153">
        <ele>473</ele>
        <time>2015-04-20T12:28:32Z</time>
      </trkpt>
      <trkpt lat="46.15783" lon="2.47149">
        <ele>473</ele>
        <time>2015-04-20T12:28:34Z</time>
      </trkpt>
      <trkpt lat="46.15783" lon="2.47145">
        <ele>473</ele>
        <time>2015-04-20T12:28:36Z</time>
      </trkpt>
      <trkpt lat="46.15783" lon="2.4714">
        <ele>473</ele>
        <time>2015-04-20T12:28:38Z</time>
      </trkpt>
      <trkpt lat="46.15783" lon="2.47136">
        <ele>473</ele>
        <time>2015-04-20T12:28:40Z</time>
      </trkpt>
      <trkpt lat="46.15784" lon="2.47132">
        <ele>473</ele>
        <time>2015-04-20T12:28:42Z</time>
      </trkpt>
      <trkpt lat="46.15786" lon="2.47129">
        <ele>473</ele>
        <time>2015-04-20T12:28:44Z</time>
      </trkpt>
      <trkpt lat="46.15788" lon="2.47126">
        <ele>473</ele>
        <time>2015-04-20T12:28:46Z</time>
      </trkpt>
      <trkpt lat="46.15789" lon="2.47123">
        <ele>473</ele>
        <time>2015-04-20T12:28:48Z</time>
      </trkpt>
      <trkpt lat="46.15791" lon="2.47119">
        <ele>473</ele>
        <time>2015-04-20T12:28:50Z</time>
      </trkpt>
      <trkpt lat="46.15793" lon="2.47116">
        <ele>473</ele>
        <time>2015-04-20T12:28:52Z</time>
      </trkpt>
      <trkpt lat="46.15795" lon="2.47113">
        <ele>472</ele>
        <time>2015-04-20T12:28:54Z</time>
      </trkpt>
      <trkpt lat="46.15797" lon="2.4711">
        <ele>472</ele>
        <time>2015-04-20T12:28:56Z</time>
      </trkpt>
      <trkpt lat="46.15798" lon="2.47106">
        <ele>471</ele>
        <time>2015-04-20T12:28:58Z</time>
      </trkpt>
      <trkpt lat="46.15799" lon="2.47103">
        <ele>471</ele>
        <time>2015-04-20T12:29:00Z</time>
      </trkpt>
      <trkpt lat="46.15801" lon="2.47099">
        <ele>471</ele>
        <time>2015-04-20T12:29:02Z</time>
      </trkpt>
      <trkpt lat="46.15802" lon="2.47096">
        <ele>470</ele>
        <time>2015-04-20T12:29:04Z</time>
      </trkpt>
      <trkpt lat="46.15803" lon="2.47092">
        <ele>470</ele>
        <time>2015-04-20T12:29:06Z</time>
      </trkpt>
      <trkpt lat="46.15805" lon="2.47087">
        <ele>469</ele>
        <time>2015-04-20T12:29:09Z</time>
      </trkpt>
      <trkpt lat="46.15807" lon="2.47083">
        <ele>469</ele>
        <time>2015-04-20T12:29:11Z</time>
      </trkpt>
      <trkpt lat="46.15808" lon="2.4708">
        <ele>469</ele>
        <time>2015-04-20T12:29:13Z</time>
      </trkpt>
      <trkpt lat="46.1581" lon="2.47077">
        <ele>469</ele>
        <time>2015-04-20T12:29:15Z</time>
      </trkpt>
      <trkpt lat="46.15811" lon="2.47074">
        <ele>469</ele>
        <time>2015-04-20T12:29:17Z</time>
      </trkpt>
      <trkpt lat="46.15812" lon="2.4707">
        <ele>469</ele>
        <time>2015-04-20T12:29:19Z</time>
      </trkpt>
      <trkpt lat="46.15814" lon="2.47066">
        <ele>469</ele>
        <time>2015-04-20T12:29:21Z</time>
      </trkpt>
      <trkpt lat="46.15815" lon="2.47063">
        <ele>468</ele>
        <time>2015-04-20T12:29:23Z</time>
      </trkpt>
      <trkpt lat="46.15817" lon="2.47059">
        <ele>468</ele>
        <time>2015-04-20T12:29:25Z</time>
      </trkpt>
      <trkpt lat="46.15818" lon="2.47055">
        <ele>468</ele>
        <time>2015-04-20T12:29:27Z</time>
      </trkpt>
      <trkpt lat="46.1582" lon="2.47052">
        <ele>468</ele>
        <time>2015-04-20T12:29:29Z</time>
      </trkpt>
      <trkpt lat="46.15821" lon="2.47048">
        <ele>468</ele>
        <time>2015-04-20T12:29:31Z</time>
      </trkpt>
      <trkpt lat="46.15823" lon="2.47044">
        <ele>468</ele>
        <time>2015-04-20T12:29:33Z</time>
      </trkpt>
      <trkpt lat="46.15824" lon="2.47041">
        <ele>468</ele>
        <time>2015-04-20T12:29:35Z</time>
      </trkpt>
      <trkpt lat="46.15825" lon="2.47037">
        <ele>468</ele>
        <time>2015-04-20T12:29:37Z</time>
      </trkpt>
      <trkpt lat="46.15827" lon="2.47033">
        <ele>468</ele>
        <time>2015-04-20T12:29:39Z</time>
      </trkpt>
      <trkpt lat="46.15828" lon="2.4703">
        <ele>468</ele>
        <time>2015-04-20T12:29:41Z</time>
      </trkpt>
      <trkpt lat="46.1583" lon="2.47026">
        <ele>468</ele>
        <time>2015-04-20T12:29:43Z</time>
      </trkpt>
      <trkpt lat="46.15831" lon="2.47023">
        <ele>467</ele>
        <time>2015-04-20T12:29:45Z</time>
      </trkpt>
      <trkpt lat="46.15832" lon="2.47019">
        <ele>467</ele>
        <time>2015-04-20T12:29:47Z</time>
      </trkpt>
      <trkpt lat="46.15834" lon="2.47013">
        <ele>467</ele>
        <time>2015-04-20T12:29:50Z</time>
      </trkpt>
      <trkpt lat="46.15836" lon="2.4701">
        <ele>467</ele>
        <time>2015-04-20T12:29:52Z</time>
      </trkpt>
      <trkpt lat="46.15837" lon="2.47007">
        <ele>466</ele>
        <time>2015-04-20T12:29:54Z</time>
      </trkpt>
      <trkpt lat="46.15839" lon="2.47003">
        <ele>466</ele>
        <time>2015-04-20T12:29:56Z</time>
      </trkpt>
      <trkpt lat="46.1584" lon="2.47">
        <ele>466</ele>
        <time>2015-04-20T12:29:58Z</time>
      </trkpt>
      <trkpt lat="46.15842" lon="2.46994">
        <ele>466</ele>
        <time>2015-04-20T12:30:01Z</time>
      </trkpt>
      <trkpt lat="46.15844" lon="2.4699">
        <ele>466</ele>
        <time>2015-04-20T12:30:03Z</time>
      </trkpt>
      <trkpt lat="46.15845" lon="2.46986">
        <ele>466</ele>
        <time>2015-04-20T12:30:05Z</time>
      </trkpt>
      <trkpt lat="46.15846" lon="2.46983">
        <ele>466</ele>
        <time>2015-04-20T12:30:07Z</time>
      </trkpt>
      <trkpt lat="46.15847" lon="2.46979">
        <ele>466</ele>
        <time>2015-04-20T12:30:09Z</time>
      </trkpt>
      <trkpt lat="46.15847" lon="2.46975">
        <ele>465</ele>
        <time>2015-04-20T12:30:11Z</time>
      </trkpt>
      <trkpt lat="46.15848" lon="2.46971">
        <ele>465</ele>
        <time>2015-04-20T12:30:13Z</time>
      </trkpt>
      <trkpt lat="46.15849" lon="2.46968">
        <ele>464</ele>
        <time>2015-04-20T12:30:15Z</time>
      </trkpt>
      <trkpt lat="46.1585" lon="2.46964">
        <ele>464</ele>
        <time>2015-04-20T12:30:17Z</time>
      </trkpt>
      <trkpt lat="46.1585" lon="2.46959">
        <ele>464</ele>
        <time>2015-04-20T12:30:19Z</time>
      </trkpt>
      <trkpt lat="46.15852" lon="2.46956">
        <ele>464</ele>
        <time>2015-04-20T12:30:21Z</time>
      </trkpt>
      <trkpt lat="46.15852" lon="2.46952">
        <ele>464</ele>
        <time>2015-04-20T12:30:23Z</time>
      </trkpt>
      <trkpt lat="46.15853" lon="2.46948">
        <ele>464</ele>
        <time>2015-04-20T12:30:25Z</time>
      </trkpt>
      <trkpt lat="46.15854" lon="2.46944">
        <ele>464</ele>
        <time>2015-04-20T12:30:27Z</time>
      </trkpt>
      <trkpt lat="46.15855" lon="2.46939">
        <ele>464</ele>
        <time>2015-04-20T12:30:29Z</time>
      </trkpt>
      <trkpt lat="46.15855" lon="2.46935">
        <ele>464</ele>
        <time>2015-04-20T12:30:31Z</time>
      </trkpt>
      <trkpt lat="46.15856" lon="2.46931">
        <ele>464</ele>
        <time>2015-04-20T12:30:33Z</time>
      </trkpt>
      <trkpt lat="46.15857" lon="2.46927">
        <ele>464</ele>
        <time>2015-04-20T12:30:35Z</time>
      </trkpt>
      <trkpt lat="46.15857" lon="2.46923">
        <ele>464</ele>
        <time>2015-04-20T12:30:37Z</time>
      </trkpt>
      <trkpt lat="46.15857" lon="2.46919">
        <ele>464</ele>
        <time>2015-04-20T12:30:39Z</time>
      </trkpt>
      <trkpt lat="46.15858" lon="2.46915">
        <ele>464</ele>
        <time>2015-04-20T12:30:41Z</time>
      </trkpt>
      <trkpt lat="46.15859" lon="2.46911">
        <ele>464</ele>
        <time>2015-04-20T12:30:43Z</time>
      </trkpt>
      <trkpt lat="46.15859" lon="2.46907">
        <ele>464</ele>
        <time>2015-04-20T12:30:45Z</time>
      </trkpt>
      <trkpt lat="46.1586" lon="2.46903">
        <ele>464</ele>
        <time>2015-04-20T12:30:47Z</time>
      </trkpt>
      <trkpt lat="46.1586" lon="2.46899">
        <ele>463</ele>
        <time>2015-04-20T12:30:49Z</time>
      </trkpt>
      <trkpt lat="46.1586" lon="2.46895">
        <ele>463</ele>
        <time>2015-04-20T12:30:51Z</time>
      </trkpt>
      <trkpt lat="46.1586" lon="2.4689">
        <ele>463</ele>
        <time>2015-04-20T12:30:53Z</time>
      </trkpt>
      <trkpt lat="46.15861" lon="2.46886">
        <ele>463</ele>
        <time>2015-04-20T12:30:55Z</time>
      </trkpt>
      <trkpt lat="46.15862" lon="2.46882">
        <ele>463</ele>
        <time>2015-04-20T12:30:57Z</time>
      </trkpt>
      <trkpt lat="46.15862" lon="2.46878">
        <ele>463</ele>
        <time>2015-04-20T12:30:59Z</time>
      </trkpt>
      <trkpt lat="46.15863" lon="2.46874">
        <ele>463</ele>
        <time>2015-04-20T12:31:01Z</time>
      </trkpt>
      <trkpt lat="46.15863" lon="2.4687">
        <ele>463</ele>
        <time>2015-04-20T12:31:03Z</time>
      </trkpt>
      <trkpt lat="46.15864" lon="2.46865">
        <ele>463</ele>
        <time>2015-04-20T12:31:05Z</time>
      </trkpt>
      <trkpt lat="46.15864" lon="2.46861">
        <ele>463</ele>
        <time>2015-04-20T12:31:07Z</time>
      </trkpt>
      <trkpt lat="46.15864" lon="2.46857">
        <ele>463</ele>
        <time>2015-04-20T12:31:09Z</time>
      </trkpt>
      <trkpt lat="46.15864" lon="2.46853">
        <ele>462</ele>
        <time>2015-04-20T12:31:11Z</time>
      </trkpt>
      <trkpt lat="46.15865" lon="2.46849">
        <ele>462</ele>
        <time>2015-04-20T12:31:13Z</time>
      </trkpt>
      <trkpt lat="46.15865" lon="2.46844">
        <ele>462</ele>
        <time>2015-04-20T12:31:15Z</time>
      </trkpt>
      <trkpt lat="46.15865" lon="2.4684">
        <ele>462</ele>
        <time>2015-04-20T12:31:17Z</time>
      </trkpt>
      <trkpt lat="46.15865" lon="2.46836">
        <ele>462</ele>
        <time>2015-04-20T12:31:19Z</time>
      </trkpt>
      <trkpt lat="46.15865" lon="2.4683">
        <ele>462</ele>
        <time>2015-04-20T12:31:22Z</time>
      </trkpt>
      <trkpt lat="46.15866" lon="2.46826">
        <ele>462</ele>
        <time>2015-04-20T12:31:24Z</time>
      </trkpt>
      <trkpt lat="46.15866" lon="2.46821">
        <ele>462</ele>
        <time>2015-04-20T12:31:26Z</time>
      </trkpt>
      <trkpt lat="46.15867" lon="2.46817">
        <ele>462</ele>
        <time>2015-04-20T12:31:28Z</time>
      </trkpt>
      <trkpt lat="46.15868" lon="2.46813">
        <ele>462</ele>
        <time>2015-04-20T12:31:30Z</time>
      </trkpt>
      <trkpt lat="46.15868" lon="2.46808">
        <ele>462</ele>
        <time>2015-04-20T12:31:32Z</time>
      </trkpt>
      <trkpt lat="46.15868" lon="2.46803">
        <ele>462</ele>
        <time>2015-04-20T12:31:34Z</time>
      </trkpt>
      <trkpt lat="46.15868" lon="2.46799">
        <ele>462</ele>
        <time>2015-04-20T12:31:36Z</time>
      </trkpt>
      <trkpt lat="46.15869" lon="2.46795">
        <ele>462</ele>
        <time>2015-04-20T12:31:38Z</time>
      </trkpt>
      <trkpt lat="46.1587" lon="2.46791">
        <ele>462</ele>
        <time>2015-04-20T12:31:40Z</time>
      </trkpt>
      <trkpt lat="46.1587" lon="2.46786">
        <ele>462</ele>
        <time>2015-04-20T12:31:42Z</time>
      </trkpt>
      <trkpt lat="46.15871" lon="2.46782">
        <ele>462</ele>
        <time>2015-04-20T12:31:44Z</time>
      </trkpt>
      <trkpt lat="46.15871" lon="2.46778">
        <ele>462</ele>
        <time>2015-04-20T12:31:46Z</time>
      </trkpt>
      <trkpt lat="46.15871" lon="2.46772">
        <ele>462</ele>
        <time>2015-04-20T12:31:49Z</time>
      </trkpt>
      <trkpt lat="46.15872" lon="2.46767">
        <ele>462</ele>
        <time>2015-04-20T12:31:51Z</time>
      </trkpt>
      <trkpt lat="46.15872" lon="2.46763">
        <ele>462</ele>
        <time>2015-04-20T12:31:53Z</time>
      </trkpt>
      <trkpt lat="46.15873" lon="2.4676">
        <ele>462</ele>
        <time>2015-04-20T12:31:55Z</time>
      </trkpt>
      <trkpt lat="46.15873" lon="2.46756">
        <ele>461</ele>
        <time>2015-04-20T12:31:57Z</time>
      </trkpt>
      <trkpt lat="46.15873" lon="2.46751">
        <ele>461</ele>
        <time>2015-04-20T12:31:59Z</time>
      </trkpt>
      <trkpt lat="46.15873" lon="2.46747">
        <ele>461</ele>
        <time>2015-04-20T12:32:01Z</time>
      </trkpt>
      <trkpt lat="46.15873" lon="2.46743">
        <ele>461</ele>
        <time>2015-04-20T12:32:03Z</time>
      </trkpt>
      <trkpt lat="46.15873" lon="2.46738">
        <ele>461</ele>
        <time>2015-04-20T12:32:05Z</time>
      </trkpt>
      <trkpt lat="46.15873" lon="2.46734">
        <ele>460</ele>
        <time>2015-04-20T12:32:07Z</time>
      </trkpt>
      <trkpt lat="46.15873" lon="2.4673">
        <ele>460</ele>
        <time>2015-04-20T12:32:09Z</time>
      </trkpt>
      <trkpt lat="46.15873" lon="2.46726">
        <ele>460</ele>
        <time>2015-04-20T12:32:11Z</time>
      </trkpt>
      <trkpt lat="46.15873" lon="2.46721">
        <ele>459</ele>
        <time>2015-04-20T12:32:13Z</time>
      </trkpt>
      <trkpt lat="46.15873" lon="2.46717">
        <ele>459</ele>
        <time>2015-04-20T12:32:15Z</time>
      </trkpt>
      <trkpt lat="46.15873" lon="2.46713">
        <ele>459</ele>
        <time>2015-04-20T12:32:17Z</time>
      </trkpt>
      <trkpt lat="46.15873" lon="2.46709">
        <ele>459</ele>
        <time>2015-04-20T12:32:19Z</time>
      </trkpt>
      <trkpt lat="46.15873" lon="2.46705">
        <ele>458</ele>
        <time>2015-04-20T12:32:21Z</time>
      </trkpt>
      <trkpt lat="46.15873" lon="2.46701">
        <ele>458</ele>
        <time>2015-04-20T12:32:23Z</time>
      </trkpt>
      <trkpt lat="46.15873" lon="2.46696">
        <ele>458</ele>
        <time>2015-04-20T12:32:25Z</time>
      </trkpt>
      <trkpt lat="46.15873" lon="2.46692">
        <ele>457</ele>
        <time>2015-04-20T12:32:27Z</time>
      </trkpt>
      <trkpt lat="46.15873" lon="2.46688">
        <ele>457</ele>
        <time>2015-04-20T12:32:29Z</time>
      </trkpt>
      <trkpt lat="46.15874" lon="2.46684">
        <ele>456</ele>
        <time>2015-04-20T12:32:31Z</time>
      </trkpt>
      <trkpt lat="46.15875" lon="2.46679">
        <ele>455</ele>
        <time>2015-04-20T12:32:33Z</time>
      </trkpt>
      <trkpt lat="46.15875" lon="2.46675">
        <ele>455</ele>
        <time>2015-04-20T12:32:35Z</time>
      </trkpt>
      <trkpt lat="46.15875" lon="2.46671">
        <ele>454</ele>
        <time>2015-04-20T12:32:37Z</time>
      </trkpt>
      <trkpt lat="46.15876" lon="2.46666">
        <ele>453</ele>
        <time>2015-04-20T12:32:39Z</time>
      </trkpt>
      <trkpt lat="46.15876" lon="2.46662">
        <ele>453</ele>
        <time>2015-04-20T12:32:41Z</time>
      </trkpt>
      <trkpt lat="46.15876" lon="2.46657">
        <ele>453</ele>
        <time>2015-04-20T12:32:43Z</time>
      </trkpt>
      <trkpt lat="46.15875" lon="2.46653">
        <ele>452</ele>
        <time>2015-04-20T12:32:45Z</time>
      </trkpt>
      <trkpt lat="46.15875" lon="2.46649">
        <ele>451</ele>
        <time>2015-04-20T12:32:47Z</time>
      </trkpt>
      <trkpt lat="46.15875" lon="2.46644">
        <ele>451</ele>
        <time>2015-04-20T12:32:49Z</time>
      </trkpt>
      <trkpt lat="46.15876" lon="2.4664">
        <ele>451</ele>
        <time>2015-04-20T12:32:51Z</time>
      </trkpt>
      <trkpt lat="46.15876" lon="2.46636">
        <ele>451</ele>
        <time>2015-04-20T12:32:53Z</time>
      </trkpt>
      <trkpt lat="46.15877" lon="2.46632">
        <ele>451</ele>
        <time>2015-04-20T12:32:55Z</time>
      </trkpt>
      <trkpt lat="46.15877" lon="2.46628">
        <ele>451</ele>
        <time>2015-04-20T12:32:57Z</time>
      </trkpt>
      <trkpt lat="46.15878" lon="2.46624">
        <ele>451</ele>
        <time>2015-04-20T12:32:59Z</time>
      </trkpt>
      <trkpt lat="46.15878" lon="2.4662">
        <ele>450</ele>
        <time>2015-04-20T12:33:01Z</time>
      </trkpt>
      <trkpt lat="46.15879" lon="2.46615">
        <ele>450</ele>
        <time>2015-04-20T12:33:03Z</time>
      </trkpt>
      <trkpt lat="46.1588" lon="2.46611">
        <ele>450</ele>
        <time>2015-04-20T12:33:05Z</time>
      </trkpt>
      <trkpt lat="46.15881" lon="2.46607">
        <ele>450</ele>
        <time>2015-04-20T12:33:07Z</time>
      </trkpt>
      <trkpt lat="46.15881" lon="2.46603">
        <ele>450</ele>
        <time>2015-04-20T12:33:09Z</time>
      </trkpt>
      <trkpt lat="46.15882" lon="2.46599">
        <ele>450</ele>
        <time>2015-04-20T12:33:11Z</time>
      </trkpt>
      <trkpt lat="46.15883" lon="2.46596">
        <ele>450</ele>
        <time>2015-04-20T12:33:13Z</time>
      </trkpt>
      <trkpt lat="46.15885" lon="2.46591">
        <ele>449</ele>
        <time>2015-04-20T12:33:15Z</time>
      </trkpt>
      <trkpt lat="46.15886" lon="2.46587">
        <ele>449</ele>
        <time>2015-04-20T12:33:17Z</time>
      </trkpt>
      <trkpt lat="46.15887" lon="2.46584">
        <ele>448</ele>
        <time>2015-04-20T12:33:19Z</time>
      </trkpt>
      <trkpt lat="46.15888" lon="2.4658">
        <ele>448</ele>
        <time>2015-04-20T12:33:21Z</time>
      </trkpt>
      <trkpt lat="46.1589" lon="2.46576">
        <ele>447</ele>
        <time>2015-04-20T12:33:23Z</time>
      </trkpt>
      <trkpt lat="46.15892" lon="2.46572">
        <ele>447</ele>
        <time>2015-04-20T12:33:25Z</time>
      </trkpt>
      <trkpt lat="46.15893" lon="2.46568">
        <ele>446</ele>
        <time>2015-04-20T12:33:27Z</time>
      </trkpt>
      <trkpt lat="46.15896" lon="2.46565">
        <ele>446</ele>
        <time>2015-04-20T12:33:29Z</time>
      </trkpt>
      <trkpt lat="46.15899" lon="2.4656">
        <ele>446</ele>
        <time>2015-04-20T12:33:32Z</time>
      </trkpt>
      <trkpt lat="46.15901" lon="2.46558">
        <ele>446</ele>
        <time>2015-04-20T12:33:34Z</time>
      </trkpt>
      <trkpt lat="46.15904" lon="2.46556">
        <ele>446</ele>
        <time>2015-04-20T12:33:36Z</time>
      </trkpt>
      <trkpt lat="46.15906" lon="2.46554">
        <ele>446</ele>
        <time>2015-04-20T12:33:38Z</time>
      </trkpt>
      <trkpt lat="46.15909" lon="2.46552">
        <ele>446</ele>
        <time>2015-04-20T12:33:40Z</time>
      </trkpt>
      <trkpt lat="46.15911" lon="2.4655">
        <ele>446</ele>
        <time>2015-04-20T12:33:42Z</time>
      </trkpt>
      <trkpt lat="46.15915" lon="2.46547">
        <ele>446</ele>
        <time>2015-04-20T12:33:45Z</time>
      </trkpt>
      <trkpt lat="46.15918" lon="2.46543">
        <ele>446</ele>
        <time>2015-04-20T12:33:48Z</time>
      </trkpt>
      <trkpt lat="46.15921" lon="2.46539">
        <ele>446</ele>
        <time>2015-04-20T12:33:51Z</time>
      </trkpt>
      <trkpt lat="46.15924" lon="2.46534">
        <ele>446</ele>
        <time>2015-04-20T12:33:54Z</time>
      </trkpt>
      <trkpt lat="46.15927" lon="2.4653">
        <ele>446</ele>
        <time>2015-04-20T12:33:57Z</time>
      </trkpt>
      <trkpt lat="46.15929" lon="2.46527">
        <ele>446</ele>
        <time>2015-04-20T12:33:59Z</time>
      </trkpt>
      <trkpt lat="46.1593" lon="2.46524">
        <ele>446</ele>
        <time>2015-04-20T12:34:01Z</time>
      </trkpt>
      <trkpt lat="46.15932" lon="2.46521">
        <ele>446</ele>
        <time>2015-04-20T12:34:03Z</time>
      </trkpt>
      <trkpt lat="46.15933" lon="2.46518">
        <ele>446</ele>
        <time>2015-04-20T12:34:05Z</time>
      </trkpt>
      <trkpt lat="46.15935" lon="2.46514">
        <ele>446</ele>
        <time>2015-04-20T12:34:07Z</time>
      </trkpt>
      <trkpt lat="46.15936" lon="2.46511">
        <ele>446</ele>
        <time>2015-04-20T12:34:09Z</time>
      </trkpt>
      <trkpt lat="46.15937" lon="2.46507">
        <ele>446</ele>
        <time>2015-04-20T12:34:11Z</time>
      </trkpt>
      <trkpt lat="46.15939" lon="2.46503">
        <ele>446</ele>
        <time>2015-04-20T12:34:13Z</time>
      </trkpt>
      <trkpt lat="46.1594" lon="2.46499">
        <ele>446</ele>
        <time>2015-04-20T12:34:15Z</time>
      </trkpt>
      <trkpt lat="46.15941" lon="2.46496">
        <ele>446</ele>
        <time>2015-04-20T12:34:17Z</time>
      </trkpt>
      <trkpt lat="46.15942" lon="2.46492">
        <ele>446</ele>
        <time>2015-04-20T12:34:19Z</time>
      </trkpt>
      <trkpt lat="46.15942" lon="2.46486">
        <ele>445</ele>
        <time>2015-04-20T12:34:22Z</time>
      </trkpt>
      <trkpt lat="46.15943" lon="2.46482">
        <ele>445</ele>
        <time>2015-04-20T12:34:24Z</time>
      </trkpt>
      <trkpt lat="46.15943" lon="2.46478">
        <ele>444</ele>
        <time>2015-04-20T12:34:26Z</time>
      </trkpt>
      <trkpt lat="46.15943" lon="2.46474">
        <ele>444</ele>
        <time>2015-04-20T12:34:28Z</time>
      </trkpt>
      <trkpt lat="46.15943" lon="2.46469">
        <ele>444</ele>
        <time>2015-04-20T12:34:30Z</time>
      </trkpt>
      <trkpt lat="46.15943" lon="2.46465">
        <ele>444</ele>
        <time>2015-04-20T12:34:32Z</time>
      </trkpt>
      <trkpt lat="46.15943" lon="2.46461">
        <ele>444</ele>
        <time>2015-04-20T12:34:34Z</time>
      </trkpt>
      <trkpt lat="46.15943" lon="2.46455">
        <ele>443</ele>
        <time>2015-04-20T12:34:37Z</time>
      </trkpt>
      <trkpt lat="46.15944" lon="2.46451">
        <ele>443</ele>
        <time>2015-04-20T12:34:39Z</time>
      </trkpt>
      <trkpt lat="46.15945" lon="2.46447">
        <ele>442</ele>
        <time>2015-04-20T12:34:41Z</time>
      </trkpt>
      <trkpt lat="46.15947" lon="2.46445">
        <ele>442</ele>
        <time>2015-04-20T12:34:43Z</time>
      </trkpt>
      <trkpt lat="46.1595" lon="2.46442">
        <ele>441</ele>
        <time>2015-04-20T12:34:45Z</time>
      </trkpt>
      <trkpt lat="46.15952" lon="2.46439">
        <ele>441</ele>
        <time>2015-04-20T12:34:47Z</time>
      </trkpt>
      <trkpt lat="46.15955" lon="2.46437">
        <ele>440</ele>
        <time>2015-04-20T12:34:49Z</time>
      </trkpt>
      <trkpt lat="46.15957" lon="2.46435">
        <ele>439</ele>
        <time>2015-04-20T12:34:51Z</time>
      </trkpt>
      <trkpt lat="46.1596" lon="2.46433">
        <ele>439</ele>
        <time>2015-04-20T12:34:53Z</time>
      </trkpt>
      <trkpt lat="46.15962" lon="2.46431">
        <ele>438</ele>
        <time>2015-04-20T12:34:55Z</time>
      </trkpt>
      <trkpt lat="46.15965" lon="2.46429">
        <ele>438</ele>
        <time>2015-04-20T12:34:57Z</time>
      </trkpt>
      <trkpt lat="46.15968" lon="2.46427">
        <ele>438</ele>
        <time>2015-04-20T12:34:59Z</time>
      </trkpt>
      <trkpt lat="46.1597" lon="2.46425">
        <ele>438</ele>
        <time>2015-04-20T12:35:01Z</time>
      </trkpt>
      <trkpt lat="46.15973" lon="2.46424">
        <ele>438</ele>
        <time>2015-04-20T12:35:03Z</time>
      </trkpt>
      <trkpt lat="46.15975" lon="2.46421">
        <ele>438</ele>
        <time>2015-04-20T12:35:05Z</time>
      </trkpt>
      <trkpt lat="46.15978" lon="2.46419">
        <ele>438</ele>
        <time>2015-04-20T12:35:07Z</time>
      </trkpt>
      <trkpt lat="46.1598" lon="2.46416">
        <ele>438</ele>
        <time>2015-04-20T12:35:09Z</time>
      </trkpt>
      <trkpt lat="46.15982" lon="2.46413">
        <ele>438</ele>
        <time>2015-04-20T12:35:11Z</time>
      </trkpt>
      <trkpt lat="46.15985" lon="2.46411">
        <ele>438</ele>
        <time>2015-04-20T12:35:13Z</time>
      </trkpt>
      <trkpt lat="46.15987" lon="2.46408">
        <ele>438</ele>
        <time>2015-04-20T12:35:15Z</time>
      </trkpt>
      <trkpt lat="46.1599" lon="2.46406">
        <ele>438</ele>
        <time>2015-04-20T12:35:17Z</time>
      </trkpt>
      <trkpt lat="46.15992" lon="2.46403">
        <ele>437</ele>
        <time>2015-04-20T12:35:19Z</time>
      </trkpt>
      <trkpt lat="46.15994" lon="2.464">
        <ele>437</ele>
        <time>2015-04-20T12:35:21Z</time>
      </trkpt>
      <trkpt lat="46.15997" lon="2.46398">
        <ele>436</ele>
        <time>2015-04-20T12:35:23Z</time>
      </trkpt>
      <trkpt lat="46.15999" lon="2.46396">
        <ele>435</ele>
        <time>2015-04-20T12:35:25Z</time>
      </trkpt>
      <trkpt lat="46.16002" lon="2.46393">
        <ele>434</ele>
        <time>2015-04-20T12:35:27Z</time>
      </trkpt>
      <trkpt lat="46.16004" lon="2.46391">
        <ele>434</ele>
        <time>2015-04-20T12:35:29Z</time>
      </trkpt>
      <trkpt lat="46.16007" lon="2.46389">
        <ele>433</ele>
        <time>2015-04-20T12:35:31Z</time>
      </trkpt>
      <trkpt lat="46.16009" lon="2.46386">
        <ele>433</ele>
        <time>2015-04-20T12:35:33Z</time>
      </trkpt>
      <trkpt lat="46.16011" lon="2.46383">
        <ele>433</ele>
        <time>2015-04-20T12:35:35Z</time>
      </trkpt>
      <trkpt lat="46.16014" lon="2.46381">
        <ele>432</ele>
        <time>2015-04-20T12:35:37Z</time>
      </trkpt>
      <trkpt lat="46.16016" lon="2.46378">
        <ele>432</ele>
        <time>2015-04-20T12:35:39Z</time>
      </trkpt>
      <trkpt lat="46.16019" lon="2.46376">
        <ele>432</ele>
        <time>2015-04-20T12:35:41Z</time>
      </trkpt>
      <trkpt lat="46.16021" lon="2.46374">
        <ele>432</ele>
        <time>2015-04-20T12:35:43Z</time>
      </trkpt>
      <trkpt lat="46.16024" lon="2.46371">
        <ele>432</ele>
        <time>2015-04-20T12:35:46Z</time>
      </trkpt>
      <trkpt lat="46.16027" lon="2.46369">
        <ele>432</ele>
        <time>2015-04-20T12:35:48Z</time>
      </trkpt>
      <trkpt lat="46.16029" lon="2.46366">
        <ele>432</ele>
        <time>2015-04-20T12:35:50Z</time>
      </trkpt>
      <trkpt lat="46.16032" lon="2.46364">
        <ele>432</ele>
        <time>2015-04-20T12:35:52Z</time>
      </trkpt>
      <trkpt lat="46.16034" lon="2.46362">
        <ele>432</ele>
        <time>2015-04-20T12:35:54Z</time>
      </trkpt>
      <trkpt lat="46.16036" lon="2.4636">
        <ele>432</ele>
        <time>2015-04-20T12:35:56Z</time>
      </trkpt>
      <trkpt lat="46.16038" lon="2.46357">
        <ele>431</ele>
        <time>2015-04-20T12:35:58Z</time>
      </trkpt>
      <trkpt lat="46.16039" lon="2.46353">
        <ele>431</ele>
        <time>2015-04-20T12:36:00Z</time>
      </trkpt>
      <trkpt lat="46.16041" lon="2.46349">
        <ele>431</ele>
        <time>2015-04-20T12:36:02Z</time>
      </trkpt>
      <trkpt lat="46.16041" lon="2.46345">
        <ele>431</ele>
        <time>2015-04-20T12:36:04Z</time>
      </trkpt>
      <trkpt lat="46.16042" lon="2.46339">
        <ele>431</ele>
        <time>2015-04-20T12:36:07Z</time>
      </trkpt>
      <trkpt lat="46.16043" lon="2.46335">
        <ele>430</ele>
        <time>2015-04-20T12:36:09Z</time>
      </trkpt>
      <trkpt lat="46.16043" lon="2.46331">
        <ele>430</ele>
        <time>2015-04-20T12:36:11Z</time>
      </trkpt>
      <trkpt lat="46.16044" lon="2.46327">
        <ele>430</ele>
        <time>2015-04-20T12:36:13Z</time>
      </trkpt>
      <trkpt lat="46.16045" lon="2.46323">
        <ele>430</ele>
        <time>2015-04-20T12:36:15Z</time>
      </trkpt>
      <trkpt lat="46.16046" lon="2.46319">
        <ele>430</ele>
        <time>2015-04-20T12:36:17Z</time>
      </trkpt>
      <trkpt lat="46.16047" lon="2.46315">
        <ele>430</ele>
        <time>2015-04-20T12:36:19Z</time>
      </trkpt>
      <trkpt lat="46.16049" lon="2.46311">
        <ele>430</ele>
        <time>2015-04-20T12:36:21Z</time>
      </trkpt>
      <trkpt lat="46.1605" lon="2.46308">
        <ele>430</ele>
        <time>2015-04-20T12:36:23Z</time>
      </trkpt>
      <trkpt lat="46.16051" lon="2.46304">
        <ele>430</ele>
        <time>2015-04-20T12:36:25Z</time>
      </trkpt>
      <trkpt lat="46.16053" lon="2.463">
        <ele>430</ele>
        <time>2015-04-20T12:36:27Z</time>
      </trkpt>
      <trkpt lat="46.16055" lon="2.46297">
        <ele>430</ele>
        <time>2015-04-20T12:36:29Z</time>
      </trkpt>
      <trkpt lat="46.16056" lon="2.46293">
        <ele>430</ele>
        <time>2015-04-20T12:36:31Z</time>
      </trkpt>
      <trkpt lat="46.16058" lon="2.4629">
        <ele>429</ele>
        <time>2015-04-20T12:36:33Z</time>
      </trkpt>
      <trkpt lat="46.1606" lon="2.46286">
        <ele>429</ele>
        <time>2015-04-20T12:36:36Z</time>
      </trkpt>
      <trkpt lat="46.16063" lon="2.46285">
        <ele>429</ele>
        <time>2015-04-20T12:36:38Z</time>
      </trkpt>
      <trkpt lat="46.16066" lon="2.46283">
        <ele>429</ele>
        <time>2015-04-20T12:36:40Z</time>
      </trkpt>
      <trkpt lat="46.16068" lon="2.46281">
        <ele>429</ele>
        <time>2015-04-20T12:36:42Z</time>
      </trkpt>
      <trkpt lat="46.1607" lon="2.46277">
        <ele>428</ele>
        <time>2015-04-20T12:36:44Z</time>
      </trkpt>
      <trkpt lat="46.16071" lon="2.46274">
        <ele>428</ele>
        <time>2015-04-20T12:36:46Z</time>
      </trkpt>
      <trkpt lat="46.16073" lon="2.46271">
        <ele>428</ele>
        <time>2015-04-20T12:36:48Z</time>
      </trkpt>
      <trkpt lat="46.16075" lon="2.46268">
        <ele>427</ele>
        <time>2015-04-20T12:36:50Z</time>
      </trkpt>
      <trkpt lat="46.16077" lon="2.46265">
        <ele>427</ele>
        <time>2015-04-20T12:36:52Z</time>
      </trkpt>
      <trkpt lat="46.1608" lon="2.4626">
        <ele>427</ele>
        <time>2015-04-20T12:36:55Z</time>
      </trkpt>
      <trkpt lat="46.16082" lon="2.46257">
        <ele>426</ele>
        <time>2015-04-20T12:36:57Z</time>
      </trkpt>
      <trkpt lat="46.16083" lon="2.46253">
        <ele>426</ele>
        <time>2015-04-20T12:36:59Z</time>
      </trkpt>
      <trkpt lat="46.16085" lon="2.4625">
        <ele>426</ele>
        <time>2015-04-20T12:37:01Z</time>
      </trkpt>
      <trkpt lat="46.16087" lon="2.46246">
        <ele>426</ele>
        <time>2015-04-20T12:37:03Z</time>
      </trkpt>
      <trkpt lat="46.16089" lon="2.46243">
        <ele>426</ele>
        <time>2015-04-20T12:37:05Z</time>
      </trkpt>
      <trkpt lat="46.16091" lon="2.4624">
        <ele>426</ele>
        <time>2015-04-20T12:37:07Z</time>
      </trkpt>
      <trkpt lat="46.16093" lon="2.46237">
        <ele>426</ele>
        <time>2015-04-20T12:37:09Z</time>
      </trkpt>
      <trkpt lat="46.16096" lon="2.46231">
        <ele>425</ele>
        <time>2015-04-20T12:37:13Z</time>
      </trkpt>
      <trkpt lat="46.16097" lon="2.46229">
        <ele>425</ele>
        <time>2015-04-20T12:37:15Z</time>
      </trkpt>
      <trkpt lat="46.161" lon="2.46224">
        <ele>425</ele>
        <time>2015-04-20T12:37:18Z</time>
      </trkpt>
      <trkpt lat="46.16101" lon="2.46221">
        <ele>425</ele>
        <time>2015-04-20T12:37:20Z</time>
      </trkpt>
      <trkpt lat="46.16102" lon="2.46217">
        <ele>425</ele>
        <time>2015-04-20T12:37:23Z</time>
      </trkpt>
      <trkpt lat="46.16103" lon="2.46214">
        <ele>425</ele>
        <time>2015-04-20T12:37:25Z</time>
      </trkpt>
      <trkpt lat="46.16103" lon="2.4621">
        <ele>425</ele>
        <time>2015-04-20T12:37:27Z</time>
      </trkpt>
      <trkpt lat="46.16104" lon="2.46207">
        <ele>425</ele>
        <time>2015-04-20T12:37:29Z</time>
      </trkpt>
      <trkpt lat="46.16105" lon="2.46204">
        <ele>425</ele>
        <time>2015-04-20T12:37:31Z</time>
      </trkpt>
      <trkpt lat="46.16106" lon="2.462">
        <ele>425</ele>
        <time>2015-04-20T12:37:33Z</time>
      </trkpt>
      <trkpt lat="46.16106" lon="2.46197">
        <ele>425</ele>
        <time>2015-04-20T12:37:35Z</time>
      </trkpt>
      <trkpt lat="46.16108" lon="2.46192">
        <ele>424</ele>
        <time>2015-04-20T12:37:37Z</time>
      </trkpt>
      <trkpt lat="46.16109" lon="2.46187">
        <ele>424</ele>
        <time>2015-04-20T12:37:40Z</time>
      </trkpt>
      <trkpt lat="46.1611" lon="2.46184">
        <ele>424</ele>
        <time>2015-04-20T12:37:42Z</time>
      </trkpt>
      <trkpt lat="46.16111" lon="2.46177">
        <ele>423</ele>
        <time>2015-04-20T12:37:45Z</time>
      </trkpt>
      <trkpt lat="46.16111" lon="2.46172">
        <ele>422</ele>
        <time>2015-04-20T12:37:47Z</time>
      </trkpt>
      <trkpt lat="46.16111" lon="2.46167">
        <ele>422</ele>
        <time>2015-04-20T12:37:49Z</time>
      </trkpt>
      <trkpt lat="46.16112" lon="2.46163">
        <ele>422</ele>
        <time>2015-04-20T12:37:51Z</time>
      </trkpt>
      <trkpt lat="46.16112" lon="2.46158">
        <ele>422</ele>
        <time>2015-04-20T12:37:53Z</time>
      </trkpt>
      <trkpt lat="46.16112" lon="2.46154">
        <ele>422</ele>
        <time>2015-04-20T12:37:55Z</time>
      </trkpt>
      <trkpt lat="46.16112" lon="2.4615">
        <ele>422</ele>
        <time>2015-04-20T12:37:57Z</time>
      </trkpt>
      <trkpt lat="46.16113" lon="2.46146">
        <ele>422</ele>
        <time>2015-04-20T12:37:59Z</time>
      </trkpt>
      <trkpt lat="46.16114" lon="2.46143">
        <ele>422</ele>
        <time>2015-04-20T12:38:01Z</time>
      </trkpt>
      <trkpt lat="46.16113" lon="2.46139">
        <ele>422</ele>
        <time>2015-04-20T12:38:03Z</time>
      </trkpt>
      <trkpt lat="46.16113" lon="2.46134">
        <ele>422</ele>
        <time>2015-04-20T12:38:05Z</time>
      </trkpt>
      <trkpt lat="46.16112" lon="2.46128">
        <ele>422</ele>
        <time>2015-04-20T12:38:08Z</time>
      </trkpt>
      <trkpt lat="46.16111" lon="2.46125">
        <ele>422</ele>
        <time>2015-04-20T12:38:10Z</time>
      </trkpt>
      <trkpt lat="46.1611" lon="2.46122">
        <ele>422</ele>
        <time>2015-04-20T12:38:12Z</time>
      </trkpt>
      <trkpt lat="46.16108" lon="2.46118">
        <ele>422</ele>
        <time>2015-04-20T12:38:15Z</time>
      </trkpt>
      <trkpt lat="46.16106" lon="2.46115">
        <ele>421</ele>
        <time>2015-04-20T12:38:17Z</time>
      </trkpt>
      <trkpt lat="46.16104" lon="2.46112">
        <ele>420</ele>
        <time>2015-04-20T12:38:19Z</time>
      </trkpt>
      <trkpt lat="46.16102" lon="2.46108">
        <ele>419</ele>
        <time>2015-04-20T12:38:21Z</time>
      </trkpt>
      <trkpt lat="46.161" lon="2.46106">
        <ele>419</ele>
        <time>2015-04-20T12:38:23Z</time>
      </trkpt>
      <trkpt lat="46.16098" lon="2.46104">
        <ele>419</ele>
        <time>2015-04-20T12:38:25Z</time>
      </trkpt>
      <trkpt lat="46.16095" lon="2.46102">
        <ele>418</ele>
        <time>2015-04-20T12:38:27Z</time>
      </trkpt>
      <trkpt lat="46.16093" lon="2.461">
        <ele>418</ele>
        <time>2015-04-20T12:38:29Z</time>
      </trkpt>
      <trkpt lat="46.1609" lon="2.46099">
        <ele>417</ele>
        <time>2015-04-20T12:38:31Z</time>
      </trkpt>
      <trkpt lat="46.16088" lon="2.46099">
        <ele>417</ele>
        <time>2015-04-20T12:38:33Z</time>
      </trkpt>
      <trkpt lat="46.16087" lon="2.46098">
        <ele>416</ele>
        <time>2015-04-20T12:38:35Z</time>
      </trkpt>
      <trkpt lat="46.16081" lon="2.46096">
        <ele>415</ele>
        <time>2015-04-20T12:38:39Z</time>
      </trkpt>
      <trkpt lat="46.16079" lon="2.46095">
        <ele>415</ele>
        <time>2015-04-20T12:38:41Z</time>
      </trkpt>
      <trkpt lat="46.16076" lon="2.46094">
        <ele>415</ele>
        <time>2015-04-20T12:38:43Z</time>
      </trkpt>
      <trkpt lat="46.16072" lon="2.46094">
        <ele>414</ele>
        <time>2015-04-20T12:38:45Z</time>
      </trkpt>
      <trkpt lat="46.16069" lon="2.46091">
        <ele>414</ele>
        <time>2015-04-20T12:38:47Z</time>
      </trkpt>
      <trkpt lat="46.16067" lon="2.46091">
        <ele>414</ele>
        <time>2015-04-20T12:38:49Z</time>
      </trkpt>
      <trkpt lat="46.16064" lon="2.46092">
        <ele>414</ele>
        <time>2015-04-20T12:38:51Z</time>
      </trkpt>
      <trkpt lat="46.16062" lon="2.4609">
        <ele>414</ele>
        <time>2015-04-20T12:38:53Z</time>
      </trkpt>
      <trkpt lat="46.16059" lon="2.46089">
        <ele>414</ele>
        <time>2015-04-20T12:38:55Z</time>
      </trkpt>
      <trkpt lat="46.16056" lon="2.46089">
        <ele>414</ele>
        <time>2015-04-20T12:38:57Z</time>
      </trkpt>
      <trkpt lat="46.16051" lon="2.4609">
        <ele>414</ele>
        <time>2015-04-20T12:38:59Z</time>
      </trkpt>
      <trkpt lat="46.16048" lon="2.46089">
        <ele>414</ele>
        <time>2015-04-20T12:39:01Z</time>
      </trkpt>
      <trkpt lat="46.16045" lon="2.46089">
        <ele>413</ele>
        <time>2015-04-20T12:39:04Z</time>
      </trkpt>
      <trkpt lat="46.16042" lon="2.46089">
        <ele>411</ele>
        <time>2015-04-20T12:39:06Z</time>
      </trkpt>
      <trkpt lat="46.16039" lon="2.46088">
        <ele>410</ele>
        <time>2015-04-20T12:39:08Z</time>
      </trkpt>
      <trkpt lat="46.16036" lon="2.46088">
        <ele>410</ele>
        <time>2015-04-20T12:39:10Z</time>
      </trkpt>
      <trkpt lat="46.16033" lon="2.46088">
        <ele>409</ele>
        <time>2015-04-20T12:39:12Z</time>
      </trkpt>
      <trkpt lat="46.1603" lon="2.46088">
        <ele>408</ele>
        <time>2015-04-20T12:39:14Z</time>
      </trkpt>
      <trkpt lat="46.16027" lon="2.46087">
        <ele>407</ele>
        <time>2015-04-20T12:39:16Z</time>
      </trkpt>
      <trkpt lat="46.16025" lon="2.46087">
        <ele>407</ele>
        <time>2015-04-20T12:39:18Z</time>
      </trkpt>
      <trkpt lat="46.16022" lon="2.46087">
        <ele>407</ele>
        <time>2015-04-20T12:39:20Z</time>
      </trkpt>
      <trkpt lat="46.16019" lon="2.46086">
        <ele>406</ele>
        <time>2015-04-20T12:39:22Z</time>
      </trkpt>
      <trkpt lat="46.16017" lon="2.46087">
        <ele>406</ele>
        <time>2015-04-20T12:39:24Z</time>
      </trkpt>
      <trkpt lat="46.16014" lon="2.46086">
        <ele>406</ele>
        <time>2015-04-20T12:39:26Z</time>
      </trkpt>
      <trkpt lat="46.1601" lon="2.46084">
        <ele>406</ele>
        <time>2015-04-20T12:39:28Z</time>
      </trkpt>
      <trkpt lat="46.16008" lon="2.46083">
        <ele>406</ele>
        <time>2015-04-20T12:39:30Z</time>
      </trkpt>
      <trkpt lat="46.16005" lon="2.46082">
        <ele>405</ele>
        <time>2015-04-20T12:39:32Z</time>
      </trkpt>
      <trkpt lat="46.16002" lon="2.46082">
        <ele>405</ele>
        <time>2015-04-20T12:39:34Z</time>
      </trkpt>
      <trkpt lat="46.15999" lon="2.46082">
        <ele>404</ele>
        <time>2015-04-20T12:39:36Z</time>
      </trkpt>
      <trkpt lat="46.15997" lon="2.46082">
        <ele>404</ele>
        <time>2015-04-20T12:39:38Z</time>
      </trkpt>
      <trkpt lat="46.15994" lon="2.46082">
        <ele>404</ele>
        <time>2015-04-20T12:39:40Z</time>
      </trkpt>
      <trkpt lat="46.15992" lon="2.46081">
        <ele>404</ele>
        <time>2015-04-20T12:39:42Z</time>
      </trkpt>
      <trkpt lat="46.15989" lon="2.46081">
        <ele>404</ele>
        <time>2015-04-20T12:39:44Z</time>
      </trkpt>
      <trkpt lat="46.15986" lon="2.46079">
        <ele>404</ele>
        <time>2015-04-20T12:39:46Z</time>
      </trkpt>
      <trkpt lat="46.15983" lon="2.46078">
        <ele>404</ele>
        <time>2015-04-20T12:39:48Z</time>
      </trkpt>
      <trkpt lat="46.15981" lon="2.46079">
        <ele>404</ele>
        <time>2015-04-20T12:39:50Z</time>
      </trkpt>
      <trkpt lat="46.15979" lon="2.46079">
        <ele>404</ele>
        <time>2015-04-20T12:39:52Z</time>
      </trkpt>
      <trkpt lat="46.15976" lon="2.46079">
        <ele>404</ele>
        <time>2015-04-20T12:39:54Z</time>
      </trkpt>
      <trkpt lat="46.15974" lon="2.46079">
        <ele>404</ele>
        <time>2015-04-20T12:39:56Z</time>
      </trkpt>
      <trkpt lat="46.15971" lon="2.46078">
        <ele>404</ele>
        <time>2015-04-20T12:39:59Z</time>
      </trkpt>
      <trkpt lat="46.15968" lon="2.46077">
        <ele>403</ele>
        <time>2015-04-20T12:40:01Z</time>
      </trkpt>
      <trkpt lat="46.15964" lon="2.46076">
        <ele>402</ele>
        <time>2015-04-20T12:40:04Z</time>
      </trkpt>
      <trkpt lat="46.15961" lon="2.46075">
        <ele>402</ele>
        <time>2015-04-20T12:40:06Z</time>
      </trkpt>
      <trkpt lat="46.15958" lon="2.46075">
        <ele>402</ele>
        <time>2015-04-20T12:40:08Z</time>
      </trkpt>
      <trkpt lat="46.15956" lon="2.46075">
        <ele>402</ele>
        <time>2015-04-20T12:40:10Z</time>
      </trkpt>
      <trkpt lat="46.15954" lon="2.46074">
        <ele>402</ele>
        <time>2015-04-20T12:40:12Z</time>
      </trkpt>
      <trkpt lat="46.15951" lon="2.46074">
        <ele>402</ele>
        <time>2015-04-20T12:40:14Z</time>
      </trkpt>
      <trkpt lat="46.15948" lon="2.46074">
        <ele>401</ele>
        <time>2015-04-20T12:40:16Z</time>
      </trkpt>
      <trkpt lat="46.15945" lon="2.46074">
        <ele>400</ele>
        <time>2015-04-20T12:40:18Z</time>
      </trkpt>
      <trkpt lat="46.15941" lon="2.46074">
        <ele>399</ele>
        <time>2015-04-20T12:40:20Z</time>
      </trkpt>
      <trkpt lat="46.15939" lon="2.46073">
        <ele>399</ele>
        <time>2015-04-20T12:40:22Z</time>
      </trkpt>
      <trkpt lat="46.15936" lon="2.46072">
        <ele>399</ele>
        <time>2015-04-20T12:40:24Z</time>
      </trkpt>
      <trkpt lat="46.15933" lon="2.46072">
        <ele>399</ele>
        <time>2015-04-20T12:40:26Z</time>
      </trkpt>
      <trkpt lat="46.1593" lon="2.46071">
        <ele>399</ele>
        <time>2015-04-20T12:40:29Z</time>
      </trkpt>
      <trkpt lat="46.15928" lon="2.4607">
        <ele>399</ele>
        <time>2015-04-20T12:40:31Z</time>
      </trkpt>
      <trkpt lat="46.15926" lon="2.46067">
        <ele>399</ele>
        <time>2015-04-20T12:40:33Z</time>
      </trkpt>
      <trkpt lat="46.15924" lon="2.46063">
        <ele>399</ele>
        <time>2015-04-20T12:40:35Z</time>
      </trkpt>
      <trkpt lat="46.15923" lon="2.4606">
        <ele>399</ele>
        <time>2015-04-20T12:40:37Z</time>
      </trkpt>
      <trkpt lat="46.15922" lon="2.46056">
        <ele>399</ele>
        <time>2015-04-20T12:40:39Z</time>
      </trkpt>
      <trkpt lat="46.15922" lon="2.46051">
        <ele>399</ele>
        <time>2015-04-20T12:40:41Z</time>
      </trkpt>
      <trkpt lat="46.15923" lon="2.46045">
        <ele>399</ele>
        <time>2015-04-20T12:40:43Z</time>
      </trkpt>
      <trkpt lat="46.15923" lon="2.46041">
        <ele>399</ele>
        <time>2015-04-20T12:40:45Z</time>
      </trkpt>
      <trkpt lat="46.15923" lon="2.46038">
        <ele>401</ele>
        <time>2015-04-20T12:40:47Z</time>
      </trkpt>
      <trkpt lat="46.15926" lon="2.46035">
        <ele>402</ele>
        <time>2015-04-20T12:40:50Z</time>
      </trkpt>
      <trkpt lat="46.15928" lon="2.46035">
        <ele>402</ele>
        <time>2015-04-20T12:40:53Z</time>
      </trkpt>
      <trkpt lat="46.15929" lon="2.46037">
        <ele>402</ele>
        <time>2015-04-20T12:40:57Z</time>
      </trkpt>
      <trkpt lat="46.15932" lon="2.46038">
        <ele>402</ele>
        <time>2015-04-20T12:40:59Z</time>
      </trkpt>
      <trkpt lat="46.15935" lon="2.46036">
        <ele>402</ele>
        <time>2015-04-20T12:41:02Z</time>
      </trkpt>
      <trkpt lat="46.15936" lon="2.46034">
        <ele>402</ele>
        <time>2015-04-20T12:41:04Z</time>
      </trkpt>
      <trkpt lat="46.15936" lon="2.46033">
        <ele>402</ele>
        <time>2015-04-20T12:41:06Z</time>
      </trkpt>
      <trkpt lat="46.1594" lon="2.4603">
        <ele>402</ele>
        <time>2015-04-20T12:41:10Z</time>
      </trkpt>
      <trkpt lat="46.15942" lon="2.46029">
        <ele>403</ele>
        <time>2015-04-20T12:41:12Z</time>
      </trkpt>
      <trkpt lat="46.15943" lon="2.46028">
        <ele>404</ele>
        <time>2015-04-20T12:41:14Z</time>
      </trkpt>
      <trkpt lat="46.15946" lon="2.4603">
        <ele>404</ele>
        <time>2015-04-20T12:41:18Z</time>
      </trkpt>
      <trkpt lat="46.15947" lon="2.46031">
        <ele>404</ele>
        <time>2015-04-20T12:41:20Z</time>
      </trkpt>
      <trkpt lat="46.1595" lon="2.46029">
        <ele>404</ele>
        <time>2015-04-20T12:41:22Z</time>
      </trkpt>
      <trkpt lat="46.15954" lon="2.46026">
        <ele>402</ele>
        <time>2015-04-20T12:41:26Z</time>
      </trkpt>
      <trkpt lat="46.15958" lon="2.46022">
        <ele>402</ele>
        <time>2015-04-20T12:41:28Z</time>
      </trkpt>
      <trkpt lat="46.15959" lon="2.46019">
        <ele>402</ele>
        <time>2015-04-20T12:41:31Z</time>
      </trkpt>
      <trkpt lat="46.15963" lon="2.46016">
        <ele>402</ele>
        <time>2015-04-20T12:41:34Z</time>
      </trkpt>
      <trkpt lat="46.15966" lon="2.46014">
        <ele>402</ele>
        <time>2015-04-20T12:41:36Z</time>
      </trkpt>
      <trkpt lat="46.15969" lon="2.46012">
        <ele>402</ele>
        <time>2015-04-20T12:41:38Z</time>
      </trkpt>
      <trkpt lat="46.15971" lon="2.46008">
        <ele>402</ele>
        <time>2015-04-20T12:41:40Z</time>
      </trkpt>
      <trkpt lat="46.15974" lon="2.46004">
        <ele>402</ele>
        <time>2015-04-20T12:41:43Z</time>
      </trkpt>
      <trkpt lat="46.15976" lon="2.46001">
        <ele>403</ele>
        <time>2015-04-20T12:41:45Z</time>
      </trkpt>
      <trkpt lat="46.15977" lon="2.45997">
        <ele>403</ele>
        <time>2015-04-20T12:41:47Z</time>
      </trkpt>
      <trkpt lat="46.15978" lon="2.45994">
        <ele>403</ele>
        <time>2015-04-20T12:41:49Z</time>
      </trkpt>
      <trkpt lat="46.1598" lon="2.45991">
        <ele>403</ele>
        <time>2015-04-20T12:41:51Z</time>
      </trkpt>
      <trkpt lat="46.15982" lon="2.45987">
        <ele>404</ele>
        <time>2015-04-20T12:41:54Z</time>
      </trkpt>
      <trkpt lat="46.15986" lon="2.45983">
        <ele>405</ele>
        <time>2015-04-20T12:41:57Z</time>
      </trkpt>
      <trkpt lat="46.1599" lon="2.45978">
        <ele>408</ele>
        <time>2015-04-20T12:41:59Z</time>
      </trkpt>
      <trkpt lat="46.15991" lon="2.45974">
        <ele>410</ele>
        <time>2015-04-20T12:42:01Z</time>
      </trkpt>
      <trkpt lat="46.15993" lon="2.45971">
        <ele>411</ele>
        <time>2015-04-20T12:42:04Z</time>
      </trkpt>
      <trkpt lat="46.15993" lon="2.45969">
        <ele>411</ele>
        <time>2015-04-20T12:42:06Z</time>
      </trkpt>
      <trkpt lat="46.15995" lon="2.45965">
        <ele>412</ele>
        <time>2015-04-20T12:42:08Z</time>
      </trkpt>
      <trkpt lat="46.15995" lon="2.45962">
        <ele>413</ele>
        <time>2015-04-20T12:42:10Z</time>
      </trkpt>
      <trkpt lat="46.15996" lon="2.45958">
        <ele>413</ele>
        <time>2015-04-20T12:42:13Z</time>
      </trkpt>
      <trkpt lat="46.15997" lon="2.45954">
        <ele>413</ele>
        <time>2015-04-20T12:42:15Z</time>
      </trkpt>
      <trkpt lat="46.15998" lon="2.4595">
        <ele>413</ele>
        <time>2015-04-20T12:42:19Z</time>
      </trkpt>
      <trkpt lat="46.15999" lon="2.45947">
        <ele>413</ele>
        <time>2015-04-20T12:42:21Z</time>
      </trkpt>
      <trkpt lat="46.16" lon="2.45943">
        <ele>413</ele>
        <time>2015-04-20T12:42:24Z</time>
      </trkpt>
      <trkpt lat="46.15999" lon="2.45939">
        <ele>413</ele>
        <time>2015-04-20T12:42:26Z</time>
      </trkpt>
      <trkpt lat="46.15999" lon="2.45936">
        <ele>413</ele>
        <time>2015-04-20T12:42:28Z</time>
      </trkpt>
      <trkpt lat="46.15999" lon="2.45934">
        <ele>413</ele>
        <time>2015-04-20T12:42:30Z</time>
      </trkpt>
      <trkpt lat="46.15999" lon="2.45929">
        <ele>413</ele>
        <time>2015-04-20T12:42:32Z</time>
      </trkpt>
      <trkpt lat="46.16001" lon="2.45925">
        <ele>413</ele>
        <time>2015-04-20T12:42:36Z</time>
      </trkpt>
      <trkpt lat="46.16002" lon="2.45921">
        <ele>413</ele>
        <time>2015-04-20T12:42:38Z</time>
      </trkpt>
      <trkpt lat="46.16003" lon="2.45918">
        <ele>413</ele>
        <time>2015-04-20T12:42:40Z</time>
      </trkpt>
      <trkpt lat="46.16003" lon="2.45915">
        <ele>413</ele>
        <time>2015-04-20T12:42:42Z</time>
      </trkpt>
      <trkpt lat="46.16004" lon="2.45912">
        <ele>413</ele>
        <time>2015-04-20T12:42:44Z</time>
      </trkpt>
      <trkpt lat="46.16006" lon="2.45908">
        <ele>413</ele>
        <time>2015-04-20T12:42:46Z</time>
      </trkpt>
      <trkpt lat="46.16007" lon="2.45905">
        <ele>413</ele>
        <time>2015-04-20T12:42:48Z</time>
      </trkpt>
      <trkpt lat="46.16009" lon="2.45901">
        <ele>413</ele>
        <time>2015-04-20T12:42:50Z</time>
      </trkpt>
      <trkpt lat="46.16009" lon="2.45898">
        <ele>413</ele>
        <time>2015-04-20T12:42:52Z</time>
      </trkpt>
      <trkpt lat="46.16009" lon="2.45894">
        <ele>413</ele>
        <time>2015-04-20T12:42:54Z</time>
      </trkpt>
      <trkpt lat="46.16011" lon="2.45889">
        <ele>413</ele>
        <time>2015-04-20T12:42:57Z</time>
      </trkpt>
      <trkpt lat="46.16011" lon="2.45885">
        <ele>413</ele>
        <time>2015-04-20T12:42:59Z</time>
      </trkpt>
      <trkpt lat="46.16011" lon="2.45883">
        <ele>413</ele>
        <time>2015-04-20T12:43:01Z</time>
      </trkpt>
      <trkpt lat="46.16012" lon="2.45879">
        <ele>413</ele>
        <time>2015-04-20T12:43:03Z</time>
      </trkpt>
      <trkpt lat="46.16014" lon="2.45875">
        <ele>413</ele>
        <time>2015-04-20T12:43:06Z</time>
      </trkpt>
      <trkpt lat="46.16016" lon="2.45872">
        <ele>413</ele>
        <time>2015-04-20T12:43:08Z</time>
      </trkpt>
      <trkpt lat="46.16017" lon="2.45867">
        <ele>413</ele>
        <time>2015-04-20T12:43:10Z</time>
      </trkpt>
      <trkpt lat="46.16019" lon="2.45865">
        <ele>413</ele>
        <time>2015-04-20T12:43:13Z</time>
      </trkpt>
      <trkpt lat="46.16022" lon="2.45862">
        <ele>413</ele>
        <time>2015-04-20T12:43:17Z</time>
      </trkpt>
      <trkpt lat="46.16026" lon="2.45861">
        <ele>413</ele>
        <time>2015-04-20T12:43:19Z</time>
      </trkpt>
      <trkpt lat="46.16028" lon="2.4586">
        <ele>413</ele>
        <time>2015-04-20T12:43:22Z</time>
      </trkpt>
      <trkpt lat="46.1603" lon="2.4586">
        <ele>413</ele>
        <time>2015-04-20T12:43:24Z</time>
      </trkpt>
      <trkpt lat="46.16033" lon="2.4586">
        <ele>413</ele>
        <time>2015-04-20T12:43:26Z</time>
      </trkpt>
      <trkpt lat="46.16036" lon="2.45859">
        <ele>413</ele>
        <time>2015-04-20T12:43:30Z</time>
      </trkpt>
      <trkpt lat="46.16039" lon="2.45858">
        <ele>413</ele>
        <time>2015-04-20T12:43:32Z</time>
      </trkpt>
      <trkpt lat="46.16042" lon="2.45857">
        <ele>413</ele>
        <time>2015-04-20T12:43:36Z</time>
      </trkpt>
      <trkpt lat="46.16046" lon="2.45855">
        <ele>413</ele>
        <time>2015-04-20T12:43:38Z</time>
      </trkpt>
      <trkpt lat="46.16049" lon="2.45855">
        <ele>413</ele>
        <time>2015-04-20T12:43:41Z</time>
      </trkpt>
      <trkpt lat="46.16052" lon="2.45853">
        <ele>413</ele>
        <time>2015-04-20T12:43:43Z</time>
      </trkpt>
      <trkpt lat="46.16055" lon="2.45852">
        <ele>413</ele>
        <time>2015-04-20T12:43:46Z</time>
      </trkpt>
      <trkpt lat="46.16059" lon="2.4585">
        <ele>413</ele>
        <time>2015-04-20T12:43:48Z</time>
      </trkpt>
      <trkpt lat="46.16061" lon="2.45849">
        <ele>413</ele>
        <time>2015-04-20T12:43:50Z</time>
      </trkpt>
      <trkpt lat="46.16065" lon="2.45848">
        <ele>413</ele>
        <time>2015-04-20T12:43:54Z</time>
      </trkpt>
      <trkpt lat="46.16069" lon="2.45846">
        <ele>413</ele>
        <time>2015-04-20T12:43:57Z</time>
      </trkpt>
      <trkpt lat="46.16073" lon="2.45844">
        <ele>413</ele>
        <time>2015-04-20T12:43:59Z</time>
      </trkpt>
      <trkpt lat="46.16076" lon="2.45843">
        <ele>413</ele>
        <time>2015-04-20T12:44:01Z</time>
      </trkpt>
      <trkpt lat="46.16078" lon="2.45841">
        <ele>413</ele>
        <time>2015-04-20T12:44:03Z</time>
      </trkpt>
      <trkpt lat="46.1608" lon="2.4584">
        <ele>413</ele>
        <time>2015-04-20T12:44:06Z</time>
      </trkpt>
      <trkpt lat="46.16083" lon="2.45838">
        <ele>413</ele>
        <time>2015-04-20T12:44:08Z</time>
      </trkpt>
      <trkpt lat="46.16087" lon="2.45837">
        <ele>413</ele>
        <time>2015-04-20T12:44:10Z</time>
      </trkpt>
      <trkpt lat="46.1609" lon="2.45835">
        <ele>413</ele>
        <time>2015-04-20T12:44:13Z</time>
      </trkpt>
      <trkpt lat="46.16094" lon="2.45833">
        <ele>414</ele>
        <time>2015-04-20T12:44:15Z</time>
      </trkpt>
      <trkpt lat="46.16096" lon="2.45832">
        <ele>414</ele>
        <time>2015-04-20T12:44:18Z</time>
      </trkpt>
      <trkpt lat="46.161" lon="2.4583">
        <ele>415</ele>
        <time>2015-04-20T12:44:20Z</time>
      </trkpt>
      <trkpt lat="46.16104" lon="2.45829">
        <ele>415</ele>
        <time>2015-04-20T12:44:24Z</time>
      </trkpt>
      <trkpt lat="46.16108" lon="2.45826">
        <ele>416</ele>
        <time>2015-04-20T12:44:26Z</time>
      </trkpt>
      <trkpt lat="46.16111" lon="2.45825">
        <ele>416</ele>
        <time>2015-04-20T12:44:29Z</time>
      </trkpt>
      <trkpt lat="46.16115" lon="2.45823">
        <ele>416</ele>
        <time>2015-04-20T12:44:31Z</time>
      </trkpt>
      <trkpt lat="46.16117" lon="2.45822">
        <ele>416</ele>
        <time>2015-04-20T12:44:34Z</time>
      </trkpt>
      <trkpt lat="46.16121" lon="2.4582">
        <ele>416</ele>
        <time>2015-04-20T12:44:36Z</time>
      </trkpt>
      <trkpt lat="46.16124" lon="2.45819">
        <ele>416</ele>
        <time>2015-04-20T12:44:39Z</time>
      </trkpt>
      <trkpt lat="46.16128" lon="2.45818">
        <ele>416</ele>
        <time>2015-04-20T12:44:41Z</time>
      </trkpt>
      <trkpt lat="46.1613" lon="2.45816">
        <ele>416</ele>
        <time>2015-04-20T12:44:44Z</time>
      </trkpt>
      <trkpt lat="46.16135" lon="2.45815">
        <ele>416</ele>
        <time>2015-04-20T12:44:46Z</time>
      </trkpt>
      <trkpt lat="46.16137" lon="2.45814">
        <ele>416</ele>
        <time>2015-04-20T12:44:49Z</time>
      </trkpt>
      <trkpt lat="46.16141" lon="2.45812">
        <ele>416</ele>
        <time>2015-04-20T12:44:51Z</time>
      </trkpt>
      <trkpt lat="46.16144" lon="2.45811">
        <ele>416</ele>
        <time>2015-04-20T12:44:54Z</time>
      </trkpt>
      <trkpt lat="46.16148" lon="2.4581">
        <ele>416</ele>
        <time>2015-04-20T12:44:56Z</time>
      </trkpt>
      <trkpt lat="46.1615" lon="2.45808">
        <ele>416</ele>
        <time>2015-04-20T12:44:58Z</time>
      </trkpt>
      <trkpt lat="46.16153" lon="2.45807">
        <ele>416</ele>
        <time>2015-04-20T12:45:01Z</time>
      </trkpt>
      <trkpt lat="46.16156" lon="2.45804">
        <ele>416</ele>
        <time>2015-04-20T12:45:03Z</time>
      </trkpt>
      <trkpt lat="46.16159" lon="2.45802">
        <ele>416</ele>
        <time>2015-04-20T12:45:06Z</time>
      </trkpt>
      <trkpt lat="46.16163" lon="2.458">
        <ele>416</ele>
        <time>2015-04-20T12:45:08Z</time>
      </trkpt>
      <trkpt lat="46.16165" lon="2.45797">
        <ele>416</ele>
        <time>2015-04-20T12:45:11Z</time>
      </trkpt>
      <trkpt lat="46.16169" lon="2.45795">
        <ele>416</ele>
        <time>2015-04-20T12:45:13Z</time>
      </trkpt>
      <trkpt lat="46.16171" lon="2.45793">
        <ele>416</ele>
        <time>2015-04-20T12:45:16Z</time>
      </trkpt>
      <trkpt lat="46.16176" lon="2.45788">
        <ele>416</ele>
        <time>2015-04-20T12:45:19Z</time>
      </trkpt>
      <trkpt lat="46.16178" lon="2.45785">
        <ele>416</ele>
        <time>2015-04-20T12:45:22Z</time>
      </trkpt>
      <trkpt lat="46.16181" lon="2.45781">
        <ele>416</ele>
        <time>2015-04-20T12:45:25Z</time>
      </trkpt>
      <trkpt lat="46.16184" lon="2.45778">
        <ele>416</ele>
        <time>2015-04-20T12:45:27Z</time>
      </trkpt>
      <trkpt lat="46.16186" lon="2.45776">
        <ele>416</ele>
        <time>2015-04-20T12:45:29Z</time>
      </trkpt>
      <trkpt lat="46.1619" lon="2.45771">
        <ele>416</ele>
        <time>2015-04-20T12:45:33Z</time>
      </trkpt>
      <trkpt lat="46.16193" lon="2.45769">
        <ele>416</ele>
        <time>2015-04-20T12:45:36Z</time>
      </trkpt>
      <trkpt lat="46.16196" lon="2.45765">
        <ele>416</ele>
        <time>2015-04-20T12:45:38Z</time>
      </trkpt>
      <trkpt lat="46.16201" lon="2.45761">
        <ele>416</ele>
        <time>2015-04-20T12:45:43Z</time>
      </trkpt>
      <trkpt lat="46.16205" lon="2.45757">
        <ele>416</ele>
        <time>2015-04-20T12:45:46Z</time>
      </trkpt>
      <trkpt lat="46.16207" lon="2.45754">
        <ele>416</ele>
        <time>2015-04-20T12:45:49Z</time>
      </trkpt>
      <trkpt lat="46.16211" lon="2.4575">
        <ele>417</ele>
        <time>2015-04-20T12:45:52Z</time>
      </trkpt>
      <trkpt lat="46.16213" lon="2.45747">
        <ele>417</ele>
        <time>2015-04-20T12:45:55Z</time>
      </trkpt>
      <trkpt lat="46.16217" lon="2.45743">
        <ele>418</ele>
        <time>2015-04-20T12:45:58Z</time>
      </trkpt>
      <trkpt lat="46.16219" lon="2.4574">
        <ele>418</ele>
        <time>2015-04-20T12:46:01Z</time>
      </trkpt>
      <trkpt lat="46.16222" lon="2.45735">
        <ele>419</ele>
        <time>2015-04-20T12:46:04Z</time>
      </trkpt>
      <trkpt lat="46.16224" lon="2.45733">
        <ele>420</ele>
        <time>2015-04-20T12:46:06Z</time>
      </trkpt>
      <trkpt lat="46.16227" lon="2.45728">
        <ele>420</ele>
        <time>2015-04-20T12:46:09Z</time>
      </trkpt>
      <trkpt lat="46.16228" lon="2.45725">
        <ele>421</ele>
        <time>2015-04-20T12:46:11Z</time>
      </trkpt>
      <trkpt lat="46.1623" lon="2.45722">
        <ele>421</ele>
        <time>2015-04-20T12:46:13Z</time>
      </trkpt>
      <trkpt lat="46.16231" lon="2.45719">
        <ele>421</ele>
        <time>2015-04-20T12:46:15Z</time>
      </trkpt>
      <trkpt lat="46.16232" lon="2.45716">
        <ele>421</ele>
        <time>2015-04-20T12:46:18Z</time>
      </trkpt>
      <trkpt lat="46.16234" lon="2.45711">
        <ele>421</ele>
        <time>2015-04-20T12:46:20Z</time>
      </trkpt>
      <trkpt lat="46.16235" lon="2.45707">
        <ele>421</ele>
        <time>2015-04-20T12:46:22Z</time>
      </trkpt>
      <trkpt lat="46.16237" lon="2.45704">
        <ele>421</ele>
        <time>2015-04-20T12:46:24Z</time>
      </trkpt>
      <trkpt lat="46.16238" lon="2.45701">
        <ele>422</ele>
        <time>2015-04-20T12:46:27Z</time>
      </trkpt>
      <trkpt lat="46.16241" lon="2.45696">
        <ele>423</ele>
        <time>2015-04-20T12:46:29Z</time>
      </trkpt>
      <trkpt lat="46.16242" lon="2.45693">
        <ele>423</ele>
        <time>2015-04-20T12:46:32Z</time>
      </trkpt>
      <trkpt lat="46.16243" lon="2.45687">
        <ele>424</ele>
        <time>2015-04-20T12:46:34Z</time>
      </trkpt>
      <trkpt lat="46.16245" lon="2.45684">
        <ele>424</ele>
        <time>2015-04-20T12:46:37Z</time>
      </trkpt>
      <trkpt lat="46.16246" lon="2.45679">
        <ele>424</ele>
        <time>2015-04-20T12:46:39Z</time>
      </trkpt>
      <trkpt lat="46.16248" lon="2.45676">
        <ele>424</ele>
        <time>2015-04-20T12:46:42Z</time>
      </trkpt>
      <trkpt lat="46.16249" lon="2.4567">
        <ele>424</ele>
        <time>2015-04-20T12:46:44Z</time>
      </trkpt>
      <trkpt lat="46.1625" lon="2.45667">
        <ele>425</ele>
        <time>2015-04-20T12:46:46Z</time>
      </trkpt>
      <trkpt lat="46.16251" lon="2.45664">
        <ele>425</ele>
        <time>2015-04-20T12:46:48Z</time>
      </trkpt>
      <trkpt lat="46.16253" lon="2.4566">
        <ele>425</ele>
        <time>2015-04-20T12:46:50Z</time>
      </trkpt>
      <trkpt lat="46.16254" lon="2.45657">
        <ele>425</ele>
        <time>2015-04-20T12:46:53Z</time>
      </trkpt>
      <trkpt lat="46.16256" lon="2.45653">
        <ele>426</ele>
        <time>2015-04-20T12:46:55Z</time>
      </trkpt>
      <trkpt lat="46.16257" lon="2.45649">
        <ele>426</ele>
        <time>2015-04-20T12:46:58Z</time>
      </trkpt>
      <trkpt lat="46.16259" lon="2.45644">
        <ele>427</ele>
        <time>2015-04-20T12:47:00Z</time>
      </trkpt>
      <trkpt lat="46.1626" lon="2.45641">
        <ele>427</ele>
        <time>2015-04-20T12:47:03Z</time>
      </trkpt>
      <trkpt lat="46.16262" lon="2.45637">
        <ele>428</ele>
        <time>2015-04-20T12:47:05Z</time>
      </trkpt>
      <trkpt lat="46.16264" lon="2.45632">
        <ele>429</ele>
        <time>2015-04-20T12:47:08Z</time>
      </trkpt>
      <trkpt lat="46.16265" lon="2.45629">
        <ele>429</ele>
        <time>2015-04-20T12:47:10Z</time>
      </trkpt>
      <trkpt lat="46.16266" lon="2.45626">
        <ele>429</ele>
        <time>2015-04-20T12:47:12Z</time>
      </trkpt>
      <trkpt lat="46.16267" lon="2.45623">
        <ele>430</ele>
        <time>2015-04-20T12:47:15Z</time>
      </trkpt>
      <trkpt lat="46.16269" lon="2.45618">
        <ele>431</ele>
        <time>2015-04-20T12:47:17Z</time>
      </trkpt>
      <trkpt lat="46.16271" lon="2.45615">
        <ele>431</ele>
        <time>2015-04-20T12:47:20Z</time>
      </trkpt>
      <trkpt lat="46.16272" lon="2.4561">
        <ele>431</ele>
        <time>2015-04-20T12:47:22Z</time>
      </trkpt>
      <trkpt lat="46.16273" lon="2.45607">
        <ele>432</ele>
        <time>2015-04-20T12:47:25Z</time>
      </trkpt>
      <trkpt lat="46.16275" lon="2.45602">
        <ele>432</ele>
        <time>2015-04-20T12:47:27Z</time>
      </trkpt>
      <trkpt lat="46.16276" lon="2.45599">
        <ele>432</ele>
        <time>2015-04-20T12:47:30Z</time>
      </trkpt>
      <trkpt lat="46.16278" lon="2.45594">
        <ele>432</ele>
        <time>2015-04-20T12:47:32Z</time>
      </trkpt>
      <trkpt lat="46.16279" lon="2.45591">
        <ele>432</ele>
        <time>2015-04-20T12:47:35Z</time>
      </trkpt>
      <trkpt lat="46.16281" lon="2.45586">
        <ele>433</ele>
        <time>2015-04-20T12:47:37Z</time>
      </trkpt>
      <trkpt lat="46.16282" lon="2.45583">
        <ele>433</ele>
        <time>2015-04-20T12:47:40Z</time>
      </trkpt>
      <trkpt lat="46.16283" lon="2.45578">
        <ele>433</ele>
        <time>2015-04-20T12:47:42Z</time>
      </trkpt>
      <trkpt lat="46.16285" lon="2.45574">
        <ele>433</ele>
        <time>2015-04-20T12:47:45Z</time>
      </trkpt>
      <trkpt lat="46.16288" lon="2.45568">
        <ele>434</ele>
        <time>2015-04-20T12:47:48Z</time>
      </trkpt>
      <trkpt lat="46.16289" lon="2.45565">
        <ele>434</ele>
        <time>2015-04-20T12:47:50Z</time>
      </trkpt>
      <trkpt lat="46.1629" lon="2.45561">
        <ele>434</ele>
        <time>2015-04-20T12:47:52Z</time>
      </trkpt>
      <trkpt lat="46.16292" lon="2.45558">
        <ele>434</ele>
        <time>2015-04-20T12:47:55Z</time>
      </trkpt>
      <trkpt lat="46.16293" lon="2.45552">
        <ele>434</ele>
        <time>2015-04-20T12:47:57Z</time>
      </trkpt>
      <trkpt lat="46.16294" lon="2.45549">
        <ele>434</ele>
        <time>2015-04-20T12:48:00Z</time>
      </trkpt>
      <trkpt lat="46.16296" lon="2.45544">
        <ele>435</ele>
        <time>2015-04-20T12:48:02Z</time>
      </trkpt>
      <trkpt lat="46.16298" lon="2.45539">
        <ele>435</ele>
        <time>2015-04-20T12:48:06Z</time>
      </trkpt>
      <trkpt lat="46.16299" lon="2.45534">
        <ele>435</ele>
        <time>2015-04-20T12:48:08Z</time>
      </trkpt>
      <trkpt lat="46.163" lon="2.4553">
        <ele>435</ele>
        <time>2015-04-20T12:48:11Z</time>
      </trkpt>
      <trkpt lat="46.163" lon="2.45525">
        <ele>435</ele>
        <time>2015-04-20T12:48:13Z</time>
      </trkpt>
      <trkpt lat="46.163" lon="2.45522">
        <ele>435</ele>
        <time>2015-04-20T12:48:16Z</time>
      </trkpt>
      <trkpt lat="46.16299" lon="2.45517">
        <ele>436</ele>
        <time>2015-04-20T12:48:18Z</time>
      </trkpt>
      <trkpt lat="46.16297" lon="2.45514">
        <ele>436</ele>
        <time>2015-04-20T12:48:21Z</time>
      </trkpt>
      <trkpt lat="46.16293" lon="2.4551">
        <ele>436</ele>
        <time>2015-04-20T12:48:24Z</time>
      </trkpt>
      <trkpt lat="46.16291" lon="2.45508">
        <ele>437</ele>
        <time>2015-04-20T12:48:27Z</time>
      </trkpt>
      <trkpt lat="46.16287" lon="2.45503">
        <ele>437</ele>
        <time>2015-04-20T12:48:30Z</time>
      </trkpt>
      <trkpt lat="46.16283" lon="2.455">
        <ele>437</ele>
        <time>2015-04-20T12:48:33Z</time>
      </trkpt>
      <trkpt lat="46.16281" lon="2.45499">
        <ele>437</ele>
        <time>2015-04-20T12:48:35Z</time>
      </trkpt>
      <trkpt lat="46.16279" lon="2.45497">
        <ele>438</ele>
        <time>2015-04-20T12:48:38Z</time>
      </trkpt>
      <trkpt lat="46.16275" lon="2.45494">
        <ele>438</ele>
        <time>2015-04-20T12:48:41Z</time>
      </trkpt>
      <trkpt lat="46.16272" lon="2.45492">
        <ele>439</ele>
        <time>2015-04-20T12:48:43Z</time>
      </trkpt>
      <trkpt lat="46.1627" lon="2.4549">
        <ele>439</ele>
        <time>2015-04-20T12:48:45Z</time>
      </trkpt>
      <trkpt lat="46.16268" lon="2.45489">
        <ele>439</ele>
        <time>2015-04-20T12:48:48Z</time>
      </trkpt>
      <trkpt lat="46.16265" lon="2.45486">
        <ele>439</ele>
        <time>2015-04-20T12:48:50Z</time>
      </trkpt>
      <trkpt lat="46.16263" lon="2.45484">
        <ele>440</ele>
        <time>2015-04-20T12:48:53Z</time>
      </trkpt>
      <trkpt lat="46.16259" lon="2.45481">
        <ele>440</ele>
        <time>2015-04-20T12:48:55Z</time>
      </trkpt>
      <trkpt lat="46.16256" lon="2.45479">
        <ele>440</ele>
        <time>2015-04-20T12:48:59Z</time>
      </trkpt>
      <trkpt lat="46.16252" lon="2.45476">
        <ele>440</ele>
        <time>2015-04-20T12:49:01Z</time>
      </trkpt>
      <trkpt lat="46.16249" lon="2.45473">
        <ele>440</ele>
        <time>2015-04-20T12:49:04Z</time>
      </trkpt>
      <trkpt lat="46.16246" lon="2.45471">
        <ele>440</ele>
        <time>2015-04-20T12:49:06Z</time>
      </trkpt>
      <trkpt lat="46.16243" lon="2.45468">
        <ele>440</ele>
        <time>2015-04-20T12:49:10Z</time>
      </trkpt>
      <trkpt lat="46.16239" lon="2.45465">
        <ele>441</ele>
        <time>2015-04-20T12:49:13Z</time>
      </trkpt>
      <trkpt lat="46.16237" lon="2.45463">
        <ele>441</ele>
        <time>2015-04-20T12:49:16Z</time>
      </trkpt>
      <trkpt lat="46.16233" lon="2.4546">
        <ele>441</ele>
        <time>2015-04-20T12:49:19Z</time>
      </trkpt>
      <trkpt lat="46.16231" lon="2.45458">
        <ele>442</ele>
        <time>2015-04-20T12:49:22Z</time>
      </trkpt>
      <trkpt lat="46.16227" lon="2.45456">
        <ele>442</ele>
        <time>2015-04-20T12:49:24Z</time>
      </trkpt>
      <trkpt lat="46.16225" lon="2.45454">
        <ele>442</ele>
        <time>2015-04-20T12:49:26Z</time>
      </trkpt>
      <trkpt lat="46.16223" lon="2.45452">
        <ele>442</ele>
        <time>2015-04-20T12:49:28Z</time>
      </trkpt>
      <trkpt lat="46.16219" lon="2.45448">
        <ele>443</ele>
        <time>2015-04-20T12:49:33Z</time>
      </trkpt>
      <trkpt lat="46.16216" lon="2.45445">
        <ele>443</ele>
        <time>2015-04-20T12:49:35Z</time>
      </trkpt>
      <trkpt lat="46.16214" lon="2.45443">
        <ele>443</ele>
        <time>2015-04-20T12:49:37Z</time>
      </trkpt>
      <trkpt lat="46.16211" lon="2.45441">
        <ele>444</ele>
        <time>2015-04-20T12:49:39Z</time>
      </trkpt>
      <trkpt lat="46.16209" lon="2.45439">
        <ele>444</ele>
        <time>2015-04-20T12:49:41Z</time>
      </trkpt>
      <trkpt lat="46.16207" lon="2.45437">
        <ele>444</ele>
        <time>2015-04-20T12:49:44Z</time>
      </trkpt>
      <trkpt lat="46.16204" lon="2.45432">
        <ele>444</ele>
        <time>2015-04-20T12:49:47Z</time>
      </trkpt>
      <trkpt lat="46.16201" lon="2.45429">
        <ele>444</ele>
        <time>2015-04-20T12:49:50Z</time>
      </trkpt>
      <trkpt lat="46.16199" lon="2.45425">
        <ele>444</ele>
        <time>2015-04-20T12:49:52Z</time>
      </trkpt>
      <trkpt lat="46.16197" lon="2.45422">
        <ele>444</ele>
        <time>2015-04-20T12:49:55Z</time>
      </trkpt>
      <trkpt lat="46.16194" lon="2.45417">
        <ele>444</ele>
        <time>2015-04-20T12:49:57Z</time>
      </trkpt>
      <trkpt lat="46.16192" lon="2.45414">
        <ele>444</ele>
        <time>2015-04-20T12:50:00Z</time>
      </trkpt>
      <trkpt lat="46.1619" lon="2.45409">
        <ele>444</ele>
        <time>2015-04-20T12:50:02Z</time>
      </trkpt>
      <trkpt lat="46.16188" lon="2.45406">
        <ele>444</ele>
        <time>2015-04-20T12:50:05Z</time>
      </trkpt>
      <trkpt lat="46.16185" lon="2.45401">
        <ele>444</ele>
        <time>2015-04-20T12:50:07Z</time>
      </trkpt>
      <trkpt lat="46.16184" lon="2.45398">
        <ele>444</ele>
        <time>2015-04-20T12:50:10Z</time>
      </trkpt>
      <trkpt lat="46.16182" lon="2.45393">
        <ele>444</ele>
        <time>2015-04-20T12:50:12Z</time>
      </trkpt>
      <trkpt lat="46.1618" lon="2.4539">
        <ele>444</ele>
        <time>2015-04-20T12:50:15Z</time>
      </trkpt>
      <trkpt lat="46.16177" lon="2.45385">
        <ele>444</ele>
        <time>2015-04-20T12:50:17Z</time>
      </trkpt>
      <trkpt lat="46.16176" lon="2.45381">
        <ele>444</ele>
        <time>2015-04-20T12:50:20Z</time>
      </trkpt>
      <trkpt lat="46.16173" lon="2.45376">
        <ele>444</ele>
        <time>2015-04-20T12:50:22Z</time>
      </trkpt>
      <trkpt lat="46.16171" lon="2.45373">
        <ele>444</ele>
        <time>2015-04-20T12:50:25Z</time>
      </trkpt>
      <trkpt lat="46.16169" lon="2.45368">
        <ele>444</ele>
        <time>2015-04-20T12:50:27Z</time>
      </trkpt>
      <trkpt lat="46.16167" lon="2.45365">
        <ele>444</ele>
        <time>2015-04-20T12:50:30Z</time>
      </trkpt>
      <trkpt lat="46.16165" lon="2.4536">
        <ele>444</ele>
        <time>2015-04-20T12:50:32Z</time>
      </trkpt>
      <trkpt lat="46.16163" lon="2.45357">
        <ele>444</ele>
        <time>2015-04-20T12:50:35Z</time>
      </trkpt>
      <trkpt lat="46.16161" lon="2.45352">
        <ele>444</ele>
        <time>2015-04-20T12:50:37Z</time>
      </trkpt>
      <trkpt lat="46.16159" lon="2.45349">
        <ele>444</ele>
        <time>2015-04-20T12:50:40Z</time>
      </trkpt>
      <trkpt lat="46.16156" lon="2.45344">
        <ele>444</ele>
        <time>2015-04-20T12:50:42Z</time>
      </trkpt>
      <trkpt lat="46.16155" lon="2.4534">
        <ele>444</ele>
        <time>2015-04-20T12:50:45Z</time>
      </trkpt>
      <trkpt lat="46.16152" lon="2.45336">
        <ele>444</ele>
        <time>2015-04-20T12:50:47Z</time>
      </trkpt>
      <trkpt lat="46.16151" lon="2.45333">
        <ele>444</ele>
        <time>2015-04-20T12:50:50Z</time>
      </trkpt>
      <trkpt lat="46.16148" lon="2.45327">
        <ele>444</ele>
        <time>2015-04-20T12:50:52Z</time>
      </trkpt>
      <trkpt lat="46.16146" lon="2.45324">
        <ele>444</ele>
        <time>2015-04-20T12:50:55Z</time>
      </trkpt>
      <trkpt lat="46.16143" lon="2.45319">
        <ele>444</ele>
        <time>2015-04-20T12:50:57Z</time>
      </trkpt>
      <trkpt lat="46.16141" lon="2.45316">
        <ele>444</ele>
        <time>2015-04-20T12:51:00Z</time>
      </trkpt>
      <trkpt lat="46.16138" lon="2.45312">
        <ele>444</ele>
        <time>2015-04-20T12:51:02Z</time>
      </trkpt>
      <trkpt lat="46.16136" lon="2.45308">
        <ele>444</ele>
        <time>2015-04-20T12:51:05Z</time>
      </trkpt>
      <trkpt lat="46.16133" lon="2.45304">
        <ele>444</ele>
        <time>2015-04-20T12:51:07Z</time>
      </trkpt>
      <trkpt lat="46.1613" lon="2.45301">
        <ele>444</ele>
        <time>2015-04-20T12:51:09Z</time>
      </trkpt>
      <trkpt lat="46.16128" lon="2.45298">
        <ele>444</ele>
        <time>2015-04-20T12:51:11Z</time>
      </trkpt>
      <trkpt lat="46.16126" lon="2.45296">
        <ele>444</ele>
        <time>2015-04-20T12:51:13Z</time>
      </trkpt>
      <trkpt lat="46.16123" lon="2.45294">
        <ele>444</ele>
        <time>2015-04-20T12:51:15Z</time>
      </trkpt>
      <trkpt lat="46.1612" lon="2.45292">
        <ele>444</ele>
        <time>2015-04-20T12:51:17Z</time>
      </trkpt>
      <trkpt lat="46.16118" lon="2.45289">
        <ele>444</ele>
        <time>2015-04-20T12:51:19Z</time>
      </trkpt>
      <trkpt lat="46.16115" lon="2.45288">
        <ele>444</ele>
        <time>2015-04-20T12:51:21Z</time>
      </trkpt>
      <trkpt lat="46.16113" lon="2.45286">
        <ele>444</ele>
        <time>2015-04-20T12:51:23Z</time>
      </trkpt>
      <trkpt lat="46.1611" lon="2.45285">
        <ele>444</ele>
        <time>2015-04-20T12:51:25Z</time>
      </trkpt>
      <trkpt lat="46.16108" lon="2.45283">
        <ele>444</ele>
        <time>2015-04-20T12:51:27Z</time>
      </trkpt>
      <trkpt lat="46.16104" lon="2.45281">
        <ele>444</ele>
        <time>2015-04-20T12:51:30Z</time>
      </trkpt>
      <trkpt lat="46.16101" lon="2.45279">
        <ele>444</ele>
        <time>2015-04-20T12:51:32Z</time>
      </trkpt>
      <trkpt lat="46.16098" lon="2.45277">
        <ele>444</ele>
        <time>2015-04-20T12:51:34Z</time>
      </trkpt>
      <trkpt lat="46.16095" lon="2.45275">
        <ele>444</ele>
        <time>2015-04-20T12:51:37Z</time>
      </trkpt>
      <trkpt lat="46.16092" lon="2.45273">
        <ele>444</ele>
        <time>2015-04-20T12:51:39Z</time>
      </trkpt>
      <trkpt lat="46.16089" lon="2.45272">
        <ele>444</ele>
        <time>2015-04-20T12:51:41Z</time>
      </trkpt>
      <trkpt lat="46.16087" lon="2.4527">
        <ele>444</ele>
        <time>2015-04-20T12:51:43Z</time>
      </trkpt>
      <trkpt lat="46.16084" lon="2.45268">
        <ele>444</ele>
        <time>2015-04-20T12:51:45Z</time>
      </trkpt>
      <trkpt lat="46.16081" lon="2.45267">
        <ele>444</ele>
        <time>2015-04-20T12:51:47Z</time>
      </trkpt>
      <trkpt lat="46.16079" lon="2.45266">
        <ele>444</ele>
        <time>2015-04-20T12:51:49Z</time>
      </trkpt>
      <trkpt lat="46.16076" lon="2.45265">
        <ele>444</ele>
        <time>2015-04-20T12:51:51Z</time>
      </trkpt>
      <trkpt lat="46.16074" lon="2.45263">
        <ele>444</ele>
        <time>2015-04-20T12:51:53Z</time>
      </trkpt>
      <trkpt lat="46.16071" lon="2.45262">
        <ele>444</ele>
        <time>2015-04-20T12:51:55Z</time>
      </trkpt>
      <trkpt lat="46.16068" lon="2.45261">
        <ele>444</ele>
        <time>2015-04-20T12:51:57Z</time>
      </trkpt>
      <trkpt lat="46.16066" lon="2.45259">
        <ele>444</ele>
        <time>2015-04-20T12:51:59Z</time>
      </trkpt>
      <trkpt lat="46.16063" lon="2.45258">
        <ele>444</ele>
        <time>2015-04-20T12:52:01Z</time>
      </trkpt>
      <trkpt lat="46.1606" lon="2.45256">
        <ele>444</ele>
        <time>2015-04-20T12:52:03Z</time>
      </trkpt>
      <trkpt lat="46.16058" lon="2.45255">
        <ele>444</ele>
        <time>2015-04-20T12:52:05Z</time>
      </trkpt>
      <trkpt lat="46.16055" lon="2.45254">
        <ele>444</ele>
        <time>2015-04-20T12:52:07Z</time>
      </trkpt>
      <trkpt lat="46.16052" lon="2.45252">
        <ele>444</ele>
        <time>2015-04-20T12:52:09Z</time>
      </trkpt>
      <trkpt lat="46.1605" lon="2.45251">
        <ele>444</ele>
        <time>2015-04-20T12:52:11Z</time>
      </trkpt>
      <trkpt lat="46.16047" lon="2.4525">
        <ele>444</ele>
        <time>2015-04-20T12:52:13Z</time>
      </trkpt>
      <trkpt lat="46.16044" lon="2.45248">
        <ele>444</ele>
        <time>2015-04-20T12:52:15Z</time>
      </trkpt>
      <trkpt lat="46.16042" lon="2.45247">
        <ele>444</ele>
        <time>2015-04-20T12:52:17Z</time>
      </trkpt>
      <trkpt lat="46.16039" lon="2.45245">
        <ele>444</ele>
        <time>2015-04-20T12:52:19Z</time>
      </trkpt>
      <trkpt lat="46.16035" lon="2.45243">
        <ele>444</ele>
        <time>2015-04-20T12:52:22Z</time>
      </trkpt>
      <trkpt lat="46.16032" lon="2.45241">
        <ele>444</ele>
        <time>2015-04-20T12:52:24Z</time>
      </trkpt>
      <trkpt lat="46.1603" lon="2.4524">
        <ele>444</ele>
        <time>2015-04-20T12:52:26Z</time>
      </trkpt>
      <trkpt lat="46.16027" lon="2.45239">
        <ele>444</ele>
        <time>2015-04-20T12:52:28Z</time>
      </trkpt>
      <trkpt lat="46.16024" lon="2.45237">
        <ele>444</ele>
        <time>2015-04-20T12:52:30Z</time>
      </trkpt>
      <trkpt lat="46.16022" lon="2.45235">
        <ele>444</ele>
        <time>2015-04-20T12:52:32Z</time>
      </trkpt>
      <trkpt lat="46.16019" lon="2.45234">
        <ele>444</ele>
        <time>2015-04-20T12:52:34Z</time>
      </trkpt>
      <trkpt lat="46.16017" lon="2.45233">
        <ele>444</ele>
        <time>2015-04-20T12:52:36Z</time>
      </trkpt>
      <trkpt lat="46.16014" lon="2.45231">
        <ele>444</ele>
        <time>2015-04-20T12:52:38Z</time>
      </trkpt>
      <trkpt lat="46.16012" lon="2.4523">
        <ele>444</ele>
        <time>2015-04-20T12:52:40Z</time>
      </trkpt>
      <trkpt lat="46.16009" lon="2.45228">
        <ele>444</ele>
        <time>2015-04-20T12:52:42Z</time>
      </trkpt>
      <trkpt lat="46.16007" lon="2.45227">
        <ele>444</ele>
        <time>2015-04-20T12:52:44Z</time>
      </trkpt>
      <trkpt lat="46.16004" lon="2.45225">
        <ele>444</ele>
        <time>2015-04-20T12:52:46Z</time>
      </trkpt>
      <trkpt lat="46.16" lon="2.45222">
        <ele>444</ele>
        <time>2015-04-20T12:52:49Z</time>
      </trkpt>
      <trkpt lat="46.15998" lon="2.45221">
        <ele>444</ele>
        <time>2015-04-20T12:52:51Z</time>
      </trkpt>
      <trkpt lat="46.15995" lon="2.45219">
        <ele>444</ele>
        <time>2015-04-20T12:52:53Z</time>
      </trkpt>
      <trkpt lat="46.15992" lon="2.45218">
        <ele>445</ele>
        <time>2015-04-20T12:52:55Z</time>
      </trkpt>
      <trkpt lat="46.1599" lon="2.45216">
        <ele>445</ele>
        <time>2015-04-20T12:52:57Z</time>
      </trkpt>
      <trkpt lat="46.15987" lon="2.45215">
        <ele>445</ele>
        <time>2015-04-20T12:52:59Z</time>
      </trkpt>
      <trkpt lat="46.15984" lon="2.45213">
        <ele>445</ele>
        <time>2015-04-20T12:53:01Z</time>
      </trkpt>
      <trkpt lat="46.15981" lon="2.45211">
        <ele>445</ele>
        <time>2015-04-20T12:53:03Z</time>
      </trkpt>
      <trkpt lat="46.15979" lon="2.4521">
        <ele>445</ele>
        <time>2015-04-20T12:53:05Z</time>
      </trkpt>
      <trkpt lat="46.15976" lon="2.45208">
        <ele>446</ele>
        <time>2015-04-20T12:53:07Z</time>
      </trkpt>
      <trkpt lat="46.15974" lon="2.45207">
        <ele>446</ele>
        <time>2015-04-20T12:53:09Z</time>
      </trkpt>
      <trkpt lat="46.15971" lon="2.45205">
        <ele>446</ele>
        <time>2015-04-20T12:53:11Z</time>
      </trkpt>
      <trkpt lat="46.15968" lon="2.45203">
        <ele>446</ele>
        <time>2015-04-20T12:53:13Z</time>
      </trkpt>
      <trkpt lat="46.15965" lon="2.45202">
        <ele>446</ele>
        <time>2015-04-20T12:53:15Z</time>
      </trkpt>
      <trkpt lat="46.15963" lon="2.452">
        <ele>446</ele>
        <time>2015-04-20T12:53:17Z</time>
      </trkpt>
      <trkpt lat="46.1596" lon="2.45199">
        <ele>446</ele>
        <time>2015-04-20T12:53:19Z</time>
      </trkpt>
      <trkpt lat="46.15957" lon="2.45197">
        <ele>446</ele>
        <time>2015-04-20T12:53:21Z</time>
      </trkpt>
      <trkpt lat="46.15955" lon="2.45196">
        <ele>446</ele>
        <time>2015-04-20T12:53:23Z</time>
      </trkpt>
      <trkpt lat="46.15952" lon="2.45194">
        <ele>446</ele>
        <time>2015-04-20T12:53:25Z</time>
      </trkpt>
      <trkpt lat="46.15949" lon="2.45192">
        <ele>446</ele>
        <time>2015-04-20T12:53:27Z</time>
      </trkpt>
      <trkpt lat="46.15947" lon="2.45191">
        <ele>446</ele>
        <time>2015-04-20T12:53:29Z</time>
      </trkpt>
      <trkpt lat="46.15944" lon="2.45189">
        <ele>446</ele>
        <time>2015-04-20T12:53:31Z</time>
      </trkpt>
      <trkpt lat="46.15941" lon="2.45188">
        <ele>447</ele>
        <time>2015-04-20T12:53:33Z</time>
      </trkpt>
      <trkpt lat="46.15939" lon="2.45186">
        <ele>447</ele>
        <time>2015-04-20T12:53:35Z</time>
      </trkpt>
      <trkpt lat="46.15936" lon="2.45185">
        <ele>447</ele>
        <time>2015-04-20T12:53:37Z</time>
      </trkpt>
      <trkpt lat="46.15932" lon="2.45183">
        <ele>447</ele>
        <time>2015-04-20T12:53:40Z</time>
      </trkpt>
      <trkpt lat="46.15929" lon="2.45181">
        <ele>447</ele>
        <time>2015-04-20T12:53:42Z</time>
      </trkpt>
      <trkpt lat="46.15926" lon="2.4518">
        <ele>447</ele>
        <time>2015-04-20T12:53:44Z</time>
      </trkpt>
      <trkpt lat="46.15923" lon="2.45178">
        <ele>447</ele>
        <time>2015-04-20T12:53:46Z</time>
      </trkpt>
      <trkpt lat="46.15921" lon="2.45177">
        <ele>447</ele>
        <time>2015-04-20T12:53:48Z</time>
      </trkpt>
      <trkpt lat="46.15918" lon="2.45175">
        <ele>447</ele>
        <time>2015-04-20T12:53:50Z</time>
      </trkpt>
      <trkpt lat="46.15913" lon="2.45174">
        <ele>447</ele>
        <time>2015-04-20T12:53:53Z</time>
      </trkpt>
      <trkpt lat="46.15911" lon="2.45173">
        <ele>447</ele>
        <time>2015-04-20T12:53:55Z</time>
      </trkpt>
      <trkpt lat="46.15908" lon="2.45171">
        <ele>447</ele>
        <time>2015-04-20T12:53:57Z</time>
      </trkpt>
      <trkpt lat="46.15905" lon="2.4517">
        <ele>447</ele>
        <time>2015-04-20T12:53:59Z</time>
      </trkpt>
      <trkpt lat="46.15902" lon="2.45168">
        <ele>448</ele>
        <time>2015-04-20T12:54:01Z</time>
      </trkpt>
      <trkpt lat="46.159" lon="2.45167">
        <ele>448</ele>
        <time>2015-04-20T12:54:03Z</time>
      </trkpt>
      <trkpt lat="46.15897" lon="2.45166">
        <ele>448</ele>
        <time>2015-04-20T12:54:05Z</time>
      </trkpt>
      <trkpt lat="46.15894" lon="2.45164">
        <ele>448</ele>
        <time>2015-04-20T12:54:07Z</time>
      </trkpt>
      <trkpt lat="46.15881" lon="2.45149">
        <ele>448</ele>
        <time>2015-04-20T12:54:11Z</time>
      </trkpt>
      <trkpt lat="46.15879" lon="2.45148">
        <ele>448</ele>
        <time>2015-04-20T12:54:13Z</time>
      </trkpt>
      <trkpt lat="46.15876" lon="2.45146">
        <ele>448</ele>
        <time>2015-04-20T12:54:15Z</time>
      </trkpt>
      <trkpt lat="46.15873" lon="2.45145">
        <ele>448</ele>
        <time>2015-04-20T12:54:17Z</time>
      </trkpt>
      <trkpt lat="46.1587" lon="2.45144">
        <ele>448</ele>
        <time>2015-04-20T12:54:19Z</time>
      </trkpt>
      <trkpt lat="46.15867" lon="2.45143">
        <ele>448</ele>
        <time>2015-04-20T12:54:21Z</time>
      </trkpt>
      <trkpt lat="46.15865" lon="2.45142">
        <ele>448</ele>
        <time>2015-04-20T12:54:23Z</time>
      </trkpt>
      <trkpt lat="46.15862" lon="2.45141">
        <ele>448</ele>
        <time>2015-04-20T12:54:25Z</time>
      </trkpt>
      <trkpt lat="46.15859" lon="2.45139">
        <ele>448</ele>
        <time>2015-04-20T12:54:27Z</time>
      </trkpt>
      <trkpt lat="46.15856" lon="2.45138">
        <ele>448</ele>
        <time>2015-04-20T12:54:29Z</time>
      </trkpt>
      <trkpt lat="46.15853" lon="2.45136">
        <ele>448</ele>
        <time>2015-04-20T12:54:31Z</time>
      </trkpt>
      <trkpt lat="46.1585" lon="2.45134">
        <ele>448</ele>
        <time>2015-04-20T12:54:33Z</time>
      </trkpt>
      <trkpt lat="46.15848" lon="2.45132">
        <ele>448</ele>
        <time>2015-04-20T12:54:35Z</time>
      </trkpt>
      <trkpt lat="46.15845" lon="2.4513">
        <ele>448</ele>
        <time>2015-04-20T12:54:37Z</time>
      </trkpt>
      <trkpt lat="46.15843" lon="2.45128">
        <ele>448</ele>
        <time>2015-04-20T12:54:39Z</time>
      </trkpt>
      <trkpt lat="46.1584" lon="2.45125">
        <ele>448</ele>
        <time>2015-04-20T12:54:41Z</time>
      </trkpt>
      <trkpt lat="46.15838" lon="2.45123">
        <ele>448</ele>
        <time>2015-04-20T12:54:43Z</time>
      </trkpt>
      <trkpt lat="46.15834" lon="2.4512">
        <ele>448</ele>
        <time>2015-04-20T12:54:46Z</time>
      </trkpt>
      <trkpt lat="46.15831" lon="2.45116">
        <ele>448</ele>
        <time>2015-04-20T12:54:49Z</time>
      </trkpt>
      <trkpt lat="46.15828" lon="2.45114">
        <ele>448</ele>
        <time>2015-04-20T12:54:51Z</time>
      </trkpt>
      <trkpt lat="46.15826" lon="2.45112">
        <ele>448</ele>
        <time>2015-04-20T12:54:53Z</time>
      </trkpt>
      <trkpt lat="46.15824" lon="2.45109">
        <ele>448</ele>
        <time>2015-04-20T12:54:55Z</time>
      </trkpt>
      <trkpt lat="46.15823" lon="2.45106">
        <ele>448</ele>
        <time>2015-04-20T12:54:57Z</time>
      </trkpt>
      <trkpt lat="46.15822" lon="2.45102">
        <ele>448</ele>
        <time>2015-04-20T12:54:59Z</time>
      </trkpt>
      <trkpt lat="46.15822" lon="2.45098">
        <ele>448</ele>
        <time>2015-04-20T12:55:01Z</time>
      </trkpt>
      <trkpt lat="46.15822" lon="2.45093">
        <ele>448</ele>
        <time>2015-04-20T12:55:03Z</time>
      </trkpt>
      <trkpt lat="46.15823" lon="2.45089">
        <ele>448</ele>
        <time>2015-04-20T12:55:05Z</time>
      </trkpt>
      <trkpt lat="46.15824" lon="2.45085">
        <ele>448</ele>
        <time>2015-04-20T12:55:07Z</time>
      </trkpt>
      <trkpt lat="46.15825" lon="2.4508">
        <ele>449</ele>
        <time>2015-04-20T12:55:09Z</time>
      </trkpt>
      <trkpt lat="46.15825" lon="2.45076">
        <ele>449</ele>
        <time>2015-04-20T12:55:11Z</time>
      </trkpt>
      <trkpt lat="46.15826" lon="2.45072">
        <ele>449</ele>
        <time>2015-04-20T12:55:13Z</time>
      </trkpt>
      <trkpt lat="46.15827" lon="2.45068">
        <ele>449</ele>
        <time>2015-04-20T12:55:15Z</time>
      </trkpt>
      <trkpt lat="46.15828" lon="2.45064">
        <ele>449</ele>
        <time>2015-04-20T12:55:17Z</time>
      </trkpt>
      <trkpt lat="46.15828" lon="2.4506">
        <ele>449</ele>
        <time>2015-04-20T12:55:19Z</time>
      </trkpt>
      <trkpt lat="46.15829" lon="2.45057">
        <ele>449</ele>
        <time>2015-04-20T12:55:21Z</time>
      </trkpt>
      <trkpt lat="46.1583" lon="2.45053">
        <ele>449</ele>
        <time>2015-04-20T12:55:23Z</time>
      </trkpt>
      <trkpt lat="46.15831" lon="2.45048">
        <ele>449</ele>
        <time>2015-04-20T12:55:25Z</time>
      </trkpt>
      <trkpt lat="46.15832" lon="2.45044">
        <ele>449</ele>
        <time>2015-04-20T12:55:27Z</time>
      </trkpt>
      <trkpt lat="46.15833" lon="2.45038">
        <ele>449</ele>
        <time>2015-04-20T12:55:30Z</time>
      </trkpt>
      <trkpt lat="46.15833" lon="2.45034">
        <ele>449</ele>
        <time>2015-04-20T12:55:32Z</time>
      </trkpt>
      <trkpt lat="46.15834" lon="2.45029">
        <ele>449</ele>
        <time>2015-04-20T12:55:34Z</time>
      </trkpt>
      <trkpt lat="46.15834" lon="2.45025">
        <ele>450</ele>
        <time>2015-04-20T12:55:36Z</time>
      </trkpt>
      <trkpt lat="46.15835" lon="2.45021">
        <ele>450</ele>
        <time>2015-04-20T12:55:38Z</time>
      </trkpt>
      <trkpt lat="46.15836" lon="2.45017">
        <ele>450</ele>
        <time>2015-04-20T12:55:40Z</time>
      </trkpt>
      <trkpt lat="46.15837" lon="2.45011">
        <ele>450</ele>
        <time>2015-04-20T12:55:43Z</time>
      </trkpt>
      <trkpt lat="46.15838" lon="2.45006">
        <ele>450</ele>
        <time>2015-04-20T12:55:45Z</time>
      </trkpt>
      <trkpt lat="46.15839" lon="2.45003">
        <ele>450</ele>
        <time>2015-04-20T12:55:47Z</time>
      </trkpt>
      <trkpt lat="46.1584" lon="2.44999">
        <ele>450</ele>
        <time>2015-04-20T12:55:49Z</time>
      </trkpt>
      <trkpt lat="46.1584" lon="2.44995">
        <ele>451</ele>
        <time>2015-04-20T12:55:51Z</time>
      </trkpt>
      <trkpt lat="46.15841" lon="2.44991">
        <ele>451</ele>
        <time>2015-04-20T12:55:53Z</time>
      </trkpt>
      <trkpt lat="46.15842" lon="2.44988">
        <ele>451</ele>
        <time>2015-04-20T12:55:55Z</time>
      </trkpt>
      <trkpt lat="46.15842" lon="2.44984">
        <ele>451</ele>
        <time>2015-04-20T12:55:57Z</time>
      </trkpt>
      <trkpt lat="46.15843" lon="2.4498">
        <ele>451</ele>
        <time>2015-04-20T12:55:59Z</time>
      </trkpt>
      <trkpt lat="46.15844" lon="2.44976">
        <ele>451</ele>
        <time>2015-04-20T12:56:01Z</time>
      </trkpt>
      <trkpt lat="46.15845" lon="2.44972">
        <ele>451</ele>
        <time>2015-04-20T12:56:03Z</time>
      </trkpt>
      <trkpt lat="46.15845" lon="2.44968">
        <ele>451</ele>
        <time>2015-04-20T12:56:05Z</time>
      </trkpt>
      <trkpt lat="46.15846" lon="2.44965">
        <ele>451</ele>
        <time>2015-04-20T12:56:07Z</time>
      </trkpt>
      <trkpt lat="46.15847" lon="2.44961">
        <ele>452</ele>
        <time>2015-04-20T12:56:09Z</time>
      </trkpt>
      <trkpt lat="46.15847" lon="2.44957">
        <ele>452</ele>
        <time>2015-04-20T12:56:11Z</time>
      </trkpt>
      <trkpt lat="46.15848" lon="2.44953">
        <ele>452</ele>
        <time>2015-04-20T12:56:13Z</time>
      </trkpt>
      <trkpt lat="46.15847" lon="2.44949">
        <ele>452</ele>
        <time>2015-04-20T12:56:15Z</time>
      </trkpt>
      <trkpt lat="46.15847" lon="2.44944">
        <ele>452</ele>
        <time>2015-04-20T12:56:17Z</time>
      </trkpt>
      <trkpt lat="46.15845" lon="2.44938">
        <ele>452</ele>
        <time>2015-04-20T12:56:20Z</time>
      </trkpt>
      <trkpt lat="46.15844" lon="2.44935">
        <ele>452</ele>
        <time>2015-04-20T12:56:22Z</time>
      </trkpt>
      <trkpt lat="46.15841" lon="2.44931">
        <ele>452</ele>
        <time>2015-04-20T12:56:25Z</time>
      </trkpt>
      <trkpt lat="46.15839" lon="2.44928">
        <ele>452</ele>
        <time>2015-04-20T12:56:27Z</time>
      </trkpt>
      <trkpt lat="46.15836" lon="2.44923">
        <ele>452</ele>
        <time>2015-04-20T12:56:30Z</time>
      </trkpt>
      <trkpt lat="46.15834" lon="2.44921">
        <ele>452</ele>
        <time>2015-04-20T12:56:32Z</time>
      </trkpt>
      <trkpt lat="46.15832" lon="2.44918">
        <ele>452</ele>
        <time>2015-04-20T12:56:34Z</time>
      </trkpt>
      <trkpt lat="46.1583" lon="2.44916">
        <ele>452</ele>
        <time>2015-04-20T12:56:36Z</time>
      </trkpt>
      <trkpt lat="46.15827" lon="2.44912">
        <ele>452</ele>
        <time>2015-04-20T12:56:39Z</time>
      </trkpt>
      <trkpt lat="46.15826" lon="2.4491">
        <ele>452</ele>
        <time>2015-04-20T12:56:41Z</time>
      </trkpt>
      <trkpt lat="46.15823" lon="2.44907">
        <ele>452</ele>
        <time>2015-04-20T12:56:43Z</time>
      </trkpt>
      <trkpt lat="46.1582" lon="2.44904">
        <ele>452</ele>
        <time>2015-04-20T12:56:46Z</time>
      </trkpt>
      <trkpt lat="46.15817" lon="2.449">
        <ele>452</ele>
        <time>2015-04-20T12:56:48Z</time>
      </trkpt>
      <trkpt lat="46.15815" lon="2.44898">
        <ele>452</ele>
        <time>2015-04-20T12:56:50Z</time>
      </trkpt>
      <trkpt lat="46.15813" lon="2.44895">
        <ele>452</ele>
        <time>2015-04-20T12:56:53Z</time>
      </trkpt>
      <trkpt lat="46.1581" lon="2.44892">
        <ele>452</ele>
        <time>2015-04-20T12:56:55Z</time>
      </trkpt>
      <trkpt lat="46.15806" lon="2.44888">
        <ele>452</ele>
        <time>2015-04-20T12:56:58Z</time>
      </trkpt>
      <trkpt lat="46.15804" lon="2.44886">
        <ele>452</ele>
        <time>2015-04-20T12:57:00Z</time>
      </trkpt>
      <trkpt lat="46.15801" lon="2.44883">
        <ele>452</ele>
        <time>2015-04-20T12:57:02Z</time>
      </trkpt>
      <trkpt lat="46.15799" lon="2.4488">
        <ele>452</ele>
        <time>2015-04-20T12:57:04Z</time>
      </trkpt>
      <trkpt lat="46.15797" lon="2.44877">
        <ele>452</ele>
        <time>2015-04-20T12:57:06Z</time>
      </trkpt>
      <trkpt lat="46.15795" lon="2.44875">
        <ele>452</ele>
        <time>2015-04-20T12:57:08Z</time>
      </trkpt>
      <trkpt lat="46.15792" lon="2.44873">
        <ele>452</ele>
        <time>2015-04-20T12:57:10Z</time>
      </trkpt>
      <trkpt lat="46.1579" lon="2.4487">
        <ele>452</ele>
        <time>2015-04-20T12:57:12Z</time>
      </trkpt>
      <trkpt lat="46.15788" lon="2.44868">
        <ele>452</ele>
        <time>2015-04-20T12:57:14Z</time>
      </trkpt>
      <trkpt lat="46.15785" lon="2.44865">
        <ele>452</ele>
        <time>2015-04-20T12:57:16Z</time>
      </trkpt>
      <trkpt lat="46.15783" lon="2.44863">
        <ele>452</ele>
        <time>2015-04-20T12:57:18Z</time>
      </trkpt>
      <trkpt lat="46.15779" lon="2.4486">
        <ele>452</ele>
        <time>2015-04-20T12:57:20Z</time>
      </trkpt>
      <trkpt lat="46.15777" lon="2.44858">
        <ele>452</ele>
        <time>2015-04-20T12:57:23Z</time>
      </trkpt>
      <trkpt lat="46.15775" lon="2.44856">
        <ele>452</ele>
        <time>2015-04-20T12:57:25Z</time>
      </trkpt>
      <trkpt lat="46.15773" lon="2.44854">
        <ele>452</ele>
        <time>2015-04-20T12:57:27Z</time>
      </trkpt>
      <trkpt lat="46.1577" lon="2.44853">
        <ele>452</ele>
        <time>2015-04-20T12:57:29Z</time>
      </trkpt>
      <trkpt lat="46.15767" lon="2.44853">
        <ele>452</ele>
        <time>2015-04-20T12:57:32Z</time>
      </trkpt>
      <trkpt lat="46.15764" lon="2.44854">
        <ele>452</ele>
        <time>2015-04-20T12:57:34Z</time>
      </trkpt>
      <trkpt lat="46.15762" lon="2.44855">
        <ele>452</ele>
        <time>2015-04-20T12:57:36Z</time>
      </trkpt>
      <trkpt lat="46.15759" lon="2.44855">
        <ele>452</ele>
        <time>2015-04-20T12:57:38Z</time>
      </trkpt>
      <trkpt lat="46.15757" lon="2.44856">
        <ele>452</ele>
        <time>2015-04-20T12:57:40Z</time>
      </trkpt>
      <trkpt lat="46.15754" lon="2.44857">
        <ele>452</ele>
        <time>2015-04-20T12:57:42Z</time>
      </trkpt>
      <trkpt lat="46.15752" lon="2.44859">
        <ele>452</ele>
        <time>2015-04-20T12:57:44Z</time>
      </trkpt>
      <trkpt lat="46.15749" lon="2.44861">
        <ele>452</ele>
        <time>2015-04-20T12:57:47Z</time>
      </trkpt>
      <trkpt lat="46.15747" lon="2.44863">
        <ele>452</ele>
        <time>2015-04-20T12:57:49Z</time>
      </trkpt>
      <trkpt lat="46.15744" lon="2.44865">
        <ele>452</ele>
        <time>2015-04-20T12:57:51Z</time>
      </trkpt>
      <trkpt lat="46.15742" lon="2.44866">
        <ele>452</ele>
        <time>2015-04-20T12:57:53Z</time>
      </trkpt>
      <trkpt lat="46.15739" lon="2.44867">
        <ele>452</ele>
        <time>2015-04-20T12:57:55Z</time>
      </trkpt>
      <trkpt lat="46.15735" lon="2.44869">
        <ele>452</ele>
        <time>2015-04-20T12:57:58Z</time>
      </trkpt>
      <trkpt lat="46.15733" lon="2.4487">
        <ele>452</ele>
        <time>2015-04-20T12:58:01Z</time>
      </trkpt>
      <trkpt lat="46.15731" lon="2.44871">
        <ele>452</ele>
        <time>2015-04-20T12:58:03Z</time>
      </trkpt>
      <trkpt lat="46.15727" lon="2.44873">
        <ele>452</ele>
        <time>2015-04-20T12:58:06Z</time>
      </trkpt>
      <trkpt lat="46.15725" lon="2.44875">
        <ele>452</ele>
        <time>2015-04-20T12:58:08Z</time>
      </trkpt>
      <trkpt lat="46.15723" lon="2.44877">
        <ele>452</ele>
        <time>2015-04-20T12:58:10Z</time>
      </trkpt>
      <trkpt lat="46.1572" lon="2.44877">
        <ele>452</ele>
        <time>2015-04-20T12:58:12Z</time>
      </trkpt>
      <trkpt lat="46.15717" lon="2.44878">
        <ele>452</ele>
        <time>2015-04-20T12:58:14Z</time>
      </trkpt>
      <trkpt lat="46.15715" lon="2.44879">
        <ele>452</ele>
        <time>2015-04-20T12:58:16Z</time>
      </trkpt>
      <trkpt lat="46.15712" lon="2.4488">
        <ele>452</ele>
        <time>2015-04-20T12:58:18Z</time>
      </trkpt>
      <trkpt lat="46.1571" lon="2.44881">
        <ele>452</ele>
        <time>2015-04-20T12:58:20Z</time>
      </trkpt>
      <trkpt lat="46.15707" lon="2.44882">
        <ele>452</ele>
        <time>2015-04-20T12:58:22Z</time>
      </trkpt>
      <trkpt lat="46.15704" lon="2.44884">
        <ele>452</ele>
        <time>2015-04-20T12:58:25Z</time>
      </trkpt>
      <trkpt lat="46.15702" lon="2.44885">
        <ele>452</ele>
        <time>2015-04-20T12:58:27Z</time>
      </trkpt>
      <trkpt lat="46.15699" lon="2.44887">
        <ele>452</ele>
        <time>2015-04-20T12:58:30Z</time>
      </trkpt>
      <trkpt lat="46.15697" lon="2.44888">
        <ele>452</ele>
        <time>2015-04-20T12:58:32Z</time>
      </trkpt>
      <trkpt lat="46.15695" lon="2.44889">
        <ele>452</ele>
        <time>2015-04-20T12:58:34Z</time>
      </trkpt>
      <trkpt lat="46.15693" lon="2.4489">
        <ele>452</ele>
        <time>2015-04-20T12:58:36Z</time>
      </trkpt>
      <trkpt lat="46.15691" lon="2.44891">
        <ele>452</ele>
        <time>2015-04-20T12:58:38Z</time>
      </trkpt>
      <trkpt lat="46.15688" lon="2.44893">
        <ele>452</ele>
        <time>2015-04-20T12:58:40Z</time>
      </trkpt>
      <trkpt lat="46.15686" lon="2.44895">
        <ele>452</ele>
        <time>2015-04-20T12:58:43Z</time>
      </trkpt>
      <trkpt lat="46.15685" lon="2.44896">
        <ele>452</ele>
        <time>2015-04-20T12:58:45Z</time>
      </trkpt>
      <trkpt lat="46.15682" lon="2.44898">
        <ele>452</ele>
        <time>2015-04-20T12:58:48Z</time>
      </trkpt>
      <trkpt lat="46.15681" lon="2.44899">
        <ele>452</ele>
        <time>2015-04-20T12:58:50Z</time>
      </trkpt>
      <trkpt lat="46.1568" lon="2.449">
        <ele>452</ele>
        <time>2015-04-20T12:58:52Z</time>
      </trkpt>
      <trkpt lat="46.15659" lon="2.44922">
        <ele>451</ele>
        <time>2015-04-20T12:58:59Z</time>
      </trkpt>
      <trkpt lat="46.15657" lon="2.44924">
        <ele>451</ele>
        <time>2015-04-20T12:59:01Z</time>
      </trkpt>
      <trkpt lat="46.15656" lon="2.44926">
        <ele>451</ele>
        <time>2015-04-20T12:59:03Z</time>
      </trkpt>
      <trkpt lat="46.15655" lon="2.44928">
        <ele>451</ele>
        <time>2015-04-20T12:59:05Z</time>
      </trkpt>
      <trkpt lat="46.15656" lon="2.4493">
        <ele>451</ele>
        <time>2015-04-20T12:59:08Z</time>
      </trkpt>
      <trkpt lat="46.15655" lon="2.44933">
        <ele>451</ele>
        <time>2015-04-20T12:59:12Z</time>
      </trkpt>
      <trkpt lat="46.15653" lon="2.44935">
        <ele>451</ele>
        <time>2015-04-20T12:59:14Z</time>
      </trkpt>
      <trkpt lat="46.15652" lon="2.4494">
        <ele>451</ele>
        <time>2015-04-20T12:59:18Z</time>
      </trkpt>
      <trkpt lat="46.15651" lon="2.44943">
        <ele>451</ele>
        <time>2015-04-20T12:59:20Z</time>
      </trkpt>
      <trkpt lat="46.15651" lon="2.44946">
        <ele>451</ele>
        <time>2015-04-20T12:59:22Z</time>
      </trkpt>
      <trkpt lat="46.15651" lon="2.44947">
        <ele>451</ele>
        <time>2015-04-20T12:59:24Z</time>
      </trkpt>
      <trkpt lat="46.1565" lon="2.4495">
        <ele>451</ele>
        <time>2015-04-20T12:59:26Z</time>
      </trkpt>
      <trkpt lat="46.15649" lon="2.44952">
        <ele>451</ele>
        <time>2015-04-20T12:59:28Z</time>
      </trkpt>
      <trkpt lat="46.15647" lon="2.44956">
        <ele>451</ele>
        <time>2015-04-20T12:59:31Z</time>
      </trkpt>
      <trkpt lat="46.15646" lon="2.4496">
        <ele>451</ele>
        <time>2015-04-20T12:59:33Z</time>
      </trkpt>
      <trkpt lat="46.15645" lon="2.44966">
        <ele>451</ele>
        <time>2015-04-20T12:59:37Z</time>
      </trkpt>
      <trkpt lat="46.15646" lon="2.44969">
        <ele>451</ele>
        <time>2015-04-20T12:59:39Z</time>
      </trkpt>
      <trkpt lat="46.15645" lon="2.44974">
        <ele>451</ele>
        <time>2015-04-20T12:59:42Z</time>
      </trkpt>
      <trkpt lat="46.15644" lon="2.44978">
        <ele>451</ele>
        <time>2015-04-20T12:59:44Z</time>
      </trkpt>
      <trkpt lat="46.15645" lon="2.44982">
        <ele>451</ele>
        <time>2015-04-20T12:59:47Z</time>
      </trkpt>
      <trkpt lat="46.15646" lon="2.44985">
        <ele>451</ele>
        <time>2015-04-20T12:59:49Z</time>
      </trkpt>
      <trkpt lat="46.15645" lon="2.44989">
        <ele>451</ele>
        <time>2015-04-20T12:59:52Z</time>
      </trkpt>
      <trkpt lat="46.15645" lon="2.44992">
        <ele>451</ele>
        <time>2015-04-20T12:59:54Z</time>
      </trkpt>
      <trkpt lat="46.15646" lon="2.44995">
        <ele>451</ele>
        <time>2015-04-20T12:59:56Z</time>
      </trkpt>
      <trkpt lat="46.15646" lon="2.44998">
        <ele>451</ele>
        <time>2015-04-20T12:59:58Z</time>
      </trkpt>
      <trkpt lat="46.15645" lon="2.45001">
        <ele>451</ele>
        <time>2015-04-20T13:00:00Z</time>
      </trkpt>
      <trkpt lat="46.15644" lon="2.45005">
        <ele>451</ele>
        <time>2015-04-20T13:00:02Z</time>
      </trkpt>
      <trkpt lat="46.15644" lon="2.45008">
        <ele>451</ele>
        <time>2015-04-20T13:00:04Z</time>
      </trkpt>
      <trkpt lat="46.15643" lon="2.45011">
        <ele>451</ele>
        <time>2015-04-20T13:00:06Z</time>
      </trkpt>
      <trkpt lat="46.15643" lon="2.45013">
        <ele>451</ele>
        <time>2015-04-20T13:00:08Z</time>
      </trkpt>
      <trkpt lat="46.15643" lon="2.45016">
        <ele>451</ele>
        <time>2015-04-20T13:00:10Z</time>
      </trkpt>
      <trkpt lat="46.15641" lon="2.45017">
        <ele>451</ele>
        <time>2015-04-20T13:00:12Z</time>
      </trkpt>
      <trkpt lat="46.1564" lon="2.45019">
        <ele>451</ele>
        <time>2015-04-20T13:00:15Z</time>
      </trkpt>
      <trkpt lat="46.15638" lon="2.45021">
        <ele>451</ele>
        <time>2015-04-20T13:00:17Z</time>
      </trkpt>
      <trkpt lat="46.15638" lon="2.45024">
        <ele>451</ele>
        <time>2015-04-20T13:00:19Z</time>
      </trkpt>
      <trkpt lat="46.15637" lon="2.45027">
        <ele>451</ele>
        <time>2015-04-20T13:00:21Z</time>
      </trkpt>
      <trkpt lat="46.15635" lon="2.45029">
        <ele>451</ele>
        <time>2015-04-20T13:00:23Z</time>
      </trkpt>
      <trkpt lat="46.15631" lon="2.45032">
        <ele>451</ele>
        <time>2015-04-20T13:00:27Z</time>
      </trkpt>
      <trkpt lat="46.15628" lon="2.45033">
        <ele>451</ele>
        <time>2015-04-20T13:00:32Z</time>
      </trkpt>
      <trkpt lat="46.15628" lon="2.45035">
        <ele>451</ele>
        <time>2015-04-20T13:00:34Z</time>
      </trkpt>
      <trkpt lat="46.15627" lon="2.45038">
        <ele>451</ele>
        <time>2015-04-20T13:00:36Z</time>
      </trkpt>
      <trkpt lat="46.15626" lon="2.45042">
        <ele>451</ele>
        <time>2015-04-20T13:00:38Z</time>
      </trkpt>
      <trkpt lat="46.15625" lon="2.45045">
        <ele>451</ele>
        <time>2015-04-20T13:00:40Z</time>
      </trkpt>
      <trkpt lat="46.15624" lon="2.45048">
        <ele>451</ele>
        <time>2015-04-20T13:00:42Z</time>
      </trkpt>
      <trkpt lat="46.15623" lon="2.45049">
        <ele>451</ele>
        <time>2015-04-20T13:00:50Z</time>
      </trkpt>
      <trkpt lat="46.15623" lon="2.45051">
        <ele>451</ele>
        <time>2015-04-20T13:00:52Z</time>
      </trkpt>
      <trkpt lat="46.15622" lon="2.45054">
        <ele>451</ele>
        <time>2015-04-20T13:00:54Z</time>
      </trkpt>
      <trkpt lat="46.1562" lon="2.45059">
        <ele>451</ele>
        <time>2015-04-20T13:00:57Z</time>
      </trkpt>
      <trkpt lat="46.1562" lon="2.45062">
        <ele>451</ele>
        <time>2015-04-20T13:00:59Z</time>
      </trkpt>
      <trkpt lat="46.15619" lon="2.45064">
        <ele>451</ele>
        <time>2015-04-20T13:01:01Z</time>
      </trkpt>
      <trkpt lat="46.15616" lon="2.45069">
        <ele>451</ele>
        <time>2015-04-20T13:01:05Z</time>
      </trkpt>
      <trkpt lat="46.15615" lon="2.45073">
        <ele>451</ele>
        <time>2015-04-20T13:01:08Z</time>
      </trkpt>
      <trkpt lat="46.15614" lon="2.45076">
        <ele>451</ele>
        <time>2015-04-20T13:01:10Z</time>
      </trkpt>
      <trkpt lat="46.15613" lon="2.4508">
        <ele>451</ele>
        <time>2015-04-20T13:01:13Z</time>
      </trkpt>
      <trkpt lat="46.15612" lon="2.45082">
        <ele>451</ele>
        <time>2015-04-20T13:01:15Z</time>
      </trkpt>
      <trkpt lat="46.15611" lon="2.45084">
        <ele>451</ele>
        <time>2015-04-20T13:01:17Z</time>
      </trkpt>
      <trkpt lat="46.15609" lon="2.45089">
        <ele>451</ele>
        <time>2015-04-20T13:01:20Z</time>
      </trkpt>
      <trkpt lat="46.15608" lon="2.45093">
        <ele>451</ele>
        <time>2015-04-20T13:01:22Z</time>
      </trkpt>
      <trkpt lat="46.15606" lon="2.45097">
        <ele>451</ele>
        <time>2015-04-20T13:01:25Z</time>
      </trkpt>
      <trkpt lat="46.15603" lon="2.45101">
        <ele>450</ele>
        <time>2015-04-20T13:01:28Z</time>
      </trkpt>
      <trkpt lat="46.15601" lon="2.45106">
        <ele>450</ele>
        <time>2015-04-20T13:01:31Z</time>
      </trkpt>
      <trkpt lat="46.156" lon="2.45109">
        <ele>450</ele>
        <time>2015-04-20T13:01:33Z</time>
      </trkpt>
      <trkpt lat="46.15599" lon="2.45113">
        <ele>449</ele>
        <time>2015-04-20T13:01:35Z</time>
      </trkpt>
      <trkpt lat="46.15597" lon="2.45117">
        <ele>449</ele>
        <time>2015-04-20T13:01:37Z</time>
      </trkpt>
      <trkpt lat="46.15595" lon="2.4512">
        <ele>449</ele>
        <time>2015-04-20T13:01:39Z</time>
      </trkpt>
      <trkpt lat="46.15594" lon="2.45123">
        <ele>449</ele>
        <time>2015-04-20T13:01:41Z</time>
      </trkpt>
      <trkpt lat="46.15591" lon="2.45126">
        <ele>449</ele>
        <time>2015-04-20T13:01:45Z</time>
      </trkpt>
      <trkpt lat="46.1559" lon="2.45128">
        <ele>449</ele>
        <time>2015-04-20T13:01:47Z</time>
      </trkpt>
      <trkpt lat="46.15589" lon="2.45129">
        <ele>449</ele>
        <time>2015-04-20T13:01:50Z</time>
      </trkpt>
      <trkpt lat="46.15588" lon="2.45129">
        <ele>449</ele>
        <time>2015-04-20T13:01:55Z</time>
      </trkpt>
      <trkpt lat="46.15587" lon="2.45131">
        <ele>449</ele>
        <time>2015-04-20T13:01:59Z</time>
      </trkpt>
      <trkpt lat="46.15587" lon="2.45134">
        <ele>450</ele>
        <time>2015-04-20T13:02:01Z</time>
      </trkpt>
      <trkpt lat="46.15585" lon="2.45138">
        <ele>450</ele>
        <time>2015-04-20T13:02:04Z</time>
      </trkpt>
      <trkpt lat="46.15582" lon="2.45141">
        <ele>450</ele>
        <time>2015-04-20T13:02:06Z</time>
      </trkpt>
      <trkpt lat="46.15581" lon="2.45144">
        <ele>450</ele>
        <time>2015-04-20T13:02:08Z</time>
      </trkpt>
      <trkpt lat="46.15578" lon="2.45147">
        <ele>450</ele>
        <time>2015-04-20T13:02:10Z</time>
      </trkpt>
      <trkpt lat="46.15577" lon="2.4515">
        <ele>450</ele>
        <time>2015-04-20T13:02:12Z</time>
      </trkpt>
      <trkpt lat="46.15575" lon="2.45152">
        <ele>450</ele>
        <time>2015-04-20T13:02:14Z</time>
      </trkpt>
      <trkpt lat="46.15574" lon="2.45154">
        <ele>449</ele>
        <time>2015-04-20T13:02:16Z</time>
      </trkpt>
      <trkpt lat="46.15573" lon="2.45155">
        <ele>449</ele>
        <time>2015-04-20T13:02:18Z</time>
      </trkpt>
      <trkpt lat="46.15571" lon="2.45157">
        <ele>448</ele>
        <time>2015-04-20T13:02:20Z</time>
      </trkpt>
      <trkpt lat="46.15569" lon="2.45161">
        <ele>448</ele>
        <time>2015-04-20T13:02:22Z</time>
      </trkpt>
      <trkpt lat="46.15566" lon="2.45164">
        <ele>446</ele>
        <time>2015-04-20T13:02:25Z</time>
      </trkpt>
      <trkpt lat="46.15565" lon="2.45167">
        <ele>445</ele>
        <time>2015-04-20T13:02:27Z</time>
      </trkpt>
      <trkpt lat="46.15564" lon="2.45169">
        <ele>445</ele>
        <time>2015-04-20T13:02:29Z</time>
      </trkpt>
      <trkpt lat="46.1556" lon="2.4517">
        <ele>445</ele>
        <time>2015-04-20T13:02:32Z</time>
      </trkpt>
      <trkpt lat="46.15558" lon="2.45171">
        <ele>445</ele>
        <time>2015-04-20T13:02:34Z</time>
      </trkpt>
      <trkpt lat="46.15556" lon="2.45174">
        <ele>445</ele>
        <time>2015-04-20T13:02:38Z</time>
      </trkpt>
      <trkpt lat="46.15554" lon="2.45177">
        <ele>445</ele>
        <time>2015-04-20T13:02:40Z</time>
      </trkpt>
      <trkpt lat="46.15553" lon="2.45181">
        <ele>445</ele>
        <time>2015-04-20T13:02:42Z</time>
      </trkpt>
      <trkpt lat="46.1555" lon="2.45185">
        <ele>445</ele>
        <time>2015-04-20T13:02:45Z</time>
      </trkpt>
      <trkpt lat="46.15549" lon="2.45188">
        <ele>445</ele>
        <time>2015-04-20T13:02:47Z</time>
      </trkpt>
      <trkpt lat="46.15547" lon="2.4519">
        <ele>445</ele>
        <time>2015-04-20T13:02:49Z</time>
      </trkpt>
      <trkpt lat="46.15545" lon="2.45194">
        <ele>445</ele>
        <time>2015-04-20T13:02:52Z</time>
      </trkpt>
      <trkpt lat="46.15543" lon="2.45197">
        <ele>445</ele>
        <time>2015-04-20T13:02:54Z</time>
      </trkpt>
      <trkpt lat="46.1554" lon="2.45201">
        <ele>445</ele>
        <time>2015-04-20T13:02:57Z</time>
      </trkpt>
      <trkpt lat="46.15538" lon="2.45204">
        <ele>445</ele>
        <time>2015-04-20T13:02:59Z</time>
      </trkpt>
      <trkpt lat="46.15536" lon="2.45208">
        <ele>445</ele>
        <time>2015-04-20T13:03:01Z</time>
      </trkpt>
      <trkpt lat="46.15534" lon="2.45212">
        <ele>445</ele>
        <time>2015-04-20T13:03:03Z</time>
      </trkpt>
      <trkpt lat="46.15532" lon="2.45215">
        <ele>445</ele>
        <time>2015-04-20T13:03:05Z</time>
      </trkpt>
      <trkpt lat="46.1553" lon="2.45217">
        <ele>445</ele>
        <time>2015-04-20T13:03:07Z</time>
      </trkpt>
      <trkpt lat="46.15527" lon="2.4522">
        <ele>445</ele>
        <time>2015-04-20T13:03:09Z</time>
      </trkpt>
      <trkpt lat="46.15524" lon="2.45222">
        <ele>445</ele>
        <time>2015-04-20T13:03:12Z</time>
      </trkpt>
      <trkpt lat="46.1552" lon="2.45225">
        <ele>445</ele>
        <time>2015-04-20T13:03:15Z</time>
      </trkpt>
      <trkpt lat="46.15519" lon="2.45226">
        <ele>445</ele>
        <time>2015-04-20T13:03:17Z</time>
      </trkpt>
      <trkpt lat="46.15517" lon="2.45227">
        <ele>445</ele>
        <time>2015-04-20T13:03:19Z</time>
      </trkpt>
      <trkpt lat="46.15514" lon="2.4523">
        <ele>445</ele>
        <time>2015-04-20T13:03:23Z</time>
      </trkpt>
      <trkpt lat="46.15512" lon="2.45229">
        <ele>446</ele>
        <time>2015-04-20T13:03:40Z</time>
      </trkpt>
      <trkpt lat="46.15512" lon="2.45229">
        <ele>446</ele>
        <time>2015-04-20T13:03:45Z</time>
      </trkpt>
      <trkpt lat="46.15513" lon="2.45227">
        <ele>446</ele>
        <time>2015-04-20T13:03:47Z</time>
      </trkpt>
      <trkpt lat="46.15514" lon="2.45225">
        <ele>446</ele>
        <time>2015-04-20T13:03:49Z</time>
      </trkpt>
      <trkpt lat="46.15507" lon="2.45234">
        <ele>447</ele>
        <time>2015-04-20T13:03:52Z</time>
      </trkpt>
      <trkpt lat="46.15505" lon="2.45236">
        <ele>446</ele>
        <time>2015-04-20T13:03:54Z</time>
      </trkpt>
      <trkpt lat="46.15503" lon="2.45237">
        <ele>446</ele>
        <time>2015-04-20T13:03:56Z</time>
      </trkpt>
      <trkpt lat="46.155" lon="2.45239">
        <ele>446</ele>
        <time>2015-04-20T13:03:58Z</time>
      </trkpt>
      <trkpt lat="46.15496" lon="2.45243">
        <ele>446</ele>
        <time>2015-04-20T13:04:01Z</time>
      </trkpt>
      <trkpt lat="46.15492" lon="2.45245">
        <ele>445</ele>
        <time>2015-04-20T13:04:04Z</time>
      </trkpt>
      <trkpt lat="46.15488" lon="2.45248">
        <ele>444</ele>
        <time>2015-04-20T13:04:07Z</time>
      </trkpt>
      <trkpt lat="46.15485" lon="2.45249">
        <ele>444</ele>
        <time>2015-04-20T13:04:09Z</time>
      </trkpt>
      <trkpt lat="46.15482" lon="2.45251">
        <ele>444</ele>
        <time>2015-04-20T13:04:11Z</time>
      </trkpt>
      <trkpt lat="46.1548" lon="2.45253">
        <ele>444</ele>
        <time>2015-04-20T13:04:13Z</time>
      </trkpt>
      <trkpt lat="46.15476" lon="2.45256">
        <ele>444</ele>
        <time>2015-04-20T13:04:16Z</time>
      </trkpt>
      <trkpt lat="46.15474" lon="2.4526">
        <ele>444</ele>
        <time>2015-04-20T13:04:18Z</time>
      </trkpt>
      <trkpt lat="46.15473" lon="2.45263">
        <ele>444</ele>
        <time>2015-04-20T13:04:20Z</time>
      </trkpt>
      <trkpt lat="46.15472" lon="2.45267">
        <ele>444</ele>
        <time>2015-04-20T13:04:22Z</time>
      </trkpt>
      <trkpt lat="46.15472" lon="2.45271">
        <ele>444</ele>
        <time>2015-04-20T13:04:24Z</time>
      </trkpt>
      <trkpt lat="46.15472" lon="2.45274">
        <ele>444</ele>
        <time>2015-04-20T13:04:26Z</time>
      </trkpt>
      <trkpt lat="46.15472" lon="2.45278">
        <ele>444</ele>
        <time>2015-04-20T13:04:28Z</time>
      </trkpt>
      <trkpt lat="46.15472" lon="2.45282">
        <ele>444</ele>
        <time>2015-04-20T13:04:30Z</time>
      </trkpt>
      <trkpt lat="46.15472" lon="2.45285">
        <ele>444</ele>
        <time>2015-04-20T13:04:32Z</time>
      </trkpt>
      <trkpt lat="46.15472" lon="2.45291">
        <ele>444</ele>
        <time>2015-04-20T13:04:35Z</time>
      </trkpt>
      <trkpt lat="46.15471" lon="2.45296">
        <ele>444</ele>
        <time>2015-04-20T13:04:38Z</time>
      </trkpt>
      <trkpt lat="46.15471" lon="2.45301">
        <ele>445</ele>
        <time>2015-04-20T13:04:41Z</time>
      </trkpt>
      <trkpt lat="46.1547" lon="2.45304">
        <ele>446</ele>
        <time>2015-04-20T13:04:43Z</time>
      </trkpt>
      <trkpt lat="46.15469" lon="2.45308">
        <ele>446</ele>
        <time>2015-04-20T13:04:45Z</time>
      </trkpt>
      <trkpt lat="46.15469" lon="2.45314">
        <ele>447</ele>
        <time>2015-04-20T13:04:49Z</time>
      </trkpt>
      <trkpt lat="46.15469" lon="2.45319">
        <ele>448</ele>
        <time>2015-04-20T13:04:52Z</time>
      </trkpt>
      <trkpt lat="46.15469" lon="2.45322">
        <ele>448</ele>
        <time>2015-04-20T13:04:54Z</time>
      </trkpt>
      <trkpt lat="46.15468" lon="2.45326">
        <ele>448</ele>
        <time>2015-04-20T13:04:56Z</time>
      </trkpt>
      <trkpt lat="46.15467" lon="2.4533">
        <ele>448</ele>
        <time>2015-04-20T13:04:58Z</time>
      </trkpt>
      <trkpt lat="46.15466" lon="2.45335">
        <ele>448</ele>
        <time>2015-04-20T13:05:01Z</time>
      </trkpt>
      <trkpt lat="46.15465" lon="2.45341">
        <ele>448</ele>
        <time>2015-04-20T13:05:04Z</time>
      </trkpt>
      <trkpt lat="46.15464" lon="2.45344">
        <ele>448</ele>
        <time>2015-04-20T13:05:06Z</time>
      </trkpt>
      <trkpt lat="46.15463" lon="2.45348">
        <ele>448</ele>
        <time>2015-04-20T13:05:08Z</time>
      </trkpt>
      <trkpt lat="46.15462" lon="2.45352">
        <ele>448</ele>
        <time>2015-04-20T13:05:10Z</time>
      </trkpt>
      <trkpt lat="46.15461" lon="2.45357">
        <ele>448</ele>
        <time>2015-04-20T13:05:13Z</time>
      </trkpt>
      <trkpt lat="46.15459" lon="2.4536">
        <ele>449</ele>
        <time>2015-04-20T13:05:15Z</time>
      </trkpt>
      <trkpt lat="46.15458" lon="2.45364">
        <ele>449</ele>
        <time>2015-04-20T13:05:17Z</time>
      </trkpt>
      <trkpt lat="46.15457" lon="2.45368">
        <ele>449</ele>
        <time>2015-04-20T13:05:19Z</time>
      </trkpt>
      <trkpt lat="46.15456" lon="2.45371">
        <ele>450</ele>
        <time>2015-04-20T13:05:21Z</time>
      </trkpt>
      <trkpt lat="46.15454" lon="2.45376">
        <ele>450</ele>
        <time>2015-04-20T13:05:24Z</time>
      </trkpt>
      <trkpt lat="46.15453" lon="2.45379">
        <ele>450</ele>
        <time>2015-04-20T13:05:26Z</time>
      </trkpt>
      <trkpt lat="46.1545" lon="2.45384">
        <ele>451</ele>
        <time>2015-04-20T13:05:29Z</time>
      </trkpt>
      <trkpt lat="46.15448" lon="2.45388">
        <ele>451</ele>
        <time>2015-04-20T13:05:32Z</time>
      </trkpt>
      <trkpt lat="46.15444" lon="2.45393">
        <ele>451</ele>
        <time>2015-04-20T13:05:36Z</time>
      </trkpt>
      <trkpt lat="46.15443" lon="2.45397">
        <ele>451</ele>
        <time>2015-04-20T13:05:39Z</time>
      </trkpt>
      <trkpt lat="46.15441" lon="2.45401">
        <ele>451</ele>
        <time>2015-04-20T13:05:41Z</time>
      </trkpt>
      <trkpt lat="46.15439" lon="2.45404">
        <ele>451</ele>
        <time>2015-04-20T13:05:43Z</time>
      </trkpt>
      <trkpt lat="46.15436" lon="2.45409">
        <ele>451</ele>
        <time>2015-04-20T13:05:47Z</time>
      </trkpt>
      <trkpt lat="46.15434" lon="2.45414">
        <ele>451</ele>
        <time>2015-04-20T13:05:51Z</time>
      </trkpt>
      <trkpt lat="46.15432" lon="2.45417">
        <ele>451</ele>
        <time>2015-04-20T13:05:53Z</time>
      </trkpt>
      <trkpt lat="46.15431" lon="2.4542">
        <ele>451</ele>
        <time>2015-04-20T13:05:55Z</time>
      </trkpt>
      <trkpt lat="46.15429" lon="2.45424">
        <ele>451</ele>
        <time>2015-04-20T13:05:58Z</time>
      </trkpt>
      <trkpt lat="46.15427" lon="2.45429">
        <ele>451</ele>
        <time>2015-04-20T13:06:01Z</time>
      </trkpt>
      <trkpt lat="46.15425" lon="2.45433">
        <ele>451</ele>
        <time>2015-04-20T13:06:04Z</time>
      </trkpt>
      <trkpt lat="46.15423" lon="2.45437">
        <ele>451</ele>
        <time>2015-04-20T13:06:06Z</time>
      </trkpt>
      <trkpt lat="46.15422" lon="2.4544">
        <ele>451</ele>
        <time>2015-04-20T13:06:08Z</time>
      </trkpt>
      <trkpt lat="46.1542" lon="2.45443">
        <ele>451</ele>
        <time>2015-04-20T13:06:11Z</time>
      </trkpt>
      <trkpt lat="46.15419" lon="2.45446">
        <ele>451</ele>
        <time>2015-04-20T13:06:13Z</time>
      </trkpt>
      <trkpt lat="46.15417" lon="2.4545">
        <ele>451</ele>
        <time>2015-04-20T13:06:16Z</time>
      </trkpt>
      <trkpt lat="46.15416" lon="2.45453">
        <ele>451</ele>
        <time>2015-04-20T13:06:18Z</time>
      </trkpt>
      <trkpt lat="46.15415" lon="2.45457">
        <ele>451</ele>
        <time>2015-04-20T13:06:21Z</time>
      </trkpt>
      <trkpt lat="46.15414" lon="2.45461">
        <ele>451</ele>
        <time>2015-04-20T13:06:23Z</time>
      </trkpt>
      <trkpt lat="46.15412" lon="2.45463">
        <ele>451</ele>
        <time>2015-04-20T13:06:25Z</time>
      </trkpt>
      <trkpt lat="46.15411" lon="2.45466">
        <ele>452</ele>
        <time>2015-04-20T13:06:27Z</time>
      </trkpt>
      <trkpt lat="46.15409" lon="2.45469">
        <ele>452</ele>
        <time>2015-04-20T13:06:29Z</time>
      </trkpt>
      <trkpt lat="46.15408" lon="2.45472">
        <ele>452</ele>
        <time>2015-04-20T13:06:31Z</time>
      </trkpt>
      <trkpt lat="46.15406" lon="2.45476">
        <ele>453</ele>
        <time>2015-04-20T13:06:35Z</time>
      </trkpt>
      <trkpt lat="46.15405" lon="2.45478">
        <ele>453</ele>
        <time>2015-04-20T13:06:37Z</time>
      </trkpt>
      <trkpt lat="46.15402" lon="2.45482">
        <ele>454</ele>
        <time>2015-04-20T13:06:40Z</time>
      </trkpt>
      <trkpt lat="46.15399" lon="2.45485">
        <ele>454</ele>
        <time>2015-04-20T13:06:43Z</time>
      </trkpt>
      <trkpt lat="46.15398" lon="2.45487">
        <ele>454</ele>
        <time>2015-04-20T13:06:45Z</time>
      </trkpt>
      <trkpt lat="46.15397" lon="2.45491">
        <ele>454</ele>
        <time>2015-04-20T13:06:47Z</time>
      </trkpt>
      <trkpt lat="46.15394" lon="2.45494">
        <ele>454</ele>
        <time>2015-04-20T13:06:50Z</time>
      </trkpt>
      <trkpt lat="46.15392" lon="2.45496">
        <ele>454</ele>
        <time>2015-04-20T13:06:52Z</time>
      </trkpt>
      <trkpt lat="46.15388" lon="2.45501">
        <ele>454</ele>
        <time>2015-04-20T13:06:55Z</time>
      </trkpt>
      <trkpt lat="46.15386" lon="2.45504">
        <ele>454</ele>
        <time>2015-04-20T13:06:58Z</time>
      </trkpt>
      <trkpt lat="46.15383" lon="2.45507">
        <ele>454</ele>
        <time>2015-04-20T13:07:01Z</time>
      </trkpt>
      <trkpt lat="46.15381" lon="2.45509">
        <ele>454</ele>
        <time>2015-04-20T13:07:03Z</time>
      </trkpt>
      <trkpt lat="46.15379" lon="2.45511">
        <ele>454</ele>
        <time>2015-04-20T13:07:05Z</time>
      </trkpt>
      <trkpt lat="46.15378" lon="2.45513">
        <ele>454</ele>
        <time>2015-04-20T13:07:07Z</time>
      </trkpt>
      <trkpt lat="46.15374" lon="2.45515">
        <ele>454</ele>
        <time>2015-04-20T13:07:11Z</time>
      </trkpt>
      <trkpt lat="46.15372" lon="2.45516">
        <ele>454</ele>
        <time>2015-04-20T13:07:13Z</time>
      </trkpt>
      <trkpt lat="46.15371" lon="2.45518">
        <ele>454</ele>
        <time>2015-04-20T13:07:15Z</time>
      </trkpt>
      <trkpt lat="46.15369" lon="2.4552">
        <ele>454</ele>
        <time>2015-04-20T13:07:17Z</time>
      </trkpt>
      <trkpt lat="46.15365" lon="2.45523">
        <ele>454</ele>
        <time>2015-04-20T13:07:21Z</time>
      </trkpt>
      <trkpt lat="46.15361" lon="2.45528">
        <ele>454</ele>
        <time>2015-04-20T13:07:24Z</time>
      </trkpt>
      <trkpt lat="46.15359" lon="2.4553">
        <ele>455</ele>
        <time>2015-04-20T13:07:26Z</time>
      </trkpt>
      <trkpt lat="46.15357" lon="2.4553">
        <ele>455</ele>
        <time>2015-04-20T13:07:28Z</time>
      </trkpt>
      <trkpt lat="46.15354" lon="2.45532">
        <ele>455</ele>
        <time>2015-04-20T13:07:31Z</time>
      </trkpt>
      <trkpt lat="46.1535" lon="2.45536">
        <ele>455</ele>
        <time>2015-04-20T13:07:35Z</time>
      </trkpt>
      <trkpt lat="46.15348" lon="2.45538">
        <ele>455</ele>
        <time>2015-04-20T13:07:37Z</time>
      </trkpt>
      <trkpt lat="46.15345" lon="2.45539">
        <ele>455</ele>
        <time>2015-04-20T13:07:41Z</time>
      </trkpt>
      <trkpt lat="46.15343" lon="2.4554">
        <ele>455</ele>
        <time>2015-04-20T13:07:43Z</time>
      </trkpt>
      <trkpt lat="46.15341" lon="2.45541">
        <ele>456</ele>
        <time>2015-04-20T13:07:45Z</time>
      </trkpt>
      <trkpt lat="46.15337" lon="2.45541">
        <ele>458</ele>
        <time>2015-04-20T13:07:48Z</time>
      </trkpt>
      <trkpt lat="46.15334" lon="2.4554">
        <ele>458</ele>
        <time>2015-04-20T13:07:50Z</time>
      </trkpt>
      <trkpt lat="46.15331" lon="2.45541">
        <ele>458</ele>
        <time>2015-04-20T13:07:53Z</time>
      </trkpt>
      <trkpt lat="46.15328" lon="2.4554">
        <ele>458</ele>
        <time>2015-04-20T13:07:55Z</time>
      </trkpt>
      <trkpt lat="46.15326" lon="2.45542">
        <ele>458</ele>
        <time>2015-04-20T13:07:57Z</time>
      </trkpt>
      <trkpt lat="46.15323" lon="2.45542">
        <ele>458</ele>
        <time>2015-04-20T13:07:59Z</time>
      </trkpt>
      <trkpt lat="46.15322" lon="2.45543">
        <ele>458</ele>
        <time>2015-04-20T13:08:01Z</time>
      </trkpt>
      <trkpt lat="46.15318" lon="2.45543">
        <ele>458</ele>
        <time>2015-04-20T13:08:04Z</time>
      </trkpt>
      <trkpt lat="46.15316" lon="2.45544">
        <ele>458</ele>
        <time>2015-04-20T13:08:06Z</time>
      </trkpt>
      <trkpt lat="46.15313" lon="2.45543">
        <ele>458</ele>
        <time>2015-04-20T13:08:08Z</time>
      </trkpt>
      <trkpt lat="46.15311" lon="2.45544">
        <ele>459</ele>
        <time>2015-04-20T13:08:10Z</time>
      </trkpt>
      <trkpt lat="46.15308" lon="2.45542">
        <ele>460</ele>
        <time>2015-04-20T13:08:12Z</time>
      </trkpt>
      <trkpt lat="46.15305" lon="2.4554">
        <ele>462</ele>
        <time>2015-04-20T13:08:14Z</time>
      </trkpt>
      <trkpt lat="46.15303" lon="2.45538">
        <ele>463</ele>
        <time>2015-04-20T13:08:16Z</time>
      </trkpt>
      <trkpt lat="46.15298" lon="2.45538">
        <ele>463</ele>
        <time>2015-04-20T13:08:19Z</time>
      </trkpt>
      <trkpt lat="46.15294" lon="2.45538">
        <ele>463</ele>
        <time>2015-04-20T13:08:22Z</time>
      </trkpt>
      <trkpt lat="46.15292" lon="2.45537">
        <ele>463</ele>
        <time>2015-04-20T13:08:24Z</time>
      </trkpt>
      <trkpt lat="46.15289" lon="2.45537">
        <ele>464</ele>
        <time>2015-04-20T13:08:27Z</time>
      </trkpt>
      <trkpt lat="46.15286" lon="2.45537">
        <ele>464</ele>
        <time>2015-04-20T13:08:29Z</time>
      </trkpt>
      <trkpt lat="46.15285" lon="2.45537">
        <ele>464</ele>
        <time>2015-04-20T13:08:31Z</time>
      </trkpt>
      <trkpt lat="46.15281" lon="2.45535">
        <ele>465</ele>
        <time>2015-04-20T13:08:34Z</time>
      </trkpt>
      <trkpt lat="46.15277" lon="2.45534">
        <ele>466</ele>
        <time>2015-04-20T13:08:37Z</time>
      </trkpt>
      <trkpt lat="46.15275" lon="2.45535">
        <ele>466</ele>
        <time>2015-04-20T13:08:40Z</time>
      </trkpt>
      <trkpt lat="46.15273" lon="2.45534">
        <ele>466</ele>
        <time>2015-04-20T13:08:42Z</time>
      </trkpt>
      <trkpt lat="46.1527" lon="2.45534">
        <ele>466</ele>
        <time>2015-04-20T13:08:46Z</time>
      </trkpt>
      <trkpt lat="46.15267" lon="2.45536">
        <ele>466</ele>
        <time>2015-04-20T13:08:49Z</time>
      </trkpt>
      <trkpt lat="46.15264" lon="2.45535">
        <ele>466</ele>
        <time>2015-04-20T13:08:51Z</time>
      </trkpt>
      <trkpt lat="46.1526" lon="2.45532">
        <ele>466</ele>
        <time>2015-04-20T13:08:53Z</time>
      </trkpt>
      <trkpt lat="46.15257" lon="2.45531">
        <ele>466</ele>
        <time>2015-04-20T13:08:55Z</time>
      </trkpt>
      <trkpt lat="46.15255" lon="2.45531">
        <ele>466</ele>
        <time>2015-04-20T13:08:57Z</time>
      </trkpt>
      <trkpt lat="46.15252" lon="2.45532">
        <ele>466</ele>
        <time>2015-04-20T13:09:01Z</time>
      </trkpt>
      <trkpt lat="46.1525" lon="2.45532">
        <ele>466</ele>
        <time>2015-04-20T13:09:03Z</time>
      </trkpt>
      <trkpt lat="46.15246" lon="2.4553">
        <ele>466</ele>
        <time>2015-04-20T13:09:05Z</time>
      </trkpt>
      <trkpt lat="46.15245" lon="2.4553">
        <ele>466</ele>
        <time>2015-04-20T13:09:07Z</time>
      </trkpt>
      <trkpt lat="46.15242" lon="2.45529">
        <ele>466</ele>
        <time>2015-04-20T13:09:11Z</time>
      </trkpt>
      <trkpt lat="46.15239" lon="2.45526">
        <ele>466</ele>
        <time>2015-04-20T13:09:14Z</time>
      </trkpt>
      <trkpt lat="46.15236" lon="2.45523">
        <ele>466</ele>
        <time>2015-04-20T13:09:16Z</time>
      </trkpt>
      <trkpt lat="46.15232" lon="2.4552">
        <ele>467</ele>
        <time>2015-04-20T13:09:20Z</time>
      </trkpt>
      <trkpt lat="46.1523" lon="2.45517">
        <ele>468</ele>
        <time>2015-04-20T13:09:22Z</time>
      </trkpt>
      <trkpt lat="46.15226" lon="2.45514">
        <ele>468</ele>
        <time>2015-04-20T13:09:26Z</time>
      </trkpt>
      <trkpt lat="46.15225" lon="2.45513">
        <ele>468</ele>
        <time>2015-04-20T13:09:28Z</time>
      </trkpt>
      <trkpt lat="46.15222" lon="2.45512">
        <ele>468</ele>
        <time>2015-04-20T13:09:31Z</time>
      </trkpt>
      <trkpt lat="46.15219" lon="2.45511">
        <ele>468</ele>
        <time>2015-04-20T13:09:34Z</time>
      </trkpt>
      <trkpt lat="46.15217" lon="2.45509">
        <ele>468</ele>
        <time>2015-04-20T13:09:36Z</time>
      </trkpt>
      <trkpt lat="46.15216" lon="2.45508">
        <ele>468</ele>
        <time>2015-04-20T13:09:38Z</time>
      </trkpt>
      <trkpt lat="46.15214" lon="2.45507">
        <ele>468</ele>
        <time>2015-04-20T13:09:41Z</time>
      </trkpt>
      <trkpt lat="46.15212" lon="2.45506">
        <ele>468</ele>
        <time>2015-04-20T13:09:43Z</time>
      </trkpt>
      <trkpt lat="46.1521" lon="2.45507">
        <ele>468</ele>
        <time>2015-04-20T13:09:45Z</time>
      </trkpt>
      <trkpt lat="46.15208" lon="2.45506">
        <ele>468</ele>
        <time>2015-04-20T13:09:47Z</time>
      </trkpt>
      <trkpt lat="46.15205" lon="2.45507">
        <ele>468</ele>
        <time>2015-04-20T13:09:49Z</time>
      </trkpt>
      <trkpt lat="46.15203" lon="2.45507">
        <ele>468</ele>
        <time>2015-04-20T13:09:52Z</time>
      </trkpt>
      <trkpt lat="46.15199" lon="2.45506">
        <ele>468</ele>
        <time>2015-04-20T13:09:55Z</time>
      </trkpt>
      <trkpt lat="46.15195" lon="2.45505">
        <ele>468</ele>
        <time>2015-04-20T13:09:58Z</time>
      </trkpt>
      <trkpt lat="46.15192" lon="2.45505">
        <ele>469</ele>
        <time>2015-04-20T13:10:01Z</time>
      </trkpt>
      <trkpt lat="46.1519" lon="2.45506">
        <ele>469</ele>
        <time>2015-04-20T13:10:03Z</time>
      </trkpt>
      <trkpt lat="46.15188" lon="2.45507">
        <ele>469</ele>
        <time>2015-04-20T13:10:05Z</time>
      </trkpt>
      <trkpt lat="46.15185" lon="2.45508">
        <ele>469</ele>
        <time>2015-04-20T13:10:08Z</time>
      </trkpt>
      <trkpt lat="46.15181" lon="2.45511">
        <ele>469</ele>
        <time>2015-04-20T13:10:11Z</time>
      </trkpt>
      <trkpt lat="46.15178" lon="2.45512">
        <ele>469</ele>
        <time>2015-04-20T13:10:14Z</time>
      </trkpt>
      <trkpt lat="46.15174" lon="2.45512">
        <ele>469</ele>
        <time>2015-04-20T13:10:17Z</time>
      </trkpt>
      <trkpt lat="46.15172" lon="2.45513">
        <ele>469</ele>
        <time>2015-04-20T13:10:19Z</time>
      </trkpt>
      <trkpt lat="46.1517" lon="2.45515">
        <ele>469</ele>
        <time>2015-04-20T13:10:23Z</time>
      </trkpt>
      <trkpt lat="46.15169" lon="2.45518">
        <ele>469</ele>
        <time>2015-04-20T13:10:25Z</time>
      </trkpt>
      <trkpt lat="46.15168" lon="2.4552">
        <ele>469</ele>
        <time>2015-04-20T13:10:28Z</time>
      </trkpt>
      <trkpt lat="46.15166" lon="2.45521">
        <ele>469</ele>
        <time>2015-04-20T13:10:30Z</time>
      </trkpt>
      <trkpt lat="46.15162" lon="2.45521">
        <ele>470</ele>
        <time>2015-04-20T13:10:34Z</time>
      </trkpt>
      <trkpt lat="46.15161" lon="2.45523">
        <ele>471</ele>
        <time>2015-04-20T13:10:36Z</time>
      </trkpt>
      <trkpt lat="46.1516" lon="2.45525">
        <ele>471</ele>
        <time>2015-04-20T13:10:38Z</time>
      </trkpt>
      <trkpt lat="46.15159" lon="2.45527">
        <ele>471</ele>
        <time>2015-04-20T13:10:40Z</time>
      </trkpt>
      <trkpt lat="46.15158" lon="2.45529">
        <ele>471</ele>
        <time>2015-04-20T13:10:42Z</time>
      </trkpt>
      <trkpt lat="46.15156" lon="2.4553">
        <ele>471</ele>
        <time>2015-04-20T13:10:44Z</time>
      </trkpt>
      <trkpt lat="46.15154" lon="2.4553">
        <ele>471</ele>
        <time>2015-04-20T13:10:46Z</time>
      </trkpt>
      <trkpt lat="46.15153" lon="2.4553">
        <ele>471</ele>
        <time>2015-04-20T13:10:48Z</time>
      </trkpt>
      <trkpt lat="46.1515" lon="2.4553">
        <ele>472</ele>
        <time>2015-04-20T13:10:52Z</time>
      </trkpt>
      <trkpt lat="46.15148" lon="2.45531">
        <ele>472</ele>
        <time>2015-04-20T13:10:54Z</time>
      </trkpt>
      <trkpt lat="46.15145" lon="2.45532">
        <ele>473</ele>
        <time>2015-04-20T13:10:56Z</time>
      </trkpt>
      <trkpt lat="46.15144" lon="2.45532">
        <ele>474</ele>
        <time>2015-04-20T13:10:58Z</time>
      </trkpt>
      <trkpt lat="46.15142" lon="2.4553">
        <ele>474</ele>
        <time>2015-04-20T13:11:00Z</time>
      </trkpt>
      <trkpt lat="46.15139" lon="2.45527">
        <ele>475</ele>
        <time>2015-04-20T13:11:03Z</time>
      </trkpt>
      <trkpt lat="46.15136" lon="2.45527">
        <ele>476</ele>
        <time>2015-04-20T13:11:06Z</time>
      </trkpt>
      <trkpt lat="46.15132" lon="2.45525">
        <ele>476</ele>
        <time>2015-04-20T13:11:08Z</time>
      </trkpt>
      <trkpt lat="46.15129" lon="2.45524">
        <ele>477</ele>
        <time>2015-04-20T13:11:10Z</time>
      </trkpt>
      <trkpt lat="46.15126" lon="2.45524">
        <ele>477</ele>
        <time>2015-04-20T13:11:12Z</time>
      </trkpt>
      <trkpt lat="46.15125" lon="2.45525">
        <ele>477</ele>
        <time>2015-04-20T13:11:14Z</time>
      </trkpt>
      <trkpt lat="46.1512" lon="2.45524">
        <ele>477</ele>
        <time>2015-04-20T13:11:17Z</time>
      </trkpt>
      <trkpt lat="46.15117" lon="2.45524">
        <ele>477</ele>
        <time>2015-04-20T13:11:19Z</time>
      </trkpt>
      <trkpt lat="46.15115" lon="2.45523">
        <ele>477</ele>
        <time>2015-04-20T13:11:21Z</time>
      </trkpt>
      <trkpt lat="46.15112" lon="2.45522">
        <ele>477</ele>
        <time>2015-04-20T13:11:23Z</time>
      </trkpt>
      <trkpt lat="46.15111" lon="2.45522">
        <ele>477</ele>
        <time>2015-04-20T13:11:25Z</time>
      </trkpt>
      <trkpt lat="46.1511" lon="2.45521">
        <ele>477</ele>
        <time>2015-04-20T13:11:28Z</time>
      </trkpt>
      <trkpt lat="46.15108" lon="2.45517">
        <ele>477</ele>
        <time>2015-04-20T13:11:31Z</time>
      </trkpt>
      <trkpt lat="46.15105" lon="2.45517">
        <ele>477</ele>
        <time>2015-04-20T13:11:33Z</time>
      </trkpt>
      <trkpt lat="46.15102" lon="2.45517">
        <ele>477</ele>
        <time>2015-04-20T13:11:35Z</time>
      </trkpt>
      <trkpt lat="46.15099" lon="2.45516">
        <ele>477</ele>
        <time>2015-04-20T13:11:39Z</time>
      </trkpt>
      <trkpt lat="46.15097" lon="2.45516">
        <ele>478</ele>
        <time>2015-04-20T13:11:41Z</time>
      </trkpt>
      <trkpt lat="46.15093" lon="2.45517">
        <ele>478</ele>
        <time>2015-04-20T13:11:44Z</time>
      </trkpt>
      <trkpt lat="46.15091" lon="2.45518">
        <ele>478</ele>
        <time>2015-04-20T13:11:46Z</time>
      </trkpt>
      <trkpt lat="46.15088" lon="2.45518">
        <ele>478</ele>
        <time>2015-04-20T13:11:48Z</time>
      </trkpt>
      <trkpt lat="46.15085" lon="2.45519">
        <ele>478</ele>
        <time>2015-04-20T13:11:50Z</time>
      </trkpt>
      <trkpt lat="46.15081" lon="2.45519">
        <ele>478</ele>
        <time>2015-04-20T13:11:53Z</time>
      </trkpt>
      <trkpt lat="46.15078" lon="2.45521">
        <ele>478</ele>
        <time>2015-04-20T13:11:55Z</time>
      </trkpt>
      <trkpt lat="46.15076" lon="2.45522">
        <ele>478</ele>
        <time>2015-04-20T13:11:57Z</time>
      </trkpt>
      <trkpt lat="46.15074" lon="2.45522">
        <ele>478</ele>
        <time>2015-04-20T13:11:59Z</time>
      </trkpt>
      <trkpt lat="46.1507" lon="2.45522">
        <ele>478</ele>
        <time>2015-04-20T13:12:02Z</time>
      </trkpt>
      <trkpt lat="46.15067" lon="2.45523">
        <ele>479</ele>
        <time>2015-04-20T13:12:05Z</time>
      </trkpt>
      <trkpt lat="46.15065" lon="2.45525">
        <ele>479</ele>
        <time>2015-04-20T13:12:07Z</time>
      </trkpt>
      <trkpt lat="46.15062" lon="2.45526">
        <ele>479</ele>
        <time>2015-04-20T13:12:10Z</time>
      </trkpt>
      <trkpt lat="46.15058" lon="2.45527">
        <ele>479</ele>
        <time>2015-04-20T13:12:13Z</time>
      </trkpt>
      <trkpt lat="46.15056" lon="2.45528">
        <ele>479</ele>
        <time>2015-04-20T13:12:15Z</time>
      </trkpt>
      <trkpt lat="46.15054" lon="2.45528">
        <ele>479</ele>
        <time>2015-04-20T13:12:17Z</time>
      </trkpt>
      <trkpt lat="46.15051" lon="2.45528">
        <ele>479</ele>
        <time>2015-04-20T13:12:19Z</time>
      </trkpt>
      <trkpt lat="46.15049" lon="2.45528">
        <ele>479</ele>
        <time>2015-04-20T13:12:21Z</time>
      </trkpt>
      <trkpt lat="46.15045" lon="2.45528">
        <ele>479</ele>
        <time>2015-04-20T13:12:24Z</time>
      </trkpt>
      <trkpt lat="46.15042" lon="2.45529">
        <ele>479</ele>
        <time>2015-04-20T13:12:26Z</time>
      </trkpt>
      <trkpt lat="46.1504" lon="2.45529">
        <ele>479</ele>
        <time>2015-04-20T13:12:28Z</time>
      </trkpt>
      <trkpt lat="46.15037" lon="2.45528">
        <ele>479</ele>
        <time>2015-04-20T13:12:30Z</time>
      </trkpt>
      <trkpt lat="46.15035" lon="2.45528">
        <ele>479</ele>
        <time>2015-04-20T13:12:32Z</time>
      </trkpt>
      <trkpt lat="46.15033" lon="2.45528">
        <ele>478</ele>
        <time>2015-04-20T13:12:34Z</time>
      </trkpt>
      <trkpt lat="46.15029" lon="2.45527">
        <ele>478</ele>
        <time>2015-04-20T13:12:36Z</time>
      </trkpt>
      <trkpt lat="46.15026" lon="2.45527">
        <ele>478</ele>
        <time>2015-04-20T13:12:38Z</time>
      </trkpt>
      <trkpt lat="46.15024" lon="2.45527">
        <ele>478</ele>
        <time>2015-04-20T13:12:40Z</time>
      </trkpt>
      <trkpt lat="46.15022" lon="2.45526">
        <ele>477</ele>
        <time>2015-04-20T13:12:42Z</time>
      </trkpt>
      <trkpt lat="46.1502" lon="2.45526">
        <ele>477</ele>
        <time>2015-04-20T13:12:44Z</time>
      </trkpt>
      <trkpt lat="46.15017" lon="2.45525">
        <ele>477</ele>
        <time>2015-04-20T13:12:46Z</time>
      </trkpt>
      <trkpt lat="46.15013" lon="2.45522">
        <ele>477</ele>
        <time>2015-04-20T13:12:48Z</time>
      </trkpt>
      <trkpt lat="46.15009" lon="2.45521">
        <ele>477</ele>
        <time>2015-04-20T13:12:51Z</time>
      </trkpt>
      <trkpt lat="46.15006" lon="2.45521">
        <ele>477</ele>
        <time>2015-04-20T13:12:53Z</time>
      </trkpt>
      <trkpt lat="46.15001" lon="2.4552">
        <ele>477</ele>
        <time>2015-04-20T13:12:57Z</time>
      </trkpt>
      <trkpt lat="46.14997" lon="2.4552">
        <ele>477</ele>
        <time>2015-04-20T13:13:00Z</time>
      </trkpt>
      <trkpt lat="46.14995" lon="2.4552">
        <ele>477</ele>
        <time>2015-04-20T13:13:02Z</time>
      </trkpt>
      <trkpt lat="46.14993" lon="2.4552">
        <ele>477</ele>
        <time>2015-04-20T13:13:04Z</time>
      </trkpt>
      <trkpt lat="46.1499" lon="2.45518">
        <ele>477</ele>
        <time>2015-04-20T13:13:06Z</time>
      </trkpt>
      <trkpt lat="46.14988" lon="2.45517">
        <ele>477</ele>
        <time>2015-04-20T13:13:08Z</time>
      </trkpt>
      <trkpt lat="46.14985" lon="2.45517">
        <ele>477</ele>
        <time>2015-04-20T13:13:11Z</time>
      </trkpt>
      <trkpt lat="46.1498" lon="2.45516">
        <ele>477</ele>
        <time>2015-04-20T13:13:14Z</time>
      </trkpt>
      <trkpt lat="46.14977" lon="2.45516">
        <ele>477</ele>
        <time>2015-04-20T13:13:17Z</time>
      </trkpt>
      <trkpt lat="46.14975" lon="2.45516">
        <ele>477</ele>
        <time>2015-04-20T13:13:19Z</time>
      </trkpt>
      <trkpt lat="46.14971" lon="2.45515">
        <ele>477</ele>
        <time>2015-04-20T13:13:22Z</time>
      </trkpt>
      <trkpt lat="46.14969" lon="2.45513">
        <ele>477</ele>
        <time>2015-04-20T13:13:24Z</time>
      </trkpt>
      <trkpt lat="46.14967" lon="2.45512">
        <ele>477</ele>
        <time>2015-04-20T13:13:26Z</time>
      </trkpt>
      <trkpt lat="46.14966" lon="2.4551">
        <ele>477</ele>
        <time>2015-04-20T13:13:30Z</time>
      </trkpt>
      <trkpt lat="46.14965" lon="2.4551">
        <ele>477</ele>
        <time>2015-04-20T13:13:32Z</time>
      </trkpt>
      <trkpt lat="46.14963" lon="2.45509">
        <ele>477</ele>
        <time>2015-04-20T13:13:35Z</time>
      </trkpt>
      <trkpt lat="46.14961" lon="2.45511">
        <ele>477</ele>
        <time>2015-04-20T13:13:37Z</time>
      </trkpt>
      <trkpt lat="46.14951" lon="2.45517">
        <ele>477</ele>
        <time>2015-04-20T13:13:39Z</time>
      </trkpt>
      <trkpt lat="46.14948" lon="2.45516">
        <ele>477</ele>
        <time>2015-04-20T13:13:42Z</time>
      </trkpt>
      <trkpt lat="46.14945" lon="2.45516">
        <ele>477</ele>
        <time>2015-04-20T13:13:44Z</time>
      </trkpt>
      <trkpt lat="46.14942" lon="2.45516">
        <ele>477</ele>
        <time>2015-04-20T13:13:46Z</time>
      </trkpt>
      <trkpt lat="46.14939" lon="2.45516">
        <ele>477</ele>
        <time>2015-04-20T13:13:48Z</time>
      </trkpt>
      <trkpt lat="46.14935" lon="2.45516">
        <ele>477</ele>
        <time>2015-04-20T13:13:51Z</time>
      </trkpt>
      <trkpt lat="46.14931" lon="2.45515">
        <ele>477</ele>
        <time>2015-04-20T13:13:54Z</time>
      </trkpt>
      <trkpt lat="46.14928" lon="2.45515">
        <ele>477</ele>
        <time>2015-04-20T13:13:56Z</time>
      </trkpt>
      <trkpt lat="46.14923" lon="2.45517">
        <ele>477</ele>
        <time>2015-04-20T13:13:59Z</time>
      </trkpt>
      <trkpt lat="46.1492" lon="2.45517">
        <ele>477</ele>
        <time>2015-04-20T13:14:01Z</time>
      </trkpt>
      <trkpt lat="46.14918" lon="2.45516">
        <ele>477</ele>
        <time>2015-04-20T13:14:03Z</time>
      </trkpt>
      <trkpt lat="46.14915" lon="2.45516">
        <ele>476</ele>
        <time>2015-04-20T13:14:05Z</time>
      </trkpt>
      <trkpt lat="46.14912" lon="2.45516">
        <ele>476</ele>
        <time>2015-04-20T13:14:07Z</time>
      </trkpt>
      <trkpt lat="46.14908" lon="2.45517">
        <ele>476</ele>
        <time>2015-04-20T13:14:10Z</time>
      </trkpt>
      <trkpt lat="46.14904" lon="2.45518">
        <ele>475</ele>
        <time>2015-04-20T13:14:13Z</time>
      </trkpt>
      <trkpt lat="46.14902" lon="2.45518">
        <ele>475</ele>
        <time>2015-04-20T13:14:15Z</time>
      </trkpt>
      <trkpt lat="46.149" lon="2.45518">
        <ele>475</ele>
        <time>2015-04-20T13:14:17Z</time>
      </trkpt>
      <trkpt lat="46.14898" lon="2.45519">
        <ele>475</ele>
        <time>2015-04-20T13:14:19Z</time>
      </trkpt>
      <trkpt lat="46.14894" lon="2.45518">
        <ele>475</ele>
        <time>2015-04-20T13:14:22Z</time>
      </trkpt>
      <trkpt lat="46.14892" lon="2.45518">
        <ele>475</ele>
        <time>2015-04-20T13:14:24Z</time>
      </trkpt>
      <trkpt lat="46.14888" lon="2.45519">
        <ele>475</ele>
        <time>2015-04-20T13:14:27Z</time>
      </trkpt>
      <trkpt lat="46.14886" lon="2.45519">
        <ele>475</ele>
        <time>2015-04-20T13:14:29Z</time>
      </trkpt>
      <trkpt lat="46.14883" lon="2.45519">
        <ele>475</ele>
        <time>2015-04-20T13:14:31Z</time>
      </trkpt>
      <trkpt lat="46.1488" lon="2.45519">
        <ele>475</ele>
        <time>2015-04-20T13:14:34Z</time>
      </trkpt>
      <trkpt lat="46.14877" lon="2.45519">
        <ele>475</ele>
        <time>2015-04-20T13:14:36Z</time>
      </trkpt>
      <trkpt lat="46.14874" lon="2.45519">
        <ele>475</ele>
        <time>2015-04-20T13:14:38Z</time>
      </trkpt>
      <trkpt lat="46.1487" lon="2.4552">
        <ele>475</ele>
        <time>2015-04-20T13:14:41Z</time>
      </trkpt>
      <trkpt lat="46.14868" lon="2.4552">
        <ele>475</ele>
        <time>2015-04-20T13:14:43Z</time>
      </trkpt>
      <trkpt lat="46.14865" lon="2.4552">
        <ele>475</ele>
        <time>2015-04-20T13:14:45Z</time>
      </trkpt>
      <trkpt lat="46.1486" lon="2.45519">
        <ele>475</ele>
        <time>2015-04-20T13:14:48Z</time>
      </trkpt>
      <trkpt lat="46.14858" lon="2.45519">
        <ele>475</ele>
        <time>2015-04-20T13:14:50Z</time>
      </trkpt>
      <trkpt lat="46.14854" lon="2.45519">
        <ele>475</ele>
        <time>2015-04-20T13:14:53Z</time>
      </trkpt>
      <trkpt lat="46.14851" lon="2.45518">
        <ele>475</ele>
        <time>2015-04-20T13:14:55Z</time>
      </trkpt>
      <trkpt lat="46.14848" lon="2.45518">
        <ele>475</ele>
        <time>2015-04-20T13:14:57Z</time>
      </trkpt>
      <trkpt lat="46.14845" lon="2.45518">
        <ele>475</ele>
        <time>2015-04-20T13:14:59Z</time>
      </trkpt>
      <trkpt lat="46.14843" lon="2.45519">
        <ele>475</ele>
        <time>2015-04-20T13:15:01Z</time>
      </trkpt>
      <trkpt lat="46.1484" lon="2.45519">
        <ele>475</ele>
        <time>2015-04-20T13:15:03Z</time>
      </trkpt>
      <trkpt lat="46.14836" lon="2.45518">
        <ele>475</ele>
        <time>2015-04-20T13:15:06Z</time>
      </trkpt>
      <trkpt lat="46.14833" lon="2.45518">
        <ele>475</ele>
        <time>2015-04-20T13:15:08Z</time>
      </trkpt>
      <trkpt lat="46.1483" lon="2.45518">
        <ele>475</ele>
        <time>2015-04-20T13:15:10Z</time>
      </trkpt>
      <trkpt lat="46.14827" lon="2.45518">
        <ele>475</ele>
        <time>2015-04-20T13:15:12Z</time>
      </trkpt>
      <trkpt lat="46.14824" lon="2.45518">
        <ele>475</ele>
        <time>2015-04-20T13:15:14Z</time>
      </trkpt>
      <trkpt lat="46.14821" lon="2.45518">
        <ele>475</ele>
        <time>2015-04-20T13:15:16Z</time>
      </trkpt>
      <trkpt lat="46.14818" lon="2.45518">
        <ele>475</ele>
        <time>2015-04-20T13:15:18Z</time>
      </trkpt>
      <trkpt lat="46.14815" lon="2.45517">
        <ele>475</ele>
        <time>2015-04-20T13:15:20Z</time>
      </trkpt>
      <trkpt lat="46.14813" lon="2.45517">
        <ele>474</ele>
        <time>2015-04-20T13:15:22Z</time>
      </trkpt>
      <trkpt lat="46.1481" lon="2.45517">
        <ele>474</ele>
        <time>2015-04-20T13:15:24Z</time>
      </trkpt>
      <trkpt lat="46.14807" lon="2.45517">
        <ele>474</ele>
        <time>2015-04-20T13:15:26Z</time>
      </trkpt>
      <trkpt lat="46.14803" lon="2.45517">
        <ele>473</ele>
        <time>2015-04-20T13:15:29Z</time>
      </trkpt>
      <trkpt lat="46.14799" lon="2.45516">
        <ele>473</ele>
        <time>2015-04-20T13:15:31Z</time>
      </trkpt>
      <trkpt lat="46.14795" lon="2.45516">
        <ele>473</ele>
        <time>2015-04-20T13:15:34Z</time>
      </trkpt>
      <trkpt lat="46.14792" lon="2.45517">
        <ele>472</ele>
        <time>2015-04-20T13:15:36Z</time>
      </trkpt>
      <trkpt lat="46.14788" lon="2.45517">
        <ele>471</ele>
        <time>2015-04-20T13:15:39Z</time>
      </trkpt>
      <trkpt lat="46.14786" lon="2.45517">
        <ele>471</ele>
        <time>2015-04-20T13:15:41Z</time>
      </trkpt>
      <trkpt lat="46.14782" lon="2.45518">
        <ele>470</ele>
        <time>2015-04-20T13:15:44Z</time>
      </trkpt>
      <trkpt lat="46.14779" lon="2.4552">
        <ele>469</ele>
        <time>2015-04-20T13:15:47Z</time>
      </trkpt>
      <trkpt lat="46.14775" lon="2.45521">
        <ele>468</ele>
        <time>2015-04-20T13:15:50Z</time>
      </trkpt>
      <trkpt lat="46.14772" lon="2.45522">
        <ele>468</ele>
        <time>2015-04-20T13:15:53Z</time>
      </trkpt>
      <trkpt lat="46.14769" lon="2.45523">
        <ele>468</ele>
        <time>2015-04-20T13:15:55Z</time>
      </trkpt>
      <trkpt lat="46.14766" lon="2.45523">
        <ele>468</ele>
        <time>2015-04-20T13:15:57Z</time>
      </trkpt>
      <trkpt lat="46.14763" lon="2.45524">
        <ele>468</ele>
        <time>2015-04-20T13:16:00Z</time>
      </trkpt>
      <trkpt lat="46.1476" lon="2.45525">
        <ele>468</ele>
        <time>2015-04-20T13:16:02Z</time>
      </trkpt>
      <trkpt lat="46.14757" lon="2.45526">
        <ele>468</ele>
        <time>2015-04-20T13:16:04Z</time>
      </trkpt>
      <trkpt lat="46.14754" lon="2.45526">
        <ele>468</ele>
        <time>2015-04-20T13:16:06Z</time>
      </trkpt>
      <trkpt lat="46.14751" lon="2.45528">
        <ele>468</ele>
        <time>2015-04-20T13:16:08Z</time>
      </trkpt>
      <trkpt lat="46.14748" lon="2.45529">
        <ele>468</ele>
        <time>2015-04-20T13:16:10Z</time>
      </trkpt>
      <trkpt lat="46.14746" lon="2.4553">
        <ele>468</ele>
        <time>2015-04-20T13:16:12Z</time>
      </trkpt>
      <trkpt lat="46.14743" lon="2.45531">
        <ele>468</ele>
        <time>2015-04-20T13:16:14Z</time>
      </trkpt>
      <trkpt lat="46.14739" lon="2.45532">
        <ele>467</ele>
        <time>2015-04-20T13:16:17Z</time>
      </trkpt>
      <trkpt lat="46.14736" lon="2.45532">
        <ele>467</ele>
        <time>2015-04-20T13:16:19Z</time>
      </trkpt>
      <trkpt lat="46.14734" lon="2.45534">
        <ele>467</ele>
        <time>2015-04-20T13:16:21Z</time>
      </trkpt>
      <trkpt lat="46.14731" lon="2.45534">
        <ele>467</ele>
        <time>2015-04-20T13:16:23Z</time>
      </trkpt>
      <trkpt lat="46.14728" lon="2.45535">
        <ele>467</ele>
        <time>2015-04-20T13:16:25Z</time>
      </trkpt>
      <trkpt lat="46.14726" lon="2.45536">
        <ele>467</ele>
        <time>2015-04-20T13:16:27Z</time>
      </trkpt>
      <trkpt lat="46.14724" lon="2.45536">
        <ele>467</ele>
        <time>2015-04-20T13:16:29Z</time>
      </trkpt>
      <trkpt lat="46.1472" lon="2.45537">
        <ele>467</ele>
        <time>2015-04-20T13:16:32Z</time>
      </trkpt>
      <trkpt lat="46.14717" lon="2.45538">
        <ele>467</ele>
        <time>2015-04-20T13:16:34Z</time>
      </trkpt>
      <trkpt lat="46.14714" lon="2.45538">
        <ele>467</ele>
        <time>2015-04-20T13:16:36Z</time>
      </trkpt>
      <trkpt lat="46.14711" lon="2.45538">
        <ele>467</ele>
        <time>2015-04-20T13:16:38Z</time>
      </trkpt>
      <trkpt lat="46.14708" lon="2.45538">
        <ele>467</ele>
        <time>2015-04-20T13:16:40Z</time>
      </trkpt>
      <trkpt lat="46.14705" lon="2.45539">
        <ele>467</ele>
        <time>2015-04-20T13:16:42Z</time>
      </trkpt>
      <trkpt lat="46.14702" lon="2.45539">
        <ele>467</ele>
        <time>2015-04-20T13:16:44Z</time>
      </trkpt>
      <trkpt lat="46.14699" lon="2.45539">
        <ele>467</ele>
        <time>2015-04-20T13:16:46Z</time>
      </trkpt>
      <trkpt lat="46.14697" lon="2.4554">
        <ele>467</ele>
        <time>2015-04-20T13:16:48Z</time>
      </trkpt>
      <trkpt lat="46.14694" lon="2.4554">
        <ele>467</ele>
        <time>2015-04-20T13:16:50Z</time>
      </trkpt>
      <trkpt lat="46.14691" lon="2.45541">
        <ele>467</ele>
        <time>2015-04-20T13:16:52Z</time>
      </trkpt>
      <trkpt lat="46.14689" lon="2.45541">
        <ele>467</ele>
        <time>2015-04-20T13:16:54Z</time>
      </trkpt>
      <trkpt lat="46.14686" lon="2.45541">
        <ele>467</ele>
        <time>2015-04-20T13:16:56Z</time>
      </trkpt>
      <trkpt lat="46.14683" lon="2.45542">
        <ele>467</ele>
        <time>2015-04-20T13:16:58Z</time>
      </trkpt>
      <trkpt lat="46.14681" lon="2.45542">
        <ele>467</ele>
        <time>2015-04-20T13:17:00Z</time>
      </trkpt>
      <trkpt lat="46.14678" lon="2.45542">
        <ele>467</ele>
        <time>2015-04-20T13:17:02Z</time>
      </trkpt>
      <trkpt lat="46.14676" lon="2.45543">
        <ele>467</ele>
        <time>2015-04-20T13:17:04Z</time>
      </trkpt>
      <trkpt lat="46.14673" lon="2.45543">
        <ele>467</ele>
        <time>2015-04-20T13:17:06Z</time>
      </trkpt>
      <trkpt lat="46.1467" lon="2.45544">
        <ele>467</ele>
        <time>2015-04-20T13:17:08Z</time>
      </trkpt>
      <trkpt lat="46.14668" lon="2.45544">
        <ele>467</ele>
        <time>2015-04-20T13:17:10Z</time>
      </trkpt>
      <trkpt lat="46.14665" lon="2.45544">
        <ele>467</ele>
        <time>2015-04-20T13:17:12Z</time>
      </trkpt>
      <trkpt lat="46.14663" lon="2.45545">
        <ele>467</ele>
        <time>2015-04-20T13:17:14Z</time>
      </trkpt>
      <trkpt lat="46.1466" lon="2.45544">
        <ele>467</ele>
        <time>2015-04-20T13:17:16Z</time>
      </trkpt>
      <trkpt lat="46.14658" lon="2.45545">
        <ele>467</ele>
        <time>2015-04-20T13:17:18Z</time>
      </trkpt>
      <trkpt lat="46.14655" lon="2.45545">
        <ele>467</ele>
        <time>2015-04-20T13:17:21Z</time>
      </trkpt>
      <trkpt lat="46.14652" lon="2.45546">
        <ele>467</ele>
        <time>2015-04-20T13:17:23Z</time>
      </trkpt>
      <trkpt lat="46.14649" lon="2.45546">
        <ele>467</ele>
        <time>2015-04-20T13:17:25Z</time>
      </trkpt>
      <trkpt lat="46.14647" lon="2.45546">
        <ele>467</ele>
        <time>2015-04-20T13:17:27Z</time>
      </trkpt>
      <trkpt lat="46.14644" lon="2.45547">
        <ele>467</ele>
        <time>2015-04-20T13:17:29Z</time>
      </trkpt>
      <trkpt lat="46.14642" lon="2.45547">
        <ele>467</ele>
        <time>2015-04-20T13:17:31Z</time>
      </trkpt>
      <trkpt lat="46.14639" lon="2.45548">
        <ele>467</ele>
        <time>2015-04-20T13:17:33Z</time>
      </trkpt>
      <trkpt lat="46.14635" lon="2.45548">
        <ele>467</ele>
        <time>2015-04-20T13:17:35Z</time>
      </trkpt>
      <trkpt lat="46.14633" lon="2.45548">
        <ele>467</ele>
        <time>2015-04-20T13:17:37Z</time>
      </trkpt>
      <trkpt lat="46.1463" lon="2.45549">
        <ele>467</ele>
        <time>2015-04-20T13:17:39Z</time>
      </trkpt>
      <trkpt lat="46.14628" lon="2.45549">
        <ele>467</ele>
        <time>2015-04-20T13:17:41Z</time>
      </trkpt>
      <trkpt lat="46.14625" lon="2.45549">
        <ele>467</ele>
        <time>2015-04-20T13:17:43Z</time>
      </trkpt>
      <trkpt lat="46.14623" lon="2.4555">
        <ele>467</ele>
        <time>2015-04-20T13:17:45Z</time>
      </trkpt>
      <trkpt lat="46.1462" lon="2.4555">
        <ele>467</ele>
        <time>2015-04-20T13:17:47Z</time>
      </trkpt>
      <trkpt lat="46.14618" lon="2.4555">
        <ele>467</ele>
        <time>2015-04-20T13:17:49Z</time>
      </trkpt>
      <trkpt lat="46.14615" lon="2.4555">
        <ele>467</ele>
        <time>2015-04-20T13:17:51Z</time>
      </trkpt>
      <trkpt lat="46.14612" lon="2.4555">
        <ele>467</ele>
        <time>2015-04-20T13:17:53Z</time>
      </trkpt>
      <trkpt lat="46.14609" lon="2.45551">
        <ele>467</ele>
        <time>2015-04-20T13:17:55Z</time>
      </trkpt>
      <trkpt lat="46.14606" lon="2.45551">
        <ele>467</ele>
        <time>2015-04-20T13:17:57Z</time>
      </trkpt>
      <trkpt lat="46.14603" lon="2.45552">
        <ele>467</ele>
        <time>2015-04-20T13:17:59Z</time>
      </trkpt>
      <trkpt lat="46.146" lon="2.45553">
        <ele>467</ele>
        <time>2015-04-20T13:18:01Z</time>
      </trkpt>
      <trkpt lat="46.14597" lon="2.45554">
        <ele>467</ele>
        <time>2015-04-20T13:18:03Z</time>
      </trkpt>
      <trkpt lat="46.14593" lon="2.45554">
        <ele>467</ele>
        <time>2015-04-20T13:18:06Z</time>
      </trkpt>
      <trkpt lat="46.14589" lon="2.45556">
        <ele>467</ele>
        <time>2015-04-20T13:18:09Z</time>
      </trkpt>
      <trkpt lat="46.14586" lon="2.45557">
        <ele>467</ele>
        <time>2015-04-20T13:18:11Z</time>
      </trkpt>
      <trkpt lat="46.14582" lon="2.45558">
        <ele>467</ele>
        <time>2015-04-20T13:18:14Z</time>
      </trkpt>
      <trkpt lat="46.14578" lon="2.4556">
        <ele>467</ele>
        <time>2015-04-20T13:18:17Z</time>
      </trkpt>
      <trkpt lat="46.14574" lon="2.45562">
        <ele>467</ele>
        <time>2015-04-20T13:18:20Z</time>
      </trkpt>
      <trkpt lat="46.14571" lon="2.45563">
        <ele>467</ele>
        <time>2015-04-20T13:18:22Z</time>
      </trkpt>
      <trkpt lat="46.14568" lon="2.45564">
        <ele>467</ele>
        <time>2015-04-20T13:18:24Z</time>
      </trkpt>
      <trkpt lat="46.14566" lon="2.45565">
        <ele>467</ele>
        <time>2015-04-20T13:18:26Z</time>
      </trkpt>
      <trkpt lat="46.14563" lon="2.45566">
        <ele>467</ele>
        <time>2015-04-20T13:18:28Z</time>
      </trkpt>
      <trkpt lat="46.1456" lon="2.45567">
        <ele>467</ele>
        <time>2015-04-20T13:18:30Z</time>
      </trkpt>
      <trkpt lat="46.14557" lon="2.45568">
        <ele>467</ele>
        <time>2015-04-20T13:18:32Z</time>
      </trkpt>
      <trkpt lat="46.14555" lon="2.45569">
        <ele>467</ele>
        <time>2015-04-20T13:18:34Z</time>
      </trkpt>
      <trkpt lat="46.14552" lon="2.4557">
        <ele>467</ele>
        <time>2015-04-20T13:18:36Z</time>
      </trkpt>
      <trkpt lat="46.14549" lon="2.4557">
        <ele>467</ele>
        <time>2015-04-20T13:18:38Z</time>
      </trkpt>
      <trkpt lat="46.14547" lon="2.4557">
        <ele>467</ele>
        <time>2015-04-20T13:18:40Z</time>
      </trkpt>
      <trkpt lat="46.14544" lon="2.45571">
        <ele>467</ele>
        <time>2015-04-20T13:18:42Z</time>
      </trkpt>
      <trkpt lat="46.14541" lon="2.45572">
        <ele>467</ele>
        <time>2015-04-20T13:18:44Z</time>
      </trkpt>
      <trkpt lat="46.14537" lon="2.45573">
        <ele>467</ele>
        <time>2015-04-20T13:18:47Z</time>
      </trkpt>
      <trkpt lat="46.14534" lon="2.45574">
        <ele>467</ele>
        <time>2015-04-20T13:18:49Z</time>
      </trkpt>
      <trkpt lat="46.14532" lon="2.45575">
        <ele>467</ele>
        <time>2015-04-20T13:18:51Z</time>
      </trkpt>
      <trkpt lat="46.14529" lon="2.45576">
        <ele>467</ele>
        <time>2015-04-20T13:18:53Z</time>
      </trkpt>
      <trkpt lat="46.14526" lon="2.45577">
        <ele>467</ele>
        <time>2015-04-20T13:18:55Z</time>
      </trkpt>
      <trkpt lat="46.14524" lon="2.45578">
        <ele>467</ele>
        <time>2015-04-20T13:18:57Z</time>
      </trkpt>
      <trkpt lat="46.14521" lon="2.45579">
        <ele>467</ele>
        <time>2015-04-20T13:18:59Z</time>
      </trkpt>
      <trkpt lat="46.14518" lon="2.45581">
        <ele>467</ele>
        <time>2015-04-20T13:19:01Z</time>
      </trkpt>
      <trkpt lat="46.14515" lon="2.45582">
        <ele>467</ele>
        <time>2015-04-20T13:19:03Z</time>
      </trkpt>
      <trkpt lat="46.14512" lon="2.45583">
        <ele>467</ele>
        <time>2015-04-20T13:19:05Z</time>
      </trkpt>
      <trkpt lat="46.14509" lon="2.45584">
        <ele>467</ele>
        <time>2015-04-20T13:19:07Z</time>
      </trkpt>
      <trkpt lat="46.14507" lon="2.45585">
        <ele>467</ele>
        <time>2015-04-20T13:19:09Z</time>
      </trkpt>
      <trkpt lat="46.14504" lon="2.45585">
        <ele>467</ele>
        <time>2015-04-20T13:19:11Z</time>
      </trkpt>
      <trkpt lat="46.14501" lon="2.45586">
        <ele>467</ele>
        <time>2015-04-20T13:19:13Z</time>
      </trkpt>
      <trkpt lat="46.14497" lon="2.45587">
        <ele>467</ele>
        <time>2015-04-20T13:19:16Z</time>
      </trkpt>
      <trkpt lat="46.14492" lon="2.45588">
        <ele>467</ele>
        <time>2015-04-20T13:19:19Z</time>
      </trkpt>
      <trkpt lat="46.14489" lon="2.45589">
        <ele>467</ele>
        <time>2015-04-20T13:19:21Z</time>
      </trkpt>
      <trkpt lat="46.14487" lon="2.4559">
        <ele>467</ele>
        <time>2015-04-20T13:19:23Z</time>
      </trkpt>
      <trkpt lat="46.14484" lon="2.4559">
        <ele>467</ele>
        <time>2015-04-20T13:19:25Z</time>
      </trkpt>
      <trkpt lat="46.14481" lon="2.45591">
        <ele>467</ele>
        <time>2015-04-20T13:19:27Z</time>
      </trkpt>
      <trkpt lat="46.14479" lon="2.45592">
        <ele>467</ele>
        <time>2015-04-20T13:19:29Z</time>
      </trkpt>
      <trkpt lat="46.14476" lon="2.45591">
        <ele>467</ele>
        <time>2015-04-20T13:19:31Z</time>
      </trkpt>
      <trkpt lat="46.14473" lon="2.45588">
        <ele>467</ele>
        <time>2015-04-20T13:19:34Z</time>
      </trkpt>
      <trkpt lat="46.14471" lon="2.45585">
        <ele>467</ele>
        <time>2015-04-20T13:19:36Z</time>
      </trkpt>
      <trkpt lat="46.1447" lon="2.45581">
        <ele>467</ele>
        <time>2015-04-20T13:19:38Z</time>
      </trkpt>
      <trkpt lat="46.1447" lon="2.45577">
        <ele>467</ele>
        <time>2015-04-20T13:19:40Z</time>
      </trkpt>
      <trkpt lat="46.1447" lon="2.45573">
        <ele>467</ele>
        <time>2015-04-20T13:19:42Z</time>
      </trkpt>
      <trkpt lat="46.1447" lon="2.45569">
        <ele>467</ele>
        <time>2015-04-20T13:19:44Z</time>
      </trkpt>
      <trkpt lat="46.14469" lon="2.45565">
        <ele>467</ele>
        <time>2015-04-20T13:19:46Z</time>
      </trkpt>
      <trkpt lat="46.14468" lon="2.45561">
        <ele>467</ele>
        <time>2015-04-20T13:19:48Z</time>
      </trkpt>
      <trkpt lat="46.14467" lon="2.45557">
        <ele>467</ele>
        <time>2015-04-20T13:19:50Z</time>
      </trkpt>
      <trkpt lat="46.14467" lon="2.45553">
        <ele>467</ele>
        <time>2015-04-20T13:19:52Z</time>
      </trkpt>
      <trkpt lat="46.14466" lon="2.45549">
        <ele>467</ele>
        <time>2015-04-20T13:19:54Z</time>
      </trkpt>
      <trkpt lat="46.14465" lon="2.45545">
        <ele>467</ele>
        <time>2015-04-20T13:19:56Z</time>
      </trkpt>
      <trkpt lat="46.14464" lon="2.45541">
        <ele>467</ele>
        <time>2015-04-20T13:19:58Z</time>
      </trkpt>
      <trkpt lat="46.14463" lon="2.45537">
        <ele>467</ele>
        <time>2015-04-20T13:20:00Z</time>
      </trkpt>
      <trkpt lat="46.14463" lon="2.45534">
        <ele>467</ele>
        <time>2015-04-20T13:20:02Z</time>
      </trkpt>
      <trkpt lat="46.14462" lon="2.4553">
        <ele>467</ele>
        <time>2015-04-20T13:20:04Z</time>
      </trkpt>
      <trkpt lat="46.14462" lon="2.45526">
        <ele>467</ele>
        <time>2015-04-20T13:20:06Z</time>
      </trkpt>
      <trkpt lat="46.14461" lon="2.45522">
        <ele>467</ele>
        <time>2015-04-20T13:20:08Z</time>
      </trkpt>
      <trkpt lat="46.1446" lon="2.45517">
        <ele>467</ele>
        <time>2015-04-20T13:20:11Z</time>
      </trkpt>
      <trkpt lat="46.14459" lon="2.45513">
        <ele>467</ele>
        <time>2015-04-20T13:20:13Z</time>
      </trkpt>
      <trkpt lat="46.14458" lon="2.4551">
        <ele>467</ele>
        <time>2015-04-20T13:20:15Z</time>
      </trkpt>
      <trkpt lat="46.14457" lon="2.45506">
        <ele>467</ele>
        <time>2015-04-20T13:20:17Z</time>
      </trkpt>
      <trkpt lat="46.14457" lon="2.45502">
        <ele>467</ele>
        <time>2015-04-20T13:20:19Z</time>
      </trkpt>
      <trkpt lat="46.14456" lon="2.45498">
        <ele>467</ele>
        <time>2015-04-20T13:20:21Z</time>
      </trkpt>
      <trkpt lat="46.14455" lon="2.45495">
        <ele>467</ele>
        <time>2015-04-20T13:20:23Z</time>
      </trkpt>
      <trkpt lat="46.14454" lon="2.45491">
        <ele>467</ele>
        <time>2015-04-20T13:20:25Z</time>
      </trkpt>
      <trkpt lat="46.14453" lon="2.45487">
        <ele>467</ele>
        <time>2015-04-20T13:20:27Z</time>
      </trkpt>
      <trkpt lat="46.14452" lon="2.45484">
        <ele>467</ele>
        <time>2015-04-20T13:20:29Z</time>
      </trkpt>
      <trkpt lat="46.14452" lon="2.4548">
        <ele>467</ele>
        <time>2015-04-20T13:20:31Z</time>
      </trkpt>
      <trkpt lat="46.14451" lon="2.45476">
        <ele>467</ele>
        <time>2015-04-20T13:20:33Z</time>
      </trkpt>
      <trkpt lat="46.1445" lon="2.45473">
        <ele>467</ele>
        <time>2015-04-20T13:20:35Z</time>
      </trkpt>
      <trkpt lat="46.14449" lon="2.45469">
        <ele>467</ele>
        <time>2015-04-20T13:20:37Z</time>
      </trkpt>
      <trkpt lat="46.14447" lon="2.45465">
        <ele>467</ele>
        <time>2015-04-20T13:20:39Z</time>
      </trkpt>
      <trkpt lat="46.14446" lon="2.45462">
        <ele>467</ele>
        <time>2015-04-20T13:20:41Z</time>
      </trkpt>
      <trkpt lat="46.14444" lon="2.45458">
        <ele>467</ele>
        <time>2015-04-20T13:20:43Z</time>
      </trkpt>
      <trkpt lat="46.14442" lon="2.45455">
        <ele>467</ele>
        <time>2015-04-20T13:20:45Z</time>
      </trkpt>
      <trkpt lat="46.14441" lon="2.45451">
        <ele>467</ele>
        <time>2015-04-20T13:20:47Z</time>
      </trkpt>
      <trkpt lat="46.14438" lon="2.45447">
        <ele>467</ele>
        <time>2015-04-20T13:20:50Z</time>
      </trkpt>
      <trkpt lat="46.14436" lon="2.45444">
        <ele>467</ele>
        <time>2015-04-20T13:20:52Z</time>
      </trkpt>
      <trkpt lat="46.14434" lon="2.45441">
        <ele>467</ele>
        <time>2015-04-20T13:20:54Z</time>
      </trkpt>
      <trkpt lat="46.14431" lon="2.45437">
        <ele>467</ele>
        <time>2015-04-20T13:20:57Z</time>
      </trkpt>
      <trkpt lat="46.14431" lon="2.45433">
        <ele>467</ele>
        <time>2015-04-20T13:20:59Z</time>
      </trkpt>
      <trkpt lat="46.14433" lon="2.4543">
        <ele>467</ele>
        <time>2015-04-20T13:21:02Z</time>
      </trkpt>
      <trkpt lat="46.14436" lon="2.45429">
        <ele>467</ele>
        <time>2015-04-20T13:21:04Z</time>
      </trkpt>
      <trkpt lat="46.14438" lon="2.45428">
        <ele>467</ele>
        <time>2015-04-20T13:21:06Z</time>
      </trkpt>
      <trkpt lat="46.14441" lon="2.45427">
        <ele>467</ele>
        <time>2015-04-20T13:21:08Z</time>
      </trkpt>
      <trkpt lat="46.14444" lon="2.45427">
        <ele>467</ele>
        <time>2015-04-20T13:21:10Z</time>
      </trkpt>
      <trkpt lat="46.14447" lon="2.45426">
        <ele>467</ele>
        <time>2015-04-20T13:21:12Z</time>
      </trkpt>
      <trkpt lat="46.14451" lon="2.45425">
        <ele>467</ele>
        <time>2015-04-20T13:21:14Z</time>
      </trkpt>
      <trkpt lat="46.14455" lon="2.45423">
        <ele>467</ele>
        <time>2015-04-20T13:21:17Z</time>
      </trkpt>
      <trkpt lat="46.14458" lon="2.45423">
        <ele>467</ele>
        <time>2015-04-20T13:21:19Z</time>
      </trkpt>
      <trkpt lat="46.14461" lon="2.45422">
        <ele>467</ele>
        <time>2015-04-20T13:21:21Z</time>
      </trkpt>
      <trkpt lat="46.14464" lon="2.45422">
        <ele>467</ele>
        <time>2015-04-20T13:21:23Z</time>
      </trkpt>
      <trkpt lat="46.14467" lon="2.45421">
        <ele>467</ele>
        <time>2015-04-20T13:21:25Z</time>
      </trkpt>
      <trkpt lat="46.1447" lon="2.45421">
        <ele>467</ele>
        <time>2015-04-20T13:21:27Z</time>
      </trkpt>
      <trkpt lat="46.14472" lon="2.4542">
        <ele>467</ele>
        <time>2015-04-20T13:21:29Z</time>
      </trkpt>
      <trkpt lat="46.14475" lon="2.4542">
        <ele>467</ele>
        <time>2015-04-20T13:21:31Z</time>
      </trkpt>
      <trkpt lat="46.14478" lon="2.45419">
        <ele>467</ele>
        <time>2015-04-20T13:21:33Z</time>
      </trkpt>
      <trkpt lat="46.14481" lon="2.45419">
        <ele>467</ele>
        <time>2015-04-20T13:21:35Z</time>
      </trkpt>
      <trkpt lat="46.14485" lon="2.45418">
        <ele>467</ele>
        <time>2015-04-20T13:21:38Z</time>
      </trkpt>
      <trkpt lat="46.14488" lon="2.45417">
        <ele>467</ele>
        <time>2015-04-20T13:21:40Z</time>
      </trkpt>
      <trkpt lat="46.14491" lon="2.45416">
        <ele>467</ele>
        <time>2015-04-20T13:21:42Z</time>
      </trkpt>
      <trkpt lat="46.14494" lon="2.45415">
        <ele>467</ele>
        <time>2015-04-20T13:21:44Z</time>
      </trkpt>
      <trkpt lat="46.14497" lon="2.45414">
        <ele>467</ele>
        <time>2015-04-20T13:21:46Z</time>
      </trkpt>
      <trkpt lat="46.145" lon="2.45412">
        <ele>467</ele>
        <time>2015-04-20T13:21:48Z</time>
      </trkpt>
      <trkpt lat="46.14502" lon="2.4541">
        <ele>467</ele>
        <time>2015-04-20T13:21:50Z</time>
      </trkpt>
      <trkpt lat="46.14504" lon="2.45408">
        <ele>467</ele>
        <time>2015-04-20T13:21:52Z</time>
      </trkpt>
      <trkpt lat="46.14508" lon="2.45405">
        <ele>467</ele>
        <time>2015-04-20T13:21:55Z</time>
      </trkpt>
      <trkpt lat="46.1451" lon="2.45402">
        <ele>467</ele>
        <time>2015-04-20T13:21:57Z</time>
      </trkpt>
      <trkpt lat="46.14513" lon="2.454">
        <ele>467</ele>
        <time>2015-04-20T13:21:59Z</time>
      </trkpt>
      <trkpt lat="46.14517" lon="2.45395">
        <ele>467</ele>
        <time>2015-04-20T13:22:03Z</time>
      </trkpt>
      <trkpt lat="46.14519" lon="2.45392">
        <ele>467</ele>
        <time>2015-04-20T13:22:05Z</time>
      </trkpt>
      <trkpt lat="46.14522" lon="2.45386">
        <ele>467</ele>
        <time>2015-04-20T13:22:09Z</time>
      </trkpt>
      <trkpt lat="46.14524" lon="2.45383">
        <ele>467</ele>
        <time>2015-04-20T13:22:11Z</time>
      </trkpt>
      <trkpt lat="46.14527" lon="2.45378">
        <ele>467</ele>
        <time>2015-04-20T13:22:14Z</time>
      </trkpt>
      <trkpt lat="46.14529" lon="2.45375">
        <ele>467</ele>
        <time>2015-04-20T13:22:16Z</time>
      </trkpt>
      <trkpt lat="46.14532" lon="2.4537">
        <ele>467</ele>
        <time>2015-04-20T13:22:19Z</time>
      </trkpt>
      <trkpt lat="46.14535" lon="2.45367">
        <ele>467</ele>
        <time>2015-04-20T13:22:21Z</time>
      </trkpt>
      <trkpt lat="46.14538" lon="2.45364">
        <ele>467</ele>
        <time>2015-04-20T13:22:24Z</time>
      </trkpt>
      <trkpt lat="46.1454" lon="2.45361">
        <ele>467</ele>
        <time>2015-04-20T13:22:26Z</time>
      </trkpt>
      <trkpt lat="46.14542" lon="2.45359">
        <ele>467</ele>
        <time>2015-04-20T13:22:28Z</time>
      </trkpt>
      <trkpt lat="46.14544" lon="2.45356">
        <ele>467</ele>
        <time>2015-04-20T13:22:30Z</time>
      </trkpt>
      <trkpt lat="46.14548" lon="2.45354">
        <ele>467</ele>
        <time>2015-04-20T13:22:33Z</time>
      </trkpt>
      <trkpt lat="46.1455" lon="2.45351">
        <ele>467</ele>
        <time>2015-04-20T13:22:35Z</time>
      </trkpt>
      <trkpt lat="46.14552" lon="2.45349">
        <ele>467</ele>
        <time>2015-04-20T13:22:37Z</time>
      </trkpt>
      <trkpt lat="46.14556" lon="2.45343">
        <ele>467</ele>
        <time>2015-04-20T13:22:41Z</time>
      </trkpt>
      <trkpt lat="46.1456" lon="2.45339">
        <ele>467</ele>
        <time>2015-04-20T13:22:44Z</time>
      </trkpt>
      <trkpt lat="46.14561" lon="2.45335">
        <ele>467</ele>
        <time>2015-04-20T13:22:46Z</time>
      </trkpt>
      <trkpt lat="46.14564" lon="2.45331">
        <ele>467</ele>
        <time>2015-04-20T13:22:49Z</time>
      </trkpt>
      <trkpt lat="46.14566" lon="2.45326">
        <ele>467</ele>
        <time>2015-04-20T13:22:52Z</time>
      </trkpt>
      <trkpt lat="46.14568" lon="2.45322">
        <ele>467</ele>
        <time>2015-04-20T13:22:54Z</time>
      </trkpt>
      <trkpt lat="46.14569" lon="2.45318">
        <ele>467</ele>
        <time>2015-04-20T13:22:56Z</time>
      </trkpt>
      <trkpt lat="46.14571" lon="2.45314">
        <ele>467</ele>
        <time>2015-04-20T13:22:58Z</time>
      </trkpt>
      <trkpt lat="46.14571" lon="2.4531">
        <ele>467</ele>
        <time>2015-04-20T13:23:00Z</time>
      </trkpt>
      <trkpt lat="46.14572" lon="2.45305">
        <ele>467</ele>
        <time>2015-04-20T13:23:02Z</time>
      </trkpt>
      <trkpt lat="46.14572" lon="2.45301">
        <ele>467</ele>
        <time>2015-04-20T13:23:04Z</time>
      </trkpt>
      <trkpt lat="46.14571" lon="2.45296">
        <ele>467</ele>
        <time>2015-04-20T13:23:06Z</time>
      </trkpt>
      <trkpt lat="46.14571" lon="2.45292">
        <ele>467</ele>
        <time>2015-04-20T13:23:08Z</time>
      </trkpt>
      <trkpt lat="46.14569" lon="2.45288">
        <ele>467</ele>
        <time>2015-04-20T13:23:10Z</time>
      </trkpt>
      <trkpt lat="46.14568" lon="2.45284">
        <ele>467</ele>
        <time>2015-04-20T13:23:12Z</time>
      </trkpt>
      <trkpt lat="46.14568" lon="2.45281">
        <ele>467</ele>
        <time>2015-04-20T13:23:14Z</time>
      </trkpt>
      <trkpt lat="46.14566" lon="2.45278">
        <ele>467</ele>
        <time>2015-04-20T13:23:16Z</time>
      </trkpt>
      <trkpt lat="46.14565" lon="2.45274">
        <ele>467</ele>
        <time>2015-04-20T13:23:18Z</time>
      </trkpt>
      <trkpt lat="46.14563" lon="2.45271">
        <ele>467</ele>
        <time>2015-04-20T13:23:20Z</time>
      </trkpt>
      <trkpt lat="46.14562" lon="2.45268">
        <ele>467</ele>
        <time>2015-04-20T13:23:22Z</time>
      </trkpt>
      <trkpt lat="46.1456" lon="2.45264">
        <ele>467</ele>
        <time>2015-04-20T13:23:24Z</time>
      </trkpt>
      <trkpt lat="46.14558" lon="2.45261">
        <ele>467</ele>
        <time>2015-04-20T13:23:26Z</time>
      </trkpt>
      <trkpt lat="46.14556" lon="2.45257">
        <ele>468</ele>
        <time>2015-04-20T13:23:28Z</time>
      </trkpt>
      <trkpt lat="46.14555" lon="2.45252">
        <ele>468</ele>
        <time>2015-04-20T13:23:30Z</time>
      </trkpt>
      <trkpt lat="46.14553" lon="2.45249">
        <ele>469</ele>
        <time>2015-04-20T13:23:32Z</time>
      </trkpt>
      <trkpt lat="46.14551" lon="2.45245">
        <ele>469</ele>
        <time>2015-04-20T13:23:34Z</time>
      </trkpt>
      <trkpt lat="46.1455" lon="2.45241">
        <ele>469</ele>
        <time>2015-04-20T13:23:36Z</time>
      </trkpt>
      <trkpt lat="46.14548" lon="2.45237">
        <ele>469</ele>
        <time>2015-04-20T13:23:38Z</time>
      </trkpt>
      <trkpt lat="46.14547" lon="2.45233">
        <ele>469</ele>
        <time>2015-04-20T13:23:40Z</time>
      </trkpt>
      <trkpt lat="46.14545" lon="2.45227">
        <ele>469</ele>
        <time>2015-04-20T13:23:43Z</time>
      </trkpt>
      <trkpt lat="46.14544" lon="2.45223">
        <ele>469</ele>
        <time>2015-04-20T13:23:45Z</time>
      </trkpt>
      <trkpt lat="46.14542" lon="2.45217">
        <ele>470</ele>
        <time>2015-04-20T13:23:48Z</time>
      </trkpt>
      <trkpt lat="46.14541" lon="2.45214">
        <ele>470</ele>
        <time>2015-04-20T13:23:50Z</time>
      </trkpt>
      <trkpt lat="46.1454" lon="2.4521">
        <ele>470</ele>
        <time>2015-04-20T13:23:52Z</time>
      </trkpt>
      <trkpt lat="46.14538" lon="2.45206">
        <ele>470</ele>
        <time>2015-04-20T13:23:54Z</time>
      </trkpt>
      <trkpt lat="46.14537" lon="2.45202">
        <ele>470</ele>
        <time>2015-04-20T13:23:56Z</time>
      </trkpt>
      <trkpt lat="46.14536" lon="2.45198">
        <ele>470</ele>
        <time>2015-04-20T13:23:58Z</time>
      </trkpt>
      <trkpt lat="46.14534" lon="2.45193">
        <ele>470</ele>
        <time>2015-04-20T13:24:01Z</time>
      </trkpt>
      <trkpt lat="46.14532" lon="2.45189">
        <ele>470</ele>
        <time>2015-04-20T13:24:03Z</time>
      </trkpt>
      <trkpt lat="46.1453" lon="2.45184">
        <ele>470</ele>
        <time>2015-04-20T13:24:06Z</time>
      </trkpt>
      <trkpt lat="46.14529" lon="2.4518">
        <ele>470</ele>
        <time>2015-04-20T13:24:08Z</time>
      </trkpt>
      <trkpt lat="46.14527" lon="2.45176">
        <ele>470</ele>
        <time>2015-04-20T13:24:10Z</time>
      </trkpt>
      <trkpt lat="46.14525" lon="2.4517">
        <ele>470</ele>
        <time>2015-04-20T13:24:13Z</time>
      </trkpt>
      <trkpt lat="46.14524" lon="2.45166">
        <ele>470</ele>
        <time>2015-04-20T13:24:15Z</time>
      </trkpt>
      <trkpt lat="46.14523" lon="2.45162">
        <ele>470</ele>
        <time>2015-04-20T13:24:17Z</time>
      </trkpt>
      <trkpt lat="46.14521" lon="2.45159">
        <ele>470</ele>
        <time>2015-04-20T13:24:19Z</time>
      </trkpt>
      <trkpt lat="46.1452" lon="2.45155">
        <ele>470</ele>
        <time>2015-04-20T13:24:21Z</time>
      </trkpt>
      <trkpt lat="46.14518" lon="2.45151">
        <ele>471</ele>
        <time>2015-04-20T13:24:23Z</time>
      </trkpt>
      <trkpt lat="46.14516" lon="2.45145">
        <ele>471</ele>
        <time>2015-04-20T13:24:26Z</time>
      </trkpt>
      <trkpt lat="46.14514" lon="2.45141">
        <ele>471</ele>
        <time>2015-04-20T13:24:28Z</time>
      </trkpt>
      <trkpt lat="46.14512" lon="2.45138">
        <ele>471</ele>
        <time>2015-04-20T13:24:30Z</time>
      </trkpt>
      <trkpt lat="46.1451" lon="2.45134">
        <ele>471</ele>
        <time>2015-04-20T13:24:32Z</time>
      </trkpt>
      <trkpt lat="46.14509" lon="2.4513">
        <ele>471</ele>
        <time>2015-04-20T13:24:34Z</time>
      </trkpt>
      <trkpt lat="46.14507" lon="2.45127">
        <ele>471</ele>
        <time>2015-04-20T13:24:36Z</time>
      </trkpt>
      <trkpt lat="46.14506" lon="2.45124">
        <ele>471</ele>
        <time>2015-04-20T13:24:38Z</time>
      </trkpt>
      <trkpt lat="46.14504" lon="2.4512">
        <ele>471</ele>
        <time>2015-04-20T13:24:40Z</time>
      </trkpt>
      <trkpt lat="46.14502" lon="2.45116">
        <ele>471</ele>
        <time>2015-04-20T13:24:42Z</time>
      </trkpt>
      <trkpt lat="46.145" lon="2.45113">
        <ele>471</ele>
        <time>2015-04-20T13:24:44Z</time>
      </trkpt>
      <trkpt lat="46.14499" lon="2.4511">
        <ele>471</ele>
        <time>2015-04-20T13:24:46Z</time>
      </trkpt>
      <trkpt lat="46.14497" lon="2.45106">
        <ele>471</ele>
        <time>2015-04-20T13:24:48Z</time>
      </trkpt>
      <trkpt lat="46.14494" lon="2.45102">
        <ele>471</ele>
        <time>2015-04-20T13:24:50Z</time>
      </trkpt>
      <trkpt lat="46.14492" lon="2.45098">
        <ele>471</ele>
        <time>2015-04-20T13:24:52Z</time>
      </trkpt>
      <trkpt lat="46.14491" lon="2.45095">
        <ele>471</ele>
        <time>2015-04-20T13:24:54Z</time>
      </trkpt>
      <trkpt lat="46.1449" lon="2.45092">
        <ele>471</ele>
        <time>2015-04-20T13:24:56Z</time>
      </trkpt>
      <trkpt lat="46.14488" lon="2.45088">
        <ele>471</ele>
        <time>2015-04-20T13:24:58Z</time>
      </trkpt>
      <trkpt lat="46.14487" lon="2.45085">
        <ele>471</ele>
        <time>2015-04-20T13:25:00Z</time>
      </trkpt>
      <trkpt lat="46.14484" lon="2.4508">
        <ele>471</ele>
        <time>2015-04-20T13:25:03Z</time>
      </trkpt>
      <trkpt lat="46.14483" lon="2.45077">
        <ele>471</ele>
        <time>2015-04-20T13:25:05Z</time>
      </trkpt>
      <trkpt lat="46.14482" lon="2.45073">
        <ele>471</ele>
        <time>2015-04-20T13:25:07Z</time>
      </trkpt>
      <trkpt lat="46.1448" lon="2.4507">
        <ele>471</ele>
        <time>2015-04-20T13:25:09Z</time>
      </trkpt>
      <trkpt lat="46.14478" lon="2.45064">
        <ele>471</ele>
        <time>2015-04-20T13:25:12Z</time>
      </trkpt>
      <trkpt lat="46.14477" lon="2.4506">
        <ele>471</ele>
        <time>2015-04-20T13:25:14Z</time>
      </trkpt>
      <trkpt lat="46.14474" lon="2.45055">
        <ele>471</ele>
        <time>2015-04-20T13:25:17Z</time>
      </trkpt>
      <trkpt lat="46.14473" lon="2.45052">
        <ele>471</ele>
        <time>2015-04-20T13:25:19Z</time>
      </trkpt>
      <trkpt lat="46.14471" lon="2.45049">
        <ele>471</ele>
        <time>2015-04-20T13:25:21Z</time>
      </trkpt>
      <trkpt lat="46.1447" lon="2.45046">
        <ele>471</ele>
        <time>2015-04-20T13:25:23Z</time>
      </trkpt>
      <trkpt lat="46.14468" lon="2.45042">
        <ele>471</ele>
        <time>2015-04-20T13:25:25Z</time>
      </trkpt>
      <trkpt lat="46.14467" lon="2.45039">
        <ele>471</ele>
        <time>2015-04-20T13:25:27Z</time>
      </trkpt>
      <trkpt lat="46.14466" lon="2.45035">
        <ele>471</ele>
        <time>2015-04-20T13:25:29Z</time>
      </trkpt>
      <trkpt lat="46.14464" lon="2.45032">
        <ele>471</ele>
        <time>2015-04-20T13:25:31Z</time>
      </trkpt>
      <trkpt lat="46.14463" lon="2.45029">
        <ele>471</ele>
        <time>2015-04-20T13:25:33Z</time>
      </trkpt>
      <trkpt lat="46.14461" lon="2.45025">
        <ele>471</ele>
        <time>2015-04-20T13:25:35Z</time>
      </trkpt>
      <trkpt lat="46.1446" lon="2.45022">
        <ele>471</ele>
        <time>2015-04-20T13:25:37Z</time>
      </trkpt>
      <trkpt lat="46.14458" lon="2.45018">
        <ele>471</ele>
        <time>2015-04-20T13:25:39Z</time>
      </trkpt>
      <trkpt lat="46.14456" lon="2.45015">
        <ele>471</ele>
        <time>2015-04-20T13:25:41Z</time>
      </trkpt>
      <trkpt lat="46.14454" lon="2.45012">
        <ele>471</ele>
        <time>2015-04-20T13:25:43Z</time>
      </trkpt>
      <trkpt lat="46.14452" lon="2.45009">
        <ele>471</ele>
        <time>2015-04-20T13:25:45Z</time>
      </trkpt>
      <trkpt lat="46.1445" lon="2.45005">
        <ele>471</ele>
        <time>2015-04-20T13:25:47Z</time>
      </trkpt>
      <trkpt lat="46.14448" lon="2.45002">
        <ele>471</ele>
        <time>2015-04-20T13:25:49Z</time>
      </trkpt>
      <trkpt lat="46.14446" lon="2.44998">
        <ele>471</ele>
        <time>2015-04-20T13:25:52Z</time>
      </trkpt>
      <trkpt lat="46.14444" lon="2.44994">
        <ele>471</ele>
        <time>2015-04-20T13:25:54Z</time>
      </trkpt>
      <trkpt lat="46.14441" lon="2.44991">
        <ele>471</ele>
        <time>2015-04-20T13:25:56Z</time>
      </trkpt>
      <trkpt lat="46.14439" lon="2.44988">
        <ele>471</ele>
        <time>2015-04-20T13:25:58Z</time>
      </trkpt>
      <trkpt lat="46.14437" lon="2.44986">
        <ele>471</ele>
        <time>2015-04-20T13:26:00Z</time>
      </trkpt>
      <trkpt lat="46.14435" lon="2.44983">
        <ele>471</ele>
        <time>2015-04-20T13:26:02Z</time>
      </trkpt>
      <trkpt lat="46.14433" lon="2.44981">
        <ele>471</ele>
        <time>2015-04-20T13:26:04Z</time>
      </trkpt>
      <trkpt lat="46.14429" lon="2.44977">
        <ele>471</ele>
        <time>2015-04-20T13:26:07Z</time>
      </trkpt>
      <trkpt lat="46.14427" lon="2.44974">
        <ele>471</ele>
        <time>2015-04-20T13:26:09Z</time>
      </trkpt>
      <trkpt lat="46.14425" lon="2.44972">
        <ele>471</ele>
        <time>2015-04-20T13:26:11Z</time>
      </trkpt>
      <trkpt lat="46.14423" lon="2.4497">
        <ele>471</ele>
        <time>2015-04-20T13:26:13Z</time>
      </trkpt>
      <trkpt lat="46.14419" lon="2.44966">
        <ele>471</ele>
        <time>2015-04-20T13:26:16Z</time>
      </trkpt>
      <trkpt lat="46.14416" lon="2.44961">
        <ele>471</ele>
        <time>2015-04-20T13:26:19Z</time>
      </trkpt>
      <trkpt lat="46.14414" lon="2.44958">
        <ele>471</ele>
        <time>2015-04-20T13:26:21Z</time>
      </trkpt>
      <trkpt lat="46.1441" lon="2.44953">
        <ele>471</ele>
        <time>2015-04-20T13:26:25Z</time>
      </trkpt>
      <trkpt lat="46.14407" lon="2.44951">
        <ele>471</ele>
        <time>2015-04-20T13:26:27Z</time>
      </trkpt>
      <trkpt lat="46.14405" lon="2.44949">
        <ele>471</ele>
        <time>2015-04-20T13:26:29Z</time>
      </trkpt>
      <trkpt lat="46.14403" lon="2.44948">
        <ele>471</ele>
        <time>2015-04-20T13:26:31Z</time>
      </trkpt>
      <trkpt lat="46.144" lon="2.44946">
        <ele>471</ele>
        <time>2015-04-20T13:26:33Z</time>
      </trkpt>
      <trkpt lat="46.14397" lon="2.44944">
        <ele>471</ele>
        <time>2015-04-20T13:26:35Z</time>
      </trkpt>
      <trkpt lat="46.14395" lon="2.44941">
        <ele>471</ele>
        <time>2015-04-20T13:26:37Z</time>
      </trkpt>
      <trkpt lat="46.14392" lon="2.4494">
        <ele>471</ele>
        <time>2015-04-20T13:26:39Z</time>
      </trkpt>
      <trkpt lat="46.1439" lon="2.44938">
        <ele>471</ele>
        <time>2015-04-20T13:26:41Z</time>
      </trkpt>
      <trkpt lat="46.14387" lon="2.44936">
        <ele>471</ele>
        <time>2015-04-20T13:26:43Z</time>
      </trkpt>
      <trkpt lat="46.14384" lon="2.44935">
        <ele>471</ele>
        <time>2015-04-20T13:26:45Z</time>
      </trkpt>
      <trkpt lat="46.14382" lon="2.44933">
        <ele>471</ele>
        <time>2015-04-20T13:26:47Z</time>
      </trkpt>
      <trkpt lat="46.14379" lon="2.44931">
        <ele>470</ele>
        <time>2015-04-20T13:26:49Z</time>
      </trkpt>
      <trkpt lat="46.14376" lon="2.44931">
        <ele>470</ele>
        <time>2015-04-20T13:26:51Z</time>
      </trkpt>
      <trkpt lat="46.14373" lon="2.4493">
        <ele>470</ele>
        <time>2015-04-20T13:26:53Z</time>
      </trkpt>
      <trkpt lat="46.1437" lon="2.4493">
        <ele>469</ele>
        <time>2015-04-20T13:26:55Z</time>
      </trkpt>
      <trkpt lat="46.14367" lon="2.44929">
        <ele>469</ele>
        <time>2015-04-20T13:26:57Z</time>
      </trkpt>
      <trkpt lat="46.14364" lon="2.44928">
        <ele>469</ele>
        <time>2015-04-20T13:26:59Z</time>
      </trkpt>
      <trkpt lat="46.14362" lon="2.44927">
        <ele>469</ele>
        <time>2015-04-20T13:27:01Z</time>
      </trkpt>
      <trkpt lat="46.14359" lon="2.44925">
        <ele>469</ele>
        <time>2015-04-20T13:27:03Z</time>
      </trkpt>
      <trkpt lat="46.14356" lon="2.44923">
        <ele>469</ele>
        <time>2015-04-20T13:27:05Z</time>
      </trkpt>
      <trkpt lat="46.14353" lon="2.4492">
        <ele>469</ele>
        <time>2015-04-20T13:27:08Z</time>
      </trkpt>
      <trkpt lat="46.1435" lon="2.44916">
        <ele>469</ele>
        <time>2015-04-20T13:27:11Z</time>
      </trkpt>
      <trkpt lat="46.14347" lon="2.44914">
        <ele>469</ele>
        <time>2015-04-20T13:27:13Z</time>
      </trkpt>
      <trkpt lat="46.14344" lon="2.44911">
        <ele>469</ele>
        <time>2015-04-20T13:27:16Z</time>
      </trkpt>
      <trkpt lat="46.14342" lon="2.44908">
        <ele>469</ele>
        <time>2015-04-20T13:27:18Z</time>
      </trkpt>
      <trkpt lat="46.14339" lon="2.44906">
        <ele>469</ele>
        <time>2015-04-20T13:27:20Z</time>
      </trkpt>
      <trkpt lat="46.14337" lon="2.44904">
        <ele>469</ele>
        <time>2015-04-20T13:27:22Z</time>
      </trkpt>
      <trkpt lat="46.14334" lon="2.44901">
        <ele>469</ele>
        <time>2015-04-20T13:27:24Z</time>
      </trkpt>
      <trkpt lat="46.14331" lon="2.44898">
        <ele>469</ele>
        <time>2015-04-20T13:27:27Z</time>
      </trkpt>
      <trkpt lat="46.14329" lon="2.44896">
        <ele>469</ele>
        <time>2015-04-20T13:27:29Z</time>
      </trkpt>
      <trkpt lat="46.14326" lon="2.44893">
        <ele>469</ele>
        <time>2015-04-20T13:27:31Z</time>
      </trkpt>
      <trkpt lat="46.14324" lon="2.44891">
        <ele>469</ele>
        <time>2015-04-20T13:27:33Z</time>
      </trkpt>
      <trkpt lat="46.14319" lon="2.44886">
        <ele>469</ele>
        <time>2015-04-20T13:27:37Z</time>
      </trkpt>
      <trkpt lat="46.14317" lon="2.44884">
        <ele>469</ele>
        <time>2015-04-20T13:27:39Z</time>
      </trkpt>
      <trkpt lat="46.14315" lon="2.44882">
        <ele>469</ele>
        <time>2015-04-20T13:27:41Z</time>
      </trkpt>
      <trkpt lat="46.14312" lon="2.4488">
        <ele>469</ele>
        <time>2015-04-20T13:27:43Z</time>
      </trkpt>
      <trkpt lat="46.1431" lon="2.44878">
        <ele>469</ele>
        <time>2015-04-20T13:27:45Z</time>
      </trkpt>
      <trkpt lat="46.14307" lon="2.44875">
        <ele>469</ele>
        <time>2015-04-20T13:27:48Z</time>
      </trkpt>
      <trkpt lat="46.14304" lon="2.44872">
        <ele>469</ele>
        <time>2015-04-20T13:27:50Z</time>
      </trkpt>
      <trkpt lat="46.14301" lon="2.44869">
        <ele>469</ele>
        <time>2015-04-20T13:27:53Z</time>
      </trkpt>
      <trkpt lat="46.14298" lon="2.44867">
        <ele>469</ele>
        <time>2015-04-20T13:27:55Z</time>
      </trkpt>
      <trkpt lat="46.14296" lon="2.44865">
        <ele>469</ele>
        <time>2015-04-20T13:27:57Z</time>
      </trkpt>
      <trkpt lat="46.14293" lon="2.44863">
        <ele>469</ele>
        <time>2015-04-20T13:27:59Z</time>
      </trkpt>
      <trkpt lat="46.14291" lon="2.4486">
        <ele>469</ele>
        <time>2015-04-20T13:28:01Z</time>
      </trkpt>
      <trkpt lat="46.14289" lon="2.44858">
        <ele>469</ele>
        <time>2015-04-20T13:28:03Z</time>
      </trkpt>
      <trkpt lat="46.14286" lon="2.44855">
        <ele>469</ele>
        <time>2015-04-20T13:28:05Z</time>
      </trkpt>
      <trkpt lat="46.14283" lon="2.44854">
        <ele>469</ele>
        <time>2015-04-20T13:28:07Z</time>
      </trkpt>
      <trkpt lat="46.14281" lon="2.44852">
        <ele>469</ele>
        <time>2015-04-20T13:28:09Z</time>
      </trkpt>
      <trkpt lat="46.14278" lon="2.44849">
        <ele>469</ele>
        <time>2015-04-20T13:28:11Z</time>
      </trkpt>
      <trkpt lat="46.14275" lon="2.44846">
        <ele>469</ele>
        <time>2015-04-20T13:28:14Z</time>
      </trkpt>
      <trkpt lat="46.14272" lon="2.44844">
        <ele>469</ele>
        <time>2015-04-20T13:28:16Z</time>
      </trkpt>
      <trkpt lat="46.1427" lon="2.44842">
        <ele>469</ele>
        <time>2015-04-20T13:28:18Z</time>
      </trkpt>
      <trkpt lat="46.14267" lon="2.4484">
        <ele>469</ele>
        <time>2015-04-20T13:28:20Z</time>
      </trkpt>
      <trkpt lat="46.14265" lon="2.44839">
        <ele>469</ele>
        <time>2015-04-20T13:28:22Z</time>
      </trkpt>
      <trkpt lat="46.14262" lon="2.44837">
        <ele>469</ele>
        <time>2015-04-20T13:28:24Z</time>
      </trkpt>
      <trkpt lat="46.14259" lon="2.44836">
        <ele>469</ele>
        <time>2015-04-20T13:28:26Z</time>
      </trkpt>
      <trkpt lat="46.14257" lon="2.44834">
        <ele>469</ele>
        <time>2015-04-20T13:28:28Z</time>
      </trkpt>
      <trkpt lat="46.14254" lon="2.44834">
        <ele>469</ele>
        <time>2015-04-20T13:28:30Z</time>
      </trkpt>
      <trkpt lat="46.14251" lon="2.44833">
        <ele>469</ele>
        <time>2015-04-20T13:28:32Z</time>
      </trkpt>
      <trkpt lat="46.14249" lon="2.44832">
        <ele>469</ele>
        <time>2015-04-20T13:28:34Z</time>
      </trkpt>
      <trkpt lat="46.14246" lon="2.44831">
        <ele>469</ele>
        <time>2015-04-20T13:28:36Z</time>
      </trkpt>
      <trkpt lat="46.14243" lon="2.4483">
        <ele>469</ele>
        <time>2015-04-20T13:28:38Z</time>
      </trkpt>
      <trkpt lat="46.14241" lon="2.4483">
        <ele>469</ele>
        <time>2015-04-20T13:28:40Z</time>
      </trkpt>
      <trkpt lat="46.14238" lon="2.4483">
        <ele>469</ele>
        <time>2015-04-20T13:28:42Z</time>
      </trkpt>
      <trkpt lat="46.14235" lon="2.44829">
        <ele>469</ele>
        <time>2015-04-20T13:28:44Z</time>
      </trkpt>
      <trkpt lat="46.14232" lon="2.44829">
        <ele>469</ele>
        <time>2015-04-20T13:28:46Z</time>
      </trkpt>
      <trkpt lat="46.14229" lon="2.44828">
        <ele>469</ele>
        <time>2015-04-20T13:28:48Z</time>
      </trkpt>
      <trkpt lat="46.14226" lon="2.44827">
        <ele>469</ele>
        <time>2015-04-20T13:28:50Z</time>
      </trkpt>
      <trkpt lat="46.14223" lon="2.44827">
        <ele>469</ele>
        <time>2015-04-20T13:28:52Z</time>
      </trkpt>
      <trkpt lat="46.1422" lon="2.44826">
        <ele>469</ele>
        <time>2015-04-20T13:28:54Z</time>
      </trkpt>
      <trkpt lat="46.14217" lon="2.44826">
        <ele>469</ele>
        <time>2015-04-20T13:28:56Z</time>
      </trkpt>
      <trkpt lat="46.14215" lon="2.44825">
        <ele>469</ele>
        <time>2015-04-20T13:28:58Z</time>
      </trkpt>
      <trkpt lat="46.14212" lon="2.44825">
        <ele>469</ele>
        <time>2015-04-20T13:29:00Z</time>
      </trkpt>
      <trkpt lat="46.14209" lon="2.44824">
        <ele>469</ele>
        <time>2015-04-20T13:29:02Z</time>
      </trkpt>
      <trkpt lat="46.14206" lon="2.44824">
        <ele>469</ele>
        <time>2015-04-20T13:29:04Z</time>
      </trkpt>
      <trkpt lat="46.14204" lon="2.44824">
        <ele>469</ele>
        <time>2015-04-20T13:29:06Z</time>
      </trkpt>
      <trkpt lat="46.14201" lon="2.44824">
        <ele>469</ele>
        <time>2015-04-20T13:29:08Z</time>
      </trkpt>
      <trkpt lat="46.14198" lon="2.44824">
        <ele>469</ele>
        <time>2015-04-20T13:29:10Z</time>
      </trkpt>
      <trkpt lat="46.14195" lon="2.44824">
        <ele>469</ele>
        <time>2015-04-20T13:29:12Z</time>
      </trkpt>
      <trkpt lat="46.14192" lon="2.44823">
        <ele>469</ele>
        <time>2015-04-20T13:29:14Z</time>
      </trkpt>
      <trkpt lat="46.14189" lon="2.44823">
        <ele>469</ele>
        <time>2015-04-20T13:29:16Z</time>
      </trkpt>
      <trkpt lat="46.14186" lon="2.44824">
        <ele>469</ele>
        <time>2015-04-20T13:29:18Z</time>
      </trkpt>
      <trkpt lat="46.14182" lon="2.44824">
        <ele>469</ele>
        <time>2015-04-20T13:29:21Z</time>
      </trkpt>
      <trkpt lat="46.14179" lon="2.44824">
        <ele>469</ele>
        <time>2015-04-20T13:29:23Z</time>
      </trkpt>
      <trkpt lat="46.14176" lon="2.44824">
        <ele>469</ele>
        <time>2015-04-20T13:29:25Z</time>
      </trkpt>
      <trkpt lat="46.14173" lon="2.44824">
        <ele>469</ele>
        <time>2015-04-20T13:29:27Z</time>
      </trkpt>
      <trkpt lat="46.1417" lon="2.44824">
        <ele>469</ele>
        <time>2015-04-20T13:29:29Z</time>
      </trkpt>
      <trkpt lat="46.14168" lon="2.44823">
        <ele>469</ele>
        <time>2015-04-20T13:29:31Z</time>
      </trkpt>
      <trkpt lat="46.14164" lon="2.44822">
        <ele>469</ele>
        <time>2015-04-20T13:29:33Z</time>
      </trkpt>
      <trkpt lat="46.14162" lon="2.44822">
        <ele>469</ele>
        <time>2015-04-20T13:29:35Z</time>
      </trkpt>
      <trkpt lat="46.14159" lon="2.44821">
        <ele>469</ele>
        <time>2015-04-20T13:29:37Z</time>
      </trkpt>
      <trkpt lat="46.14156" lon="2.44819">
        <ele>469</ele>
        <time>2015-04-20T13:29:39Z</time>
      </trkpt>
      <trkpt lat="46.14154" lon="2.44817">
        <ele>469</ele>
        <time>2015-04-20T13:29:41Z</time>
      </trkpt>
      <trkpt lat="46.14149" lon="2.44814">
        <ele>469</ele>
        <time>2015-04-20T13:29:44Z</time>
      </trkpt>
      <trkpt lat="46.14147" lon="2.44811">
        <ele>469</ele>
        <time>2015-04-20T13:29:46Z</time>
      </trkpt>
      <trkpt lat="46.14144" lon="2.44808">
        <ele>469</ele>
        <time>2015-04-20T13:29:49Z</time>
      </trkpt>
      <trkpt lat="46.14142" lon="2.44805">
        <ele>469</ele>
        <time>2015-04-20T13:29:51Z</time>
      </trkpt>
      <trkpt lat="46.1414" lon="2.44802">
        <ele>469</ele>
        <time>2015-04-20T13:29:53Z</time>
      </trkpt>
      <trkpt lat="46.14137" lon="2.44796">
        <ele>469</ele>
        <time>2015-04-20T13:29:56Z</time>
      </trkpt>
      <trkpt lat="46.14135" lon="2.44793">
        <ele>469</ele>
        <time>2015-04-20T13:29:58Z</time>
      </trkpt>
      <trkpt lat="46.14133" lon="2.44789">
        <ele>469</ele>
        <time>2015-04-20T13:30:00Z</time>
      </trkpt>
      <trkpt lat="46.14132" lon="2.44786">
        <ele>469</ele>
        <time>2015-04-20T13:30:02Z</time>
      </trkpt>
      <trkpt lat="46.1413" lon="2.44782">
        <ele>470</ele>
        <time>2015-04-20T13:30:04Z</time>
      </trkpt>
      <trkpt lat="46.14129" lon="2.44778">
        <ele>471</ele>
        <time>2015-04-20T13:30:06Z</time>
      </trkpt>
      <trkpt lat="46.14127" lon="2.44775">
        <ele>471</ele>
        <time>2015-04-20T13:30:08Z</time>
      </trkpt>
      <trkpt lat="46.14125" lon="2.4477">
        <ele>471</ele>
        <time>2015-04-20T13:30:11Z</time>
      </trkpt>
      <trkpt lat="46.14123" lon="2.44764">
        <ele>471</ele>
        <time>2015-04-20T13:30:14Z</time>
      </trkpt>
      <trkpt lat="46.14122" lon="2.4476">
        <ele>472</ele>
        <time>2015-04-20T13:30:16Z</time>
      </trkpt>
      <trkpt lat="46.1412" lon="2.44757">
        <ele>472</ele>
        <time>2015-04-20T13:30:18Z</time>
      </trkpt>
      <trkpt lat="46.14119" lon="2.44753">
        <ele>473</ele>
        <time>2015-04-20T13:30:20Z</time>
      </trkpt>
      <trkpt lat="46.14117" lon="2.44749">
        <ele>473</ele>
        <time>2015-04-20T13:30:22Z</time>
      </trkpt>
      <trkpt lat="46.14116" lon="2.44745">
        <ele>473</ele>
        <time>2015-04-20T13:30:24Z</time>
      </trkpt>
      <trkpt lat="46.14114" lon="2.4474">
        <ele>474</ele>
        <time>2015-04-20T13:30:27Z</time>
      </trkpt>
      <trkpt lat="46.14112" lon="2.44737">
        <ele>475</ele>
        <time>2015-04-20T13:30:29Z</time>
      </trkpt>
      <trkpt lat="46.14111" lon="2.44734">
        <ele>475</ele>
        <time>2015-04-20T13:30:31Z</time>
      </trkpt>
      <trkpt lat="46.1411" lon="2.4473">
        <ele>475</ele>
        <time>2015-04-20T13:30:33Z</time>
      </trkpt>
      <trkpt lat="46.14109" lon="2.44727">
        <ele>475</ele>
        <time>2015-04-20T13:30:35Z</time>
      </trkpt>
      <trkpt lat="46.14108" lon="2.44724">
        <ele>475</ele>
        <time>2015-04-20T13:30:37Z</time>
      </trkpt>
      <trkpt lat="46.14106" lon="2.44721">
        <ele>475</ele>
        <time>2015-04-20T13:30:39Z</time>
      </trkpt>
      <trkpt lat="46.14105" lon="2.44717">
        <ele>475</ele>
        <time>2015-04-20T13:30:41Z</time>
      </trkpt>
      <trkpt lat="46.14104" lon="2.44713">
        <ele>475</ele>
        <time>2015-04-20T13:30:43Z</time>
      </trkpt>
      <trkpt lat="46.14103" lon="2.44709">
        <ele>475</ele>
        <time>2015-04-20T13:30:45Z</time>
      </trkpt>
      <trkpt lat="46.14102" lon="2.44705">
        <ele>475</ele>
        <time>2015-04-20T13:30:47Z</time>
      </trkpt>
      <trkpt lat="46.14101" lon="2.44701">
        <ele>475</ele>
        <time>2015-04-20T13:30:49Z</time>
      </trkpt>
      <trkpt lat="46.14101" lon="2.44698">
        <ele>476</ele>
        <time>2015-04-20T13:30:51Z</time>
      </trkpt>
      <trkpt lat="46.14101" lon="2.44694">
        <ele>476</ele>
        <time>2015-04-20T13:30:53Z</time>
      </trkpt>
      <trkpt lat="46.14101" lon="2.4469">
        <ele>476</ele>
        <time>2015-04-20T13:30:55Z</time>
      </trkpt>
      <trkpt lat="46.14101" lon="2.44686">
        <ele>476</ele>
        <time>2015-04-20T13:30:57Z</time>
      </trkpt>
      <trkpt lat="46.141" lon="2.44681">
        <ele>476</ele>
        <time>2015-04-20T13:31:00Z</time>
      </trkpt>
      <trkpt lat="46.141" lon="2.44674">
        <ele>476</ele>
        <time>2015-04-20T13:31:03Z</time>
      </trkpt>
      <trkpt lat="46.14099" lon="2.4467">
        <ele>476</ele>
        <time>2015-04-20T13:31:05Z</time>
      </trkpt>
      <trkpt lat="46.14098" lon="2.44664">
        <ele>476</ele>
        <time>2015-04-20T13:31:08Z</time>
      </trkpt>
      <trkpt lat="46.14098" lon="2.44661">
        <ele>476</ele>
        <time>2015-04-20T13:31:10Z</time>
      </trkpt>
      <trkpt lat="46.14098" lon="2.44657">
        <ele>476</ele>
        <time>2015-04-20T13:31:12Z</time>
      </trkpt>
      <trkpt lat="46.14097" lon="2.44654">
        <ele>476</ele>
        <time>2015-04-20T13:31:14Z</time>
      </trkpt>
      <trkpt lat="46.14097" lon="2.44649">
        <ele>476</ele>
        <time>2015-04-20T13:31:17Z</time>
      </trkpt>
      <trkpt lat="46.14096" lon="2.44642">
        <ele>476</ele>
        <time>2015-04-20T13:31:20Z</time>
      </trkpt>
      <trkpt lat="46.14096" lon="2.44638">
        <ele>476</ele>
        <time>2015-04-20T13:31:22Z</time>
      </trkpt>
      <trkpt lat="46.14095" lon="2.44634">
        <ele>476</ele>
        <time>2015-04-20T13:31:24Z</time>
      </trkpt>
      <trkpt lat="46.14093" lon="2.44631">
        <ele>476</ele>
        <time>2015-04-20T13:31:26Z</time>
      </trkpt>
      <trkpt lat="46.14092" lon="2.44627">
        <ele>476</ele>
        <time>2015-04-20T13:31:28Z</time>
      </trkpt>
      <trkpt lat="46.14091" lon="2.44624">
        <ele>476</ele>
        <time>2015-04-20T13:31:30Z</time>
      </trkpt>
      <trkpt lat="46.1409" lon="2.4462">
        <ele>476</ele>
        <time>2015-04-20T13:31:32Z</time>
      </trkpt>
      <trkpt lat="46.14089" lon="2.44617">
        <ele>476</ele>
        <time>2015-04-20T13:31:34Z</time>
      </trkpt>
      <trkpt lat="46.14088" lon="2.44613">
        <ele>476</ele>
        <time>2015-04-20T13:31:36Z</time>
      </trkpt>
      <trkpt lat="46.14087" lon="2.4461">
        <ele>476</ele>
        <time>2015-04-20T13:31:38Z</time>
      </trkpt>
      <trkpt lat="46.14085" lon="2.44607">
        <ele>476</ele>
        <time>2015-04-20T13:31:40Z</time>
      </trkpt>
      <trkpt lat="46.14083" lon="2.44604">
        <ele>476</ele>
        <time>2015-04-20T13:31:42Z</time>
      </trkpt>
      <trkpt lat="46.14081" lon="2.44599">
        <ele>476</ele>
        <time>2015-04-20T13:31:45Z</time>
      </trkpt>
      <trkpt lat="46.1408" lon="2.44596">
        <ele>477</ele>
        <time>2015-04-20T13:31:47Z</time>
      </trkpt>
      <trkpt lat="46.14078" lon="2.44592">
        <ele>478</ele>
        <time>2015-04-20T13:31:49Z</time>
      </trkpt>
      <trkpt lat="46.14077" lon="2.44589">
        <ele>478</ele>
        <time>2015-04-20T13:31:51Z</time>
      </trkpt>
      <trkpt lat="46.14075" lon="2.44586">
        <ele>479</ele>
        <time>2015-04-20T13:31:53Z</time>
      </trkpt>
      <trkpt lat="46.14073" lon="2.44582">
        <ele>480</ele>
        <time>2015-04-20T13:31:56Z</time>
      </trkpt>
      <trkpt lat="46.14071" lon="2.44578">
        <ele>480</ele>
        <time>2015-04-20T13:31:58Z</time>
      </trkpt>
      <trkpt lat="46.14069" lon="2.44575">
        <ele>480</ele>
        <time>2015-04-20T13:32:00Z</time>
      </trkpt>
      <trkpt lat="46.14068" lon="2.44572">
        <ele>481</ele>
        <time>2015-04-20T13:32:02Z</time>
      </trkpt>
      <trkpt lat="46.14066" lon="2.44568">
        <ele>481</ele>
        <time>2015-04-20T13:32:05Z</time>
      </trkpt>
      <trkpt lat="46.14063" lon="2.44563">
        <ele>482</ele>
        <time>2015-04-20T13:32:08Z</time>
      </trkpt>
      <trkpt lat="46.14061" lon="2.4456">
        <ele>482</ele>
        <time>2015-04-20T13:32:10Z</time>
      </trkpt>
      <trkpt lat="46.1406" lon="2.44557">
        <ele>482</ele>
        <time>2015-04-20T13:32:12Z</time>
      </trkpt>
      <trkpt lat="46.14059" lon="2.44554">
        <ele>483</ele>
        <time>2015-04-20T13:32:14Z</time>
      </trkpt>
      <trkpt lat="46.14057" lon="2.44551">
        <ele>483</ele>
        <time>2015-04-20T13:32:16Z</time>
      </trkpt>
      <trkpt lat="46.14055" lon="2.44548">
        <ele>483</ele>
        <time>2015-04-20T13:32:18Z</time>
      </trkpt>
      <trkpt lat="46.14054" lon="2.44545">
        <ele>483</ele>
        <time>2015-04-20T13:32:20Z</time>
      </trkpt>
      <trkpt lat="46.14052" lon="2.44542">
        <ele>484</ele>
        <time>2015-04-20T13:32:22Z</time>
      </trkpt>
      <trkpt lat="46.1405" lon="2.44539">
        <ele>484</ele>
        <time>2015-04-20T13:32:24Z</time>
      </trkpt>
      <trkpt lat="46.14048" lon="2.44534">
        <ele>484</ele>
        <time>2015-04-20T13:32:27Z</time>
      </trkpt>
      <trkpt lat="46.14045" lon="2.4453">
        <ele>485</ele>
        <time>2015-04-20T13:32:30Z</time>
      </trkpt>
      <trkpt lat="46.14044" lon="2.44527">
        <ele>485</ele>
        <time>2015-04-20T13:32:32Z</time>
      </trkpt>
      <trkpt lat="46.14042" lon="2.44524">
        <ele>485</ele>
        <time>2015-04-20T13:32:34Z</time>
      </trkpt>
      <trkpt lat="46.14041" lon="2.44522">
        <ele>486</ele>
        <time>2015-04-20T13:32:36Z</time>
      </trkpt>
      <trkpt lat="46.14039" lon="2.44519">
        <ele>486</ele>
        <time>2015-04-20T13:32:38Z</time>
      </trkpt>
      <trkpt lat="46.14037" lon="2.44516">
        <ele>486</ele>
        <time>2015-04-20T13:32:40Z</time>
      </trkpt>
      <trkpt lat="46.14036" lon="2.44514">
        <ele>486</ele>
        <time>2015-04-20T13:32:42Z</time>
      </trkpt>
      <trkpt lat="46.14034" lon="2.4451">
        <ele>486</ele>
        <time>2015-04-20T13:32:44Z</time>
      </trkpt>
      <trkpt lat="46.14033" lon="2.44508">
        <ele>486</ele>
        <time>2015-04-20T13:32:46Z</time>
      </trkpt>
      <trkpt lat="46.14031" lon="2.44505">
        <ele>487</ele>
        <time>2015-04-20T13:32:48Z</time>
      </trkpt>
      <trkpt lat="46.14029" lon="2.44502">
        <ele>487</ele>
        <time>2015-04-20T13:32:50Z</time>
      </trkpt>
      <trkpt lat="46.14028" lon="2.44499">
        <ele>487</ele>
        <time>2015-04-20T13:32:52Z</time>
      </trkpt>
      <trkpt lat="46.14026" lon="2.44496">
        <ele>487</ele>
        <time>2015-04-20T13:32:54Z</time>
      </trkpt>
      <trkpt lat="46.14024" lon="2.44493">
        <ele>488</ele>
        <time>2015-04-20T13:32:56Z</time>
      </trkpt>
      <trkpt lat="46.14022" lon="2.44488">
        <ele>488</ele>
        <time>2015-04-20T13:32:59Z</time>
      </trkpt>
      <trkpt lat="46.14022" lon="2.44485">
        <ele>489</ele>
        <time>2015-04-20T13:33:01Z</time>
      </trkpt>
      <trkpt lat="46.14021" lon="2.44481">
        <ele>489</ele>
        <time>2015-04-20T13:33:03Z</time>
      </trkpt>
      <trkpt lat="46.1402" lon="2.44477">
        <ele>489</ele>
        <time>2015-04-20T13:33:05Z</time>
      </trkpt>
      <trkpt lat="46.14019" lon="2.44472">
        <ele>489</ele>
        <time>2015-04-20T13:33:08Z</time>
      </trkpt>
      <trkpt lat="46.14018" lon="2.44468">
        <ele>489</ele>
        <time>2015-04-20T13:33:10Z</time>
      </trkpt>
      <trkpt lat="46.14017" lon="2.44463">
        <ele>489</ele>
        <time>2015-04-20T13:33:12Z</time>
      </trkpt>
      <trkpt lat="46.14017" lon="2.4446">
        <ele>489</ele>
        <time>2015-04-20T13:33:14Z</time>
      </trkpt>
      <trkpt lat="46.14016" lon="2.44456">
        <ele>489</ele>
        <time>2015-04-20T13:33:16Z</time>
      </trkpt>
      <trkpt lat="46.14016" lon="2.44452">
        <ele>489</ele>
        <time>2015-04-20T13:33:18Z</time>
      </trkpt>
      <trkpt lat="46.14015" lon="2.44448">
        <ele>489</ele>
        <time>2015-04-20T13:33:20Z</time>
      </trkpt>
      <trkpt lat="46.14015" lon="2.44444">
        <ele>489</ele>
        <time>2015-04-20T13:33:22Z</time>
      </trkpt>
      <trkpt lat="46.14015" lon="2.44441">
        <ele>489</ele>
        <time>2015-04-20T13:33:24Z</time>
      </trkpt>
      <trkpt lat="46.14014" lon="2.44437">
        <ele>489</ele>
        <time>2015-04-20T13:33:26Z</time>
      </trkpt>
      <trkpt lat="46.14013" lon="2.44434">
        <ele>489</ele>
        <time>2015-04-20T13:33:28Z</time>
      </trkpt>
      <trkpt lat="46.14012" lon="2.44431">
        <ele>489</ele>
        <time>2015-04-20T13:33:30Z</time>
      </trkpt>
      <trkpt lat="46.14011" lon="2.44427">
        <ele>489</ele>
        <time>2015-04-20T13:33:32Z</time>
      </trkpt>
      <trkpt lat="46.14011" lon="2.44424">
        <ele>489</ele>
        <time>2015-04-20T13:33:34Z</time>
      </trkpt>
      <trkpt lat="46.14011" lon="2.4442">
        <ele>489</ele>
        <time>2015-04-20T13:33:36Z</time>
      </trkpt>
      <trkpt lat="46.1401" lon="2.44416">
        <ele>489</ele>
        <time>2015-04-20T13:33:38Z</time>
      </trkpt>
      <trkpt lat="46.1401" lon="2.4441">
        <ele>489</ele>
        <time>2015-04-20T13:33:41Z</time>
      </trkpt>
      <trkpt lat="46.14008" lon="2.44404">
        <ele>489</ele>
        <time>2015-04-20T13:33:44Z</time>
      </trkpt>
      <trkpt lat="46.14008" lon="2.444">
        <ele>489</ele>
        <time>2015-04-20T13:33:46Z</time>
      </trkpt>
      <trkpt lat="46.14008" lon="2.44396">
        <ele>489</ele>
        <time>2015-04-20T13:33:48Z</time>
      </trkpt>
      <trkpt lat="46.14007" lon="2.44392">
        <ele>489</ele>
        <time>2015-04-20T13:33:50Z</time>
      </trkpt>
      <trkpt lat="46.14006" lon="2.44389">
        <ele>489</ele>
        <time>2015-04-20T13:33:52Z</time>
      </trkpt>
      <trkpt lat="46.14006" lon="2.44385">
        <ele>489</ele>
        <time>2015-04-20T13:33:54Z</time>
      </trkpt>
      <trkpt lat="46.14006" lon="2.44382">
        <ele>489</ele>
        <time>2015-04-20T13:33:56Z</time>
      </trkpt>
      <trkpt lat="46.14005" lon="2.44378">
        <ele>489</ele>
        <time>2015-04-20T13:33:58Z</time>
      </trkpt>
      <trkpt lat="46.14004" lon="2.44374">
        <ele>489</ele>
        <time>2015-04-20T13:34:00Z</time>
      </trkpt>
      <trkpt lat="46.14004" lon="2.44371">
        <ele>489</ele>
        <time>2015-04-20T13:34:02Z</time>
      </trkpt>
      <trkpt lat="46.14004" lon="2.44367">
        <ele>489</ele>
        <time>2015-04-20T13:34:04Z</time>
      </trkpt>
      <trkpt lat="46.14003" lon="2.44362">
        <ele>489</ele>
        <time>2015-04-20T13:34:06Z</time>
      </trkpt>
      <trkpt lat="46.14002" lon="2.44359">
        <ele>489</ele>
        <time>2015-04-20T13:34:08Z</time>
      </trkpt>
      <trkpt lat="46.14001" lon="2.44355">
        <ele>489</ele>
        <time>2015-04-20T13:34:10Z</time>
      </trkpt>
      <trkpt lat="46.14" lon="2.44352">
        <ele>489</ele>
        <time>2015-04-20T13:34:12Z</time>
      </trkpt>
      <trkpt lat="46.14" lon="2.44348">
        <ele>489</ele>
        <time>2015-04-20T13:34:14Z</time>
      </trkpt>
      <trkpt lat="46.14" lon="2.44342">
        <ele>489</ele>
        <time>2015-04-20T13:34:17Z</time>
      </trkpt>
      <trkpt lat="46.13999" lon="2.44336">
        <ele>489</ele>
        <time>2015-04-20T13:34:20Z</time>
      </trkpt>
      <trkpt lat="46.13998" lon="2.44332">
        <ele>489</ele>
        <time>2015-04-20T13:34:22Z</time>
      </trkpt>
      <trkpt lat="46.13998" lon="2.44328">
        <ele>489</ele>
        <time>2015-04-20T13:34:24Z</time>
      </trkpt>
      <trkpt lat="46.13997" lon="2.44324">
        <ele>489</ele>
        <time>2015-04-20T13:34:26Z</time>
      </trkpt>
      <trkpt lat="46.13997" lon="2.4432">
        <ele>489</ele>
        <time>2015-04-20T13:34:28Z</time>
      </trkpt>
      <trkpt lat="46.13996" lon="2.44316">
        <ele>489</ele>
        <time>2015-04-20T13:34:30Z</time>
      </trkpt>
      <trkpt lat="46.13995" lon="2.44313">
        <ele>489</ele>
        <time>2015-04-20T13:34:32Z</time>
      </trkpt>
      <trkpt lat="46.13993" lon="2.44309">
        <ele>489</ele>
        <time>2015-04-20T13:34:34Z</time>
      </trkpt>
      <trkpt lat="46.13993" lon="2.44305">
        <ele>489</ele>
        <time>2015-04-20T13:34:36Z</time>
      </trkpt>
      <trkpt lat="46.13992" lon="2.44301">
        <ele>489</ele>
        <time>2015-04-20T13:34:38Z</time>
      </trkpt>
      <trkpt lat="46.13992" lon="2.44295">
        <ele>490</ele>
        <time>2015-04-20T13:34:41Z</time>
      </trkpt>
      <trkpt lat="46.1399" lon="2.44289">
        <ele>490</ele>
        <time>2015-04-20T13:34:44Z</time>
      </trkpt>
      <trkpt lat="46.1399" lon="2.44285">
        <ele>490</ele>
        <time>2015-04-20T13:34:46Z</time>
      </trkpt>
      <trkpt lat="46.1399" lon="2.44281">
        <ele>491</ele>
        <time>2015-04-20T13:34:48Z</time>
      </trkpt>
      <trkpt lat="46.13988" lon="2.44276">
        <ele>491</ele>
        <time>2015-04-20T13:34:51Z</time>
      </trkpt>
      <trkpt lat="46.13987" lon="2.44273">
        <ele>491</ele>
        <time>2015-04-20T13:34:53Z</time>
      </trkpt>
      <trkpt lat="46.13985" lon="2.4427">
        <ele>492</ele>
        <time>2015-04-20T13:34:55Z</time>
      </trkpt>
      <trkpt lat="46.13984" lon="2.44267">
        <ele>492</ele>
        <time>2015-04-20T13:34:57Z</time>
      </trkpt>
      <trkpt lat="46.13982" lon="2.44264">
        <ele>492</ele>
        <time>2015-04-20T13:34:59Z</time>
      </trkpt>
      <trkpt lat="46.1398" lon="2.44261">
        <ele>493</ele>
        <time>2015-04-20T13:35:01Z</time>
      </trkpt>
      <trkpt lat="46.13977" lon="2.44256">
        <ele>494</ele>
        <time>2015-04-20T13:35:04Z</time>
      </trkpt>
      <trkpt lat="46.13974" lon="2.44252">
        <ele>495</ele>
        <time>2015-04-20T13:35:07Z</time>
      </trkpt>
      <trkpt lat="46.13971" lon="2.44249">
        <ele>496</ele>
        <time>2015-04-20T13:35:10Z</time>
      </trkpt>
      <trkpt lat="46.13968" lon="2.44247">
        <ele>496</ele>
        <time>2015-04-20T13:35:12Z</time>
      </trkpt>
      <trkpt lat="46.13966" lon="2.44245">
        <ele>497</ele>
        <time>2015-04-20T13:35:14Z</time>
      </trkpt>
      <trkpt lat="46.13963" lon="2.44241">
        <ele>497</ele>
        <time>2015-04-20T13:35:17Z</time>
      </trkpt>
      <trkpt lat="46.1396" lon="2.44237">
        <ele>498</ele>
        <time>2015-04-20T13:35:19Z</time>
      </trkpt>
      <trkpt lat="46.13957" lon="2.44233">
        <ele>498</ele>
        <time>2015-04-20T13:35:22Z</time>
      </trkpt>
      <trkpt lat="46.13955" lon="2.44232">
        <ele>499</ele>
        <time>2015-04-20T13:35:24Z</time>
      </trkpt>
      <trkpt lat="46.13952" lon="2.4423">
        <ele>499</ele>
        <time>2015-04-20T13:35:26Z</time>
      </trkpt>
      <trkpt lat="46.13949" lon="2.44226">
        <ele>499</ele>
        <time>2015-04-20T13:35:29Z</time>
      </trkpt>
      <trkpt lat="46.13946" lon="2.44224">
        <ele>500</ele>
        <time>2015-04-20T13:35:31Z</time>
      </trkpt>
      <trkpt lat="46.13944" lon="2.44222">
        <ele>500</ele>
        <time>2015-04-20T13:35:33Z</time>
      </trkpt>
      <trkpt lat="46.13941" lon="2.44222">
        <ele>500</ele>
        <time>2015-04-20T13:35:35Z</time>
      </trkpt>
      <trkpt lat="46.13938" lon="2.44224">
        <ele>500</ele>
        <time>2015-04-20T13:35:37Z</time>
      </trkpt>
      <trkpt lat="46.13935" lon="2.44226">
        <ele>500</ele>
        <time>2015-04-20T13:35:39Z</time>
      </trkpt>
      <trkpt lat="46.13933" lon="2.44228">
        <ele>501</ele>
        <time>2015-04-20T13:35:41Z</time>
      </trkpt>
      <trkpt lat="46.13929" lon="2.44232">
        <ele>501</ele>
        <time>2015-04-20T13:35:45Z</time>
      </trkpt>
      <trkpt lat="46.13927" lon="2.44235">
        <ele>501</ele>
        <time>2015-04-20T13:35:47Z</time>
      </trkpt>
      <trkpt lat="46.13924" lon="2.44239">
        <ele>501</ele>
        <time>2015-04-20T13:35:50Z</time>
      </trkpt>
      <trkpt lat="46.13923" lon="2.44243">
        <ele>501</ele>
        <time>2015-04-20T13:35:52Z</time>
      </trkpt>
      <trkpt lat="46.13921" lon="2.44247">
        <ele>501</ele>
        <time>2015-04-20T13:35:55Z</time>
      </trkpt>
      <trkpt lat="46.13919" lon="2.44249">
        <ele>501</ele>
        <time>2015-04-20T13:35:57Z</time>
      </trkpt>
      <trkpt lat="46.13918" lon="2.44251">
        <ele>501</ele>
        <time>2015-04-20T13:35:59Z</time>
      </trkpt>
      <trkpt lat="46.13915" lon="2.44254">
        <ele>501</ele>
        <time>2015-04-20T13:36:02Z</time>
      </trkpt>
      <trkpt lat="46.13912" lon="2.44256">
        <ele>501</ele>
        <time>2015-04-20T13:36:04Z</time>
      </trkpt>
      <trkpt lat="46.1391" lon="2.44258">
        <ele>501</ele>
        <time>2015-04-20T13:36:06Z</time>
      </trkpt>
      <trkpt lat="46.13907" lon="2.44258">
        <ele>501</ele>
        <time>2015-04-20T13:36:08Z</time>
      </trkpt>
      <trkpt lat="46.13905" lon="2.44258">
        <ele>501</ele>
        <time>2015-04-20T13:36:10Z</time>
      </trkpt>
      <trkpt lat="46.13902" lon="2.4426">
        <ele>501</ele>
        <time>2015-04-20T13:36:12Z</time>
      </trkpt>
      <trkpt lat="46.139" lon="2.44262">
        <ele>501</ele>
        <time>2015-04-20T13:36:14Z</time>
      </trkpt>
      <trkpt lat="46.13897" lon="2.44262">
        <ele>501</ele>
        <time>2015-04-20T13:36:16Z</time>
      </trkpt>
      <trkpt lat="46.13894" lon="2.44262">
        <ele>501</ele>
        <time>2015-04-20T13:36:18Z</time>
      </trkpt>
      <trkpt lat="46.1389" lon="2.44261">
        <ele>501</ele>
        <time>2015-04-20T13:36:20Z</time>
      </trkpt>
      <trkpt lat="46.13888" lon="2.44261">
        <ele>501</ele>
        <time>2015-04-20T13:36:22Z</time>
      </trkpt>
      <trkpt lat="46.13886" lon="2.4426">
        <ele>501</ele>
        <time>2015-04-20T13:36:25Z</time>
      </trkpt>
      <trkpt lat="46.13882" lon="2.44257">
        <ele>501</ele>
        <time>2015-04-20T13:36:28Z</time>
      </trkpt>
      <trkpt lat="46.13879" lon="2.44256">
        <ele>501</ele>
        <time>2015-04-20T13:36:30Z</time>
      </trkpt>
      <trkpt lat="46.13876" lon="2.44253">
        <ele>501</ele>
        <time>2015-04-20T13:36:32Z</time>
      </trkpt>
      <trkpt lat="46.13872" lon="2.4425">
        <ele>503</ele>
        <time>2015-04-20T13:36:35Z</time>
      </trkpt>
      <trkpt lat="46.13869" lon="2.44247">
        <ele>505</ele>
        <time>2015-04-20T13:36:37Z</time>
      </trkpt>
      <trkpt lat="46.13867" lon="2.44246">
        <ele>505</ele>
        <time>2015-04-20T13:36:39Z</time>
      </trkpt>
      <trkpt lat="46.13863" lon="2.44246">
        <ele>506</ele>
        <time>2015-04-20T13:36:42Z</time>
      </trkpt>
      <trkpt lat="46.1386" lon="2.44244">
        <ele>506</ele>
        <time>2015-04-20T13:36:44Z</time>
      </trkpt>
      <trkpt lat="46.13857" lon="2.44243">
        <ele>507</ele>
        <time>2015-04-20T13:36:46Z</time>
      </trkpt>
      <trkpt lat="46.13853" lon="2.44239">
        <ele>508</ele>
        <time>2015-04-20T13:36:49Z</time>
      </trkpt>
      <trkpt lat="46.1385" lon="2.44238">
        <ele>510</ele>
        <time>2015-04-20T13:36:51Z</time>
      </trkpt>
      <trkpt lat="46.13847" lon="2.44236">
        <ele>511</ele>
        <time>2015-04-20T13:36:53Z</time>
      </trkpt>
      <trkpt lat="46.13844" lon="2.44237">
        <ele>513</ele>
        <time>2015-04-20T13:36:55Z</time>
      </trkpt>
      <trkpt lat="46.13842" lon="2.44238">
        <ele>513</ele>
        <time>2015-04-20T13:36:57Z</time>
      </trkpt>
      <trkpt lat="46.13837" lon="2.44243">
        <ele>513</ele>
        <time>2015-04-20T13:37:01Z</time>
      </trkpt>
      <trkpt lat="46.13836" lon="2.44247">
        <ele>513</ele>
        <time>2015-04-20T13:37:03Z</time>
      </trkpt>
      <trkpt lat="46.13833" lon="2.44252">
        <ele>513</ele>
        <time>2015-04-20T13:37:06Z</time>
      </trkpt>
      <trkpt lat="46.13829" lon="2.44255">
        <ele>513</ele>
        <time>2015-04-20T13:37:09Z</time>
      </trkpt>
      <trkpt lat="46.13828" lon="2.44258">
        <ele>513</ele>
        <time>2015-04-20T13:37:11Z</time>
      </trkpt>
      <trkpt lat="46.13826" lon="2.4426">
        <ele>513</ele>
        <time>2015-04-20T13:37:13Z</time>
      </trkpt>
      <trkpt lat="46.13822" lon="2.44263">
        <ele>513</ele>
        <time>2015-04-20T13:37:16Z</time>
      </trkpt>
      <trkpt lat="46.13821" lon="2.44265">
        <ele>512</ele>
        <time>2015-04-20T13:37:18Z</time>
      </trkpt>
      <trkpt lat="46.13817" lon="2.44268">
        <ele>510</ele>
        <time>2015-04-20T13:37:22Z</time>
      </trkpt>
      <trkpt lat="46.13813" lon="2.4427">
        <ele>510</ele>
        <time>2015-04-20T13:37:25Z</time>
      </trkpt>
      <trkpt lat="46.1381" lon="2.44272">
        <ele>510</ele>
        <time>2015-04-20T13:37:27Z</time>
      </trkpt>
      <trkpt lat="46.13808" lon="2.44273">
        <ele>510</ele>
        <time>2015-04-20T13:37:29Z</time>
      </trkpt>
      <trkpt lat="46.13803" lon="2.44276">
        <ele>510</ele>
        <time>2015-04-20T13:37:32Z</time>
      </trkpt>
      <trkpt lat="46.13801" lon="2.44277">
        <ele>510</ele>
        <time>2015-04-20T13:37:34Z</time>
      </trkpt>
      <trkpt lat="46.13797" lon="2.44281">
        <ele>510</ele>
        <time>2015-04-20T13:37:37Z</time>
      </trkpt>
      <trkpt lat="46.13795" lon="2.44283">
        <ele>510</ele>
        <time>2015-04-20T13:37:39Z</time>
      </trkpt>
      <trkpt lat="46.13791" lon="2.44284">
        <ele>510</ele>
        <time>2015-04-20T13:37:42Z</time>
      </trkpt>
      <trkpt lat="46.13788" lon="2.44285">
        <ele>510</ele>
        <time>2015-04-20T13:37:44Z</time>
      </trkpt>
      <trkpt lat="46.13784" lon="2.44288">
        <ele>510</ele>
        <time>2015-04-20T13:37:47Z</time>
      </trkpt>
      <trkpt lat="46.13781" lon="2.44289">
        <ele>510</ele>
        <time>2015-04-20T13:37:49Z</time>
      </trkpt>
      <trkpt lat="46.13779" lon="2.4429">
        <ele>510</ele>
        <time>2015-04-20T13:37:51Z</time>
      </trkpt>
      <trkpt lat="46.13774" lon="2.4429">
        <ele>510</ele>
        <time>2015-04-20T13:37:54Z</time>
      </trkpt>
      <trkpt lat="46.13771" lon="2.44291">
        <ele>510</ele>
        <time>2015-04-20T13:37:56Z</time>
      </trkpt>
      <trkpt lat="46.13767" lon="2.44291">
        <ele>510</ele>
        <time>2015-04-20T13:37:58Z</time>
      </trkpt>
      <trkpt lat="46.13764" lon="2.44292">
        <ele>510</ele>
        <time>2015-04-20T13:38:00Z</time>
      </trkpt>
      <trkpt lat="46.13761" lon="2.44292">
        <ele>510</ele>
        <time>2015-04-20T13:38:02Z</time>
      </trkpt>
      <trkpt lat="46.13758" lon="2.44292">
        <ele>511</ele>
        <time>2015-04-20T13:38:04Z</time>
      </trkpt>
      <trkpt lat="46.13755" lon="2.44292">
        <ele>511</ele>
        <time>2015-04-20T13:38:06Z</time>
      </trkpt>
      <trkpt lat="46.13752" lon="2.44294">
        <ele>511</ele>
        <time>2015-04-20T13:38:09Z</time>
      </trkpt>
      <trkpt lat="46.13749" lon="2.44294">
        <ele>511</ele>
        <time>2015-04-20T13:38:12Z</time>
      </trkpt>
      <trkpt lat="46.13744" lon="2.44295">
        <ele>511</ele>
        <time>2015-04-20T13:38:15Z</time>
      </trkpt>
      <trkpt lat="46.13742" lon="2.44295">
        <ele>511</ele>
        <time>2015-04-20T13:38:17Z</time>
      </trkpt>
      <trkpt lat="46.1374" lon="2.44297">
        <ele>511</ele>
        <time>2015-04-20T13:38:19Z</time>
      </trkpt>
      <trkpt lat="46.13737" lon="2.44299">
        <ele>511</ele>
        <time>2015-04-20T13:38:22Z</time>
      </trkpt>
      <trkpt lat="46.13735" lon="2.44303">
        <ele>511</ele>
        <time>2015-04-20T13:38:25Z</time>
      </trkpt>
      <trkpt lat="46.13732" lon="2.44308">
        <ele>511</ele>
        <time>2015-04-20T13:38:28Z</time>
      </trkpt>
      <trkpt lat="46.1373" lon="2.44313">
        <ele>511</ele>
        <time>2015-04-20T13:38:31Z</time>
      </trkpt>
      <trkpt lat="46.13729" lon="2.44317">
        <ele>511</ele>
        <time>2015-04-20T13:38:33Z</time>
      </trkpt>
      <trkpt lat="46.13728" lon="2.44321">
        <ele>510</ele>
        <time>2015-04-20T13:38:35Z</time>
      </trkpt>
      <trkpt lat="46.13726" lon="2.44325">
        <ele>508</ele>
        <time>2015-04-20T13:38:37Z</time>
      </trkpt>
      <trkpt lat="46.13726" lon="2.4433">
        <ele>506</ele>
        <time>2015-04-20T13:38:39Z</time>
      </trkpt>
      <trkpt lat="46.13726" lon="2.44333">
        <ele>504</ele>
        <time>2015-04-20T13:38:41Z</time>
      </trkpt>
      <trkpt lat="46.13726" lon="2.44338">
        <ele>503</ele>
        <time>2015-04-20T13:38:44Z</time>
      </trkpt>
      <trkpt lat="46.13726" lon="2.44341">
        <ele>502</ele>
        <time>2015-04-20T13:38:46Z</time>
      </trkpt>
      <trkpt lat="46.13724" lon="2.44345">
        <ele>500</ele>
        <time>2015-04-20T13:38:49Z</time>
      </trkpt>
      <trkpt lat="46.13723" lon="2.44349">
        <ele>498</ele>
        <time>2015-04-20T13:38:51Z</time>
      </trkpt>
      <trkpt lat="46.13721" lon="2.44355">
        <ele>495</ele>
        <time>2015-04-20T13:38:55Z</time>
      </trkpt>
      <trkpt lat="46.1372" lon="2.44358">
        <ele>494</ele>
        <time>2015-04-20T13:38:57Z</time>
      </trkpt>
      <trkpt lat="46.13718" lon="2.4436">
        <ele>493</ele>
        <time>2015-04-20T13:38:59Z</time>
      </trkpt>
      <trkpt lat="46.13716" lon="2.44363">
        <ele>492</ele>
        <time>2015-04-20T13:39:01Z</time>
      </trkpt>
      <trkpt lat="46.13712" lon="2.44369">
        <ele>491</ele>
        <time>2015-04-20T13:39:05Z</time>
      </trkpt>
      <trkpt lat="46.13709" lon="2.44375">
        <ele>491</ele>
        <time>2015-04-20T13:39:08Z</time>
      </trkpt>
      <trkpt lat="46.13706" lon="2.44378">
        <ele>491</ele>
        <time>2015-04-20T13:39:10Z</time>
      </trkpt>
      <trkpt lat="46.13703" lon="2.44381">
        <ele>491</ele>
        <time>2015-04-20T13:39:12Z</time>
      </trkpt>
      <trkpt lat="46.137" lon="2.44385">
        <ele>491</ele>
        <time>2015-04-20T13:39:14Z</time>
      </trkpt>
      <trkpt lat="46.13697" lon="2.44387">
        <ele>492</ele>
        <time>2015-04-20T13:39:17Z</time>
      </trkpt>
      <trkpt lat="46.13692" lon="2.44389">
        <ele>493</ele>
        <time>2015-04-20T13:39:20Z</time>
      </trkpt>
      <trkpt lat="46.13689" lon="2.4439">
        <ele>494</ele>
        <time>2015-04-20T13:39:22Z</time>
      </trkpt>
      <trkpt lat="46.13682" lon="2.44393">
        <ele>495</ele>
        <time>2015-04-20T13:39:25Z</time>
      </trkpt>
      <trkpt lat="46.13679" lon="2.44394">
        <ele>496</ele>
        <time>2015-04-20T13:39:27Z</time>
      </trkpt>
      <trkpt lat="46.13674" lon="2.44395">
        <ele>499</ele>
        <time>2015-04-20T13:39:30Z</time>
      </trkpt>
      <trkpt lat="46.13671" lon="2.44396">
        <ele>499</ele>
        <time>2015-04-20T13:39:32Z</time>
      </trkpt>
      <trkpt lat="46.13666" lon="2.44394">
        <ele>500</ele>
        <time>2015-04-20T13:39:35Z</time>
      </trkpt>
      <trkpt lat="46.13663" lon="2.44392">
        <ele>500</ele>
        <time>2015-04-20T13:39:37Z</time>
      </trkpt>
      <trkpt lat="46.13658" lon="2.4439">
        <ele>502</ele>
        <time>2015-04-20T13:39:40Z</time>
      </trkpt>
      <trkpt lat="46.13654" lon="2.44389">
        <ele>503</ele>
        <time>2015-04-20T13:39:42Z</time>
      </trkpt>
      <trkpt lat="46.1365" lon="2.44386">
        <ele>505</ele>
        <time>2015-04-20T13:39:44Z</time>
      </trkpt>
      <trkpt lat="46.13647" lon="2.44386">
        <ele>508</ele>
        <time>2015-04-20T13:39:47Z</time>
      </trkpt>
      <trkpt lat="46.13645" lon="2.44387">
        <ele>509</ele>
        <time>2015-04-20T13:39:49Z</time>
      </trkpt>
      <trkpt lat="46.13643" lon="2.44386">
        <ele>509</ele>
        <time>2015-04-20T13:39:51Z</time>
      </trkpt>
      <trkpt lat="46.13638" lon="2.44384">
        <ele>509</ele>
        <time>2015-04-20T13:39:54Z</time>
      </trkpt>
      <trkpt lat="46.13635" lon="2.44383">
        <ele>509</ele>
        <time>2015-04-20T13:39:57Z</time>
      </trkpt>
      <trkpt lat="46.13632" lon="2.44381">
        <ele>509</ele>
        <time>2015-04-20T13:39:59Z</time>
      </trkpt>
      <trkpt lat="46.13629" lon="2.44381">
        <ele>509</ele>
        <time>2015-04-20T13:40:01Z</time>
      </trkpt>
      <trkpt lat="46.13624" lon="2.44377">
        <ele>509</ele>
        <time>2015-04-20T13:40:04Z</time>
      </trkpt>
      <trkpt lat="46.1362" lon="2.44375">
        <ele>509</ele>
        <time>2015-04-20T13:40:07Z</time>
      </trkpt>
      <trkpt lat="46.13618" lon="2.44374">
        <ele>509</ele>
        <time>2015-04-20T13:40:09Z</time>
      </trkpt>
      <trkpt lat="46.13615" lon="2.44372">
        <ele>509</ele>
        <time>2015-04-20T13:40:11Z</time>
      </trkpt>
      <trkpt lat="46.13612" lon="2.44371">
        <ele>509</ele>
        <time>2015-04-20T13:40:13Z</time>
      </trkpt>
      <trkpt lat="46.13609" lon="2.4437">
        <ele>509</ele>
        <time>2015-04-20T13:40:15Z</time>
      </trkpt>
      <trkpt lat="46.13604" lon="2.44369">
        <ele>509</ele>
        <time>2015-04-20T13:40:18Z</time>
      </trkpt>
      <trkpt lat="46.13602" lon="2.44367">
        <ele>509</ele>
        <time>2015-04-20T13:40:20Z</time>
      </trkpt>
      <trkpt lat="46.13599" lon="2.44366">
        <ele>509</ele>
        <time>2015-04-20T13:40:22Z</time>
      </trkpt>
      <trkpt lat="46.13596" lon="2.44365">
        <ele>509</ele>
        <time>2015-04-20T13:40:24Z</time>
      </trkpt>
      <trkpt lat="46.13591" lon="2.44365">
        <ele>509</ele>
        <time>2015-04-20T13:40:27Z</time>
      </trkpt>
      <trkpt lat="46.13585" lon="2.44362">
        <ele>509</ele>
        <time>2015-04-20T13:40:30Z</time>
      </trkpt>
      <trkpt lat="46.13581" lon="2.44362">
        <ele>509</ele>
        <time>2015-04-20T13:40:32Z</time>
      </trkpt>
      <trkpt lat="46.13579" lon="2.44363">
        <ele>509</ele>
        <time>2015-04-20T13:40:35Z</time>
      </trkpt>
      <trkpt lat="46.13576" lon="2.44363">
        <ele>509</ele>
        <time>2015-04-20T13:40:37Z</time>
      </trkpt>
      <trkpt lat="46.13573" lon="2.44361">
        <ele>509</ele>
        <time>2015-04-20T13:40:40Z</time>
      </trkpt>
      <trkpt lat="46.1357" lon="2.44361">
        <ele>508</ele>
        <time>2015-04-20T13:40:43Z</time>
      </trkpt>
      <trkpt lat="46.13565" lon="2.44357">
        <ele>508</ele>
        <time>2015-04-20T13:40:47Z</time>
      </trkpt>
      <trkpt lat="46.13562" lon="2.44355">
        <ele>508</ele>
        <time>2015-04-20T13:40:49Z</time>
      </trkpt>
      <trkpt lat="46.1356" lon="2.44353">
        <ele>508</ele>
        <time>2015-04-20T13:40:51Z</time>
      </trkpt>
      <trkpt lat="46.13556" lon="2.44351">
        <ele>508</ele>
        <time>2015-04-20T13:40:54Z</time>
      </trkpt>
      <trkpt lat="46.13553" lon="2.44349">
        <ele>508</ele>
        <time>2015-04-20T13:40:57Z</time>
      </trkpt>
      <trkpt lat="46.1355" lon="2.44347">
        <ele>508</ele>
        <time>2015-04-20T13:41:00Z</time>
      </trkpt>
      <trkpt lat="46.13545" lon="2.44342">
        <ele>508</ele>
        <time>2015-04-20T13:41:03Z</time>
      </trkpt>
      <trkpt lat="46.13543" lon="2.4434">
        <ele>508</ele>
        <time>2015-04-20T13:41:05Z</time>
      </trkpt>
      <trkpt lat="46.1354" lon="2.44338">
        <ele>508</ele>
        <time>2015-04-20T13:41:07Z</time>
      </trkpt>
      <trkpt lat="46.13538" lon="2.44335">
        <ele>508</ele>
        <time>2015-04-20T13:41:09Z</time>
      </trkpt>
      <trkpt lat="46.13535" lon="2.44333">
        <ele>508</ele>
        <time>2015-04-20T13:41:11Z</time>
      </trkpt>
      <trkpt lat="46.13532" lon="2.44333">
        <ele>508</ele>
        <time>2015-04-20T13:41:13Z</time>
      </trkpt>
      <trkpt lat="46.1353" lon="2.44333">
        <ele>509</ele>
        <time>2015-04-20T13:41:15Z</time>
      </trkpt>
      <trkpt lat="46.13526" lon="2.44332">
        <ele>510</ele>
        <time>2015-04-20T13:41:18Z</time>
      </trkpt>
      <trkpt lat="46.13524" lon="2.44332">
        <ele>511</ele>
        <time>2015-04-20T13:41:20Z</time>
      </trkpt>
      <trkpt lat="46.13522" lon="2.44332">
        <ele>511</ele>
        <time>2015-04-20T13:41:22Z</time>
      </trkpt>
      <trkpt lat="46.13518" lon="2.44329">
        <ele>511</ele>
        <time>2015-04-20T13:41:26Z</time>
      </trkpt>
      <trkpt lat="46.13516" lon="2.44327">
        <ele>511</ele>
        <time>2015-04-20T13:41:28Z</time>
      </trkpt>
      <trkpt lat="46.13512" lon="2.44324">
        <ele>511</ele>
        <time>2015-04-20T13:41:32Z</time>
      </trkpt>
      <trkpt lat="46.13509" lon="2.44322">
        <ele>511</ele>
        <time>2015-04-20T13:41:35Z</time>
      </trkpt>
      <trkpt lat="46.13505" lon="2.4432">
        <ele>511</ele>
        <time>2015-04-20T13:41:38Z</time>
      </trkpt>
      <trkpt lat="46.13503" lon="2.44319">
        <ele>511</ele>
        <time>2015-04-20T13:41:40Z</time>
      </trkpt>
      <trkpt lat="46.13501" lon="2.44317">
        <ele>511</ele>
        <time>2015-04-20T13:41:42Z</time>
      </trkpt>
      <trkpt lat="46.13498" lon="2.44316">
        <ele>511</ele>
        <time>2015-04-20T13:41:44Z</time>
      </trkpt>
      <trkpt lat="46.13495" lon="2.44316">
        <ele>511</ele>
        <time>2015-04-20T13:41:46Z</time>
      </trkpt>
      <trkpt lat="46.13492" lon="2.44317">
        <ele>511</ele>
        <time>2015-04-20T13:41:48Z</time>
      </trkpt>
      <trkpt lat="46.13489" lon="2.44318">
        <ele>511</ele>
        <time>2015-04-20T13:41:50Z</time>
      </trkpt>
      <trkpt lat="46.13486" lon="2.44319">
        <ele>511</ele>
        <time>2015-04-20T13:41:52Z</time>
      </trkpt>
      <trkpt lat="46.13483" lon="2.44321">
        <ele>511</ele>
        <time>2015-04-20T13:41:55Z</time>
      </trkpt>
      <trkpt lat="46.1348" lon="2.44322">
        <ele>510</ele>
        <time>2015-04-20T13:41:57Z</time>
      </trkpt>
      <trkpt lat="46.13478" lon="2.44323">
        <ele>510</ele>
        <time>2015-04-20T13:41:59Z</time>
      </trkpt>
      <trkpt lat="46.13474" lon="2.44322">
        <ele>510</ele>
        <time>2015-04-20T13:42:02Z</time>
      </trkpt>
      <trkpt lat="46.13471" lon="2.44321">
        <ele>510</ele>
        <time>2015-04-20T13:42:04Z</time>
      </trkpt>
      <trkpt lat="46.13467" lon="2.44322">
        <ele>510</ele>
        <time>2015-04-20T13:42:07Z</time>
      </trkpt>
      <trkpt lat="46.13464" lon="2.44322">
        <ele>510</ele>
        <time>2015-04-20T13:42:09Z</time>
      </trkpt>
      <trkpt lat="46.13461" lon="2.44322">
        <ele>510</ele>
        <time>2015-04-20T13:42:11Z</time>
      </trkpt>
      <trkpt lat="46.13458" lon="2.44322">
        <ele>510</ele>
        <time>2015-04-20T13:42:13Z</time>
      </trkpt>
      <trkpt lat="46.13455" lon="2.44322">
        <ele>510</ele>
        <time>2015-04-20T13:42:15Z</time>
      </trkpt>
      <trkpt lat="46.13454" lon="2.44323">
        <ele>510</ele>
        <time>2015-04-20T13:42:17Z</time>
      </trkpt>
      <trkpt lat="46.13452" lon="2.44323">
        <ele>510</ele>
        <time>2015-04-20T13:42:19Z</time>
      </trkpt>
      <trkpt lat="46.1345" lon="2.44323">
        <ele>510</ele>
        <time>2015-04-20T13:42:21Z</time>
      </trkpt>
      <trkpt lat="46.13447" lon="2.44322">
        <ele>510</ele>
        <time>2015-04-20T13:42:23Z</time>
      </trkpt>
      <trkpt lat="46.13443" lon="2.44322">
        <ele>510</ele>
        <time>2015-04-20T13:42:26Z</time>
      </trkpt>
      <trkpt lat="46.13441" lon="2.44323">
        <ele>510</ele>
        <time>2015-04-20T13:42:28Z</time>
      </trkpt>
      <trkpt lat="46.13438" lon="2.44322">
        <ele>509</ele>
        <time>2015-04-20T13:42:30Z</time>
      </trkpt>
      <trkpt lat="46.13435" lon="2.44322">
        <ele>508</ele>
        <time>2015-04-20T13:42:33Z</time>
      </trkpt>
      <trkpt lat="46.13433" lon="2.44323">
        <ele>508</ele>
        <time>2015-04-20T13:42:35Z</time>
      </trkpt>
      <trkpt lat="46.1343" lon="2.44322">
        <ele>508</ele>
        <time>2015-04-20T13:42:37Z</time>
      </trkpt>
      <trkpt lat="46.13427" lon="2.44322">
        <ele>508</ele>
        <time>2015-04-20T13:42:39Z</time>
      </trkpt>
      <trkpt lat="46.13425" lon="2.44323">
        <ele>508</ele>
        <time>2015-04-20T13:42:41Z</time>
      </trkpt>
      <trkpt lat="46.13421" lon="2.4433">
        <ele>512</ele>
        <time>2015-04-20T13:42:46Z</time>
      </trkpt>
      <trkpt lat="46.13419" lon="2.4433">
        <ele>513</ele>
        <time>2015-04-20T13:42:48Z</time>
      </trkpt>
      <trkpt lat="46.13417" lon="2.44328">
        <ele>513</ele>
        <time>2015-04-20T13:42:50Z</time>
      </trkpt>
      <trkpt lat="46.13414" lon="2.44328">
        <ele>513</ele>
        <time>2015-04-20T13:42:52Z</time>
      </trkpt>
      <trkpt lat="46.13411" lon="2.44327">
        <ele>513</ele>
        <time>2015-04-20T13:42:54Z</time>
      </trkpt>
      <trkpt lat="46.13408" lon="2.44328">
        <ele>513</ele>
        <time>2015-04-20T13:42:56Z</time>
      </trkpt>
      <trkpt lat="46.13403" lon="2.44331">
        <ele>510</ele>
        <time>2015-04-20T13:43:00Z</time>
      </trkpt>
      <trkpt lat="46.134" lon="2.44333">
        <ele>508</ele>
        <time>2015-04-20T13:43:03Z</time>
      </trkpt>
      <trkpt lat="46.13397" lon="2.44335">
        <ele>507</ele>
        <time>2015-04-20T13:43:05Z</time>
      </trkpt>
      <trkpt lat="46.13394" lon="2.44336">
        <ele>506</ele>
        <time>2015-04-20T13:43:07Z</time>
      </trkpt>
      <trkpt lat="46.13391" lon="2.44337">
        <ele>505</ele>
        <time>2015-04-20T13:43:09Z</time>
      </trkpt>
      <trkpt lat="46.13388" lon="2.44338">
        <ele>505</ele>
        <time>2015-04-20T13:43:12Z</time>
      </trkpt>
      <trkpt lat="46.13386" lon="2.44339">
        <ele>504</ele>
        <time>2015-04-20T13:43:14Z</time>
      </trkpt>
      <trkpt lat="46.13384" lon="2.44341">
        <ele>503</ele>
        <time>2015-04-20T13:43:16Z</time>
      </trkpt>
      <trkpt lat="46.13381" lon="2.44343">
        <ele>502</ele>
        <time>2015-04-20T13:43:18Z</time>
      </trkpt>
      <trkpt lat="46.13379" lon="2.44346">
        <ele>501</ele>
        <time>2015-04-20T13:43:20Z</time>
      </trkpt>
      <trkpt lat="46.13375" lon="2.4435">
        <ele>499</ele>
        <time>2015-04-20T13:43:23Z</time>
      </trkpt>
      <trkpt lat="46.13373" lon="2.44352">
        <ele>499</ele>
        <time>2015-04-20T13:43:25Z</time>
      </trkpt>
      <trkpt lat="46.13369" lon="2.44355">
        <ele>498</ele>
        <time>2015-04-20T13:43:28Z</time>
      </trkpt>
      <trkpt lat="46.13366" lon="2.44357">
        <ele>497</ele>
        <time>2015-04-20T13:43:30Z</time>
      </trkpt>
      <trkpt lat="46.13362" lon="2.4436">
        <ele>496</ele>
        <time>2015-04-20T13:43:32Z</time>
      </trkpt>
      <trkpt lat="46.13359" lon="2.44363">
        <ele>496</ele>
        <time>2015-04-20T13:43:34Z</time>
      </trkpt>
      <trkpt lat="46.13354" lon="2.44366">
        <ele>495</ele>
        <time>2015-04-20T13:43:37Z</time>
      </trkpt>
      <trkpt lat="46.13353" lon="2.44368">
        <ele>495</ele>
        <time>2015-04-20T13:43:39Z</time>
      </trkpt>
      <trkpt lat="46.13351" lon="2.44369">
        <ele>495</ele>
        <time>2015-04-20T13:43:42Z</time>
      </trkpt>
      <trkpt lat="46.13348" lon="2.44372">
        <ele>495</ele>
        <time>2015-04-20T13:43:44Z</time>
      </trkpt>
      <trkpt lat="46.13344" lon="2.44374">
        <ele>495</ele>
        <time>2015-04-20T13:43:47Z</time>
      </trkpt>
      <trkpt lat="46.13341" lon="2.44376">
        <ele>494</ele>
        <time>2015-04-20T13:43:49Z</time>
      </trkpt>
      <trkpt lat="46.13339" lon="2.44378">
        <ele>494</ele>
        <time>2015-04-20T13:43:51Z</time>
      </trkpt>
      <trkpt lat="46.13336" lon="2.44381">
        <ele>494</ele>
        <time>2015-04-20T13:43:53Z</time>
      </trkpt>
      <trkpt lat="46.13333" lon="2.44382">
        <ele>494</ele>
        <time>2015-04-20T13:43:55Z</time>
      </trkpt>
      <trkpt lat="46.1333" lon="2.44384">
        <ele>494</ele>
        <time>2015-04-20T13:43:57Z</time>
      </trkpt>
      <trkpt lat="46.13327" lon="2.44387">
        <ele>494</ele>
        <time>2015-04-20T13:44:00Z</time>
      </trkpt>
      <trkpt lat="46.13325" lon="2.44389">
        <ele>494</ele>
        <time>2015-04-20T13:44:02Z</time>
      </trkpt>
      <trkpt lat="46.13321" lon="2.44392">
        <ele>494</ele>
        <time>2015-04-20T13:44:05Z</time>
      </trkpt>
      <trkpt lat="46.13318" lon="2.44394">
        <ele>494</ele>
        <time>2015-04-20T13:44:07Z</time>
      </trkpt>
      <trkpt lat="46.13315" lon="2.44398">
        <ele>494</ele>
        <time>2015-04-20T13:44:09Z</time>
      </trkpt>
      <trkpt lat="46.13313" lon="2.44402">
        <ele>494</ele>
        <time>2015-04-20T13:44:11Z</time>
      </trkpt>
      <trkpt lat="46.13311" lon="2.44407">
        <ele>494</ele>
        <time>2015-04-20T13:44:13Z</time>
      </trkpt>
      <trkpt lat="46.1331" lon="2.4441">
        <ele>494</ele>
        <time>2015-04-20T13:44:15Z</time>
      </trkpt>
      <trkpt lat="46.13309" lon="2.44412">
        <ele>494</ele>
        <time>2015-04-20T13:44:17Z</time>
      </trkpt>
      <trkpt lat="46.13306" lon="2.44418">
        <ele>494</ele>
        <time>2015-04-20T13:44:20Z</time>
      </trkpt>
      <trkpt lat="46.13305" lon="2.44423">
        <ele>493</ele>
        <time>2015-04-20T13:44:23Z</time>
      </trkpt>
      <trkpt lat="46.13303" lon="2.44427">
        <ele>493</ele>
        <time>2015-04-20T13:44:25Z</time>
      </trkpt>
      <trkpt lat="46.13301" lon="2.4443">
        <ele>492</ele>
        <time>2015-04-20T13:44:27Z</time>
      </trkpt>
      <trkpt lat="46.133" lon="2.44435">
        <ele>491</ele>
        <time>2015-04-20T13:44:30Z</time>
      </trkpt>
      <trkpt lat="46.13298" lon="2.44438">
        <ele>490</ele>
        <time>2015-04-20T13:44:32Z</time>
      </trkpt>
      <trkpt lat="46.13296" lon="2.44442">
        <ele>490</ele>
        <time>2015-04-20T13:44:34Z</time>
      </trkpt>
      <trkpt lat="46.13294" lon="2.44444">
        <ele>490</ele>
        <time>2015-04-20T13:44:36Z</time>
      </trkpt>
      <trkpt lat="46.13292" lon="2.44446">
        <ele>490</ele>
        <time>2015-04-20T13:44:38Z</time>
      </trkpt>
      <trkpt lat="46.13291" lon="2.44448">
        <ele>489</ele>
        <time>2015-04-20T13:44:40Z</time>
      </trkpt>
      <trkpt lat="46.13288" lon="2.44453">
        <ele>489</ele>
        <time>2015-04-20T13:44:43Z</time>
      </trkpt>
      <trkpt lat="46.13285" lon="2.44457">
        <ele>489</ele>
        <time>2015-04-20T13:44:45Z</time>
      </trkpt>
      <trkpt lat="46.13282" lon="2.4446">
        <ele>489</ele>
        <time>2015-04-20T13:44:47Z</time>
      </trkpt>
      <trkpt lat="46.13279" lon="2.44463">
        <ele>489</ele>
        <time>2015-04-20T13:44:49Z</time>
      </trkpt>
      <trkpt lat="46.13277" lon="2.44466">
        <ele>489</ele>
        <time>2015-04-20T13:44:51Z</time>
      </trkpt>
      <trkpt lat="46.13275" lon="2.44469">
        <ele>489</ele>
        <time>2015-04-20T13:44:53Z</time>
      </trkpt>
      <trkpt lat="46.13273" lon="2.44473">
        <ele>489</ele>
        <time>2015-04-20T13:44:55Z</time>
      </trkpt>
      <trkpt lat="46.13271" lon="2.44476">
        <ele>489</ele>
        <time>2015-04-20T13:44:57Z</time>
      </trkpt>
      <trkpt lat="46.13268" lon="2.44479">
        <ele>489</ele>
        <time>2015-04-20T13:44:59Z</time>
      </trkpt>
      <trkpt lat="46.13266" lon="2.44481">
        <ele>489</ele>
        <time>2015-04-20T13:45:01Z</time>
      </trkpt>
      <trkpt lat="46.13263" lon="2.44482">
        <ele>489</ele>
        <time>2015-04-20T13:45:03Z</time>
      </trkpt>
      <trkpt lat="46.1326" lon="2.44483">
        <ele>489</ele>
        <time>2015-04-20T13:45:05Z</time>
      </trkpt>
      <trkpt lat="46.13257" lon="2.44485">
        <ele>489</ele>
        <time>2015-04-20T13:45:08Z</time>
      </trkpt>
      <trkpt lat="46.13254" lon="2.44486">
        <ele>489</ele>
        <time>2015-04-20T13:45:11Z</time>
      </trkpt>
      <trkpt lat="46.13251" lon="2.44487">
        <ele>489</ele>
        <time>2015-04-20T13:45:13Z</time>
      </trkpt>
      <trkpt lat="46.13248" lon="2.44486">
        <ele>489</ele>
        <time>2015-04-20T13:45:15Z</time>
      </trkpt>
      <trkpt lat="46.13245" lon="2.44487">
        <ele>489</ele>
        <time>2015-04-20T13:45:17Z</time>
      </trkpt>
      <trkpt lat="46.13243" lon="2.44488">
        <ele>489</ele>
        <time>2015-04-20T13:45:19Z</time>
      </trkpt>
      <trkpt lat="46.13239" lon="2.44489">
        <ele>489</ele>
        <time>2015-04-20T13:45:21Z</time>
      </trkpt>
      <trkpt lat="46.13236" lon="2.44489">
        <ele>489</ele>
        <time>2015-04-20T13:45:23Z</time>
      </trkpt>
      <trkpt lat="46.13233" lon="2.4449">
        <ele>489</ele>
        <time>2015-04-20T13:45:25Z</time>
      </trkpt>
      <trkpt lat="46.13229" lon="2.44492">
        <ele>489</ele>
        <time>2015-04-20T13:45:28Z</time>
      </trkpt>
      <trkpt lat="46.13226" lon="2.44493">
        <ele>489</ele>
        <time>2015-04-20T13:45:30Z</time>
      </trkpt>
      <trkpt lat="46.13224" lon="2.44494">
        <ele>489</ele>
        <time>2015-04-20T13:45:32Z</time>
      </trkpt>
      <trkpt lat="46.13221" lon="2.44495">
        <ele>489</ele>
        <time>2015-04-20T13:45:34Z</time>
      </trkpt>
      <trkpt lat="46.13218" lon="2.44498">
        <ele>489</ele>
        <time>2015-04-20T13:45:37Z</time>
      </trkpt>
      <trkpt lat="46.13215" lon="2.44498">
        <ele>489</ele>
        <time>2015-04-20T13:45:39Z</time>
      </trkpt>
      <trkpt lat="46.13212" lon="2.44499">
        <ele>489</ele>
        <time>2015-04-20T13:45:41Z</time>
      </trkpt>
      <trkpt lat="46.13209" lon="2.44501">
        <ele>488</ele>
        <time>2015-04-20T13:45:43Z</time>
      </trkpt>
      <trkpt lat="46.13206" lon="2.44502">
        <ele>488</ele>
        <time>2015-04-20T13:45:45Z</time>
      </trkpt>
      <trkpt lat="46.13203" lon="2.44504">
        <ele>487</ele>
        <time>2015-04-20T13:45:47Z</time>
      </trkpt>
      <trkpt lat="46.13199" lon="2.44506">
        <ele>487</ele>
        <time>2015-04-20T13:45:49Z</time>
      </trkpt>
      <trkpt lat="46.13197" lon="2.44508">
        <ele>487</ele>
        <time>2015-04-20T13:45:51Z</time>
      </trkpt>
      <trkpt lat="46.13194" lon="2.44509">
        <ele>486</ele>
        <time>2015-04-20T13:45:53Z</time>
      </trkpt>
      <trkpt lat="46.13192" lon="2.44512">
        <ele>486</ele>
        <time>2015-04-20T13:45:55Z</time>
      </trkpt>
      <trkpt lat="46.13189" lon="2.44514">
        <ele>485</ele>
        <time>2015-04-20T13:45:57Z</time>
      </trkpt>
      <trkpt lat="46.13187" lon="2.44515">
        <ele>485</ele>
        <time>2015-04-20T13:45:59Z</time>
      </trkpt>
      <trkpt lat="46.13185" lon="2.44517">
        <ele>485</ele>
        <time>2015-04-20T13:46:01Z</time>
      </trkpt>
      <trkpt lat="46.13182" lon="2.44519">
        <ele>485</ele>
        <time>2015-04-20T13:46:04Z</time>
      </trkpt>
      <trkpt lat="46.13179" lon="2.44524">
        <ele>484</ele>
        <time>2015-04-20T13:46:08Z</time>
      </trkpt>
      <trkpt lat="46.13175" lon="2.44528">
        <ele>483</ele>
        <time>2015-04-20T13:46:11Z</time>
      </trkpt>
      <trkpt lat="46.13174" lon="2.44531">
        <ele>483</ele>
        <time>2015-04-20T13:46:13Z</time>
      </trkpt>
      <trkpt lat="46.13171" lon="2.44534">
        <ele>482</ele>
        <time>2015-04-20T13:46:15Z</time>
      </trkpt>
      <trkpt lat="46.13169" lon="2.44538">
        <ele>482</ele>
        <time>2015-04-20T13:46:17Z</time>
      </trkpt>
      <trkpt lat="46.13168" lon="2.44541">
        <ele>482</ele>
        <time>2015-04-20T13:46:19Z</time>
      </trkpt>
      <trkpt lat="46.13166" lon="2.44544">
        <ele>482</ele>
        <time>2015-04-20T13:46:21Z</time>
      </trkpt>
      <trkpt lat="46.13165" lon="2.44549">
        <ele>482</ele>
        <time>2015-04-20T13:46:24Z</time>
      </trkpt>
      <trkpt lat="46.13163" lon="2.44554">
        <ele>482</ele>
        <time>2015-04-20T13:46:27Z</time>
      </trkpt>
      <trkpt lat="46.13162" lon="2.44557">
        <ele>482</ele>
        <time>2015-04-20T13:46:29Z</time>
      </trkpt>
      <trkpt lat="46.13161" lon="2.44562">
        <ele>481</ele>
        <time>2015-04-20T13:46:32Z</time>
      </trkpt>
      <trkpt lat="46.1316" lon="2.44566">
        <ele>481</ele>
        <time>2015-04-20T13:46:34Z</time>
      </trkpt>
      <trkpt lat="46.13159" lon="2.4457">
        <ele>481</ele>
        <time>2015-04-20T13:46:37Z</time>
      </trkpt>
      <trkpt lat="46.13158" lon="2.44575">
        <ele>480</ele>
        <time>2015-04-20T13:46:40Z</time>
      </trkpt>
      <trkpt lat="46.13156" lon="2.4458">
        <ele>480</ele>
        <time>2015-04-20T13:46:43Z</time>
      </trkpt>
      <trkpt lat="46.13155" lon="2.44583">
        <ele>480</ele>
        <time>2015-04-20T13:46:45Z</time>
      </trkpt>
      <trkpt lat="46.13154" lon="2.44586">
        <ele>480</ele>
        <time>2015-04-20T13:46:47Z</time>
      </trkpt>
      <trkpt lat="46.13154" lon="2.4459">
        <ele>479</ele>
        <time>2015-04-20T13:46:49Z</time>
      </trkpt>
      <trkpt lat="46.13153" lon="2.44593">
        <ele>479</ele>
        <time>2015-04-20T13:46:51Z</time>
      </trkpt>
      <trkpt lat="46.13153" lon="2.44596">
        <ele>479</ele>
        <time>2015-04-20T13:46:53Z</time>
      </trkpt>
      <trkpt lat="46.13152" lon="2.44599">
        <ele>479</ele>
        <time>2015-04-20T13:46:55Z</time>
      </trkpt>
      <trkpt lat="46.13152" lon="2.44603">
        <ele>479</ele>
        <time>2015-04-20T13:46:57Z</time>
      </trkpt>
      <trkpt lat="46.13152" lon="2.44606">
        <ele>479</ele>
        <time>2015-04-20T13:46:59Z</time>
      </trkpt>
      <trkpt lat="46.13153" lon="2.44612">
        <ele>479</ele>
        <time>2015-04-20T13:47:02Z</time>
      </trkpt>
      <trkpt lat="46.13152" lon="2.44616">
        <ele>479</ele>
        <time>2015-04-20T13:47:04Z</time>
      </trkpt>
      <trkpt lat="46.13151" lon="2.44621">
        <ele>478</ele>
        <time>2015-04-20T13:47:07Z</time>
      </trkpt>
      <trkpt lat="46.1315" lon="2.44624">
        <ele>478</ele>
        <time>2015-04-20T13:47:09Z</time>
      </trkpt>
      <trkpt lat="46.13149" lon="2.44628">
        <ele>478</ele>
        <time>2015-04-20T13:47:11Z</time>
      </trkpt>
      <trkpt lat="46.13149" lon="2.44631">
        <ele>478</ele>
        <time>2015-04-20T13:47:13Z</time>
      </trkpt>
      <trkpt lat="46.13148" lon="2.44635">
        <ele>478</ele>
        <time>2015-04-20T13:47:15Z</time>
      </trkpt>
      <trkpt lat="46.13147" lon="2.44639">
        <ele>478</ele>
        <time>2015-04-20T13:47:17Z</time>
      </trkpt>
      <trkpt lat="46.13146" lon="2.44643">
        <ele>478</ele>
        <time>2015-04-20T13:47:19Z</time>
      </trkpt>
      <trkpt lat="46.13145" lon="2.44648">
        <ele>478</ele>
        <time>2015-04-20T13:47:21Z</time>
      </trkpt>
      <trkpt lat="46.13144" lon="2.44651">
        <ele>478</ele>
        <time>2015-04-20T13:47:23Z</time>
      </trkpt>
      <trkpt lat="46.13143" lon="2.44654">
        <ele>478</ele>
        <time>2015-04-20T13:47:25Z</time>
      </trkpt>
      <trkpt lat="46.1314" lon="2.44658">
        <ele>478</ele>
        <time>2015-04-20T13:47:28Z</time>
      </trkpt>
      <trkpt lat="46.13139" lon="2.44662">
        <ele>478</ele>
        <time>2015-04-20T13:47:30Z</time>
      </trkpt>
      <trkpt lat="46.13138" lon="2.44666">
        <ele>478</ele>
        <time>2015-04-20T13:47:32Z</time>
      </trkpt>
      <trkpt lat="46.13137" lon="2.44669">
        <ele>478</ele>
        <time>2015-04-20T13:47:34Z</time>
      </trkpt>
      <trkpt lat="46.13137" lon="2.44673">
        <ele>479</ele>
        <time>2015-04-20T13:47:36Z</time>
      </trkpt>
      <trkpt lat="46.13135" lon="2.44676">
        <ele>479</ele>
        <time>2015-04-20T13:47:38Z</time>
      </trkpt>
      <trkpt lat="46.13132" lon="2.44678">
        <ele>480</ele>
        <time>2015-04-20T13:47:40Z</time>
      </trkpt>
      <trkpt lat="46.1313" lon="2.4468">
        <ele>481</ele>
        <time>2015-04-20T13:47:42Z</time>
      </trkpt>
      <trkpt lat="46.13128" lon="2.4468">
        <ele>482</ele>
        <time>2015-04-20T13:47:44Z</time>
      </trkpt>
      <trkpt lat="46.13125" lon="2.4468">
        <ele>482</ele>
        <time>2015-04-20T13:47:46Z</time>
      </trkpt>
      <trkpt lat="46.13121" lon="2.44679">
        <ele>483</ele>
        <time>2015-04-20T13:47:49Z</time>
      </trkpt>
      <trkpt lat="46.13118" lon="2.44679">
        <ele>483</ele>
        <time>2015-04-20T13:47:51Z</time>
      </trkpt>
      <trkpt lat="46.13116" lon="2.44678">
        <ele>483</ele>
        <time>2015-04-20T13:47:53Z</time>
      </trkpt>
      <trkpt lat="46.13113" lon="2.44677">
        <ele>484</ele>
        <time>2015-04-20T13:47:55Z</time>
      </trkpt>
      <trkpt lat="46.13111" lon="2.44676">
        <ele>484</ele>
        <time>2015-04-20T13:47:57Z</time>
      </trkpt>
      <trkpt lat="46.13108" lon="2.44676">
        <ele>485</ele>
        <time>2015-04-20T13:47:59Z</time>
      </trkpt>
      <trkpt lat="46.13105" lon="2.44675">
        <ele>485</ele>
        <time>2015-04-20T13:48:01Z</time>
      </trkpt>
      <trkpt lat="46.13102" lon="2.44674">
        <ele>485</ele>
        <time>2015-04-20T13:48:04Z</time>
      </trkpt>
      <trkpt lat="46.13099" lon="2.44673">
        <ele>485</ele>
        <time>2015-04-20T13:48:06Z</time>
      </trkpt>
      <trkpt lat="46.13096" lon="2.44672">
        <ele>485</ele>
        <time>2015-04-20T13:48:08Z</time>
      </trkpt>
      <trkpt lat="46.13093" lon="2.44672">
        <ele>485</ele>
        <time>2015-04-20T13:48:10Z</time>
      </trkpt>
      <trkpt lat="46.1309" lon="2.44672">
        <ele>485</ele>
        <time>2015-04-20T13:48:12Z</time>
      </trkpt>
      <trkpt lat="46.13087" lon="2.44671">
        <ele>485</ele>
        <time>2015-04-20T13:48:14Z</time>
      </trkpt>
      <trkpt lat="46.13084" lon="2.44671">
        <ele>485</ele>
        <time>2015-04-20T13:48:16Z</time>
      </trkpt>
      <trkpt lat="46.13081" lon="2.4467">
        <ele>485</ele>
        <time>2015-04-20T13:48:18Z</time>
      </trkpt>
      <trkpt lat="46.13079" lon="2.44669">
        <ele>485</ele>
        <time>2015-04-20T13:48:20Z</time>
      </trkpt>
      <trkpt lat="46.13076" lon="2.44668">
        <ele>485</ele>
        <time>2015-04-20T13:48:22Z</time>
      </trkpt>
      <trkpt lat="46.13073" lon="2.44667">
        <ele>485</ele>
        <time>2015-04-20T13:48:24Z</time>
      </trkpt>
      <trkpt lat="46.13071" lon="2.44667">
        <ele>485</ele>
        <time>2015-04-20T13:48:26Z</time>
      </trkpt>
      <trkpt lat="46.13068" lon="2.44666">
        <ele>485</ele>
        <time>2015-04-20T13:48:28Z</time>
      </trkpt>
      <trkpt lat="46.13065" lon="2.44665">
        <ele>485</ele>
        <time>2015-04-20T13:48:30Z</time>
      </trkpt>
      <trkpt lat="46.13063" lon="2.44663">
        <ele>485</ele>
        <time>2015-04-20T13:48:32Z</time>
      </trkpt>
      <trkpt lat="46.1306" lon="2.44663">
        <ele>485</ele>
        <time>2015-04-20T13:48:34Z</time>
      </trkpt>
      <trkpt lat="46.13057" lon="2.44662">
        <ele>485</ele>
        <time>2015-04-20T13:48:36Z</time>
      </trkpt>
      <trkpt lat="46.13053" lon="2.44661">
        <ele>485</ele>
        <time>2015-04-20T13:48:39Z</time>
      </trkpt>
      <trkpt lat="46.13051" lon="2.44659">
        <ele>485</ele>
        <time>2015-04-20T13:48:41Z</time>
      </trkpt>
      <trkpt lat="46.13049" lon="2.44658">
        <ele>485</ele>
        <time>2015-04-20T13:48:43Z</time>
      </trkpt>
      <trkpt lat="46.13046" lon="2.44657">
        <ele>485</ele>
        <time>2015-04-20T13:48:45Z</time>
      </trkpt>
      <trkpt lat="46.13044" lon="2.44657">
        <ele>485</ele>
        <time>2015-04-20T13:48:47Z</time>
      </trkpt>
      <trkpt lat="46.13041" lon="2.44656">
        <ele>485</ele>
        <time>2015-04-20T13:48:49Z</time>
      </trkpt>
      <trkpt lat="46.13037" lon="2.44654">
        <ele>485</ele>
        <time>2015-04-20T13:48:51Z</time>
      </trkpt>
      <trkpt lat="46.13035" lon="2.44654">
        <ele>485</ele>
        <time>2015-04-20T13:48:53Z</time>
      </trkpt>
      <trkpt lat="46.13032" lon="2.44654">
        <ele>485</ele>
        <time>2015-04-20T13:48:55Z</time>
      </trkpt>
      <trkpt lat="46.13029" lon="2.44653">
        <ele>485</ele>
        <time>2015-04-20T13:48:57Z</time>
      </trkpt>
      <trkpt lat="46.13027" lon="2.44652">
        <ele>485</ele>
        <time>2015-04-20T13:48:59Z</time>
      </trkpt>
      <trkpt lat="46.13023" lon="2.4465">
        <ele>485</ele>
        <time>2015-04-20T13:49:01Z</time>
      </trkpt>
      <trkpt lat="46.1302" lon="2.4465">
        <ele>485</ele>
        <time>2015-04-20T13:49:03Z</time>
      </trkpt>
      <trkpt lat="46.13018" lon="2.4465">
        <ele>485</ele>
        <time>2015-04-20T13:49:05Z</time>
      </trkpt>
      <trkpt lat="46.13014" lon="2.44649">
        <ele>484</ele>
        <time>2015-04-20T13:49:08Z</time>
      </trkpt>
      <trkpt lat="46.13011" lon="2.44648">
        <ele>484</ele>
        <time>2015-04-20T13:49:10Z</time>
      </trkpt>
      <trkpt lat="46.13009" lon="2.44647">
        <ele>484</ele>
        <time>2015-04-20T13:49:12Z</time>
      </trkpt>
      <trkpt lat="46.13006" lon="2.44646">
        <ele>484</ele>
        <time>2015-04-20T13:49:14Z</time>
      </trkpt>
      <trkpt lat="46.13002" lon="2.44645">
        <ele>483</ele>
        <time>2015-04-20T13:49:17Z</time>
      </trkpt>
      <trkpt lat="46.12999" lon="2.44643">
        <ele>483</ele>
        <time>2015-04-20T13:49:19Z</time>
      </trkpt>
      <trkpt lat="46.12997" lon="2.44642">
        <ele>483</ele>
        <time>2015-04-20T13:49:21Z</time>
      </trkpt>
      <trkpt lat="46.12994" lon="2.4464">
        <ele>483</ele>
        <time>2015-04-20T13:49:23Z</time>
      </trkpt>
      <trkpt lat="46.12991" lon="2.44639">
        <ele>483</ele>
        <time>2015-04-20T13:49:25Z</time>
      </trkpt>
      <trkpt lat="46.12988" lon="2.44637">
        <ele>483</ele>
        <time>2015-04-20T13:49:27Z</time>
      </trkpt>
      <trkpt lat="46.12985" lon="2.44636">
        <ele>483</ele>
        <time>2015-04-20T13:49:29Z</time>
      </trkpt>
      <trkpt lat="46.12981" lon="2.44634">
        <ele>483</ele>
        <time>2015-04-20T13:49:32Z</time>
      </trkpt>
      <trkpt lat="46.12978" lon="2.44632">
        <ele>483</ele>
        <time>2015-04-20T13:49:34Z</time>
      </trkpt>
      <trkpt lat="46.12975" lon="2.44632">
        <ele>483</ele>
        <time>2015-04-20T13:49:36Z</time>
      </trkpt>
      <trkpt lat="46.12973" lon="2.4463">
        <ele>483</ele>
        <time>2015-04-20T13:49:38Z</time>
      </trkpt>
      <trkpt lat="46.12969" lon="2.44627">
        <ele>483</ele>
        <time>2015-04-20T13:49:40Z</time>
      </trkpt>
      <trkpt lat="46.12967" lon="2.44626">
        <ele>483</ele>
        <time>2015-04-20T13:49:42Z</time>
      </trkpt>
      <trkpt lat="46.12964" lon="2.44624">
        <ele>482</ele>
        <time>2015-04-20T13:49:44Z</time>
      </trkpt>
      <trkpt lat="46.1296" lon="2.44621">
        <ele>482</ele>
        <time>2015-04-20T13:49:47Z</time>
      </trkpt>
      <trkpt lat="46.12958" lon="2.44621">
        <ele>482</ele>
        <time>2015-04-20T13:49:49Z</time>
      </trkpt>
      <trkpt lat="46.12956" lon="2.44619">
        <ele>482</ele>
        <time>2015-04-20T13:49:51Z</time>
      </trkpt>
      <trkpt lat="46.12953" lon="2.44617">
        <ele>482</ele>
        <time>2015-04-20T13:49:53Z</time>
      </trkpt>
      <trkpt lat="46.12951" lon="2.44616">
        <ele>482</ele>
        <time>2015-04-20T13:49:55Z</time>
      </trkpt>
      <trkpt lat="46.12947" lon="2.44615">
        <ele>482</ele>
        <time>2015-04-20T13:49:57Z</time>
      </trkpt>
      <trkpt lat="46.12945" lon="2.44614">
        <ele>482</ele>
        <time>2015-04-20T13:49:59Z</time>
      </trkpt>
      <trkpt lat="46.12943" lon="2.44613">
        <ele>482</ele>
        <time>2015-04-20T13:50:01Z</time>
      </trkpt>
      <trkpt lat="46.12941" lon="2.44611">
        <ele>482</ele>
        <time>2015-04-20T13:50:03Z</time>
      </trkpt>
      <trkpt lat="46.12938" lon="2.4461">
        <ele>482</ele>
        <time>2015-04-20T13:50:05Z</time>
      </trkpt>
      <trkpt lat="46.12933" lon="2.44608">
        <ele>482</ele>
        <time>2015-04-20T13:50:09Z</time>
      </trkpt>
      <trkpt lat="46.12931" lon="2.44606">
        <ele>482</ele>
        <time>2015-04-20T13:50:11Z</time>
      </trkpt>
      <trkpt lat="46.12928" lon="2.44604">
        <ele>482</ele>
        <time>2015-04-20T13:50:13Z</time>
      </trkpt>
      <trkpt lat="46.12925" lon="2.44603">
        <ele>482</ele>
        <time>2015-04-20T13:50:15Z</time>
      </trkpt>
      <trkpt lat="46.12923" lon="2.44601">
        <ele>482</ele>
        <time>2015-04-20T13:50:17Z</time>
      </trkpt>
      <trkpt lat="46.1292" lon="2.44599">
        <ele>482</ele>
        <time>2015-04-20T13:50:19Z</time>
      </trkpt>
      <trkpt lat="46.12917" lon="2.44597">
        <ele>482</ele>
        <time>2015-04-20T13:50:21Z</time>
      </trkpt>
      <trkpt lat="46.12913" lon="2.44595">
        <ele>482</ele>
        <time>2015-04-20T13:50:24Z</time>
      </trkpt>
      <trkpt lat="46.1291" lon="2.44594">
        <ele>482</ele>
        <time>2015-04-20T13:50:27Z</time>
      </trkpt>
      <trkpt lat="46.12907" lon="2.44592">
        <ele>482</ele>
        <time>2015-04-20T13:50:29Z</time>
      </trkpt>
      <trkpt lat="46.12904" lon="2.44591">
        <ele>482</ele>
        <time>2015-04-20T13:50:31Z</time>
      </trkpt>
      <trkpt lat="46.12902" lon="2.44589">
        <ele>482</ele>
        <time>2015-04-20T13:50:33Z</time>
      </trkpt>
      <trkpt lat="46.12897" lon="2.44587">
        <ele>482</ele>
        <time>2015-04-20T13:50:36Z</time>
      </trkpt>
      <trkpt lat="46.12894" lon="2.44585">
        <ele>482</ele>
        <time>2015-04-20T13:50:38Z</time>
      </trkpt>
      <trkpt lat="46.12892" lon="2.44584">
        <ele>482</ele>
        <time>2015-04-20T13:50:40Z</time>
      </trkpt>
      <trkpt lat="46.1289" lon="2.44583">
        <ele>482</ele>
        <time>2015-04-20T13:50:42Z</time>
      </trkpt>
      <trkpt lat="46.12887" lon="2.44581">
        <ele>482</ele>
        <time>2015-04-20T13:50:44Z</time>
      </trkpt>
      <trkpt lat="46.12885" lon="2.44579">
        <ele>482</ele>
        <time>2015-04-20T13:50:46Z</time>
      </trkpt>
      <trkpt lat="46.12882" lon="2.44577">
        <ele>482</ele>
        <time>2015-04-20T13:50:48Z</time>
      </trkpt>
      <trkpt lat="46.1288" lon="2.44576">
        <ele>482</ele>
        <time>2015-04-20T13:50:50Z</time>
      </trkpt>
      <trkpt lat="46.12877" lon="2.44574">
        <ele>482</ele>
        <time>2015-04-20T13:50:52Z</time>
      </trkpt>
      <trkpt lat="46.12875" lon="2.44572">
        <ele>482</ele>
        <time>2015-04-20T13:50:54Z</time>
      </trkpt>
      <trkpt lat="46.12871" lon="2.4457">
        <ele>482</ele>
        <time>2015-04-20T13:50:57Z</time>
      </trkpt>
      <trkpt lat="46.12867" lon="2.44567">
        <ele>482</ele>
        <time>2015-04-20T13:51:00Z</time>
      </trkpt>
      <trkpt lat="46.12865" lon="2.44566">
        <ele>482</ele>
        <time>2015-04-20T13:51:02Z</time>
      </trkpt>
      <trkpt lat="46.12862" lon="2.44564">
        <ele>482</ele>
        <time>2015-04-20T13:51:04Z</time>
      </trkpt>
      <trkpt lat="46.12859" lon="2.44562">
        <ele>482</ele>
        <time>2015-04-20T13:51:07Z</time>
      </trkpt>
      <trkpt lat="46.12857" lon="2.4456">
        <ele>482</ele>
        <time>2015-04-20T13:51:09Z</time>
      </trkpt>
      <trkpt lat="46.12853" lon="2.44555">
        <ele>482</ele>
        <time>2015-04-20T13:51:13Z</time>
      </trkpt>
      <trkpt lat="46.12851" lon="2.44553">
        <ele>482</ele>
        <time>2015-04-20T13:51:15Z</time>
      </trkpt>
      <trkpt lat="46.12846" lon="2.44549">
        <ele>482</ele>
        <time>2015-04-20T13:51:19Z</time>
      </trkpt>
      <trkpt lat="46.12844" lon="2.44547">
        <ele>482</ele>
        <time>2015-04-20T13:51:22Z</time>
      </trkpt>
      <trkpt lat="46.12841" lon="2.44545">
        <ele>482</ele>
        <time>2015-04-20T13:51:25Z</time>
      </trkpt>
      <trkpt lat="46.12839" lon="2.44545">
        <ele>482</ele>
        <time>2015-04-20T13:51:27Z</time>
      </trkpt>
      <trkpt lat="46.12835" lon="2.44544">
        <ele>482</ele>
        <time>2015-04-20T13:51:31Z</time>
      </trkpt>
      <trkpt lat="46.12831" lon="2.44542">
        <ele>482</ele>
        <time>2015-04-20T13:51:34Z</time>
      </trkpt>
      <trkpt lat="46.12829" lon="2.4454">
        <ele>482</ele>
        <time>2015-04-20T13:51:36Z</time>
      </trkpt>
      <trkpt lat="46.12827" lon="2.44538">
        <ele>482</ele>
        <time>2015-04-20T13:51:38Z</time>
      </trkpt>
      <trkpt lat="46.12825" lon="2.44535">
        <ele>482</ele>
        <time>2015-04-20T13:51:40Z</time>
      </trkpt>
      <trkpt lat="46.12822" lon="2.44534">
        <ele>482</ele>
        <time>2015-04-20T13:51:42Z</time>
      </trkpt>
      <trkpt lat="46.12819" lon="2.44531">
        <ele>482</ele>
        <time>2015-04-20T13:51:45Z</time>
      </trkpt>
      <trkpt lat="46.12815" lon="2.44528">
        <ele>482</ele>
        <time>2015-04-20T13:51:48Z</time>
      </trkpt>
      <trkpt lat="46.12813" lon="2.44526">
        <ele>482</ele>
        <time>2015-04-20T13:51:50Z</time>
      </trkpt>
      <trkpt lat="46.12809" lon="2.44522">
        <ele>482</ele>
        <time>2015-04-20T13:51:54Z</time>
      </trkpt>
      <trkpt lat="46.12807" lon="2.4452">
        <ele>482</ele>
        <time>2015-04-20T13:51:56Z</time>
      </trkpt>
      <trkpt lat="46.12804" lon="2.44517">
        <ele>482</ele>
        <time>2015-04-20T13:51:59Z</time>
      </trkpt>
      <trkpt lat="46.12801" lon="2.44515">
        <ele>482</ele>
        <time>2015-04-20T13:52:01Z</time>
      </trkpt>
      <trkpt lat="46.12798" lon="2.44512">
        <ele>482</ele>
        <time>2015-04-20T13:52:04Z</time>
      </trkpt>
      <trkpt lat="46.12796" lon="2.4451">
        <ele>482</ele>
        <time>2015-04-20T13:52:06Z</time>
      </trkpt>
      <trkpt lat="46.12793" lon="2.44509">
        <ele>482</ele>
        <time>2015-04-20T13:52:08Z</time>
      </trkpt>
      <trkpt lat="46.12791" lon="2.44507">
        <ele>482</ele>
        <time>2015-04-20T13:52:10Z</time>
      </trkpt>
      <trkpt lat="46.12788" lon="2.44504">
        <ele>482</ele>
        <time>2015-04-20T13:52:12Z</time>
      </trkpt>
      <trkpt lat="46.12785" lon="2.44502">
        <ele>482</ele>
        <time>2015-04-20T13:52:15Z</time>
      </trkpt>
      <trkpt lat="46.12782" lon="2.44499">
        <ele>483</ele>
        <time>2015-04-20T13:52:18Z</time>
      </trkpt>
      <trkpt lat="46.12778" lon="2.44496">
        <ele>483</ele>
        <time>2015-04-20T13:52:21Z</time>
      </trkpt>
      <trkpt lat="46.12776" lon="2.44495">
        <ele>483</ele>
        <time>2015-04-20T13:52:23Z</time>
      </trkpt>
      <trkpt lat="46.12774" lon="2.44493">
        <ele>483</ele>
        <time>2015-04-20T13:52:25Z</time>
      </trkpt>
      <trkpt lat="46.12772" lon="2.44492">
        <ele>483</ele>
        <time>2015-04-20T13:52:27Z</time>
      </trkpt>
      <trkpt lat="46.12769" lon="2.44489">
        <ele>483</ele>
        <time>2015-04-20T13:52:30Z</time>
      </trkpt>
      <trkpt lat="46.12764" lon="2.44486">
        <ele>484</ele>
        <time>2015-04-20T13:52:34Z</time>
      </trkpt>
      <trkpt lat="46.12761" lon="2.44484">
        <ele>484</ele>
        <time>2015-04-20T13:52:37Z</time>
      </trkpt>
      <trkpt lat="46.12758" lon="2.44482">
        <ele>484</ele>
        <time>2015-04-20T13:52:40Z</time>
      </trkpt>
      <trkpt lat="46.12756" lon="2.4448">
        <ele>484</ele>
        <time>2015-04-20T13:52:42Z</time>
      </trkpt>
      <trkpt lat="46.12755" lon="2.44479">
        <ele>484</ele>
        <time>2015-04-20T13:52:44Z</time>
      </trkpt>
      <trkpt lat="46.12753" lon="2.44477">
        <ele>484</ele>
        <time>2015-04-20T13:52:46Z</time>
      </trkpt>
      <trkpt lat="46.12751" lon="2.44476">
        <ele>484</ele>
        <time>2015-04-20T13:52:48Z</time>
      </trkpt>
      <trkpt lat="46.12748" lon="2.44475">
        <ele>484</ele>
        <time>2015-04-20T13:52:50Z</time>
      </trkpt>
      <trkpt lat="46.12746" lon="2.44474">
        <ele>484</ele>
        <time>2015-04-20T13:52:52Z</time>
      </trkpt>
      <trkpt lat="46.12744" lon="2.44472">
        <ele>484</ele>
        <time>2015-04-20T13:52:54Z</time>
      </trkpt>
      <trkpt lat="46.12742" lon="2.44471">
        <ele>484</ele>
        <time>2015-04-20T13:52:56Z</time>
      </trkpt>
      <trkpt lat="46.1274" lon="2.44469">
        <ele>484</ele>
        <time>2015-04-20T13:52:58Z</time>
      </trkpt>
      <trkpt lat="46.12738" lon="2.44467">
        <ele>484</ele>
        <time>2015-04-20T13:53:00Z</time>
      </trkpt>
      <trkpt lat="46.12735" lon="2.44466">
        <ele>484</ele>
        <time>2015-04-20T13:53:02Z</time>
      </trkpt>
      <trkpt lat="46.12733" lon="2.44464">
        <ele>484</ele>
        <time>2015-04-20T13:53:04Z</time>
      </trkpt>
      <trkpt lat="46.1273" lon="2.44462">
        <ele>484</ele>
        <time>2015-04-20T13:53:06Z</time>
      </trkpt>
      <trkpt lat="46.12728" lon="2.4446">
        <ele>484</ele>
        <time>2015-04-20T13:53:08Z</time>
      </trkpt>
      <trkpt lat="46.12725" lon="2.44459">
        <ele>484</ele>
        <time>2015-04-20T13:53:10Z</time>
      </trkpt>
      <trkpt lat="46.12723" lon="2.44456">
        <ele>484</ele>
        <time>2015-04-20T13:53:12Z</time>
      </trkpt>
      <trkpt lat="46.1272" lon="2.44454">
        <ele>484</ele>
        <time>2015-04-20T13:53:14Z</time>
      </trkpt>
      <trkpt lat="46.12717" lon="2.44452">
        <ele>484</ele>
        <time>2015-04-20T13:53:17Z</time>
      </trkpt>
      <trkpt lat="46.12713" lon="2.44449">
        <ele>484</ele>
        <time>2015-04-20T13:53:20Z</time>
      </trkpt>
      <trkpt lat="46.12711" lon="2.44447">
        <ele>484</ele>
        <time>2015-04-20T13:53:22Z</time>
      </trkpt>
      <trkpt lat="46.12709" lon="2.44445">
        <ele>484</ele>
        <time>2015-04-20T13:53:24Z</time>
      </trkpt>
      <trkpt lat="46.12706" lon="2.44444">
        <ele>484</ele>
        <time>2015-04-20T13:53:26Z</time>
      </trkpt>
      <trkpt lat="46.12704" lon="2.44442">
        <ele>484</ele>
        <time>2015-04-20T13:53:28Z</time>
      </trkpt>
      <trkpt lat="46.12701" lon="2.4444">
        <ele>484</ele>
        <time>2015-04-20T13:53:30Z</time>
      </trkpt>
      <trkpt lat="46.12699" lon="2.44438">
        <ele>484</ele>
        <time>2015-04-20T13:53:32Z</time>
      </trkpt>
      <trkpt lat="46.12697" lon="2.44436">
        <ele>484</ele>
        <time>2015-04-20T13:53:34Z</time>
      </trkpt>
      <trkpt lat="46.12694" lon="2.44434">
        <ele>484</ele>
        <time>2015-04-20T13:53:36Z</time>
      </trkpt>
      <trkpt lat="46.12691" lon="2.44431">
        <ele>484</ele>
        <time>2015-04-20T13:53:39Z</time>
      </trkpt>
      <trkpt lat="46.12689" lon="2.44429">
        <ele>484</ele>
        <time>2015-04-20T13:53:41Z</time>
      </trkpt>
      <trkpt lat="46.12687" lon="2.44428">
        <ele>484</ele>
        <time>2015-04-20T13:53:43Z</time>
      </trkpt>
      <trkpt lat="46.12685" lon="2.44426">
        <ele>484</ele>
        <time>2015-04-20T13:53:45Z</time>
      </trkpt>
      <trkpt lat="46.12683" lon="2.44425">
        <ele>484</ele>
        <time>2015-04-20T13:53:47Z</time>
      </trkpt>
      <trkpt lat="46.1268" lon="2.44424">
        <ele>484</ele>
        <time>2015-04-20T13:53:49Z</time>
      </trkpt>
      <trkpt lat="46.12678" lon="2.44423">
        <ele>484</ele>
        <time>2015-04-20T13:53:51Z</time>
      </trkpt>
      <trkpt lat="46.12674" lon="2.44421">
        <ele>484</ele>
        <time>2015-04-20T13:53:54Z</time>
      </trkpt>
      <trkpt lat="46.12671" lon="2.4442">
        <ele>484</ele>
        <time>2015-04-20T13:53:56Z</time>
      </trkpt>
      <trkpt lat="46.12669" lon="2.4442">
        <ele>485</ele>
        <time>2015-04-20T13:53:58Z</time>
      </trkpt>
      <trkpt lat="46.12666" lon="2.44419">
        <ele>485</ele>
        <time>2015-04-20T13:54:00Z</time>
      </trkpt>
      <trkpt lat="46.12663" lon="2.44419">
        <ele>485</ele>
        <time>2015-04-20T13:54:02Z</time>
      </trkpt>
      <trkpt lat="46.12661" lon="2.44419">
        <ele>485</ele>
        <time>2015-04-20T13:54:04Z</time>
      </trkpt>
      <trkpt lat="46.12656" lon="2.44418">
        <ele>485</ele>
        <time>2015-04-20T13:54:07Z</time>
      </trkpt>
      <trkpt lat="46.12654" lon="2.44417">
        <ele>485</ele>
        <time>2015-04-20T13:54:09Z</time>
      </trkpt>
      <trkpt lat="46.12651" lon="2.44416">
        <ele>485</ele>
        <time>2015-04-20T13:54:11Z</time>
      </trkpt>
      <trkpt lat="46.12648" lon="2.44416">
        <ele>485</ele>
        <time>2015-04-20T13:54:13Z</time>
      </trkpt>
      <trkpt lat="46.12646" lon="2.44414">
        <ele>485</ele>
        <time>2015-04-20T13:54:15Z</time>
      </trkpt>
      <trkpt lat="46.12644" lon="2.44413">
        <ele>485</ele>
        <time>2015-04-20T13:54:17Z</time>
      </trkpt>
      <trkpt lat="46.12641" lon="2.44412">
        <ele>485</ele>
        <time>2015-04-20T13:54:19Z</time>
      </trkpt>
      <trkpt lat="46.12638" lon="2.4441">
        <ele>485</ele>
        <time>2015-04-20T13:54:21Z</time>
      </trkpt>
      <trkpt lat="46.12635" lon="2.44409">
        <ele>485</ele>
        <time>2015-04-20T13:54:24Z</time>
      </trkpt>
      <trkpt lat="46.12632" lon="2.44408">
        <ele>485</ele>
        <time>2015-04-20T13:54:26Z</time>
      </trkpt>
      <trkpt lat="46.12628" lon="2.44408">
        <ele>485</ele>
        <time>2015-04-20T13:54:29Z</time>
      </trkpt>
      <trkpt lat="46.12625" lon="2.44407">
        <ele>485</ele>
        <time>2015-04-20T13:54:31Z</time>
      </trkpt>
      <trkpt lat="46.12622" lon="2.44406">
        <ele>485</ele>
        <time>2015-04-20T13:54:33Z</time>
      </trkpt>
      <trkpt lat="46.1262" lon="2.44405">
        <ele>485</ele>
        <time>2015-04-20T13:54:35Z</time>
      </trkpt>
      <trkpt lat="46.12616" lon="2.44404">
        <ele>485</ele>
        <time>2015-04-20T13:54:37Z</time>
      </trkpt>
      <trkpt lat="46.12614" lon="2.44403">
        <ele>485</ele>
        <time>2015-04-20T13:54:39Z</time>
      </trkpt>
      <trkpt lat="46.12612" lon="2.44403">
        <ele>485</ele>
        <time>2015-04-20T13:54:41Z</time>
      </trkpt>
      <trkpt lat="46.12609" lon="2.44401">
        <ele>485</ele>
        <time>2015-04-20T13:54:43Z</time>
      </trkpt>
      <trkpt lat="46.12607" lon="2.444">
        <ele>485</ele>
        <time>2015-04-20T13:54:45Z</time>
      </trkpt>
      <trkpt lat="46.12603" lon="2.44398">
        <ele>485</ele>
        <time>2015-04-20T13:54:48Z</time>
      </trkpt>
      <trkpt lat="46.12601" lon="2.44397">
        <ele>485</ele>
        <time>2015-04-20T13:54:50Z</time>
      </trkpt>
      <trkpt lat="46.12599" lon="2.44395">
        <ele>485</ele>
        <time>2015-04-20T13:54:52Z</time>
      </trkpt>
      <trkpt lat="46.12595" lon="2.44394">
        <ele>486</ele>
        <time>2015-04-20T13:54:55Z</time>
      </trkpt>
      <trkpt lat="46.12592" lon="2.44394">
        <ele>486</ele>
        <time>2015-04-20T13:54:57Z</time>
      </trkpt>
      <trkpt lat="46.12589" lon="2.44393">
        <ele>486</ele>
        <time>2015-04-20T13:55:00Z</time>
      </trkpt>
      <trkpt lat="46.12586" lon="2.44393">
        <ele>486</ele>
        <time>2015-04-20T13:55:02Z</time>
      </trkpt>
      <trkpt lat="46.12584" lon="2.44394">
        <ele>486</ele>
        <time>2015-04-20T13:55:04Z</time>
      </trkpt>
      <trkpt lat="46.12581" lon="2.44395">
        <ele>486</ele>
        <time>2015-04-20T13:55:06Z</time>
      </trkpt>
      <trkpt lat="46.12579" lon="2.44396">
        <ele>486</ele>
        <time>2015-04-20T13:55:08Z</time>
      </trkpt>
      <trkpt lat="46.12576" lon="2.44396">
        <ele>486</ele>
        <time>2015-04-20T13:55:10Z</time>
      </trkpt>
      <trkpt lat="46.12573" lon="2.44397">
        <ele>486</ele>
        <time>2015-04-20T13:55:12Z</time>
      </trkpt>
      <trkpt lat="46.1257" lon="2.44398">
        <ele>486</ele>
        <time>2015-04-20T13:55:14Z</time>
      </trkpt>
      <trkpt lat="46.12567" lon="2.44398">
        <ele>486</ele>
        <time>2015-04-20T13:55:16Z</time>
      </trkpt>
      <trkpt lat="46.12564" lon="2.44399">
        <ele>486</ele>
        <time>2015-04-20T13:55:18Z</time>
      </trkpt>
      <trkpt lat="46.12562" lon="2.444">
        <ele>486</ele>
        <time>2015-04-20T13:55:20Z</time>
      </trkpt>
      <trkpt lat="46.12559" lon="2.44401">
        <ele>486</ele>
        <time>2015-04-20T13:55:22Z</time>
      </trkpt>
      <trkpt lat="46.12557" lon="2.44401">
        <ele>486</ele>
        <time>2015-04-20T13:55:24Z</time>
      </trkpt>
      <trkpt lat="46.12554" lon="2.444">
        <ele>486</ele>
        <time>2015-04-20T13:55:26Z</time>
      </trkpt>
      <trkpt lat="46.12551" lon="2.44398">
        <ele>486</ele>
        <time>2015-04-20T13:55:29Z</time>
      </trkpt>
      <trkpt lat="46.12548" lon="2.44395">
        <ele>486</ele>
        <time>2015-04-20T13:55:32Z</time>
      </trkpt>
      <trkpt lat="46.12545" lon="2.44393">
        <ele>486</ele>
        <time>2015-04-20T13:55:34Z</time>
      </trkpt>
      <trkpt lat="46.12542" lon="2.44391">
        <ele>486</ele>
        <time>2015-04-20T13:55:37Z</time>
      </trkpt>
      <trkpt lat="46.1254" lon="2.4439">
        <ele>486</ele>
        <time>2015-04-20T13:55:39Z</time>
      </trkpt>
      <trkpt lat="46.12538" lon="2.44388">
        <ele>486</ele>
        <time>2015-04-20T13:55:41Z</time>
      </trkpt>
      <trkpt lat="46.12535" lon="2.44387">
        <ele>486</ele>
        <time>2015-04-20T13:55:43Z</time>
      </trkpt>
      <trkpt lat="46.12533" lon="2.44385">
        <ele>486</ele>
        <time>2015-04-20T13:55:45Z</time>
      </trkpt>
      <trkpt lat="46.12529" lon="2.44384">
        <ele>486</ele>
        <time>2015-04-20T13:55:48Z</time>
      </trkpt>
      <trkpt lat="46.12527" lon="2.44383">
        <ele>485</ele>
        <time>2015-04-20T13:55:50Z</time>
      </trkpt>
      <trkpt lat="46.12524" lon="2.44382">
        <ele>485</ele>
        <time>2015-04-20T13:55:52Z</time>
      </trkpt>
      <trkpt lat="46.12522" lon="2.44382">
        <ele>485</ele>
        <time>2015-04-20T13:55:54Z</time>
      </trkpt>
      <trkpt lat="46.12519" lon="2.44381">
        <ele>485</ele>
        <time>2015-04-20T13:55:56Z</time>
      </trkpt>
      <trkpt lat="46.12516" lon="2.4438">
        <ele>485</ele>
        <time>2015-04-20T13:55:58Z</time>
      </trkpt>
      <trkpt lat="46.12513" lon="2.4438">
        <ele>485</ele>
        <time>2015-04-20T13:56:01Z</time>
      </trkpt>
      <trkpt lat="46.1251" lon="2.4438">
        <ele>485</ele>
        <time>2015-04-20T13:56:03Z</time>
      </trkpt>
      <trkpt lat="46.12506" lon="2.44379">
        <ele>485</ele>
        <time>2015-04-20T13:56:06Z</time>
      </trkpt>
      <trkpt lat="46.12504" lon="2.44379">
        <ele>485</ele>
        <time>2015-04-20T13:56:08Z</time>
      </trkpt>
      <trkpt lat="46.12501" lon="2.44379">
        <ele>485</ele>
        <time>2015-04-20T13:56:10Z</time>
      </trkpt>
      <trkpt lat="46.12499" lon="2.44379">
        <ele>485</ele>
        <time>2015-04-20T13:56:12Z</time>
      </trkpt>
      <trkpt lat="46.12496" lon="2.44378">
        <ele>485</ele>
        <time>2015-04-20T13:56:14Z</time>
      </trkpt>
      <trkpt lat="46.12494" lon="2.44378">
        <ele>484</ele>
        <time>2015-04-20T13:56:16Z</time>
      </trkpt>
      <trkpt lat="46.12492" lon="2.44378">
        <ele>484</ele>
        <time>2015-04-20T13:56:18Z</time>
      </trkpt>
      <trkpt lat="46.12488" lon="2.44378">
        <ele>484</ele>
        <time>2015-04-20T13:56:21Z</time>
      </trkpt>
      <trkpt lat="46.12485" lon="2.44377">
        <ele>483</ele>
        <time>2015-04-20T13:56:24Z</time>
      </trkpt>
      <trkpt lat="46.12482" lon="2.44377">
        <ele>483</ele>
        <time>2015-04-20T13:56:26Z</time>
      </trkpt>
      <trkpt lat="46.12481" lon="2.44377">
        <ele>482</ele>
        <time>2015-04-20T13:56:28Z</time>
      </trkpt>
      <trkpt lat="46.12478" lon="2.44376">
        <ele>482</ele>
        <time>2015-04-20T13:56:30Z</time>
      </trkpt>
      <trkpt lat="46.12476" lon="2.44376">
        <ele>482</ele>
        <time>2015-04-20T13:56:32Z</time>
      </trkpt>
      <trkpt lat="46.12474" lon="2.44375">
        <ele>482</ele>
        <time>2015-04-20T13:56:34Z</time>
      </trkpt>
      <trkpt lat="46.12469" lon="2.44373">
        <ele>482</ele>
        <time>2015-04-20T13:56:38Z</time>
      </trkpt>
      <trkpt lat="46.12465" lon="2.44371">
        <ele>481</ele>
        <time>2015-04-20T13:56:42Z</time>
      </trkpt>
      <trkpt lat="46.12461" lon="2.44369">
        <ele>481</ele>
        <time>2015-04-20T13:56:45Z</time>
      </trkpt>
      <trkpt lat="46.12458" lon="2.44367">
        <ele>481</ele>
        <time>2015-04-20T13:56:48Z</time>
      </trkpt>
      <trkpt lat="46.12456" lon="2.44366">
        <ele>481</ele>
        <time>2015-04-20T13:56:50Z</time>
      </trkpt>
      <trkpt lat="46.12453" lon="2.44365">
        <ele>481</ele>
        <time>2015-04-20T13:56:52Z</time>
      </trkpt>
      <trkpt lat="46.12451" lon="2.44364">
        <ele>481</ele>
        <time>2015-04-20T13:56:54Z</time>
      </trkpt>
      <trkpt lat="46.12449" lon="2.44363">
        <ele>480</ele>
        <time>2015-04-20T13:56:56Z</time>
      </trkpt>
      <trkpt lat="46.12446" lon="2.44362">
        <ele>480</ele>
        <time>2015-04-20T13:56:58Z</time>
      </trkpt>
      <trkpt lat="46.12444" lon="2.44362">
        <ele>480</ele>
        <time>2015-04-20T13:57:00Z</time>
      </trkpt>
      <trkpt lat="46.12441" lon="2.44361">
        <ele>480</ele>
        <time>2015-04-20T13:57:02Z</time>
      </trkpt>
      <trkpt lat="46.12438" lon="2.44361">
        <ele>480</ele>
        <time>2015-04-20T13:57:05Z</time>
      </trkpt>
      <trkpt lat="46.12436" lon="2.44362">
        <ele>480</ele>
        <time>2015-04-20T13:57:07Z</time>
      </trkpt>
      <trkpt lat="46.12434" lon="2.44362">
        <ele>480</ele>
        <time>2015-04-20T13:57:09Z</time>
      </trkpt>
      <trkpt lat="46.1243" lon="2.44363">
        <ele>480</ele>
        <time>2015-04-20T13:57:12Z</time>
      </trkpt>
      <trkpt lat="46.12428" lon="2.44364">
        <ele>479</ele>
        <time>2015-04-20T13:57:14Z</time>
      </trkpt>
      <trkpt lat="46.12426" lon="2.44365">
        <ele>479</ele>
        <time>2015-04-20T13:57:16Z</time>
      </trkpt>
      <trkpt lat="46.12423" lon="2.44366">
        <ele>479</ele>
        <time>2015-04-20T13:57:18Z</time>
      </trkpt>
      <trkpt lat="46.12421" lon="2.44368">
        <ele>479</ele>
        <time>2015-04-20T13:57:20Z</time>
      </trkpt>
      <trkpt lat="46.12418" lon="2.44369">
        <ele>479</ele>
        <time>2015-04-20T13:57:22Z</time>
      </trkpt>
      <trkpt lat="46.12416" lon="2.44371">
        <ele>479</ele>
        <time>2015-04-20T13:57:24Z</time>
      </trkpt>
      <trkpt lat="46.12413" lon="2.44373">
        <ele>479</ele>
        <time>2015-04-20T13:57:26Z</time>
      </trkpt>
      <trkpt lat="46.12411" lon="2.44375">
        <ele>479</ele>
        <time>2015-04-20T13:57:28Z</time>
      </trkpt>
      <trkpt lat="46.12409" lon="2.44377">
        <ele>478</ele>
        <time>2015-04-20T13:57:30Z</time>
      </trkpt>
      <trkpt lat="46.12406" lon="2.4438">
        <ele>478</ele>
        <time>2015-04-20T13:57:33Z</time>
      </trkpt>
      <trkpt lat="46.12403" lon="2.44381">
        <ele>478</ele>
        <time>2015-04-20T13:57:35Z</time>
      </trkpt>
      <trkpt lat="46.124" lon="2.44384">
        <ele>478</ele>
        <time>2015-04-20T13:57:38Z</time>
      </trkpt>
      <trkpt lat="46.12398" lon="2.44386">
        <ele>477</ele>
        <time>2015-04-20T13:57:40Z</time>
      </trkpt>
      <trkpt lat="46.12396" lon="2.44387">
        <ele>477</ele>
        <time>2015-04-20T13:57:42Z</time>
      </trkpt>
      <trkpt lat="46.12394" lon="2.44389">
        <ele>477</ele>
        <time>2015-04-20T13:57:44Z</time>
      </trkpt>
      <trkpt lat="46.12392" lon="2.44391">
        <ele>477</ele>
        <time>2015-04-20T13:57:46Z</time>
      </trkpt>
      <trkpt lat="46.12389" lon="2.44392">
        <ele>476</ele>
        <time>2015-04-20T13:57:48Z</time>
      </trkpt>
      <trkpt lat="46.12386" lon="2.44394">
        <ele>476</ele>
        <time>2015-04-20T13:57:51Z</time>
      </trkpt>
      <trkpt lat="46.12382" lon="2.44397">
        <ele>475</ele>
        <time>2015-04-20T13:57:54Z</time>
      </trkpt>
      <trkpt lat="46.12379" lon="2.44399">
        <ele>475</ele>
        <time>2015-04-20T13:57:56Z</time>
      </trkpt>
      <trkpt lat="46.12376" lon="2.444">
        <ele>474</ele>
        <time>2015-04-20T13:57:58Z</time>
      </trkpt>
      <trkpt lat="46.12374" lon="2.44401">
        <ele>474</ele>
        <time>2015-04-20T13:58:00Z</time>
      </trkpt>
      <trkpt lat="46.12371" lon="2.44402">
        <ele>474</ele>
        <time>2015-04-20T13:58:02Z</time>
      </trkpt>
      <trkpt lat="46.12369" lon="2.44404">
        <ele>474</ele>
        <time>2015-04-20T13:58:04Z</time>
      </trkpt>
      <trkpt lat="46.12365" lon="2.44406">
        <ele>473</ele>
        <time>2015-04-20T13:58:07Z</time>
      </trkpt>
      <trkpt lat="46.12363" lon="2.44408">
        <ele>473</ele>
        <time>2015-04-20T13:58:09Z</time>
      </trkpt>
      <trkpt lat="46.1236" lon="2.44409">
        <ele>473</ele>
        <time>2015-04-20T13:58:11Z</time>
      </trkpt>
      <trkpt lat="46.12357" lon="2.44411">
        <ele>472</ele>
        <time>2015-04-20T13:58:14Z</time>
      </trkpt>
      <trkpt lat="46.12354" lon="2.44413">
        <ele>472</ele>
        <time>2015-04-20T13:58:17Z</time>
      </trkpt>
      <trkpt lat="46.12352" lon="2.44415">
        <ele>472</ele>
        <time>2015-04-20T13:58:19Z</time>
      </trkpt>
      <trkpt lat="46.12349" lon="2.44416">
        <ele>472</ele>
        <time>2015-04-20T13:58:21Z</time>
      </trkpt>
      <trkpt lat="46.12347" lon="2.44418">
        <ele>472</ele>
        <time>2015-04-20T13:58:23Z</time>
      </trkpt>
      <trkpt lat="46.12345" lon="2.4442">
        <ele>471</ele>
        <time>2015-04-20T13:58:25Z</time>
      </trkpt>
      <trkpt lat="46.12343" lon="2.44421">
        <ele>471</ele>
        <time>2015-04-20T13:58:27Z</time>
      </trkpt>
      <trkpt lat="46.12341" lon="2.44423">
        <ele>470</ele>
        <time>2015-04-20T13:58:29Z</time>
      </trkpt>
      <trkpt lat="46.12339" lon="2.44425">
        <ele>470</ele>
        <time>2015-04-20T13:58:31Z</time>
      </trkpt>
      <trkpt lat="46.12336" lon="2.44427">
        <ele>469</ele>
        <time>2015-04-20T13:58:34Z</time>
      </trkpt>
      <trkpt lat="46.12334" lon="2.44429">
        <ele>468</ele>
        <time>2015-04-20T13:58:36Z</time>
      </trkpt>
      <trkpt lat="46.1233" lon="2.44432">
        <ele>467</ele>
        <time>2015-04-20T13:58:39Z</time>
      </trkpt>
      <trkpt lat="46.12326" lon="2.44436">
        <ele>466</ele>
        <time>2015-04-20T13:58:43Z</time>
      </trkpt>
      <trkpt lat="46.12324" lon="2.44439">
        <ele>466</ele>
        <time>2015-04-20T13:58:45Z</time>
      </trkpt>
      <trkpt lat="46.12323" lon="2.44441">
        <ele>465</ele>
        <time>2015-04-20T13:58:47Z</time>
      </trkpt>
      <trkpt lat="46.1232" lon="2.44443">
        <ele>465</ele>
        <time>2015-04-20T13:58:49Z</time>
      </trkpt>
      <trkpt lat="46.12318" lon="2.44444">
        <ele>465</ele>
        <time>2015-04-20T13:58:51Z</time>
      </trkpt>
      <trkpt lat="46.12315" lon="2.44445">
        <ele>464</ele>
        <time>2015-04-20T13:58:54Z</time>
      </trkpt>
      <trkpt lat="46.12312" lon="2.44445">
        <ele>464</ele>
        <time>2015-04-20T13:58:56Z</time>
      </trkpt>
      <trkpt lat="46.1231" lon="2.44446">
        <ele>463</ele>
        <time>2015-04-20T13:58:58Z</time>
      </trkpt>
      <trkpt lat="46.12307" lon="2.44446">
        <ele>463</ele>
        <time>2015-04-20T13:59:00Z</time>
      </trkpt>
      <trkpt lat="46.12305" lon="2.44447">
        <ele>463</ele>
        <time>2015-04-20T13:59:04Z</time>
      </trkpt>
      <trkpt lat="46.12295" lon="2.44446">
        <ele>463</ele>
        <time>2015-04-20T13:59:07Z</time>
      </trkpt>
      <trkpt lat="46.12293" lon="2.44444">
        <ele>463</ele>
        <time>2015-04-20T13:59:09Z</time>
      </trkpt>
      <trkpt lat="46.12291" lon="2.44443">
        <ele>463</ele>
        <time>2015-04-20T13:59:11Z</time>
      </trkpt>
      <trkpt lat="46.12288" lon="2.44442">
        <ele>463</ele>
        <time>2015-04-20T13:59:13Z</time>
      </trkpt>
      <trkpt lat="46.12286" lon="2.4444">
        <ele>463</ele>
        <time>2015-04-20T13:59:15Z</time>
      </trkpt>
      <trkpt lat="46.12283" lon="2.44439">
        <ele>463</ele>
        <time>2015-04-20T13:59:17Z</time>
      </trkpt>
      <trkpt lat="46.1228" lon="2.44438">
        <ele>463</ele>
        <time>2015-04-20T13:59:19Z</time>
      </trkpt>
      <trkpt lat="46.12278" lon="2.44437">
        <ele>463</ele>
        <time>2015-04-20T13:59:21Z</time>
      </trkpt>
      <trkpt lat="46.12275" lon="2.44435">
        <ele>463</ele>
        <time>2015-04-20T13:59:23Z</time>
      </trkpt>
      <trkpt lat="46.12273" lon="2.44433">
        <ele>463</ele>
        <time>2015-04-20T13:59:25Z</time>
      </trkpt>
      <trkpt lat="46.1227" lon="2.44431">
        <ele>463</ele>
        <time>2015-04-20T13:59:27Z</time>
      </trkpt>
      <trkpt lat="46.12267" lon="2.4443">
        <ele>463</ele>
        <time>2015-04-20T13:59:29Z</time>
      </trkpt>
      <trkpt lat="46.12264" lon="2.44428">
        <ele>463</ele>
        <time>2015-04-20T13:59:31Z</time>
      </trkpt>
      <trkpt lat="46.12262" lon="2.44427">
        <ele>463</ele>
        <time>2015-04-20T13:59:33Z</time>
      </trkpt>
      <trkpt lat="46.12259" lon="2.44426">
        <ele>463</ele>
        <time>2015-04-20T13:59:35Z</time>
      </trkpt>
      <trkpt lat="46.12256" lon="2.44425">
        <ele>463</ele>
        <time>2015-04-20T13:59:37Z</time>
      </trkpt>
      <trkpt lat="46.12254" lon="2.44423">
        <ele>463</ele>
        <time>2015-04-20T13:59:39Z</time>
      </trkpt>
      <trkpt lat="46.1225" lon="2.44422">
        <ele>463</ele>
        <time>2015-04-20T13:59:42Z</time>
      </trkpt>
      <trkpt lat="46.12247" lon="2.44421">
        <ele>463</ele>
        <time>2015-04-20T13:59:44Z</time>
      </trkpt>
      <trkpt lat="46.12244" lon="2.44421">
        <ele>463</ele>
        <time>2015-04-20T13:59:47Z</time>
      </trkpt>
      <trkpt lat="46.1224" lon="2.44422">
        <ele>464</ele>
        <time>2015-04-20T13:59:50Z</time>
      </trkpt>
      <trkpt lat="46.12237" lon="2.44421">
        <ele>464</ele>
        <time>2015-04-20T13:59:52Z</time>
      </trkpt>
      <trkpt lat="46.12235" lon="2.44421">
        <ele>464</ele>
        <time>2015-04-20T13:59:54Z</time>
      </trkpt>
      <trkpt lat="46.12232" lon="2.44421">
        <ele>464</ele>
        <time>2015-04-20T13:59:56Z</time>
      </trkpt>
      <trkpt lat="46.12229" lon="2.44421">
        <ele>464</ele>
        <time>2015-04-20T13:59:58Z</time>
      </trkpt>
      <trkpt lat="46.12226" lon="2.44421">
        <ele>464</ele>
        <time>2015-04-20T14:00:00Z</time>
      </trkpt>
      <trkpt lat="46.12223" lon="2.44419">
        <ele>464</ele>
        <time>2015-04-20T14:00:02Z</time>
      </trkpt>
      <trkpt lat="46.12221" lon="2.44418">
        <ele>464</ele>
        <time>2015-04-20T14:00:04Z</time>
      </trkpt>
      <trkpt lat="46.12218" lon="2.44417">
        <ele>464</ele>
        <time>2015-04-20T14:00:06Z</time>
      </trkpt>
      <trkpt lat="46.12215" lon="2.44416">
        <ele>464</ele>
        <time>2015-04-20T14:00:08Z</time>
      </trkpt>
      <trkpt lat="46.12213" lon="2.44414">
        <ele>464</ele>
        <time>2015-04-20T14:00:10Z</time>
      </trkpt>
      <trkpt lat="46.1221" lon="2.44412">
        <ele>464</ele>
        <time>2015-04-20T14:00:12Z</time>
      </trkpt>
      <trkpt lat="46.12208" lon="2.44409">
        <ele>464</ele>
        <time>2015-04-20T14:00:14Z</time>
      </trkpt>
      <trkpt lat="46.12206" lon="2.44407">
        <ele>464</ele>
        <time>2015-04-20T14:00:16Z</time>
      </trkpt>
      <trkpt lat="46.12204" lon="2.44403">
        <ele>464</ele>
        <time>2015-04-20T14:00:18Z</time>
      </trkpt>
      <trkpt lat="46.12203" lon="2.44399">
        <ele>464</ele>
        <time>2015-04-20T14:00:20Z</time>
      </trkpt>
      <trkpt lat="46.12201" lon="2.44396">
        <ele>464</ele>
        <time>2015-04-20T14:00:22Z</time>
      </trkpt>
      <trkpt lat="46.12197" lon="2.44391">
        <ele>464</ele>
        <time>2015-04-20T14:00:25Z</time>
      </trkpt>
      <trkpt lat="46.12195" lon="2.44389">
        <ele>464</ele>
        <time>2015-04-20T14:00:27Z</time>
      </trkpt>
      <trkpt lat="46.12192" lon="2.44387">
        <ele>464</ele>
        <time>2015-04-20T14:00:29Z</time>
      </trkpt>
      <trkpt lat="46.1219" lon="2.44385">
        <ele>465</ele>
        <time>2015-04-20T14:00:31Z</time>
      </trkpt>
      <trkpt lat="46.12187" lon="2.44382">
        <ele>465</ele>
        <time>2015-04-20T14:00:34Z</time>
      </trkpt>
      <trkpt lat="46.12184" lon="2.4438">
        <ele>465</ele>
        <time>2015-04-20T14:00:36Z</time>
      </trkpt>
      <trkpt lat="46.12181" lon="2.44378">
        <ele>466</ele>
        <time>2015-04-20T14:00:38Z</time>
      </trkpt>
      <trkpt lat="46.12178" lon="2.44375">
        <ele>466</ele>
        <time>2015-04-20T14:00:41Z</time>
      </trkpt>
      <trkpt lat="46.12175" lon="2.44373">
        <ele>467</ele>
        <time>2015-04-20T14:00:43Z</time>
      </trkpt>
      <trkpt lat="46.12172" lon="2.44369">
        <ele>467</ele>
        <time>2015-04-20T14:00:46Z</time>
      </trkpt>
      <trkpt lat="46.12169" lon="2.44366">
        <ele>467</ele>
        <time>2015-04-20T14:00:49Z</time>
      </trkpt>
      <trkpt lat="46.12166" lon="2.44364">
        <ele>467</ele>
        <time>2015-04-20T14:00:51Z</time>
      </trkpt>
      <trkpt lat="46.12163" lon="2.44361">
        <ele>467</ele>
        <time>2015-04-20T14:00:54Z</time>
      </trkpt>
      <trkpt lat="46.12161" lon="2.44359">
        <ele>467</ele>
        <time>2015-04-20T14:00:56Z</time>
      </trkpt>
      <trkpt lat="46.12158" lon="2.44356">
        <ele>467</ele>
        <time>2015-04-20T14:00:59Z</time>
      </trkpt>
      <trkpt lat="46.12156" lon="2.44354">
        <ele>467</ele>
        <time>2015-04-20T14:01:01Z</time>
      </trkpt>
      <trkpt lat="46.12154" lon="2.44352">
        <ele>467</ele>
        <time>2015-04-20T14:01:03Z</time>
      </trkpt>
      <trkpt lat="46.12151" lon="2.4435">
        <ele>467</ele>
        <time>2015-04-20T14:01:05Z</time>
      </trkpt>
      <trkpt lat="46.12148" lon="2.44346">
        <ele>467</ele>
        <time>2015-04-20T14:01:08Z</time>
      </trkpt>
      <trkpt lat="46.12146" lon="2.44344">
        <ele>467</ele>
        <time>2015-04-20T14:01:10Z</time>
      </trkpt>
      <trkpt lat="46.12144" lon="2.44342">
        <ele>467</ele>
        <time>2015-04-20T14:01:12Z</time>
      </trkpt>
      <trkpt lat="46.12141" lon="2.44339">
        <ele>467</ele>
        <time>2015-04-20T14:01:15Z</time>
      </trkpt>
      <trkpt lat="46.12138" lon="2.44337">
        <ele>467</ele>
        <time>2015-04-20T14:01:17Z</time>
      </trkpt>
      <trkpt lat="46.12135" lon="2.44334">
        <ele>467</ele>
        <time>2015-04-20T14:01:20Z</time>
      </trkpt>
      <trkpt lat="46.12133" lon="2.44331">
        <ele>467</ele>
        <time>2015-04-20T14:01:22Z</time>
      </trkpt>
      <trkpt lat="46.12129" lon="2.44327">
        <ele>467</ele>
        <time>2015-04-20T14:01:26Z</time>
      </trkpt>
      <trkpt lat="46.12127" lon="2.44325">
        <ele>468</ele>
        <time>2015-04-20T14:01:28Z</time>
      </trkpt>
      <trkpt lat="46.12125" lon="2.44322">
        <ele>468</ele>
        <time>2015-04-20T14:01:30Z</time>
      </trkpt>
      <trkpt lat="46.12122" lon="2.4432">
        <ele>468</ele>
        <time>2015-04-20T14:01:32Z</time>
      </trkpt>
      <trkpt lat="46.1212" lon="2.44318">
        <ele>468</ele>
        <time>2015-04-20T14:01:34Z</time>
      </trkpt>
      <trkpt lat="46.12118" lon="2.44316">
        <ele>468</ele>
        <time>2015-04-20T14:01:36Z</time>
      </trkpt>
      <trkpt lat="46.12115" lon="2.44313">
        <ele>468</ele>
        <time>2015-04-20T14:01:39Z</time>
      </trkpt>
      <trkpt lat="46.12113" lon="2.44311">
        <ele>469</ele>
        <time>2015-04-20T14:01:41Z</time>
      </trkpt>
      <trkpt lat="46.1211" lon="2.44309">
        <ele>469</ele>
        <time>2015-04-20T14:01:43Z</time>
      </trkpt>
      <trkpt lat="46.12108" lon="2.44306">
        <ele>469</ele>
        <time>2015-04-20T14:01:45Z</time>
      </trkpt>
      <trkpt lat="46.12106" lon="2.44304">
        <ele>469</ele>
        <time>2015-04-20T14:01:47Z</time>
      </trkpt>
      <trkpt lat="46.12103" lon="2.44302">
        <ele>470</ele>
        <time>2015-04-20T14:01:49Z</time>
      </trkpt>
      <trkpt lat="46.121" lon="2.44298">
        <ele>470</ele>
        <time>2015-04-20T14:01:52Z</time>
      </trkpt>
      <trkpt lat="46.12096" lon="2.44293">
        <ele>471</ele>
        <time>2015-04-20T14:01:56Z</time>
      </trkpt>
      <trkpt lat="46.12093" lon="2.44291">
        <ele>471</ele>
        <time>2015-04-20T14:01:58Z</time>
      </trkpt>
      <trkpt lat="46.12092" lon="2.44289">
        <ele>471</ele>
        <time>2015-04-20T14:02:00Z</time>
      </trkpt>
      <trkpt lat="46.1209" lon="2.44287">
        <ele>472</ele>
        <time>2015-04-20T14:02:02Z</time>
      </trkpt>
      <trkpt lat="46.12088" lon="2.44285">
        <ele>472</ele>
        <time>2015-04-20T14:02:04Z</time>
      </trkpt>
      <trkpt lat="46.12084" lon="2.44281">
        <ele>472</ele>
        <time>2015-04-20T14:02:07Z</time>
      </trkpt>
      <trkpt lat="46.12083" lon="2.44278">
        <ele>473</ele>
        <time>2015-04-20T14:02:09Z</time>
      </trkpt>
      <trkpt lat="46.1208" lon="2.44275">
        <ele>473</ele>
        <time>2015-04-20T14:02:11Z</time>
      </trkpt>
      <trkpt lat="46.12078" lon="2.44271">
        <ele>473</ele>
        <time>2015-04-20T14:02:14Z</time>
      </trkpt>
      <trkpt lat="46.12075" lon="2.44268">
        <ele>473</ele>
        <time>2015-04-20T14:02:16Z</time>
      </trkpt>
      <trkpt lat="46.12074" lon="2.44266">
        <ele>473</ele>
        <time>2015-04-20T14:02:18Z</time>
      </trkpt>
      <trkpt lat="46.12072" lon="2.44264">
        <ele>473</ele>
        <time>2015-04-20T14:02:20Z</time>
      </trkpt>
      <trkpt lat="46.1207" lon="2.44262">
        <ele>473</ele>
        <time>2015-04-20T14:02:22Z</time>
      </trkpt>
      <trkpt lat="46.12068" lon="2.4426">
        <ele>473</ele>
        <time>2015-04-20T14:02:24Z</time>
      </trkpt>
      <trkpt lat="46.12067" lon="2.44258">
        <ele>473</ele>
        <time>2015-04-20T14:02:26Z</time>
      </trkpt>
      <trkpt lat="46.12064" lon="2.44255">
        <ele>474</ele>
        <time>2015-04-20T14:02:28Z</time>
      </trkpt>
      <trkpt lat="46.12063" lon="2.44251">
        <ele>474</ele>
        <time>2015-04-20T14:02:30Z</time>
      </trkpt>
      <trkpt lat="46.12061" lon="2.44249">
        <ele>474</ele>
        <time>2015-04-20T14:02:32Z</time>
      </trkpt>
      <trkpt lat="46.12059" lon="2.44244">
        <ele>474</ele>
        <time>2015-04-20T14:02:35Z</time>
      </trkpt>
      <trkpt lat="46.12057" lon="2.44241">
        <ele>475</ele>
        <time>2015-04-20T14:02:37Z</time>
      </trkpt>
      <trkpt lat="46.12055" lon="2.44237">
        <ele>475</ele>
        <time>2015-04-20T14:02:39Z</time>
      </trkpt>
      <trkpt lat="46.12053" lon="2.44234">
        <ele>475</ele>
        <time>2015-04-20T14:02:41Z</time>
      </trkpt>
      <trkpt lat="46.12051" lon="2.44231">
        <ele>476</ele>
        <time>2015-04-20T14:02:43Z</time>
      </trkpt>
      <trkpt lat="46.12049" lon="2.44227">
        <ele>476</ele>
        <time>2015-04-20T14:02:46Z</time>
      </trkpt>
      <trkpt lat="46.12047" lon="2.44223">
        <ele>477</ele>
        <time>2015-04-20T14:02:48Z</time>
      </trkpt>
      <trkpt lat="46.12046" lon="2.4422">
        <ele>477</ele>
        <time>2015-04-20T14:02:50Z</time>
      </trkpt>
      <trkpt lat="46.12045" lon="2.44217">
        <ele>477</ele>
        <time>2015-04-20T14:02:52Z</time>
      </trkpt>
      <trkpt lat="46.12043" lon="2.44214">
        <ele>477</ele>
        <time>2015-04-20T14:02:54Z</time>
      </trkpt>
      <trkpt lat="46.12042" lon="2.4421">
        <ele>477</ele>
        <time>2015-04-20T14:02:56Z</time>
      </trkpt>
      <trkpt lat="46.1204" lon="2.44207">
        <ele>477</ele>
        <time>2015-04-20T14:02:58Z</time>
      </trkpt>
      <trkpt lat="46.12039" lon="2.44203">
        <ele>477</ele>
        <time>2015-04-20T14:03:00Z</time>
      </trkpt>
      <trkpt lat="46.12038" lon="2.44199">
        <ele>477</ele>
        <time>2015-04-20T14:03:02Z</time>
      </trkpt>
      <trkpt lat="46.12037" lon="2.44196">
        <ele>477</ele>
        <time>2015-04-20T14:03:04Z</time>
      </trkpt>
      <trkpt lat="46.12035" lon="2.44192">
        <ele>477</ele>
        <time>2015-04-20T14:03:06Z</time>
      </trkpt>
      <trkpt lat="46.12035" lon="2.44188">
        <ele>477</ele>
        <time>2015-04-20T14:03:08Z</time>
      </trkpt>
      <trkpt lat="46.12033" lon="2.44184">
        <ele>477</ele>
        <time>2015-04-20T14:03:10Z</time>
      </trkpt>
      <trkpt lat="46.12032" lon="2.44181">
        <ele>477</ele>
        <time>2015-04-20T14:03:12Z</time>
      </trkpt>
      <trkpt lat="46.12031" lon="2.44177">
        <ele>477</ele>
        <time>2015-04-20T14:03:14Z</time>
      </trkpt>
      <trkpt lat="46.1203" lon="2.44173">
        <ele>477</ele>
        <time>2015-04-20T14:03:16Z</time>
      </trkpt>
      <trkpt lat="46.12029" lon="2.4417">
        <ele>477</ele>
        <time>2015-04-20T14:03:18Z</time>
      </trkpt>
      <trkpt lat="46.12027" lon="2.44166">
        <ele>477</ele>
        <time>2015-04-20T14:03:20Z</time>
      </trkpt>
      <trkpt lat="46.12026" lon="2.44163">
        <ele>477</ele>
        <time>2015-04-20T14:03:22Z</time>
      </trkpt>
      <trkpt lat="46.12024" lon="2.44159">
        <ele>477</ele>
        <time>2015-04-20T14:03:24Z</time>
      </trkpt>
      <trkpt lat="46.12021" lon="2.44154">
        <ele>477</ele>
        <time>2015-04-20T14:03:27Z</time>
      </trkpt>
      <trkpt lat="46.1202" lon="2.44151">
        <ele>477</ele>
        <time>2015-04-20T14:03:29Z</time>
      </trkpt>
      <trkpt lat="46.12018" lon="2.44148">
        <ele>477</ele>
        <time>2015-04-20T14:03:31Z</time>
      </trkpt>
      <trkpt lat="46.12016" lon="2.44145">
        <ele>477</ele>
        <time>2015-04-20T14:03:33Z</time>
      </trkpt>
      <trkpt lat="46.12015" lon="2.44141">
        <ele>477</ele>
        <time>2015-04-20T14:03:35Z</time>
      </trkpt>
      <trkpt lat="46.12012" lon="2.44137">
        <ele>477</ele>
        <time>2015-04-20T14:03:38Z</time>
      </trkpt>
      <trkpt lat="46.12011" lon="2.44133">
        <ele>477</ele>
        <time>2015-04-20T14:03:40Z</time>
      </trkpt>
      <trkpt lat="46.12009" lon="2.4413">
        <ele>477</ele>
        <time>2015-04-20T14:03:42Z</time>
      </trkpt>
      <trkpt lat="46.12008" lon="2.44127">
        <ele>477</ele>
        <time>2015-04-20T14:03:44Z</time>
      </trkpt>
      <trkpt lat="46.12007" lon="2.44123">
        <ele>477</ele>
        <time>2015-04-20T14:03:46Z</time>
      </trkpt>
      <trkpt lat="46.12005" lon="2.44121">
        <ele>477</ele>
        <time>2015-04-20T14:03:48Z</time>
      </trkpt>
      <trkpt lat="46.12002" lon="2.44121">
        <ele>477</ele>
        <time>2015-04-20T14:03:50Z</time>
      </trkpt>
      <trkpt lat="46.12" lon="2.44124">
        <ele>477</ele>
        <time>2015-04-20T14:03:52Z</time>
      </trkpt>
      <trkpt lat="46.11998" lon="2.44127">
        <ele>477</ele>
        <time>2015-04-20T14:03:54Z</time>
      </trkpt>
      <trkpt lat="46.11996" lon="2.44129">
        <ele>477</ele>
        <time>2015-04-20T14:03:56Z</time>
      </trkpt>
      <trkpt lat="46.11993" lon="2.44133">
        <ele>477</ele>
        <time>2015-04-20T14:03:59Z</time>
      </trkpt>
      <trkpt lat="46.11991" lon="2.44135">
        <ele>477</ele>
        <time>2015-04-20T14:04:01Z</time>
      </trkpt>
      <trkpt lat="46.11988" lon="2.4414">
        <ele>477</ele>
        <time>2015-04-20T14:04:04Z</time>
      </trkpt>
      <trkpt lat="46.11986" lon="2.44144">
        <ele>477</ele>
        <time>2015-04-20T14:04:06Z</time>
      </trkpt>
      <trkpt lat="46.11984" lon="2.44147">
        <ele>477</ele>
        <time>2015-04-20T14:04:08Z</time>
      </trkpt>
      <trkpt lat="46.11983" lon="2.4415">
        <ele>477</ele>
        <time>2015-04-20T14:04:10Z</time>
      </trkpt>
      <trkpt lat="46.11981" lon="2.44153">
        <ele>477</ele>
        <time>2015-04-20T14:04:12Z</time>
      </trkpt>
      <trkpt lat="46.11979" lon="2.44156">
        <ele>477</ele>
        <time>2015-04-20T14:04:14Z</time>
      </trkpt>
      <trkpt lat="46.11977" lon="2.4416">
        <ele>477</ele>
        <time>2015-04-20T14:04:16Z</time>
      </trkpt>
      <trkpt lat="46.11976" lon="2.44163">
        <ele>477</ele>
        <time>2015-04-20T14:04:18Z</time>
      </trkpt>
      <trkpt lat="46.11974" lon="2.44166">
        <ele>477</ele>
        <time>2015-04-20T14:04:20Z</time>
      </trkpt>
      <trkpt lat="46.11972" lon="2.44169">
        <ele>477</ele>
        <time>2015-04-20T14:04:22Z</time>
      </trkpt>
      <trkpt lat="46.11971" lon="2.44173">
        <ele>477</ele>
        <time>2015-04-20T14:04:24Z</time>
      </trkpt>
      <trkpt lat="46.11969" lon="2.44176">
        <ele>477</ele>
        <time>2015-04-20T14:04:26Z</time>
      </trkpt>
      <trkpt lat="46.11967" lon="2.4418">
        <ele>477</ele>
        <time>2015-04-20T14:04:28Z</time>
      </trkpt>
      <trkpt lat="46.11966" lon="2.44183">
        <ele>477</ele>
        <time>2015-04-20T14:04:30Z</time>
      </trkpt>
      <trkpt lat="46.11964" lon="2.44187">
        <ele>477</ele>
        <time>2015-04-20T14:04:32Z</time>
      </trkpt>
      <trkpt lat="46.11963" lon="2.4419">
        <ele>476</ele>
        <time>2015-04-20T14:04:34Z</time>
      </trkpt>
      <trkpt lat="46.11961" lon="2.44194">
        <ele>476</ele>
        <time>2015-04-20T14:04:36Z</time>
      </trkpt>
      <trkpt lat="46.1196" lon="2.44197">
        <ele>476</ele>
        <time>2015-04-20T14:04:38Z</time>
      </trkpt>
      <trkpt lat="46.11958" lon="2.442">
        <ele>476</ele>
        <time>2015-04-20T14:04:40Z</time>
      </trkpt>
      <trkpt lat="46.11957" lon="2.44204">
        <ele>475</ele>
        <time>2015-04-20T14:04:42Z</time>
      </trkpt>
      <trkpt lat="46.11956" lon="2.44207">
        <ele>475</ele>
        <time>2015-04-20T14:04:44Z</time>
      </trkpt>
      <trkpt lat="46.11955" lon="2.44211">
        <ele>475</ele>
        <time>2015-04-20T14:04:46Z</time>
      </trkpt>
      <trkpt lat="46.11954" lon="2.44215">
        <ele>475</ele>
        <time>2015-04-20T14:04:48Z</time>
      </trkpt>
      <trkpt lat="46.11953" lon="2.44218">
        <ele>475</ele>
        <time>2015-04-20T14:04:50Z</time>
      </trkpt>
      <trkpt lat="46.11951" lon="2.44222">
        <ele>474</ele>
        <time>2015-04-20T14:04:52Z</time>
      </trkpt>
      <trkpt lat="46.1195" lon="2.44225">
        <ele>474</ele>
        <time>2015-04-20T14:04:54Z</time>
      </trkpt>
      <trkpt lat="46.11949" lon="2.44229">
        <ele>474</ele>
        <time>2015-04-20T14:04:56Z</time>
      </trkpt>
      <trkpt lat="46.11948" lon="2.44233">
        <ele>474</ele>
        <time>2015-04-20T14:04:58Z</time>
      </trkpt>
      <trkpt lat="46.11948" lon="2.44236">
        <ele>473</ele>
        <time>2015-04-20T14:05:00Z</time>
      </trkpt>
      <trkpt lat="46.11947" lon="2.4424">
        <ele>473</ele>
        <time>2015-04-20T14:05:02Z</time>
      </trkpt>
      <trkpt lat="46.11946" lon="2.44244">
        <ele>473</ele>
        <time>2015-04-20T14:05:04Z</time>
      </trkpt>
      <trkpt lat="46.11945" lon="2.44247">
        <ele>473</ele>
        <time>2015-04-20T14:05:06Z</time>
      </trkpt>
      <trkpt lat="46.11944" lon="2.44251">
        <ele>473</ele>
        <time>2015-04-20T14:05:08Z</time>
      </trkpt>
      <trkpt lat="46.11943" lon="2.44255">
        <ele>473</ele>
        <time>2015-04-20T14:05:10Z</time>
      </trkpt>
      <trkpt lat="46.11942" lon="2.44259">
        <ele>472</ele>
        <time>2015-04-20T14:05:12Z</time>
      </trkpt>
      <trkpt lat="46.11942" lon="2.44263">
        <ele>472</ele>
        <time>2015-04-20T14:05:14Z</time>
      </trkpt>
      <trkpt lat="46.11941" lon="2.44266">
        <ele>472</ele>
        <time>2015-04-20T14:05:16Z</time>
      </trkpt>
      <trkpt lat="46.1194" lon="2.4427">
        <ele>471</ele>
        <time>2015-04-20T14:05:18Z</time>
      </trkpt>
      <trkpt lat="46.1194" lon="2.44274">
        <ele>471</ele>
        <time>2015-04-20T14:05:20Z</time>
      </trkpt>
      <trkpt lat="46.11939" lon="2.44278">
        <ele>471</ele>
        <time>2015-04-20T14:05:22Z</time>
      </trkpt>
      <trkpt lat="46.11938" lon="2.44282">
        <ele>471</ele>
        <time>2015-04-20T14:05:24Z</time>
      </trkpt>
      <trkpt lat="46.11937" lon="2.44286">
        <ele>471</ele>
        <time>2015-04-20T14:05:26Z</time>
      </trkpt>
      <trkpt lat="46.11937" lon="2.44289">
        <ele>471</ele>
        <time>2015-04-20T14:05:28Z</time>
      </trkpt>
      <trkpt lat="46.11936" lon="2.44293">
        <ele>471</ele>
        <time>2015-04-20T14:05:30Z</time>
      </trkpt>
      <trkpt lat="46.11935" lon="2.44297">
        <ele>471</ele>
        <time>2015-04-20T14:05:32Z</time>
      </trkpt>
      <trkpt lat="46.11934" lon="2.44301">
        <ele>471</ele>
        <time>2015-04-20T14:05:34Z</time>
      </trkpt>
      <trkpt lat="46.11934" lon="2.44305">
        <ele>471</ele>
        <time>2015-04-20T14:05:36Z</time>
      </trkpt>
      <trkpt lat="46.11932" lon="2.4431">
        <ele>471</ele>
        <time>2015-04-20T14:05:39Z</time>
      </trkpt>
      <trkpt lat="46.11932" lon="2.44314">
        <ele>471</ele>
        <time>2015-04-20T14:05:41Z</time>
      </trkpt>
      <trkpt lat="46.11931" lon="2.44318">
        <ele>470</ele>
        <time>2015-04-20T14:05:43Z</time>
      </trkpt>
      <trkpt lat="46.1193" lon="2.44322">
        <ele>470</ele>
        <time>2015-04-20T14:05:45Z</time>
      </trkpt>
      <trkpt lat="46.1193" lon="2.44326">
        <ele>470</ele>
        <time>2015-04-20T14:05:47Z</time>
      </trkpt>
      <trkpt lat="46.11929" lon="2.4433">
        <ele>470</ele>
        <time>2015-04-20T14:05:49Z</time>
      </trkpt>
      <trkpt lat="46.11928" lon="2.44334">
        <ele>470</ele>
        <time>2015-04-20T14:05:51Z</time>
      </trkpt>
      <trkpt lat="46.11927" lon="2.44338">
        <ele>470</ele>
        <time>2015-04-20T14:05:53Z</time>
      </trkpt>
      <trkpt lat="46.11927" lon="2.44342">
        <ele>470</ele>
        <time>2015-04-20T14:05:55Z</time>
      </trkpt>
      <trkpt lat="46.11926" lon="2.44346">
        <ele>469</ele>
        <time>2015-04-20T14:05:57Z</time>
      </trkpt>
      <trkpt lat="46.11925" lon="2.44352">
        <ele>469</ele>
        <time>2015-04-20T14:06:00Z</time>
      </trkpt>
      <trkpt lat="46.11924" lon="2.44358">
        <ele>469</ele>
        <time>2015-04-20T14:06:03Z</time>
      </trkpt>
      <trkpt lat="46.11923" lon="2.44362">
        <ele>469</ele>
        <time>2015-04-20T14:06:05Z</time>
      </trkpt>
      <trkpt lat="46.11922" lon="2.44366">
        <ele>469</ele>
        <time>2015-04-20T14:06:07Z</time>
      </trkpt>
      <trkpt lat="46.11921" lon="2.4437">
        <ele>469</ele>
        <time>2015-04-20T14:06:09Z</time>
      </trkpt>
      <trkpt lat="46.1192" lon="2.44374">
        <ele>469</ele>
        <time>2015-04-20T14:06:11Z</time>
      </trkpt>
      <trkpt lat="46.11918" lon="2.44377">
        <ele>469</ele>
        <time>2015-04-20T14:06:13Z</time>
      </trkpt>
      <trkpt lat="46.11917" lon="2.44381">
        <ele>469</ele>
        <time>2015-04-20T14:06:15Z</time>
      </trkpt>
      <trkpt lat="46.11916" lon="2.44385">
        <ele>469</ele>
        <time>2015-04-20T14:06:17Z</time>
      </trkpt>
      <trkpt lat="46.11914" lon="2.44389">
        <ele>469</ele>
        <time>2015-04-20T14:06:19Z</time>
      </trkpt>
      <trkpt lat="46.11913" lon="2.44392">
        <ele>469</ele>
        <time>2015-04-20T14:06:21Z</time>
      </trkpt>
      <trkpt lat="46.11911" lon="2.44396">
        <ele>469</ele>
        <time>2015-04-20T14:06:23Z</time>
      </trkpt>
      <trkpt lat="46.1191" lon="2.44399">
        <ele>469</ele>
        <time>2015-04-20T14:06:25Z</time>
      </trkpt>
      <trkpt lat="46.11908" lon="2.44403">
        <ele>469</ele>
        <time>2015-04-20T14:06:27Z</time>
      </trkpt>
      <trkpt lat="46.11906" lon="2.44406">
        <ele>469</ele>
        <time>2015-04-20T14:06:29Z</time>
      </trkpt>
      <trkpt lat="46.11905" lon="2.44409">
        <ele>469</ele>
        <time>2015-04-20T14:06:31Z</time>
      </trkpt>
      <trkpt lat="46.11903" lon="2.44413">
        <ele>469</ele>
        <time>2015-04-20T14:06:33Z</time>
      </trkpt>
      <trkpt lat="46.11901" lon="2.44416">
        <ele>469</ele>
        <time>2015-04-20T14:06:35Z</time>
      </trkpt>
      <trkpt lat="46.11899" lon="2.44419">
        <ele>469</ele>
        <time>2015-04-20T14:06:37Z</time>
      </trkpt>
      <trkpt lat="46.11897" lon="2.44422">
        <ele>469</ele>
        <time>2015-04-20T14:06:39Z</time>
      </trkpt>
      <trkpt lat="46.11895" lon="2.44426">
        <ele>469</ele>
        <time>2015-04-20T14:06:41Z</time>
      </trkpt>
      <trkpt lat="46.11893" lon="2.44429">
        <ele>469</ele>
        <time>2015-04-20T14:06:43Z</time>
      </trkpt>
      <trkpt lat="46.11892" lon="2.44432">
        <ele>468</ele>
        <time>2015-04-20T14:06:45Z</time>
      </trkpt>
      <trkpt lat="46.1189" lon="2.44435">
        <ele>468</ele>
        <time>2015-04-20T14:06:47Z</time>
      </trkpt>
      <trkpt lat="46.11889" lon="2.44439">
        <ele>468</ele>
        <time>2015-04-20T14:06:49Z</time>
      </trkpt>
      <trkpt lat="46.11887" lon="2.44442">
        <ele>468</ele>
        <time>2015-04-20T14:06:51Z</time>
      </trkpt>
      <trkpt lat="46.11885" lon="2.44446">
        <ele>468</ele>
        <time>2015-04-20T14:06:53Z</time>
      </trkpt>
      <trkpt lat="46.11884" lon="2.44449">
        <ele>468</ele>
        <time>2015-04-20T14:06:55Z</time>
      </trkpt>
      <trkpt lat="46.11883" lon="2.44453">
        <ele>467</ele>
        <time>2015-04-20T14:06:57Z</time>
      </trkpt>
      <trkpt lat="46.11881" lon="2.44456">
        <ele>467</ele>
        <time>2015-04-20T14:06:59Z</time>
      </trkpt>
      <trkpt lat="46.1188" lon="2.4446">
        <ele>467</ele>
        <time>2015-04-20T14:07:01Z</time>
      </trkpt>
      <trkpt lat="46.11879" lon="2.44464">
        <ele>467</ele>
        <time>2015-04-20T14:07:03Z</time>
      </trkpt>
      <trkpt lat="46.11878" lon="2.44468">
        <ele>467</ele>
        <time>2015-04-20T14:07:05Z</time>
      </trkpt>
      <trkpt lat="46.11877" lon="2.44472">
        <ele>467</ele>
        <time>2015-04-20T14:07:07Z</time>
      </trkpt>
      <trkpt lat="46.11877" lon="2.44476">
        <ele>467</ele>
        <time>2015-04-20T14:07:09Z</time>
      </trkpt>
      <trkpt lat="46.11877" lon="2.4448">
        <ele>467</ele>
        <time>2015-04-20T14:07:11Z</time>
      </trkpt>
      <trkpt lat="46.11877" lon="2.44483">
        <ele>467</ele>
        <time>2015-04-20T14:07:13Z</time>
      </trkpt>
      <trkpt lat="46.11877" lon="2.44487">
        <ele>466</ele>
        <time>2015-04-20T14:07:15Z</time>
      </trkpt>
      <trkpt lat="46.11878" lon="2.44491">
        <ele>466</ele>
        <time>2015-04-20T14:07:17Z</time>
      </trkpt>
      <trkpt lat="46.11879" lon="2.44495">
        <ele>466</ele>
        <time>2015-04-20T14:07:19Z</time>
      </trkpt>
      <trkpt lat="46.11879" lon="2.44498">
        <ele>466</ele>
        <time>2015-04-20T14:07:21Z</time>
      </trkpt>
      <trkpt lat="46.11879" lon="2.44502">
        <ele>466</ele>
        <time>2015-04-20T14:07:23Z</time>
      </trkpt>
      <trkpt lat="46.1188" lon="2.44505">
        <ele>465</ele>
        <time>2015-04-20T14:07:25Z</time>
      </trkpt>
      <trkpt lat="46.1188" lon="2.44509">
        <ele>465</ele>
        <time>2015-04-20T14:07:27Z</time>
      </trkpt>
      <trkpt lat="46.11881" lon="2.44513">
        <ele>465</ele>
        <time>2015-04-20T14:07:29Z</time>
      </trkpt>
      <trkpt lat="46.11882" lon="2.44517">
        <ele>465</ele>
        <time>2015-04-20T14:07:31Z</time>
      </trkpt>
      <trkpt lat="46.11882" lon="2.44522">
        <ele>465</ele>
        <time>2015-04-20T14:07:33Z</time>
      </trkpt>
      <trkpt lat="46.11882" lon="2.44526">
        <ele>464</ele>
        <time>2015-04-20T14:07:35Z</time>
      </trkpt>
      <trkpt lat="46.11882" lon="2.4453">
        <ele>464</ele>
        <time>2015-04-20T14:07:37Z</time>
      </trkpt>
      <trkpt lat="46.11882" lon="2.44534">
        <ele>464</ele>
        <time>2015-04-20T14:07:39Z</time>
      </trkpt>
      <trkpt lat="46.11881" lon="2.44541">
        <ele>464</ele>
        <time>2015-04-20T14:07:42Z</time>
      </trkpt>
      <trkpt lat="46.11881" lon="2.44545">
        <ele>464</ele>
        <time>2015-04-20T14:07:44Z</time>
      </trkpt>
      <trkpt lat="46.1188" lon="2.44549">
        <ele>464</ele>
        <time>2015-04-20T14:07:46Z</time>
      </trkpt>
      <trkpt lat="46.11879" lon="2.44553">
        <ele>464</ele>
        <time>2015-04-20T14:07:48Z</time>
      </trkpt>
      <trkpt lat="46.11878" lon="2.44557">
        <ele>464</ele>
        <time>2015-04-20T14:07:50Z</time>
      </trkpt>
      <trkpt lat="46.11877" lon="2.44561">
        <ele>464</ele>
        <time>2015-04-20T14:07:52Z</time>
      </trkpt>
      <trkpt lat="46.11876" lon="2.44564">
        <ele>464</ele>
        <time>2015-04-20T14:07:54Z</time>
      </trkpt>
      <trkpt lat="46.11875" lon="2.44568">
        <ele>463</ele>
        <time>2015-04-20T14:07:56Z</time>
      </trkpt>
      <trkpt lat="46.11874" lon="2.44572">
        <ele>463</ele>
        <time>2015-04-20T14:07:58Z</time>
      </trkpt>
      <trkpt lat="46.11872" lon="2.44576">
        <ele>463</ele>
        <time>2015-04-20T14:08:00Z</time>
      </trkpt>
      <trkpt lat="46.11871" lon="2.44581">
        <ele>463</ele>
        <time>2015-04-20T14:08:03Z</time>
      </trkpt>
      <trkpt lat="46.11869" lon="2.44586">
        <ele>463</ele>
        <time>2015-04-20T14:08:06Z</time>
      </trkpt>
      <trkpt lat="46.11868" lon="2.44589">
        <ele>463</ele>
        <time>2015-04-20T14:08:08Z</time>
      </trkpt>
      <trkpt lat="46.11866" lon="2.44594">
        <ele>463</ele>
        <time>2015-04-20T14:08:11Z</time>
      </trkpt>
      <trkpt lat="46.11864" lon="2.44597">
        <ele>462</ele>
        <time>2015-04-20T14:08:13Z</time>
      </trkpt>
      <trkpt lat="46.11862" lon="2.446">
        <ele>462</ele>
        <time>2015-04-20T14:08:15Z</time>
      </trkpt>
      <trkpt lat="46.11859" lon="2.44601">
        <ele>462</ele>
        <time>2015-04-20T14:08:17Z</time>
      </trkpt>
      <trkpt lat="46.11857" lon="2.44604">
        <ele>462</ele>
        <time>2015-04-20T14:08:19Z</time>
      </trkpt>
      <trkpt lat="46.11855" lon="2.44607">
        <ele>462</ele>
        <time>2015-04-20T14:08:21Z</time>
      </trkpt>
      <trkpt lat="46.11853" lon="2.44609">
        <ele>462</ele>
        <time>2015-04-20T14:08:23Z</time>
      </trkpt>
      <trkpt lat="46.11851" lon="2.44612">
        <ele>462</ele>
        <time>2015-04-20T14:08:25Z</time>
      </trkpt>
      <trkpt lat="46.11849" lon="2.44614">
        <ele>462</ele>
        <time>2015-04-20T14:08:27Z</time>
      </trkpt>
      <trkpt lat="46.11846" lon="2.44615">
        <ele>462</ele>
        <time>2015-04-20T14:08:29Z</time>
      </trkpt>
      <trkpt lat="46.11843" lon="2.44618">
        <ele>462</ele>
        <time>2015-04-20T14:08:32Z</time>
      </trkpt>
      <trkpt lat="46.1184" lon="2.44622">
        <ele>462</ele>
        <time>2015-04-20T14:08:35Z</time>
      </trkpt>
      <trkpt lat="46.11838" lon="2.44624">
        <ele>462</ele>
        <time>2015-04-20T14:08:37Z</time>
      </trkpt>
      <trkpt lat="46.11836" lon="2.44625">
        <ele>462</ele>
        <time>2015-04-20T14:08:39Z</time>
      </trkpt>
      <trkpt lat="46.11834" lon="2.44628">
        <ele>462</ele>
        <time>2015-04-20T14:08:41Z</time>
      </trkpt>
      <trkpt lat="46.11832" lon="2.4463">
        <ele>462</ele>
        <time>2015-04-20T14:08:43Z</time>
      </trkpt>
      <trkpt lat="46.1183" lon="2.44632">
        <ele>462</ele>
        <time>2015-04-20T14:08:45Z</time>
      </trkpt>
      <trkpt lat="46.11827" lon="2.44634">
        <ele>462</ele>
        <time>2015-04-20T14:08:47Z</time>
      </trkpt>
      <trkpt lat="46.11824" lon="2.44636">
        <ele>462</ele>
        <time>2015-04-20T14:08:50Z</time>
      </trkpt>
      <trkpt lat="46.11821" lon="2.44638">
        <ele>462</ele>
        <time>2015-04-20T14:08:52Z</time>
      </trkpt>
      <trkpt lat="46.11819" lon="2.4464">
        <ele>462</ele>
        <time>2015-04-20T14:08:54Z</time>
      </trkpt>
      <trkpt lat="46.11817" lon="2.44642">
        <ele>462</ele>
        <time>2015-04-20T14:08:56Z</time>
      </trkpt>
      <trkpt lat="46.11815" lon="2.44643">
        <ele>462</ele>
        <time>2015-04-20T14:08:58Z</time>
      </trkpt>
      <trkpt lat="46.11811" lon="2.44645">
        <ele>462</ele>
        <time>2015-04-20T14:09:01Z</time>
      </trkpt>
      <trkpt lat="46.11809" lon="2.44647">
        <ele>462</ele>
        <time>2015-04-20T14:09:03Z</time>
      </trkpt>
      <trkpt lat="46.11806" lon="2.44649">
        <ele>463</ele>
        <time>2015-04-20T14:09:06Z</time>
      </trkpt>
      <trkpt lat="46.11804" lon="2.4465">
        <ele>463</ele>
        <time>2015-04-20T14:09:08Z</time>
      </trkpt>
      <trkpt lat="46.11802" lon="2.44652">
        <ele>464</ele>
        <time>2015-04-20T14:09:10Z</time>
      </trkpt>
      <trkpt lat="46.11799" lon="2.44654">
        <ele>465</ele>
        <time>2015-04-20T14:09:12Z</time>
      </trkpt>
      <trkpt lat="46.11797" lon="2.44655">
        <ele>465</ele>
        <time>2015-04-20T14:09:14Z</time>
      </trkpt>
      <trkpt lat="46.11795" lon="2.44657">
        <ele>466</ele>
        <time>2015-04-20T14:09:16Z</time>
      </trkpt>
      <trkpt lat="46.11792" lon="2.44659">
        <ele>466</ele>
        <time>2015-04-20T14:09:19Z</time>
      </trkpt>
      <trkpt lat="46.1179" lon="2.44661">
        <ele>467</ele>
        <time>2015-04-20T14:09:21Z</time>
      </trkpt>
      <trkpt lat="46.11787" lon="2.44664">
        <ele>467</ele>
        <time>2015-04-20T14:09:24Z</time>
      </trkpt>
      <trkpt lat="46.11784" lon="2.44666">
        <ele>467</ele>
        <time>2015-04-20T14:09:26Z</time>
      </trkpt>
      <trkpt lat="46.11782" lon="2.44668">
        <ele>467</ele>
        <time>2015-04-20T14:09:28Z</time>
      </trkpt>
      <trkpt lat="46.11781" lon="2.44669">
        <ele>467</ele>
        <time>2015-04-20T14:09:30Z</time>
      </trkpt>
      <trkpt lat="46.11779" lon="2.44671">
        <ele>468</ele>
        <time>2015-04-20T14:09:32Z</time>
      </trkpt>
      <trkpt lat="46.11777" lon="2.44673">
        <ele>468</ele>
        <time>2015-04-20T14:09:34Z</time>
      </trkpt>
      <trkpt lat="46.11775" lon="2.44674">
        <ele>468</ele>
        <time>2015-04-20T14:09:36Z</time>
      </trkpt>
      <trkpt lat="46.11773" lon="2.44676">
        <ele>469</ele>
        <time>2015-04-20T14:09:38Z</time>
      </trkpt>
      <trkpt lat="46.11771" lon="2.44677">
        <ele>469</ele>
        <time>2015-04-20T14:09:40Z</time>
      </trkpt>
      <trkpt lat="46.11769" lon="2.44679">
        <ele>469</ele>
        <time>2015-04-20T14:09:42Z</time>
      </trkpt>
      <trkpt lat="46.11767" lon="2.44681">
        <ele>470</ele>
        <time>2015-04-20T14:09:44Z</time>
      </trkpt>
      <trkpt lat="46.11764" lon="2.44684">
        <ele>470</ele>
        <time>2015-04-20T14:09:47Z</time>
      </trkpt>
      <trkpt lat="46.11762" lon="2.44685">
        <ele>470</ele>
        <time>2015-04-20T14:09:49Z</time>
      </trkpt>
      <trkpt lat="46.1176" lon="2.44687">
        <ele>470</ele>
        <time>2015-04-20T14:09:51Z</time>
      </trkpt>
      <trkpt lat="46.11759" lon="2.44688">
        <ele>471</ele>
        <time>2015-04-20T14:09:53Z</time>
      </trkpt>
      <trkpt lat="46.11757" lon="2.4469">
        <ele>471</ele>
        <time>2015-04-20T14:09:55Z</time>
      </trkpt>
      <trkpt lat="46.11755" lon="2.44691">
        <ele>471</ele>
        <time>2015-04-20T14:09:57Z</time>
      </trkpt>
      <trkpt lat="46.11753" lon="2.44693">
        <ele>472</ele>
        <time>2015-04-20T14:09:59Z</time>
      </trkpt>
      <trkpt lat="46.11751" lon="2.44695">
        <ele>472</ele>
        <time>2015-04-20T14:10:01Z</time>
      </trkpt>
      <trkpt lat="46.1175" lon="2.44696">
        <ele>472</ele>
        <time>2015-04-20T14:10:03Z</time>
      </trkpt>
      <trkpt lat="46.11748" lon="2.44698">
        <ele>472</ele>
        <time>2015-04-20T14:10:05Z</time>
      </trkpt>
      <trkpt lat="46.11746" lon="2.447">
        <ele>472</ele>
        <time>2015-04-20T14:10:07Z</time>
      </trkpt>
      <trkpt lat="46.11744" lon="2.44701">
        <ele>473</ele>
        <time>2015-04-20T14:10:09Z</time>
      </trkpt>
      <trkpt lat="46.11742" lon="2.44703">
        <ele>473</ele>
        <time>2015-04-20T14:10:11Z</time>
      </trkpt>
      <trkpt lat="46.1174" lon="2.44704">
        <ele>473</ele>
        <time>2015-04-20T14:10:13Z</time>
      </trkpt>
      <trkpt lat="46.11738" lon="2.44706">
        <ele>474</ele>
        <time>2015-04-20T14:10:15Z</time>
      </trkpt>
      <trkpt lat="46.11736" lon="2.44707">
        <ele>474</ele>
        <time>2015-04-20T14:10:17Z</time>
      </trkpt>
      <trkpt lat="46.11734" lon="2.44707">
        <ele>474</ele>
        <time>2015-04-20T14:10:19Z</time>
      </trkpt>
      <trkpt lat="46.11731" lon="2.44708">
        <ele>475</ele>
        <time>2015-04-20T14:10:21Z</time>
      </trkpt>
      <trkpt lat="46.11729" lon="2.44708">
        <ele>475</ele>
        <time>2015-04-20T14:10:23Z</time>
      </trkpt>
      <trkpt lat="46.11727" lon="2.44708">
        <ele>475</ele>
        <time>2015-04-20T14:10:25Z</time>
      </trkpt>
      <trkpt lat="46.11725" lon="2.44708">
        <ele>475</ele>
        <time>2015-04-20T14:10:27Z</time>
      </trkpt>
      <trkpt lat="46.11721" lon="2.44708">
        <ele>476</ele>
        <time>2015-04-20T14:10:30Z</time>
      </trkpt>
      <trkpt lat="46.11718" lon="2.44707">
        <ele>476</ele>
        <time>2015-04-20T14:10:33Z</time>
      </trkpt>
      <trkpt lat="46.11716" lon="2.44706">
        <ele>476</ele>
        <time>2015-04-20T14:10:35Z</time>
      </trkpt>
      <trkpt lat="46.11713" lon="2.44704">
        <ele>476</ele>
        <time>2015-04-20T14:10:38Z</time>
      </trkpt>
      <trkpt lat="46.1171" lon="2.44703">
        <ele>476</ele>
        <time>2015-04-20T14:10:40Z</time>
      </trkpt>
      <trkpt lat="46.11708" lon="2.44702">
        <ele>476</ele>
        <time>2015-04-20T14:10:42Z</time>
      </trkpt>
      <trkpt lat="46.11706" lon="2.44701">
        <ele>476</ele>
        <time>2015-04-20T14:10:44Z</time>
      </trkpt>
      <trkpt lat="46.11703" lon="2.447">
        <ele>477</ele>
        <time>2015-04-20T14:10:46Z</time>
      </trkpt>
      <trkpt lat="46.11701" lon="2.44698">
        <ele>477</ele>
        <time>2015-04-20T14:10:48Z</time>
      </trkpt>
      <trkpt lat="46.11698" lon="2.44696">
        <ele>477</ele>
        <time>2015-04-20T14:10:51Z</time>
      </trkpt>
      <trkpt lat="46.11695" lon="2.44695">
        <ele>478</ele>
        <time>2015-04-20T14:10:53Z</time>
      </trkpt>
      <trkpt lat="46.11692" lon="2.44693">
        <ele>478</ele>
        <time>2015-04-20T14:10:56Z</time>
      </trkpt>
      <trkpt lat="46.11689" lon="2.44692">
        <ele>478</ele>
        <time>2015-04-20T14:10:58Z</time>
      </trkpt>
      <trkpt lat="46.11687" lon="2.44691">
        <ele>478</ele>
        <time>2015-04-20T14:11:00Z</time>
      </trkpt>
      <trkpt lat="46.11685" lon="2.4469">
        <ele>478</ele>
        <time>2015-04-20T14:11:02Z</time>
      </trkpt>
      <trkpt lat="46.11683" lon="2.44689">
        <ele>478</ele>
        <time>2015-04-20T14:11:04Z</time>
      </trkpt>
      <trkpt lat="46.1168" lon="2.44687">
        <ele>478</ele>
        <time>2015-04-20T14:11:06Z</time>
      </trkpt>
      <trkpt lat="46.11678" lon="2.44686">
        <ele>478</ele>
        <time>2015-04-20T14:11:08Z</time>
      </trkpt>
      <trkpt lat="46.11676" lon="2.44685">
        <ele>479</ele>
        <time>2015-04-20T14:11:10Z</time>
      </trkpt>
      <trkpt lat="46.11673" lon="2.44684">
        <ele>479</ele>
        <time>2015-04-20T14:11:12Z</time>
      </trkpt>
      <trkpt lat="46.11671" lon="2.44684">
        <ele>479</ele>
        <time>2015-04-20T14:11:14Z</time>
      </trkpt>
      <trkpt lat="46.11668" lon="2.44684">
        <ele>479</ele>
        <time>2015-04-20T14:11:16Z</time>
      </trkpt>
      <trkpt lat="46.11665" lon="2.44686">
        <ele>480</ele>
        <time>2015-04-20T14:11:19Z</time>
      </trkpt>
      <trkpt lat="46.11664" lon="2.44689">
        <ele>480</ele>
        <time>2015-04-20T14:11:21Z</time>
      </trkpt>
      <trkpt lat="46.11662" lon="2.44691">
        <ele>480</ele>
        <time>2015-04-20T14:11:23Z</time>
      </trkpt>
      <trkpt lat="46.1166" lon="2.44693">
        <ele>480</ele>
        <time>2015-04-20T14:11:25Z</time>
      </trkpt>
      <trkpt lat="46.11658" lon="2.44695">
        <ele>480</ele>
        <time>2015-04-20T14:11:27Z</time>
      </trkpt>
      <trkpt lat="46.11655" lon="2.44696">
        <ele>481</ele>
        <time>2015-04-20T14:11:30Z</time>
      </trkpt>
      <trkpt lat="46.11652" lon="2.44697">
        <ele>481</ele>
        <time>2015-04-20T14:11:32Z</time>
      </trkpt>
      <trkpt lat="46.1165" lon="2.44698">
        <ele>481</ele>
        <time>2015-04-20T14:11:34Z</time>
      </trkpt>
      <trkpt lat="46.11646" lon="2.447">
        <ele>481</ele>
        <time>2015-04-20T14:11:37Z</time>
      </trkpt>
      <trkpt lat="46.11644" lon="2.44701">
        <ele>481</ele>
        <time>2015-04-20T14:11:39Z</time>
      </trkpt>
      <trkpt lat="46.11641" lon="2.44704">
        <ele>481</ele>
        <time>2015-04-20T14:11:42Z</time>
      </trkpt>
      <trkpt lat="46.11639" lon="2.44706">
        <ele>481</ele>
        <time>2015-04-20T14:11:44Z</time>
      </trkpt>
      <trkpt lat="46.11637" lon="2.44708">
        <ele>481</ele>
        <time>2015-04-20T14:11:46Z</time>
      </trkpt>
      <trkpt lat="46.11635" lon="2.4471">
        <ele>481</ele>
        <time>2015-04-20T14:11:48Z</time>
      </trkpt>
      <trkpt lat="46.11633" lon="2.44713">
        <ele>482</ele>
        <time>2015-04-20T14:11:50Z</time>
      </trkpt>
      <trkpt lat="46.11629" lon="2.44716">
        <ele>482</ele>
        <time>2015-04-20T14:11:53Z</time>
      </trkpt>
      <trkpt lat="46.11627" lon="2.44718">
        <ele>482</ele>
        <time>2015-04-20T14:11:55Z</time>
      </trkpt>
      <trkpt lat="46.11625" lon="2.4472">
        <ele>482</ele>
        <time>2015-04-20T14:11:57Z</time>
      </trkpt>
      <trkpt lat="46.11623" lon="2.44722">
        <ele>483</ele>
        <time>2015-04-20T14:11:59Z</time>
      </trkpt>
      <trkpt lat="46.11621" lon="2.44724">
        <ele>483</ele>
        <time>2015-04-20T14:12:01Z</time>
      </trkpt>
      <trkpt lat="46.11619" lon="2.44726">
        <ele>483</ele>
        <time>2015-04-20T14:12:03Z</time>
      </trkpt>
      <trkpt lat="46.11617" lon="2.44728">
        <ele>483</ele>
        <time>2015-04-20T14:12:05Z</time>
      </trkpt>
      <trkpt lat="46.11615" lon="2.4473">
        <ele>483</ele>
        <time>2015-04-20T14:12:07Z</time>
      </trkpt>
      <trkpt lat="46.11613" lon="2.44732">
        <ele>483</ele>
        <time>2015-04-20T14:12:09Z</time>
      </trkpt>
      <trkpt lat="46.11611" lon="2.44735">
        <ele>483</ele>
        <time>2015-04-20T14:12:11Z</time>
      </trkpt>
      <trkpt lat="46.11608" lon="2.44738">
        <ele>483</ele>
        <time>2015-04-20T14:12:14Z</time>
      </trkpt>
      <trkpt lat="46.11606" lon="2.4474">
        <ele>483</ele>
        <time>2015-04-20T14:12:16Z</time>
      </trkpt>
      <trkpt lat="46.11603" lon="2.44743">
        <ele>483</ele>
        <time>2015-04-20T14:12:19Z</time>
      </trkpt>
      <trkpt lat="46.11601" lon="2.44746">
        <ele>484</ele>
        <time>2015-04-20T14:12:21Z</time>
      </trkpt>
      <trkpt lat="46.11599" lon="2.44748">
        <ele>484</ele>
        <time>2015-04-20T14:12:23Z</time>
      </trkpt>
      <trkpt lat="46.11597" lon="2.44751">
        <ele>484</ele>
        <time>2015-04-20T14:12:25Z</time>
      </trkpt>
      <trkpt lat="46.11593" lon="2.44754">
        <ele>484</ele>
        <time>2015-04-20T14:12:28Z</time>
      </trkpt>
      <trkpt lat="46.11591" lon="2.44757">
        <ele>485</ele>
        <time>2015-04-20T14:12:30Z</time>
      </trkpt>
      <trkpt lat="46.11589" lon="2.44758">
        <ele>485</ele>
        <time>2015-04-20T14:12:32Z</time>
      </trkpt>
      <trkpt lat="46.11586" lon="2.44759">
        <ele>486</ele>
        <time>2015-04-20T14:12:34Z</time>
      </trkpt>
      <trkpt lat="46.11583" lon="2.44762">
        <ele>488</ele>
        <time>2015-04-20T14:12:37Z</time>
      </trkpt>
      <trkpt lat="46.1158" lon="2.44763">
        <ele>489</ele>
        <time>2015-04-20T14:12:39Z</time>
      </trkpt>
      <trkpt lat="46.11576" lon="2.44767">
        <ele>490</ele>
        <time>2015-04-20T14:12:42Z</time>
      </trkpt>
      <trkpt lat="46.11574" lon="2.4477">
        <ele>490</ele>
        <time>2015-04-20T14:12:45Z</time>
      </trkpt>
      <trkpt lat="46.1157" lon="2.44774">
        <ele>491</ele>
        <time>2015-04-20T14:12:48Z</time>
      </trkpt>
      <trkpt lat="46.11569" lon="2.44776">
        <ele>491</ele>
        <time>2015-04-20T14:12:50Z</time>
      </trkpt>
      <trkpt lat="46.11568" lon="2.44777">
        <ele>492</ele>
        <time>2015-04-20T14:12:52Z</time>
      </trkpt>
      <trkpt lat="46.11566" lon="2.4478">
        <ele>492</ele>
        <time>2015-04-20T14:12:54Z</time>
      </trkpt>
      <trkpt lat="46.11562" lon="2.44784">
        <ele>493</ele>
        <time>2015-04-20T14:12:58Z</time>
      </trkpt>
      <trkpt lat="46.1156" lon="2.44787">
        <ele>493</ele>
        <time>2015-04-20T14:13:00Z</time>
      </trkpt>
      <trkpt lat="46.11559" lon="2.44789">
        <ele>494</ele>
        <time>2015-04-20T14:13:02Z</time>
      </trkpt>
      <trkpt lat="46.11555" lon="2.44793">
        <ele>494</ele>
        <time>2015-04-20T14:13:05Z</time>
      </trkpt>
      <trkpt lat="46.11553" lon="2.44795">
        <ele>494</ele>
        <time>2015-04-20T14:13:07Z</time>
      </trkpt>
      <trkpt lat="46.1155" lon="2.44799">
        <ele>494</ele>
        <time>2015-04-20T14:13:10Z</time>
      </trkpt>
      <trkpt lat="46.11546" lon="2.44803">
        <ele>494</ele>
        <time>2015-04-20T14:13:13Z</time>
      </trkpt>
      <trkpt lat="46.11544" lon="2.44805">
        <ele>494</ele>
        <time>2015-04-20T14:13:15Z</time>
      </trkpt>
      <trkpt lat="46.11542" lon="2.44808">
        <ele>495</ele>
        <time>2015-04-20T14:13:17Z</time>
      </trkpt>
      <trkpt lat="46.1154" lon="2.44811">
        <ele>495</ele>
        <time>2015-04-20T14:13:19Z</time>
      </trkpt>
      <trkpt lat="46.11538" lon="2.44813">
        <ele>495</ele>
        <time>2015-04-20T14:13:21Z</time>
      </trkpt>
      <trkpt lat="46.11536" lon="2.44816">
        <ele>495</ele>
        <time>2015-04-20T14:13:23Z</time>
      </trkpt>
      <trkpt lat="46.11534" lon="2.44818">
        <ele>495</ele>
        <time>2015-04-20T14:13:25Z</time>
      </trkpt>
      <trkpt lat="46.11532" lon="2.44821">
        <ele>495</ele>
        <time>2015-04-20T14:13:27Z</time>
      </trkpt>
      <trkpt lat="46.1153" lon="2.44824">
        <ele>495</ele>
        <time>2015-04-20T14:13:29Z</time>
      </trkpt>
      <trkpt lat="46.11527" lon="2.44829">
        <ele>496</ele>
        <time>2015-04-20T14:13:32Z</time>
      </trkpt>
      <trkpt lat="46.11525" lon="2.44833">
        <ele>496</ele>
        <time>2015-04-20T14:13:35Z</time>
      </trkpt>
      <trkpt lat="46.11523" lon="2.44835">
        <ele>496</ele>
        <time>2015-04-20T14:13:37Z</time>
      </trkpt>
      <trkpt lat="46.1152" lon="2.44837">
        <ele>496</ele>
        <time>2015-04-20T14:13:39Z</time>
      </trkpt>
      <trkpt lat="46.11518" lon="2.4484">
        <ele>497</ele>
        <time>2015-04-20T14:13:41Z</time>
      </trkpt>
      <trkpt lat="46.11516" lon="2.44843">
        <ele>498</ele>
        <time>2015-04-20T14:13:43Z</time>
      </trkpt>
      <trkpt lat="46.11514" lon="2.44845">
        <ele>498</ele>
        <time>2015-04-20T14:13:45Z</time>
      </trkpt>
      <trkpt lat="46.11512" lon="2.44847">
        <ele>498</ele>
        <time>2015-04-20T14:13:47Z</time>
      </trkpt>
      <trkpt lat="46.11509" lon="2.44851">
        <ele>499</ele>
        <time>2015-04-20T14:13:50Z</time>
      </trkpt>
      <trkpt lat="46.11507" lon="2.44854">
        <ele>499</ele>
        <time>2015-04-20T14:13:52Z</time>
      </trkpt>
      <trkpt lat="46.11505" lon="2.44857">
        <ele>499</ele>
        <time>2015-04-20T14:13:54Z</time>
      </trkpt>
      <trkpt lat="46.11503" lon="2.4486">
        <ele>499</ele>
        <time>2015-04-20T14:13:56Z</time>
      </trkpt>
      <trkpt lat="46.11501" lon="2.44863">
        <ele>499</ele>
        <time>2015-04-20T14:13:58Z</time>
      </trkpt>
      <trkpt lat="46.115" lon="2.44866">
        <ele>499</ele>
        <time>2015-04-20T14:14:00Z</time>
      </trkpt>
      <trkpt lat="46.11498" lon="2.4487">
        <ele>500</ele>
        <time>2015-04-20T14:14:02Z</time>
      </trkpt>
      <trkpt lat="46.11496" lon="2.44873">
        <ele>500</ele>
        <time>2015-04-20T14:14:04Z</time>
      </trkpt>
      <trkpt lat="46.11495" lon="2.44876">
        <ele>500</ele>
        <time>2015-04-20T14:14:06Z</time>
      </trkpt>
      <trkpt lat="46.11493" lon="2.4488">
        <ele>500</ele>
        <time>2015-04-20T14:14:08Z</time>
      </trkpt>
      <trkpt lat="46.11492" lon="2.44884">
        <ele>500</ele>
        <time>2015-04-20T14:14:10Z</time>
      </trkpt>
      <trkpt lat="46.11491" lon="2.44887">
        <ele>500</ele>
        <time>2015-04-20T14:14:12Z</time>
      </trkpt>
      <trkpt lat="46.1149" lon="2.44892">
        <ele>500</ele>
        <time>2015-04-20T14:14:14Z</time>
      </trkpt>
      <trkpt lat="46.11488" lon="2.44895">
        <ele>501</ele>
        <time>2015-04-20T14:14:16Z</time>
      </trkpt>
      <trkpt lat="46.11487" lon="2.44899">
        <ele>501</ele>
        <time>2015-04-20T14:14:18Z</time>
      </trkpt>
      <trkpt lat="46.11486" lon="2.44902">
        <ele>501</ele>
        <time>2015-04-20T14:14:20Z</time>
      </trkpt>
      <trkpt lat="46.11485" lon="2.44906">
        <ele>501</ele>
        <time>2015-04-20T14:14:22Z</time>
      </trkpt>
      <trkpt lat="46.11484" lon="2.44911">
        <ele>501</ele>
        <time>2015-04-20T14:14:24Z</time>
      </trkpt>
      <trkpt lat="46.11483" lon="2.44914">
        <ele>501</ele>
        <time>2015-04-20T14:14:26Z</time>
      </trkpt>
      <trkpt lat="46.11482" lon="2.44918">
        <ele>502</ele>
        <time>2015-04-20T14:14:28Z</time>
      </trkpt>
      <trkpt lat="46.11481" lon="2.44922">
        <ele>502</ele>
        <time>2015-04-20T14:14:30Z</time>
      </trkpt>
      <trkpt lat="46.1148" lon="2.44926">
        <ele>502</ele>
        <time>2015-04-20T14:14:32Z</time>
      </trkpt>
      <trkpt lat="46.1148" lon="2.4493">
        <ele>502</ele>
        <time>2015-04-20T14:14:34Z</time>
      </trkpt>
      <trkpt lat="46.1148" lon="2.44935">
        <ele>502</ele>
        <time>2015-04-20T14:14:36Z</time>
      </trkpt>
      <trkpt lat="46.11479" lon="2.44939">
        <ele>503</ele>
        <time>2015-04-20T14:14:38Z</time>
      </trkpt>
      <trkpt lat="46.11478" lon="2.44943">
        <ele>503</ele>
        <time>2015-04-20T14:14:40Z</time>
      </trkpt>
      <trkpt lat="46.11478" lon="2.44946">
        <ele>503</ele>
        <time>2015-04-20T14:14:42Z</time>
      </trkpt>
      <trkpt lat="46.11477" lon="2.4495">
        <ele>503</ele>
        <time>2015-04-20T14:14:44Z</time>
      </trkpt>
      <trkpt lat="46.11476" lon="2.44953">
        <ele>504</ele>
        <time>2015-04-20T14:14:46Z</time>
      </trkpt>
      <trkpt lat="46.11475" lon="2.44957">
        <ele>504</ele>
        <time>2015-04-20T14:14:48Z</time>
      </trkpt>
      <trkpt lat="46.11475" lon="2.44961">
        <ele>504</ele>
        <time>2015-04-20T14:14:50Z</time>
      </trkpt>
      <trkpt lat="46.11474" lon="2.44965">
        <ele>504</ele>
        <time>2015-04-20T14:14:52Z</time>
      </trkpt>
      <trkpt lat="46.11474" lon="2.44968">
        <ele>505</ele>
        <time>2015-04-20T14:14:54Z</time>
      </trkpt>
      <trkpt lat="46.11473" lon="2.44971">
        <ele>505</ele>
        <time>2015-04-20T14:14:56Z</time>
      </trkpt>
      <trkpt lat="46.11472" lon="2.44974">
        <ele>505</ele>
        <time>2015-04-20T14:14:58Z</time>
      </trkpt>
      <trkpt lat="46.11471" lon="2.44977">
        <ele>505</ele>
        <time>2015-04-20T14:15:00Z</time>
      </trkpt>
      <trkpt lat="46.1147" lon="2.44982">
        <ele>505</ele>
        <time>2015-04-20T14:15:02Z</time>
      </trkpt>
      <trkpt lat="46.1147" lon="2.44985">
        <ele>506</ele>
        <time>2015-04-20T14:15:04Z</time>
      </trkpt>
      <trkpt lat="46.11469" lon="2.44988">
        <ele>506</ele>
        <time>2015-04-20T14:15:06Z</time>
      </trkpt>
      <trkpt lat="46.11468" lon="2.44991">
        <ele>506</ele>
        <time>2015-04-20T14:15:08Z</time>
      </trkpt>
      <trkpt lat="46.11467" lon="2.44995">
        <ele>506</ele>
        <time>2015-04-20T14:15:10Z</time>
      </trkpt>
      <trkpt lat="46.11465" lon="2.44998">
        <ele>506</ele>
        <time>2015-04-20T14:15:12Z</time>
      </trkpt>
      <trkpt lat="46.11464" lon="2.45001">
        <ele>506</ele>
        <time>2015-04-20T14:15:14Z</time>
      </trkpt>
      <trkpt lat="46.11464" lon="2.45004">
        <ele>506</ele>
        <time>2015-04-20T14:15:16Z</time>
      </trkpt>
      <trkpt lat="46.11463" lon="2.45006">
        <ele>506</ele>
        <time>2015-04-20T14:15:18Z</time>
      </trkpt>
      <trkpt lat="46.11462" lon="2.45008">
        <ele>507</ele>
        <time>2015-04-20T14:15:20Z</time>
      </trkpt>
      <trkpt lat="46.11461" lon="2.45011">
        <ele>507</ele>
        <time>2015-04-20T14:15:22Z</time>
      </trkpt>
      <trkpt lat="46.1146" lon="2.45014">
        <ele>507</ele>
        <time>2015-04-20T14:15:24Z</time>
      </trkpt>
      <trkpt lat="46.1146" lon="2.45018">
        <ele>507</ele>
        <time>2015-04-20T14:15:26Z</time>
      </trkpt>
      <trkpt lat="46.11459" lon="2.45022">
        <ele>507</ele>
        <time>2015-04-20T14:15:28Z</time>
      </trkpt>
      <trkpt lat="46.11458" lon="2.45025">
        <ele>507</ele>
        <time>2015-04-20T14:15:30Z</time>
      </trkpt>
      <trkpt lat="46.11457" lon="2.4503">
        <ele>507</ele>
        <time>2015-04-20T14:15:32Z</time>
      </trkpt>
      <trkpt lat="46.11456" lon="2.45034">
        <ele>507</ele>
        <time>2015-04-20T14:15:34Z</time>
      </trkpt>
      <trkpt lat="46.11454" lon="2.45037">
        <ele>507</ele>
        <time>2015-04-20T14:15:36Z</time>
      </trkpt>
      <trkpt lat="46.11453" lon="2.45042">
        <ele>507</ele>
        <time>2015-04-20T14:15:38Z</time>
      </trkpt>
      <trkpt lat="46.11452" lon="2.45046">
        <ele>507</ele>
        <time>2015-04-20T14:15:40Z</time>
      </trkpt>
      <trkpt lat="46.11451" lon="2.45049">
        <ele>508</ele>
        <time>2015-04-20T14:15:42Z</time>
      </trkpt>
      <trkpt lat="46.11449" lon="2.45053">
        <ele>508</ele>
        <time>2015-04-20T14:15:44Z</time>
      </trkpt>
      <trkpt lat="46.11447" lon="2.45057">
        <ele>508</ele>
        <time>2015-04-20T14:15:46Z</time>
      </trkpt>
      <trkpt lat="46.11446" lon="2.4506">
        <ele>508</ele>
        <time>2015-04-20T14:15:48Z</time>
      </trkpt>
      <trkpt lat="46.11444" lon="2.45063">
        <ele>508</ele>
        <time>2015-04-20T14:15:50Z</time>
      </trkpt>
      <trkpt lat="46.11443" lon="2.45067">
        <ele>509</ele>
        <time>2015-04-20T14:15:52Z</time>
      </trkpt>
      <trkpt lat="46.11442" lon="2.45071">
        <ele>509</ele>
        <time>2015-04-20T14:15:54Z</time>
      </trkpt>
      <trkpt lat="46.11441" lon="2.45074">
        <ele>509</ele>
        <time>2015-04-20T14:15:56Z</time>
      </trkpt>
      <trkpt lat="46.1144" lon="2.45078">
        <ele>509</ele>
        <time>2015-04-20T14:15:58Z</time>
      </trkpt>
      <trkpt lat="46.11438" lon="2.45082">
        <ele>510</ele>
        <time>2015-04-20T14:16:00Z</time>
      </trkpt>
      <trkpt lat="46.11438" lon="2.45086">
        <ele>510</ele>
        <time>2015-04-20T14:16:02Z</time>
      </trkpt>
      <trkpt lat="46.11437" lon="2.4509">
        <ele>511</ele>
        <time>2015-04-20T14:16:04Z</time>
      </trkpt>
      <trkpt lat="46.11436" lon="2.45094">
        <ele>511</ele>
        <time>2015-04-20T14:16:06Z</time>
      </trkpt>
      <trkpt lat="46.11436" lon="2.45098">
        <ele>511</ele>
        <time>2015-04-20T14:16:08Z</time>
      </trkpt>
      <trkpt lat="46.11435" lon="2.45103">
        <ele>511</ele>
        <time>2015-04-20T14:16:10Z</time>
      </trkpt>
      <trkpt lat="46.11435" lon="2.45107">
        <ele>511</ele>
        <time>2015-04-20T14:16:12Z</time>
      </trkpt>
      <trkpt lat="46.11435" lon="2.45111">
        <ele>511</ele>
        <time>2015-04-20T14:16:14Z</time>
      </trkpt>
      <trkpt lat="46.11434" lon="2.45115">
        <ele>511</ele>
        <time>2015-04-20T14:16:16Z</time>
      </trkpt>
      <trkpt lat="46.11434" lon="2.45119">
        <ele>511</ele>
        <time>2015-04-20T14:16:18Z</time>
      </trkpt>
      <trkpt lat="46.11433" lon="2.45123">
        <ele>511</ele>
        <time>2015-04-20T14:16:20Z</time>
      </trkpt>
      <trkpt lat="46.11433" lon="2.45127">
        <ele>511</ele>
        <time>2015-04-20T14:16:22Z</time>
      </trkpt>
      <trkpt lat="46.11433" lon="2.45134">
        <ele>511</ele>
        <time>2015-04-20T14:16:25Z</time>
      </trkpt>
      <trkpt lat="46.11432" lon="2.4514">
        <ele>511</ele>
        <time>2015-04-20T14:16:28Z</time>
      </trkpt>
      <trkpt lat="46.11432" lon="2.45144">
        <ele>511</ele>
        <time>2015-04-20T14:16:30Z</time>
      </trkpt>
      <trkpt lat="46.11432" lon="2.45148">
        <ele>511</ele>
        <time>2015-04-20T14:16:32Z</time>
      </trkpt>
      <trkpt lat="46.11431" lon="2.45153">
        <ele>511</ele>
        <time>2015-04-20T14:16:34Z</time>
      </trkpt>
      <trkpt lat="46.11431" lon="2.45157">
        <ele>511</ele>
        <time>2015-04-20T14:16:36Z</time>
      </trkpt>
      <trkpt lat="46.11431" lon="2.45161">
        <ele>511</ele>
        <time>2015-04-20T14:16:38Z</time>
      </trkpt>
      <trkpt lat="46.1143" lon="2.45165">
        <ele>511</ele>
        <time>2015-04-20T14:16:40Z</time>
      </trkpt>
      <trkpt lat="46.1143" lon="2.45168">
        <ele>511</ele>
        <time>2015-04-20T14:16:42Z</time>
      </trkpt>
      <trkpt lat="46.1143" lon="2.45172">
        <ele>511</ele>
        <time>2015-04-20T14:16:44Z</time>
      </trkpt>
      <trkpt lat="46.1143" lon="2.45176">
        <ele>511</ele>
        <time>2015-04-20T14:16:46Z</time>
      </trkpt>
      <trkpt lat="46.1143" lon="2.4518">
        <ele>511</ele>
        <time>2015-04-20T14:16:48Z</time>
      </trkpt>
      <trkpt lat="46.11429" lon="2.45186">
        <ele>511</ele>
        <time>2015-04-20T14:16:51Z</time>
      </trkpt>
      <trkpt lat="46.11429" lon="2.45191">
        <ele>511</ele>
        <time>2015-04-20T14:16:53Z</time>
      </trkpt>
      <trkpt lat="46.11429" lon="2.45195">
        <ele>511</ele>
        <time>2015-04-20T14:16:55Z</time>
      </trkpt>
      <trkpt lat="46.11428" lon="2.45199">
        <ele>511</ele>
        <time>2015-04-20T14:16:57Z</time>
      </trkpt>
      <trkpt lat="46.11428" lon="2.45204">
        <ele>511</ele>
        <time>2015-04-20T14:16:59Z</time>
      </trkpt>
      <trkpt lat="46.11428" lon="2.45208">
        <ele>511</ele>
        <time>2015-04-20T14:17:01Z</time>
      </trkpt>
      <trkpt lat="46.11427" lon="2.45213">
        <ele>511</ele>
        <time>2015-04-20T14:17:03Z</time>
      </trkpt>
      <trkpt lat="46.11427" lon="2.45217">
        <ele>511</ele>
        <time>2015-04-20T14:17:05Z</time>
      </trkpt>
      <trkpt lat="46.11426" lon="2.45221">
        <ele>511</ele>
        <time>2015-04-20T14:17:07Z</time>
      </trkpt>
      <trkpt lat="46.11425" lon="2.45225">
        <ele>511</ele>
        <time>2015-04-20T14:17:09Z</time>
      </trkpt>
      <trkpt lat="46.11425" lon="2.45229">
        <ele>511</ele>
        <time>2015-04-20T14:17:11Z</time>
      </trkpt>
      <trkpt lat="46.11425" lon="2.45233">
        <ele>511</ele>
        <time>2015-04-20T14:17:13Z</time>
      </trkpt>
      <trkpt lat="46.11424" lon="2.45238">
        <ele>511</ele>
        <time>2015-04-20T14:17:15Z</time>
      </trkpt>
      <trkpt lat="46.11423" lon="2.45242">
        <ele>511</ele>
        <time>2015-04-20T14:17:17Z</time>
      </trkpt>
      <trkpt lat="46.11422" lon="2.45246">
        <ele>511</ele>
        <time>2015-04-20T14:17:19Z</time>
      </trkpt>
      <trkpt lat="46.11421" lon="2.4525">
        <ele>511</ele>
        <time>2015-04-20T14:17:21Z</time>
      </trkpt>
      <trkpt lat="46.1142" lon="2.45254">
        <ele>511</ele>
        <time>2015-04-20T14:17:23Z</time>
      </trkpt>
      <trkpt lat="46.11419" lon="2.45258">
        <ele>511</ele>
        <time>2015-04-20T14:17:25Z</time>
      </trkpt>
      <trkpt lat="46.11418" lon="2.45262">
        <ele>511</ele>
        <time>2015-04-20T14:17:27Z</time>
      </trkpt>
      <trkpt lat="46.11417" lon="2.45266">
        <ele>511</ele>
        <time>2015-04-20T14:17:29Z</time>
      </trkpt>
      <trkpt lat="46.11417" lon="2.4527">
        <ele>511</ele>
        <time>2015-04-20T14:17:31Z</time>
      </trkpt>
      <trkpt lat="46.11416" lon="2.45274">
        <ele>511</ele>
        <time>2015-04-20T14:17:33Z</time>
      </trkpt>
      <trkpt lat="46.11415" lon="2.45278">
        <ele>511</ele>
        <time>2015-04-20T14:17:35Z</time>
      </trkpt>
      <trkpt lat="46.11415" lon="2.45282">
        <ele>511</ele>
        <time>2015-04-20T14:17:37Z</time>
      </trkpt>
      <trkpt lat="46.11414" lon="2.45286">
        <ele>511</ele>
        <time>2015-04-20T14:17:39Z</time>
      </trkpt>
      <trkpt lat="46.11414" lon="2.4529">
        <ele>511</ele>
        <time>2015-04-20T14:17:41Z</time>
      </trkpt>
      <trkpt lat="46.11413" lon="2.45294">
        <ele>511</ele>
        <time>2015-04-20T14:17:43Z</time>
      </trkpt>
      <trkpt lat="46.11413" lon="2.45298">
        <ele>511</ele>
        <time>2015-04-20T14:17:45Z</time>
      </trkpt>
      <trkpt lat="46.11413" lon="2.45304">
        <ele>511</ele>
        <time>2015-04-20T14:17:48Z</time>
      </trkpt>
      <trkpt lat="46.11413" lon="2.45309">
        <ele>511</ele>
        <time>2015-04-20T14:17:51Z</time>
      </trkpt>
      <trkpt lat="46.11412" lon="2.45312">
        <ele>511</ele>
        <time>2015-04-20T14:17:53Z</time>
      </trkpt>
      <trkpt lat="46.11411" lon="2.45318">
        <ele>511</ele>
        <time>2015-04-20T14:17:56Z</time>
      </trkpt>
      <trkpt lat="46.1141" lon="2.45322">
        <ele>511</ele>
        <time>2015-04-20T14:17:58Z</time>
      </trkpt>
      <trkpt lat="46.11409" lon="2.45326">
        <ele>511</ele>
        <time>2015-04-20T14:18:00Z</time>
      </trkpt>
      <trkpt lat="46.11408" lon="2.45329">
        <ele>511</ele>
        <time>2015-04-20T14:18:02Z</time>
      </trkpt>
      <trkpt lat="46.11407" lon="2.45333">
        <ele>511</ele>
        <time>2015-04-20T14:18:04Z</time>
      </trkpt>
      <trkpt lat="46.11406" lon="2.45337">
        <ele>511</ele>
        <time>2015-04-20T14:18:06Z</time>
      </trkpt>
      <trkpt lat="46.11405" lon="2.4534">
        <ele>511</ele>
        <time>2015-04-20T14:18:08Z</time>
      </trkpt>
      <trkpt lat="46.11404" lon="2.45344">
        <ele>511</ele>
        <time>2015-04-20T14:18:10Z</time>
      </trkpt>
      <trkpt lat="46.11403" lon="2.45347">
        <ele>511</ele>
        <time>2015-04-20T14:18:12Z</time>
      </trkpt>
      <trkpt lat="46.11403" lon="2.45349">
        <ele>511</ele>
        <time>2015-04-20T14:18:14Z</time>
      </trkpt>
      <trkpt lat="46.11402" lon="2.45351">
        <ele>511</ele>
        <time>2015-04-20T14:18:16Z</time>
      </trkpt>
      <trkpt lat="46.11401" lon="2.45355">
        <ele>511</ele>
        <time>2015-04-20T14:18:18Z</time>
      </trkpt>
      <trkpt lat="46.11401" lon="2.45359">
        <ele>511</ele>
        <time>2015-04-20T14:18:20Z</time>
      </trkpt>
      <trkpt lat="46.114" lon="2.45363">
        <ele>511</ele>
        <time>2015-04-20T14:18:22Z</time>
      </trkpt>
      <trkpt lat="46.11399" lon="2.45367">
        <ele>511</ele>
        <time>2015-04-20T14:18:24Z</time>
      </trkpt>
      <trkpt lat="46.11398" lon="2.45371">
        <ele>511</ele>
        <time>2015-04-20T14:18:26Z</time>
      </trkpt>
      <trkpt lat="46.11397" lon="2.45374">
        <ele>511</ele>
        <time>2015-04-20T14:18:28Z</time>
      </trkpt>
      <trkpt lat="46.11396" lon="2.45378">
        <ele>511</ele>
        <time>2015-04-20T14:18:30Z</time>
      </trkpt>
      <trkpt lat="46.11395" lon="2.45382">
        <ele>511</ele>
        <time>2015-04-20T14:18:32Z</time>
      </trkpt>
      <trkpt lat="46.11393" lon="2.45386">
        <ele>511</ele>
        <time>2015-04-20T14:18:34Z</time>
      </trkpt>
      <trkpt lat="46.11391" lon="2.4539">
        <ele>511</ele>
        <time>2015-04-20T14:18:36Z</time>
      </trkpt>
      <trkpt lat="46.11391" lon="2.45393">
        <ele>511</ele>
        <time>2015-04-20T14:18:38Z</time>
      </trkpt>
      <trkpt lat="46.11389" lon="2.45396">
        <ele>511</ele>
        <time>2015-04-20T14:18:40Z</time>
      </trkpt>
      <trkpt lat="46.11388" lon="2.454">
        <ele>511</ele>
        <time>2015-04-20T14:18:42Z</time>
      </trkpt>
      <trkpt lat="46.11386" lon="2.45403">
        <ele>511</ele>
        <time>2015-04-20T14:18:44Z</time>
      </trkpt>
      <trkpt lat="46.11385" lon="2.45406">
        <ele>511</ele>
        <time>2015-04-20T14:18:46Z</time>
      </trkpt>
      <trkpt lat="46.11383" lon="2.4541">
        <ele>511</ele>
        <time>2015-04-20T14:18:49Z</time>
      </trkpt>
      <trkpt lat="46.11381" lon="2.45413">
        <ele>511</ele>
        <time>2015-04-20T14:18:51Z</time>
      </trkpt>
      <trkpt lat="46.1138" lon="2.45417">
        <ele>511</ele>
        <time>2015-04-20T14:18:53Z</time>
      </trkpt>
      <trkpt lat="46.11378" lon="2.45421">
        <ele>511</ele>
        <time>2015-04-20T14:18:55Z</time>
      </trkpt>
      <trkpt lat="46.11377" lon="2.45424">
        <ele>511</ele>
        <time>2015-04-20T14:18:57Z</time>
      </trkpt>
      <trkpt lat="46.11375" lon="2.45428">
        <ele>511</ele>
        <time>2015-04-20T14:18:59Z</time>
      </trkpt>
      <trkpt lat="46.11374" lon="2.45431">
        <ele>511</ele>
        <time>2015-04-20T14:19:01Z</time>
      </trkpt>
      <trkpt lat="46.11372" lon="2.45435">
        <ele>511</ele>
        <time>2015-04-20T14:19:03Z</time>
      </trkpt>
      <trkpt lat="46.11371" lon="2.45438">
        <ele>511</ele>
        <time>2015-04-20T14:19:05Z</time>
      </trkpt>
      <trkpt lat="46.11369" lon="2.45442">
        <ele>511</ele>
        <time>2015-04-20T14:19:07Z</time>
      </trkpt>
      <trkpt lat="46.11368" lon="2.45445">
        <ele>511</ele>
        <time>2015-04-20T14:19:09Z</time>
      </trkpt>
      <trkpt lat="46.11367" lon="2.45448">
        <ele>511</ele>
        <time>2015-04-20T14:19:11Z</time>
      </trkpt>
      <trkpt lat="46.11365" lon="2.45451">
        <ele>511</ele>
        <time>2015-04-20T14:19:13Z</time>
      </trkpt>
      <trkpt lat="46.11364" lon="2.45455">
        <ele>511</ele>
        <time>2015-04-20T14:19:15Z</time>
      </trkpt>
      <trkpt lat="46.11362" lon="2.45458">
        <ele>511</ele>
        <time>2015-04-20T14:19:17Z</time>
      </trkpt>
      <trkpt lat="46.11359" lon="2.45463">
        <ele>511</ele>
        <time>2015-04-20T14:19:20Z</time>
      </trkpt>
      <trkpt lat="46.11358" lon="2.45467">
        <ele>511</ele>
        <time>2015-04-20T14:19:22Z</time>
      </trkpt>
      <trkpt lat="46.11356" lon="2.4547">
        <ele>511</ele>
        <time>2015-04-20T14:19:24Z</time>
      </trkpt>
      <trkpt lat="46.11355" lon="2.45474">
        <ele>511</ele>
        <time>2015-04-20T14:19:26Z</time>
      </trkpt>
      <trkpt lat="46.11353" lon="2.45478">
        <ele>511</ele>
        <time>2015-04-20T14:19:28Z</time>
      </trkpt>
      <trkpt lat="46.11352" lon="2.45481">
        <ele>511</ele>
        <time>2015-04-20T14:19:30Z</time>
      </trkpt>
      <trkpt lat="46.1135" lon="2.45485">
        <ele>511</ele>
        <time>2015-04-20T14:19:32Z</time>
      </trkpt>
      <trkpt lat="46.11349" lon="2.45488">
        <ele>511</ele>
        <time>2015-04-20T14:19:34Z</time>
      </trkpt>
      <trkpt lat="46.11347" lon="2.45492">
        <ele>511</ele>
        <time>2015-04-20T14:19:36Z</time>
      </trkpt>
      <trkpt lat="46.11345" lon="2.45495">
        <ele>511</ele>
        <time>2015-04-20T14:19:38Z</time>
      </trkpt>
      <trkpt lat="46.11344" lon="2.45498">
        <ele>511</ele>
        <time>2015-04-20T14:19:40Z</time>
      </trkpt>
      <trkpt lat="46.11342" lon="2.45501">
        <ele>511</ele>
        <time>2015-04-20T14:19:42Z</time>
      </trkpt>
      <trkpt lat="46.1134" lon="2.45504">
        <ele>511</ele>
        <time>2015-04-20T14:19:44Z</time>
      </trkpt>
      <trkpt lat="46.11339" lon="2.45508">
        <ele>511</ele>
        <time>2015-04-20T14:19:46Z</time>
      </trkpt>
      <trkpt lat="46.11338" lon="2.45511">
        <ele>511</ele>
        <time>2015-04-20T14:19:48Z</time>
      </trkpt>
      <trkpt lat="46.11336" lon="2.45515">
        <ele>511</ele>
        <time>2015-04-20T14:19:50Z</time>
      </trkpt>
      <trkpt lat="46.11335" lon="2.45518">
        <ele>511</ele>
        <time>2015-04-20T14:19:52Z</time>
      </trkpt>
      <trkpt lat="46.11333" lon="2.45522">
        <ele>511</ele>
        <time>2015-04-20T14:19:54Z</time>
      </trkpt>
      <trkpt lat="46.11332" lon="2.45525">
        <ele>511</ele>
        <time>2015-04-20T14:19:56Z</time>
      </trkpt>
      <trkpt lat="46.11328" lon="2.45531">
        <ele>511</ele>
        <time>2015-04-20T14:20:00Z</time>
      </trkpt>
      <trkpt lat="46.11326" lon="2.45534">
        <ele>511</ele>
        <time>2015-04-20T14:20:02Z</time>
      </trkpt>
      <trkpt lat="46.11324" lon="2.45537">
        <ele>511</ele>
        <time>2015-04-20T14:20:04Z</time>
      </trkpt>
      <trkpt lat="46.11323" lon="2.4554">
        <ele>511</ele>
        <time>2015-04-20T14:20:06Z</time>
      </trkpt>
      <trkpt lat="46.11321" lon="2.45543">
        <ele>511</ele>
        <time>2015-04-20T14:20:08Z</time>
      </trkpt>
      <trkpt lat="46.11319" lon="2.45546">
        <ele>511</ele>
        <time>2015-04-20T14:20:10Z</time>
      </trkpt>
      <trkpt lat="46.11318" lon="2.4555">
        <ele>511</ele>
        <time>2015-04-20T14:20:12Z</time>
      </trkpt>
      <trkpt lat="46.11315" lon="2.45554">
        <ele>511</ele>
        <time>2015-04-20T14:20:15Z</time>
      </trkpt>
      <trkpt lat="46.11314" lon="2.45557">
        <ele>511</ele>
        <time>2015-04-20T14:20:17Z</time>
      </trkpt>
      <trkpt lat="46.11312" lon="2.45561">
        <ele>511</ele>
        <time>2015-04-20T14:20:19Z</time>
      </trkpt>
      <trkpt lat="46.11309" lon="2.45565">
        <ele>511</ele>
        <time>2015-04-20T14:20:22Z</time>
      </trkpt>
      <trkpt lat="46.11308" lon="2.45568">
        <ele>511</ele>
        <time>2015-04-20T14:20:24Z</time>
      </trkpt>
      <trkpt lat="46.11306" lon="2.45571">
        <ele>511</ele>
        <time>2015-04-20T14:20:26Z</time>
      </trkpt>
      <trkpt lat="46.11305" lon="2.45574">
        <ele>511</ele>
        <time>2015-04-20T14:20:28Z</time>
      </trkpt>
      <trkpt lat="46.11303" lon="2.45577">
        <ele>511</ele>
        <time>2015-04-20T14:20:30Z</time>
      </trkpt>
      <trkpt lat="46.11302" lon="2.4558">
        <ele>511</ele>
        <time>2015-04-20T14:20:32Z</time>
      </trkpt>
      <trkpt lat="46.113" lon="2.45583">
        <ele>511</ele>
        <time>2015-04-20T14:20:34Z</time>
      </trkpt>
      <trkpt lat="46.11299" lon="2.45586">
        <ele>511</ele>
        <time>2015-04-20T14:20:36Z</time>
      </trkpt>
      <trkpt lat="46.11297" lon="2.45589">
        <ele>511</ele>
        <time>2015-04-20T14:20:38Z</time>
      </trkpt>
      <trkpt lat="46.11296" lon="2.45593">
        <ele>511</ele>
        <time>2015-04-20T14:20:40Z</time>
      </trkpt>
      <trkpt lat="46.11294" lon="2.45596">
        <ele>511</ele>
        <time>2015-04-20T14:20:42Z</time>
      </trkpt>
      <trkpt lat="46.11293" lon="2.45599">
        <ele>511</ele>
        <time>2015-04-20T14:20:44Z</time>
      </trkpt>
      <trkpt lat="46.11292" lon="2.45602">
        <ele>511</ele>
        <time>2015-04-20T14:20:46Z</time>
      </trkpt>
      <trkpt lat="46.1129" lon="2.45605">
        <ele>511</ele>
        <time>2015-04-20T14:20:48Z</time>
      </trkpt>
      <trkpt lat="46.11288" lon="2.45609">
        <ele>511</ele>
        <time>2015-04-20T14:20:50Z</time>
      </trkpt>
      <trkpt lat="46.11287" lon="2.45612">
        <ele>511</ele>
        <time>2015-04-20T14:20:52Z</time>
      </trkpt>
      <trkpt lat="46.11285" lon="2.45616">
        <ele>511</ele>
        <time>2015-04-20T14:20:54Z</time>
      </trkpt>
      <trkpt lat="46.11284" lon="2.4562">
        <ele>511</ele>
        <time>2015-04-20T14:20:56Z</time>
      </trkpt>
      <trkpt lat="46.11283" lon="2.45623">
        <ele>511</ele>
        <time>2015-04-20T14:20:58Z</time>
      </trkpt>
      <trkpt lat="46.11282" lon="2.45626">
        <ele>511</ele>
        <time>2015-04-20T14:21:00Z</time>
      </trkpt>
      <trkpt lat="46.1128" lon="2.4563">
        <ele>511</ele>
        <time>2015-04-20T14:21:02Z</time>
      </trkpt>
      <trkpt lat="46.11279" lon="2.45633">
        <ele>511</ele>
        <time>2015-04-20T14:21:04Z</time>
      </trkpt>
      <trkpt lat="46.11277" lon="2.45638">
        <ele>511</ele>
        <time>2015-04-20T14:21:07Z</time>
      </trkpt>
      <trkpt lat="46.11276" lon="2.45642">
        <ele>511</ele>
        <time>2015-04-20T14:21:09Z</time>
      </trkpt>
      <trkpt lat="46.11275" lon="2.45645">
        <ele>511</ele>
        <time>2015-04-20T14:21:11Z</time>
      </trkpt>
      <trkpt lat="46.11275" lon="2.45649">
        <ele>511</ele>
        <time>2015-04-20T14:21:13Z</time>
      </trkpt>
      <trkpt lat="46.11273" lon="2.45652">
        <ele>511</ele>
        <time>2015-04-20T14:21:16Z</time>
      </trkpt>
      <trkpt lat="46.11272" lon="2.45654">
        <ele>511</ele>
        <time>2015-04-20T14:21:18Z</time>
      </trkpt>
      <trkpt lat="46.11271" lon="2.45657">
        <ele>511</ele>
        <time>2015-04-20T14:21:20Z</time>
      </trkpt>
      <trkpt lat="46.1127" lon="2.4566">
        <ele>511</ele>
        <time>2015-04-20T14:21:22Z</time>
      </trkpt>
      <trkpt lat="46.11269" lon="2.45663">
        <ele>511</ele>
        <time>2015-04-20T14:21:24Z</time>
      </trkpt>
      <trkpt lat="46.11268" lon="2.45667">
        <ele>511</ele>
        <time>2015-04-20T14:21:26Z</time>
      </trkpt>
      <trkpt lat="46.11267" lon="2.4567">
        <ele>511</ele>
        <time>2015-04-20T14:21:28Z</time>
      </trkpt>
      <trkpt lat="46.11266" lon="2.45673">
        <ele>511</ele>
        <time>2015-04-20T14:21:30Z</time>
      </trkpt>
      <trkpt lat="46.11264" lon="2.45676">
        <ele>511</ele>
        <time>2015-04-20T14:21:32Z</time>
      </trkpt>
      <trkpt lat="46.11263" lon="2.45679">
        <ele>511</ele>
        <time>2015-04-20T14:21:34Z</time>
      </trkpt>
      <trkpt lat="46.11261" lon="2.45683">
        <ele>511</ele>
        <time>2015-04-20T14:21:36Z</time>
      </trkpt>
      <trkpt lat="46.1126" lon="2.45686">
        <ele>511</ele>
        <time>2015-04-20T14:21:38Z</time>
      </trkpt>
      <trkpt lat="46.11258" lon="2.4569">
        <ele>511</ele>
        <time>2015-04-20T14:21:40Z</time>
      </trkpt>
      <trkpt lat="46.11256" lon="2.45693">
        <ele>511</ele>
        <time>2015-04-20T14:21:42Z</time>
      </trkpt>
      <trkpt lat="46.11255" lon="2.45696">
        <ele>511</ele>
        <time>2015-04-20T14:21:44Z</time>
      </trkpt>
      <trkpt lat="46.11253" lon="2.457">
        <ele>511</ele>
        <time>2015-04-20T14:21:46Z</time>
      </trkpt>
      <trkpt lat="46.11252" lon="2.45704">
        <ele>511</ele>
        <time>2015-04-20T14:21:48Z</time>
      </trkpt>
      <trkpt lat="46.1125" lon="2.45707">
        <ele>511</ele>
        <time>2015-04-20T14:21:51Z</time>
      </trkpt>
      <trkpt lat="46.11248" lon="2.4571">
        <ele>511</ele>
        <time>2015-04-20T14:21:53Z</time>
      </trkpt>
      <trkpt lat="46.11247" lon="2.45714">
        <ele>511</ele>
        <time>2015-04-20T14:21:55Z</time>
      </trkpt>
      <trkpt lat="46.11246" lon="2.45717">
        <ele>511</ele>
        <time>2015-04-20T14:21:57Z</time>
      </trkpt>
      <trkpt lat="46.11244" lon="2.4572">
        <ele>511</ele>
        <time>2015-04-20T14:21:59Z</time>
      </trkpt>
      <trkpt lat="46.11243" lon="2.45724">
        <ele>511</ele>
        <time>2015-04-20T14:22:01Z</time>
      </trkpt>
      <trkpt lat="46.11241" lon="2.45727">
        <ele>511</ele>
        <time>2015-04-20T14:22:03Z</time>
      </trkpt>
      <trkpt lat="46.11239" lon="2.4573">
        <ele>511</ele>
        <time>2015-04-20T14:22:05Z</time>
      </trkpt>
      <trkpt lat="46.11236" lon="2.45735">
        <ele>511</ele>
        <time>2015-04-20T14:22:08Z</time>
      </trkpt>
      <trkpt lat="46.11234" lon="2.45739">
        <ele>511</ele>
        <time>2015-04-20T14:22:10Z</time>
      </trkpt>
      <trkpt lat="46.11231" lon="2.45744">
        <ele>511</ele>
        <time>2015-04-20T14:22:13Z</time>
      </trkpt>
      <trkpt lat="46.11229" lon="2.45747">
        <ele>511</ele>
        <time>2015-04-20T14:22:15Z</time>
      </trkpt>
      <trkpt lat="46.11226" lon="2.45751">
        <ele>511</ele>
        <time>2015-04-20T14:22:18Z</time>
      </trkpt>
      <trkpt lat="46.11223" lon="2.45754">
        <ele>511</ele>
        <time>2015-04-20T14:22:20Z</time>
      </trkpt>
      <trkpt lat="46.11221" lon="2.45757">
        <ele>511</ele>
        <time>2015-04-20T14:22:22Z</time>
      </trkpt>
      <trkpt lat="46.11219" lon="2.45759">
        <ele>511</ele>
        <time>2015-04-20T14:22:24Z</time>
      </trkpt>
      <trkpt lat="46.11217" lon="2.45762">
        <ele>511</ele>
        <time>2015-04-20T14:22:26Z</time>
      </trkpt>
      <trkpt lat="46.11215" lon="2.45765">
        <ele>511</ele>
        <time>2015-04-20T14:22:28Z</time>
      </trkpt>
      <trkpt lat="46.11213" lon="2.45768">
        <ele>511</ele>
        <time>2015-04-20T14:22:30Z</time>
      </trkpt>
      <trkpt lat="46.11211" lon="2.45771">
        <ele>511</ele>
        <time>2015-04-20T14:22:32Z</time>
      </trkpt>
      <trkpt lat="46.11208" lon="2.45775">
        <ele>511</ele>
        <time>2015-04-20T14:22:35Z</time>
      </trkpt>
      <trkpt lat="46.11205" lon="2.45779">
        <ele>511</ele>
        <time>2015-04-20T14:22:38Z</time>
      </trkpt>
      <trkpt lat="46.11203" lon="2.45782">
        <ele>511</ele>
        <time>2015-04-20T14:22:40Z</time>
      </trkpt>
      <trkpt lat="46.112" lon="2.45787">
        <ele>511</ele>
        <time>2015-04-20T14:22:43Z</time>
      </trkpt>
      <trkpt lat="46.11198" lon="2.4579">
        <ele>511</ele>
        <time>2015-04-20T14:22:45Z</time>
      </trkpt>
      <trkpt lat="46.11196" lon="2.45793">
        <ele>511</ele>
        <time>2015-04-20T14:22:47Z</time>
      </trkpt>
      <trkpt lat="46.11194" lon="2.45796">
        <ele>511</ele>
        <time>2015-04-20T14:22:49Z</time>
      </trkpt>
      <trkpt lat="46.11192" lon="2.45798">
        <ele>511</ele>
        <time>2015-04-20T14:22:51Z</time>
      </trkpt>
      <trkpt lat="46.11189" lon="2.45803">
        <ele>511</ele>
        <time>2015-04-20T14:22:54Z</time>
      </trkpt>
      <trkpt lat="46.11186" lon="2.45807">
        <ele>511</ele>
        <time>2015-04-20T14:22:57Z</time>
      </trkpt>
      <trkpt lat="46.11182" lon="2.45813">
        <ele>511</ele>
        <time>2015-04-20T14:23:01Z</time>
      </trkpt>
      <trkpt lat="46.11179" lon="2.45817">
        <ele>511</ele>
        <time>2015-04-20T14:23:04Z</time>
      </trkpt>
      <trkpt lat="46.11178" lon="2.4582">
        <ele>511</ele>
        <time>2015-04-20T14:23:06Z</time>
      </trkpt>
      <trkpt lat="46.11176" lon="2.45823">
        <ele>511</ele>
        <time>2015-04-20T14:23:08Z</time>
      </trkpt>
      <trkpt lat="46.11174" lon="2.45826">
        <ele>511</ele>
        <time>2015-04-20T14:23:10Z</time>
      </trkpt>
      <trkpt lat="46.11172" lon="2.45829">
        <ele>511</ele>
        <time>2015-04-20T14:23:12Z</time>
      </trkpt>
      <trkpt lat="46.1117" lon="2.45832">
        <ele>511</ele>
        <time>2015-04-20T14:23:14Z</time>
      </trkpt>
      <trkpt lat="46.11167" lon="2.45837">
        <ele>511</ele>
        <time>2015-04-20T14:23:17Z</time>
      </trkpt>
      <trkpt lat="46.11164" lon="2.45841">
        <ele>511</ele>
        <time>2015-04-20T14:23:20Z</time>
      </trkpt>
      <trkpt lat="46.11162" lon="2.45844">
        <ele>511</ele>
        <time>2015-04-20T14:23:22Z</time>
      </trkpt>
      <trkpt lat="46.1116" lon="2.45847">
        <ele>511</ele>
        <time>2015-04-20T14:23:24Z</time>
      </trkpt>
      <trkpt lat="46.11158" lon="2.4585">
        <ele>511</ele>
        <time>2015-04-20T14:23:26Z</time>
      </trkpt>
      <trkpt lat="46.11155" lon="2.45854">
        <ele>511</ele>
        <time>2015-04-20T14:23:29Z</time>
      </trkpt>
      <trkpt lat="46.11153" lon="2.45857">
        <ele>511</ele>
        <time>2015-04-20T14:23:31Z</time>
      </trkpt>
      <trkpt lat="46.11152" lon="2.45861">
        <ele>511</ele>
        <time>2015-04-20T14:23:33Z</time>
      </trkpt>
      <trkpt lat="46.1115" lon="2.45864">
        <ele>511</ele>
        <time>2015-04-20T14:23:35Z</time>
      </trkpt>
      <trkpt lat="46.11148" lon="2.45866">
        <ele>511</ele>
        <time>2015-04-20T14:23:37Z</time>
      </trkpt>
      <trkpt lat="46.11146" lon="2.4587">
        <ele>511</ele>
        <time>2015-04-20T14:23:39Z</time>
      </trkpt>
      <trkpt lat="46.11145" lon="2.45873">
        <ele>511</ele>
        <time>2015-04-20T14:23:41Z</time>
      </trkpt>
      <trkpt lat="46.11143" lon="2.45877">
        <ele>511</ele>
        <time>2015-04-20T14:23:43Z</time>
      </trkpt>
      <trkpt lat="46.11142" lon="2.4588">
        <ele>511</ele>
        <time>2015-04-20T14:23:45Z</time>
      </trkpt>
      <trkpt lat="46.11141" lon="2.45884">
        <ele>511</ele>
        <time>2015-04-20T14:23:47Z</time>
      </trkpt>
      <trkpt lat="46.11138" lon="2.45889">
        <ele>511</ele>
        <time>2015-04-20T14:23:50Z</time>
      </trkpt>
      <trkpt lat="46.11136" lon="2.45895">
        <ele>511</ele>
        <time>2015-04-20T14:23:53Z</time>
      </trkpt>
      <trkpt lat="46.11134" lon="2.45899">
        <ele>511</ele>
        <time>2015-04-20T14:23:55Z</time>
      </trkpt>
      <trkpt lat="46.11133" lon="2.45902">
        <ele>511</ele>
        <time>2015-04-20T14:23:57Z</time>
      </trkpt>
      <trkpt lat="46.11132" lon="2.45905">
        <ele>511</ele>
        <time>2015-04-20T14:23:59Z</time>
      </trkpt>
      <trkpt lat="46.1113" lon="2.45909">
        <ele>511</ele>
        <time>2015-04-20T14:24:01Z</time>
      </trkpt>
      <trkpt lat="46.11129" lon="2.45913">
        <ele>511</ele>
        <time>2015-04-20T14:24:03Z</time>
      </trkpt>
      <trkpt lat="46.11127" lon="2.45916">
        <ele>511</ele>
        <time>2015-04-20T14:24:05Z</time>
      </trkpt>
      <trkpt lat="46.11126" lon="2.4592">
        <ele>511</ele>
        <time>2015-04-20T14:24:07Z</time>
      </trkpt>
      <trkpt lat="46.11125" lon="2.45924">
        <ele>511</ele>
        <time>2015-04-20T14:24:09Z</time>
      </trkpt>
      <trkpt lat="46.11124" lon="2.45927">
        <ele>511</ele>
        <time>2015-04-20T14:24:11Z</time>
      </trkpt>
      <trkpt lat="46.11122" lon="2.45933">
        <ele>511</ele>
        <time>2015-04-20T14:24:14Z</time>
      </trkpt>
      <trkpt lat="46.1112" lon="2.45938">
        <ele>511</ele>
        <time>2015-04-20T14:24:17Z</time>
      </trkpt>
      <trkpt lat="46.11119" lon="2.45942">
        <ele>511</ele>
        <time>2015-04-20T14:24:19Z</time>
      </trkpt>
      <trkpt lat="46.11118" lon="2.45946">
        <ele>511</ele>
        <time>2015-04-20T14:24:21Z</time>
      </trkpt>
      <trkpt lat="46.11117" lon="2.4595">
        <ele>511</ele>
        <time>2015-04-20T14:24:23Z</time>
      </trkpt>
      <trkpt lat="46.11115" lon="2.45953">
        <ele>511</ele>
        <time>2015-04-20T14:24:25Z</time>
      </trkpt>
      <trkpt lat="46.11114" lon="2.45957">
        <ele>511</ele>
        <time>2015-04-20T14:24:27Z</time>
      </trkpt>
      <trkpt lat="46.11113" lon="2.45961">
        <ele>511</ele>
        <time>2015-04-20T14:24:29Z</time>
      </trkpt>
      <trkpt lat="46.11111" lon="2.45965">
        <ele>511</ele>
        <time>2015-04-20T14:24:31Z</time>
      </trkpt>
      <trkpt lat="46.1111" lon="2.45971">
        <ele>510</ele>
        <time>2015-04-20T14:24:34Z</time>
      </trkpt>
      <trkpt lat="46.11108" lon="2.45974">
        <ele>510</ele>
        <time>2015-04-20T14:24:36Z</time>
      </trkpt>
      <trkpt lat="46.11106" lon="2.45977">
        <ele>510</ele>
        <time>2015-04-20T14:24:38Z</time>
      </trkpt>
      <trkpt lat="46.11104" lon="2.4598">
        <ele>510</ele>
        <time>2015-04-20T14:24:40Z</time>
      </trkpt>
      <trkpt lat="46.11102" lon="2.45983">
        <ele>510</ele>
        <time>2015-04-20T14:24:42Z</time>
      </trkpt>
      <trkpt lat="46.11098" lon="2.45988">
        <ele>510</ele>
        <time>2015-04-20T14:24:46Z</time>
      </trkpt>
      <trkpt lat="46.11095" lon="2.45992">
        <ele>510</ele>
        <time>2015-04-20T14:24:49Z</time>
      </trkpt>
      <trkpt lat="46.11092" lon="2.45996">
        <ele>510</ele>
        <time>2015-04-20T14:24:52Z</time>
      </trkpt>
      <trkpt lat="46.11087" lon="2.46001">
        <ele>510</ele>
        <time>2015-04-20T14:24:56Z</time>
      </trkpt>
      <trkpt lat="46.11085" lon="2.46003">
        <ele>510</ele>
        <time>2015-04-20T14:24:58Z</time>
      </trkpt>
      <trkpt lat="46.11081" lon="2.46007">
        <ele>510</ele>
        <time>2015-04-20T14:25:02Z</time>
      </trkpt>
      <trkpt lat="46.11079" lon="2.4601">
        <ele>510</ele>
        <time>2015-04-20T14:25:04Z</time>
      </trkpt>
      <trkpt lat="46.11076" lon="2.46013">
        <ele>510</ele>
        <time>2015-04-20T14:25:07Z</time>
      </trkpt>
      <trkpt lat="46.11074" lon="2.46016">
        <ele>510</ele>
        <time>2015-04-20T14:25:09Z</time>
      </trkpt>
      <trkpt lat="46.1107" lon="2.46019">
        <ele>510</ele>
        <time>2015-04-20T14:25:12Z</time>
      </trkpt>
      <trkpt lat="46.11068" lon="2.46022">
        <ele>509</ele>
        <time>2015-04-20T14:25:14Z</time>
      </trkpt>
      <trkpt lat="46.11064" lon="2.46026">
        <ele>509</ele>
        <time>2015-04-20T14:25:18Z</time>
      </trkpt>
      <trkpt lat="46.11063" lon="2.46029">
        <ele>509</ele>
        <time>2015-04-20T14:25:20Z</time>
      </trkpt>
      <trkpt lat="46.11061" lon="2.46034">
        <ele>509</ele>
        <time>2015-04-20T14:25:23Z</time>
      </trkpt>
      <trkpt lat="46.11058" lon="2.46038">
        <ele>509</ele>
        <time>2015-04-20T14:25:26Z</time>
      </trkpt>
      <trkpt lat="46.11056" lon="2.46043">
        <ele>509</ele>
        <time>2015-04-20T14:25:29Z</time>
      </trkpt>
      <trkpt lat="46.11054" lon="2.46047">
        <ele>509</ele>
        <time>2015-04-20T14:25:31Z</time>
      </trkpt>
      <trkpt lat="46.11052" lon="2.46052">
        <ele>509</ele>
        <time>2015-04-20T14:25:34Z</time>
      </trkpt>
      <trkpt lat="46.11051" lon="2.46056">
        <ele>509</ele>
        <time>2015-04-20T14:25:36Z</time>
      </trkpt>
      <trkpt lat="46.1105" lon="2.46061">
        <ele>509</ele>
        <time>2015-04-20T14:25:39Z</time>
      </trkpt>
      <trkpt lat="46.11049" lon="2.46065">
        <ele>508</ele>
        <time>2015-04-20T14:25:41Z</time>
      </trkpt>
      <trkpt lat="46.11048" lon="2.46072">
        <ele>508</ele>
        <time>2015-04-20T14:25:44Z</time>
      </trkpt>
      <trkpt lat="46.11047" lon="2.46076">
        <ele>508</ele>
        <time>2015-04-20T14:25:46Z</time>
      </trkpt>
      <trkpt lat="46.11047" lon="2.46082">
        <ele>508</ele>
        <time>2015-04-20T14:25:49Z</time>
      </trkpt>
      <trkpt lat="46.11047" lon="2.46086">
        <ele>508</ele>
        <time>2015-04-20T14:25:51Z</time>
      </trkpt>
      <trkpt lat="46.11047" lon="2.46092">
        <ele>508</ele>
        <time>2015-04-20T14:25:54Z</time>
      </trkpt>
      <trkpt lat="46.11047" lon="2.46096">
        <ele>508</ele>
        <time>2015-04-20T14:25:56Z</time>
      </trkpt>
      <trkpt lat="46.11047" lon="2.46102">
        <ele>508</ele>
        <time>2015-04-20T14:25:59Z</time>
      </trkpt>
      <trkpt lat="46.11046" lon="2.46106">
        <ele>507</ele>
        <time>2015-04-20T14:26:01Z</time>
      </trkpt>
      <trkpt lat="46.11046" lon="2.46111">
        <ele>507</ele>
        <time>2015-04-20T14:26:04Z</time>
      </trkpt>
      <trkpt lat="46.11045" lon="2.46115">
        <ele>507</ele>
        <time>2015-04-20T14:26:06Z</time>
      </trkpt>
      <trkpt lat="46.11043" lon="2.46121">
        <ele>507</ele>
        <time>2015-04-20T14:26:09Z</time>
      </trkpt>
      <trkpt lat="46.11042" lon="2.46125">
        <ele>507</ele>
        <time>2015-04-20T14:26:11Z</time>
      </trkpt>
      <trkpt lat="46.1104" lon="2.46129">
        <ele>507</ele>
        <time>2015-04-20T14:26:13Z</time>
      </trkpt>
      <trkpt lat="46.11039" lon="2.46132">
        <ele>507</ele>
        <time>2015-04-20T14:26:15Z</time>
      </trkpt>
      <trkpt lat="46.11037" lon="2.46135">
        <ele>507</ele>
        <time>2015-04-20T14:26:17Z</time>
      </trkpt>
      <trkpt lat="46.11035" lon="2.46141">
        <ele>507</ele>
        <time>2015-04-20T14:26:20Z</time>
      </trkpt>
      <trkpt lat="46.11033" lon="2.46144">
        <ele>507</ele>
        <time>2015-04-20T14:26:22Z</time>
      </trkpt>
      <trkpt lat="46.1103" lon="2.46148">
        <ele>507</ele>
        <time>2015-04-20T14:26:25Z</time>
      </trkpt>
      <trkpt lat="46.11028" lon="2.46151">
        <ele>507</ele>
        <time>2015-04-20T14:26:27Z</time>
      </trkpt>
      <trkpt lat="46.11024" lon="2.46156">
        <ele>507</ele>
        <time>2015-04-20T14:26:30Z</time>
      </trkpt>
      <trkpt lat="46.11022" lon="2.46158">
        <ele>507</ele>
        <time>2015-04-20T14:26:32Z</time>
      </trkpt>
      <trkpt lat="46.11018" lon="2.46162">
        <ele>507</ele>
        <time>2015-04-20T14:26:35Z</time>
      </trkpt>
      <trkpt lat="46.11016" lon="2.46163">
        <ele>507</ele>
        <time>2015-04-20T14:26:37Z</time>
      </trkpt>
      <trkpt lat="46.11012" lon="2.46165">
        <ele>507</ele>
        <time>2015-04-20T14:26:40Z</time>
      </trkpt>
      <trkpt lat="46.11009" lon="2.46167">
        <ele>507</ele>
        <time>2015-04-20T14:26:42Z</time>
      </trkpt>
      <trkpt lat="46.11005" lon="2.46168">
        <ele>507</ele>
        <time>2015-04-20T14:26:45Z</time>
      </trkpt>
      <trkpt lat="46.11002" lon="2.46169">
        <ele>507</ele>
        <time>2015-04-20T14:26:47Z</time>
      </trkpt>
      <trkpt lat="46.10999" lon="2.46169">
        <ele>507</ele>
        <time>2015-04-20T14:26:50Z</time>
      </trkpt>
      <trkpt lat="46.10996" lon="2.4617">
        <ele>507</ele>
        <time>2015-04-20T14:26:52Z</time>
      </trkpt>
      <trkpt lat="46.10992" lon="2.4617">
        <ele>507</ele>
        <time>2015-04-20T14:26:55Z</time>
      </trkpt>
      <trkpt lat="46.10989" lon="2.4617">
        <ele>507</ele>
        <time>2015-04-20T14:26:57Z</time>
      </trkpt>
      <trkpt lat="46.10985" lon="2.46169">
        <ele>507</ele>
        <time>2015-04-20T14:27:00Z</time>
      </trkpt>
      <trkpt lat="46.10982" lon="2.46169">
        <ele>507</ele>
        <time>2015-04-20T14:27:02Z</time>
      </trkpt>
      <trkpt lat="46.10978" lon="2.4617">
        <ele>507</ele>
        <time>2015-04-20T14:27:05Z</time>
      </trkpt>
      <trkpt lat="46.10976" lon="2.4617">
        <ele>507</ele>
        <time>2015-04-20T14:27:07Z</time>
      </trkpt>
      <trkpt lat="46.10971" lon="2.46171">
        <ele>507</ele>
        <time>2015-04-20T14:27:10Z</time>
      </trkpt>
      <trkpt lat="46.10968" lon="2.46171">
        <ele>507</ele>
        <time>2015-04-20T14:27:12Z</time>
      </trkpt>
      <trkpt lat="46.10965" lon="2.46173">
        <ele>507</ele>
        <time>2015-04-20T14:27:15Z</time>
      </trkpt>
      <trkpt lat="46.10962" lon="2.46175">
        <ele>507</ele>
        <time>2015-04-20T14:27:17Z</time>
      </trkpt>
      <trkpt lat="46.10958" lon="2.46178">
        <ele>507</ele>
        <time>2015-04-20T14:27:20Z</time>
      </trkpt>
      <trkpt lat="46.10955" lon="2.46181">
        <ele>507</ele>
        <time>2015-04-20T14:27:23Z</time>
      </trkpt>
      <trkpt lat="46.10952" lon="2.46184">
        <ele>507</ele>
        <time>2015-04-20T14:27:26Z</time>
      </trkpt>
      <trkpt lat="46.10948" lon="2.46188">
        <ele>507</ele>
        <time>2015-04-20T14:27:29Z</time>
      </trkpt>
      <trkpt lat="46.10946" lon="2.46192">
        <ele>507</ele>
        <time>2015-04-20T14:27:32Z</time>
      </trkpt>
      <trkpt lat="46.10944" lon="2.46195">
        <ele>507</ele>
        <time>2015-04-20T14:27:34Z</time>
      </trkpt>
      <trkpt lat="46.1094" lon="2.462">
        <ele>507</ele>
        <time>2015-04-20T14:27:38Z</time>
      </trkpt>
      <trkpt lat="46.10938" lon="2.46203">
        <ele>507</ele>
        <time>2015-04-20T14:27:40Z</time>
      </trkpt>
      <trkpt lat="46.10937" lon="2.46206">
        <ele>507</ele>
        <time>2015-04-20T14:27:42Z</time>
      </trkpt>
      <trkpt lat="46.10936" lon="2.46209">
        <ele>507</ele>
        <time>2015-04-20T14:27:44Z</time>
      </trkpt>
      <trkpt lat="46.10934" lon="2.46215">
        <ele>507</ele>
        <time>2015-04-20T14:27:47Z</time>
      </trkpt>
      <trkpt lat="46.10932" lon="2.46218">
        <ele>508</ele>
        <time>2015-04-20T14:27:49Z</time>
      </trkpt>
      <trkpt lat="46.10929" lon="2.46223">
        <ele>508</ele>
        <time>2015-04-20T14:27:53Z</time>
      </trkpt>
      <trkpt lat="46.10926" lon="2.46228">
        <ele>508</ele>
        <time>2015-04-20T14:27:56Z</time>
      </trkpt>
      <trkpt lat="46.10925" lon="2.46231">
        <ele>508</ele>
        <time>2015-04-20T14:27:58Z</time>
      </trkpt>
      <trkpt lat="46.10923" lon="2.46234">
        <ele>508</ele>
        <time>2015-04-20T14:28:00Z</time>
      </trkpt>
      <trkpt lat="46.10922" lon="2.46237">
        <ele>508</ele>
        <time>2015-04-20T14:28:02Z</time>
      </trkpt>
      <trkpt lat="46.1092" lon="2.4624">
        <ele>508</ele>
        <time>2015-04-20T14:28:04Z</time>
      </trkpt>
      <trkpt lat="46.10918" lon="2.46245">
        <ele>509</ele>
        <time>2015-04-20T14:28:07Z</time>
      </trkpt>
      <trkpt lat="46.10918" lon="2.46249">
        <ele>509</ele>
        <time>2015-04-20T14:28:09Z</time>
      </trkpt>
      <trkpt lat="46.10917" lon="2.46254">
        <ele>510</ele>
        <time>2015-04-20T14:28:12Z</time>
      </trkpt>
      <trkpt lat="46.10916" lon="2.46258">
        <ele>510</ele>
        <time>2015-04-20T14:28:14Z</time>
      </trkpt>
      <trkpt lat="46.10916" lon="2.46263">
        <ele>511</ele>
        <time>2015-04-20T14:28:17Z</time>
      </trkpt>
      <trkpt lat="46.10916" lon="2.46267">
        <ele>511</ele>
        <time>2015-04-20T14:28:19Z</time>
      </trkpt>
      <trkpt lat="46.10917" lon="2.46272">
        <ele>512</ele>
        <time>2015-04-20T14:28:22Z</time>
      </trkpt>
      <trkpt lat="46.10917" lon="2.46276">
        <ele>512</ele>
        <time>2015-04-20T14:28:24Z</time>
      </trkpt>
      <trkpt lat="46.10915" lon="2.46283">
        <ele>512</ele>
        <time>2015-04-20T14:28:27Z</time>
      </trkpt>
      <trkpt lat="46.10915" lon="2.46287">
        <ele>513</ele>
        <time>2015-04-20T14:28:29Z</time>
      </trkpt>
      <trkpt lat="46.10918" lon="2.46293">
        <ele>513</ele>
        <time>2015-04-20T14:28:32Z</time>
      </trkpt>
      <trkpt lat="46.10919" lon="2.46297">
        <ele>513</ele>
        <time>2015-04-20T14:28:34Z</time>
      </trkpt>
      <trkpt lat="46.10918" lon="2.46303">
        <ele>514</ele>
        <time>2015-04-20T14:28:38Z</time>
      </trkpt>
      <trkpt lat="46.10918" lon="2.46307">
        <ele>514</ele>
        <time>2015-04-20T14:28:40Z</time>
      </trkpt>
      <trkpt lat="46.10916" lon="2.46312">
        <ele>515</ele>
        <time>2015-04-20T14:28:43Z</time>
      </trkpt>
      <trkpt lat="46.10915" lon="2.46315">
        <ele>515</ele>
        <time>2015-04-20T14:28:45Z</time>
      </trkpt>
      <trkpt lat="46.10915" lon="2.46318">
        <ele>515</ele>
        <time>2015-04-20T14:28:47Z</time>
      </trkpt>
      <trkpt lat="46.10914" lon="2.46321">
        <ele>515</ele>
        <time>2015-04-20T14:28:49Z</time>
      </trkpt>
      <trkpt lat="46.10912" lon="2.46325">
        <ele>516</ele>
        <time>2015-04-20T14:28:52Z</time>
      </trkpt>
      <trkpt lat="46.1091" lon="2.46329">
        <ele>516</ele>
        <time>2015-04-20T14:28:54Z</time>
      </trkpt>
      <trkpt lat="46.10909" lon="2.46335">
        <ele>516</ele>
        <time>2015-04-20T14:28:57Z</time>
      </trkpt>
      <trkpt lat="46.10907" lon="2.46338">
        <ele>516</ele>
        <time>2015-04-20T14:28:59Z</time>
      </trkpt>
      <trkpt lat="46.10905" lon="2.46341">
        <ele>516</ele>
        <time>2015-04-20T14:29:01Z</time>
      </trkpt>
      <trkpt lat="46.10904" lon="2.46344">
        <ele>516</ele>
        <time>2015-04-20T14:29:03Z</time>
      </trkpt>
      <trkpt lat="46.10902" lon="2.46348">
        <ele>517</ele>
        <time>2015-04-20T14:29:05Z</time>
      </trkpt>
      <trkpt lat="46.10901" lon="2.46351">
        <ele>517</ele>
        <time>2015-04-20T14:29:07Z</time>
      </trkpt>
      <trkpt lat="46.10899" lon="2.46354">
        <ele>517</ele>
        <time>2015-04-20T14:29:09Z</time>
      </trkpt>
      <trkpt lat="46.10896" lon="2.4636">
        <ele>517</ele>
        <time>2015-04-20T14:29:13Z</time>
      </trkpt>
      <trkpt lat="46.10894" lon="2.46363">
        <ele>517</ele>
        <time>2015-04-20T14:29:15Z</time>
      </trkpt>
      <trkpt lat="46.10893" lon="2.46367">
        <ele>517</ele>
        <time>2015-04-20T14:29:17Z</time>
      </trkpt>
      <trkpt lat="46.10891" lon="2.4637">
        <ele>517</ele>
        <time>2015-04-20T14:29:19Z</time>
      </trkpt>
      <trkpt lat="46.10889" lon="2.46373">
        <ele>517</ele>
        <time>2015-04-20T14:29:21Z</time>
      </trkpt>
      <trkpt lat="46.10887" lon="2.46377">
        <ele>517</ele>
        <time>2015-04-20T14:29:23Z</time>
      </trkpt>
      <trkpt lat="46.10886" lon="2.4638">
        <ele>517</ele>
        <time>2015-04-20T14:29:25Z</time>
      </trkpt>
      <trkpt lat="46.10884" lon="2.46384">
        <ele>517</ele>
        <time>2015-04-20T14:29:27Z</time>
      </trkpt>
      <trkpt lat="46.10882" lon="2.46387">
        <ele>517</ele>
        <time>2015-04-20T14:29:29Z</time>
      </trkpt>
      <trkpt lat="46.1088" lon="2.46392">
        <ele>517</ele>
        <time>2015-04-20T14:29:32Z</time>
      </trkpt>
      <trkpt lat="46.10878" lon="2.46395">
        <ele>517</ele>
        <time>2015-04-20T14:29:34Z</time>
      </trkpt>
      <trkpt lat="46.10877" lon="2.46398">
        <ele>517</ele>
        <time>2015-04-20T14:29:36Z</time>
      </trkpt>
      <trkpt lat="46.10875" lon="2.46402">
        <ele>517</ele>
        <time>2015-04-20T14:29:38Z</time>
      </trkpt>
      <trkpt lat="46.10874" lon="2.46406">
        <ele>517</ele>
        <time>2015-04-20T14:29:40Z</time>
      </trkpt>
      <trkpt lat="46.10872" lon="2.46411">
        <ele>517</ele>
        <time>2015-04-20T14:29:43Z</time>
      </trkpt>
      <trkpt lat="46.10871" lon="2.46415">
        <ele>517</ele>
        <time>2015-04-20T14:29:45Z</time>
      </trkpt>
      <trkpt lat="46.10869" lon="2.46418">
        <ele>517</ele>
        <time>2015-04-20T14:29:47Z</time>
      </trkpt>
      <trkpt lat="46.10868" lon="2.46422">
        <ele>517</ele>
        <time>2015-04-20T14:29:49Z</time>
      </trkpt>
      <trkpt lat="46.10867" lon="2.46428">
        <ele>517</ele>
        <time>2015-04-20T14:29:52Z</time>
      </trkpt>
      <trkpt lat="46.10865" lon="2.46431">
        <ele>517</ele>
        <time>2015-04-20T14:29:54Z</time>
      </trkpt>
      <trkpt lat="46.10863" lon="2.46437">
        <ele>517</ele>
        <time>2015-04-20T14:29:57Z</time>
      </trkpt>
      <trkpt lat="46.10863" lon="2.4644">
        <ele>517</ele>
        <time>2015-04-20T14:29:59Z</time>
      </trkpt>
      <trkpt lat="46.10861" lon="2.46446">
        <ele>517</ele>
        <time>2015-04-20T14:30:02Z</time>
      </trkpt>
      <trkpt lat="46.1086" lon="2.46449">
        <ele>517</ele>
        <time>2015-04-20T14:30:04Z</time>
      </trkpt>
      <trkpt lat="46.10858" lon="2.46455">
        <ele>517</ele>
        <time>2015-04-20T14:30:07Z</time>
      </trkpt>
      <trkpt lat="46.10857" lon="2.46458">
        <ele>517</ele>
        <time>2015-04-20T14:30:09Z</time>
      </trkpt>
      <trkpt lat="46.10855" lon="2.46463">
        <ele>518</ele>
        <time>2015-04-20T14:30:12Z</time>
      </trkpt>
      <trkpt lat="46.10854" lon="2.46467">
        <ele>518</ele>
        <time>2015-04-20T14:30:14Z</time>
      </trkpt>
      <trkpt lat="46.10852" lon="2.46473">
        <ele>518</ele>
        <time>2015-04-20T14:30:17Z</time>
      </trkpt>
      <trkpt lat="46.1085" lon="2.46477">
        <ele>519</ele>
        <time>2015-04-20T14:30:19Z</time>
      </trkpt>
      <trkpt lat="46.10848" lon="2.46482">
        <ele>519</ele>
        <time>2015-04-20T14:30:22Z</time>
      </trkpt>
      <trkpt lat="46.10847" lon="2.46485">
        <ele>519</ele>
        <time>2015-04-20T14:30:24Z</time>
      </trkpt>
      <trkpt lat="46.10846" lon="2.46491">
        <ele>520</ele>
        <time>2015-04-20T14:30:27Z</time>
      </trkpt>
      <trkpt lat="46.10846" lon="2.46495">
        <ele>520</ele>
        <time>2015-04-20T14:30:29Z</time>
      </trkpt>
      <trkpt lat="46.10845" lon="2.46501">
        <ele>520</ele>
        <time>2015-04-20T14:30:32Z</time>
      </trkpt>
      <trkpt lat="46.10845" lon="2.46505">
        <ele>520</ele>
        <time>2015-04-20T14:30:34Z</time>
      </trkpt>
      <trkpt lat="46.10844" lon="2.4651">
        <ele>521</ele>
        <time>2015-04-20T14:30:37Z</time>
      </trkpt>
      <trkpt lat="46.10844" lon="2.46514">
        <ele>521</ele>
        <time>2015-04-20T14:30:39Z</time>
      </trkpt>
      <trkpt lat="46.10843" lon="2.4652">
        <ele>521</ele>
        <time>2015-04-20T14:30:42Z</time>
      </trkpt>
      <trkpt lat="46.10843" lon="2.46524">
        <ele>521</ele>
        <time>2015-04-20T14:30:44Z</time>
      </trkpt>
      <trkpt lat="46.10842" lon="2.4653">
        <ele>521</ele>
        <time>2015-04-20T14:30:47Z</time>
      </trkpt>
      <trkpt lat="46.10841" lon="2.46534">
        <ele>521</ele>
        <time>2015-04-20T14:30:49Z</time>
      </trkpt>
      <trkpt lat="46.10841" lon="2.4654">
        <ele>521</ele>
        <time>2015-04-20T14:30:52Z</time>
      </trkpt>
      <trkpt lat="46.10841" lon="2.46544">
        <ele>521</ele>
        <time>2015-04-20T14:30:54Z</time>
      </trkpt>
      <trkpt lat="46.1084" lon="2.4655">
        <ele>521</ele>
        <time>2015-04-20T14:30:57Z</time>
      </trkpt>
      <trkpt lat="46.1084" lon="2.46554">
        <ele>521</ele>
        <time>2015-04-20T14:30:59Z</time>
      </trkpt>
      <trkpt lat="46.10839" lon="2.4656">
        <ele>521</ele>
        <time>2015-04-20T14:31:02Z</time>
      </trkpt>
      <trkpt lat="46.10839" lon="2.46563">
        <ele>521</ele>
        <time>2015-04-20T14:31:04Z</time>
      </trkpt>
      <trkpt lat="46.10839" lon="2.46569">
        <ele>521</ele>
        <time>2015-04-20T14:31:07Z</time>
      </trkpt>
      <trkpt lat="46.10838" lon="2.46573">
        <ele>521</ele>
        <time>2015-04-20T14:31:09Z</time>
      </trkpt>
      <trkpt lat="46.10837" lon="2.46579">
        <ele>522</ele>
        <time>2015-04-20T14:31:12Z</time>
      </trkpt>
      <trkpt lat="46.10837" lon="2.46583">
        <ele>522</ele>
        <time>2015-04-20T14:31:14Z</time>
      </trkpt>
      <trkpt lat="46.10836" lon="2.46589">
        <ele>522</ele>
        <time>2015-04-20T14:31:17Z</time>
      </trkpt>
      <trkpt lat="46.10836" lon="2.46593">
        <ele>522</ele>
        <time>2015-04-20T14:31:19Z</time>
      </trkpt>
      <trkpt lat="46.10836" lon="2.46598">
        <ele>522</ele>
        <time>2015-04-20T14:31:22Z</time>
      </trkpt>
      <trkpt lat="46.10835" lon="2.46602">
        <ele>522</ele>
        <time>2015-04-20T14:31:24Z</time>
      </trkpt>
      <trkpt lat="46.10834" lon="2.46608">
        <ele>522</ele>
        <time>2015-04-20T14:31:27Z</time>
      </trkpt>
      <trkpt lat="46.10834" lon="2.46612">
        <ele>522</ele>
        <time>2015-04-20T14:31:29Z</time>
      </trkpt>
      <trkpt lat="46.10833" lon="2.46618">
        <ele>522</ele>
        <time>2015-04-20T14:31:32Z</time>
      </trkpt>
      <trkpt lat="46.10833" lon="2.46622">
        <ele>523</ele>
        <time>2015-04-20T14:31:34Z</time>
      </trkpt>
      <trkpt lat="46.10832" lon="2.46628">
        <ele>523</ele>
        <time>2015-04-20T14:31:37Z</time>
      </trkpt>
      <trkpt lat="46.10832" lon="2.46632">
        <ele>523</ele>
        <time>2015-04-20T14:31:39Z</time>
      </trkpt>
      <trkpt lat="46.10832" lon="2.46638">
        <ele>523</ele>
        <time>2015-04-20T14:31:42Z</time>
      </trkpt>
      <trkpt lat="46.10831" lon="2.46641">
        <ele>523</ele>
        <time>2015-04-20T14:31:44Z</time>
      </trkpt>
      <trkpt lat="46.10831" lon="2.46647">
        <ele>524</ele>
        <time>2015-04-20T14:31:47Z</time>
      </trkpt>
      <trkpt lat="46.10831" lon="2.46651">
        <ele>524</ele>
        <time>2015-04-20T14:31:49Z</time>
      </trkpt>
      <trkpt lat="46.10831" lon="2.46657">
        <ele>525</ele>
        <time>2015-04-20T14:31:52Z</time>
      </trkpt>
      <trkpt lat="46.1083" lon="2.4666">
        <ele>525</ele>
        <time>2015-04-20T14:31:54Z</time>
      </trkpt>
      <trkpt lat="46.1083" lon="2.46667">
        <ele>525</ele>
        <time>2015-04-20T14:31:57Z</time>
      </trkpt>
      <trkpt lat="46.10829" lon="2.46671">
        <ele>525</ele>
        <time>2015-04-20T14:31:59Z</time>
      </trkpt>
      <trkpt lat="46.10829" lon="2.46676">
        <ele>526</ele>
        <time>2015-04-20T14:32:02Z</time>
      </trkpt>
      <trkpt lat="46.10828" lon="2.4668">
        <ele>526</ele>
        <time>2015-04-20T14:32:04Z</time>
      </trkpt>
      <trkpt lat="46.10828" lon="2.46686">
        <ele>526</ele>
        <time>2015-04-20T14:32:07Z</time>
      </trkpt>
      <trkpt lat="46.10827" lon="2.4669">
        <ele>527</ele>
        <time>2015-04-20T14:32:09Z</time>
      </trkpt>
      <trkpt lat="46.10827" lon="2.46694">
        <ele>527</ele>
        <time>2015-04-20T14:32:11Z</time>
      </trkpt>
      <trkpt lat="46.10826" lon="2.46698">
        <ele>527</ele>
        <time>2015-04-20T14:32:13Z</time>
      </trkpt>
      <trkpt lat="46.10826" lon="2.46702">
        <ele>527</ele>
        <time>2015-04-20T14:32:15Z</time>
      </trkpt>
      <trkpt lat="46.10827" lon="2.46706">
        <ele>528</ele>
        <time>2015-04-20T14:32:17Z</time>
      </trkpt>
      <trkpt lat="46.10828" lon="2.46709">
        <ele>528</ele>
        <time>2015-04-20T14:32:19Z</time>
      </trkpt>
      <trkpt lat="46.10828" lon="2.46715">
        <ele>528</ele>
        <time>2015-04-20T14:32:22Z</time>
      </trkpt>
      <trkpt lat="46.10827" lon="2.4672">
        <ele>528</ele>
        <time>2015-04-20T14:32:24Z</time>
      </trkpt>
      <trkpt lat="46.10826" lon="2.46724">
        <ele>528</ele>
        <time>2015-04-20T14:32:26Z</time>
      </trkpt>
      <trkpt lat="46.10826" lon="2.46728">
        <ele>529</ele>
        <time>2015-04-20T14:32:28Z</time>
      </trkpt>
      <trkpt lat="46.10825" lon="2.46732">
        <ele>529</ele>
        <time>2015-04-20T14:32:30Z</time>
      </trkpt>
      <trkpt lat="46.10825" lon="2.46736">
        <ele>529</ele>
        <time>2015-04-20T14:32:32Z</time>
      </trkpt>
      <trkpt lat="46.10825" lon="2.46739">
        <ele>529</ele>
        <time>2015-04-20T14:32:34Z</time>
      </trkpt>
      <trkpt lat="46.10825" lon="2.46743">
        <ele>529</ele>
        <time>2015-04-20T14:32:36Z</time>
      </trkpt>
      <trkpt lat="46.10824" lon="2.46747">
        <ele>530</ele>
        <time>2015-04-20T14:32:38Z</time>
      </trkpt>
      <trkpt lat="46.10823" lon="2.46751">
        <ele>530</ele>
        <time>2015-04-20T14:32:40Z</time>
      </trkpt>
      <trkpt lat="46.10823" lon="2.46755">
        <ele>530</ele>
        <time>2015-04-20T14:32:42Z</time>
      </trkpt>
      <trkpt lat="46.10823" lon="2.4676">
        <ele>530</ele>
        <time>2015-04-20T14:32:44Z</time>
      </trkpt>
      <trkpt lat="46.10822" lon="2.46766">
        <ele>530</ele>
        <time>2015-04-20T14:32:47Z</time>
      </trkpt>
      <trkpt lat="46.10822" lon="2.46769">
        <ele>530</ele>
        <time>2015-04-20T14:32:49Z</time>
      </trkpt>
      <trkpt lat="46.10822" lon="2.46773">
        <ele>530</ele>
        <time>2015-04-20T14:32:51Z</time>
      </trkpt>
      <trkpt lat="46.10821" lon="2.46777">
        <ele>530</ele>
        <time>2015-04-20T14:32:53Z</time>
      </trkpt>
      <trkpt lat="46.1082" lon="2.46781">
        <ele>530</ele>
        <time>2015-04-20T14:32:55Z</time>
      </trkpt>
      <trkpt lat="46.1082" lon="2.46785">
        <ele>530</ele>
        <time>2015-04-20T14:32:57Z</time>
      </trkpt>
      <trkpt lat="46.1082" lon="2.46789">
        <ele>531</ele>
        <time>2015-04-20T14:32:59Z</time>
      </trkpt>
      <trkpt lat="46.10819" lon="2.46795">
        <ele>531</ele>
        <time>2015-04-20T14:33:02Z</time>
      </trkpt>
      <trkpt lat="46.10818" lon="2.46798">
        <ele>531</ele>
        <time>2015-04-20T14:33:04Z</time>
      </trkpt>
      <trkpt lat="46.10818" lon="2.46803">
        <ele>531</ele>
        <time>2015-04-20T14:33:06Z</time>
      </trkpt>
      <trkpt lat="46.10817" lon="2.46807">
        <ele>531</ele>
        <time>2015-04-20T14:33:08Z</time>
      </trkpt>
      <trkpt lat="46.10816" lon="2.4681">
        <ele>531</ele>
        <time>2015-04-20T14:33:10Z</time>
      </trkpt>
      <trkpt lat="46.10815" lon="2.46814">
        <ele>531</ele>
        <time>2015-04-20T14:33:12Z</time>
      </trkpt>
      <trkpt lat="46.10814" lon="2.46818">
        <ele>531</ele>
        <time>2015-04-20T14:33:14Z</time>
      </trkpt>
      <trkpt lat="46.10813" lon="2.46824">
        <ele>531</ele>
        <time>2015-04-20T14:33:17Z</time>
      </trkpt>
      <trkpt lat="46.10812" lon="2.46828">
        <ele>531</ele>
        <time>2015-04-20T14:33:19Z</time>
      </trkpt>
      <trkpt lat="46.1081" lon="2.46833">
        <ele>531</ele>
        <time>2015-04-20T14:33:22Z</time>
      </trkpt>
      <trkpt lat="46.10809" lon="2.46837">
        <ele>531</ele>
        <time>2015-04-20T14:33:24Z</time>
      </trkpt>
      <trkpt lat="46.10806" lon="2.46842">
        <ele>531</ele>
        <time>2015-04-20T14:33:27Z</time>
      </trkpt>
      <trkpt lat="46.10805" lon="2.46846">
        <ele>531</ele>
        <time>2015-04-20T14:33:29Z</time>
      </trkpt>
      <trkpt lat="46.10803" lon="2.46849">
        <ele>531</ele>
        <time>2015-04-20T14:33:31Z</time>
      </trkpt>
      <trkpt lat="46.10801" lon="2.46852">
        <ele>531</ele>
        <time>2015-04-20T14:33:33Z</time>
      </trkpt>
      <trkpt lat="46.10801" lon="2.46855">
        <ele>531</ele>
        <time>2015-04-20T14:33:35Z</time>
      </trkpt>
      <trkpt lat="46.10798" lon="2.4686">
        <ele>531</ele>
        <time>2015-04-20T14:33:38Z</time>
      </trkpt>
      <trkpt lat="46.10796" lon="2.46863">
        <ele>531</ele>
        <time>2015-04-20T14:33:40Z</time>
      </trkpt>
      <trkpt lat="46.10794" lon="2.46867">
        <ele>531</ele>
        <time>2015-04-20T14:33:43Z</time>
      </trkpt>
      <trkpt lat="46.10792" lon="2.4687">
        <ele>531</ele>
        <time>2015-04-20T14:33:45Z</time>
      </trkpt>
      <trkpt lat="46.1079" lon="2.46873">
        <ele>531</ele>
        <time>2015-04-20T14:33:47Z</time>
      </trkpt>
      <trkpt lat="46.10789" lon="2.46877">
        <ele>531</ele>
        <time>2015-04-20T14:33:49Z</time>
      </trkpt>
      <trkpt lat="46.10789" lon="2.46882">
        <ele>531</ele>
        <time>2015-04-20T14:33:51Z</time>
      </trkpt>
      <trkpt lat="46.10788" lon="2.46885">
        <ele>531</ele>
        <time>2015-04-20T14:33:53Z</time>
      </trkpt>
      <trkpt lat="46.10789" lon="2.4689">
        <ele>531</ele>
        <time>2015-04-20T14:33:55Z</time>
      </trkpt>
      <trkpt lat="46.10789" lon="2.46894">
        <ele>531</ele>
        <time>2015-04-20T14:33:57Z</time>
      </trkpt>
      <trkpt lat="46.1079" lon="2.46898">
        <ele>531</ele>
        <time>2015-04-20T14:33:59Z</time>
      </trkpt>
      <trkpt lat="46.10791" lon="2.46902">
        <ele>531</ele>
        <time>2015-04-20T14:34:01Z</time>
      </trkpt>
      <trkpt lat="46.10792" lon="2.46905">
        <ele>531</ele>
        <time>2015-04-20T14:34:03Z</time>
      </trkpt>
      <trkpt lat="46.10793" lon="2.46909">
        <ele>531</ele>
        <time>2015-04-20T14:34:05Z</time>
      </trkpt>
      <trkpt lat="46.10795" lon="2.46915">
        <ele>531</ele>
        <time>2015-04-20T14:34:08Z</time>
      </trkpt>
      <trkpt lat="46.10796" lon="2.46918">
        <ele>531</ele>
        <time>2015-04-20T14:34:10Z</time>
      </trkpt>
      <trkpt lat="46.10797" lon="2.46921">
        <ele>531</ele>
        <time>2015-04-20T14:34:12Z</time>
      </trkpt>
      <trkpt lat="46.10799" lon="2.46925">
        <ele>531</ele>
        <time>2015-04-20T14:34:14Z</time>
      </trkpt>
      <trkpt lat="46.108" lon="2.46928">
        <ele>531</ele>
        <time>2015-04-20T14:34:16Z</time>
      </trkpt>
      <trkpt lat="46.10801" lon="2.46932">
        <ele>531</ele>
        <time>2015-04-20T14:34:18Z</time>
      </trkpt>
      <trkpt lat="46.10803" lon="2.46935">
        <ele>531</ele>
        <time>2015-04-20T14:34:20Z</time>
      </trkpt>
      <trkpt lat="46.10804" lon="2.46938">
        <ele>531</ele>
        <time>2015-04-20T14:34:22Z</time>
      </trkpt>
      <trkpt lat="46.10805" lon="2.46942">
        <ele>531</ele>
        <time>2015-04-20T14:34:24Z</time>
      </trkpt>
      <trkpt lat="46.10806" lon="2.46945">
        <ele>531</ele>
        <time>2015-04-20T14:34:26Z</time>
      </trkpt>
      <trkpt lat="46.10808" lon="2.46948">
        <ele>531</ele>
        <time>2015-04-20T14:34:28Z</time>
      </trkpt>
      <trkpt lat="46.10809" lon="2.46951">
        <ele>531</ele>
        <time>2015-04-20T14:34:30Z</time>
      </trkpt>
      <trkpt lat="46.10811" lon="2.46954">
        <ele>531</ele>
        <time>2015-04-20T14:34:32Z</time>
      </trkpt>
      <trkpt lat="46.10813" lon="2.46959">
        <ele>531</ele>
        <time>2015-04-20T14:34:35Z</time>
      </trkpt>
      <trkpt lat="46.10815" lon="2.46962">
        <ele>531</ele>
        <time>2015-04-20T14:34:37Z</time>
      </trkpt>
      <trkpt lat="46.10816" lon="2.46966">
        <ele>531</ele>
        <time>2015-04-20T14:34:39Z</time>
      </trkpt>
      <trkpt lat="46.10818" lon="2.46969">
        <ele>531</ele>
        <time>2015-04-20T14:34:41Z</time>
      </trkpt>
      <trkpt lat="46.10819" lon="2.46972">
        <ele>531</ele>
        <time>2015-04-20T14:34:43Z</time>
      </trkpt>
      <trkpt lat="46.1082" lon="2.46976">
        <ele>531</ele>
        <time>2015-04-20T14:34:45Z</time>
      </trkpt>
      <trkpt lat="46.10822" lon="2.46979">
        <ele>531</ele>
        <time>2015-04-20T14:34:47Z</time>
      </trkpt>
      <trkpt lat="46.10823" lon="2.46982">
        <ele>531</ele>
        <time>2015-04-20T14:34:49Z</time>
      </trkpt>
      <trkpt lat="46.10825" lon="2.46986">
        <ele>531</ele>
        <time>2015-04-20T14:34:51Z</time>
      </trkpt>
      <trkpt lat="46.10826" lon="2.4699">
        <ele>531</ele>
        <time>2015-04-20T14:34:53Z</time>
      </trkpt>
      <trkpt lat="46.10827" lon="2.46994">
        <ele>531</ele>
        <time>2015-04-20T14:34:55Z</time>
      </trkpt>
      <trkpt lat="46.10829" lon="2.46998">
        <ele>531</ele>
        <time>2015-04-20T14:34:57Z</time>
      </trkpt>
      <trkpt lat="46.10831" lon="2.47001">
        <ele>531</ele>
        <time>2015-04-20T14:34:59Z</time>
      </trkpt>
      <trkpt lat="46.10833" lon="2.47005">
        <ele>531</ele>
        <time>2015-04-20T14:35:01Z</time>
      </trkpt>
      <trkpt lat="46.10835" lon="2.47008">
        <ele>531</ele>
        <time>2015-04-20T14:35:03Z</time>
      </trkpt>
      <trkpt lat="46.10837" lon="2.4701">
        <ele>531</ele>
        <time>2015-04-20T14:35:05Z</time>
      </trkpt>
      <trkpt lat="46.1084" lon="2.47014">
        <ele>531</ele>
        <time>2015-04-20T14:35:08Z</time>
      </trkpt>
      <trkpt lat="46.10842" lon="2.47016">
        <ele>531</ele>
        <time>2015-04-20T14:35:10Z</time>
      </trkpt>
      <trkpt lat="46.10845" lon="2.47018">
        <ele>531</ele>
        <time>2015-04-20T14:35:12Z</time>
      </trkpt>
      <trkpt lat="46.10848" lon="2.47016">
        <ele>531</ele>
        <time>2015-04-20T14:35:14Z</time>
      </trkpt>
      <trkpt lat="46.1085" lon="2.47015">
        <ele>531</ele>
        <time>2015-04-20T14:35:16Z</time>
      </trkpt>
      <trkpt lat="46.10853" lon="2.47014">
        <ele>531</ele>
        <time>2015-04-20T14:35:18Z</time>
      </trkpt>
      <trkpt lat="46.10855" lon="2.47012">
        <ele>531</ele>
        <time>2015-04-20T14:35:20Z</time>
      </trkpt>
      <trkpt lat="46.10858" lon="2.47011">
        <ele>531</ele>
        <time>2015-04-20T14:35:22Z</time>
      </trkpt>
      <trkpt lat="46.10861" lon="2.4701">
        <ele>531</ele>
        <time>2015-04-20T14:35:24Z</time>
      </trkpt>
      <trkpt lat="46.10864" lon="2.47008">
        <ele>530</ele>
        <time>2015-04-20T14:35:27Z</time>
      </trkpt>
      <trkpt lat="46.10867" lon="2.47007">
        <ele>530</ele>
        <time>2015-04-20T14:35:29Z</time>
      </trkpt>
      <trkpt lat="46.1087" lon="2.47006">
        <ele>530</ele>
        <time>2015-04-20T14:35:31Z</time>
      </trkpt>
      <trkpt lat="46.10872" lon="2.47005">
        <ele>529</ele>
        <time>2015-04-20T14:35:33Z</time>
      </trkpt>
      <trkpt lat="46.10875" lon="2.47004">
        <ele>529</ele>
        <time>2015-04-20T14:35:35Z</time>
      </trkpt>
      <trkpt lat="46.10877" lon="2.47003">
        <ele>528</ele>
        <time>2015-04-20T14:35:37Z</time>
      </trkpt>
      <trkpt lat="46.10879" lon="2.47003">
        <ele>528</ele>
        <time>2015-04-20T14:35:39Z</time>
      </trkpt>
      <trkpt lat="46.10882" lon="2.47003">
        <ele>528</ele>
        <time>2015-04-20T14:35:41Z</time>
      </trkpt>
      <trkpt lat="46.10884" lon="2.47002">
        <ele>528</ele>
        <time>2015-04-20T14:35:43Z</time>
      </trkpt>
      <trkpt lat="46.10887" lon="2.47002">
        <ele>528</ele>
        <time>2015-04-20T14:35:45Z</time>
      </trkpt>
      <trkpt lat="46.1089" lon="2.47002">
        <ele>528</ele>
        <time>2015-04-20T14:35:47Z</time>
      </trkpt>
      <trkpt lat="46.10893" lon="2.47002">
        <ele>528</ele>
        <time>2015-04-20T14:35:49Z</time>
      </trkpt>
      <trkpt lat="46.10896" lon="2.47001">
        <ele>528</ele>
        <time>2015-04-20T14:35:51Z</time>
      </trkpt>
      <trkpt lat="46.10899" lon="2.47">
        <ele>528</ele>
        <time>2015-04-20T14:35:53Z</time>
      </trkpt>
      <trkpt lat="46.10902" lon="2.47">
        <ele>528</ele>
        <time>2015-04-20T14:35:55Z</time>
      </trkpt>
      <trkpt lat="46.10906" lon="2.46999">
        <ele>528</ele>
        <time>2015-04-20T14:35:57Z</time>
      </trkpt>
      <trkpt lat="46.10909" lon="2.46998">
        <ele>528</ele>
        <time>2015-04-20T14:35:59Z</time>
      </trkpt>
      <trkpt lat="46.10912" lon="2.46997">
        <ele>528</ele>
        <time>2015-04-20T14:36:01Z</time>
      </trkpt>
      <trkpt lat="46.10914" lon="2.46997">
        <ele>528</ele>
        <time>2015-04-20T14:36:03Z</time>
      </trkpt>
      <trkpt lat="46.10917" lon="2.46996">
        <ele>528</ele>
        <time>2015-04-20T14:36:05Z</time>
      </trkpt>
      <trkpt lat="46.1092" lon="2.46995">
        <ele>528</ele>
        <time>2015-04-20T14:36:07Z</time>
      </trkpt>
      <trkpt lat="46.10922" lon="2.46994">
        <ele>528</ele>
        <time>2015-04-20T14:36:09Z</time>
      </trkpt>
      <trkpt lat="46.10925" lon="2.46994">
        <ele>528</ele>
        <time>2015-04-20T14:36:11Z</time>
      </trkpt>
      <trkpt lat="46.10928" lon="2.46993">
        <ele>528</ele>
        <time>2015-04-20T14:36:13Z</time>
      </trkpt>
      <trkpt lat="46.10931" lon="2.46993">
        <ele>528</ele>
        <time>2015-04-20T14:36:15Z</time>
      </trkpt>
      <trkpt lat="46.10934" lon="2.46993">
        <ele>528</ele>
        <time>2015-04-20T14:36:17Z</time>
      </trkpt>
      <trkpt lat="46.10937" lon="2.46992">
        <ele>528</ele>
        <time>2015-04-20T14:36:19Z</time>
      </trkpt>
      <trkpt lat="46.1094" lon="2.46992">
        <ele>528</ele>
        <time>2015-04-20T14:36:21Z</time>
      </trkpt>
      <trkpt lat="46.10943" lon="2.46992">
        <ele>528</ele>
        <time>2015-04-20T14:36:23Z</time>
      </trkpt>
      <trkpt lat="46.10946" lon="2.46992">
        <ele>528</ele>
        <time>2015-04-20T14:36:25Z</time>
      </trkpt>
      <trkpt lat="46.10949" lon="2.46992">
        <ele>528</ele>
        <time>2015-04-20T14:36:27Z</time>
      </trkpt>
      <trkpt lat="46.10952" lon="2.46991">
        <ele>528</ele>
        <time>2015-04-20T14:36:29Z</time>
      </trkpt>
      <trkpt lat="46.10955" lon="2.46991">
        <ele>528</ele>
        <time>2015-04-20T14:36:31Z</time>
      </trkpt>
      <trkpt lat="46.10957" lon="2.46991">
        <ele>528</ele>
        <time>2015-04-20T14:36:33Z</time>
      </trkpt>
      <trkpt lat="46.1096" lon="2.4699">
        <ele>528</ele>
        <time>2015-04-20T14:36:35Z</time>
      </trkpt>
      <trkpt lat="46.10963" lon="2.46989">
        <ele>528</ele>
        <time>2015-04-20T14:36:37Z</time>
      </trkpt>
      <trkpt lat="46.10966" lon="2.46989">
        <ele>528</ele>
        <time>2015-04-20T14:36:39Z</time>
      </trkpt>
      <trkpt lat="46.10968" lon="2.46988">
        <ele>528</ele>
        <time>2015-04-20T14:36:41Z</time>
      </trkpt>
      <trkpt lat="46.10971" lon="2.46988">
        <ele>528</ele>
        <time>2015-04-20T14:36:43Z</time>
      </trkpt>
      <trkpt lat="46.10974" lon="2.46987">
        <ele>528</ele>
        <time>2015-04-20T14:36:45Z</time>
      </trkpt>
      <trkpt lat="46.10977" lon="2.46986">
        <ele>528</ele>
        <time>2015-04-20T14:36:47Z</time>
      </trkpt>
      <trkpt lat="46.1098" lon="2.46986">
        <ele>528</ele>
        <time>2015-04-20T14:36:49Z</time>
      </trkpt>
      <trkpt lat="46.10983" lon="2.46986">
        <ele>528</ele>
        <time>2015-04-20T14:36:51Z</time>
      </trkpt>
      <trkpt lat="46.10986" lon="2.46986">
        <ele>528</ele>
        <time>2015-04-20T14:36:53Z</time>
      </trkpt>
      <trkpt lat="46.10989" lon="2.46986">
        <ele>529</ele>
        <time>2015-04-20T14:36:55Z</time>
      </trkpt>
      <trkpt lat="46.10992" lon="2.46985">
        <ele>529</ele>
        <time>2015-04-20T14:36:57Z</time>
      </trkpt>
      <trkpt lat="46.10994" lon="2.46985">
        <ele>529</ele>
        <time>2015-04-20T14:36:59Z</time>
      </trkpt>
      <trkpt lat="46.10997" lon="2.46984">
        <ele>529</ele>
        <time>2015-04-20T14:37:01Z</time>
      </trkpt>
      <trkpt lat="46.11" lon="2.46984">
        <ele>529</ele>
        <time>2015-04-20T14:37:03Z</time>
      </trkpt>
      <trkpt lat="46.11003" lon="2.46983">
        <ele>530</ele>
        <time>2015-04-20T14:37:05Z</time>
      </trkpt>
      <trkpt lat="46.11006" lon="2.46982">
        <ele>530</ele>
        <time>2015-04-20T14:37:07Z</time>
      </trkpt>
      <trkpt lat="46.11009" lon="2.46981">
        <ele>530</ele>
        <time>2015-04-20T14:37:09Z</time>
      </trkpt>
      <trkpt lat="46.11012" lon="2.46979">
        <ele>530</ele>
        <time>2015-04-20T14:37:11Z</time>
      </trkpt>
      <trkpt lat="46.11014" lon="2.46979">
        <ele>530</ele>
        <time>2015-04-20T14:37:13Z</time>
      </trkpt>
      <trkpt lat="46.11017" lon="2.46978">
        <ele>530</ele>
        <time>2015-04-20T14:37:15Z</time>
      </trkpt>
      <trkpt lat="46.1102" lon="2.46977">
        <ele>530</ele>
        <time>2015-04-20T14:37:17Z</time>
      </trkpt>
      <trkpt lat="46.11023" lon="2.46975">
        <ele>530</ele>
        <time>2015-04-20T14:37:20Z</time>
      </trkpt>
      <trkpt lat="46.11026" lon="2.46973">
        <ele>530</ele>
        <time>2015-04-20T14:37:23Z</time>
      </trkpt>
      <trkpt lat="46.11029" lon="2.46972">
        <ele>530</ele>
        <time>2015-04-20T14:37:25Z</time>
      </trkpt>
      <trkpt lat="46.11031" lon="2.4697">
        <ele>530</ele>
        <time>2015-04-20T14:37:27Z</time>
      </trkpt>
      <trkpt lat="46.11033" lon="2.46968">
        <ele>530</ele>
        <time>2015-04-20T14:37:29Z</time>
      </trkpt>
      <trkpt lat="46.11036" lon="2.46967">
        <ele>530</ele>
        <time>2015-04-20T14:37:31Z</time>
      </trkpt>
      <trkpt lat="46.11038" lon="2.46967">
        <ele>530</ele>
        <time>2015-04-20T14:37:33Z</time>
      </trkpt>
      <trkpt lat="46.11041" lon="2.46966">
        <ele>530</ele>
        <time>2015-04-20T14:37:35Z</time>
      </trkpt>
      <trkpt lat="46.11044" lon="2.46966">
        <ele>530</ele>
        <time>2015-04-20T14:37:37Z</time>
      </trkpt>
      <trkpt lat="46.11046" lon="2.46965">
        <ele>530</ele>
        <time>2015-04-20T14:37:39Z</time>
      </trkpt>
      <trkpt lat="46.11049" lon="2.46964">
        <ele>530</ele>
        <time>2015-04-20T14:37:41Z</time>
      </trkpt>
      <trkpt lat="46.11052" lon="2.46963">
        <ele>530</ele>
        <time>2015-04-20T14:37:43Z</time>
      </trkpt>
      <trkpt lat="46.11055" lon="2.46961">
        <ele>530</ele>
        <time>2015-04-20T14:37:45Z</time>
      </trkpt>
      <trkpt lat="46.11057" lon="2.4696">
        <ele>530</ele>
        <time>2015-04-20T14:37:47Z</time>
      </trkpt>
      <trkpt lat="46.1106" lon="2.46959">
        <ele>530</ele>
        <time>2015-04-20T14:37:49Z</time>
      </trkpt>
      <trkpt lat="46.11063" lon="2.46957">
        <ele>530</ele>
        <time>2015-04-20T14:37:51Z</time>
      </trkpt>
      <trkpt lat="46.11065" lon="2.46955">
        <ele>530</ele>
        <time>2015-04-20T14:37:53Z</time>
      </trkpt>
      <trkpt lat="46.11068" lon="2.46954">
        <ele>530</ele>
        <time>2015-04-20T14:37:55Z</time>
      </trkpt>
      <trkpt lat="46.11071" lon="2.46954">
        <ele>530</ele>
        <time>2015-04-20T14:37:57Z</time>
      </trkpt>
      <trkpt lat="46.11074" lon="2.46953">
        <ele>531</ele>
        <time>2015-04-20T14:37:59Z</time>
      </trkpt>
      <trkpt lat="46.11076" lon="2.46952">
        <ele>531</ele>
        <time>2015-04-20T14:38:01Z</time>
      </trkpt>
      <trkpt lat="46.11079" lon="2.46952">
        <ele>531</ele>
        <time>2015-04-20T14:38:03Z</time>
      </trkpt>
      <trkpt lat="46.11082" lon="2.46951">
        <ele>531</ele>
        <time>2015-04-20T14:38:05Z</time>
      </trkpt>
      <trkpt lat="46.11084" lon="2.46949">
        <ele>531</ele>
        <time>2015-04-20T14:38:07Z</time>
      </trkpt>
      <trkpt lat="46.11087" lon="2.46948">
        <ele>531</ele>
        <time>2015-04-20T14:38:09Z</time>
      </trkpt>
      <trkpt lat="46.11089" lon="2.46947">
        <ele>531</ele>
        <time>2015-04-20T14:38:11Z</time>
      </trkpt>
      <trkpt lat="46.11092" lon="2.46946">
        <ele>531</ele>
        <time>2015-04-20T14:38:13Z</time>
      </trkpt>
      <trkpt lat="46.11094" lon="2.46946">
        <ele>531</ele>
        <time>2015-04-20T14:38:15Z</time>
      </trkpt>
      <trkpt lat="46.11097" lon="2.46944">
        <ele>531</ele>
        <time>2015-04-20T14:38:17Z</time>
      </trkpt>
      <trkpt lat="46.111" lon="2.46943">
        <ele>531</ele>
        <time>2015-04-20T14:38:19Z</time>
      </trkpt>
      <trkpt lat="46.11104" lon="2.46942">
        <ele>531</ele>
        <time>2015-04-20T14:38:21Z</time>
      </trkpt>
      <trkpt lat="46.11107" lon="2.46941">
        <ele>531</ele>
        <time>2015-04-20T14:38:23Z</time>
      </trkpt>
      <trkpt lat="46.1111" lon="2.46941">
        <ele>531</ele>
        <time>2015-04-20T14:38:25Z</time>
      </trkpt>
      <trkpt lat="46.11112" lon="2.4694">
        <ele>531</ele>
        <time>2015-04-20T14:38:27Z</time>
      </trkpt>
      <trkpt lat="46.11115" lon="2.46939">
        <ele>531</ele>
        <time>2015-04-20T14:38:29Z</time>
      </trkpt>
      <trkpt lat="46.11118" lon="2.46938">
        <ele>531</ele>
        <time>2015-04-20T14:38:31Z</time>
      </trkpt>
      <trkpt lat="46.1112" lon="2.46937">
        <ele>531</ele>
        <time>2015-04-20T14:38:33Z</time>
      </trkpt>
      <trkpt lat="46.11123" lon="2.46936">
        <ele>531</ele>
        <time>2015-04-20T14:38:35Z</time>
      </trkpt>
      <trkpt lat="46.11126" lon="2.46935">
        <ele>531</ele>
        <time>2015-04-20T14:38:37Z</time>
      </trkpt>
      <trkpt lat="46.11129" lon="2.46934">
        <ele>531</ele>
        <time>2015-04-20T14:38:39Z</time>
      </trkpt>
      <trkpt lat="46.11131" lon="2.46933">
        <ele>531</ele>
        <time>2015-04-20T14:38:41Z</time>
      </trkpt>
      <trkpt lat="46.11134" lon="2.46931">
        <ele>531</ele>
        <time>2015-04-20T14:38:43Z</time>
      </trkpt>
      <trkpt lat="46.11136" lon="2.4693">
        <ele>531</ele>
        <time>2015-04-20T14:38:45Z</time>
      </trkpt>
      <trkpt lat="46.11139" lon="2.46929">
        <ele>531</ele>
        <time>2015-04-20T14:38:47Z</time>
      </trkpt>
      <trkpt lat="46.11142" lon="2.46927">
        <ele>531</ele>
        <time>2015-04-20T14:38:50Z</time>
      </trkpt>
      <trkpt lat="46.11144" lon="2.46925">
        <ele>531</ele>
        <time>2015-04-20T14:38:52Z</time>
      </trkpt>
      <trkpt lat="46.11147" lon="2.46924">
        <ele>531</ele>
        <time>2015-04-20T14:38:54Z</time>
      </trkpt>
      <trkpt lat="46.11149" lon="2.46922">
        <ele>531</ele>
        <time>2015-04-20T14:38:56Z</time>
      </trkpt>
      <trkpt lat="46.11152" lon="2.46921">
        <ele>531</ele>
        <time>2015-04-20T14:38:58Z</time>
      </trkpt>
      <trkpt lat="46.11154" lon="2.4692">
        <ele>531</ele>
        <time>2015-04-20T14:39:00Z</time>
      </trkpt>
      <trkpt lat="46.11157" lon="2.46919">
        <ele>531</ele>
        <time>2015-04-20T14:39:02Z</time>
      </trkpt>
      <trkpt lat="46.11159" lon="2.46918">
        <ele>531</ele>
        <time>2015-04-20T14:39:04Z</time>
      </trkpt>
      <trkpt lat="46.11161" lon="2.46918">
        <ele>531</ele>
        <time>2015-04-20T14:39:06Z</time>
      </trkpt>
      <trkpt lat="46.11165" lon="2.46918">
        <ele>531</ele>
        <time>2015-04-20T14:39:09Z</time>
      </trkpt>
      <trkpt lat="46.11168" lon="2.46917">
        <ele>531</ele>
        <time>2015-04-20T14:39:11Z</time>
      </trkpt>
      <trkpt lat="46.11171" lon="2.46917">
        <ele>531</ele>
        <time>2015-04-20T14:39:13Z</time>
      </trkpt>
      <trkpt lat="46.11174" lon="2.46916">
        <ele>531</ele>
        <time>2015-04-20T14:39:15Z</time>
      </trkpt>
      <trkpt lat="46.11177" lon="2.46915">
        <ele>531</ele>
        <time>2015-04-20T14:39:17Z</time>
      </trkpt>
      <trkpt lat="46.1118" lon="2.46915">
        <ele>531</ele>
        <time>2015-04-20T14:39:19Z</time>
      </trkpt>
      <trkpt lat="46.11184" lon="2.46914">
        <ele>531</ele>
        <time>2015-04-20T14:39:21Z</time>
      </trkpt>
      <trkpt lat="46.11186" lon="2.46913">
        <ele>531</ele>
        <time>2015-04-20T14:39:23Z</time>
      </trkpt>
      <trkpt lat="46.11189" lon="2.46912">
        <ele>531</ele>
        <time>2015-04-20T14:39:25Z</time>
      </trkpt>
      <trkpt lat="46.11192" lon="2.46912">
        <ele>531</ele>
        <time>2015-04-20T14:39:27Z</time>
      </trkpt>
      <trkpt lat="46.11195" lon="2.46912">
        <ele>531</ele>
        <time>2015-04-20T14:39:29Z</time>
      </trkpt>
      <trkpt lat="46.11198" lon="2.46911">
        <ele>531</ele>
        <time>2015-04-20T14:39:31Z</time>
      </trkpt>
      <trkpt lat="46.11202" lon="2.46911">
        <ele>531</ele>
        <time>2015-04-20T14:39:34Z</time>
      </trkpt>
      <trkpt lat="46.11205" lon="2.46909">
        <ele>531</ele>
        <time>2015-04-20T14:39:36Z</time>
      </trkpt>
      <trkpt lat="46.11207" lon="2.46908">
        <ele>531</ele>
        <time>2015-04-20T14:39:38Z</time>
      </trkpt>
      <trkpt lat="46.1121" lon="2.46907">
        <ele>531</ele>
        <time>2015-04-20T14:39:40Z</time>
      </trkpt>
      <trkpt lat="46.11213" lon="2.46906">
        <ele>531</ele>
        <time>2015-04-20T14:39:42Z</time>
      </trkpt>
      <trkpt lat="46.11215" lon="2.46905">
        <ele>531</ele>
        <time>2015-04-20T14:39:44Z</time>
      </trkpt>
      <trkpt lat="46.11218" lon="2.46904">
        <ele>531</ele>
        <time>2015-04-20T14:39:46Z</time>
      </trkpt>
      <trkpt lat="46.11221" lon="2.46902">
        <ele>531</ele>
        <time>2015-04-20T14:39:48Z</time>
      </trkpt>
      <trkpt lat="46.11224" lon="2.46901">
        <ele>531</ele>
        <time>2015-04-20T14:39:50Z</time>
      </trkpt>
      <trkpt lat="46.11226" lon="2.469">
        <ele>531</ele>
        <time>2015-04-20T14:39:52Z</time>
      </trkpt>
      <trkpt lat="46.11229" lon="2.46899">
        <ele>531</ele>
        <time>2015-04-20T14:39:54Z</time>
      </trkpt>
      <trkpt lat="46.11231" lon="2.46898">
        <ele>531</ele>
        <time>2015-04-20T14:39:56Z</time>
      </trkpt>
      <trkpt lat="46.11234" lon="2.46896">
        <ele>531</ele>
        <time>2015-04-20T14:39:58Z</time>
      </trkpt>
      <trkpt lat="46.11237" lon="2.46895">
        <ele>531</ele>
        <time>2015-04-20T14:40:00Z</time>
      </trkpt>
      <trkpt lat="46.1124" lon="2.46894">
        <ele>531</ele>
        <time>2015-04-20T14:40:02Z</time>
      </trkpt>
      <trkpt lat="46.11242" lon="2.46892">
        <ele>531</ele>
        <time>2015-04-20T14:40:04Z</time>
      </trkpt>
      <trkpt lat="46.11245" lon="2.46891">
        <ele>531</ele>
        <time>2015-04-20T14:40:06Z</time>
      </trkpt>
      <trkpt lat="46.11248" lon="2.46889">
        <ele>531</ele>
        <time>2015-04-20T14:40:09Z</time>
      </trkpt>
      <trkpt lat="46.11251" lon="2.46888">
        <ele>531</ele>
        <time>2015-04-20T14:40:11Z</time>
      </trkpt>
      <trkpt lat="46.11253" lon="2.46886">
        <ele>531</ele>
        <time>2015-04-20T14:40:13Z</time>
      </trkpt>
      <trkpt lat="46.11256" lon="2.46885">
        <ele>531</ele>
        <time>2015-04-20T14:40:15Z</time>
      </trkpt>
      <trkpt lat="46.11259" lon="2.46884">
        <ele>531</ele>
        <time>2015-04-20T14:40:17Z</time>
      </trkpt>
      <trkpt lat="46.11262" lon="2.46882">
        <ele>531</ele>
        <time>2015-04-20T14:40:19Z</time>
      </trkpt>
      <trkpt lat="46.11265" lon="2.4688">
        <ele>531</ele>
        <time>2015-04-20T14:40:21Z</time>
      </trkpt>
      <trkpt lat="46.11268" lon="2.46879">
        <ele>531</ele>
        <time>2015-04-20T14:40:23Z</time>
      </trkpt>
      <trkpt lat="46.1127" lon="2.46877">
        <ele>531</ele>
        <time>2015-04-20T14:40:25Z</time>
      </trkpt>
      <trkpt lat="46.11274" lon="2.46875">
        <ele>531</ele>
        <time>2015-04-20T14:40:27Z</time>
      </trkpt>
      <trkpt lat="46.11276" lon="2.46873">
        <ele>531</ele>
        <time>2015-04-20T14:40:29Z</time>
      </trkpt>
      <trkpt lat="46.11279" lon="2.46871">
        <ele>531</ele>
        <time>2015-04-20T14:40:31Z</time>
      </trkpt>
      <trkpt lat="46.11281" lon="2.4687">
        <ele>531</ele>
        <time>2015-04-20T14:40:33Z</time>
      </trkpt>
      <trkpt lat="46.11283" lon="2.46868">
        <ele>531</ele>
        <time>2015-04-20T14:40:35Z</time>
      </trkpt>
      <trkpt lat="46.11286" lon="2.46867">
        <ele>531</ele>
        <time>2015-04-20T14:40:37Z</time>
      </trkpt>
      <trkpt lat="46.11289" lon="2.46865">
        <ele>531</ele>
        <time>2015-04-20T14:40:39Z</time>
      </trkpt>
      <trkpt lat="46.11291" lon="2.46864">
        <ele>531</ele>
        <time>2015-04-20T14:40:41Z</time>
      </trkpt>
      <trkpt lat="46.11294" lon="2.46862">
        <ele>531</ele>
        <time>2015-04-20T14:40:43Z</time>
      </trkpt>
      <trkpt lat="46.11297" lon="2.4686">
        <ele>531</ele>
        <time>2015-04-20T14:40:45Z</time>
      </trkpt>
      <trkpt lat="46.113" lon="2.46859">
        <ele>531</ele>
        <time>2015-04-20T14:40:47Z</time>
      </trkpt>
      <trkpt lat="46.11303" lon="2.46858">
        <ele>531</ele>
        <time>2015-04-20T14:40:49Z</time>
      </trkpt>
      <trkpt lat="46.11305" lon="2.46857">
        <ele>531</ele>
        <time>2015-04-20T14:40:51Z</time>
      </trkpt>
      <trkpt lat="46.11308" lon="2.46856">
        <ele>531</ele>
        <time>2015-04-20T14:40:53Z</time>
      </trkpt>
      <trkpt lat="46.11311" lon="2.46855">
        <ele>531</ele>
        <time>2015-04-20T14:40:55Z</time>
      </trkpt>
      <trkpt lat="46.11313" lon="2.46853">
        <ele>531</ele>
        <time>2015-04-20T14:40:57Z</time>
      </trkpt>
      <trkpt lat="46.11316" lon="2.46852">
        <ele>531</ele>
        <time>2015-04-20T14:40:59Z</time>
      </trkpt>
      <trkpt lat="46.11319" lon="2.46851">
        <ele>531</ele>
        <time>2015-04-20T14:41:01Z</time>
      </trkpt>
      <trkpt lat="46.11322" lon="2.4685">
        <ele>531</ele>
        <time>2015-04-20T14:41:03Z</time>
      </trkpt>
      <trkpt lat="46.11324" lon="2.46848">
        <ele>531</ele>
        <time>2015-04-20T14:41:05Z</time>
      </trkpt>
      <trkpt lat="46.11327" lon="2.46847">
        <ele>531</ele>
        <time>2015-04-20T14:41:07Z</time>
      </trkpt>
      <trkpt lat="46.1133" lon="2.46846">
        <ele>531</ele>
        <time>2015-04-20T14:41:09Z</time>
      </trkpt>
      <trkpt lat="46.11332" lon="2.46844">
        <ele>531</ele>
        <time>2015-04-20T14:41:11Z</time>
      </trkpt>
      <trkpt lat="46.11335" lon="2.46843">
        <ele>531</ele>
        <time>2015-04-20T14:41:13Z</time>
      </trkpt>
      <trkpt lat="46.11338" lon="2.46842">
        <ele>531</ele>
        <time>2015-04-20T14:41:15Z</time>
      </trkpt>
      <trkpt lat="46.1134" lon="2.4684">
        <ele>531</ele>
        <time>2015-04-20T14:41:17Z</time>
      </trkpt>
      <trkpt lat="46.11343" lon="2.46838">
        <ele>531</ele>
        <time>2015-04-20T14:41:19Z</time>
      </trkpt>
      <trkpt lat="46.11345" lon="2.46837">
        <ele>531</ele>
        <time>2015-04-20T14:41:21Z</time>
      </trkpt>
      <trkpt lat="46.11348" lon="2.46835">
        <ele>531</ele>
        <time>2015-04-20T14:41:23Z</time>
      </trkpt>
      <trkpt lat="46.1135" lon="2.46833">
        <ele>531</ele>
        <time>2015-04-20T14:41:25Z</time>
      </trkpt>
      <trkpt lat="46.11352" lon="2.46832">
        <ele>531</ele>
        <time>2015-04-20T14:41:27Z</time>
      </trkpt>
      <trkpt lat="46.11354" lon="2.46831">
        <ele>531</ele>
        <time>2015-04-20T14:41:29Z</time>
      </trkpt>
      <trkpt lat="46.11356" lon="2.4683">
        <ele>531</ele>
        <time>2015-04-20T14:41:31Z</time>
      </trkpt>
      <trkpt lat="46.11359" lon="2.46828">
        <ele>531</ele>
        <time>2015-04-20T14:41:33Z</time>
      </trkpt>
      <trkpt lat="46.11362" lon="2.46826">
        <ele>531</ele>
        <time>2015-04-20T14:41:36Z</time>
      </trkpt>
      <trkpt lat="46.11365" lon="2.46823">
        <ele>531</ele>
        <time>2015-04-20T14:41:39Z</time>
      </trkpt>
      <trkpt lat="46.11367" lon="2.46822">
        <ele>531</ele>
        <time>2015-04-20T14:41:41Z</time>
      </trkpt>
      <trkpt lat="46.1137" lon="2.46821">
        <ele>531</ele>
        <time>2015-04-20T14:41:43Z</time>
      </trkpt>
      <trkpt lat="46.11372" lon="2.46819">
        <ele>531</ele>
        <time>2015-04-20T14:41:45Z</time>
      </trkpt>
      <trkpt lat="46.11375" lon="2.46818">
        <ele>531</ele>
        <time>2015-04-20T14:41:47Z</time>
      </trkpt>
      <trkpt lat="46.11378" lon="2.46816">
        <ele>531</ele>
        <time>2015-04-20T14:41:49Z</time>
      </trkpt>
      <trkpt lat="46.1138" lon="2.46815">
        <ele>531</ele>
        <time>2015-04-20T14:41:51Z</time>
      </trkpt>
      <trkpt lat="46.11383" lon="2.46814">
        <ele>531</ele>
        <time>2015-04-20T14:41:53Z</time>
      </trkpt>
      <trkpt lat="46.11385" lon="2.46812">
        <ele>531</ele>
        <time>2015-04-20T14:41:55Z</time>
      </trkpt>
      <trkpt lat="46.11388" lon="2.46811">
        <ele>531</ele>
        <time>2015-04-20T14:41:57Z</time>
      </trkpt>
      <trkpt lat="46.11391" lon="2.4681">
        <ele>531</ele>
        <time>2015-04-20T14:41:59Z</time>
      </trkpt>
      <trkpt lat="46.11393" lon="2.46808">
        <ele>531</ele>
        <time>2015-04-20T14:42:01Z</time>
      </trkpt>
      <trkpt lat="46.11396" lon="2.46807">
        <ele>531</ele>
        <time>2015-04-20T14:42:03Z</time>
      </trkpt>
      <trkpt lat="46.11398" lon="2.46805">
        <ele>531</ele>
        <time>2015-04-20T14:42:05Z</time>
      </trkpt>
      <trkpt lat="46.11401" lon="2.46804">
        <ele>531</ele>
        <time>2015-04-20T14:42:07Z</time>
      </trkpt>
      <trkpt lat="46.11404" lon="2.46802">
        <ele>531</ele>
        <time>2015-04-20T14:42:09Z</time>
      </trkpt>
      <trkpt lat="46.11406" lon="2.46801">
        <ele>530</ele>
        <time>2015-04-20T14:42:11Z</time>
      </trkpt>
      <trkpt lat="46.11409" lon="2.468">
        <ele>530</ele>
        <time>2015-04-20T14:42:13Z</time>
      </trkpt>
      <trkpt lat="46.11411" lon="2.46798">
        <ele>530</ele>
        <time>2015-04-20T14:42:15Z</time>
      </trkpt>
      <trkpt lat="46.11414" lon="2.46797">
        <ele>529</ele>
        <time>2015-04-20T14:42:17Z</time>
      </trkpt>
      <trkpt lat="46.11416" lon="2.46796">
        <ele>529</ele>
        <time>2015-04-20T14:42:19Z</time>
      </trkpt>
      <trkpt lat="46.11419" lon="2.46795">
        <ele>529</ele>
        <time>2015-04-20T14:42:21Z</time>
      </trkpt>
      <trkpt lat="46.11421" lon="2.46794">
        <ele>529</ele>
        <time>2015-04-20T14:42:23Z</time>
      </trkpt>
      <trkpt lat="46.11424" lon="2.46793">
        <ele>529</ele>
        <time>2015-04-20T14:42:25Z</time>
      </trkpt>
      <trkpt lat="46.11426" lon="2.46792">
        <ele>529</ele>
        <time>2015-04-20T14:42:27Z</time>
      </trkpt>
      <trkpt lat="46.11429" lon="2.4679">
        <ele>529</ele>
        <time>2015-04-20T14:42:29Z</time>
      </trkpt>
      <trkpt lat="46.11432" lon="2.46789">
        <ele>529</ele>
        <time>2015-04-20T14:42:31Z</time>
      </trkpt>
      <trkpt lat="46.11434" lon="2.46788">
        <ele>529</ele>
        <time>2015-04-20T14:42:33Z</time>
      </trkpt>
      <trkpt lat="46.11436" lon="2.46786">
        <ele>529</ele>
        <time>2015-04-20T14:42:35Z</time>
      </trkpt>
      <trkpt lat="46.11439" lon="2.46785">
        <ele>529</ele>
        <time>2015-04-20T14:42:37Z</time>
      </trkpt>
      <trkpt lat="46.11441" lon="2.46784">
        <ele>529</ele>
        <time>2015-04-20T14:42:39Z</time>
      </trkpt>
      <trkpt lat="46.11444" lon="2.46782">
        <ele>529</ele>
        <time>2015-04-20T14:42:41Z</time>
      </trkpt>
      <trkpt lat="46.11447" lon="2.46781">
        <ele>529</ele>
        <time>2015-04-20T14:42:43Z</time>
      </trkpt>
      <trkpt lat="46.11449" lon="2.46779">
        <ele>529</ele>
        <time>2015-04-20T14:42:45Z</time>
      </trkpt>
      <trkpt lat="46.11452" lon="2.46778">
        <ele>529</ele>
        <time>2015-04-20T14:42:47Z</time>
      </trkpt>
      <trkpt lat="46.11454" lon="2.46777">
        <ele>529</ele>
        <time>2015-04-20T14:42:49Z</time>
      </trkpt>
      <trkpt lat="46.11457" lon="2.46775">
        <ele>529</ele>
        <time>2015-04-20T14:42:51Z</time>
      </trkpt>
      <trkpt lat="46.11459" lon="2.46773">
        <ele>529</ele>
        <time>2015-04-20T14:42:53Z</time>
      </trkpt>
      <trkpt lat="46.11462" lon="2.4677">
        <ele>529</ele>
        <time>2015-04-20T14:42:56Z</time>
      </trkpt>
      <trkpt lat="46.11465" lon="2.46768">
        <ele>529</ele>
        <time>2015-04-20T14:42:58Z</time>
      </trkpt>
      <trkpt lat="46.11467" lon="2.46765">
        <ele>529</ele>
        <time>2015-04-20T14:43:00Z</time>
      </trkpt>
      <trkpt lat="46.1147" lon="2.46763">
        <ele>529</ele>
        <time>2015-04-20T14:43:02Z</time>
      </trkpt>
      <trkpt lat="46.11472" lon="2.46761">
        <ele>529</ele>
        <time>2015-04-20T14:43:04Z</time>
      </trkpt>
      <trkpt lat="46.11474" lon="2.46759">
        <ele>529</ele>
        <time>2015-04-20T14:43:06Z</time>
      </trkpt>
      <trkpt lat="46.11476" lon="2.46756">
        <ele>528</ele>
        <time>2015-04-20T14:43:08Z</time>
      </trkpt>
      <trkpt lat="46.11478" lon="2.46754">
        <ele>528</ele>
        <time>2015-04-20T14:43:10Z</time>
      </trkpt>
      <trkpt lat="46.1148" lon="2.46752">
        <ele>528</ele>
        <time>2015-04-20T14:43:12Z</time>
      </trkpt>
      <trkpt lat="46.11482" lon="2.46749">
        <ele>528</ele>
        <time>2015-04-20T14:43:14Z</time>
      </trkpt>
      <trkpt lat="46.11485" lon="2.46745">
        <ele>527</ele>
        <time>2015-04-20T14:43:17Z</time>
      </trkpt>
      <trkpt lat="46.11488" lon="2.46741">
        <ele>527</ele>
        <time>2015-04-20T14:43:20Z</time>
      </trkpt>
      <trkpt lat="46.1149" lon="2.46739">
        <ele>527</ele>
        <time>2015-04-20T14:43:22Z</time>
      </trkpt>
      <trkpt lat="46.11492" lon="2.46736">
        <ele>526</ele>
        <time>2015-04-20T14:43:24Z</time>
      </trkpt>
      <trkpt lat="46.11494" lon="2.46733">
        <ele>526</ele>
        <time>2015-04-20T14:43:26Z</time>
      </trkpt>
      <trkpt lat="46.11496" lon="2.46731">
        <ele>526</ele>
        <time>2015-04-20T14:43:28Z</time>
      </trkpt>
      <trkpt lat="46.11499" lon="2.46727">
        <ele>525</ele>
        <time>2015-04-20T14:43:31Z</time>
      </trkpt>
      <trkpt lat="46.11502" lon="2.46724">
        <ele>525</ele>
        <time>2015-04-20T14:43:34Z</time>
      </trkpt>
      <trkpt lat="46.11504" lon="2.46722">
        <ele>525</ele>
        <time>2015-04-20T14:43:36Z</time>
      </trkpt>
      <trkpt lat="46.11507" lon="2.4672">
        <ele>524</ele>
        <time>2015-04-20T14:43:38Z</time>
      </trkpt>
      <trkpt lat="46.11509" lon="2.46718">
        <ele>524</ele>
        <time>2015-04-20T14:43:40Z</time>
      </trkpt>
      <trkpt lat="46.11512" lon="2.46716">
        <ele>524</ele>
        <time>2015-04-20T14:43:42Z</time>
      </trkpt>
      <trkpt lat="46.11514" lon="2.46715">
        <ele>524</ele>
        <time>2015-04-20T14:43:44Z</time>
      </trkpt>
      <trkpt lat="46.11517" lon="2.46713">
        <ele>524</ele>
        <time>2015-04-20T14:43:46Z</time>
      </trkpt>
      <trkpt lat="46.1152" lon="2.46712">
        <ele>524</ele>
        <time>2015-04-20T14:43:48Z</time>
      </trkpt>
      <trkpt lat="46.11523" lon="2.46711">
        <ele>524</ele>
        <time>2015-04-20T14:43:50Z</time>
      </trkpt>
      <trkpt lat="46.11525" lon="2.4671">
        <ele>524</ele>
        <time>2015-04-20T14:43:52Z</time>
      </trkpt>
      <trkpt lat="46.11528" lon="2.46709">
        <ele>523</ele>
        <time>2015-04-20T14:43:54Z</time>
      </trkpt>
      <trkpt lat="46.11531" lon="2.46708">
        <ele>523</ele>
        <time>2015-04-20T14:43:56Z</time>
      </trkpt>
      <trkpt lat="46.11533" lon="2.46707">
        <ele>523</ele>
        <time>2015-04-20T14:43:58Z</time>
      </trkpt>
      <trkpt lat="46.11535" lon="2.46706">
        <ele>522</ele>
        <time>2015-04-20T14:44:00Z</time>
      </trkpt>
      <trkpt lat="46.11538" lon="2.46705">
        <ele>522</ele>
        <time>2015-04-20T14:44:02Z</time>
      </trkpt>
      <trkpt lat="46.1154" lon="2.46703">
        <ele>521</ele>
        <time>2015-04-20T14:44:04Z</time>
      </trkpt>
      <trkpt lat="46.11543" lon="2.46702">
        <ele>521</ele>
        <time>2015-04-20T14:44:06Z</time>
      </trkpt>
      <trkpt lat="46.11546" lon="2.467">
        <ele>521</ele>
        <time>2015-04-20T14:44:08Z</time>
      </trkpt>
      <trkpt lat="46.11549" lon="2.46699">
        <ele>521</ele>
        <time>2015-04-20T14:44:10Z</time>
      </trkpt>
      <trkpt lat="46.11552" lon="2.46698">
        <ele>521</ele>
        <time>2015-04-20T14:44:12Z</time>
      </trkpt>
      <trkpt lat="46.11554" lon="2.46696">
        <ele>521</ele>
        <time>2015-04-20T14:44:14Z</time>
      </trkpt>
      <trkpt lat="46.11557" lon="2.46695">
        <ele>521</ele>
        <time>2015-04-20T14:44:16Z</time>
      </trkpt>
      <trkpt lat="46.11559" lon="2.46694">
        <ele>521</ele>
        <time>2015-04-20T14:44:18Z</time>
      </trkpt>
      <trkpt lat="46.1161" lon="2.46673">
        <ele>521</ele>
        <time>2015-04-20T14:44:21Z</time>
      </trkpt>
      <trkpt lat="46.11612" lon="2.46674">
        <ele>521</ele>
        <time>2015-04-20T14:44:23Z</time>
      </trkpt>
      <trkpt lat="46.11615" lon="2.46674">
        <ele>521</ele>
        <time>2015-04-20T14:44:25Z</time>
      </trkpt>
      <trkpt lat="46.11617" lon="2.46675">
        <ele>521</ele>
        <time>2015-04-20T14:44:27Z</time>
      </trkpt>
      <trkpt lat="46.1162" lon="2.46675">
        <ele>521</ele>
        <time>2015-04-20T14:44:29Z</time>
      </trkpt>
      <trkpt lat="46.11623" lon="2.46674">
        <ele>521</ele>
        <time>2015-04-20T14:44:32Z</time>
      </trkpt>
      <trkpt lat="46.11625" lon="2.46675">
        <ele>521</ele>
        <time>2015-04-20T14:44:34Z</time>
      </trkpt>
      <trkpt lat="46.11628" lon="2.46675">
        <ele>521</ele>
        <time>2015-04-20T14:44:36Z</time>
      </trkpt>
      <trkpt lat="46.1163" lon="2.46675">
        <ele>521</ele>
        <time>2015-04-20T14:44:38Z</time>
      </trkpt>
      <trkpt lat="46.11631" lon="2.46674">
        <ele>521</ele>
        <time>2015-04-20T14:44:40Z</time>
      </trkpt>
      <trkpt lat="46.11634" lon="2.46674">
        <ele>521</ele>
        <time>2015-04-20T14:44:42Z</time>
      </trkpt>
      <trkpt lat="46.11636" lon="2.46673">
        <ele>521</ele>
        <time>2015-04-20T14:44:45Z</time>
      </trkpt>
      <trkpt lat="46.11639" lon="2.46672">
        <ele>521</ele>
        <time>2015-04-20T14:44:47Z</time>
      </trkpt>
      <trkpt lat="46.11642" lon="2.46672">
        <ele>521</ele>
        <time>2015-04-20T14:44:49Z</time>
      </trkpt>
      <trkpt lat="46.11645" lon="2.46671">
        <ele>521</ele>
        <time>2015-04-20T14:44:51Z</time>
      </trkpt>
      <trkpt lat="46.11647" lon="2.4667">
        <ele>521</ele>
        <time>2015-04-20T14:44:53Z</time>
      </trkpt>
      <trkpt lat="46.1165" lon="2.46669">
        <ele>521</ele>
        <time>2015-04-20T14:44:55Z</time>
      </trkpt>
      <trkpt lat="46.11653" lon="2.46668">
        <ele>521</ele>
        <time>2015-04-20T14:44:57Z</time>
      </trkpt>
      <trkpt lat="46.11655" lon="2.46668">
        <ele>521</ele>
        <time>2015-04-20T14:44:59Z</time>
      </trkpt>
      <trkpt lat="46.11657" lon="2.46667">
        <ele>521</ele>
        <time>2015-04-20T14:45:01Z</time>
      </trkpt>
      <trkpt lat="46.1166" lon="2.46666">
        <ele>521</ele>
        <time>2015-04-20T14:45:03Z</time>
      </trkpt>
      <trkpt lat="46.11662" lon="2.46666">
        <ele>521</ele>
        <time>2015-04-20T14:45:05Z</time>
      </trkpt>
      <trkpt lat="46.11665" lon="2.46665">
        <ele>521</ele>
        <time>2015-04-20T14:45:07Z</time>
      </trkpt>
      <trkpt lat="46.11668" lon="2.46665">
        <ele>521</ele>
        <time>2015-04-20T14:45:09Z</time>
      </trkpt>
      <trkpt lat="46.1167" lon="2.46664">
        <ele>521</ele>
        <time>2015-04-20T14:45:11Z</time>
      </trkpt>
      <trkpt lat="46.11673" lon="2.46663">
        <ele>521</ele>
        <time>2015-04-20T14:45:13Z</time>
      </trkpt>
      <trkpt lat="46.11676" lon="2.46663">
        <ele>521</ele>
        <time>2015-04-20T14:45:15Z</time>
      </trkpt>
      <trkpt lat="46.11678" lon="2.46663">
        <ele>520</ele>
        <time>2015-04-20T14:45:17Z</time>
      </trkpt>
      <trkpt lat="46.11681" lon="2.46661">
        <ele>520</ele>
        <time>2015-04-20T14:45:20Z</time>
      </trkpt>
      <trkpt lat="46.11684" lon="2.46661">
        <ele>520</ele>
        <time>2015-04-20T14:45:23Z</time>
      </trkpt>
      <trkpt lat="46.11688" lon="2.4666">
        <ele>520</ele>
        <time>2015-04-20T14:45:26Z</time>
      </trkpt>
      <trkpt lat="46.1169" lon="2.4666">
        <ele>520</ele>
        <time>2015-04-20T14:45:28Z</time>
      </trkpt>
      <trkpt lat="46.11693" lon="2.4666">
        <ele>520</ele>
        <time>2015-04-20T14:45:30Z</time>
      </trkpt>
      <trkpt lat="46.11696" lon="2.4666">
        <ele>520</ele>
        <time>2015-04-20T14:45:32Z</time>
      </trkpt>
      <trkpt lat="46.11699" lon="2.46659">
        <ele>519</ele>
        <time>2015-04-20T14:45:34Z</time>
      </trkpt>
      <trkpt lat="46.11701" lon="2.46658">
        <ele>519</ele>
        <time>2015-04-20T14:45:36Z</time>
      </trkpt>
      <trkpt lat="46.11704" lon="2.46658">
        <ele>519</ele>
        <time>2015-04-20T14:45:38Z</time>
      </trkpt>
      <trkpt lat="46.11706" lon="2.46658">
        <ele>519</ele>
        <time>2015-04-20T14:45:40Z</time>
      </trkpt>
      <trkpt lat="46.11708" lon="2.46657">
        <ele>519</ele>
        <time>2015-04-20T14:45:42Z</time>
      </trkpt>
      <trkpt lat="46.1171" lon="2.46656">
        <ele>519</ele>
        <time>2015-04-20T14:45:44Z</time>
      </trkpt>
      <trkpt lat="46.11713" lon="2.46655">
        <ele>518</ele>
        <time>2015-04-20T14:45:46Z</time>
      </trkpt>
      <trkpt lat="46.11716" lon="2.46653">
        <ele>518</ele>
        <time>2015-04-20T14:45:49Z</time>
      </trkpt>
      <trkpt lat="46.11718" lon="2.46652">
        <ele>518</ele>
        <time>2015-04-20T14:45:51Z</time>
      </trkpt>
      <trkpt lat="46.1172" lon="2.46651">
        <ele>518</ele>
        <time>2015-04-20T14:45:53Z</time>
      </trkpt>
      <trkpt lat="46.11721" lon="2.46649">
        <ele>517</ele>
        <time>2015-04-20T14:45:55Z</time>
      </trkpt>
      <trkpt lat="46.11723" lon="2.46647">
        <ele>517</ele>
        <time>2015-04-20T14:45:57Z</time>
      </trkpt>
      <trkpt lat="46.11725" lon="2.46645">
        <ele>517</ele>
        <time>2015-04-20T14:45:59Z</time>
      </trkpt>
      <trkpt lat="46.11728" lon="2.46641">
        <ele>517</ele>
        <time>2015-04-20T14:46:02Z</time>
      </trkpt>
      <trkpt lat="46.1173" lon="2.46639">
        <ele>517</ele>
        <time>2015-04-20T14:46:04Z</time>
      </trkpt>
      <trkpt lat="46.11733" lon="2.46639">
        <ele>517</ele>
        <time>2015-04-20T14:46:06Z</time>
      </trkpt>
      <trkpt lat="46.11736" lon="2.4664">
        <ele>517</ele>
        <time>2015-04-20T14:46:08Z</time>
      </trkpt>
      <trkpt lat="46.11739" lon="2.46641">
        <ele>517</ele>
        <time>2015-04-20T14:46:10Z</time>
      </trkpt>
      <trkpt lat="46.11742" lon="2.46642">
        <ele>517</ele>
        <time>2015-04-20T14:46:12Z</time>
      </trkpt>
      <trkpt lat="46.11745" lon="2.46644">
        <ele>517</ele>
        <time>2015-04-20T14:46:14Z</time>
      </trkpt>
      <trkpt lat="46.11748" lon="2.46645">
        <ele>517</ele>
        <time>2015-04-20T14:46:16Z</time>
      </trkpt>
      <trkpt lat="46.11751" lon="2.46646">
        <ele>517</ele>
        <time>2015-04-20T14:46:18Z</time>
      </trkpt>
      <trkpt lat="46.11754" lon="2.46646">
        <ele>517</ele>
        <time>2015-04-20T14:46:20Z</time>
      </trkpt>
      <trkpt lat="46.11757" lon="2.46647">
        <ele>517</ele>
        <time>2015-04-20T14:46:22Z</time>
      </trkpt>
      <trkpt lat="46.1176" lon="2.46648">
        <ele>517</ele>
        <time>2015-04-20T14:46:24Z</time>
      </trkpt>
      <trkpt lat="46.11763" lon="2.46648">
        <ele>517</ele>
        <time>2015-04-20T14:46:26Z</time>
      </trkpt>
      <trkpt lat="46.11766" lon="2.46648">
        <ele>517</ele>
        <time>2015-04-20T14:46:28Z</time>
      </trkpt>
      <trkpt lat="46.11769" lon="2.46648">
        <ele>517</ele>
        <time>2015-04-20T14:46:30Z</time>
      </trkpt>
      <trkpt lat="46.11772" lon="2.46648">
        <ele>517</ele>
        <time>2015-04-20T14:46:32Z</time>
      </trkpt>
      <trkpt lat="46.11775" lon="2.46648">
        <ele>517</ele>
        <time>2015-04-20T14:46:34Z</time>
      </trkpt>
      <trkpt lat="46.11778" lon="2.46647">
        <ele>517</ele>
        <time>2015-04-20T14:46:36Z</time>
      </trkpt>
      <trkpt lat="46.11781" lon="2.46646">
        <ele>517</ele>
        <time>2015-04-20T14:46:38Z</time>
      </trkpt>
      <trkpt lat="46.11784" lon="2.46646">
        <ele>517</ele>
        <time>2015-04-20T14:46:40Z</time>
      </trkpt>
      <trkpt lat="46.11787" lon="2.46646">
        <ele>517</ele>
        <time>2015-04-20T14:46:42Z</time>
      </trkpt>
      <trkpt lat="46.1179" lon="2.46645">
        <ele>517</ele>
        <time>2015-04-20T14:46:44Z</time>
      </trkpt>
      <trkpt lat="46.11793" lon="2.46644">
        <ele>517</ele>
        <time>2015-04-20T14:46:46Z</time>
      </trkpt>
      <trkpt lat="46.11795" lon="2.46643">
        <ele>517</ele>
        <time>2015-04-20T14:46:48Z</time>
      </trkpt>
      <trkpt lat="46.11798" lon="2.46642">
        <ele>517</ele>
        <time>2015-04-20T14:46:50Z</time>
      </trkpt>
      <trkpt lat="46.11801" lon="2.46641">
        <ele>517</ele>
        <time>2015-04-20T14:46:52Z</time>
      </trkpt>
      <trkpt lat="46.11804" lon="2.46641">
        <ele>517</ele>
        <time>2015-04-20T14:46:54Z</time>
      </trkpt>
      <trkpt lat="46.11807" lon="2.4664">
        <ele>517</ele>
        <time>2015-04-20T14:46:56Z</time>
      </trkpt>
      <trkpt lat="46.1181" lon="2.4664">
        <ele>517</ele>
        <time>2015-04-20T14:46:58Z</time>
      </trkpt>
      <trkpt lat="46.11813" lon="2.46639">
        <ele>517</ele>
        <time>2015-04-20T14:47:00Z</time>
      </trkpt>
      <trkpt lat="46.11816" lon="2.46639">
        <ele>517</ele>
        <time>2015-04-20T14:47:02Z</time>
      </trkpt>
      <trkpt lat="46.11819" lon="2.46639">
        <ele>517</ele>
        <time>2015-04-20T14:47:04Z</time>
      </trkpt>
      <trkpt lat="46.11822" lon="2.46638">
        <ele>517</ele>
        <time>2015-04-20T14:47:06Z</time>
      </trkpt>
      <trkpt lat="46.11824" lon="2.46638">
        <ele>517</ele>
        <time>2015-04-20T14:47:08Z</time>
      </trkpt>
      <trkpt lat="46.11827" lon="2.46637">
        <ele>517</ele>
        <time>2015-04-20T14:47:10Z</time>
      </trkpt>
      <trkpt lat="46.11831" lon="2.46638">
        <ele>517</ele>
        <time>2015-04-20T14:47:12Z</time>
      </trkpt>
      <trkpt lat="46.11833" lon="2.46637">
        <ele>517</ele>
        <time>2015-04-20T14:47:14Z</time>
      </trkpt>
      <trkpt lat="46.11836" lon="2.46637">
        <ele>517</ele>
        <time>2015-04-20T14:47:16Z</time>
      </trkpt>
      <trkpt lat="46.1184" lon="2.46636">
        <ele>517</ele>
        <time>2015-04-20T14:47:18Z</time>
      </trkpt>
      <trkpt lat="46.11843" lon="2.46636">
        <ele>517</ele>
        <time>2015-04-20T14:47:20Z</time>
      </trkpt>
      <trkpt lat="46.11846" lon="2.46635">
        <ele>517</ele>
        <time>2015-04-20T14:47:22Z</time>
      </trkpt>
      <trkpt lat="46.11849" lon="2.46635">
        <ele>517</ele>
        <time>2015-04-20T14:47:24Z</time>
      </trkpt>
      <trkpt lat="46.11852" lon="2.46635">
        <ele>517</ele>
        <time>2015-04-20T14:47:26Z</time>
      </trkpt>
      <trkpt lat="46.11855" lon="2.46634">
        <ele>517</ele>
        <time>2015-04-20T14:47:28Z</time>
      </trkpt>
      <trkpt lat="46.11858" lon="2.46634">
        <ele>517</ele>
        <time>2015-04-20T14:47:30Z</time>
      </trkpt>
      <trkpt lat="46.11861" lon="2.46633">
        <ele>517</ele>
        <time>2015-04-20T14:47:32Z</time>
      </trkpt>
      <trkpt lat="46.11864" lon="2.46633">
        <ele>517</ele>
        <time>2015-04-20T14:47:34Z</time>
      </trkpt>
      <trkpt lat="46.11867" lon="2.46633">
        <ele>517</ele>
        <time>2015-04-20T14:47:36Z</time>
      </trkpt>
      <trkpt lat="46.1187" lon="2.46632">
        <ele>517</ele>
        <time>2015-04-20T14:47:38Z</time>
      </trkpt>
      <trkpt lat="46.11873" lon="2.46632">
        <ele>517</ele>
        <time>2015-04-20T14:47:40Z</time>
      </trkpt>
      <trkpt lat="46.11875" lon="2.46631">
        <ele>517</ele>
        <time>2015-04-20T14:47:42Z</time>
      </trkpt>
      <trkpt lat="46.11878" lon="2.46631">
        <ele>517</ele>
        <time>2015-04-20T14:47:44Z</time>
      </trkpt>
      <trkpt lat="46.11881" lon="2.46631">
        <ele>517</ele>
        <time>2015-04-20T14:47:46Z</time>
      </trkpt>
      <trkpt lat="46.11884" lon="2.46631">
        <ele>517</ele>
        <time>2015-04-20T14:47:48Z</time>
      </trkpt>
      <trkpt lat="46.11887" lon="2.46631">
        <ele>517</ele>
        <time>2015-04-20T14:47:50Z</time>
      </trkpt>
      <trkpt lat="46.11889" lon="2.4663">
        <ele>517</ele>
        <time>2015-04-20T14:47:52Z</time>
      </trkpt>
      <trkpt lat="46.11892" lon="2.4663">
        <ele>517</ele>
        <time>2015-04-20T14:47:54Z</time>
      </trkpt>
      <trkpt lat="46.11895" lon="2.4663">
        <ele>517</ele>
        <time>2015-04-20T14:47:56Z</time>
      </trkpt>
      <trkpt lat="46.11898" lon="2.4663">
        <ele>517</ele>
        <time>2015-04-20T14:47:58Z</time>
      </trkpt>
      <trkpt lat="46.119" lon="2.46629">
        <ele>517</ele>
        <time>2015-04-20T14:48:00Z</time>
      </trkpt>
      <trkpt lat="46.11903" lon="2.46628">
        <ele>517</ele>
        <time>2015-04-20T14:48:02Z</time>
      </trkpt>
      <trkpt lat="46.11906" lon="2.46628">
        <ele>517</ele>
        <time>2015-04-20T14:48:04Z</time>
      </trkpt>
      <trkpt lat="46.11909" lon="2.46628">
        <ele>517</ele>
        <time>2015-04-20T14:48:06Z</time>
      </trkpt>
      <trkpt lat="46.11912" lon="2.46627">
        <ele>517</ele>
        <time>2015-04-20T14:48:08Z</time>
      </trkpt>
      <trkpt lat="46.11915" lon="2.46626">
        <ele>517</ele>
        <time>2015-04-20T14:48:10Z</time>
      </trkpt>
      <trkpt lat="46.11918" lon="2.46626">
        <ele>517</ele>
        <time>2015-04-20T14:48:12Z</time>
      </trkpt>
      <trkpt lat="46.1192" lon="2.46626">
        <ele>517</ele>
        <time>2015-04-20T14:48:14Z</time>
      </trkpt>
      <trkpt lat="46.11923" lon="2.46625">
        <ele>517</ele>
        <time>2015-04-20T14:48:16Z</time>
      </trkpt>
      <trkpt lat="46.11926" lon="2.46625">
        <ele>517</ele>
        <time>2015-04-20T14:48:18Z</time>
      </trkpt>
      <trkpt lat="46.11929" lon="2.46624">
        <ele>517</ele>
        <time>2015-04-20T14:48:20Z</time>
      </trkpt>
      <trkpt lat="46.11932" lon="2.46624">
        <ele>517</ele>
        <time>2015-04-20T14:48:22Z</time>
      </trkpt>
      <trkpt lat="46.11935" lon="2.46623">
        <ele>517</ele>
        <time>2015-04-20T14:48:24Z</time>
      </trkpt>
      <trkpt lat="46.11937" lon="2.46623">
        <ele>517</ele>
        <time>2015-04-20T14:48:26Z</time>
      </trkpt>
      <trkpt lat="46.1194" lon="2.46623">
        <ele>517</ele>
        <time>2015-04-20T14:48:28Z</time>
      </trkpt>
      <trkpt lat="46.11943" lon="2.46623">
        <ele>517</ele>
        <time>2015-04-20T14:48:30Z</time>
      </trkpt>
      <trkpt lat="46.11945" lon="2.46622">
        <ele>517</ele>
        <time>2015-04-20T14:48:32Z</time>
      </trkpt>
      <trkpt lat="46.11948" lon="2.46622">
        <ele>517</ele>
        <time>2015-04-20T14:48:34Z</time>
      </trkpt>
      <trkpt lat="46.11951" lon="2.46621">
        <ele>517</ele>
        <time>2015-04-20T14:48:36Z</time>
      </trkpt>
      <trkpt lat="46.11953" lon="2.46621">
        <ele>517</ele>
        <time>2015-04-20T14:48:38Z</time>
      </trkpt>
      <trkpt lat="46.11955" lon="2.4662">
        <ele>517</ele>
        <time>2015-04-20T14:48:40Z</time>
      </trkpt>
      <trkpt lat="46.11958" lon="2.4662">
        <ele>517</ele>
        <time>2015-04-20T14:48:42Z</time>
      </trkpt>
      <trkpt lat="46.11961" lon="2.4662">
        <ele>517</ele>
        <time>2015-04-20T14:48:44Z</time>
      </trkpt>
      <trkpt lat="46.11963" lon="2.4662">
        <ele>517</ele>
        <time>2015-04-20T14:48:46Z</time>
      </trkpt>
      <trkpt lat="46.11966" lon="2.46619">
        <ele>517</ele>
        <time>2015-04-20T14:48:48Z</time>
      </trkpt>
      <trkpt lat="46.11969" lon="2.46619">
        <ele>517</ele>
        <time>2015-04-20T14:48:50Z</time>
      </trkpt>
      <trkpt lat="46.11971" lon="2.46619">
        <ele>517</ele>
        <time>2015-04-20T14:48:52Z</time>
      </trkpt>
      <trkpt lat="46.11974" lon="2.46619">
        <ele>517</ele>
        <time>2015-04-20T14:48:54Z</time>
      </trkpt>
      <trkpt lat="46.11977" lon="2.46618">
        <ele>517</ele>
        <time>2015-04-20T14:48:56Z</time>
      </trkpt>
      <trkpt lat="46.1198" lon="2.46618">
        <ele>517</ele>
        <time>2015-04-20T14:48:58Z</time>
      </trkpt>
      <trkpt lat="46.11982" lon="2.46618">
        <ele>517</ele>
        <time>2015-04-20T14:49:00Z</time>
      </trkpt>
      <trkpt lat="46.11985" lon="2.46617">
        <ele>517</ele>
        <time>2015-04-20T14:49:02Z</time>
      </trkpt>
      <trkpt lat="46.11987" lon="2.46617">
        <ele>517</ele>
        <time>2015-04-20T14:49:04Z</time>
      </trkpt>
      <trkpt lat="46.1199" lon="2.46616">
        <ele>517</ele>
        <time>2015-04-20T14:49:06Z</time>
      </trkpt>
      <trkpt lat="46.11993" lon="2.46616">
        <ele>517</ele>
        <time>2015-04-20T14:49:08Z</time>
      </trkpt>
      <trkpt lat="46.11995" lon="2.46618">
        <ele>517</ele>
        <time>2015-04-20T14:49:10Z</time>
      </trkpt>
      <trkpt lat="46.11998" lon="2.46619">
        <ele>517</ele>
        <time>2015-04-20T14:49:12Z</time>
      </trkpt>
      <trkpt lat="46.12" lon="2.4662">
        <ele>517</ele>
        <time>2015-04-20T14:49:14Z</time>
      </trkpt>
      <trkpt lat="46.12002" lon="2.46621">
        <ele>517</ele>
        <time>2015-04-20T14:49:16Z</time>
      </trkpt>
      <trkpt lat="46.12005" lon="2.46624">
        <ele>517</ele>
        <time>2015-04-20T14:49:18Z</time>
      </trkpt>
      <trkpt lat="46.12008" lon="2.46626">
        <ele>517</ele>
        <time>2015-04-20T14:49:20Z</time>
      </trkpt>
      <trkpt lat="46.1201" lon="2.46628">
        <ele>517</ele>
        <time>2015-04-20T14:49:22Z</time>
      </trkpt>
      <trkpt lat="46.12013" lon="2.46629">
        <ele>517</ele>
        <time>2015-04-20T14:49:24Z</time>
      </trkpt>
      <trkpt lat="46.12016" lon="2.46631">
        <ele>517</ele>
        <time>2015-04-20T14:49:26Z</time>
      </trkpt>
      <trkpt lat="46.12019" lon="2.46632">
        <ele>517</ele>
        <time>2015-04-20T14:49:28Z</time>
      </trkpt>
      <trkpt lat="46.12021" lon="2.46632">
        <ele>517</ele>
        <time>2015-04-20T14:49:30Z</time>
      </trkpt>
      <trkpt lat="46.12024" lon="2.46632">
        <ele>517</ele>
        <time>2015-04-20T14:49:32Z</time>
      </trkpt>
      <trkpt lat="46.12026" lon="2.46633">
        <ele>516</ele>
        <time>2015-04-20T14:49:34Z</time>
      </trkpt>
      <trkpt lat="46.12029" lon="2.46634">
        <ele>516</ele>
        <time>2015-04-20T14:49:36Z</time>
      </trkpt>
      <trkpt lat="46.12032" lon="2.46635">
        <ele>516</ele>
        <time>2015-04-20T14:49:38Z</time>
      </trkpt>
      <trkpt lat="46.12035" lon="2.46636">
        <ele>515</ele>
        <time>2015-04-20T14:49:40Z</time>
      </trkpt>
      <trkpt lat="46.12038" lon="2.46637">
        <ele>515</ele>
        <time>2015-04-20T14:49:42Z</time>
      </trkpt>
      <trkpt lat="46.1204" lon="2.46638">
        <ele>515</ele>
        <time>2015-04-20T14:49:44Z</time>
      </trkpt>
      <trkpt lat="46.12043" lon="2.46639">
        <ele>515</ele>
        <time>2015-04-20T14:49:46Z</time>
      </trkpt>
      <trkpt lat="46.12046" lon="2.46639">
        <ele>515</ele>
        <time>2015-04-20T14:49:48Z</time>
      </trkpt>
      <trkpt lat="46.12049" lon="2.4664">
        <ele>515</ele>
        <time>2015-04-20T14:49:50Z</time>
      </trkpt>
      <trkpt lat="46.12051" lon="2.46641">
        <ele>515</ele>
        <time>2015-04-20T14:49:52Z</time>
      </trkpt>
      <trkpt lat="46.12054" lon="2.46643">
        <ele>515</ele>
        <time>2015-04-20T14:49:54Z</time>
      </trkpt>
      <trkpt lat="46.12057" lon="2.46644">
        <ele>515</ele>
        <time>2015-04-20T14:49:56Z</time>
      </trkpt>
      <trkpt lat="46.12061" lon="2.46645">
        <ele>515</ele>
        <time>2015-04-20T14:49:58Z</time>
      </trkpt>
      <trkpt lat="46.12064" lon="2.46646">
        <ele>515</ele>
        <time>2015-04-20T14:50:00Z</time>
      </trkpt>
      <trkpt lat="46.12066" lon="2.46646">
        <ele>515</ele>
        <time>2015-04-20T14:50:02Z</time>
      </trkpt>
      <trkpt lat="46.12069" lon="2.46648">
        <ele>515</ele>
        <time>2015-04-20T14:50:04Z</time>
      </trkpt>
      <trkpt lat="46.12072" lon="2.46649">
        <ele>515</ele>
        <time>2015-04-20T14:50:06Z</time>
      </trkpt>
      <trkpt lat="46.12075" lon="2.4665">
        <ele>515</ele>
        <time>2015-04-20T14:50:08Z</time>
      </trkpt>
      <trkpt lat="46.12077" lon="2.46651">
        <ele>515</ele>
        <time>2015-04-20T14:50:10Z</time>
      </trkpt>
      <trkpt lat="46.1208" lon="2.46653">
        <ele>515</ele>
        <time>2015-04-20T14:50:12Z</time>
      </trkpt>
      <trkpt lat="46.12083" lon="2.46654">
        <ele>515</ele>
        <time>2015-04-20T14:50:14Z</time>
      </trkpt>
      <trkpt lat="46.12086" lon="2.46655">
        <ele>515</ele>
        <time>2015-04-20T14:50:16Z</time>
      </trkpt>
      <trkpt lat="46.12088" lon="2.46657">
        <ele>515</ele>
        <time>2015-04-20T14:50:18Z</time>
      </trkpt>
      <trkpt lat="46.12091" lon="2.46658">
        <ele>515</ele>
        <time>2015-04-20T14:50:20Z</time>
      </trkpt>
      <trkpt lat="46.12094" lon="2.46659">
        <ele>515</ele>
        <time>2015-04-20T14:50:22Z</time>
      </trkpt>
      <trkpt lat="46.12096" lon="2.4666">
        <ele>515</ele>
        <time>2015-04-20T14:50:24Z</time>
      </trkpt>
      <trkpt lat="46.12099" lon="2.46662">
        <ele>515</ele>
        <time>2015-04-20T14:50:26Z</time>
      </trkpt>
      <trkpt lat="46.12101" lon="2.46663">
        <ele>515</ele>
        <time>2015-04-20T14:50:28Z</time>
      </trkpt>
      <trkpt lat="46.12104" lon="2.46664">
        <ele>515</ele>
        <time>2015-04-20T14:50:30Z</time>
      </trkpt>
      <trkpt lat="46.12107" lon="2.46666">
        <ele>515</ele>
        <time>2015-04-20T14:50:32Z</time>
      </trkpt>
      <trkpt lat="46.12109" lon="2.46667">
        <ele>515</ele>
        <time>2015-04-20T14:50:34Z</time>
      </trkpt>
      <trkpt lat="46.12112" lon="2.46668">
        <ele>515</ele>
        <time>2015-04-20T14:50:36Z</time>
      </trkpt>
      <trkpt lat="46.12115" lon="2.46669">
        <ele>515</ele>
        <time>2015-04-20T14:50:38Z</time>
      </trkpt>
      <trkpt lat="46.12118" lon="2.4667">
        <ele>515</ele>
        <time>2015-04-20T14:50:40Z</time>
      </trkpt>
      <trkpt lat="46.1212" lon="2.46673">
        <ele>515</ele>
        <time>2015-04-20T14:50:42Z</time>
      </trkpt>
      <trkpt lat="46.12123" lon="2.46675">
        <ele>515</ele>
        <time>2015-04-20T14:50:44Z</time>
      </trkpt>
      <trkpt lat="46.12125" lon="2.46677">
        <ele>515</ele>
        <time>2015-04-20T14:50:46Z</time>
      </trkpt>
      <trkpt lat="46.12128" lon="2.46679">
        <ele>515</ele>
        <time>2015-04-20T14:50:48Z</time>
      </trkpt>
      <trkpt lat="46.12131" lon="2.46681">
        <ele>515</ele>
        <time>2015-04-20T14:50:50Z</time>
      </trkpt>
      <trkpt lat="46.12134" lon="2.46683">
        <ele>515</ele>
        <time>2015-04-20T14:50:52Z</time>
      </trkpt>
      <trkpt lat="46.12136" lon="2.46685">
        <ele>515</ele>
        <time>2015-04-20T14:50:54Z</time>
      </trkpt>
      <trkpt lat="46.12139" lon="2.46687">
        <ele>515</ele>
        <time>2015-04-20T14:50:56Z</time>
      </trkpt>
      <trkpt lat="46.12142" lon="2.46689">
        <ele>515</ele>
        <time>2015-04-20T14:50:58Z</time>
      </trkpt>
      <trkpt lat="46.12145" lon="2.46691">
        <ele>515</ele>
        <time>2015-04-20T14:51:00Z</time>
      </trkpt>
      <trkpt lat="46.12148" lon="2.46693">
        <ele>515</ele>
        <time>2015-04-20T14:51:02Z</time>
      </trkpt>
      <trkpt lat="46.12151" lon="2.46695">
        <ele>515</ele>
        <time>2015-04-20T14:51:04Z</time>
      </trkpt>
      <trkpt lat="46.12154" lon="2.46698">
        <ele>515</ele>
        <time>2015-04-20T14:51:07Z</time>
      </trkpt>
      <trkpt lat="46.12157" lon="2.467">
        <ele>515</ele>
        <time>2015-04-20T14:51:09Z</time>
      </trkpt>
      <trkpt lat="46.12159" lon="2.46702">
        <ele>515</ele>
        <time>2015-04-20T14:51:11Z</time>
      </trkpt>
      <trkpt lat="46.12163" lon="2.46705">
        <ele>515</ele>
        <time>2015-04-20T14:51:14Z</time>
      </trkpt>
      <trkpt lat="46.12165" lon="2.46707">
        <ele>515</ele>
        <time>2015-04-20T14:51:16Z</time>
      </trkpt>
      <trkpt lat="46.12168" lon="2.46708">
        <ele>515</ele>
        <time>2015-04-20T14:51:18Z</time>
      </trkpt>
      <trkpt lat="46.1217" lon="2.4671">
        <ele>515</ele>
        <time>2015-04-20T14:51:20Z</time>
      </trkpt>
      <trkpt lat="46.12173" lon="2.46713">
        <ele>515</ele>
        <time>2015-04-20T14:51:22Z</time>
      </trkpt>
      <trkpt lat="46.12176" lon="2.46714">
        <ele>515</ele>
        <time>2015-04-20T14:51:24Z</time>
      </trkpt>
      <trkpt lat="46.12178" lon="2.46717">
        <ele>515</ele>
        <time>2015-04-20T14:51:26Z</time>
      </trkpt>
      <trkpt lat="46.1218" lon="2.46719">
        <ele>515</ele>
        <time>2015-04-20T14:51:28Z</time>
      </trkpt>
      <trkpt lat="46.12184" lon="2.46722">
        <ele>515</ele>
        <time>2015-04-20T14:51:31Z</time>
      </trkpt>
      <trkpt lat="46.12186" lon="2.46724">
        <ele>515</ele>
        <time>2015-04-20T14:51:33Z</time>
      </trkpt>
      <trkpt lat="46.12189" lon="2.46727">
        <ele>515</ele>
        <time>2015-04-20T14:51:35Z</time>
      </trkpt>
      <trkpt lat="46.12191" lon="2.46729">
        <ele>515</ele>
        <time>2015-04-20T14:51:37Z</time>
      </trkpt>
      <trkpt lat="46.12194" lon="2.46731">
        <ele>515</ele>
        <time>2015-04-20T14:51:39Z</time>
      </trkpt>
      <trkpt lat="46.12196" lon="2.46734">
        <ele>515</ele>
        <time>2015-04-20T14:51:41Z</time>
      </trkpt>
      <trkpt lat="46.12199" lon="2.46736">
        <ele>515</ele>
        <time>2015-04-20T14:51:43Z</time>
      </trkpt>
      <trkpt lat="46.12201" lon="2.46739">
        <ele>515</ele>
        <time>2015-04-20T14:51:45Z</time>
      </trkpt>
      <trkpt lat="46.12204" lon="2.46741">
        <ele>515</ele>
        <time>2015-04-20T14:51:47Z</time>
      </trkpt>
      <trkpt lat="46.12206" lon="2.46743">
        <ele>515</ele>
        <time>2015-04-20T14:51:49Z</time>
      </trkpt>
      <trkpt lat="46.12209" lon="2.46745">
        <ele>515</ele>
        <time>2015-04-20T14:51:51Z</time>
      </trkpt>
      <trkpt lat="46.12211" lon="2.46748">
        <ele>515</ele>
        <time>2015-04-20T14:51:53Z</time>
      </trkpt>
      <trkpt lat="46.12213" lon="2.4675">
        <ele>515</ele>
        <time>2015-04-20T14:51:55Z</time>
      </trkpt>
      <trkpt lat="46.12215" lon="2.46753">
        <ele>515</ele>
        <time>2015-04-20T14:51:57Z</time>
      </trkpt>
      <trkpt lat="46.12218" lon="2.46755">
        <ele>515</ele>
        <time>2015-04-20T14:51:59Z</time>
      </trkpt>
      <trkpt lat="46.1222" lon="2.46758">
        <ele>515</ele>
        <time>2015-04-20T14:52:01Z</time>
      </trkpt>
      <trkpt lat="46.12223" lon="2.4676">
        <ele>515</ele>
        <time>2015-04-20T14:52:03Z</time>
      </trkpt>
      <trkpt lat="46.12225" lon="2.46762">
        <ele>515</ele>
        <time>2015-04-20T14:52:05Z</time>
      </trkpt>
      <trkpt lat="46.12228" lon="2.46764">
        <ele>515</ele>
        <time>2015-04-20T14:52:07Z</time>
      </trkpt>
      <trkpt lat="46.1223" lon="2.46767">
        <ele>515</ele>
        <time>2015-04-20T14:52:09Z</time>
      </trkpt>
      <trkpt lat="46.12234" lon="2.4677">
        <ele>515</ele>
        <time>2015-04-20T14:52:12Z</time>
      </trkpt>
      <trkpt lat="46.12236" lon="2.46773">
        <ele>515</ele>
        <time>2015-04-20T14:52:14Z</time>
      </trkpt>
      <trkpt lat="46.12239" lon="2.46775">
        <ele>515</ele>
        <time>2015-04-20T14:52:16Z</time>
      </trkpt>
      <trkpt lat="46.12241" lon="2.46777">
        <ele>515</ele>
        <time>2015-04-20T14:52:18Z</time>
      </trkpt>
      <trkpt lat="46.12244" lon="2.46779">
        <ele>515</ele>
        <time>2015-04-20T14:52:20Z</time>
      </trkpt>
      <trkpt lat="46.12246" lon="2.46782">
        <ele>515</ele>
        <time>2015-04-20T14:52:22Z</time>
      </trkpt>
      <trkpt lat="46.12248" lon="2.46784">
        <ele>515</ele>
        <time>2015-04-20T14:52:24Z</time>
      </trkpt>
      <trkpt lat="46.12251" lon="2.46786">
        <ele>515</ele>
        <time>2015-04-20T14:52:26Z</time>
      </trkpt>
      <trkpt lat="46.12253" lon="2.46788">
        <ele>515</ele>
        <time>2015-04-20T14:52:28Z</time>
      </trkpt>
      <trkpt lat="46.12256" lon="2.4679">
        <ele>515</ele>
        <time>2015-04-20T14:52:30Z</time>
      </trkpt>
      <trkpt lat="46.12258" lon="2.46792">
        <ele>515</ele>
        <time>2015-04-20T14:52:32Z</time>
      </trkpt>
      <trkpt lat="46.12261" lon="2.46794">
        <ele>515</ele>
        <time>2015-04-20T14:52:34Z</time>
      </trkpt>
      <trkpt lat="46.12263" lon="2.46796">
        <ele>515</ele>
        <time>2015-04-20T14:52:36Z</time>
      </trkpt>
      <trkpt lat="46.12266" lon="2.46798">
        <ele>515</ele>
        <time>2015-04-20T14:52:38Z</time>
      </trkpt>
      <trkpt lat="46.12269" lon="2.468">
        <ele>515</ele>
        <time>2015-04-20T14:52:40Z</time>
      </trkpt>
      <trkpt lat="46.12271" lon="2.46802">
        <ele>515</ele>
        <time>2015-04-20T14:52:42Z</time>
      </trkpt>
      <trkpt lat="46.12274" lon="2.46803">
        <ele>515</ele>
        <time>2015-04-20T14:52:44Z</time>
      </trkpt>
      <trkpt lat="46.12276" lon="2.46805">
        <ele>515</ele>
        <time>2015-04-20T14:52:46Z</time>
      </trkpt>
      <trkpt lat="46.12279" lon="2.46807">
        <ele>514</ele>
        <time>2015-04-20T14:52:48Z</time>
      </trkpt>
      <trkpt lat="46.12281" lon="2.46809">
        <ele>514</ele>
        <time>2015-04-20T14:52:50Z</time>
      </trkpt>
      <trkpt lat="46.12284" lon="2.46811">
        <ele>514</ele>
        <time>2015-04-20T14:52:52Z</time>
      </trkpt>
      <trkpt lat="46.12287" lon="2.46813">
        <ele>514</ele>
        <time>2015-04-20T14:52:54Z</time>
      </trkpt>
      <trkpt lat="46.12289" lon="2.46815">
        <ele>514</ele>
        <time>2015-04-20T14:52:56Z</time>
      </trkpt>
      <trkpt lat="46.12292" lon="2.46817">
        <ele>514</ele>
        <time>2015-04-20T14:52:58Z</time>
      </trkpt>
      <trkpt lat="46.12295" lon="2.46819">
        <ele>514</ele>
        <time>2015-04-20T14:53:00Z</time>
      </trkpt>
      <trkpt lat="46.12297" lon="2.4682">
        <ele>514</ele>
        <time>2015-04-20T14:53:02Z</time>
      </trkpt>
      <trkpt lat="46.123" lon="2.46822">
        <ele>514</ele>
        <time>2015-04-20T14:53:04Z</time>
      </trkpt>
      <trkpt lat="46.12303" lon="2.46823">
        <ele>513</ele>
        <time>2015-04-20T14:53:06Z</time>
      </trkpt>
      <trkpt lat="46.12305" lon="2.46825">
        <ele>513</ele>
        <time>2015-04-20T14:53:08Z</time>
      </trkpt>
      <trkpt lat="46.12308" lon="2.46826">
        <ele>513</ele>
        <time>2015-04-20T14:53:10Z</time>
      </trkpt>
      <trkpt lat="46.1231" lon="2.46828">
        <ele>513</ele>
        <time>2015-04-20T14:53:12Z</time>
      </trkpt>
      <trkpt lat="46.12313" lon="2.4683">
        <ele>513</ele>
        <time>2015-04-20T14:53:14Z</time>
      </trkpt>
      <trkpt lat="46.12315" lon="2.46832">
        <ele>512</ele>
        <time>2015-04-20T14:53:16Z</time>
      </trkpt>
      <trkpt lat="46.12318" lon="2.46834">
        <ele>512</ele>
        <time>2015-04-20T14:53:18Z</time>
      </trkpt>
      <trkpt lat="46.1232" lon="2.46836">
        <ele>512</ele>
        <time>2015-04-20T14:53:20Z</time>
      </trkpt>
      <trkpt lat="46.12323" lon="2.46837">
        <ele>512</ele>
        <time>2015-04-20T14:53:22Z</time>
      </trkpt>
      <trkpt lat="46.12326" lon="2.46839">
        <ele>512</ele>
        <time>2015-04-20T14:53:24Z</time>
      </trkpt>
      <trkpt lat="46.12328" lon="2.46842">
        <ele>512</ele>
        <time>2015-04-20T14:53:26Z</time>
      </trkpt>
      <trkpt lat="46.12331" lon="2.46843">
        <ele>511</ele>
        <time>2015-04-20T14:53:28Z</time>
      </trkpt>
      <trkpt lat="46.12334" lon="2.46845">
        <ele>511</ele>
        <time>2015-04-20T14:53:30Z</time>
      </trkpt>
      <trkpt lat="46.12336" lon="2.46847">
        <ele>511</ele>
        <time>2015-04-20T14:53:32Z</time>
      </trkpt>
      <trkpt lat="46.12339" lon="2.46849">
        <ele>510</ele>
        <time>2015-04-20T14:53:34Z</time>
      </trkpt>
      <trkpt lat="46.12342" lon="2.4685">
        <ele>510</ele>
        <time>2015-04-20T14:53:36Z</time>
      </trkpt>
      <trkpt lat="46.12344" lon="2.46852">
        <ele>510</ele>
        <time>2015-04-20T14:53:38Z</time>
      </trkpt>
      <trkpt lat="46.12347" lon="2.46853">
        <ele>509</ele>
        <time>2015-04-20T14:53:40Z</time>
      </trkpt>
      <trkpt lat="46.1235" lon="2.46854">
        <ele>509</ele>
        <time>2015-04-20T14:53:42Z</time>
      </trkpt>
      <trkpt lat="46.12352" lon="2.46856">
        <ele>509</ele>
        <time>2015-04-20T14:53:44Z</time>
      </trkpt>
      <trkpt lat="46.12355" lon="2.46858">
        <ele>508</ele>
        <time>2015-04-20T14:53:46Z</time>
      </trkpt>
      <trkpt lat="46.12358" lon="2.46859">
        <ele>508</ele>
        <time>2015-04-20T14:53:48Z</time>
      </trkpt>
      <trkpt lat="46.12361" lon="2.46861">
        <ele>508</ele>
        <time>2015-04-20T14:53:51Z</time>
      </trkpt>
      <trkpt lat="46.12365" lon="2.46863">
        <ele>507</ele>
        <time>2015-04-20T14:53:54Z</time>
      </trkpt>
      <trkpt lat="46.12367" lon="2.46865">
        <ele>507</ele>
        <time>2015-04-20T14:53:56Z</time>
      </trkpt>
      <trkpt lat="46.1237" lon="2.46867">
        <ele>507</ele>
        <time>2015-04-20T14:53:58Z</time>
      </trkpt>
      <trkpt lat="46.12373" lon="2.46868">
        <ele>507</ele>
        <time>2015-04-20T14:54:00Z</time>
      </trkpt>
      <trkpt lat="46.12375" lon="2.4687">
        <ele>507</ele>
        <time>2015-04-20T14:54:02Z</time>
      </trkpt>
      <trkpt lat="46.12378" lon="2.46872">
        <ele>507</ele>
        <time>2015-04-20T14:54:04Z</time>
      </trkpt>
      <trkpt lat="46.12389" lon="2.46881">
        <ele>507</ele>
        <time>2015-04-20T14:54:08Z</time>
      </trkpt>
      <trkpt lat="46.1239" lon="2.46882">
        <ele>507</ele>
        <time>2015-04-20T14:54:10Z</time>
      </trkpt>
      <trkpt lat="46.12393" lon="2.46884">
        <ele>507</ele>
        <time>2015-04-20T14:54:12Z</time>
      </trkpt>
      <trkpt lat="46.12396" lon="2.46886">
        <ele>507</ele>
        <time>2015-04-20T14:54:14Z</time>
      </trkpt>
      <trkpt lat="46.12398" lon="2.46888">
        <ele>507</ele>
        <time>2015-04-20T14:54:16Z</time>
      </trkpt>
      <trkpt lat="46.12401" lon="2.4689">
        <ele>507</ele>
        <time>2015-04-20T14:54:18Z</time>
      </trkpt>
      <trkpt lat="46.12403" lon="2.46892">
        <ele>507</ele>
        <time>2015-04-20T14:54:20Z</time>
      </trkpt>
      <trkpt lat="46.12407" lon="2.46894">
        <ele>507</ele>
        <time>2015-04-20T14:54:22Z</time>
      </trkpt>
      <trkpt lat="46.12409" lon="2.46897">
        <ele>507</ele>
        <time>2015-04-20T14:54:24Z</time>
      </trkpt>
      <trkpt lat="46.12411" lon="2.46899">
        <ele>507</ele>
        <time>2015-04-20T14:54:26Z</time>
      </trkpt>
      <trkpt lat="46.12414" lon="2.46902">
        <ele>507</ele>
        <time>2015-04-20T14:54:28Z</time>
      </trkpt>
      <trkpt lat="46.12417" lon="2.46904">
        <ele>507</ele>
        <time>2015-04-20T14:54:30Z</time>
      </trkpt>
      <trkpt lat="46.1242" lon="2.46906">
        <ele>507</ele>
        <time>2015-04-20T14:54:32Z</time>
      </trkpt>
      <trkpt lat="46.12423" lon="2.46908">
        <ele>507</ele>
        <time>2015-04-20T14:54:34Z</time>
      </trkpt>
      <trkpt lat="46.12425" lon="2.4691">
        <ele>507</ele>
        <time>2015-04-20T14:54:36Z</time>
      </trkpt>
      <trkpt lat="46.12428" lon="2.46912">
        <ele>507</ele>
        <time>2015-04-20T14:54:38Z</time>
      </trkpt>
      <trkpt lat="46.12431" lon="2.46914">
        <ele>506</ele>
        <time>2015-04-20T14:54:41Z</time>
      </trkpt>
      <trkpt lat="46.12434" lon="2.46916">
        <ele>506</ele>
        <time>2015-04-20T14:54:43Z</time>
      </trkpt>
      <trkpt lat="46.12437" lon="2.46918">
        <ele>505</ele>
        <time>2015-04-20T14:54:45Z</time>
      </trkpt>
      <trkpt lat="46.1244" lon="2.46919">
        <ele>505</ele>
        <time>2015-04-20T14:54:47Z</time>
      </trkpt>
      <trkpt lat="46.12442" lon="2.46922">
        <ele>505</ele>
        <time>2015-04-20T14:54:49Z</time>
      </trkpt>
      <trkpt lat="46.12445" lon="2.46924">
        <ele>505</ele>
        <time>2015-04-20T14:54:51Z</time>
      </trkpt>
      <trkpt lat="46.12448" lon="2.46926">
        <ele>505</ele>
        <time>2015-04-20T14:54:53Z</time>
      </trkpt>
      <trkpt lat="46.1245" lon="2.46928">
        <ele>504</ele>
        <time>2015-04-20T14:54:55Z</time>
      </trkpt>
      <trkpt lat="46.12453" lon="2.46928">
        <ele>504</ele>
        <time>2015-04-20T14:54:57Z</time>
      </trkpt>
      <trkpt lat="46.12456" lon="2.46929">
        <ele>503</ele>
        <time>2015-04-20T14:54:59Z</time>
      </trkpt>
      <trkpt lat="46.12459" lon="2.4693">
        <ele>503</ele>
        <time>2015-04-20T14:55:01Z</time>
      </trkpt>
      <trkpt lat="46.12462" lon="2.46931">
        <ele>503</ele>
        <time>2015-04-20T14:55:03Z</time>
      </trkpt>
      <trkpt lat="46.12465" lon="2.46931">
        <ele>503</ele>
        <time>2015-04-20T14:55:05Z</time>
      </trkpt>
      <trkpt lat="46.12468" lon="2.46932">
        <ele>502</ele>
        <time>2015-04-20T14:55:07Z</time>
      </trkpt>
      <trkpt lat="46.12471" lon="2.46932">
        <ele>502</ele>
        <time>2015-04-20T14:55:09Z</time>
      </trkpt>
      <trkpt lat="46.12474" lon="2.46932">
        <ele>502</ele>
        <time>2015-04-20T14:55:11Z</time>
      </trkpt>
      <trkpt lat="46.12477" lon="2.46932">
        <ele>502</ele>
        <time>2015-04-20T14:55:13Z</time>
      </trkpt>
      <trkpt lat="46.1248" lon="2.46933">
        <ele>501</ele>
        <time>2015-04-20T14:55:15Z</time>
      </trkpt>
      <trkpt lat="46.12484" lon="2.46933">
        <ele>501</ele>
        <time>2015-04-20T14:55:17Z</time>
      </trkpt>
      <trkpt lat="46.12487" lon="2.46934">
        <ele>501</ele>
        <time>2015-04-20T14:55:19Z</time>
      </trkpt>
      <trkpt lat="46.1249" lon="2.46934">
        <ele>501</ele>
        <time>2015-04-20T14:55:21Z</time>
      </trkpt>
      <trkpt lat="46.12492" lon="2.46934">
        <ele>501</ele>
        <time>2015-04-20T14:55:23Z</time>
      </trkpt>
      <trkpt lat="46.12496" lon="2.46935">
        <ele>501</ele>
        <time>2015-04-20T14:55:25Z</time>
      </trkpt>
      <trkpt lat="46.12499" lon="2.46935">
        <ele>501</ele>
        <time>2015-04-20T14:55:27Z</time>
      </trkpt>
      <trkpt lat="46.12502" lon="2.46935">
        <ele>500</ele>
        <time>2015-04-20T14:55:29Z</time>
      </trkpt>
      <trkpt lat="46.12505" lon="2.46935">
        <ele>500</ele>
        <time>2015-04-20T14:55:31Z</time>
      </trkpt>
      <trkpt lat="46.12507" lon="2.46936">
        <ele>500</ele>
        <time>2015-04-20T14:55:33Z</time>
      </trkpt>
      <trkpt lat="46.1251" lon="2.46937">
        <ele>500</ele>
        <time>2015-04-20T14:55:35Z</time>
      </trkpt>
      <trkpt lat="46.12513" lon="2.46938">
        <ele>500</ele>
        <time>2015-04-20T14:55:37Z</time>
      </trkpt>
      <trkpt lat="46.12516" lon="2.46938">
        <ele>500</ele>
        <time>2015-04-20T14:55:39Z</time>
      </trkpt>
      <trkpt lat="46.12519" lon="2.46939">
        <ele>500</ele>
        <time>2015-04-20T14:55:41Z</time>
      </trkpt>
      <trkpt lat="46.12523" lon="2.46939">
        <ele>500</ele>
        <time>2015-04-20T14:55:43Z</time>
      </trkpt>
      <trkpt lat="46.12526" lon="2.46938">
        <ele>500</ele>
        <time>2015-04-20T14:55:45Z</time>
      </trkpt>
      <trkpt lat="46.12529" lon="2.46939">
        <ele>499</ele>
        <time>2015-04-20T14:55:47Z</time>
      </trkpt>
      <trkpt lat="46.12532" lon="2.46939">
        <ele>499</ele>
        <time>2015-04-20T14:55:49Z</time>
      </trkpt>
      <trkpt lat="46.12534" lon="2.46939">
        <ele>499</ele>
        <time>2015-04-20T14:55:51Z</time>
      </trkpt>
      <trkpt lat="46.12537" lon="2.4694">
        <ele>498</ele>
        <time>2015-04-20T14:55:53Z</time>
      </trkpt>
      <trkpt lat="46.1254" lon="2.4694">
        <ele>498</ele>
        <time>2015-04-20T14:55:55Z</time>
      </trkpt>
      <trkpt lat="46.12543" lon="2.4694">
        <ele>498</ele>
        <time>2015-04-20T14:55:57Z</time>
      </trkpt>
      <trkpt lat="46.12546" lon="2.4694">
        <ele>497</ele>
        <time>2015-04-20T14:55:59Z</time>
      </trkpt>
      <trkpt lat="46.12549" lon="2.46941">
        <ele>497</ele>
        <time>2015-04-20T14:56:01Z</time>
      </trkpt>
      <trkpt lat="46.12552" lon="2.46941">
        <ele>497</ele>
        <time>2015-04-20T14:56:03Z</time>
      </trkpt>
      <trkpt lat="46.12555" lon="2.46941">
        <ele>497</ele>
        <time>2015-04-20T14:56:05Z</time>
      </trkpt>
      <trkpt lat="46.12558" lon="2.46942">
        <ele>496</ele>
        <time>2015-04-20T14:56:07Z</time>
      </trkpt>
      <trkpt lat="46.12561" lon="2.46943">
        <ele>496</ele>
        <time>2015-04-20T14:56:09Z</time>
      </trkpt>
      <trkpt lat="46.12564" lon="2.46943">
        <ele>496</ele>
        <time>2015-04-20T14:56:11Z</time>
      </trkpt>
      <trkpt lat="46.12567" lon="2.46943">
        <ele>496</ele>
        <time>2015-04-20T14:56:13Z</time>
      </trkpt>
      <trkpt lat="46.12571" lon="2.46944">
        <ele>496</ele>
        <time>2015-04-20T14:56:15Z</time>
      </trkpt>
      <trkpt lat="46.12573" lon="2.46944">
        <ele>495</ele>
        <time>2015-04-20T14:56:17Z</time>
      </trkpt>
      <trkpt lat="46.12576" lon="2.46944">
        <ele>495</ele>
        <time>2015-04-20T14:56:19Z</time>
      </trkpt>
      <trkpt lat="46.1258" lon="2.46945">
        <ele>495</ele>
        <time>2015-04-20T14:56:21Z</time>
      </trkpt>
      <trkpt lat="46.12583" lon="2.46946">
        <ele>495</ele>
        <time>2015-04-20T14:56:23Z</time>
      </trkpt>
      <trkpt lat="46.12586" lon="2.46946">
        <ele>495</ele>
        <time>2015-04-20T14:56:25Z</time>
      </trkpt>
      <trkpt lat="46.12589" lon="2.46947">
        <ele>495</ele>
        <time>2015-04-20T14:56:27Z</time>
      </trkpt>
      <trkpt lat="46.12592" lon="2.46947">
        <ele>495</ele>
        <time>2015-04-20T14:56:29Z</time>
      </trkpt>
      <trkpt lat="46.12595" lon="2.46948">
        <ele>495</ele>
        <time>2015-04-20T14:56:31Z</time>
      </trkpt>
      <trkpt lat="46.12598" lon="2.46949">
        <ele>494</ele>
        <time>2015-04-20T14:56:33Z</time>
      </trkpt>
      <trkpt lat="46.12601" lon="2.4695">
        <ele>494</ele>
        <time>2015-04-20T14:56:35Z</time>
      </trkpt>
      <trkpt lat="46.12604" lon="2.46952">
        <ele>494</ele>
        <time>2015-04-20T14:56:37Z</time>
      </trkpt>
      <trkpt lat="46.12607" lon="2.46954">
        <ele>494</ele>
        <time>2015-04-20T14:56:39Z</time>
      </trkpt>
      <trkpt lat="46.12609" lon="2.46955">
        <ele>494</ele>
        <time>2015-04-20T14:56:41Z</time>
      </trkpt>
      <trkpt lat="46.12612" lon="2.46956">
        <ele>494</ele>
        <time>2015-04-20T14:56:43Z</time>
      </trkpt>
      <trkpt lat="46.12615" lon="2.46958">
        <ele>494</ele>
        <time>2015-04-20T14:56:45Z</time>
      </trkpt>
      <trkpt lat="46.12617" lon="2.46959">
        <ele>494</ele>
        <time>2015-04-20T14:56:47Z</time>
      </trkpt>
      <trkpt lat="46.12621" lon="2.46961">
        <ele>494</ele>
        <time>2015-04-20T14:56:49Z</time>
      </trkpt>
      <trkpt lat="46.12624" lon="2.46963">
        <ele>494</ele>
        <time>2015-04-20T14:56:51Z</time>
      </trkpt>
      <trkpt lat="46.12627" lon="2.46964">
        <ele>494</ele>
        <time>2015-04-20T14:56:53Z</time>
      </trkpt>
      <trkpt lat="46.1263" lon="2.46965">
        <ele>494</ele>
        <time>2015-04-20T14:56:55Z</time>
      </trkpt>
      <trkpt lat="46.12633" lon="2.46966">
        <ele>494</ele>
        <time>2015-04-20T14:56:57Z</time>
      </trkpt>
      <trkpt lat="46.12636" lon="2.46968">
        <ele>494</ele>
        <time>2015-04-20T14:56:59Z</time>
      </trkpt>
      <trkpt lat="46.12639" lon="2.46968">
        <ele>494</ele>
        <time>2015-04-20T14:57:01Z</time>
      </trkpt>
      <trkpt lat="46.12642" lon="2.46969">
        <ele>494</ele>
        <time>2015-04-20T14:57:03Z</time>
      </trkpt>
      <trkpt lat="46.12646" lon="2.46971">
        <ele>494</ele>
        <time>2015-04-20T14:57:05Z</time>
      </trkpt>
      <trkpt lat="46.12648" lon="2.46972">
        <ele>494</ele>
        <time>2015-04-20T14:57:07Z</time>
      </trkpt>
      <trkpt lat="46.12651" lon="2.46973">
        <ele>494</ele>
        <time>2015-04-20T14:57:09Z</time>
      </trkpt>
      <trkpt lat="46.12654" lon="2.46975">
        <ele>494</ele>
        <time>2015-04-20T14:57:11Z</time>
      </trkpt>
      <trkpt lat="46.12657" lon="2.46977">
        <ele>494</ele>
        <time>2015-04-20T14:57:13Z</time>
      </trkpt>
      <trkpt lat="46.1266" lon="2.46978">
        <ele>494</ele>
        <time>2015-04-20T14:57:15Z</time>
      </trkpt>
      <trkpt lat="46.12663" lon="2.4698">
        <ele>494</ele>
        <time>2015-04-20T14:57:17Z</time>
      </trkpt>
      <trkpt lat="46.12666" lon="2.46981">
        <ele>494</ele>
        <time>2015-04-20T14:57:19Z</time>
      </trkpt>
      <trkpt lat="46.12667" lon="2.46983">
        <ele>494</ele>
        <time>2015-04-20T14:57:21Z</time>
      </trkpt>
      <trkpt lat="46.1267" lon="2.46985">
        <ele>494</ele>
        <time>2015-04-20T14:57:23Z</time>
      </trkpt>
      <trkpt lat="46.12673" lon="2.46986">
        <ele>494</ele>
        <time>2015-04-20T14:57:25Z</time>
      </trkpt>
      <trkpt lat="46.12675" lon="2.46987">
        <ele>494</ele>
        <time>2015-04-20T14:57:27Z</time>
      </trkpt>
      <trkpt lat="46.12678" lon="2.46989">
        <ele>494</ele>
        <time>2015-04-20T14:57:29Z</time>
      </trkpt>
      <trkpt lat="46.1268" lon="2.46989">
        <ele>494</ele>
        <time>2015-04-20T14:57:31Z</time>
      </trkpt>
      <trkpt lat="46.12683" lon="2.4699">
        <ele>494</ele>
        <time>2015-04-20T14:57:33Z</time>
      </trkpt>
      <trkpt lat="46.12686" lon="2.46992">
        <ele>494</ele>
        <time>2015-04-20T14:57:35Z</time>
      </trkpt>
      <trkpt lat="46.12689" lon="2.46993">
        <ele>494</ele>
        <time>2015-04-20T14:57:37Z</time>
      </trkpt>
      <trkpt lat="46.12691" lon="2.46993">
        <ele>492</ele>
        <time>2015-04-20T14:57:39Z</time>
      </trkpt>
      <trkpt lat="46.12694" lon="2.46994">
        <ele>492</ele>
        <time>2015-04-20T14:57:41Z</time>
      </trkpt>
      <trkpt lat="46.12698" lon="2.46996">
        <ele>491</ele>
        <time>2015-04-20T14:57:43Z</time>
      </trkpt>
      <trkpt lat="46.12701" lon="2.46998">
        <ele>490</ele>
        <time>2015-04-20T14:57:45Z</time>
      </trkpt>
      <trkpt lat="46.12704" lon="2.47">
        <ele>490</ele>
        <time>2015-04-20T14:57:47Z</time>
      </trkpt>
      <trkpt lat="46.12707" lon="2.47002">
        <ele>490</ele>
        <time>2015-04-20T14:57:49Z</time>
      </trkpt>
      <trkpt lat="46.1271" lon="2.47003">
        <ele>490</ele>
        <time>2015-04-20T14:57:51Z</time>
      </trkpt>
      <trkpt lat="46.12713" lon="2.47005">
        <ele>490</ele>
        <time>2015-04-20T14:57:53Z</time>
      </trkpt>
      <trkpt lat="46.12716" lon="2.47006">
        <ele>490</ele>
        <time>2015-04-20T14:57:55Z</time>
      </trkpt>
      <trkpt lat="46.1272" lon="2.47008">
        <ele>490</ele>
        <time>2015-04-20T14:57:57Z</time>
      </trkpt>
      <trkpt lat="46.12723" lon="2.4701">
        <ele>490</ele>
        <time>2015-04-20T14:57:59Z</time>
      </trkpt>
      <trkpt lat="46.12726" lon="2.47011">
        <ele>490</ele>
        <time>2015-04-20T14:58:01Z</time>
      </trkpt>
      <trkpt lat="46.12729" lon="2.47014">
        <ele>490</ele>
        <time>2015-04-20T14:58:04Z</time>
      </trkpt>
      <trkpt lat="46.12731" lon="2.47014">
        <ele>490</ele>
        <time>2015-04-20T14:58:06Z</time>
      </trkpt>
      <trkpt lat="46.12734" lon="2.47015">
        <ele>490</ele>
        <time>2015-04-20T14:58:08Z</time>
      </trkpt>
      <trkpt lat="46.12737" lon="2.47016">
        <ele>490</ele>
        <time>2015-04-20T14:58:10Z</time>
      </trkpt>
      <trkpt lat="46.1274" lon="2.47018">
        <ele>490</ele>
        <time>2015-04-20T14:58:12Z</time>
      </trkpt>
      <trkpt lat="46.12743" lon="2.4702">
        <ele>490</ele>
        <time>2015-04-20T14:58:14Z</time>
      </trkpt>
      <trkpt lat="46.12746" lon="2.47021">
        <ele>490</ele>
        <time>2015-04-20T14:58:16Z</time>
      </trkpt>
      <trkpt lat="46.12749" lon="2.47021">
        <ele>490</ele>
        <time>2015-04-20T14:58:18Z</time>
      </trkpt>
      <trkpt lat="46.12752" lon="2.47022">
        <ele>490</ele>
        <time>2015-04-20T14:58:20Z</time>
      </trkpt>
      <trkpt lat="46.12755" lon="2.47024">
        <ele>490</ele>
        <time>2015-04-20T14:58:22Z</time>
      </trkpt>
      <trkpt lat="46.12759" lon="2.47025">
        <ele>490</ele>
        <time>2015-04-20T14:58:24Z</time>
      </trkpt>
      <trkpt lat="46.12761" lon="2.47026">
        <ele>490</ele>
        <time>2015-04-20T14:58:26Z</time>
      </trkpt>
      <trkpt lat="46.12763" lon="2.47026">
        <ele>490</ele>
        <time>2015-04-20T14:58:28Z</time>
      </trkpt>
      <trkpt lat="46.12765" lon="2.47026">
        <ele>490</ele>
        <time>2015-04-20T14:58:30Z</time>
      </trkpt>
      <trkpt lat="46.12767" lon="2.47025">
        <ele>490</ele>
        <time>2015-04-20T14:58:32Z</time>
      </trkpt>
      <trkpt lat="46.1277" lon="2.47026">
        <ele>490</ele>
        <time>2015-04-20T14:58:34Z</time>
      </trkpt>
      <trkpt lat="46.12773" lon="2.47027">
        <ele>490</ele>
        <time>2015-04-20T14:58:36Z</time>
      </trkpt>
      <trkpt lat="46.12776" lon="2.47028">
        <ele>490</ele>
        <time>2015-04-20T14:58:38Z</time>
      </trkpt>
      <trkpt lat="46.12779" lon="2.47028">
        <ele>490</ele>
        <time>2015-04-20T14:58:40Z</time>
      </trkpt>
      <trkpt lat="46.12782" lon="2.47029">
        <ele>490</ele>
        <time>2015-04-20T14:58:42Z</time>
      </trkpt>
      <trkpt lat="46.12785" lon="2.4703">
        <ele>490</ele>
        <time>2015-04-20T14:58:44Z</time>
      </trkpt>
      <trkpt lat="46.12788" lon="2.47031">
        <ele>490</ele>
        <time>2015-04-20T14:58:46Z</time>
      </trkpt>
      <trkpt lat="46.12791" lon="2.47032">
        <ele>490</ele>
        <time>2015-04-20T14:58:48Z</time>
      </trkpt>
      <trkpt lat="46.12793" lon="2.47032">
        <ele>490</ele>
        <time>2015-04-20T14:58:50Z</time>
      </trkpt>
      <trkpt lat="46.12796" lon="2.47033">
        <ele>490</ele>
        <time>2015-04-20T14:58:52Z</time>
      </trkpt>
      <trkpt lat="46.12799" lon="2.47034">
        <ele>490</ele>
        <time>2015-04-20T14:58:54Z</time>
      </trkpt>
      <trkpt lat="46.12803" lon="2.47035">
        <ele>490</ele>
        <time>2015-04-20T14:58:56Z</time>
      </trkpt>
      <trkpt lat="46.12806" lon="2.47037">
        <ele>490</ele>
        <time>2015-04-20T14:58:58Z</time>
      </trkpt>
      <trkpt lat="46.12809" lon="2.47038">
        <ele>490</ele>
        <time>2015-04-20T14:59:00Z</time>
      </trkpt>
      <trkpt lat="46.12813" lon="2.47039">
        <ele>490</ele>
        <time>2015-04-20T14:59:02Z</time>
      </trkpt>
      <trkpt lat="46.12816" lon="2.4704">
        <ele>490</ele>
        <time>2015-04-20T14:59:04Z</time>
      </trkpt>
      <trkpt lat="46.12818" lon="2.4704">
        <ele>490</ele>
        <time>2015-04-20T14:59:06Z</time>
      </trkpt>
      <trkpt lat="46.12821" lon="2.47041">
        <ele>490</ele>
        <time>2015-04-20T14:59:08Z</time>
      </trkpt>
      <trkpt lat="46.12824" lon="2.47042">
        <ele>490</ele>
        <time>2015-04-20T14:59:10Z</time>
      </trkpt>
      <trkpt lat="46.12827" lon="2.47042">
        <ele>490</ele>
        <time>2015-04-20T14:59:12Z</time>
      </trkpt>
      <trkpt lat="46.1283" lon="2.47043">
        <ele>490</ele>
        <time>2015-04-20T14:59:14Z</time>
      </trkpt>
      <trkpt lat="46.12833" lon="2.47043">
        <ele>490</ele>
        <time>2015-04-20T14:59:16Z</time>
      </trkpt>
      <trkpt lat="46.12835" lon="2.47044">
        <ele>489</ele>
        <time>2015-04-20T14:59:18Z</time>
      </trkpt>
      <trkpt lat="46.12838" lon="2.47044">
        <ele>489</ele>
        <time>2015-04-20T14:59:20Z</time>
      </trkpt>
      <trkpt lat="46.12841" lon="2.47045">
        <ele>489</ele>
        <time>2015-04-20T14:59:22Z</time>
      </trkpt>
      <trkpt lat="46.12844" lon="2.47047">
        <ele>489</ele>
        <time>2015-04-20T14:59:24Z</time>
      </trkpt>
      <trkpt lat="46.12846" lon="2.47047">
        <ele>489</ele>
        <time>2015-04-20T14:59:26Z</time>
      </trkpt>
      <trkpt lat="46.12849" lon="2.47047">
        <ele>489</ele>
        <time>2015-04-20T14:59:28Z</time>
      </trkpt>
      <trkpt lat="46.12852" lon="2.47047">
        <ele>488</ele>
        <time>2015-04-20T14:59:30Z</time>
      </trkpt>
      <trkpt lat="46.12855" lon="2.47047">
        <ele>488</ele>
        <time>2015-04-20T14:59:32Z</time>
      </trkpt>
      <trkpt lat="46.12858" lon="2.47047">
        <ele>488</ele>
        <time>2015-04-20T14:59:34Z</time>
      </trkpt>
      <trkpt lat="46.1286" lon="2.47047">
        <ele>487</ele>
        <time>2015-04-20T14:59:36Z</time>
      </trkpt>
      <trkpt lat="46.12864" lon="2.47047">
        <ele>487</ele>
        <time>2015-04-20T14:59:39Z</time>
      </trkpt>
      <trkpt lat="46.12866" lon="2.47049">
        <ele>487</ele>
        <time>2015-04-20T14:59:41Z</time>
      </trkpt>
      <trkpt lat="46.12869" lon="2.47049">
        <ele>487</ele>
        <time>2015-04-20T14:59:43Z</time>
      </trkpt>
      <trkpt lat="46.12872" lon="2.4705">
        <ele>487</ele>
        <time>2015-04-20T14:59:45Z</time>
      </trkpt>
      <trkpt lat="46.12875" lon="2.4705">
        <ele>487</ele>
        <time>2015-04-20T14:59:47Z</time>
      </trkpt>
      <trkpt lat="46.12878" lon="2.4705">
        <ele>487</ele>
        <time>2015-04-20T14:59:49Z</time>
      </trkpt>
      <trkpt lat="46.1288" lon="2.4705">
        <ele>487</ele>
        <time>2015-04-20T14:59:51Z</time>
      </trkpt>
      <trkpt lat="46.12884" lon="2.4705">
        <ele>487</ele>
        <time>2015-04-20T14:59:53Z</time>
      </trkpt>
      <trkpt lat="46.12887" lon="2.4705">
        <ele>486</ele>
        <time>2015-04-20T14:59:56Z</time>
      </trkpt>
      <trkpt lat="46.1289" lon="2.47049">
        <ele>486</ele>
        <time>2015-04-20T14:59:58Z</time>
      </trkpt>
      <trkpt lat="46.12891" lon="2.4705">
        <ele>486</ele>
        <time>2015-04-20T15:00:00Z</time>
      </trkpt>
      <trkpt lat="46.12894" lon="2.4705">
        <ele>486</ele>
        <time>2015-04-20T15:00:02Z</time>
      </trkpt>
      <trkpt lat="46.12896" lon="2.47051">
        <ele>486</ele>
        <time>2015-04-20T15:00:05Z</time>
      </trkpt>
      <trkpt lat="46.12898" lon="2.47052">
        <ele>486</ele>
        <time>2015-04-20T15:00:07Z</time>
      </trkpt>
      <trkpt lat="46.12901" lon="2.47052">
        <ele>486</ele>
        <time>2015-04-20T15:00:09Z</time>
      </trkpt>
      <trkpt lat="46.12903" lon="2.47051">
        <ele>486</ele>
        <time>2015-04-20T15:00:11Z</time>
      </trkpt>
      <trkpt lat="46.12906" lon="2.47052">
        <ele>486</ele>
        <time>2015-04-20T15:00:13Z</time>
      </trkpt>
      <trkpt lat="46.12909" lon="2.47052">
        <ele>486</ele>
        <time>2015-04-20T15:00:15Z</time>
      </trkpt>
      <trkpt lat="46.12911" lon="2.47051">
        <ele>486</ele>
        <time>2015-04-20T15:00:17Z</time>
      </trkpt>
      <trkpt lat="46.12914" lon="2.47051">
        <ele>485</ele>
        <time>2015-04-20T15:00:19Z</time>
      </trkpt>
      <trkpt lat="46.12917" lon="2.47051">
        <ele>485</ele>
        <time>2015-04-20T15:00:21Z</time>
      </trkpt>
      <trkpt lat="46.12918" lon="2.47051">
        <ele>485</ele>
        <time>2015-04-20T15:00:23Z</time>
      </trkpt>
      <trkpt lat="46.1292" lon="2.47051">
        <ele>485</ele>
        <time>2015-04-20T15:00:25Z</time>
      </trkpt>
      <trkpt lat="46.12923" lon="2.47052">
        <ele>485</ele>
        <time>2015-04-20T15:00:27Z</time>
      </trkpt>
      <trkpt lat="46.12926" lon="2.47053">
        <ele>485</ele>
        <time>2015-04-20T15:00:29Z</time>
      </trkpt>
      <trkpt lat="46.12928" lon="2.47053">
        <ele>485</ele>
        <time>2015-04-20T15:00:31Z</time>
      </trkpt>
      <trkpt lat="46.12931" lon="2.47053">
        <ele>485</ele>
        <time>2015-04-20T15:00:33Z</time>
      </trkpt>
      <trkpt lat="46.12934" lon="2.47053">
        <ele>485</ele>
        <time>2015-04-20T15:00:35Z</time>
      </trkpt>
      <trkpt lat="46.12937" lon="2.47054">
        <ele>485</ele>
        <time>2015-04-20T15:00:37Z</time>
      </trkpt>
      <trkpt lat="46.1294" lon="2.47054">
        <ele>485</ele>
        <time>2015-04-20T15:00:39Z</time>
      </trkpt>
      <trkpt lat="46.12942" lon="2.47053">
        <ele>485</ele>
        <time>2015-04-20T15:00:41Z</time>
      </trkpt>
      <trkpt lat="46.12945" lon="2.47054">
        <ele>485</ele>
        <time>2015-04-20T15:00:43Z</time>
      </trkpt>
      <trkpt lat="46.12948" lon="2.47053">
        <ele>485</ele>
        <time>2015-04-20T15:00:45Z</time>
      </trkpt>
      <trkpt lat="46.1295" lon="2.47052">
        <ele>484</ele>
        <time>2015-04-20T15:00:47Z</time>
      </trkpt>
      <trkpt lat="46.12953" lon="2.47053">
        <ele>484</ele>
        <time>2015-04-20T15:00:49Z</time>
      </trkpt>
      <trkpt lat="46.12955" lon="2.47052">
        <ele>484</ele>
        <time>2015-04-20T15:00:51Z</time>
      </trkpt>
      <trkpt lat="46.12958" lon="2.47053">
        <ele>484</ele>
        <time>2015-04-20T15:00:53Z</time>
      </trkpt>
      <trkpt lat="46.1296" lon="2.47052">
        <ele>483</ele>
        <time>2015-04-20T15:00:55Z</time>
      </trkpt>
      <trkpt lat="46.12961" lon="2.47051">
        <ele>483</ele>
        <time>2015-04-20T15:00:58Z</time>
      </trkpt>
      <trkpt lat="46.12962" lon="2.47052">
        <ele>483</ele>
        <time>2015-04-20T15:01:00Z</time>
      </trkpt>
      <trkpt lat="46.12964" lon="2.47053">
        <ele>483</ele>
        <time>2015-04-20T15:01:02Z</time>
      </trkpt>
      <trkpt lat="46.12967" lon="2.47053">
        <ele>483</ele>
        <time>2015-04-20T15:01:04Z</time>
      </trkpt>
      <trkpt lat="46.12969" lon="2.47052">
        <ele>482</ele>
        <time>2015-04-20T15:01:06Z</time>
      </trkpt>
      <trkpt lat="46.12972" lon="2.47052">
        <ele>482</ele>
        <time>2015-04-20T15:01:08Z</time>
      </trkpt>
      <trkpt lat="46.12974" lon="2.47051">
        <ele>482</ele>
        <time>2015-04-20T15:01:10Z</time>
      </trkpt>
      <trkpt lat="46.12977" lon="2.47051">
        <ele>481</ele>
        <time>2015-04-20T15:01:12Z</time>
      </trkpt>
      <trkpt lat="46.1298" lon="2.4705">
        <ele>481</ele>
        <time>2015-04-20T15:01:14Z</time>
      </trkpt>
      <trkpt lat="46.12983" lon="2.47051">
        <ele>481</ele>
        <time>2015-04-20T15:01:16Z</time>
      </trkpt>
      <trkpt lat="46.12986" lon="2.47051">
        <ele>481</ele>
        <time>2015-04-20T15:01:19Z</time>
      </trkpt>
      <trkpt lat="46.12989" lon="2.47052">
        <ele>481</ele>
        <time>2015-04-20T15:01:21Z</time>
      </trkpt>
      <trkpt lat="46.12992" lon="2.47052">
        <ele>481</ele>
        <time>2015-04-20T15:01:23Z</time>
      </trkpt>
      <trkpt lat="46.12996" lon="2.47054">
        <ele>481</ele>
        <time>2015-04-20T15:01:26Z</time>
      </trkpt>
      <trkpt lat="46.12997" lon="2.47057">
        <ele>481</ele>
        <time>2015-04-20T15:01:28Z</time>
      </trkpt>
      <trkpt lat="46.12999" lon="2.47061">
        <ele>481</ele>
        <time>2015-04-20T15:01:31Z</time>
      </trkpt>
      <trkpt lat="46.12999" lon="2.47064">
        <ele>481</ele>
        <time>2015-04-20T15:01:33Z</time>
      </trkpt>
      <trkpt lat="46.13" lon="2.47067">
        <ele>481</ele>
        <time>2015-04-20T15:01:35Z</time>
      </trkpt>
      <trkpt lat="46.13" lon="2.4707">
        <ele>481</ele>
        <time>2015-04-20T15:01:37Z</time>
      </trkpt>
      <trkpt lat="46.13" lon="2.47072">
        <ele>481</ele>
        <time>2015-04-20T15:01:39Z</time>
      </trkpt>
      <trkpt lat="46.13" lon="2.47074">
        <ele>481</ele>
        <time>2015-04-20T15:01:41Z</time>
      </trkpt>
      <trkpt lat="46.13001" lon="2.47076">
        <ele>481</ele>
        <time>2015-04-20T15:01:43Z</time>
      </trkpt>
      <trkpt lat="46.13001" lon="2.47079">
        <ele>481</ele>
        <time>2015-04-20T15:01:45Z</time>
      </trkpt>
      <trkpt lat="46.13001" lon="2.47082">
        <ele>481</ele>
        <time>2015-04-20T15:01:47Z</time>
      </trkpt>
      <trkpt lat="46.13001" lon="2.47086">
        <ele>481</ele>
        <time>2015-04-20T15:01:49Z</time>
      </trkpt>
      <trkpt lat="46.13001" lon="2.4709">
        <ele>481</ele>
        <time>2015-04-20T15:01:51Z</time>
      </trkpt>
      <trkpt lat="46.13001" lon="2.47093">
        <ele>481</ele>
        <time>2015-04-20T15:01:53Z</time>
      </trkpt>
      <trkpt lat="46.13001" lon="2.47097">
        <ele>481</ele>
        <time>2015-04-20T15:01:55Z</time>
      </trkpt>
      <trkpt lat="46.13001" lon="2.471">
        <ele>481</ele>
        <time>2015-04-20T15:01:57Z</time>
      </trkpt>
      <trkpt lat="46.13" lon="2.47104">
        <ele>481</ele>
        <time>2015-04-20T15:01:59Z</time>
      </trkpt>
      <trkpt lat="46.13" lon="2.47108">
        <ele>481</ele>
        <time>2015-04-20T15:02:01Z</time>
      </trkpt>
      <trkpt lat="46.13" lon="2.47111">
        <ele>481</ele>
        <time>2015-04-20T15:02:03Z</time>
      </trkpt>
      <trkpt lat="46.13" lon="2.47114">
        <ele>481</ele>
        <time>2015-04-20T15:02:05Z</time>
      </trkpt>
      <trkpt lat="46.13" lon="2.47118">
        <ele>481</ele>
        <time>2015-04-20T15:02:07Z</time>
      </trkpt>
      <trkpt lat="46.12999" lon="2.47123">
        <ele>481</ele>
        <time>2015-04-20T15:02:09Z</time>
      </trkpt>
      <trkpt lat="46.13" lon="2.47127">
        <ele>481</ele>
        <time>2015-04-20T15:02:11Z</time>
      </trkpt>
      <trkpt lat="46.13" lon="2.4713">
        <ele>481</ele>
        <time>2015-04-20T15:02:13Z</time>
      </trkpt>
      <trkpt lat="46.13" lon="2.47134">
        <ele>481</ele>
        <time>2015-04-20T15:02:15Z</time>
      </trkpt>
      <trkpt lat="46.13" lon="2.47137">
        <ele>481</ele>
        <time>2015-04-20T15:02:17Z</time>
      </trkpt>
      <trkpt lat="46.13" lon="2.47141">
        <ele>481</ele>
        <time>2015-04-20T15:02:19Z</time>
      </trkpt>
      <trkpt lat="46.13" lon="2.47144">
        <ele>481</ele>
        <time>2015-04-20T15:02:21Z</time>
      </trkpt>
      <trkpt lat="46.13" lon="2.47147">
        <ele>481</ele>
        <time>2015-04-20T15:02:23Z</time>
      </trkpt>
      <trkpt lat="46.13" lon="2.47151">
        <ele>481</ele>
        <time>2015-04-20T15:02:25Z</time>
      </trkpt>
      <trkpt lat="46.13" lon="2.47154">
        <ele>481</ele>
        <time>2015-04-20T15:02:27Z</time>
      </trkpt>
      <trkpt lat="46.13" lon="2.47158">
        <ele>481</ele>
        <time>2015-04-20T15:02:29Z</time>
      </trkpt>
      <trkpt lat="46.13" lon="2.47162">
        <ele>481</ele>
        <time>2015-04-20T15:02:31Z</time>
      </trkpt>
      <trkpt lat="46.13" lon="2.47166">
        <ele>481</ele>
        <time>2015-04-20T15:02:33Z</time>
      </trkpt>
      <trkpt lat="46.13001" lon="2.47169">
        <ele>481</ele>
        <time>2015-04-20T15:02:35Z</time>
      </trkpt>
      <trkpt lat="46.13002" lon="2.47173">
        <ele>481</ele>
        <time>2015-04-20T15:02:37Z</time>
      </trkpt>
      <trkpt lat="46.13002" lon="2.47177">
        <ele>481</ele>
        <time>2015-04-20T15:02:39Z</time>
      </trkpt>
      <trkpt lat="46.13003" lon="2.4718">
        <ele>481</ele>
        <time>2015-04-20T15:02:41Z</time>
      </trkpt>
      <trkpt lat="46.13004" lon="2.47184">
        <ele>481</ele>
        <time>2015-04-20T15:02:43Z</time>
      </trkpt>
      <trkpt lat="46.13004" lon="2.47188">
        <ele>481</ele>
        <time>2015-04-20T15:02:45Z</time>
      </trkpt>
      <trkpt lat="46.13005" lon="2.47191">
        <ele>481</ele>
        <time>2015-04-20T15:02:47Z</time>
      </trkpt>
      <trkpt lat="46.13006" lon="2.47195">
        <ele>481</ele>
        <time>2015-04-20T15:02:49Z</time>
      </trkpt>
      <trkpt lat="46.13007" lon="2.47198">
        <ele>481</ele>
        <time>2015-04-20T15:02:51Z</time>
      </trkpt>
      <trkpt lat="46.13008" lon="2.47202">
        <ele>481</ele>
        <time>2015-04-20T15:02:53Z</time>
      </trkpt>
      <trkpt lat="46.13008" lon="2.47206">
        <ele>481</ele>
        <time>2015-04-20T15:02:55Z</time>
      </trkpt>
      <trkpt lat="46.13009" lon="2.4721">
        <ele>481</ele>
        <time>2015-04-20T15:02:57Z</time>
      </trkpt>
      <trkpt lat="46.1301" lon="2.47214">
        <ele>481</ele>
        <time>2015-04-20T15:02:59Z</time>
      </trkpt>
      <trkpt lat="46.13011" lon="2.47218">
        <ele>481</ele>
        <time>2015-04-20T15:03:01Z</time>
      </trkpt>
      <trkpt lat="46.13012" lon="2.47222">
        <ele>481</ele>
        <time>2015-04-20T15:03:03Z</time>
      </trkpt>
      <trkpt lat="46.13012" lon="2.47226">
        <ele>481</ele>
        <time>2015-04-20T15:03:05Z</time>
      </trkpt>
      <trkpt lat="46.13013" lon="2.4723">
        <ele>481</ele>
        <time>2015-04-20T15:03:07Z</time>
      </trkpt>
      <trkpt lat="46.13013" lon="2.47234">
        <ele>481</ele>
        <time>2015-04-20T15:03:09Z</time>
      </trkpt>
      <trkpt lat="46.13014" lon="2.47239">
        <ele>481</ele>
        <time>2015-04-20T15:03:11Z</time>
      </trkpt>
      <trkpt lat="46.13014" lon="2.47243">
        <ele>481</ele>
        <time>2015-04-20T15:03:13Z</time>
      </trkpt>
      <trkpt lat="46.13015" lon="2.47247">
        <ele>481</ele>
        <time>2015-04-20T15:03:15Z</time>
      </trkpt>
      <trkpt lat="46.13015" lon="2.47251">
        <ele>481</ele>
        <time>2015-04-20T15:03:17Z</time>
      </trkpt>
      <trkpt lat="46.13017" lon="2.47254">
        <ele>481</ele>
        <time>2015-04-20T15:03:19Z</time>
      </trkpt>
      <trkpt lat="46.13017" lon="2.47258">
        <ele>481</ele>
        <time>2015-04-20T15:03:21Z</time>
      </trkpt>
      <trkpt lat="46.13017" lon="2.47262">
        <ele>481</ele>
        <time>2015-04-20T15:03:23Z</time>
      </trkpt>
      <trkpt lat="46.13017" lon="2.47266">
        <ele>481</ele>
        <time>2015-04-20T15:03:25Z</time>
      </trkpt>
      <trkpt lat="46.13017" lon="2.4727">
        <ele>481</ele>
        <time>2015-04-20T15:03:27Z</time>
      </trkpt>
      <trkpt lat="46.13017" lon="2.47274">
        <ele>481</ele>
        <time>2015-04-20T15:03:29Z</time>
      </trkpt>
      <trkpt lat="46.13017" lon="2.47279">
        <ele>481</ele>
        <time>2015-04-20T15:03:31Z</time>
      </trkpt>
      <trkpt lat="46.13018" lon="2.47283">
        <ele>481</ele>
        <time>2015-04-20T15:03:33Z</time>
      </trkpt>
      <trkpt lat="46.13018" lon="2.47287">
        <ele>481</ele>
        <time>2015-04-20T15:03:35Z</time>
      </trkpt>
      <trkpt lat="46.13018" lon="2.4729">
        <ele>481</ele>
        <time>2015-04-20T15:03:37Z</time>
      </trkpt>
      <trkpt lat="46.13018" lon="2.47294">
        <ele>481</ele>
        <time>2015-04-20T15:03:39Z</time>
      </trkpt>
      <trkpt lat="46.13018" lon="2.47298">
        <ele>481</ele>
        <time>2015-04-20T15:03:41Z</time>
      </trkpt>
      <trkpt lat="46.13018" lon="2.47303">
        <ele>481</ele>
        <time>2015-04-20T15:03:43Z</time>
      </trkpt>
      <trkpt lat="46.13018" lon="2.47306">
        <ele>481</ele>
        <time>2015-04-20T15:03:45Z</time>
      </trkpt>
      <trkpt lat="46.13018" lon="2.47311">
        <ele>481</ele>
        <time>2015-04-20T15:03:47Z</time>
      </trkpt>
      <trkpt lat="46.13018" lon="2.47315">
        <ele>481</ele>
        <time>2015-04-20T15:03:49Z</time>
      </trkpt>
      <trkpt lat="46.13018" lon="2.47319">
        <ele>481</ele>
        <time>2015-04-20T15:03:51Z</time>
      </trkpt>
      <trkpt lat="46.13018" lon="2.47323">
        <ele>481</ele>
        <time>2015-04-20T15:03:53Z</time>
      </trkpt>
      <trkpt lat="46.13018" lon="2.47327">
        <ele>481</ele>
        <time>2015-04-20T15:03:55Z</time>
      </trkpt>
      <trkpt lat="46.13018" lon="2.47332">
        <ele>481</ele>
        <time>2015-04-20T15:03:57Z</time>
      </trkpt>
      <trkpt lat="46.13018" lon="2.47337">
        <ele>481</ele>
        <time>2015-04-20T15:03:59Z</time>
      </trkpt>
      <trkpt lat="46.13018" lon="2.47341">
        <ele>481</ele>
        <time>2015-04-20T15:04:01Z</time>
      </trkpt>
      <trkpt lat="46.13019" lon="2.47344">
        <ele>481</ele>
        <time>2015-04-20T15:04:03Z</time>
      </trkpt>
      <trkpt lat="46.13018" lon="2.47348">
        <ele>481</ele>
        <time>2015-04-20T15:04:05Z</time>
      </trkpt>
      <trkpt lat="46.13017" lon="2.47352">
        <ele>481</ele>
        <time>2015-04-20T15:04:07Z</time>
      </trkpt>
      <trkpt lat="46.13017" lon="2.47355">
        <ele>481</ele>
        <time>2015-04-20T15:04:09Z</time>
      </trkpt>
      <trkpt lat="46.13017" lon="2.47359">
        <ele>481</ele>
        <time>2015-04-20T15:04:11Z</time>
      </trkpt>
      <trkpt lat="46.13016" lon="2.47363">
        <ele>481</ele>
        <time>2015-04-20T15:04:13Z</time>
      </trkpt>
      <trkpt lat="46.13015" lon="2.47367">
        <ele>481</ele>
        <time>2015-04-20T15:04:15Z</time>
      </trkpt>
      <trkpt lat="46.13013" lon="2.47371">
        <ele>481</ele>
        <time>2015-04-20T15:04:17Z</time>
      </trkpt>
      <trkpt lat="46.13011" lon="2.47375">
        <ele>481</ele>
        <time>2015-04-20T15:04:20Z</time>
      </trkpt>
      <trkpt lat="46.13009" lon="2.47377">
        <ele>481</ele>
        <time>2015-04-20T15:04:22Z</time>
      </trkpt>
      <trkpt lat="46.13006" lon="2.47378">
        <ele>481</ele>
        <time>2015-04-20T15:04:24Z</time>
      </trkpt>
      <trkpt lat="46.13003" lon="2.47379">
        <ele>481</ele>
        <time>2015-04-20T15:04:26Z</time>
      </trkpt>
      <trkpt lat="46.13001" lon="2.47379">
        <ele>481</ele>
        <time>2015-04-20T15:04:28Z</time>
      </trkpt>
      <trkpt lat="46.12998" lon="2.4738">
        <ele>481</ele>
        <time>2015-04-20T15:04:30Z</time>
      </trkpt>
      <trkpt lat="46.12996" lon="2.47382">
        <ele>481</ele>
        <time>2015-04-20T15:04:32Z</time>
      </trkpt>
      <trkpt lat="46.12993" lon="2.47383">
        <ele>481</ele>
        <time>2015-04-20T15:04:34Z</time>
      </trkpt>
      <trkpt lat="46.12991" lon="2.47384">
        <ele>481</ele>
        <time>2015-04-20T15:04:36Z</time>
      </trkpt>
      <trkpt lat="46.12988" lon="2.47386">
        <ele>481</ele>
        <time>2015-04-20T15:04:38Z</time>
      </trkpt>
      <trkpt lat="46.12985" lon="2.47387">
        <ele>481</ele>
        <time>2015-04-20T15:04:40Z</time>
      </trkpt>
      <trkpt lat="46.12983" lon="2.47389">
        <ele>481</ele>
        <time>2015-04-20T15:04:42Z</time>
      </trkpt>
      <trkpt lat="46.1298" lon="2.47391">
        <ele>481</ele>
        <time>2015-04-20T15:04:44Z</time>
      </trkpt>
      <trkpt lat="46.12978" lon="2.47392">
        <ele>481</ele>
        <time>2015-04-20T15:04:46Z</time>
      </trkpt>
      <trkpt lat="46.12975" lon="2.47394">
        <ele>481</ele>
        <time>2015-04-20T15:04:48Z</time>
      </trkpt>
      <trkpt lat="46.12972" lon="2.47395">
        <ele>481</ele>
        <time>2015-04-20T15:04:50Z</time>
      </trkpt>
      <trkpt lat="46.1297" lon="2.47397">
        <ele>481</ele>
        <time>2015-04-20T15:04:52Z</time>
      </trkpt>
      <trkpt lat="46.12967" lon="2.47398">
        <ele>481</ele>
        <time>2015-04-20T15:04:54Z</time>
      </trkpt>
      <trkpt lat="46.12964" lon="2.474">
        <ele>481</ele>
        <time>2015-04-20T15:04:56Z</time>
      </trkpt>
      <trkpt lat="46.12962" lon="2.47401">
        <ele>481</ele>
        <time>2015-04-20T15:04:58Z</time>
      </trkpt>
      <trkpt lat="46.12959" lon="2.47403">
        <ele>481</ele>
        <time>2015-04-20T15:05:00Z</time>
      </trkpt>
      <trkpt lat="46.12957" lon="2.47405">
        <ele>481</ele>
        <time>2015-04-20T15:05:02Z</time>
      </trkpt>
      <trkpt lat="46.12954" lon="2.47407">
        <ele>481</ele>
        <time>2015-04-20T15:05:04Z</time>
      </trkpt>
      <trkpt lat="46.12952" lon="2.47409">
        <ele>481</ele>
        <time>2015-04-20T15:05:06Z</time>
      </trkpt>
      <trkpt lat="46.12949" lon="2.47411">
        <ele>481</ele>
        <time>2015-04-20T15:05:08Z</time>
      </trkpt>
      <trkpt lat="46.12946" lon="2.47413">
        <ele>481</ele>
        <time>2015-04-20T15:05:10Z</time>
      </trkpt>
      <trkpt lat="46.12944" lon="2.47415">
        <ele>481</ele>
        <time>2015-04-20T15:05:12Z</time>
      </trkpt>
      <trkpt lat="46.12941" lon="2.47417">
        <ele>481</ele>
        <time>2015-04-20T15:05:14Z</time>
      </trkpt>
      <trkpt lat="46.12939" lon="2.4742">
        <ele>481</ele>
        <time>2015-04-20T15:05:16Z</time>
      </trkpt>
      <trkpt lat="46.12936" lon="2.47422">
        <ele>481</ele>
        <time>2015-04-20T15:05:18Z</time>
      </trkpt>
      <trkpt lat="46.12934" lon="2.47424">
        <ele>481</ele>
        <time>2015-04-20T15:05:20Z</time>
      </trkpt>
      <trkpt lat="46.12931" lon="2.47426">
        <ele>481</ele>
        <time>2015-04-20T15:05:22Z</time>
      </trkpt>
      <trkpt lat="46.12929" lon="2.47428">
        <ele>481</ele>
        <time>2015-04-20T15:05:24Z</time>
      </trkpt>
      <trkpt lat="46.12926" lon="2.47431">
        <ele>481</ele>
        <time>2015-04-20T15:05:26Z</time>
      </trkpt>
      <trkpt lat="46.12924" lon="2.47433">
        <ele>481</ele>
        <time>2015-04-20T15:05:28Z</time>
      </trkpt>
      <trkpt lat="46.12921" lon="2.47435">
        <ele>482</ele>
        <time>2015-04-20T15:05:30Z</time>
      </trkpt>
      <trkpt lat="46.12919" lon="2.47437">
        <ele>482</ele>
        <time>2015-04-20T15:05:32Z</time>
      </trkpt>
      <trkpt lat="46.12916" lon="2.47439">
        <ele>482</ele>
        <time>2015-04-20T15:05:34Z</time>
      </trkpt>
      <trkpt lat="46.12914" lon="2.47441">
        <ele>482</ele>
        <time>2015-04-20T15:05:36Z</time>
      </trkpt>
      <trkpt lat="46.12912" lon="2.47443">
        <ele>483</ele>
        <time>2015-04-20T15:05:38Z</time>
      </trkpt>
      <trkpt lat="46.12909" lon="2.47444">
        <ele>483</ele>
        <time>2015-04-20T15:05:40Z</time>
      </trkpt>
      <trkpt lat="46.12907" lon="2.47447">
        <ele>483</ele>
        <time>2015-04-20T15:05:42Z</time>
      </trkpt>
      <trkpt lat="46.12904" lon="2.47449">
        <ele>483</ele>
        <time>2015-04-20T15:05:44Z</time>
      </trkpt>
      <trkpt lat="46.12902" lon="2.47451">
        <ele>483</ele>
        <time>2015-04-20T15:05:46Z</time>
      </trkpt>
      <trkpt lat="46.12899" lon="2.47455">
        <ele>483</ele>
        <time>2015-04-20T15:05:49Z</time>
      </trkpt>
      <trkpt lat="46.12897" lon="2.47458">
        <ele>484</ele>
        <time>2015-04-20T15:05:51Z</time>
      </trkpt>
      <trkpt lat="46.12895" lon="2.47461">
        <ele>484</ele>
        <time>2015-04-20T15:05:53Z</time>
      </trkpt>
      <trkpt lat="46.12894" lon="2.47465">
        <ele>484</ele>
        <time>2015-04-20T15:05:55Z</time>
      </trkpt>
      <trkpt lat="46.12892" lon="2.47468">
        <ele>484</ele>
        <time>2015-04-20T15:05:57Z</time>
      </trkpt>
      <trkpt lat="46.1289" lon="2.47471">
        <ele>484</ele>
        <time>2015-04-20T15:05:59Z</time>
      </trkpt>
      <trkpt lat="46.12888" lon="2.47474">
        <ele>484</ele>
        <time>2015-04-20T15:06:01Z</time>
      </trkpt>
      <trkpt lat="46.12886" lon="2.47478">
        <ele>484</ele>
        <time>2015-04-20T15:06:03Z</time>
      </trkpt>
      <trkpt lat="46.12885" lon="2.47481">
        <ele>484</ele>
        <time>2015-04-20T15:06:05Z</time>
      </trkpt>
      <trkpt lat="46.12883" lon="2.47484">
        <ele>484</ele>
        <time>2015-04-20T15:06:07Z</time>
      </trkpt>
      <trkpt lat="46.12881" lon="2.47488">
        <ele>484</ele>
        <time>2015-04-20T15:06:09Z</time>
      </trkpt>
      <trkpt lat="46.1288" lon="2.47492">
        <ele>484</ele>
        <time>2015-04-20T15:06:11Z</time>
      </trkpt>
      <trkpt lat="46.12878" lon="2.47495">
        <ele>484</ele>
        <time>2015-04-20T15:06:13Z</time>
      </trkpt>
      <trkpt lat="46.12877" lon="2.47498">
        <ele>484</ele>
        <time>2015-04-20T15:06:15Z</time>
      </trkpt>
      <trkpt lat="46.12875" lon="2.47501">
        <ele>484</ele>
        <time>2015-04-20T15:06:17Z</time>
      </trkpt>
      <trkpt lat="46.12874" lon="2.47505">
        <ele>485</ele>
        <time>2015-04-20T15:06:19Z</time>
      </trkpt>
      <trkpt lat="46.12872" lon="2.47508">
        <ele>485</ele>
        <time>2015-04-20T15:06:21Z</time>
      </trkpt>
      <trkpt lat="46.12871" lon="2.47511">
        <ele>485</ele>
        <time>2015-04-20T15:06:23Z</time>
      </trkpt>
      <trkpt lat="46.12869" lon="2.47515">
        <ele>485</ele>
        <time>2015-04-20T15:06:25Z</time>
      </trkpt>
      <trkpt lat="46.12868" lon="2.47518">
        <ele>485</ele>
        <time>2015-04-20T15:06:27Z</time>
      </trkpt>
      <trkpt lat="46.12866" lon="2.47522">
        <ele>486</ele>
        <time>2015-04-20T15:06:29Z</time>
      </trkpt>
      <trkpt lat="46.12865" lon="2.47525">
        <ele>486</ele>
        <time>2015-04-20T15:06:31Z</time>
      </trkpt>
      <trkpt lat="46.12863" lon="2.47529">
        <ele>486</ele>
        <time>2015-04-20T15:06:33Z</time>
      </trkpt>
      <trkpt lat="46.12862" lon="2.47532">
        <ele>486</ele>
        <time>2015-04-20T15:06:35Z</time>
      </trkpt>
      <trkpt lat="46.1286" lon="2.47535">
        <ele>486</ele>
        <time>2015-04-20T15:06:37Z</time>
      </trkpt>
      <trkpt lat="46.12859" lon="2.47539">
        <ele>486</ele>
        <time>2015-04-20T15:06:39Z</time>
      </trkpt>
      <trkpt lat="46.12857" lon="2.47542">
        <ele>487</ele>
        <time>2015-04-20T15:06:41Z</time>
      </trkpt>
      <trkpt lat="46.12856" lon="2.47546">
        <ele>487</ele>
        <time>2015-04-20T15:06:43Z</time>
      </trkpt>
      <trkpt lat="46.12855" lon="2.4755">
        <ele>487</ele>
        <time>2015-04-20T15:06:45Z</time>
      </trkpt>
      <trkpt lat="46.12854" lon="2.47553">
        <ele>487</ele>
        <time>2015-04-20T15:06:47Z</time>
      </trkpt>
      <trkpt lat="46.12853" lon="2.47556">
        <ele>487</ele>
        <time>2015-04-20T15:06:49Z</time>
      </trkpt>
      <trkpt lat="46.12852" lon="2.4756">
        <ele>487</ele>
        <time>2015-04-20T15:06:51Z</time>
      </trkpt>
      <trkpt lat="46.12851" lon="2.47564">
        <ele>487</ele>
        <time>2015-04-20T15:06:53Z</time>
      </trkpt>
      <trkpt lat="46.1285" lon="2.47568">
        <ele>487</ele>
        <time>2015-04-20T15:06:55Z</time>
      </trkpt>
      <trkpt lat="46.12849" lon="2.47571">
        <ele>487</ele>
        <time>2015-04-20T15:06:57Z</time>
      </trkpt>
      <trkpt lat="46.12847" lon="2.47575">
        <ele>487</ele>
        <time>2015-04-20T15:06:59Z</time>
      </trkpt>
      <trkpt lat="46.12846" lon="2.47578">
        <ele>487</ele>
        <time>2015-04-20T15:07:01Z</time>
      </trkpt>
      <trkpt lat="46.12844" lon="2.47582">
        <ele>487</ele>
        <time>2015-04-20T15:07:03Z</time>
      </trkpt>
      <trkpt lat="46.12843" lon="2.47585">
        <ele>487</ele>
        <time>2015-04-20T15:07:05Z</time>
      </trkpt>
      <trkpt lat="46.12842" lon="2.47589">
        <ele>487</ele>
        <time>2015-04-20T15:07:07Z</time>
      </trkpt>
      <trkpt lat="46.12841" lon="2.47592">
        <ele>487</ele>
        <time>2015-04-20T15:07:09Z</time>
      </trkpt>
      <trkpt lat="46.12839" lon="2.47596">
        <ele>488</ele>
        <time>2015-04-20T15:07:11Z</time>
      </trkpt>
      <trkpt lat="46.12838" lon="2.476">
        <ele>488</ele>
        <time>2015-04-20T15:07:13Z</time>
      </trkpt>
      <trkpt lat="46.12837" lon="2.47603">
        <ele>488</ele>
        <time>2015-04-20T15:07:15Z</time>
      </trkpt>
      <trkpt lat="46.12835" lon="2.47606">
        <ele>488</ele>
        <time>2015-04-20T15:07:17Z</time>
      </trkpt>
      <trkpt lat="46.12834" lon="2.4761">
        <ele>488</ele>
        <time>2015-04-20T15:07:19Z</time>
      </trkpt>
      <trkpt lat="46.12833" lon="2.47614">
        <ele>488</ele>
        <time>2015-04-20T15:07:21Z</time>
      </trkpt>
      <trkpt lat="46.12831" lon="2.47617">
        <ele>488</ele>
        <time>2015-04-20T15:07:23Z</time>
      </trkpt>
      <trkpt lat="46.1283" lon="2.47621">
        <ele>488</ele>
        <time>2015-04-20T15:07:25Z</time>
      </trkpt>
      <trkpt lat="46.12829" lon="2.47624">
        <ele>488</ele>
        <time>2015-04-20T15:07:27Z</time>
      </trkpt>
      <trkpt lat="46.12827" lon="2.47628">
        <ele>488</ele>
        <time>2015-04-20T15:07:29Z</time>
      </trkpt>
      <trkpt lat="46.12826" lon="2.47631">
        <ele>488</ele>
        <time>2015-04-20T15:07:31Z</time>
      </trkpt>
      <trkpt lat="46.12825" lon="2.47635">
        <ele>489</ele>
        <time>2015-04-20T15:07:33Z</time>
      </trkpt>
      <trkpt lat="46.12823" lon="2.47638">
        <ele>489</ele>
        <time>2015-04-20T15:07:35Z</time>
      </trkpt>
      <trkpt lat="46.12822" lon="2.47642">
        <ele>489</ele>
        <time>2015-04-20T15:07:37Z</time>
      </trkpt>
      <trkpt lat="46.12821" lon="2.47646">
        <ele>489</ele>
        <time>2015-04-20T15:07:39Z</time>
      </trkpt>
      <trkpt lat="46.1282" lon="2.4765">
        <ele>489</ele>
        <time>2015-04-20T15:07:41Z</time>
      </trkpt>
      <trkpt lat="46.12818" lon="2.47653">
        <ele>490</ele>
        <time>2015-04-20T15:07:43Z</time>
      </trkpt>
      <trkpt lat="46.12817" lon="2.47657">
        <ele>490</ele>
        <time>2015-04-20T15:07:45Z</time>
      </trkpt>
      <trkpt lat="46.12815" lon="2.4766">
        <ele>490</ele>
        <time>2015-04-20T15:07:47Z</time>
      </trkpt>
      <trkpt lat="46.12814" lon="2.47664">
        <ele>490</ele>
        <time>2015-04-20T15:07:49Z</time>
      </trkpt>
      <trkpt lat="46.12813" lon="2.47668">
        <ele>490</ele>
        <time>2015-04-20T15:07:51Z</time>
      </trkpt>
      <trkpt lat="46.12812" lon="2.47671">
        <ele>490</ele>
        <time>2015-04-20T15:07:53Z</time>
      </trkpt>
      <trkpt lat="46.12811" lon="2.47675">
        <ele>490</ele>
        <time>2015-04-20T15:07:55Z</time>
      </trkpt>
      <trkpt lat="46.12809" lon="2.47679">
        <ele>490</ele>
        <time>2015-04-20T15:07:57Z</time>
      </trkpt>
      <trkpt lat="46.12808" lon="2.47682">
        <ele>490</ele>
        <time>2015-04-20T15:07:59Z</time>
      </trkpt>
      <trkpt lat="46.12806" lon="2.47686">
        <ele>491</ele>
        <time>2015-04-20T15:08:01Z</time>
      </trkpt>
      <trkpt lat="46.12805" lon="2.47689">
        <ele>491</ele>
        <time>2015-04-20T15:08:03Z</time>
      </trkpt>
      <trkpt lat="46.12804" lon="2.47693">
        <ele>491</ele>
        <time>2015-04-20T15:08:05Z</time>
      </trkpt>
      <trkpt lat="46.12802" lon="2.47697">
        <ele>491</ele>
        <time>2015-04-20T15:08:07Z</time>
      </trkpt>
      <trkpt lat="46.12801" lon="2.47701">
        <ele>491</ele>
        <time>2015-04-20T15:08:09Z</time>
      </trkpt>
      <trkpt lat="46.128" lon="2.47704">
        <ele>491</ele>
        <time>2015-04-20T15:08:11Z</time>
      </trkpt>
      <trkpt lat="46.12798" lon="2.47708">
        <ele>491</ele>
        <time>2015-04-20T15:08:13Z</time>
      </trkpt>
      <trkpt lat="46.12797" lon="2.47711">
        <ele>491</ele>
        <time>2015-04-20T15:08:15Z</time>
      </trkpt>
      <trkpt lat="46.12796" lon="2.47715">
        <ele>491</ele>
        <time>2015-04-20T15:08:17Z</time>
      </trkpt>
      <trkpt lat="46.12794" lon="2.47719">
        <ele>492</ele>
        <time>2015-04-20T15:08:19Z</time>
      </trkpt>
      <trkpt lat="46.12793" lon="2.47722">
        <ele>492</ele>
        <time>2015-04-20T15:08:21Z</time>
      </trkpt>
      <trkpt lat="46.12791" lon="2.47726">
        <ele>492</ele>
        <time>2015-04-20T15:08:23Z</time>
      </trkpt>
      <trkpt lat="46.1279" lon="2.4773">
        <ele>492</ele>
        <time>2015-04-20T15:08:25Z</time>
      </trkpt>
      <trkpt lat="46.12789" lon="2.47734">
        <ele>492</ele>
        <time>2015-04-20T15:08:27Z</time>
      </trkpt>
      <trkpt lat="46.12787" lon="2.47738">
        <ele>492</ele>
        <time>2015-04-20T15:08:29Z</time>
      </trkpt>
      <trkpt lat="46.12786" lon="2.47741">
        <ele>492</ele>
        <time>2015-04-20T15:08:31Z</time>
      </trkpt>
      <trkpt lat="46.12785" lon="2.47744">
        <ele>492</ele>
        <time>2015-04-20T15:08:33Z</time>
      </trkpt>
      <trkpt lat="46.12783" lon="2.47748">
        <ele>492</ele>
        <time>2015-04-20T15:08:35Z</time>
      </trkpt>
      <trkpt lat="46.12782" lon="2.47752">
        <ele>492</ele>
        <time>2015-04-20T15:08:37Z</time>
      </trkpt>
      <trkpt lat="46.1278" lon="2.47755">
        <ele>492</ele>
        <time>2015-04-20T15:08:39Z</time>
      </trkpt>
      <trkpt lat="46.12778" lon="2.47758">
        <ele>493</ele>
        <time>2015-04-20T15:08:41Z</time>
      </trkpt>
      <trkpt lat="46.12776" lon="2.47761">
        <ele>493</ele>
        <time>2015-04-20T15:08:43Z</time>
      </trkpt>
      <trkpt lat="46.12773" lon="2.47763">
        <ele>493</ele>
        <time>2015-04-20T15:08:45Z</time>
      </trkpt>
      <trkpt lat="46.12771" lon="2.47764">
        <ele>493</ele>
        <time>2015-04-20T15:08:47Z</time>
      </trkpt>
      <trkpt lat="46.12768" lon="2.47764">
        <ele>493</ele>
        <time>2015-04-20T15:08:49Z</time>
      </trkpt>
      <trkpt lat="46.12765" lon="2.47764">
        <ele>493</ele>
        <time>2015-04-20T15:08:51Z</time>
      </trkpt>
      <trkpt lat="46.12762" lon="2.47764">
        <ele>493</ele>
        <time>2015-04-20T15:08:53Z</time>
      </trkpt>
      <trkpt lat="46.12759" lon="2.47763">
        <ele>493</ele>
        <time>2015-04-20T15:08:55Z</time>
      </trkpt>
      <trkpt lat="46.12757" lon="2.47763">
        <ele>493</ele>
        <time>2015-04-20T15:08:57Z</time>
      </trkpt>
      <trkpt lat="46.12754" lon="2.47762">
        <ele>493</ele>
        <time>2015-04-20T15:08:59Z</time>
      </trkpt>
      <trkpt lat="46.12752" lon="2.47761">
        <ele>493</ele>
        <time>2015-04-20T15:09:01Z</time>
      </trkpt>
      <trkpt lat="46.12749" lon="2.4776">
        <ele>493</ele>
        <time>2015-04-20T15:09:03Z</time>
      </trkpt>
      <trkpt lat="46.12746" lon="2.47759">
        <ele>493</ele>
        <time>2015-04-20T15:09:05Z</time>
      </trkpt>
      <trkpt lat="46.12744" lon="2.47758">
        <ele>493</ele>
        <time>2015-04-20T15:09:07Z</time>
      </trkpt>
      <trkpt lat="46.12741" lon="2.47757">
        <ele>493</ele>
        <time>2015-04-20T15:09:09Z</time>
      </trkpt>
      <trkpt lat="46.12738" lon="2.47757">
        <ele>493</ele>
        <time>2015-04-20T15:09:11Z</time>
      </trkpt>
      <trkpt lat="46.12736" lon="2.47755">
        <ele>493</ele>
        <time>2015-04-20T15:09:13Z</time>
      </trkpt>
      <trkpt lat="46.12733" lon="2.47754">
        <ele>493</ele>
        <time>2015-04-20T15:09:15Z</time>
      </trkpt>
      <trkpt lat="46.1273" lon="2.47753">
        <ele>493</ele>
        <time>2015-04-20T15:09:17Z</time>
      </trkpt>
      <trkpt lat="46.12728" lon="2.47752">
        <ele>493</ele>
        <time>2015-04-20T15:09:19Z</time>
      </trkpt>
      <trkpt lat="46.12725" lon="2.47751">
        <ele>493</ele>
        <time>2015-04-20T15:09:21Z</time>
      </trkpt>
      <trkpt lat="46.12721" lon="2.47749">
        <ele>493</ele>
        <time>2015-04-20T15:09:24Z</time>
      </trkpt>
      <trkpt lat="46.12719" lon="2.47748">
        <ele>493</ele>
        <time>2015-04-20T15:09:26Z</time>
      </trkpt>
      <trkpt lat="46.12714" lon="2.47747">
        <ele>493</ele>
        <time>2015-04-20T15:09:29Z</time>
      </trkpt>
      <trkpt lat="46.12712" lon="2.47746">
        <ele>493</ele>
        <time>2015-04-20T15:09:31Z</time>
      </trkpt>
      <trkpt lat="46.12709" lon="2.47745">
        <ele>493</ele>
        <time>2015-04-20T15:09:33Z</time>
      </trkpt>
      <trkpt lat="46.12706" lon="2.47744">
        <ele>493</ele>
        <time>2015-04-20T15:09:35Z</time>
      </trkpt>
      <trkpt lat="46.12703" lon="2.47743">
        <ele>493</ele>
        <time>2015-04-20T15:09:37Z</time>
      </trkpt>
      <trkpt lat="46.127" lon="2.47742">
        <ele>493</ele>
        <time>2015-04-20T15:09:40Z</time>
      </trkpt>
      <trkpt lat="46.12697" lon="2.4774">
        <ele>493</ele>
        <time>2015-04-20T15:09:42Z</time>
      </trkpt>
      <trkpt lat="46.12693" lon="2.47738">
        <ele>493</ele>
        <time>2015-04-20T15:09:45Z</time>
      </trkpt>
      <trkpt lat="46.1269" lon="2.47737">
        <ele>493</ele>
        <time>2015-04-20T15:09:47Z</time>
      </trkpt>
      <trkpt lat="46.12687" lon="2.47736">
        <ele>493</ele>
        <time>2015-04-20T15:09:49Z</time>
      </trkpt>
      <trkpt lat="46.12685" lon="2.47734">
        <ele>493</ele>
        <time>2015-04-20T15:09:51Z</time>
      </trkpt>
      <trkpt lat="46.12682" lon="2.47733">
        <ele>493</ele>
        <time>2015-04-20T15:09:53Z</time>
      </trkpt>
      <trkpt lat="46.1268" lon="2.47732">
        <ele>493</ele>
        <time>2015-04-20T15:09:55Z</time>
      </trkpt>
      <trkpt lat="46.12676" lon="2.4773">
        <ele>493</ele>
        <time>2015-04-20T15:09:58Z</time>
      </trkpt>
      <trkpt lat="46.12673" lon="2.47728">
        <ele>493</ele>
        <time>2015-04-20T15:10:00Z</time>
      </trkpt>
      <trkpt lat="46.12671" lon="2.47727">
        <ele>493</ele>
        <time>2015-04-20T15:10:02Z</time>
      </trkpt>
      <trkpt lat="46.12669" lon="2.47726">
        <ele>493</ele>
        <time>2015-04-20T15:10:04Z</time>
      </trkpt>
      <trkpt lat="46.12666" lon="2.47723">
        <ele>494</ele>
        <time>2015-04-20T15:10:06Z</time>
      </trkpt>
      <trkpt lat="46.12663" lon="2.47721">
        <ele>494</ele>
        <time>2015-04-20T15:10:09Z</time>
      </trkpt>
      <trkpt lat="46.12659" lon="2.47719">
        <ele>494</ele>
        <time>2015-04-20T15:10:12Z</time>
      </trkpt>
      <trkpt lat="46.12656" lon="2.47717">
        <ele>494</ele>
        <time>2015-04-20T15:10:14Z</time>
      </trkpt>
      <trkpt lat="46.12653" lon="2.47714">
        <ele>494</ele>
        <time>2015-04-20T15:10:17Z</time>
      </trkpt>
      <trkpt lat="46.12651" lon="2.47712">
        <ele>494</ele>
        <time>2015-04-20T15:10:19Z</time>
      </trkpt>
      <trkpt lat="46.12648" lon="2.4771">
        <ele>494</ele>
        <time>2015-04-20T15:10:22Z</time>
      </trkpt>
      <trkpt lat="46.12645" lon="2.47709">
        <ele>494</ele>
        <time>2015-04-20T15:10:24Z</time>
      </trkpt>
      <trkpt lat="46.12642" lon="2.47709">
        <ele>494</ele>
        <time>2015-04-20T15:10:26Z</time>
      </trkpt>
      <trkpt lat="46.12639" lon="2.47709">
        <ele>494</ele>
        <time>2015-04-20T15:10:28Z</time>
      </trkpt>
      <trkpt lat="46.12636" lon="2.4771">
        <ele>494</ele>
        <time>2015-04-20T15:10:30Z</time>
      </trkpt>
      <trkpt lat="46.12632" lon="2.47711">
        <ele>495</ele>
        <time>2015-04-20T15:10:33Z</time>
      </trkpt>
      <trkpt lat="46.12629" lon="2.47713">
        <ele>495</ele>
        <time>2015-04-20T15:10:35Z</time>
      </trkpt>
      <trkpt lat="46.12624" lon="2.47716">
        <ele>496</ele>
        <time>2015-04-20T15:10:38Z</time>
      </trkpt>
      <trkpt lat="46.12622" lon="2.47718">
        <ele>497</ele>
        <time>2015-04-20T15:10:40Z</time>
      </trkpt>
      <trkpt lat="46.12618" lon="2.47722">
        <ele>498</ele>
        <time>2015-04-20T15:10:43Z</time>
      </trkpt>
      <trkpt lat="46.12616" lon="2.47723">
        <ele>498</ele>
        <time>2015-04-20T15:10:45Z</time>
      </trkpt>
      <trkpt lat="46.12612" lon="2.47726">
        <ele>498</ele>
        <time>2015-04-20T15:10:48Z</time>
      </trkpt>
      <trkpt lat="46.12609" lon="2.47729">
        <ele>498</ele>
        <time>2015-04-20T15:10:50Z</time>
      </trkpt>
      <trkpt lat="46.12606" lon="2.47732">
        <ele>498</ele>
        <time>2015-04-20T15:10:53Z</time>
      </trkpt>
      <trkpt lat="46.12602" lon="2.47736">
        <ele>498</ele>
        <time>2015-04-20T15:10:56Z</time>
      </trkpt>
      <trkpt lat="46.12599" lon="2.47739">
        <ele>498</ele>
        <time>2015-04-20T15:10:59Z</time>
      </trkpt>
      <trkpt lat="46.12596" lon="2.47741">
        <ele>498</ele>
        <time>2015-04-20T15:11:01Z</time>
      </trkpt>
      <trkpt lat="46.12592" lon="2.47746">
        <ele>499</ele>
        <time>2015-04-20T15:11:05Z</time>
      </trkpt>
      <trkpt lat="46.1259" lon="2.47749">
        <ele>499</ele>
        <time>2015-04-20T15:11:07Z</time>
      </trkpt>
      <trkpt lat="46.12586" lon="2.47752">
        <ele>499</ele>
        <time>2015-04-20T15:11:10Z</time>
      </trkpt>
      <trkpt lat="46.12584" lon="2.47754">
        <ele>499</ele>
        <time>2015-04-20T15:11:12Z</time>
      </trkpt>
      <trkpt lat="46.1258" lon="2.47759">
        <ele>499</ele>
        <time>2015-04-20T15:11:16Z</time>
      </trkpt>
      <trkpt lat="46.12577" lon="2.47761">
        <ele>499</ele>
        <time>2015-04-20T15:11:18Z</time>
      </trkpt>
      <trkpt lat="46.12575" lon="2.47763">
        <ele>499</ele>
        <time>2015-04-20T15:11:20Z</time>
      </trkpt>
      <trkpt lat="46.12572" lon="2.47765">
        <ele>499</ele>
        <time>2015-04-20T15:11:22Z</time>
      </trkpt>
      <trkpt lat="46.12569" lon="2.47768">
        <ele>500</ele>
        <time>2015-04-20T15:11:25Z</time>
      </trkpt>
      <trkpt lat="46.12566" lon="2.4777">
        <ele>500</ele>
        <time>2015-04-20T15:11:27Z</time>
      </trkpt>
      <trkpt lat="46.12562" lon="2.47774">
        <ele>500</ele>
        <time>2015-04-20T15:11:30Z</time>
      </trkpt>
      <trkpt lat="46.1256" lon="2.47776">
        <ele>500</ele>
        <time>2015-04-20T15:11:32Z</time>
      </trkpt>
      <trkpt lat="46.12556" lon="2.47778">
        <ele>500</ele>
        <time>2015-04-20T15:11:35Z</time>
      </trkpt>
      <trkpt lat="46.12553" lon="2.47779">
        <ele>500</ele>
        <time>2015-04-20T15:11:37Z</time>
      </trkpt>
      <trkpt lat="46.12549" lon="2.47782">
        <ele>500</ele>
        <time>2015-04-20T15:11:40Z</time>
      </trkpt>
      <trkpt lat="46.12546" lon="2.47784">
        <ele>500</ele>
        <time>2015-04-20T15:11:42Z</time>
      </trkpt>
      <trkpt lat="46.12543" lon="2.47788">
        <ele>500</ele>
        <time>2015-04-20T15:11:45Z</time>
      </trkpt>
      <trkpt lat="46.12542" lon="2.47792">
        <ele>500</ele>
        <time>2015-04-20T15:11:47Z</time>
      </trkpt>
      <trkpt lat="46.12542" lon="2.47798">
        <ele>500</ele>
        <time>2015-04-20T15:11:50Z</time>
      </trkpt>
      <trkpt lat="46.12543" lon="2.47802">
        <ele>500</ele>
        <time>2015-04-20T15:11:52Z</time>
      </trkpt>
      <trkpt lat="46.12545" lon="2.47809">
        <ele>500</ele>
        <time>2015-04-20T15:11:55Z</time>
      </trkpt>
      <trkpt lat="46.12546" lon="2.47813">
        <ele>500</ele>
        <time>2015-04-20T15:11:57Z</time>
      </trkpt>
      <trkpt lat="46.12548" lon="2.47818">
        <ele>500</ele>
        <time>2015-04-20T15:12:00Z</time>
      </trkpt>
      <trkpt lat="46.1255" lon="2.47822">
        <ele>500</ele>
        <time>2015-04-20T15:12:02Z</time>
      </trkpt>
      <trkpt lat="46.12551" lon="2.47828">
        <ele>500</ele>
        <time>2015-04-20T15:12:05Z</time>
      </trkpt>
      <trkpt lat="46.12551" lon="2.47832">
        <ele>500</ele>
        <time>2015-04-20T15:12:07Z</time>
      </trkpt>
      <trkpt lat="46.12551" lon="2.47839">
        <ele>500</ele>
        <time>2015-04-20T15:12:10Z</time>
      </trkpt>
      <trkpt lat="46.1255" lon="2.47842">
        <ele>500</ele>
        <time>2015-04-20T15:12:12Z</time>
      </trkpt>
      <trkpt lat="46.12547" lon="2.47848">
        <ele>500</ele>
        <time>2015-04-20T15:12:15Z</time>
      </trkpt>
      <trkpt lat="46.12545" lon="2.47851">
        <ele>500</ele>
        <time>2015-04-20T15:12:17Z</time>
      </trkpt>
      <trkpt lat="46.12542" lon="2.47856">
        <ele>500</ele>
        <time>2015-04-20T15:12:20Z</time>
      </trkpt>
      <trkpt lat="46.1254" lon="2.47859">
        <ele>500</ele>
        <time>2015-04-20T15:12:22Z</time>
      </trkpt>
      <trkpt lat="46.12537" lon="2.47864">
        <ele>500</ele>
        <time>2015-04-20T15:12:25Z</time>
      </trkpt>
      <trkpt lat="46.12535" lon="2.47867">
        <ele>500</ele>
        <time>2015-04-20T15:12:27Z</time>
      </trkpt>
      <trkpt lat="46.12532" lon="2.47873">
        <ele>500</ele>
        <time>2015-04-20T15:12:30Z</time>
      </trkpt>
      <trkpt lat="46.12529" lon="2.47877">
        <ele>500</ele>
        <time>2015-04-20T15:12:33Z</time>
      </trkpt>
      <trkpt lat="46.12527" lon="2.47881">
        <ele>500</ele>
        <time>2015-04-20T15:12:35Z</time>
      </trkpt>
      <trkpt lat="46.12526" lon="2.47884">
        <ele>500</ele>
        <time>2015-04-20T15:12:37Z</time>
      </trkpt>
      <trkpt lat="46.12524" lon="2.47887">
        <ele>500</ele>
        <time>2015-04-20T15:12:39Z</time>
      </trkpt>
      <trkpt lat="46.12523" lon="2.47891">
        <ele>500</ele>
        <time>2015-04-20T15:12:41Z</time>
      </trkpt>
      <trkpt lat="46.12521" lon="2.47895">
        <ele>500</ele>
        <time>2015-04-20T15:12:43Z</time>
      </trkpt>
      <trkpt lat="46.12518" lon="2.47899">
        <ele>500</ele>
        <time>2015-04-20T15:12:46Z</time>
      </trkpt>
      <trkpt lat="46.12516" lon="2.47903">
        <ele>500</ele>
        <time>2015-04-20T15:12:48Z</time>
      </trkpt>
      <trkpt lat="46.12514" lon="2.47906">
        <ele>500</ele>
        <time>2015-04-20T15:12:50Z</time>
      </trkpt>
      <trkpt lat="46.12512" lon="2.4791">
        <ele>500</ele>
        <time>2015-04-20T15:12:52Z</time>
      </trkpt>
      <trkpt lat="46.1251" lon="2.47914">
        <ele>500</ele>
        <time>2015-04-20T15:12:54Z</time>
      </trkpt>
      <trkpt lat="46.12509" lon="2.47919">
        <ele>500</ele>
        <time>2015-04-20T15:12:56Z</time>
      </trkpt>
      <trkpt lat="46.12508" lon="2.47923">
        <ele>500</ele>
        <time>2015-04-20T15:12:58Z</time>
      </trkpt>
      <trkpt lat="46.12507" lon="2.4793">
        <ele>501</ele>
        <time>2015-04-20T15:13:01Z</time>
      </trkpt>
      <trkpt lat="46.12507" lon="2.47934">
        <ele>501</ele>
        <time>2015-04-20T15:13:03Z</time>
      </trkpt>
      <trkpt lat="46.12508" lon="2.47938">
        <ele>501</ele>
        <time>2015-04-20T15:13:05Z</time>
      </trkpt>
      <trkpt lat="46.12508" lon="2.47942">
        <ele>501</ele>
        <time>2015-04-20T15:13:07Z</time>
      </trkpt>
      <trkpt lat="46.12509" lon="2.47946">
        <ele>501</ele>
        <time>2015-04-20T15:13:09Z</time>
      </trkpt>
      <trkpt lat="46.12512" lon="2.4795">
        <ele>501</ele>
        <time>2015-04-20T15:13:12Z</time>
      </trkpt>
      <trkpt lat="46.12514" lon="2.47955">
        <ele>501</ele>
        <time>2015-04-20T15:13:15Z</time>
      </trkpt>
      <trkpt lat="46.12516" lon="2.47959">
        <ele>501</ele>
        <time>2015-04-20T15:13:17Z</time>
      </trkpt>
      <trkpt lat="46.12519" lon="2.47963">
        <ele>501</ele>
        <time>2015-04-20T15:13:20Z</time>
      </trkpt>
      <trkpt lat="46.1252" lon="2.47967">
        <ele>501</ele>
        <time>2015-04-20T15:13:22Z</time>
      </trkpt>
      <trkpt lat="46.12521" lon="2.4797">
        <ele>500</ele>
        <time>2015-04-20T15:13:24Z</time>
      </trkpt>
      <trkpt lat="46.12521" lon="2.47974">
        <ele>499</ele>
        <time>2015-04-20T15:13:26Z</time>
      </trkpt>
      <trkpt lat="46.12521" lon="2.47978">
        <ele>499</ele>
        <time>2015-04-20T15:13:28Z</time>
      </trkpt>
      <trkpt lat="46.12521" lon="2.47982">
        <ele>498</ele>
        <time>2015-04-20T15:13:30Z</time>
      </trkpt>
      <trkpt lat="46.12521" lon="2.47986">
        <ele>498</ele>
        <time>2015-04-20T15:13:32Z</time>
      </trkpt>
      <trkpt lat="46.12521" lon="2.4799">
        <ele>497</ele>
        <time>2015-04-20T15:13:34Z</time>
      </trkpt>
      <trkpt lat="46.1252" lon="2.47993">
        <ele>497</ele>
        <time>2015-04-20T15:13:36Z</time>
      </trkpt>
      <trkpt lat="46.12518" lon="2.47997">
        <ele>497</ele>
        <time>2015-04-20T15:13:38Z</time>
      </trkpt>
      <trkpt lat="46.12518" lon="2.48001">
        <ele>496</ele>
        <time>2015-04-20T15:13:40Z</time>
      </trkpt>
      <trkpt lat="46.12516" lon="2.48004">
        <ele>496</ele>
        <time>2015-04-20T15:13:42Z</time>
      </trkpt>
      <trkpt lat="46.12515" lon="2.48008">
        <ele>496</ele>
        <time>2015-04-20T15:13:44Z</time>
      </trkpt>
      <trkpt lat="46.12514" lon="2.48012">
        <ele>496</ele>
        <time>2015-04-20T15:13:46Z</time>
      </trkpt>
      <trkpt lat="46.12513" lon="2.48016">
        <ele>496</ele>
        <time>2015-04-20T15:13:48Z</time>
      </trkpt>
      <trkpt lat="46.12512" lon="2.4802">
        <ele>496</ele>
        <time>2015-04-20T15:13:50Z</time>
      </trkpt>
      <trkpt lat="46.12511" lon="2.48024">
        <ele>496</ele>
        <time>2015-04-20T15:13:52Z</time>
      </trkpt>
      <trkpt lat="46.12511" lon="2.48028">
        <ele>495</ele>
        <time>2015-04-20T15:13:54Z</time>
      </trkpt>
      <trkpt lat="46.12511" lon="2.48032">
        <ele>495</ele>
        <time>2015-04-20T15:13:56Z</time>
      </trkpt>
      <trkpt lat="46.12511" lon="2.48036">
        <ele>495</ele>
        <time>2015-04-20T15:13:58Z</time>
      </trkpt>
      <trkpt lat="46.12511" lon="2.4804">
        <ele>495</ele>
        <time>2015-04-20T15:14:00Z</time>
      </trkpt>
      <trkpt lat="46.12511" lon="2.48043">
        <ele>494</ele>
        <time>2015-04-20T15:14:02Z</time>
      </trkpt>
      <trkpt lat="46.12511" lon="2.48047">
        <ele>494</ele>
        <time>2015-04-20T15:14:04Z</time>
      </trkpt>
      <trkpt lat="46.12511" lon="2.48051">
        <ele>494</ele>
        <time>2015-04-20T15:14:06Z</time>
      </trkpt>
      <trkpt lat="46.12512" lon="2.48055">
        <ele>494</ele>
        <time>2015-04-20T15:14:08Z</time>
      </trkpt>
      <trkpt lat="46.12513" lon="2.48059">
        <ele>494</ele>
        <time>2015-04-20T15:14:10Z</time>
      </trkpt>
      <trkpt lat="46.12513" lon="2.48062">
        <ele>494</ele>
        <time>2015-04-20T15:14:12Z</time>
      </trkpt>
      <trkpt lat="46.12513" lon="2.48066">
        <ele>493</ele>
        <time>2015-04-20T15:14:14Z</time>
      </trkpt>
      <trkpt lat="46.12513" lon="2.48071">
        <ele>493</ele>
        <time>2015-04-20T15:14:16Z</time>
      </trkpt>
      <trkpt lat="46.12513" lon="2.48076">
        <ele>493</ele>
        <time>2015-04-20T15:14:18Z</time>
      </trkpt>
      <trkpt lat="46.12513" lon="2.48081">
        <ele>493</ele>
        <time>2015-04-20T15:14:20Z</time>
      </trkpt>
      <trkpt lat="46.12514" lon="2.48084">
        <ele>493</ele>
        <time>2015-04-20T15:14:22Z</time>
      </trkpt>
      <trkpt lat="46.12514" lon="2.48089">
        <ele>493</ele>
        <time>2015-04-20T15:14:24Z</time>
      </trkpt>
      <trkpt lat="46.12515" lon="2.48093">
        <ele>493</ele>
        <time>2015-04-20T15:14:26Z</time>
      </trkpt>
      <trkpt lat="46.12515" lon="2.48097">
        <ele>493</ele>
        <time>2015-04-20T15:14:28Z</time>
      </trkpt>
      <trkpt lat="46.12516" lon="2.481">
        <ele>493</ele>
        <time>2015-04-20T15:14:30Z</time>
      </trkpt>
      <trkpt lat="46.12516" lon="2.48104">
        <ele>493</ele>
        <time>2015-04-20T15:14:32Z</time>
      </trkpt>
      <trkpt lat="46.12516" lon="2.48108">
        <ele>493</ele>
        <time>2015-04-20T15:14:34Z</time>
      </trkpt>
      <trkpt lat="46.12517" lon="2.48112">
        <ele>493</ele>
        <time>2015-04-20T15:14:36Z</time>
      </trkpt>
      <trkpt lat="46.12517" lon="2.48116">
        <ele>493</ele>
        <time>2015-04-20T15:14:38Z</time>
      </trkpt>
      <trkpt lat="46.12518" lon="2.4812">
        <ele>493</ele>
        <time>2015-04-20T15:14:40Z</time>
      </trkpt>
      <trkpt lat="46.12518" lon="2.48124">
        <ele>493</ele>
        <time>2015-04-20T15:14:42Z</time>
      </trkpt>
      <trkpt lat="46.12518" lon="2.48129">
        <ele>493</ele>
        <time>2015-04-20T15:14:44Z</time>
      </trkpt>
      <trkpt lat="46.12518" lon="2.48132">
        <ele>493</ele>
        <time>2015-04-20T15:14:46Z</time>
      </trkpt>
      <trkpt lat="46.12518" lon="2.48136">
        <ele>493</ele>
        <time>2015-04-20T15:14:48Z</time>
      </trkpt>
      <trkpt lat="46.12518" lon="2.48139">
        <ele>493</ele>
        <time>2015-04-20T15:14:50Z</time>
      </trkpt>
      <trkpt lat="46.12518" lon="2.48144">
        <ele>493</ele>
        <time>2015-04-20T15:14:52Z</time>
      </trkpt>
      <trkpt lat="46.12518" lon="2.48147">
        <ele>493</ele>
        <time>2015-04-20T15:14:54Z</time>
      </trkpt>
      <trkpt lat="46.12518" lon="2.48151">
        <ele>493</ele>
        <time>2015-04-20T15:14:56Z</time>
      </trkpt>
      <trkpt lat="46.12519" lon="2.48154">
        <ele>493</ele>
        <time>2015-04-20T15:14:58Z</time>
      </trkpt>
      <trkpt lat="46.12519" lon="2.48158">
        <ele>493</ele>
        <time>2015-04-20T15:15:00Z</time>
      </trkpt>
      <trkpt lat="46.1252" lon="2.48161">
        <ele>492</ele>
        <time>2015-04-20T15:15:02Z</time>
      </trkpt>
      <trkpt lat="46.1252" lon="2.48165">
        <ele>492</ele>
        <time>2015-04-20T15:15:04Z</time>
      </trkpt>
      <trkpt lat="46.1252" lon="2.48169">
        <ele>491</ele>
        <time>2015-04-20T15:15:06Z</time>
      </trkpt>
      <trkpt lat="46.12521" lon="2.48172">
        <ele>491</ele>
        <time>2015-04-20T15:15:08Z</time>
      </trkpt>
      <trkpt lat="46.12521" lon="2.48176">
        <ele>491</ele>
        <time>2015-04-20T15:15:10Z</time>
      </trkpt>
      <trkpt lat="46.12521" lon="2.4818">
        <ele>491</ele>
        <time>2015-04-20T15:15:12Z</time>
      </trkpt>
      <trkpt lat="46.12522" lon="2.48183">
        <ele>491</ele>
        <time>2015-04-20T15:15:14Z</time>
      </trkpt>
      <trkpt lat="46.12522" lon="2.48187">
        <ele>491</ele>
        <time>2015-04-20T15:15:16Z</time>
      </trkpt>
      <trkpt lat="46.12523" lon="2.4819">
        <ele>491</ele>
        <time>2015-04-20T15:15:18Z</time>
      </trkpt>
      <trkpt lat="46.12523" lon="2.48195">
        <ele>491</ele>
        <time>2015-04-20T15:15:20Z</time>
      </trkpt>
      <trkpt lat="46.12524" lon="2.48198">
        <ele>491</ele>
        <time>2015-04-20T15:15:22Z</time>
      </trkpt>
      <trkpt lat="46.12525" lon="2.48202">
        <ele>491</ele>
        <time>2015-04-20T15:15:24Z</time>
      </trkpt>
      <trkpt lat="46.12526" lon="2.48205">
        <ele>491</ele>
        <time>2015-04-20T15:15:26Z</time>
      </trkpt>
      <trkpt lat="46.12528" lon="2.48209">
        <ele>491</ele>
        <time>2015-04-20T15:15:28Z</time>
      </trkpt>
      <trkpt lat="46.12529" lon="2.48212">
        <ele>491</ele>
        <time>2015-04-20T15:15:30Z</time>
      </trkpt>
      <trkpt lat="46.12532" lon="2.48216">
        <ele>491</ele>
        <time>2015-04-20T15:15:33Z</time>
      </trkpt>
      <trkpt lat="46.12534" lon="2.48218">
        <ele>491</ele>
        <time>2015-04-20T15:15:35Z</time>
      </trkpt>
      <trkpt lat="46.12537" lon="2.48221">
        <ele>491</ele>
        <time>2015-04-20T15:15:37Z</time>
      </trkpt>
      <trkpt lat="46.1254" lon="2.48222">
        <ele>491</ele>
        <time>2015-04-20T15:15:39Z</time>
      </trkpt>
      <trkpt lat="46.12542" lon="2.48223">
        <ele>491</ele>
        <time>2015-04-20T15:15:41Z</time>
      </trkpt>
      <trkpt lat="46.12545" lon="2.48224">
        <ele>491</ele>
        <time>2015-04-20T15:15:43Z</time>
      </trkpt>
      <trkpt lat="46.12548" lon="2.48224">
        <ele>491</ele>
        <time>2015-04-20T15:15:45Z</time>
      </trkpt>
      <trkpt lat="46.1255" lon="2.48224">
        <ele>491</ele>
        <time>2015-04-20T15:15:47Z</time>
      </trkpt>
      <trkpt lat="46.12553" lon="2.48225">
        <ele>491</ele>
        <time>2015-04-20T15:15:49Z</time>
      </trkpt>
      <trkpt lat="46.12555" lon="2.48226">
        <ele>491</ele>
        <time>2015-04-20T15:15:51Z</time>
      </trkpt>
      <trkpt lat="46.12558" lon="2.48226">
        <ele>491</ele>
        <time>2015-04-20T15:15:53Z</time>
      </trkpt>
      <trkpt lat="46.12561" lon="2.48226">
        <ele>491</ele>
        <time>2015-04-20T15:15:55Z</time>
      </trkpt>
      <trkpt lat="46.12563" lon="2.48227">
        <ele>491</ele>
        <time>2015-04-20T15:15:57Z</time>
      </trkpt>
      <trkpt lat="46.12566" lon="2.48228">
        <ele>491</ele>
        <time>2015-04-20T15:15:59Z</time>
      </trkpt>
      <trkpt lat="46.12569" lon="2.48228">
        <ele>491</ele>
        <time>2015-04-20T15:16:01Z</time>
      </trkpt>
      <trkpt lat="46.12572" lon="2.48229">
        <ele>491</ele>
        <time>2015-04-20T15:16:03Z</time>
      </trkpt>
      <trkpt lat="46.12574" lon="2.4823">
        <ele>491</ele>
        <time>2015-04-20T15:16:05Z</time>
      </trkpt>
      <trkpt lat="46.12577" lon="2.48231">
        <ele>491</ele>
        <time>2015-04-20T15:16:07Z</time>
      </trkpt>
      <trkpt lat="46.1258" lon="2.48232">
        <ele>492</ele>
        <time>2015-04-20T15:16:09Z</time>
      </trkpt>
      <trkpt lat="46.12583" lon="2.48234">
        <ele>492</ele>
        <time>2015-04-20T15:16:11Z</time>
      </trkpt>
      <trkpt lat="46.12586" lon="2.48235">
        <ele>492</ele>
        <time>2015-04-20T15:16:13Z</time>
      </trkpt>
      <trkpt lat="46.12589" lon="2.48236">
        <ele>493</ele>
        <time>2015-04-20T15:16:15Z</time>
      </trkpt>
      <trkpt lat="46.12591" lon="2.48238">
        <ele>493</ele>
        <time>2015-04-20T15:16:17Z</time>
      </trkpt>
      <trkpt lat="46.12594" lon="2.4824">
        <ele>493</ele>
        <time>2015-04-20T15:16:19Z</time>
      </trkpt>
      <trkpt lat="46.12597" lon="2.48241">
        <ele>493</ele>
        <time>2015-04-20T15:16:21Z</time>
      </trkpt>
      <trkpt lat="46.126" lon="2.48243">
        <ele>493</ele>
        <time>2015-04-20T15:16:23Z</time>
      </trkpt>
      <trkpt lat="46.12603" lon="2.48245">
        <ele>493</ele>
        <time>2015-04-20T15:16:25Z</time>
      </trkpt>
      <trkpt lat="46.12606" lon="2.48246">
        <ele>493</ele>
        <time>2015-04-20T15:16:27Z</time>
      </trkpt>
      <trkpt lat="46.12608" lon="2.48248">
        <ele>493</ele>
        <time>2015-04-20T15:16:29Z</time>
      </trkpt>
      <trkpt lat="46.12611" lon="2.48249">
        <ele>493</ele>
        <time>2015-04-20T15:16:31Z</time>
      </trkpt>
      <trkpt lat="46.12614" lon="2.48251">
        <ele>493</ele>
        <time>2015-04-20T15:16:33Z</time>
      </trkpt>
      <trkpt lat="46.12616" lon="2.48253">
        <ele>493</ele>
        <time>2015-04-20T15:16:35Z</time>
      </trkpt>
      <trkpt lat="46.12619" lon="2.48254">
        <ele>493</ele>
        <time>2015-04-20T15:16:37Z</time>
      </trkpt>
      <trkpt lat="46.12622" lon="2.48256">
        <ele>493</ele>
        <time>2015-04-20T15:16:39Z</time>
      </trkpt>
      <trkpt lat="46.12624" lon="2.48257">
        <ele>493</ele>
        <time>2015-04-20T15:16:41Z</time>
      </trkpt>
      <trkpt lat="46.12627" lon="2.48259">
        <ele>493</ele>
        <time>2015-04-20T15:16:43Z</time>
      </trkpt>
      <trkpt lat="46.1263" lon="2.4826">
        <ele>493</ele>
        <time>2015-04-20T15:16:45Z</time>
      </trkpt>
      <trkpt lat="46.12632" lon="2.48261">
        <ele>493</ele>
        <time>2015-04-20T15:16:47Z</time>
      </trkpt>
      <trkpt lat="46.12635" lon="2.48263">
        <ele>493</ele>
        <time>2015-04-20T15:16:49Z</time>
      </trkpt>
      <trkpt lat="46.12638" lon="2.48264">
        <ele>493</ele>
        <time>2015-04-20T15:16:51Z</time>
      </trkpt>
      <trkpt lat="46.1264" lon="2.48266">
        <ele>493</ele>
        <time>2015-04-20T15:16:53Z</time>
      </trkpt>
      <trkpt lat="46.12643" lon="2.48267">
        <ele>493</ele>
        <time>2015-04-20T15:16:55Z</time>
      </trkpt>
      <trkpt lat="46.12646" lon="2.48268">
        <ele>493</ele>
        <time>2015-04-20T15:16:57Z</time>
      </trkpt>
      <trkpt lat="46.12649" lon="2.48269">
        <ele>493</ele>
        <time>2015-04-20T15:16:59Z</time>
      </trkpt>
      <trkpt lat="46.12651" lon="2.4827">
        <ele>493</ele>
        <time>2015-04-20T15:17:01Z</time>
      </trkpt>
      <trkpt lat="46.12654" lon="2.48271">
        <ele>493</ele>
        <time>2015-04-20T15:17:03Z</time>
      </trkpt>
      <trkpt lat="46.12657" lon="2.48272">
        <ele>493</ele>
        <time>2015-04-20T15:17:05Z</time>
      </trkpt>
      <trkpt lat="46.1266" lon="2.48273">
        <ele>493</ele>
        <time>2015-04-20T15:17:07Z</time>
      </trkpt>
      <trkpt lat="46.12663" lon="2.48274">
        <ele>493</ele>
        <time>2015-04-20T15:17:09Z</time>
      </trkpt>
      <trkpt lat="46.12666" lon="2.48275">
        <ele>493</ele>
        <time>2015-04-20T15:17:11Z</time>
      </trkpt>
      <trkpt lat="46.12668" lon="2.48275">
        <ele>493</ele>
        <time>2015-04-20T15:17:13Z</time>
      </trkpt>
      <trkpt lat="46.12671" lon="2.48276">
        <ele>493</ele>
        <time>2015-04-20T15:17:15Z</time>
      </trkpt>
      <trkpt lat="46.12674" lon="2.48276">
        <ele>493</ele>
        <time>2015-04-20T15:17:17Z</time>
      </trkpt>
      <trkpt lat="46.12677" lon="2.48277">
        <ele>493</ele>
        <time>2015-04-20T15:17:19Z</time>
      </trkpt>
      <trkpt lat="46.1268" lon="2.48277">
        <ele>493</ele>
        <time>2015-04-20T15:17:21Z</time>
      </trkpt>
      <trkpt lat="46.12682" lon="2.48278">
        <ele>493</ele>
        <time>2015-04-20T15:17:23Z</time>
      </trkpt>
      <trkpt lat="46.12685" lon="2.48278">
        <ele>493</ele>
        <time>2015-04-20T15:17:25Z</time>
      </trkpt>
      <trkpt lat="46.12688" lon="2.48278">
        <ele>493</ele>
        <time>2015-04-20T15:17:27Z</time>
      </trkpt>
      <trkpt lat="46.12691" lon="2.48279">
        <ele>493</ele>
        <time>2015-04-20T15:17:29Z</time>
      </trkpt>
      <trkpt lat="46.12694" lon="2.4828">
        <ele>493</ele>
        <time>2015-04-20T15:17:31Z</time>
      </trkpt>
      <trkpt lat="46.12697" lon="2.48281">
        <ele>493</ele>
        <time>2015-04-20T15:17:33Z</time>
      </trkpt>
      <trkpt lat="46.127" lon="2.48281">
        <ele>493</ele>
        <time>2015-04-20T15:17:35Z</time>
      </trkpt>
      <trkpt lat="46.12703" lon="2.48281">
        <ele>493</ele>
        <time>2015-04-20T15:17:37Z</time>
      </trkpt>
      <trkpt lat="46.12706" lon="2.48282">
        <ele>493</ele>
        <time>2015-04-20T15:17:39Z</time>
      </trkpt>
      <trkpt lat="46.12709" lon="2.48282">
        <ele>493</ele>
        <time>2015-04-20T15:17:41Z</time>
      </trkpt>
      <trkpt lat="46.12712" lon="2.48282">
        <ele>493</ele>
        <time>2015-04-20T15:17:43Z</time>
      </trkpt>
      <trkpt lat="46.12715" lon="2.48283">
        <ele>493</ele>
        <time>2015-04-20T15:17:45Z</time>
      </trkpt>
      <trkpt lat="46.12719" lon="2.48283">
        <ele>493</ele>
        <time>2015-04-20T15:17:47Z</time>
      </trkpt>
      <trkpt lat="46.12722" lon="2.48284">
        <ele>493</ele>
        <time>2015-04-20T15:17:49Z</time>
      </trkpt>
      <trkpt lat="46.12725" lon="2.48284">
        <ele>493</ele>
        <time>2015-04-20T15:17:51Z</time>
      </trkpt>
      <trkpt lat="46.12728" lon="2.48285">
        <ele>494</ele>
        <time>2015-04-20T15:17:53Z</time>
      </trkpt>
      <trkpt lat="46.12731" lon="2.48286">
        <ele>494</ele>
        <time>2015-04-20T15:17:55Z</time>
      </trkpt>
      <trkpt lat="46.12735" lon="2.48287">
        <ele>495</ele>
        <time>2015-04-20T15:17:57Z</time>
      </trkpt>
      <trkpt lat="46.12738" lon="2.48287">
        <ele>497</ele>
        <time>2015-04-20T15:17:59Z</time>
      </trkpt>
      <trkpt lat="46.12741" lon="2.48288">
        <ele>497</ele>
        <time>2015-04-20T15:18:01Z</time>
      </trkpt>
      <trkpt lat="46.12744" lon="2.48288">
        <ele>498</ele>
        <time>2015-04-20T15:18:03Z</time>
      </trkpt>
      <trkpt lat="46.12747" lon="2.48289">
        <ele>498</ele>
        <time>2015-04-20T15:18:05Z</time>
      </trkpt>
      <trkpt lat="46.12749" lon="2.48289">
        <ele>499</ele>
        <time>2015-04-20T15:18:07Z</time>
      </trkpt>
      <trkpt lat="46.12753" lon="2.48289">
        <ele>499</ele>
        <time>2015-04-20T15:18:09Z</time>
      </trkpt>
      <trkpt lat="46.12755" lon="2.48289">
        <ele>499</ele>
        <time>2015-04-20T15:18:11Z</time>
      </trkpt>
      <trkpt lat="46.12757" lon="2.48289">
        <ele>499</ele>
        <time>2015-04-20T15:18:13Z</time>
      </trkpt>
      <trkpt lat="46.1276" lon="2.48289">
        <ele>499</ele>
        <time>2015-04-20T15:18:15Z</time>
      </trkpt>
      <trkpt lat="46.12763" lon="2.48289">
        <ele>499</ele>
        <time>2015-04-20T15:18:17Z</time>
      </trkpt>
      <trkpt lat="46.12766" lon="2.48289">
        <ele>499</ele>
        <time>2015-04-20T15:18:19Z</time>
      </trkpt>
      <trkpt lat="46.12769" lon="2.48289">
        <ele>499</ele>
        <time>2015-04-20T15:18:21Z</time>
      </trkpt>
      <trkpt lat="46.12772" lon="2.48289">
        <ele>499</ele>
        <time>2015-04-20T15:18:23Z</time>
      </trkpt>
      <trkpt lat="46.12776" lon="2.4829">
        <ele>499</ele>
        <time>2015-04-20T15:18:25Z</time>
      </trkpt>
      <trkpt lat="46.12779" lon="2.4829">
        <ele>499</ele>
        <time>2015-04-20T15:18:27Z</time>
      </trkpt>
      <trkpt lat="46.12782" lon="2.4829">
        <ele>499</ele>
        <time>2015-04-20T15:18:29Z</time>
      </trkpt>
      <trkpt lat="46.12784" lon="2.4829">
        <ele>499</ele>
        <time>2015-04-20T15:18:31Z</time>
      </trkpt>
      <trkpt lat="46.12787" lon="2.4829">
        <ele>499</ele>
        <time>2015-04-20T15:18:33Z</time>
      </trkpt>
      <trkpt lat="46.1279" lon="2.4829">
        <ele>499</ele>
        <time>2015-04-20T15:18:35Z</time>
      </trkpt>
      <trkpt lat="46.12793" lon="2.4829">
        <ele>499</ele>
        <time>2015-04-20T15:18:37Z</time>
      </trkpt>
      <trkpt lat="46.12796" lon="2.4829">
        <ele>499</ele>
        <time>2015-04-20T15:18:39Z</time>
      </trkpt>
      <trkpt lat="46.12799" lon="2.4829">
        <ele>499</ele>
        <time>2015-04-20T15:18:41Z</time>
      </trkpt>
      <trkpt lat="46.12801" lon="2.48289">
        <ele>499</ele>
        <time>2015-04-20T15:18:43Z</time>
      </trkpt>
      <trkpt lat="46.12804" lon="2.48289">
        <ele>499</ele>
        <time>2015-04-20T15:18:45Z</time>
      </trkpt>
      <trkpt lat="46.12807" lon="2.48289">
        <ele>499</ele>
        <time>2015-04-20T15:18:47Z</time>
      </trkpt>
      <trkpt lat="46.1281" lon="2.4829">
        <ele>499</ele>
        <time>2015-04-20T15:18:49Z</time>
      </trkpt>
      <trkpt lat="46.12813" lon="2.4829">
        <ele>499</ele>
        <time>2015-04-20T15:18:51Z</time>
      </trkpt>
      <trkpt lat="46.12815" lon="2.48289">
        <ele>499</ele>
        <time>2015-04-20T15:18:53Z</time>
      </trkpt>
      <trkpt lat="46.12818" lon="2.48289">
        <ele>499</ele>
        <time>2015-04-20T15:18:55Z</time>
      </trkpt>
      <trkpt lat="46.12821" lon="2.48289">
        <ele>499</ele>
        <time>2015-04-20T15:18:57Z</time>
      </trkpt>
      <trkpt lat="46.12824" lon="2.4829">
        <ele>499</ele>
        <time>2015-04-20T15:18:59Z</time>
      </trkpt>
      <trkpt lat="46.12827" lon="2.4829">
        <ele>499</ele>
        <time>2015-04-20T15:19:01Z</time>
      </trkpt>
      <trkpt lat="46.1283" lon="2.4829">
        <ele>499</ele>
        <time>2015-04-20T15:19:03Z</time>
      </trkpt>
      <trkpt lat="46.12833" lon="2.48289">
        <ele>499</ele>
        <time>2015-04-20T15:19:06Z</time>
      </trkpt>
      <trkpt lat="46.12835" lon="2.48289">
        <ele>499</ele>
        <time>2015-04-20T15:19:08Z</time>
      </trkpt>
      <trkpt lat="46.12838" lon="2.48289">
        <ele>499</ele>
        <time>2015-04-20T15:19:10Z</time>
      </trkpt>
      <trkpt lat="46.12841" lon="2.48289">
        <ele>499</ele>
        <time>2015-04-20T15:19:12Z</time>
      </trkpt>
      <trkpt lat="46.12844" lon="2.48289">
        <ele>499</ele>
        <time>2015-04-20T15:19:14Z</time>
      </trkpt>
      <trkpt lat="46.12848" lon="2.48289">
        <ele>499</ele>
        <time>2015-04-20T15:19:16Z</time>
      </trkpt>
      <trkpt lat="46.12851" lon="2.48289">
        <ele>499</ele>
        <time>2015-04-20T15:19:18Z</time>
      </trkpt>
      <trkpt lat="46.12854" lon="2.48289">
        <ele>499</ele>
        <time>2015-04-20T15:19:20Z</time>
      </trkpt>
      <trkpt lat="46.12857" lon="2.48289">
        <ele>499</ele>
        <time>2015-04-20T15:19:22Z</time>
      </trkpt>
      <trkpt lat="46.1286" lon="2.48289">
        <ele>499</ele>
        <time>2015-04-20T15:19:24Z</time>
      </trkpt>
      <trkpt lat="46.12862" lon="2.48289">
        <ele>499</ele>
        <time>2015-04-20T15:19:26Z</time>
      </trkpt>
      <trkpt lat="46.12865" lon="2.48289">
        <ele>499</ele>
        <time>2015-04-20T15:19:28Z</time>
      </trkpt>
      <trkpt lat="46.12868" lon="2.48289">
        <ele>499</ele>
        <time>2015-04-20T15:19:30Z</time>
      </trkpt>
      <trkpt lat="46.12872" lon="2.48289">
        <ele>499</ele>
        <time>2015-04-20T15:19:32Z</time>
      </trkpt>
      <trkpt lat="46.12874" lon="2.48289">
        <ele>499</ele>
        <time>2015-04-20T15:19:34Z</time>
      </trkpt>
      <trkpt lat="46.12877" lon="2.48288">
        <ele>499</ele>
        <time>2015-04-20T15:19:36Z</time>
      </trkpt>
      <trkpt lat="46.1288" lon="2.48288">
        <ele>499</ele>
        <time>2015-04-20T15:19:38Z</time>
      </trkpt>
      <trkpt lat="46.12883" lon="2.48288">
        <ele>499</ele>
        <time>2015-04-20T15:19:40Z</time>
      </trkpt>
      <trkpt lat="46.12886" lon="2.48288">
        <ele>499</ele>
        <time>2015-04-20T15:19:42Z</time>
      </trkpt>
      <trkpt lat="46.12888" lon="2.48288">
        <ele>499</ele>
        <time>2015-04-20T15:19:44Z</time>
      </trkpt>
      <trkpt lat="46.12891" lon="2.48288">
        <ele>499</ele>
        <time>2015-04-20T15:19:46Z</time>
      </trkpt>
      <trkpt lat="46.12894" lon="2.48288">
        <ele>499</ele>
        <time>2015-04-20T15:19:48Z</time>
      </trkpt>
      <trkpt lat="46.12897" lon="2.48288">
        <ele>499</ele>
        <time>2015-04-20T15:19:50Z</time>
      </trkpt>
      <trkpt lat="46.129" lon="2.48287">
        <ele>499</ele>
        <time>2015-04-20T15:19:52Z</time>
      </trkpt>
      <trkpt lat="46.12903" lon="2.48287">
        <ele>499</ele>
        <time>2015-04-20T15:19:54Z</time>
      </trkpt>
      <trkpt lat="46.12906" lon="2.48287">
        <ele>499</ele>
        <time>2015-04-20T15:19:56Z</time>
      </trkpt>
      <trkpt lat="46.12909" lon="2.48287">
        <ele>499</ele>
        <time>2015-04-20T15:19:58Z</time>
      </trkpt>
      <trkpt lat="46.12912" lon="2.48287">
        <ele>499</ele>
        <time>2015-04-20T15:20:00Z</time>
      </trkpt>
      <trkpt lat="46.12914" lon="2.48287">
        <ele>499</ele>
        <time>2015-04-20T15:20:02Z</time>
      </trkpt>
      <trkpt lat="46.12917" lon="2.48287">
        <ele>499</ele>
        <time>2015-04-20T15:20:04Z</time>
      </trkpt>
      <trkpt lat="46.1292" lon="2.48286">
        <ele>499</ele>
        <time>2015-04-20T15:20:06Z</time>
      </trkpt>
      <trkpt lat="46.12922" lon="2.48286">
        <ele>499</ele>
        <time>2015-04-20T15:20:08Z</time>
      </trkpt>
      <trkpt lat="46.12925" lon="2.48286">
        <ele>499</ele>
        <time>2015-04-20T15:20:10Z</time>
      </trkpt>
      <trkpt lat="46.12928" lon="2.48286">
        <ele>499</ele>
        <time>2015-04-20T15:20:12Z</time>
      </trkpt>
      <trkpt lat="46.12931" lon="2.48285">
        <ele>499</ele>
        <time>2015-04-20T15:20:14Z</time>
      </trkpt>
      <trkpt lat="46.12933" lon="2.48285">
        <ele>499</ele>
        <time>2015-04-20T15:20:16Z</time>
      </trkpt>
      <trkpt lat="46.12936" lon="2.48284">
        <ele>499</ele>
        <time>2015-04-20T15:20:18Z</time>
      </trkpt>
      <trkpt lat="46.12939" lon="2.48284">
        <ele>499</ele>
        <time>2015-04-20T15:20:20Z</time>
      </trkpt>
      <trkpt lat="46.12942" lon="2.48284">
        <ele>499</ele>
        <time>2015-04-20T15:20:22Z</time>
      </trkpt>
      <trkpt lat="46.12945" lon="2.48284">
        <ele>499</ele>
        <time>2015-04-20T15:20:24Z</time>
      </trkpt>
      <trkpt lat="46.12948" lon="2.48284">
        <ele>499</ele>
        <time>2015-04-20T15:20:26Z</time>
      </trkpt>
      <trkpt lat="46.12951" lon="2.48284">
        <ele>499</ele>
        <time>2015-04-20T15:20:28Z</time>
      </trkpt>
      <trkpt lat="46.12953" lon="2.48283">
        <ele>499</ele>
        <time>2015-04-20T15:20:30Z</time>
      </trkpt>
      <trkpt lat="46.12956" lon="2.48283">
        <ele>499</ele>
        <time>2015-04-20T15:20:32Z</time>
      </trkpt>
      <trkpt lat="46.12959" lon="2.48283">
        <ele>499</ele>
        <time>2015-04-20T15:20:34Z</time>
      </trkpt>
      <trkpt lat="46.12962" lon="2.48284">
        <ele>499</ele>
        <time>2015-04-20T15:20:36Z</time>
      </trkpt>
      <trkpt lat="46.12965" lon="2.48284">
        <ele>499</ele>
        <time>2015-04-20T15:20:38Z</time>
      </trkpt>
      <trkpt lat="46.12968" lon="2.48284">
        <ele>499</ele>
        <time>2015-04-20T15:20:40Z</time>
      </trkpt>
      <trkpt lat="46.12971" lon="2.48284">
        <ele>499</ele>
        <time>2015-04-20T15:20:42Z</time>
      </trkpt>
      <trkpt lat="46.12975" lon="2.48284">
        <ele>499</ele>
        <time>2015-04-20T15:20:44Z</time>
      </trkpt>
      <trkpt lat="46.12978" lon="2.48284">
        <ele>499</ele>
        <time>2015-04-20T15:20:46Z</time>
      </trkpt>
      <trkpt lat="46.12981" lon="2.48284">
        <ele>499</ele>
        <time>2015-04-20T15:20:48Z</time>
      </trkpt>
      <trkpt lat="46.12984" lon="2.48284">
        <ele>499</ele>
        <time>2015-04-20T15:20:50Z</time>
      </trkpt>
      <trkpt lat="46.12987" lon="2.48284">
        <ele>499</ele>
        <time>2015-04-20T15:20:52Z</time>
      </trkpt>
      <trkpt lat="46.1299" lon="2.48284">
        <ele>499</ele>
        <time>2015-04-20T15:20:54Z</time>
      </trkpt>
      <trkpt lat="46.12993" lon="2.48284">
        <ele>499</ele>
        <time>2015-04-20T15:20:56Z</time>
      </trkpt>
      <trkpt lat="46.12996" lon="2.48284">
        <ele>499</ele>
        <time>2015-04-20T15:20:58Z</time>
      </trkpt>
      <trkpt lat="46.12999" lon="2.48283">
        <ele>499</ele>
        <time>2015-04-20T15:21:00Z</time>
      </trkpt>
      <trkpt lat="46.13002" lon="2.48283">
        <ele>499</ele>
        <time>2015-04-20T15:21:02Z</time>
      </trkpt>
      <trkpt lat="46.13005" lon="2.48284">
        <ele>499</ele>
        <time>2015-04-20T15:21:04Z</time>
      </trkpt>
      <trkpt lat="46.13007" lon="2.48284">
        <ele>499</ele>
        <time>2015-04-20T15:21:06Z</time>
      </trkpt>
      <trkpt lat="46.1301" lon="2.48284">
        <ele>499</ele>
        <time>2015-04-20T15:21:08Z</time>
      </trkpt>
      <trkpt lat="46.13013" lon="2.48284">
        <ele>499</ele>
        <time>2015-04-20T15:21:10Z</time>
      </trkpt>
      <trkpt lat="46.13017" lon="2.48285">
        <ele>499</ele>
        <time>2015-04-20T15:21:12Z</time>
      </trkpt>
      <trkpt lat="46.1302" lon="2.48285">
        <ele>499</ele>
        <time>2015-04-20T15:21:14Z</time>
      </trkpt>
      <trkpt lat="46.13023" lon="2.48286">
        <ele>499</ele>
        <time>2015-04-20T15:21:16Z</time>
      </trkpt>
      <trkpt lat="46.13026" lon="2.48287">
        <ele>499</ele>
        <time>2015-04-20T15:21:18Z</time>
      </trkpt>
      <trkpt lat="46.13029" lon="2.48287">
        <ele>499</ele>
        <time>2015-04-20T15:21:20Z</time>
      </trkpt>
      <trkpt lat="46.13032" lon="2.48287">
        <ele>499</ele>
        <time>2015-04-20T15:21:22Z</time>
      </trkpt>
      <trkpt lat="46.13035" lon="2.48287">
        <ele>499</ele>
        <time>2015-04-20T15:21:24Z</time>
      </trkpt>
      <trkpt lat="46.13039" lon="2.48288">
        <ele>499</ele>
        <time>2015-04-20T15:21:26Z</time>
      </trkpt>
      <trkpt lat="46.13041" lon="2.48288">
        <ele>499</ele>
        <time>2015-04-20T15:21:28Z</time>
      </trkpt>
      <trkpt lat="46.13044" lon="2.48289">
        <ele>499</ele>
        <time>2015-04-20T15:21:30Z</time>
      </trkpt>
      <trkpt lat="46.13047" lon="2.48289">
        <ele>499</ele>
        <time>2015-04-20T15:21:32Z</time>
      </trkpt>
      <trkpt lat="46.1305" lon="2.4829">
        <ele>499</ele>
        <time>2015-04-20T15:21:34Z</time>
      </trkpt>
      <trkpt lat="46.13054" lon="2.4829">
        <ele>499</ele>
        <time>2015-04-20T15:21:36Z</time>
      </trkpt>
      <trkpt lat="46.13057" lon="2.4829">
        <ele>499</ele>
        <time>2015-04-20T15:21:38Z</time>
      </trkpt>
      <trkpt lat="46.1306" lon="2.48291">
        <ele>499</ele>
        <time>2015-04-20T15:21:40Z</time>
      </trkpt>
      <trkpt lat="46.13064" lon="2.48291">
        <ele>500</ele>
        <time>2015-04-20T15:21:42Z</time>
      </trkpt>
      <trkpt lat="46.13066" lon="2.48292">
        <ele>500</ele>
        <time>2015-04-20T15:21:44Z</time>
      </trkpt>
      <trkpt lat="46.13069" lon="2.48292">
        <ele>500</ele>
        <time>2015-04-20T15:21:46Z</time>
      </trkpt>
      <trkpt lat="46.13072" lon="2.48293">
        <ele>500</ele>
        <time>2015-04-20T15:21:48Z</time>
      </trkpt>
      <trkpt lat="46.13075" lon="2.48293">
        <ele>500</ele>
        <time>2015-04-20T15:21:50Z</time>
      </trkpt>
      <trkpt lat="46.13079" lon="2.48293">
        <ele>500</ele>
        <time>2015-04-20T15:21:52Z</time>
      </trkpt>
      <trkpt lat="46.13081" lon="2.48293">
        <ele>500</ele>
        <time>2015-04-20T15:21:54Z</time>
      </trkpt>
      <trkpt lat="46.13084" lon="2.48293">
        <ele>500</ele>
        <time>2015-04-20T15:21:56Z</time>
      </trkpt>
      <trkpt lat="46.13086" lon="2.48292">
        <ele>500</ele>
        <time>2015-04-20T15:21:58Z</time>
      </trkpt>
      <trkpt lat="46.13089" lon="2.48292">
        <ele>500</ele>
        <time>2015-04-20T15:22:00Z</time>
      </trkpt>
      <trkpt lat="46.13092" lon="2.48291">
        <ele>500</ele>
        <time>2015-04-20T15:22:02Z</time>
      </trkpt>
      <trkpt lat="46.13095" lon="2.4829">
        <ele>500</ele>
        <time>2015-04-20T15:22:04Z</time>
      </trkpt>
      <trkpt lat="46.13098" lon="2.48289">
        <ele>500</ele>
        <time>2015-04-20T15:22:06Z</time>
      </trkpt>
      <trkpt lat="46.13101" lon="2.48288">
        <ele>500</ele>
        <time>2015-04-20T15:22:08Z</time>
      </trkpt>
      <trkpt lat="46.13104" lon="2.48287">
        <ele>500</ele>
        <time>2015-04-20T15:22:10Z</time>
      </trkpt>
      <trkpt lat="46.13106" lon="2.48285">
        <ele>500</ele>
        <time>2015-04-20T15:22:12Z</time>
      </trkpt>
      <trkpt lat="46.13109" lon="2.48283">
        <ele>500</ele>
        <time>2015-04-20T15:22:14Z</time>
      </trkpt>
      <trkpt lat="46.13112" lon="2.48281">
        <ele>500</ele>
        <time>2015-04-20T15:22:16Z</time>
      </trkpt>
      <trkpt lat="46.13115" lon="2.4828">
        <ele>500</ele>
        <time>2015-04-20T15:22:18Z</time>
      </trkpt>
      <trkpt lat="46.13118" lon="2.48278">
        <ele>500</ele>
        <time>2015-04-20T15:22:20Z</time>
      </trkpt>
      <trkpt lat="46.13121" lon="2.48276">
        <ele>500</ele>
        <time>2015-04-20T15:22:22Z</time>
      </trkpt>
      <trkpt lat="46.13123" lon="2.48275">
        <ele>500</ele>
        <time>2015-04-20T15:22:24Z</time>
      </trkpt>
      <trkpt lat="46.13126" lon="2.48273">
        <ele>500</ele>
        <time>2015-04-20T15:22:26Z</time>
      </trkpt>
      <trkpt lat="46.13129" lon="2.48271">
        <ele>500</ele>
        <time>2015-04-20T15:22:28Z</time>
      </trkpt>
      <trkpt lat="46.13132" lon="2.48269">
        <ele>500</ele>
        <time>2015-04-20T15:22:30Z</time>
      </trkpt>
      <trkpt lat="46.13134" lon="2.48267">
        <ele>500</ele>
        <time>2015-04-20T15:22:32Z</time>
      </trkpt>
      <trkpt lat="46.13137" lon="2.48265">
        <ele>500</ele>
        <time>2015-04-20T15:22:34Z</time>
      </trkpt>
      <trkpt lat="46.13139" lon="2.48263">
        <ele>500</ele>
        <time>2015-04-20T15:22:36Z</time>
      </trkpt>
      <trkpt lat="46.13142" lon="2.48261">
        <ele>500</ele>
        <time>2015-04-20T15:22:38Z</time>
      </trkpt>
      <trkpt lat="46.13145" lon="2.48259">
        <ele>500</ele>
        <time>2015-04-20T15:22:41Z</time>
      </trkpt>
      <trkpt lat="46.13148" lon="2.48257">
        <ele>500</ele>
        <time>2015-04-20T15:22:43Z</time>
      </trkpt>
      <trkpt lat="46.13151" lon="2.48256">
        <ele>500</ele>
        <time>2015-04-20T15:22:45Z</time>
      </trkpt>
      <trkpt lat="46.13154" lon="2.48254">
        <ele>500</ele>
        <time>2015-04-20T15:22:47Z</time>
      </trkpt>
      <trkpt lat="46.13157" lon="2.48253">
        <ele>500</ele>
        <time>2015-04-20T15:22:49Z</time>
      </trkpt>
      <trkpt lat="46.1316" lon="2.48251">
        <ele>500</ele>
        <time>2015-04-20T15:22:51Z</time>
      </trkpt>
      <trkpt lat="46.13163" lon="2.4825">
        <ele>500</ele>
        <time>2015-04-20T15:22:53Z</time>
      </trkpt>
      <trkpt lat="46.13165" lon="2.48248">
        <ele>500</ele>
        <time>2015-04-20T15:22:55Z</time>
      </trkpt>
      <trkpt lat="46.13168" lon="2.48247">
        <ele>500</ele>
        <time>2015-04-20T15:22:57Z</time>
      </trkpt>
      <trkpt lat="46.13171" lon="2.48245">
        <ele>500</ele>
        <time>2015-04-20T15:22:59Z</time>
      </trkpt>
      <trkpt lat="46.13174" lon="2.48244">
        <ele>500</ele>
        <time>2015-04-20T15:23:01Z</time>
      </trkpt>
      <trkpt lat="46.13177" lon="2.48243">
        <ele>500</ele>
        <time>2015-04-20T15:23:03Z</time>
      </trkpt>
      <trkpt lat="46.13179" lon="2.48241">
        <ele>500</ele>
        <time>2015-04-20T15:23:05Z</time>
      </trkpt>
      <trkpt lat="46.13182" lon="2.4824">
        <ele>500</ele>
        <time>2015-04-20T15:23:07Z</time>
      </trkpt>
      <trkpt lat="46.13185" lon="2.48239">
        <ele>500</ele>
        <time>2015-04-20T15:23:09Z</time>
      </trkpt>
      <trkpt lat="46.13188" lon="2.48237">
        <ele>500</ele>
        <time>2015-04-20T15:23:11Z</time>
      </trkpt>
      <trkpt lat="46.13191" lon="2.48236">
        <ele>500</ele>
        <time>2015-04-20T15:23:13Z</time>
      </trkpt>
      <trkpt lat="46.13194" lon="2.48235">
        <ele>500</ele>
        <time>2015-04-20T15:23:15Z</time>
      </trkpt>
      <trkpt lat="46.13197" lon="2.48234">
        <ele>500</ele>
        <time>2015-04-20T15:23:17Z</time>
      </trkpt>
      <trkpt lat="46.13199" lon="2.48232">
        <ele>500</ele>
        <time>2015-04-20T15:23:19Z</time>
      </trkpt>
      <trkpt lat="46.13202" lon="2.48231">
        <ele>500</ele>
        <time>2015-04-20T15:23:21Z</time>
      </trkpt>
      <trkpt lat="46.13205" lon="2.4823">
        <ele>500</ele>
        <time>2015-04-20T15:23:23Z</time>
      </trkpt>
      <trkpt lat="46.13208" lon="2.48228">
        <ele>500</ele>
        <time>2015-04-20T15:23:25Z</time>
      </trkpt>
      <trkpt lat="46.13211" lon="2.48226">
        <ele>500</ele>
        <time>2015-04-20T15:23:27Z</time>
      </trkpt>
      <trkpt lat="46.13213" lon="2.48225">
        <ele>500</ele>
        <time>2015-04-20T15:23:29Z</time>
      </trkpt>
      <trkpt lat="46.13216" lon="2.48223">
        <ele>500</ele>
        <time>2015-04-20T15:23:31Z</time>
      </trkpt>
      <trkpt lat="46.13219" lon="2.48222">
        <ele>500</ele>
        <time>2015-04-20T15:23:33Z</time>
      </trkpt>
      <trkpt lat="46.13222" lon="2.4822">
        <ele>500</ele>
        <time>2015-04-20T15:23:35Z</time>
      </trkpt>
      <trkpt lat="46.13224" lon="2.48219">
        <ele>500</ele>
        <time>2015-04-20T15:23:37Z</time>
      </trkpt>
      <trkpt lat="46.13227" lon="2.48217">
        <ele>500</ele>
        <time>2015-04-20T15:23:39Z</time>
      </trkpt>
      <trkpt lat="46.13229" lon="2.48216">
        <ele>500</ele>
        <time>2015-04-20T15:23:41Z</time>
      </trkpt>
      <trkpt lat="46.13232" lon="2.48214">
        <ele>500</ele>
        <time>2015-04-20T15:23:43Z</time>
      </trkpt>
      <trkpt lat="46.13235" lon="2.48213">
        <ele>500</ele>
        <time>2015-04-20T15:23:45Z</time>
      </trkpt>
      <trkpt lat="46.13237" lon="2.48211">
        <ele>500</ele>
        <time>2015-04-20T15:23:47Z</time>
      </trkpt>
      <trkpt lat="46.1324" lon="2.4821">
        <ele>500</ele>
        <time>2015-04-20T15:23:49Z</time>
      </trkpt>
      <trkpt lat="46.13242" lon="2.48208">
        <ele>500</ele>
        <time>2015-04-20T15:23:51Z</time>
      </trkpt>
      <trkpt lat="46.13245" lon="2.48207">
        <ele>500</ele>
        <time>2015-04-20T15:23:53Z</time>
      </trkpt>
      <trkpt lat="46.13248" lon="2.48205">
        <ele>500</ele>
        <time>2015-04-20T15:23:55Z</time>
      </trkpt>
      <trkpt lat="46.1325" lon="2.48203">
        <ele>500</ele>
        <time>2015-04-20T15:23:57Z</time>
      </trkpt>
      <trkpt lat="46.13253" lon="2.48202">
        <ele>500</ele>
        <time>2015-04-20T15:23:59Z</time>
      </trkpt>
      <trkpt lat="46.13255" lon="2.482">
        <ele>500</ele>
        <time>2015-04-20T15:24:01Z</time>
      </trkpt>
      <trkpt lat="46.13258" lon="2.48199">
        <ele>500</ele>
        <time>2015-04-20T15:24:03Z</time>
      </trkpt>
      <trkpt lat="46.13261" lon="2.48198">
        <ele>500</ele>
        <time>2015-04-20T15:24:05Z</time>
      </trkpt>
      <trkpt lat="46.13263" lon="2.48196">
        <ele>500</ele>
        <time>2015-04-20T15:24:07Z</time>
      </trkpt>
      <trkpt lat="46.13266" lon="2.48194">
        <ele>500</ele>
        <time>2015-04-20T15:24:09Z</time>
      </trkpt>
      <trkpt lat="46.13269" lon="2.48193">
        <ele>500</ele>
        <time>2015-04-20T15:24:11Z</time>
      </trkpt>
      <trkpt lat="46.13272" lon="2.48191">
        <ele>500</ele>
        <time>2015-04-20T15:24:13Z</time>
      </trkpt>
      <trkpt lat="46.13274" lon="2.4819">
        <ele>500</ele>
        <time>2015-04-20T15:24:15Z</time>
      </trkpt>
      <trkpt lat="46.13277" lon="2.48188">
        <ele>500</ele>
        <time>2015-04-20T15:24:17Z</time>
      </trkpt>
      <trkpt lat="46.1328" lon="2.48186">
        <ele>500</ele>
        <time>2015-04-20T15:24:19Z</time>
      </trkpt>
      <trkpt lat="46.13282" lon="2.48185">
        <ele>500</ele>
        <time>2015-04-20T15:24:21Z</time>
      </trkpt>
      <trkpt lat="46.13285" lon="2.48183">
        <ele>500</ele>
        <time>2015-04-20T15:24:23Z</time>
      </trkpt>
      <trkpt lat="46.13288" lon="2.48182">
        <ele>500</ele>
        <time>2015-04-20T15:24:25Z</time>
      </trkpt>
      <trkpt lat="46.13291" lon="2.48181">
        <ele>500</ele>
        <time>2015-04-20T15:24:27Z</time>
      </trkpt>
      <trkpt lat="46.13294" lon="2.4818">
        <ele>500</ele>
        <time>2015-04-20T15:24:29Z</time>
      </trkpt>
      <trkpt lat="46.13297" lon="2.48178">
        <ele>500</ele>
        <time>2015-04-20T15:24:31Z</time>
      </trkpt>
      <trkpt lat="46.133" lon="2.48177">
        <ele>500</ele>
        <time>2015-04-20T15:24:33Z</time>
      </trkpt>
      <trkpt lat="46.13303" lon="2.48176">
        <ele>500</ele>
        <time>2015-04-20T15:24:35Z</time>
      </trkpt>
      <trkpt lat="46.13305" lon="2.48175">
        <ele>500</ele>
        <time>2015-04-20T15:24:37Z</time>
      </trkpt>
      <trkpt lat="46.13308" lon="2.48173">
        <ele>500</ele>
        <time>2015-04-20T15:24:39Z</time>
      </trkpt>
      <trkpt lat="46.13311" lon="2.48172">
        <ele>500</ele>
        <time>2015-04-20T15:24:41Z</time>
      </trkpt>
      <trkpt lat="46.13314" lon="2.48171">
        <ele>500</ele>
        <time>2015-04-20T15:24:43Z</time>
      </trkpt>
      <trkpt lat="46.13316" lon="2.4817">
        <ele>500</ele>
        <time>2015-04-20T15:24:45Z</time>
      </trkpt>
      <trkpt lat="46.13319" lon="2.48169">
        <ele>500</ele>
        <time>2015-04-20T15:24:47Z</time>
      </trkpt>
      <trkpt lat="46.13322" lon="2.48168">
        <ele>500</ele>
        <time>2015-04-20T15:24:49Z</time>
      </trkpt>
      <trkpt lat="46.13325" lon="2.48167">
        <ele>500</ele>
        <time>2015-04-20T15:24:51Z</time>
      </trkpt>
      <trkpt lat="46.13328" lon="2.48166">
        <ele>500</ele>
        <time>2015-04-20T15:24:53Z</time>
      </trkpt>
      <trkpt lat="46.1333" lon="2.48166">
        <ele>500</ele>
        <time>2015-04-20T15:24:55Z</time>
      </trkpt>
      <trkpt lat="46.13334" lon="2.48165">
        <ele>500</ele>
        <time>2015-04-20T15:24:57Z</time>
      </trkpt>
      <trkpt lat="46.13336" lon="2.48164">
        <ele>500</ele>
        <time>2015-04-20T15:24:59Z</time>
      </trkpt>
      <trkpt lat="46.13339" lon="2.48163">
        <ele>500</ele>
        <time>2015-04-20T15:25:01Z</time>
      </trkpt>
      <trkpt lat="46.13342" lon="2.48162">
        <ele>500</ele>
        <time>2015-04-20T15:25:03Z</time>
      </trkpt>
      <trkpt lat="46.13345" lon="2.48161">
        <ele>500</ele>
        <time>2015-04-20T15:25:05Z</time>
      </trkpt>
      <trkpt lat="46.13348" lon="2.4816">
        <ele>500</ele>
        <time>2015-04-20T15:25:07Z</time>
      </trkpt>
      <trkpt lat="46.13351" lon="2.48159">
        <ele>500</ele>
        <time>2015-04-20T15:25:09Z</time>
      </trkpt>
      <trkpt lat="46.13353" lon="2.48158">
        <ele>500</ele>
        <time>2015-04-20T15:25:11Z</time>
      </trkpt>
      <trkpt lat="46.13356" lon="2.48157">
        <ele>500</ele>
        <time>2015-04-20T15:25:13Z</time>
      </trkpt>
      <trkpt lat="46.13359" lon="2.48156">
        <ele>500</ele>
        <time>2015-04-20T15:25:15Z</time>
      </trkpt>
      <trkpt lat="46.13362" lon="2.48155">
        <ele>500</ele>
        <time>2015-04-20T15:25:17Z</time>
      </trkpt>
      <trkpt lat="46.13365" lon="2.48154">
        <ele>500</ele>
        <time>2015-04-20T15:25:19Z</time>
      </trkpt>
      <trkpt lat="46.13368" lon="2.48153">
        <ele>500</ele>
        <time>2015-04-20T15:25:21Z</time>
      </trkpt>
      <trkpt lat="46.13371" lon="2.48152">
        <ele>500</ele>
        <time>2015-04-20T15:25:23Z</time>
      </trkpt>
      <trkpt lat="46.13373" lon="2.48151">
        <ele>500</ele>
        <time>2015-04-20T15:25:25Z</time>
      </trkpt>
      <trkpt lat="46.13376" lon="2.4815">
        <ele>500</ele>
        <time>2015-04-20T15:25:27Z</time>
      </trkpt>
      <trkpt lat="46.13379" lon="2.48149">
        <ele>500</ele>
        <time>2015-04-20T15:25:29Z</time>
      </trkpt>
      <trkpt lat="46.13382" lon="2.48148">
        <ele>500</ele>
        <time>2015-04-20T15:25:31Z</time>
      </trkpt>
      <trkpt lat="46.13385" lon="2.48147">
        <ele>500</ele>
        <time>2015-04-20T15:25:33Z</time>
      </trkpt>
      <trkpt lat="46.13387" lon="2.48146">
        <ele>500</ele>
        <time>2015-04-20T15:25:35Z</time>
      </trkpt>
      <trkpt lat="46.1339" lon="2.48145">
        <ele>500</ele>
        <time>2015-04-20T15:25:37Z</time>
      </trkpt>
      <trkpt lat="46.13393" lon="2.48144">
        <ele>500</ele>
        <time>2015-04-20T15:25:39Z</time>
      </trkpt>
      <trkpt lat="46.13396" lon="2.48143">
        <ele>500</ele>
        <time>2015-04-20T15:25:41Z</time>
      </trkpt>
      <trkpt lat="46.13398" lon="2.48142">
        <ele>500</ele>
        <time>2015-04-20T15:25:43Z</time>
      </trkpt>
      <trkpt lat="46.13401" lon="2.48142">
        <ele>500</ele>
        <time>2015-04-20T15:25:45Z</time>
      </trkpt>
      <trkpt lat="46.13404" lon="2.48141">
        <ele>500</ele>
        <time>2015-04-20T15:25:47Z</time>
      </trkpt>
      <trkpt lat="46.13407" lon="2.4814">
        <ele>500</ele>
        <time>2015-04-20T15:25:49Z</time>
      </trkpt>
      <trkpt lat="46.13409" lon="2.48138">
        <ele>500</ele>
        <time>2015-04-20T15:25:51Z</time>
      </trkpt>
      <trkpt lat="46.13412" lon="2.48138">
        <ele>500</ele>
        <time>2015-04-20T15:25:53Z</time>
      </trkpt>
      <trkpt lat="46.13415" lon="2.48137">
        <ele>500</ele>
        <time>2015-04-20T15:25:55Z</time>
      </trkpt>
      <trkpt lat="46.13418" lon="2.48136">
        <ele>500</ele>
        <time>2015-04-20T15:25:57Z</time>
      </trkpt>
      <trkpt lat="46.1342" lon="2.48134">
        <ele>500</ele>
        <time>2015-04-20T15:25:59Z</time>
      </trkpt>
      <trkpt lat="46.13423" lon="2.48133">
        <ele>500</ele>
        <time>2015-04-20T15:26:01Z</time>
      </trkpt>
      <trkpt lat="46.13426" lon="2.48132">
        <ele>500</ele>
        <time>2015-04-20T15:26:03Z</time>
      </trkpt>
      <trkpt lat="46.13429" lon="2.4813">
        <ele>500</ele>
        <time>2015-04-20T15:26:05Z</time>
      </trkpt>
      <trkpt lat="46.13432" lon="2.48129">
        <ele>500</ele>
        <time>2015-04-20T15:26:07Z</time>
      </trkpt>
      <trkpt lat="46.13434" lon="2.48128">
        <ele>500</ele>
        <time>2015-04-20T15:26:09Z</time>
      </trkpt>
      <trkpt lat="46.13437" lon="2.48126">
        <ele>500</ele>
        <time>2015-04-20T15:26:11Z</time>
      </trkpt>
      <trkpt lat="46.1344" lon="2.48125">
        <ele>500</ele>
        <time>2015-04-20T15:26:13Z</time>
      </trkpt>
      <trkpt lat="46.13443" lon="2.48123">
        <ele>500</ele>
        <time>2015-04-20T15:26:15Z</time>
      </trkpt>
      <trkpt lat="46.13445" lon="2.48122">
        <ele>500</ele>
        <time>2015-04-20T15:26:17Z</time>
      </trkpt>
      <trkpt lat="46.13448" lon="2.4812">
        <ele>500</ele>
        <time>2015-04-20T15:26:19Z</time>
      </trkpt>
      <trkpt lat="46.13451" lon="2.48118">
        <ele>500</ele>
        <time>2015-04-20T15:26:21Z</time>
      </trkpt>
      <trkpt lat="46.13454" lon="2.48117">
        <ele>500</ele>
        <time>2015-04-20T15:26:23Z</time>
      </trkpt>
      <trkpt lat="46.13456" lon="2.48115">
        <ele>500</ele>
        <time>2015-04-20T15:26:25Z</time>
      </trkpt>
      <trkpt lat="46.13459" lon="2.48114">
        <ele>500</ele>
        <time>2015-04-20T15:26:27Z</time>
      </trkpt>
      <trkpt lat="46.13462" lon="2.48113">
        <ele>500</ele>
        <time>2015-04-20T15:26:29Z</time>
      </trkpt>
      <trkpt lat="46.13465" lon="2.48111">
        <ele>500</ele>
        <time>2015-04-20T15:26:31Z</time>
      </trkpt>
      <trkpt lat="46.13468" lon="2.4811">
        <ele>500</ele>
        <time>2015-04-20T15:26:33Z</time>
      </trkpt>
      <trkpt lat="46.1347" lon="2.48108">
        <ele>500</ele>
        <time>2015-04-20T15:26:35Z</time>
      </trkpt>
      <trkpt lat="46.13473" lon="2.48106">
        <ele>500</ele>
        <time>2015-04-20T15:26:37Z</time>
      </trkpt>
      <trkpt lat="46.13476" lon="2.48105">
        <ele>500</ele>
        <time>2015-04-20T15:26:39Z</time>
      </trkpt>
      <trkpt lat="46.13479" lon="2.48103">
        <ele>500</ele>
        <time>2015-04-20T15:26:41Z</time>
      </trkpt>
      <trkpt lat="46.13481" lon="2.48102">
        <ele>500</ele>
        <time>2015-04-20T15:26:43Z</time>
      </trkpt>
      <trkpt lat="46.13484" lon="2.481">
        <ele>500</ele>
        <time>2015-04-20T15:26:45Z</time>
      </trkpt>
      <trkpt lat="46.13487" lon="2.48098">
        <ele>500</ele>
        <time>2015-04-20T15:26:47Z</time>
      </trkpt>
      <trkpt lat="46.1349" lon="2.48097">
        <ele>500</ele>
        <time>2015-04-20T15:26:49Z</time>
      </trkpt>
      <trkpt lat="46.13492" lon="2.48095">
        <ele>500</ele>
        <time>2015-04-20T15:26:51Z</time>
      </trkpt>
      <trkpt lat="46.13495" lon="2.48094">
        <ele>500</ele>
        <time>2015-04-20T15:26:53Z</time>
      </trkpt>
      <trkpt lat="46.13498" lon="2.48092">
        <ele>500</ele>
        <time>2015-04-20T15:26:55Z</time>
      </trkpt>
      <trkpt lat="46.135" lon="2.48091">
        <ele>500</ele>
        <time>2015-04-20T15:26:57Z</time>
      </trkpt>
      <trkpt lat="46.13503" lon="2.48089">
        <ele>500</ele>
        <time>2015-04-20T15:26:59Z</time>
      </trkpt>
      <trkpt lat="46.13506" lon="2.48087">
        <ele>500</ele>
        <time>2015-04-20T15:27:01Z</time>
      </trkpt>
      <trkpt lat="46.13509" lon="2.48086">
        <ele>500</ele>
        <time>2015-04-20T15:27:03Z</time>
      </trkpt>
      <trkpt lat="46.13512" lon="2.48085">
        <ele>500</ele>
        <time>2015-04-20T15:27:05Z</time>
      </trkpt>
      <trkpt lat="46.13514" lon="2.48084">
        <ele>500</ele>
        <time>2015-04-20T15:27:07Z</time>
      </trkpt>
      <trkpt lat="46.13517" lon="2.48083">
        <ele>500</ele>
        <time>2015-04-20T15:27:09Z</time>
      </trkpt>
      <trkpt lat="46.1352" lon="2.48082">
        <ele>500</ele>
        <time>2015-04-20T15:27:11Z</time>
      </trkpt>
      <trkpt lat="46.13523" lon="2.4808">
        <ele>500</ele>
        <time>2015-04-20T15:27:13Z</time>
      </trkpt>
      <trkpt lat="46.13525" lon="2.48078">
        <ele>500</ele>
        <time>2015-04-20T15:27:15Z</time>
      </trkpt>
      <trkpt lat="46.13528" lon="2.48077">
        <ele>500</ele>
        <time>2015-04-20T15:27:17Z</time>
      </trkpt>
      <trkpt lat="46.1353" lon="2.48076">
        <ele>500</ele>
        <time>2015-04-20T15:27:19Z</time>
      </trkpt>
      <trkpt lat="46.13533" lon="2.48077">
        <ele>500</ele>
        <time>2015-04-20T15:27:21Z</time>
      </trkpt>
      <trkpt lat="46.13534" lon="2.48079">
        <ele>500</ele>
        <time>2015-04-20T15:27:23Z</time>
      </trkpt>
      <trkpt lat="46.13536" lon="2.48082">
        <ele>500</ele>
        <time>2015-04-20T15:27:25Z</time>
      </trkpt>
      <trkpt lat="46.13537" lon="2.48086">
        <ele>500</ele>
        <time>2015-04-20T15:27:27Z</time>
      </trkpt>
      <trkpt lat="46.13538" lon="2.4809">
        <ele>500</ele>
        <time>2015-04-20T15:27:29Z</time>
      </trkpt>
      <trkpt lat="46.1354" lon="2.48093">
        <ele>500</ele>
        <time>2015-04-20T15:27:31Z</time>
      </trkpt>
      <trkpt lat="46.13542" lon="2.48096">
        <ele>499</ele>
        <time>2015-04-20T15:27:33Z</time>
      </trkpt>
      <trkpt lat="46.13543" lon="2.48099">
        <ele>499</ele>
        <time>2015-04-20T15:27:35Z</time>
      </trkpt>
      <trkpt lat="46.13547" lon="2.48103">
        <ele>498</ele>
        <time>2015-04-20T15:27:38Z</time>
      </trkpt>
      <trkpt lat="46.13549" lon="2.48107">
        <ele>498</ele>
        <time>2015-04-20T15:27:40Z</time>
      </trkpt>
      <trkpt lat="46.1355" lon="2.4811">
        <ele>497</ele>
        <time>2015-04-20T15:27:42Z</time>
      </trkpt>
      <trkpt lat="46.13552" lon="2.48114">
        <ele>497</ele>
        <time>2015-04-20T15:27:45Z</time>
      </trkpt>
      <trkpt lat="46.13553" lon="2.48118">
        <ele>497</ele>
        <time>2015-04-20T15:27:47Z</time>
      </trkpt>
      <trkpt lat="46.13555" lon="2.48122">
        <ele>496</ele>
        <time>2015-04-20T15:27:49Z</time>
      </trkpt>
      <trkpt lat="46.13557" lon="2.48125">
        <ele>496</ele>
        <time>2015-04-20T15:27:51Z</time>
      </trkpt>
      <trkpt lat="46.13558" lon="2.48129">
        <ele>496</ele>
        <time>2015-04-20T15:27:53Z</time>
      </trkpt>
      <trkpt lat="46.1356" lon="2.48132">
        <ele>496</ele>
        <time>2015-04-20T15:27:55Z</time>
      </trkpt>
      <trkpt lat="46.13561" lon="2.48135">
        <ele>495</ele>
        <time>2015-04-20T15:27:57Z</time>
      </trkpt>
      <trkpt lat="46.13562" lon="2.48138">
        <ele>495</ele>
        <time>2015-04-20T15:27:59Z</time>
      </trkpt>
      <trkpt lat="46.13564" lon="2.48142">
        <ele>495</ele>
        <time>2015-04-20T15:28:01Z</time>
      </trkpt>
      <trkpt lat="46.13565" lon="2.48146">
        <ele>495</ele>
        <time>2015-04-20T15:28:03Z</time>
      </trkpt>
      <trkpt lat="46.13567" lon="2.48149">
        <ele>495</ele>
        <time>2015-04-20T15:28:05Z</time>
      </trkpt>
      <trkpt lat="46.13568" lon="2.48154">
        <ele>495</ele>
        <time>2015-04-20T15:28:07Z</time>
      </trkpt>
      <trkpt lat="46.1357" lon="2.48157">
        <ele>495</ele>
        <time>2015-04-20T15:28:09Z</time>
      </trkpt>
      <trkpt lat="46.13572" lon="2.48161">
        <ele>494</ele>
        <time>2015-04-20T15:28:11Z</time>
      </trkpt>
      <trkpt lat="46.13573" lon="2.48164">
        <ele>494</ele>
        <time>2015-04-20T15:28:13Z</time>
      </trkpt>
      <trkpt lat="46.13575" lon="2.48168">
        <ele>494</ele>
        <time>2015-04-20T15:28:15Z</time>
      </trkpt>
      <trkpt lat="46.13577" lon="2.48171">
        <ele>493</ele>
        <time>2015-04-20T15:28:17Z</time>
      </trkpt>
      <trkpt lat="46.13578" lon="2.48174">
        <ele>493</ele>
        <time>2015-04-20T15:28:19Z</time>
      </trkpt>
      <trkpt lat="46.1358" lon="2.48177">
        <ele>493</ele>
        <time>2015-04-20T15:28:21Z</time>
      </trkpt>
      <trkpt lat="46.13582" lon="2.48181">
        <ele>493</ele>
        <time>2015-04-20T15:28:23Z</time>
      </trkpt>
      <trkpt lat="46.13583" lon="2.48184">
        <ele>493</ele>
        <time>2015-04-20T15:28:25Z</time>
      </trkpt>
      <trkpt lat="46.13585" lon="2.48188">
        <ele>493</ele>
        <time>2015-04-20T15:28:27Z</time>
      </trkpt>
      <trkpt lat="46.13587" lon="2.48191">
        <ele>493</ele>
        <time>2015-04-20T15:28:29Z</time>
      </trkpt>
      <trkpt lat="46.13589" lon="2.48194">
        <ele>493</ele>
        <time>2015-04-20T15:28:31Z</time>
      </trkpt>
      <trkpt lat="46.13592" lon="2.48199">
        <ele>493</ele>
        <time>2015-04-20T15:28:34Z</time>
      </trkpt>
      <trkpt lat="46.13595" lon="2.48204">
        <ele>493</ele>
        <time>2015-04-20T15:28:37Z</time>
      </trkpt>
      <trkpt lat="46.13598" lon="2.48208">
        <ele>492</ele>
        <time>2015-04-20T15:28:40Z</time>
      </trkpt>
      <trkpt lat="46.136" lon="2.48211">
        <ele>492</ele>
        <time>2015-04-20T15:28:42Z</time>
      </trkpt>
      <trkpt lat="46.13602" lon="2.48214">
        <ele>492</ele>
        <time>2015-04-20T15:28:44Z</time>
      </trkpt>
      <trkpt lat="46.13606" lon="2.48218">
        <ele>492</ele>
        <time>2015-04-20T15:28:47Z</time>
      </trkpt>
      <trkpt lat="46.13608" lon="2.4822">
        <ele>492</ele>
        <time>2015-04-20T15:28:49Z</time>
      </trkpt>
      <trkpt lat="46.1361" lon="2.48223">
        <ele>492</ele>
        <time>2015-04-20T15:28:51Z</time>
      </trkpt>
      <trkpt lat="46.13613" lon="2.48225">
        <ele>492</ele>
        <time>2015-04-20T15:28:53Z</time>
      </trkpt>
      <trkpt lat="46.13615" lon="2.48228">
        <ele>492</ele>
        <time>2015-04-20T15:28:55Z</time>
      </trkpt>
      <trkpt lat="46.13618" lon="2.4823">
        <ele>492</ele>
        <time>2015-04-20T15:28:57Z</time>
      </trkpt>
      <trkpt lat="46.13621" lon="2.48232">
        <ele>492</ele>
        <time>2015-04-20T15:28:59Z</time>
      </trkpt>
      <trkpt lat="46.13623" lon="2.48233">
        <ele>492</ele>
        <time>2015-04-20T15:29:01Z</time>
      </trkpt>
      <trkpt lat="46.13626" lon="2.48235">
        <ele>492</ele>
        <time>2015-04-20T15:29:03Z</time>
      </trkpt>
      <trkpt lat="46.13628" lon="2.48236">
        <ele>492</ele>
        <time>2015-04-20T15:29:05Z</time>
      </trkpt>
      <trkpt lat="46.13631" lon="2.48238">
        <ele>492</ele>
        <time>2015-04-20T15:29:07Z</time>
      </trkpt>
      <trkpt lat="46.13634" lon="2.48239">
        <ele>492</ele>
        <time>2015-04-20T15:29:09Z</time>
      </trkpt>
      <trkpt lat="46.13636" lon="2.4824">
        <ele>492</ele>
        <time>2015-04-20T15:29:11Z</time>
      </trkpt>
      <trkpt lat="46.13639" lon="2.48242">
        <ele>492</ele>
        <time>2015-04-20T15:29:13Z</time>
      </trkpt>
      <trkpt lat="46.13642" lon="2.48243">
        <ele>492</ele>
        <time>2015-04-20T15:29:15Z</time>
      </trkpt>
      <trkpt lat="46.13644" lon="2.48244">
        <ele>492</ele>
        <time>2015-04-20T15:29:17Z</time>
      </trkpt>
      <trkpt lat="46.13647" lon="2.48246">
        <ele>491</ele>
        <time>2015-04-20T15:29:19Z</time>
      </trkpt>
      <trkpt lat="46.1365" lon="2.48247">
        <ele>491</ele>
        <time>2015-04-20T15:29:21Z</time>
      </trkpt>
      <trkpt lat="46.13652" lon="2.48248">
        <ele>491</ele>
        <time>2015-04-20T15:29:23Z</time>
      </trkpt>
      <trkpt lat="46.13655" lon="2.4825">
        <ele>491</ele>
        <time>2015-04-20T15:29:25Z</time>
      </trkpt>
      <trkpt lat="46.13657" lon="2.48251">
        <ele>491</ele>
        <time>2015-04-20T15:29:27Z</time>
      </trkpt>
      <trkpt lat="46.1366" lon="2.48253">
        <ele>491</ele>
        <time>2015-04-20T15:29:29Z</time>
      </trkpt>
      <trkpt lat="46.13663" lon="2.48255">
        <ele>490</ele>
        <time>2015-04-20T15:29:31Z</time>
      </trkpt>
      <trkpt lat="46.13665" lon="2.48257">
        <ele>490</ele>
        <time>2015-04-20T15:29:33Z</time>
      </trkpt>
      <trkpt lat="46.13668" lon="2.48258">
        <ele>490</ele>
        <time>2015-04-20T15:29:35Z</time>
      </trkpt>
      <trkpt lat="46.1367" lon="2.48259">
        <ele>490</ele>
        <time>2015-04-20T15:29:37Z</time>
      </trkpt>
      <trkpt lat="46.13673" lon="2.48261">
        <ele>489</ele>
        <time>2015-04-20T15:29:39Z</time>
      </trkpt>
      <trkpt lat="46.13675" lon="2.48263">
        <ele>489</ele>
        <time>2015-04-20T15:29:41Z</time>
      </trkpt>
      <trkpt lat="46.13678" lon="2.48265">
        <ele>489</ele>
        <time>2015-04-20T15:29:43Z</time>
      </trkpt>
      <trkpt lat="46.13681" lon="2.48267">
        <ele>489</ele>
        <time>2015-04-20T15:29:45Z</time>
      </trkpt>
      <trkpt lat="46.13683" lon="2.48269">
        <ele>489</ele>
        <time>2015-04-20T15:29:47Z</time>
      </trkpt>
      <trkpt lat="46.13686" lon="2.48271">
        <ele>488</ele>
        <time>2015-04-20T15:29:50Z</time>
      </trkpt>
      <trkpt lat="46.13689" lon="2.48272">
        <ele>488</ele>
        <time>2015-04-20T15:29:52Z</time>
      </trkpt>
      <trkpt lat="46.13691" lon="2.48274">
        <ele>488</ele>
        <time>2015-04-20T15:29:54Z</time>
      </trkpt>
      <trkpt lat="46.13694" lon="2.48275">
        <ele>487</ele>
        <time>2015-04-20T15:29:56Z</time>
      </trkpt>
      <trkpt lat="46.13696" lon="2.48277">
        <ele>487</ele>
        <time>2015-04-20T15:29:58Z</time>
      </trkpt>
      <trkpt lat="46.13699" lon="2.48278">
        <ele>487</ele>
        <time>2015-04-20T15:30:00Z</time>
      </trkpt>
      <trkpt lat="46.13702" lon="2.4828">
        <ele>487</ele>
        <time>2015-04-20T15:30:02Z</time>
      </trkpt>
      <trkpt lat="46.13704" lon="2.48281">
        <ele>487</ele>
        <time>2015-04-20T15:30:04Z</time>
      </trkpt>
      <trkpt lat="46.13707" lon="2.48283">
        <ele>487</ele>
        <time>2015-04-20T15:30:07Z</time>
      </trkpt>
      <trkpt lat="46.1371" lon="2.48286">
        <ele>486</ele>
        <time>2015-04-20T15:30:10Z</time>
      </trkpt>
      <trkpt lat="46.13714" lon="2.48288">
        <ele>486</ele>
        <time>2015-04-20T15:30:13Z</time>
      </trkpt>
      <trkpt lat="46.13716" lon="2.4829">
        <ele>486</ele>
        <time>2015-04-20T15:30:15Z</time>
      </trkpt>
      <trkpt lat="46.13718" lon="2.48291">
        <ele>486</ele>
        <time>2015-04-20T15:30:17Z</time>
      </trkpt>
      <trkpt lat="46.1372" lon="2.48293">
        <ele>486</ele>
        <time>2015-04-20T15:30:19Z</time>
      </trkpt>
      <trkpt lat="46.13722" lon="2.48294">
        <ele>485</ele>
        <time>2015-04-20T15:30:21Z</time>
      </trkpt>
      <trkpt lat="46.13724" lon="2.48296">
        <ele>485</ele>
        <time>2015-04-20T15:30:23Z</time>
      </trkpt>
      <trkpt lat="46.13727" lon="2.48298">
        <ele>484</ele>
        <time>2015-04-20T15:30:26Z</time>
      </trkpt>
      <trkpt lat="46.13729" lon="2.483">
        <ele>484</ele>
        <time>2015-04-20T15:30:28Z</time>
      </trkpt>
      <trkpt lat="46.13732" lon="2.48302">
        <ele>483</ele>
        <time>2015-04-20T15:30:30Z</time>
      </trkpt>
      <trkpt lat="46.13734" lon="2.48304">
        <ele>483</ele>
        <time>2015-04-20T15:30:32Z</time>
      </trkpt>
      <trkpt lat="46.13736" lon="2.48306">
        <ele>483</ele>
        <time>2015-04-20T15:30:34Z</time>
      </trkpt>
      <trkpt lat="46.13738" lon="2.48307">
        <ele>482</ele>
        <time>2015-04-20T15:30:36Z</time>
      </trkpt>
      <trkpt lat="46.13742" lon="2.4831">
        <ele>482</ele>
        <time>2015-04-20T15:30:39Z</time>
      </trkpt>
      <trkpt lat="46.13745" lon="2.48313">
        <ele>482</ele>
        <time>2015-04-20T15:30:42Z</time>
      </trkpt>
      <trkpt lat="46.13747" lon="2.48316">
        <ele>481</ele>
        <time>2015-04-20T15:30:44Z</time>
      </trkpt>
      <trkpt lat="46.13749" lon="2.48318">
        <ele>481</ele>
        <time>2015-04-20T15:30:46Z</time>
      </trkpt>
      <trkpt lat="46.13751" lon="2.4832">
        <ele>481</ele>
        <time>2015-04-20T15:30:48Z</time>
      </trkpt>
      <trkpt lat="46.13753" lon="2.48322">
        <ele>481</ele>
        <time>2015-04-20T15:30:50Z</time>
      </trkpt>
      <trkpt lat="46.13755" lon="2.48323">
        <ele>481</ele>
        <time>2015-04-20T15:30:52Z</time>
      </trkpt>
      <trkpt lat="46.13757" lon="2.48326">
        <ele>480</ele>
        <time>2015-04-20T15:30:54Z</time>
      </trkpt>
      <trkpt lat="46.13759" lon="2.48328">
        <ele>480</ele>
        <time>2015-04-20T15:30:56Z</time>
      </trkpt>
      <trkpt lat="46.13762" lon="2.48331">
        <ele>479</ele>
        <time>2015-04-20T15:30:59Z</time>
      </trkpt>
      <trkpt lat="46.13764" lon="2.48334">
        <ele>479</ele>
        <time>2015-04-20T15:31:01Z</time>
      </trkpt>
      <trkpt lat="46.13766" lon="2.48336">
        <ele>479</ele>
        <time>2015-04-20T15:31:03Z</time>
      </trkpt>
      <trkpt lat="46.13768" lon="2.48339">
        <ele>478</ele>
        <time>2015-04-20T15:31:05Z</time>
      </trkpt>
      <trkpt lat="46.1377" lon="2.48341">
        <ele>478</ele>
        <time>2015-04-20T15:31:07Z</time>
      </trkpt>
      <trkpt lat="46.13772" lon="2.48344">
        <ele>478</ele>
        <time>2015-04-20T15:31:09Z</time>
      </trkpt>
      <trkpt lat="46.13775" lon="2.48347">
        <ele>477</ele>
        <time>2015-04-20T15:31:12Z</time>
      </trkpt>
      <trkpt lat="46.13779" lon="2.48351">
        <ele>477</ele>
        <time>2015-04-20T15:31:15Z</time>
      </trkpt>
      <trkpt lat="46.13781" lon="2.48353">
        <ele>477</ele>
        <time>2015-04-20T15:31:17Z</time>
      </trkpt>
      <trkpt lat="46.13783" lon="2.48355">
        <ele>477</ele>
        <time>2015-04-20T15:31:19Z</time>
      </trkpt>
      <trkpt lat="46.13784" lon="2.48357">
        <ele>477</ele>
        <time>2015-04-20T15:31:21Z</time>
      </trkpt>
      <trkpt lat="46.13786" lon="2.48359">
        <ele>476</ele>
        <time>2015-04-20T15:31:23Z</time>
      </trkpt>
      <trkpt lat="46.13788" lon="2.48361">
        <ele>476</ele>
        <time>2015-04-20T15:31:25Z</time>
      </trkpt>
      <trkpt lat="46.13791" lon="2.48363">
        <ele>476</ele>
        <time>2015-04-20T15:31:27Z</time>
      </trkpt>
      <trkpt lat="46.13793" lon="2.48364">
        <ele>476</ele>
        <time>2015-04-20T15:31:29Z</time>
      </trkpt>
      <trkpt lat="46.13796" lon="2.48363">
        <ele>476</ele>
        <time>2015-04-20T15:31:31Z</time>
      </trkpt>
      <trkpt lat="46.13798" lon="2.4836">
        <ele>476</ele>
        <time>2015-04-20T15:31:33Z</time>
      </trkpt>
      <trkpt lat="46.13799" lon="2.48357">
        <ele>476</ele>
        <time>2015-04-20T15:31:35Z</time>
      </trkpt>
      <trkpt lat="46.138" lon="2.48354">
        <ele>476</ele>
        <time>2015-04-20T15:31:37Z</time>
      </trkpt>
      <trkpt lat="46.13802" lon="2.48351">
        <ele>476</ele>
        <time>2015-04-20T15:31:39Z</time>
      </trkpt>
      <trkpt lat="46.13803" lon="2.48348">
        <ele>476</ele>
        <time>2015-04-20T15:31:41Z</time>
      </trkpt>
      <trkpt lat="46.13805" lon="2.48345">
        <ele>476</ele>
        <time>2015-04-20T15:31:43Z</time>
      </trkpt>
      <trkpt lat="46.13806" lon="2.48341">
        <ele>476</ele>
        <time>2015-04-20T15:31:45Z</time>
      </trkpt>
      <trkpt lat="46.13808" lon="2.48338">
        <ele>476</ele>
        <time>2015-04-20T15:31:47Z</time>
      </trkpt>
      <trkpt lat="46.13809" lon="2.48335">
        <ele>476</ele>
        <time>2015-04-20T15:31:49Z</time>
      </trkpt>
      <trkpt lat="46.1381" lon="2.48331">
        <ele>476</ele>
        <time>2015-04-20T15:31:51Z</time>
      </trkpt>
      <trkpt lat="46.13811" lon="2.48328">
        <ele>476</ele>
        <time>2015-04-20T15:31:53Z</time>
      </trkpt>
      <trkpt lat="46.13813" lon="2.48325">
        <ele>476</ele>
        <time>2015-04-20T15:31:55Z</time>
      </trkpt>
      <trkpt lat="46.13814" lon="2.48322">
        <ele>476</ele>
        <time>2015-04-20T15:31:57Z</time>
      </trkpt>
      <trkpt lat="46.13815" lon="2.48318">
        <ele>476</ele>
        <time>2015-04-20T15:31:59Z</time>
      </trkpt>
      <trkpt lat="46.13816" lon="2.48315">
        <ele>476</ele>
        <time>2015-04-20T15:32:01Z</time>
      </trkpt>
      <trkpt lat="46.13817" lon="2.48311">
        <ele>476</ele>
        <time>2015-04-20T15:32:03Z</time>
      </trkpt>
      <trkpt lat="46.13818" lon="2.48308">
        <ele>476</ele>
        <time>2015-04-20T15:32:05Z</time>
      </trkpt>
      <trkpt lat="46.13819" lon="2.48304">
        <ele>476</ele>
        <time>2015-04-20T15:32:07Z</time>
      </trkpt>
      <trkpt lat="46.1382" lon="2.483">
        <ele>476</ele>
        <time>2015-04-20T15:32:09Z</time>
      </trkpt>
      <trkpt lat="46.13821" lon="2.48297">
        <ele>476</ele>
        <time>2015-04-20T15:32:11Z</time>
      </trkpt>
      <trkpt lat="46.13822" lon="2.48293">
        <ele>476</ele>
        <time>2015-04-20T15:32:13Z</time>
      </trkpt>
      <trkpt lat="46.13823" lon="2.48289">
        <ele>476</ele>
        <time>2015-04-20T15:32:15Z</time>
      </trkpt>
      <trkpt lat="46.13825" lon="2.48285">
        <ele>476</ele>
        <time>2015-04-20T15:32:17Z</time>
      </trkpt>
      <trkpt lat="46.13826" lon="2.48282">
        <ele>476</ele>
        <time>2015-04-20T15:32:19Z</time>
      </trkpt>
      <trkpt lat="46.13827" lon="2.48278">
        <ele>476</ele>
        <time>2015-04-20T15:32:21Z</time>
      </trkpt>
      <trkpt lat="46.13829" lon="2.48275">
        <ele>476</ele>
        <time>2015-04-20T15:32:23Z</time>
      </trkpt>
      <trkpt lat="46.1383" lon="2.48271">
        <ele>476</ele>
        <time>2015-04-20T15:32:25Z</time>
      </trkpt>
      <trkpt lat="46.13831" lon="2.48267">
        <ele>476</ele>
        <time>2015-04-20T15:32:27Z</time>
      </trkpt>
      <trkpt lat="46.13833" lon="2.48264">
        <ele>476</ele>
        <time>2015-04-20T15:32:29Z</time>
      </trkpt>
      <trkpt lat="46.13834" lon="2.4826">
        <ele>476</ele>
        <time>2015-04-20T15:32:31Z</time>
      </trkpt>
      <trkpt lat="46.13835" lon="2.48256">
        <ele>476</ele>
        <time>2015-04-20T15:32:33Z</time>
      </trkpt>
      <trkpt lat="46.13836" lon="2.48253">
        <ele>476</ele>
        <time>2015-04-20T15:32:35Z</time>
      </trkpt>
      <trkpt lat="46.13837" lon="2.48249">
        <ele>476</ele>
        <time>2015-04-20T15:32:37Z</time>
      </trkpt>
      <trkpt lat="46.13839" lon="2.48245">
        <ele>476</ele>
        <time>2015-04-20T15:32:39Z</time>
      </trkpt>
      <trkpt lat="46.1384" lon="2.48241">
        <ele>476</ele>
        <time>2015-04-20T15:32:41Z</time>
      </trkpt>
      <trkpt lat="46.13841" lon="2.48238">
        <ele>476</ele>
        <time>2015-04-20T15:32:43Z</time>
      </trkpt>
      <trkpt lat="46.13842" lon="2.48234">
        <ele>477</ele>
        <time>2015-04-20T15:32:45Z</time>
      </trkpt>
      <trkpt lat="46.13844" lon="2.48231">
        <ele>477</ele>
        <time>2015-04-20T15:32:47Z</time>
      </trkpt>
      <trkpt lat="46.13845" lon="2.48227">
        <ele>477</ele>
        <time>2015-04-20T15:32:49Z</time>
      </trkpt>
      <trkpt lat="46.13846" lon="2.48223">
        <ele>477</ele>
        <time>2015-04-20T15:32:51Z</time>
      </trkpt>
      <trkpt lat="46.13847" lon="2.48219">
        <ele>477</ele>
        <time>2015-04-20T15:32:53Z</time>
      </trkpt>
      <trkpt lat="46.13849" lon="2.48216">
        <ele>477</ele>
        <time>2015-04-20T15:32:55Z</time>
      </trkpt>
      <trkpt lat="46.1385" lon="2.48212">
        <ele>477</ele>
        <time>2015-04-20T15:32:57Z</time>
      </trkpt>
      <trkpt lat="46.13851" lon="2.48209">
        <ele>477</ele>
        <time>2015-04-20T15:32:59Z</time>
      </trkpt>
      <trkpt lat="46.13853" lon="2.48205">
        <ele>477</ele>
        <time>2015-04-20T15:33:01Z</time>
      </trkpt>
      <trkpt lat="46.13854" lon="2.48201">
        <ele>477</ele>
        <time>2015-04-20T15:33:03Z</time>
      </trkpt>
      <trkpt lat="46.13855" lon="2.48198">
        <ele>477</ele>
        <time>2015-04-20T15:33:05Z</time>
      </trkpt>
      <trkpt lat="46.13857" lon="2.48194">
        <ele>477</ele>
        <time>2015-04-20T15:33:07Z</time>
      </trkpt>
      <trkpt lat="46.13858" lon="2.4819">
        <ele>477</ele>
        <time>2015-04-20T15:33:09Z</time>
      </trkpt>
      <trkpt lat="46.13859" lon="2.48186">
        <ele>477</ele>
        <time>2015-04-20T15:33:11Z</time>
      </trkpt>
      <trkpt lat="46.1386" lon="2.48182">
        <ele>477</ele>
        <time>2015-04-20T15:33:13Z</time>
      </trkpt>
      <trkpt lat="46.13861" lon="2.48179">
        <ele>477</ele>
        <time>2015-04-20T15:33:15Z</time>
      </trkpt>
      <trkpt lat="46.13863" lon="2.48175">
        <ele>477</ele>
        <time>2015-04-20T15:33:17Z</time>
      </trkpt>
      <trkpt lat="46.13864" lon="2.48171">
        <ele>477</ele>
        <time>2015-04-20T15:33:19Z</time>
      </trkpt>
      <trkpt lat="46.13865" lon="2.48167">
        <ele>477</ele>
        <time>2015-04-20T15:33:21Z</time>
      </trkpt>
      <trkpt lat="46.13866" lon="2.48164">
        <ele>477</ele>
        <time>2015-04-20T15:33:23Z</time>
      </trkpt>
      <trkpt lat="46.13867" lon="2.4816">
        <ele>477</ele>
        <time>2015-04-20T15:33:25Z</time>
      </trkpt>
      <trkpt lat="46.13868" lon="2.48156">
        <ele>477</ele>
        <time>2015-04-20T15:33:27Z</time>
      </trkpt>
      <trkpt lat="46.1387" lon="2.48153">
        <ele>477</ele>
        <time>2015-04-20T15:33:29Z</time>
      </trkpt>
      <trkpt lat="46.13871" lon="2.48149">
        <ele>477</ele>
        <time>2015-04-20T15:33:31Z</time>
      </trkpt>
      <trkpt lat="46.13872" lon="2.48145">
        <ele>477</ele>
        <time>2015-04-20T15:33:33Z</time>
      </trkpt>
      <trkpt lat="46.13873" lon="2.48141">
        <ele>477</ele>
        <time>2015-04-20T15:33:35Z</time>
      </trkpt>
      <trkpt lat="46.13874" lon="2.48137">
        <ele>477</ele>
        <time>2015-04-20T15:33:37Z</time>
      </trkpt>
      <trkpt lat="46.13876" lon="2.48134">
        <ele>477</ele>
        <time>2015-04-20T15:33:39Z</time>
      </trkpt>
      <trkpt lat="46.13877" lon="2.4813">
        <ele>477</ele>
        <time>2015-04-20T15:33:41Z</time>
      </trkpt>
      <trkpt lat="46.13879" lon="2.48127">
        <ele>477</ele>
        <time>2015-04-20T15:33:43Z</time>
      </trkpt>
      <trkpt lat="46.13879" lon="2.48123">
        <ele>477</ele>
        <time>2015-04-20T15:33:45Z</time>
      </trkpt>
      <trkpt lat="46.13881" lon="2.4812">
        <ele>477</ele>
        <time>2015-04-20T15:33:47Z</time>
      </trkpt>
      <trkpt lat="46.13882" lon="2.48116">
        <ele>477</ele>
        <time>2015-04-20T15:33:49Z</time>
      </trkpt>
      <trkpt lat="46.13883" lon="2.48113">
        <ele>477</ele>
        <time>2015-04-20T15:33:51Z</time>
      </trkpt>
      <trkpt lat="46.13884" lon="2.48109">
        <ele>477</ele>
        <time>2015-04-20T15:33:53Z</time>
      </trkpt>
      <trkpt lat="46.13885" lon="2.48106">
        <ele>477</ele>
        <time>2015-04-20T15:33:55Z</time>
      </trkpt>
      <trkpt lat="46.13887" lon="2.48102">
        <ele>477</ele>
        <time>2015-04-20T15:33:57Z</time>
      </trkpt>
      <trkpt lat="46.13888" lon="2.481">
        <ele>477</ele>
        <time>2015-04-20T15:33:59Z</time>
      </trkpt>
      <trkpt lat="46.1389" lon="2.48099">
        <ele>477</ele>
        <time>2015-04-20T15:34:01Z</time>
      </trkpt>
      <trkpt lat="46.13893" lon="2.48101">
        <ele>477</ele>
        <time>2015-04-20T15:34:03Z</time>
      </trkpt>
      <trkpt lat="46.13895" lon="2.48103">
        <ele>477</ele>
        <time>2015-04-20T15:34:05Z</time>
      </trkpt>
      <trkpt lat="46.13898" lon="2.48105">
        <ele>477</ele>
        <time>2015-04-20T15:34:07Z</time>
      </trkpt>
      <trkpt lat="46.139" lon="2.48107">
        <ele>476</ele>
        <time>2015-04-20T15:34:09Z</time>
      </trkpt>
      <trkpt lat="46.13903" lon="2.48109">
        <ele>476</ele>
        <time>2015-04-20T15:34:11Z</time>
      </trkpt>
      <trkpt lat="46.13905" lon="2.48111">
        <ele>476</ele>
        <time>2015-04-20T15:34:13Z</time>
      </trkpt>
      <trkpt lat="46.13908" lon="2.48113">
        <ele>475</ele>
        <time>2015-04-20T15:34:15Z</time>
      </trkpt>
      <trkpt lat="46.1391" lon="2.48115">
        <ele>475</ele>
        <time>2015-04-20T15:34:17Z</time>
      </trkpt>
      <trkpt lat="46.13913" lon="2.48117">
        <ele>475</ele>
        <time>2015-04-20T15:34:19Z</time>
      </trkpt>
      <trkpt lat="46.13916" lon="2.4812">
        <ele>474</ele>
        <time>2015-04-20T15:34:22Z</time>
      </trkpt>
      <trkpt lat="46.13918" lon="2.48122">
        <ele>473</ele>
        <time>2015-04-20T15:34:24Z</time>
      </trkpt>
      <trkpt lat="46.13921" lon="2.48124">
        <ele>473</ele>
        <time>2015-04-20T15:34:26Z</time>
      </trkpt>
      <trkpt lat="46.13923" lon="2.48126">
        <ele>473</ele>
        <time>2015-04-20T15:34:28Z</time>
      </trkpt>
      <trkpt lat="46.13925" lon="2.48127">
        <ele>472</ele>
        <time>2015-04-20T15:34:30Z</time>
      </trkpt>
      <trkpt lat="46.13928" lon="2.4813">
        <ele>472</ele>
        <time>2015-04-20T15:34:32Z</time>
      </trkpt>
      <trkpt lat="46.1393" lon="2.48131">
        <ele>471</ele>
        <time>2015-04-20T15:34:34Z</time>
      </trkpt>
      <trkpt lat="46.13933" lon="2.48133">
        <ele>471</ele>
        <time>2015-04-20T15:34:36Z</time>
      </trkpt>
      <trkpt lat="46.13935" lon="2.48135">
        <ele>470</ele>
        <time>2015-04-20T15:34:38Z</time>
      </trkpt>
      <trkpt lat="46.13938" lon="2.48137">
        <ele>470</ele>
        <time>2015-04-20T15:34:40Z</time>
      </trkpt>
      <trkpt lat="46.1394" lon="2.48139">
        <ele>470</ele>
        <time>2015-04-20T15:34:42Z</time>
      </trkpt>
      <trkpt lat="46.13943" lon="2.48141">
        <ele>469</ele>
        <time>2015-04-20T15:34:44Z</time>
      </trkpt>
      <trkpt lat="46.13947" lon="2.48144">
        <ele>468</ele>
        <time>2015-04-20T15:34:47Z</time>
      </trkpt>
      <trkpt lat="46.1395" lon="2.48148">
        <ele>467</ele>
        <time>2015-04-20T15:34:50Z</time>
      </trkpt>
      <trkpt lat="46.13952" lon="2.48149">
        <ele>467</ele>
        <time>2015-04-20T15:34:52Z</time>
      </trkpt>
      <trkpt lat="46.13955" lon="2.48151">
        <ele>466</ele>
        <time>2015-04-20T15:34:54Z</time>
      </trkpt>
      <trkpt lat="46.13958" lon="2.48153">
        <ele>466</ele>
        <time>2015-04-20T15:34:56Z</time>
      </trkpt>
      <trkpt lat="46.1396" lon="2.48156">
        <ele>466</ele>
        <time>2015-04-20T15:34:58Z</time>
      </trkpt>
      <trkpt lat="46.13963" lon="2.48158">
        <ele>466</ele>
        <time>2015-04-20T15:35:00Z</time>
      </trkpt>
      <trkpt lat="46.13965" lon="2.48159">
        <ele>466</ele>
        <time>2015-04-20T15:35:02Z</time>
      </trkpt>
      <trkpt lat="46.13968" lon="2.4816">
        <ele>466</ele>
        <time>2015-04-20T15:35:04Z</time>
      </trkpt>
      <trkpt lat="46.1397" lon="2.48162">
        <ele>465</ele>
        <time>2015-04-20T15:35:06Z</time>
      </trkpt>
      <trkpt lat="46.13972" lon="2.48163">
        <ele>465</ele>
        <time>2015-04-20T15:35:08Z</time>
      </trkpt>
      <trkpt lat="46.13975" lon="2.48164">
        <ele>465</ele>
        <time>2015-04-20T15:35:10Z</time>
      </trkpt>
      <trkpt lat="46.13978" lon="2.48166">
        <ele>465</ele>
        <time>2015-04-20T15:35:12Z</time>
      </trkpt>
      <trkpt lat="46.1398" lon="2.48167">
        <ele>464</ele>
        <time>2015-04-20T15:35:14Z</time>
      </trkpt>
      <trkpt lat="46.13983" lon="2.48168">
        <ele>464</ele>
        <time>2015-04-20T15:35:16Z</time>
      </trkpt>
      <trkpt lat="46.13985" lon="2.4817">
        <ele>464</ele>
        <time>2015-04-20T15:35:18Z</time>
      </trkpt>
      <trkpt lat="46.13988" lon="2.48172">
        <ele>464</ele>
        <time>2015-04-20T15:35:20Z</time>
      </trkpt>
      <trkpt lat="46.13991" lon="2.48174">
        <ele>464</ele>
        <time>2015-04-20T15:35:22Z</time>
      </trkpt>
      <trkpt lat="46.13993" lon="2.48176">
        <ele>464</ele>
        <time>2015-04-20T15:35:24Z</time>
      </trkpt>
      <trkpt lat="46.13996" lon="2.48177">
        <ele>464</ele>
        <time>2015-04-20T15:35:26Z</time>
      </trkpt>
      <trkpt lat="46.13999" lon="2.48178">
        <ele>464</ele>
        <time>2015-04-20T15:35:28Z</time>
      </trkpt>
      <trkpt lat="46.14001" lon="2.48178">
        <ele>464</ele>
        <time>2015-04-20T15:35:30Z</time>
      </trkpt>
      <trkpt lat="46.14004" lon="2.48178">
        <ele>464</ele>
        <time>2015-04-20T15:35:32Z</time>
      </trkpt>
      <trkpt lat="46.14007" lon="2.48178">
        <ele>464</ele>
        <time>2015-04-20T15:35:34Z</time>
      </trkpt>
      <trkpt lat="46.14008" lon="2.48178">
        <ele>464</ele>
        <time>2015-04-20T15:35:36Z</time>
      </trkpt>
      <trkpt lat="46.14011" lon="2.48178">
        <ele>464</ele>
        <time>2015-04-20T15:35:38Z</time>
      </trkpt>
      <trkpt lat="46.14014" lon="2.48179">
        <ele>464</ele>
        <time>2015-04-20T15:35:40Z</time>
      </trkpt>
      <trkpt lat="46.14017" lon="2.48179">
        <ele>463</ele>
        <time>2015-04-20T15:35:42Z</time>
      </trkpt>
      <trkpt lat="46.1402" lon="2.48179">
        <ele>463</ele>
        <time>2015-04-20T15:35:44Z</time>
      </trkpt>
      <trkpt lat="46.14022" lon="2.4818">
        <ele>463</ele>
        <time>2015-04-20T15:35:46Z</time>
      </trkpt>
      <trkpt lat="46.14025" lon="2.4818">
        <ele>463</ele>
        <time>2015-04-20T15:35:48Z</time>
      </trkpt>
      <trkpt lat="46.14028" lon="2.4818">
        <ele>462</ele>
        <time>2015-04-20T15:35:50Z</time>
      </trkpt>
      <trkpt lat="46.14031" lon="2.4818">
        <ele>462</ele>
        <time>2015-04-20T15:35:52Z</time>
      </trkpt>
      <trkpt lat="46.14034" lon="2.48181">
        <ele>461</ele>
        <time>2015-04-20T15:35:54Z</time>
      </trkpt>
      <trkpt lat="46.14036" lon="2.48181">
        <ele>461</ele>
        <time>2015-04-20T15:35:56Z</time>
      </trkpt>
      <trkpt lat="46.14039" lon="2.48182">
        <ele>461</ele>
        <time>2015-04-20T15:35:58Z</time>
      </trkpt>
      <trkpt lat="46.14042" lon="2.48182">
        <ele>460</ele>
        <time>2015-04-20T15:36:00Z</time>
      </trkpt>
      <trkpt lat="46.14044" lon="2.48182">
        <ele>460</ele>
        <time>2015-04-20T15:36:02Z</time>
      </trkpt>
      <trkpt lat="46.14047" lon="2.48182">
        <ele>459</ele>
        <time>2015-04-20T15:36:04Z</time>
      </trkpt>
      <trkpt lat="46.1405" lon="2.48183">
        <ele>459</ele>
        <time>2015-04-20T15:36:06Z</time>
      </trkpt>
      <trkpt lat="46.14053" lon="2.48184">
        <ele>459</ele>
        <time>2015-04-20T15:36:08Z</time>
      </trkpt>
      <trkpt lat="46.14055" lon="2.48185">
        <ele>459</ele>
        <time>2015-04-20T15:36:10Z</time>
      </trkpt>
      <trkpt lat="46.14058" lon="2.48186">
        <ele>458</ele>
        <time>2015-04-20T15:36:12Z</time>
      </trkpt>
      <trkpt lat="46.1406" lon="2.48188">
        <ele>458</ele>
        <time>2015-04-20T15:36:14Z</time>
      </trkpt>
      <trkpt lat="46.14063" lon="2.4819">
        <ele>457</ele>
        <time>2015-04-20T15:36:16Z</time>
      </trkpt>
      <trkpt lat="46.14065" lon="2.48191">
        <ele>457</ele>
        <time>2015-04-20T15:36:18Z</time>
      </trkpt>
      <trkpt lat="46.14068" lon="2.48193">
        <ele>456</ele>
        <time>2015-04-20T15:36:20Z</time>
      </trkpt>
      <trkpt lat="46.1407" lon="2.48196">
        <ele>456</ele>
        <time>2015-04-20T15:36:22Z</time>
      </trkpt>
      <trkpt lat="46.14072" lon="2.48198">
        <ele>456</ele>
        <time>2015-04-20T15:36:24Z</time>
      </trkpt>
      <trkpt lat="46.14074" lon="2.48201">
        <ele>456</ele>
        <time>2015-04-20T15:36:26Z</time>
      </trkpt>
      <trkpt lat="46.14076" lon="2.48203">
        <ele>456</ele>
        <time>2015-04-20T15:36:28Z</time>
      </trkpt>
      <trkpt lat="46.14079" lon="2.48205">
        <ele>456</ele>
        <time>2015-04-20T15:36:30Z</time>
      </trkpt>
      <trkpt lat="46.14082" lon="2.48206">
        <ele>455</ele>
        <time>2015-04-20T15:36:33Z</time>
      </trkpt>
      <trkpt lat="46.14084" lon="2.48207">
        <ele>454</ele>
        <time>2015-04-20T15:36:35Z</time>
      </trkpt>
      <trkpt lat="46.14086" lon="2.48209">
        <ele>454</ele>
        <time>2015-04-20T15:36:37Z</time>
      </trkpt>
      <trkpt lat="46.14089" lon="2.48211">
        <ele>453</ele>
        <time>2015-04-20T15:36:40Z</time>
      </trkpt>
      <trkpt lat="46.14091" lon="2.48213">
        <ele>452</ele>
        <time>2015-04-20T15:36:42Z</time>
      </trkpt>
      <trkpt lat="46.14093" lon="2.48215">
        <ele>452</ele>
        <time>2015-04-20T15:36:44Z</time>
      </trkpt>
      <trkpt lat="46.14094" lon="2.48218">
        <ele>451</ele>
        <time>2015-04-20T15:36:46Z</time>
      </trkpt>
      <trkpt lat="46.14096" lon="2.48221">
        <ele>451</ele>
        <time>2015-04-20T15:36:48Z</time>
      </trkpt>
      <trkpt lat="46.14097" lon="2.48224">
        <ele>451</ele>
        <time>2015-04-20T15:36:50Z</time>
      </trkpt>
      <trkpt lat="46.14097" lon="2.48227">
        <ele>450</ele>
        <time>2015-04-20T15:36:52Z</time>
      </trkpt>
      <trkpt lat="46.14098" lon="2.4823">
        <ele>450</ele>
        <time>2015-04-20T15:36:54Z</time>
      </trkpt>
      <trkpt lat="46.14098" lon="2.48234">
        <ele>449</ele>
        <time>2015-04-20T15:36:56Z</time>
      </trkpt>
      <trkpt lat="46.14099" lon="2.48238">
        <ele>449</ele>
        <time>2015-04-20T15:36:58Z</time>
      </trkpt>
      <trkpt lat="46.14099" lon="2.48242">
        <ele>449</ele>
        <time>2015-04-20T15:37:00Z</time>
      </trkpt>
      <trkpt lat="46.14098" lon="2.48246">
        <ele>449</ele>
        <time>2015-04-20T15:37:02Z</time>
      </trkpt>
      <trkpt lat="46.14098" lon="2.4825">
        <ele>449</ele>
        <time>2015-04-20T15:37:04Z</time>
      </trkpt>
      <trkpt lat="46.14098" lon="2.48253">
        <ele>449</ele>
        <time>2015-04-20T15:37:06Z</time>
      </trkpt>
      <trkpt lat="46.14097" lon="2.48257">
        <ele>449</ele>
        <time>2015-04-20T15:37:08Z</time>
      </trkpt>
      <trkpt lat="46.14096" lon="2.48261">
        <ele>448</ele>
        <time>2015-04-20T15:37:10Z</time>
      </trkpt>
      <trkpt lat="46.14094" lon="2.48264">
        <ele>448</ele>
        <time>2015-04-20T15:37:12Z</time>
      </trkpt>
      <trkpt lat="46.14092" lon="2.48269">
        <ele>448</ele>
        <time>2015-04-20T15:37:15Z</time>
      </trkpt>
      <trkpt lat="46.1409" lon="2.48272">
        <ele>448</ele>
        <time>2015-04-20T15:37:17Z</time>
      </trkpt>
      <trkpt lat="46.14089" lon="2.48275">
        <ele>448</ele>
        <time>2015-04-20T15:37:19Z</time>
      </trkpt>
      <trkpt lat="46.14089" lon="2.48278">
        <ele>447</ele>
        <time>2015-04-20T15:37:21Z</time>
      </trkpt>
      <trkpt lat="46.1409" lon="2.48281">
        <ele>447</ele>
        <time>2015-04-20T15:37:23Z</time>
      </trkpt>
      <trkpt lat="46.14093" lon="2.48281">
        <ele>447</ele>
        <time>2015-04-20T15:37:25Z</time>
      </trkpt>
      <trkpt lat="46.14095" lon="2.4828">
        <ele>447</ele>
        <time>2015-04-20T15:37:27Z</time>
      </trkpt>
      <trkpt lat="46.14097" lon="2.48278">
        <ele>447</ele>
        <time>2015-04-20T15:37:29Z</time>
      </trkpt>
      <trkpt lat="46.14099" lon="2.48276">
        <ele>447</ele>
        <time>2015-04-20T15:37:31Z</time>
      </trkpt>
      <trkpt lat="46.141" lon="2.48274">
        <ele>446</ele>
        <time>2015-04-20T15:37:33Z</time>
      </trkpt>
      <trkpt lat="46.14101" lon="2.48272">
        <ele>446</ele>
        <time>2015-04-20T15:37:36Z</time>
      </trkpt>
      <trkpt lat="46.14102" lon="2.48272">
        <ele>446</ele>
        <time>2015-04-20T15:37:44Z</time>
      </trkpt>
      <trkpt lat="46.14107" lon="2.48275">
        <ele>446</ele>
        <time>2015-04-20T15:37:55Z</time>
      </trkpt>
      <trkpt lat="46.14109" lon="2.48271">
        <ele>446</ele>
        <time>2015-04-20T15:37:57Z</time>
      </trkpt>
      <trkpt lat="46.1411" lon="2.48267">
        <ele>446</ele>
        <time>2015-04-20T15:37:59Z</time>
      </trkpt>
      <trkpt lat="46.14112" lon="2.48264">
        <ele>446</ele>
        <time>2015-04-20T15:38:01Z</time>
      </trkpt>
      <trkpt lat="46.14114" lon="2.4826">
        <ele>446</ele>
        <time>2015-04-20T15:38:03Z</time>
      </trkpt>
      <trkpt lat="46.14116" lon="2.48256">
        <ele>446</ele>
        <time>2015-04-20T15:38:05Z</time>
      </trkpt>
      <trkpt lat="46.14117" lon="2.48252">
        <ele>446</ele>
        <time>2015-04-20T15:38:07Z</time>
      </trkpt>
      <trkpt lat="46.14118" lon="2.48248">
        <ele>446</ele>
        <time>2015-04-20T15:38:09Z</time>
      </trkpt>
      <trkpt lat="46.1412" lon="2.48245">
        <ele>445</ele>
        <time>2015-04-20T15:38:11Z</time>
      </trkpt>
      <trkpt lat="46.14121" lon="2.4824">
        <ele>445</ele>
        <time>2015-04-20T15:38:13Z</time>
      </trkpt>
      <trkpt lat="46.14121" lon="2.48237">
        <ele>444</ele>
        <time>2015-04-20T15:38:15Z</time>
      </trkpt>
      <trkpt lat="46.14122" lon="2.48233">
        <ele>443</ele>
        <time>2015-04-20T15:38:17Z</time>
      </trkpt>
      <trkpt lat="46.14124" lon="2.48229">
        <ele>443</ele>
        <time>2015-04-20T15:38:19Z</time>
      </trkpt>
      <trkpt lat="46.14125" lon="2.48225">
        <ele>442</ele>
        <time>2015-04-20T15:38:21Z</time>
      </trkpt>
      <trkpt lat="46.14126" lon="2.48221">
        <ele>442</ele>
        <time>2015-04-20T15:38:23Z</time>
      </trkpt>
      <trkpt lat="46.14128" lon="2.48217">
        <ele>441</ele>
        <time>2015-04-20T15:38:25Z</time>
      </trkpt>
      <trkpt lat="46.1413" lon="2.48214">
        <ele>441</ele>
        <time>2015-04-20T15:38:27Z</time>
      </trkpt>
      <trkpt lat="46.14133" lon="2.4821">
        <ele>441</ele>
        <time>2015-04-20T15:38:30Z</time>
      </trkpt>
      <trkpt lat="46.14136" lon="2.48207">
        <ele>441</ele>
        <time>2015-04-20T15:38:32Z</time>
      </trkpt>
      <trkpt lat="46.14139" lon="2.48206">
        <ele>441</ele>
        <time>2015-04-20T15:38:34Z</time>
      </trkpt>
      <trkpt lat="46.14142" lon="2.48205">
        <ele>441</ele>
        <time>2015-04-20T15:38:36Z</time>
      </trkpt>
      <trkpt lat="46.14145" lon="2.48204">
        <ele>441</ele>
        <time>2015-04-20T15:38:38Z</time>
      </trkpt>
      <trkpt lat="46.14148" lon="2.48204">
        <ele>441</ele>
        <time>2015-04-20T15:38:40Z</time>
      </trkpt>
      <trkpt lat="46.14151" lon="2.48202">
        <ele>441</ele>
        <time>2015-04-20T15:38:42Z</time>
      </trkpt>
      <trkpt lat="46.14154" lon="2.48201">
        <ele>441</ele>
        <time>2015-04-20T15:38:44Z</time>
      </trkpt>
      <trkpt lat="46.14157" lon="2.482">
        <ele>441</ele>
        <time>2015-04-20T15:38:46Z</time>
      </trkpt>
      <trkpt lat="46.1416" lon="2.482">
        <ele>441</ele>
        <time>2015-04-20T15:38:48Z</time>
      </trkpt>
      <trkpt lat="46.14163" lon="2.48199">
        <ele>440</ele>
        <time>2015-04-20T15:38:50Z</time>
      </trkpt>
      <trkpt lat="46.14165" lon="2.48198">
        <ele>440</ele>
        <time>2015-04-20T15:38:52Z</time>
      </trkpt>
      <trkpt lat="46.14168" lon="2.48198">
        <ele>440</ele>
        <time>2015-04-20T15:38:54Z</time>
      </trkpt>
      <trkpt lat="46.14171" lon="2.48197">
        <ele>440</ele>
        <time>2015-04-20T15:38:56Z</time>
      </trkpt>
      <trkpt lat="46.14174" lon="2.48197">
        <ele>440</ele>
        <time>2015-04-20T15:38:58Z</time>
      </trkpt>
      <trkpt lat="46.14177" lon="2.48196">
        <ele>440</ele>
        <time>2015-04-20T15:39:00Z</time>
      </trkpt>
      <trkpt lat="46.14179" lon="2.48195">
        <ele>440</ele>
        <time>2015-04-20T15:39:02Z</time>
      </trkpt>
      <trkpt lat="46.14182" lon="2.48196">
        <ele>440</ele>
        <time>2015-04-20T15:39:04Z</time>
      </trkpt>
      <trkpt lat="46.14184" lon="2.48196">
        <ele>440</ele>
        <time>2015-04-20T15:39:06Z</time>
      </trkpt>
      <trkpt lat="46.14187" lon="2.48196">
        <ele>440</ele>
        <time>2015-04-20T15:39:08Z</time>
      </trkpt>
      <trkpt lat="46.14189" lon="2.48196">
        <ele>440</ele>
        <time>2015-04-20T15:39:10Z</time>
      </trkpt>
      <trkpt lat="46.14191" lon="2.48196">
        <ele>440</ele>
        <time>2015-04-20T15:39:12Z</time>
      </trkpt>
      <trkpt lat="46.14195" lon="2.48197">
        <ele>440</ele>
        <time>2015-04-20T15:39:15Z</time>
      </trkpt>
      <trkpt lat="46.14196" lon="2.48197">
        <ele>440</ele>
        <time>2015-04-20T15:39:17Z</time>
      </trkpt>
      <trkpt lat="46.14197" lon="2.48199">
        <ele>440</ele>
        <time>2015-04-20T15:39:19Z</time>
      </trkpt>
      <trkpt lat="46.142" lon="2.482">
        <ele>440</ele>
        <time>2015-04-20T15:39:21Z</time>
      </trkpt>
      <trkpt lat="46.14202" lon="2.482">
        <ele>440</ele>
        <time>2015-04-20T15:39:23Z</time>
      </trkpt>
      <trkpt lat="46.14204" lon="2.48199">
        <ele>440</ele>
        <time>2015-04-20T15:39:25Z</time>
      </trkpt>
      <trkpt lat="46.14207" lon="2.48198">
        <ele>440</ele>
        <time>2015-04-20T15:39:27Z</time>
      </trkpt>
      <trkpt lat="46.1421" lon="2.48195">
        <ele>440</ele>
        <time>2015-04-20T15:39:29Z</time>
      </trkpt>
      <trkpt lat="46.14213" lon="2.48193">
        <ele>440</ele>
        <time>2015-04-20T15:39:31Z</time>
      </trkpt>
      <trkpt lat="46.14214" lon="2.4819">
        <ele>440</ele>
        <time>2015-04-20T15:39:33Z</time>
      </trkpt>
      <trkpt lat="46.14216" lon="2.48188">
        <ele>440</ele>
        <time>2015-04-20T15:39:35Z</time>
      </trkpt>
      <trkpt lat="46.14217" lon="2.48184">
        <ele>440</ele>
        <time>2015-04-20T15:39:37Z</time>
      </trkpt>
      <trkpt lat="46.14219" lon="2.48182">
        <ele>440</ele>
        <time>2015-04-20T15:39:39Z</time>
      </trkpt>
      <trkpt lat="46.1422" lon="2.48179">
        <ele>440</ele>
        <time>2015-04-20T15:39:41Z</time>
      </trkpt>
      <trkpt lat="46.14222" lon="2.48176">
        <ele>440</ele>
        <time>2015-04-20T15:39:43Z</time>
      </trkpt>
      <trkpt lat="46.14223" lon="2.48172">
        <ele>440</ele>
        <time>2015-04-20T15:39:45Z</time>
      </trkpt>
      <trkpt lat="46.14225" lon="2.48167">
        <ele>440</ele>
        <time>2015-04-20T15:39:48Z</time>
      </trkpt>
      <trkpt lat="46.14227" lon="2.48164">
        <ele>440</ele>
        <time>2015-04-20T15:39:50Z</time>
      </trkpt>
      <trkpt lat="46.14228" lon="2.48161">
        <ele>440</ele>
        <time>2015-04-20T15:39:52Z</time>
      </trkpt>
      <trkpt lat="46.14229" lon="2.48158">
        <ele>440</ele>
        <time>2015-04-20T15:39:54Z</time>
      </trkpt>
      <trkpt lat="46.14231" lon="2.48154">
        <ele>440</ele>
        <time>2015-04-20T15:39:56Z</time>
      </trkpt>
      <trkpt lat="46.14231" lon="2.48151">
        <ele>440</ele>
        <time>2015-04-20T15:39:58Z</time>
      </trkpt>
      <trkpt lat="46.14232" lon="2.48148">
        <ele>440</ele>
        <time>2015-04-20T15:40:00Z</time>
      </trkpt>
      <trkpt lat="46.14234" lon="2.48144">
        <ele>441</ele>
        <time>2015-04-20T15:40:02Z</time>
      </trkpt>
      <trkpt lat="46.14235" lon="2.4814">
        <ele>443</ele>
        <time>2015-04-20T15:40:04Z</time>
      </trkpt>
      <trkpt lat="46.14236" lon="2.48135">
        <ele>445</ele>
        <time>2015-04-20T15:40:06Z</time>
      </trkpt>
      <trkpt lat="46.14237" lon="2.48132">
        <ele>446</ele>
        <time>2015-04-20T15:40:08Z</time>
      </trkpt>
      <trkpt lat="46.14239" lon="2.48129">
        <ele>447</ele>
        <time>2015-04-20T15:40:10Z</time>
      </trkpt>
      <trkpt lat="46.14241" lon="2.48127">
        <ele>448</ele>
        <time>2015-04-20T15:40:12Z</time>
      </trkpt>
      <trkpt lat="46.14243" lon="2.48124">
        <ele>448</ele>
        <time>2015-04-20T15:40:14Z</time>
      </trkpt>
      <trkpt lat="46.14244" lon="2.4812">
        <ele>448</ele>
        <time>2015-04-20T15:40:16Z</time>
      </trkpt>
      <trkpt lat="46.14245" lon="2.48116">
        <ele>448</ele>
        <time>2015-04-20T15:40:18Z</time>
      </trkpt>
      <trkpt lat="46.14247" lon="2.48112">
        <ele>448</ele>
        <time>2015-04-20T15:40:20Z</time>
      </trkpt>
      <trkpt lat="46.14249" lon="2.48109">
        <ele>448</ele>
        <time>2015-04-20T15:40:22Z</time>
      </trkpt>
      <trkpt lat="46.14252" lon="2.48104">
        <ele>448</ele>
        <time>2015-04-20T15:40:25Z</time>
      </trkpt>
      <trkpt lat="46.14254" lon="2.48101">
        <ele>447</ele>
        <time>2015-04-20T15:40:27Z</time>
      </trkpt>
      <trkpt lat="46.14256" lon="2.48097">
        <ele>446</ele>
        <time>2015-04-20T15:40:29Z</time>
      </trkpt>
      <trkpt lat="46.14259" lon="2.48094">
        <ele>444</ele>
        <time>2015-04-20T15:40:32Z</time>
      </trkpt>
      <trkpt lat="46.14262" lon="2.48091">
        <ele>443</ele>
        <time>2015-04-20T15:40:34Z</time>
      </trkpt>
      <trkpt lat="46.14264" lon="2.48088">
        <ele>442</ele>
        <time>2015-04-20T15:40:36Z</time>
      </trkpt>
      <trkpt lat="46.14266" lon="2.48085">
        <ele>442</ele>
        <time>2015-04-20T15:40:38Z</time>
      </trkpt>
      <trkpt lat="46.14267" lon="2.48082">
        <ele>441</ele>
        <time>2015-04-20T15:40:40Z</time>
      </trkpt>
      <trkpt lat="46.1427" lon="2.48079">
        <ele>440</ele>
        <time>2015-04-20T15:40:42Z</time>
      </trkpt>
      <trkpt lat="46.14272" lon="2.48077">
        <ele>438</ele>
        <time>2015-04-20T15:40:44Z</time>
      </trkpt>
      <trkpt lat="46.14273" lon="2.48074">
        <ele>437</ele>
        <time>2015-04-20T15:40:46Z</time>
      </trkpt>
      <trkpt lat="46.14276" lon="2.4807">
        <ele>437</ele>
        <time>2015-04-20T15:40:49Z</time>
      </trkpt>
      <trkpt lat="46.14278" lon="2.48067">
        <ele>437</ele>
        <time>2015-04-20T15:40:51Z</time>
      </trkpt>
      <trkpt lat="46.14281" lon="2.48063">
        <ele>437</ele>
        <time>2015-04-20T15:40:54Z</time>
      </trkpt>
      <trkpt lat="46.14283" lon="2.4806">
        <ele>437</ele>
        <time>2015-04-20T15:40:56Z</time>
      </trkpt>
      <trkpt lat="46.14285" lon="2.48058">
        <ele>437</ele>
        <time>2015-04-20T15:40:58Z</time>
      </trkpt>
      <trkpt lat="46.14287" lon="2.48055">
        <ele>437</ele>
        <time>2015-04-20T15:41:00Z</time>
      </trkpt>
      <trkpt lat="46.1429" lon="2.48051">
        <ele>437</ele>
        <time>2015-04-20T15:41:03Z</time>
      </trkpt>
      <trkpt lat="46.14293" lon="2.48047">
        <ele>437</ele>
        <time>2015-04-20T15:41:06Z</time>
      </trkpt>
      <trkpt lat="46.14294" lon="2.48045">
        <ele>437</ele>
        <time>2015-04-20T15:41:08Z</time>
      </trkpt>
      <trkpt lat="46.14296" lon="2.48044">
        <ele>437</ele>
        <time>2015-04-20T15:41:10Z</time>
      </trkpt>
      <trkpt lat="46.14299" lon="2.48044">
        <ele>437</ele>
        <time>2015-04-20T15:41:12Z</time>
      </trkpt>
      <trkpt lat="46.14302" lon="2.48043">
        <ele>438</ele>
        <time>2015-04-20T15:41:14Z</time>
      </trkpt>
      <trkpt lat="46.14304" lon="2.48043">
        <ele>438</ele>
        <time>2015-04-20T15:41:16Z</time>
      </trkpt>
      <trkpt lat="46.14307" lon="2.48043">
        <ele>439</ele>
        <time>2015-04-20T15:41:18Z</time>
      </trkpt>
      <trkpt lat="46.1431" lon="2.48044">
        <ele>440</ele>
        <time>2015-04-20T15:41:21Z</time>
      </trkpt>
      <trkpt lat="46.14312" lon="2.48044">
        <ele>440</ele>
        <time>2015-04-20T15:41:23Z</time>
      </trkpt>
      <trkpt lat="46.14315" lon="2.48045">
        <ele>441</ele>
        <time>2015-04-20T15:41:25Z</time>
      </trkpt>
      <trkpt lat="46.14317" lon="2.48047">
        <ele>441</ele>
        <time>2015-04-20T15:41:27Z</time>
      </trkpt>
      <trkpt lat="46.1432" lon="2.48048">
        <ele>442</ele>
        <time>2015-04-20T15:41:29Z</time>
      </trkpt>
      <trkpt lat="46.14322" lon="2.4805">
        <ele>442</ele>
        <time>2015-04-20T15:41:31Z</time>
      </trkpt>
      <trkpt lat="46.14325" lon="2.48051">
        <ele>444</ele>
        <time>2015-04-20T15:41:34Z</time>
      </trkpt>
      <trkpt lat="46.14326" lon="2.48053">
        <ele>445</ele>
        <time>2015-04-20T15:41:36Z</time>
      </trkpt>
      <trkpt lat="46.14329" lon="2.48054">
        <ele>447</ele>
        <time>2015-04-20T15:41:38Z</time>
      </trkpt>
      <trkpt lat="46.14331" lon="2.48056">
        <ele>449</ele>
        <time>2015-04-20T15:41:40Z</time>
      </trkpt>
      <trkpt lat="46.14333" lon="2.48056">
        <ele>449</ele>
        <time>2015-04-20T15:41:42Z</time>
      </trkpt>
      <trkpt lat="46.14334" lon="2.48058">
        <ele>450</ele>
        <time>2015-04-20T15:41:44Z</time>
      </trkpt>
      <trkpt lat="46.14336" lon="2.48059">
        <ele>450</ele>
        <time>2015-04-20T15:41:46Z</time>
      </trkpt>
      <trkpt lat="46.14337" lon="2.4806">
        <ele>450</ele>
        <time>2015-04-20T15:41:49Z</time>
      </trkpt>
      <trkpt lat="46.14338" lon="2.48062">
        <ele>450</ele>
        <time>2015-04-20T15:41:53Z</time>
      </trkpt>
      <trkpt lat="46.14339" lon="2.48063">
        <ele>450</ele>
        <time>2015-04-20T15:41:55Z</time>
      </trkpt>
      <trkpt lat="46.14341" lon="2.48064">
        <ele>450</ele>
        <time>2015-04-20T15:41:57Z</time>
      </trkpt>
      <trkpt lat="46.14342" lon="2.48065">
        <ele>450</ele>
        <time>2015-04-20T15:41:59Z</time>
      </trkpt>
      <trkpt lat="46.14344" lon="2.48067">
        <ele>450</ele>
        <time>2015-04-20T15:42:01Z</time>
      </trkpt>
      <trkpt lat="46.14346" lon="2.48069">
        <ele>451</ele>
        <time>2015-04-20T15:42:04Z</time>
      </trkpt>
      <trkpt lat="46.14348" lon="2.48071">
        <ele>451</ele>
        <time>2015-04-20T15:42:06Z</time>
      </trkpt>
      <trkpt lat="46.14351" lon="2.48073">
        <ele>451</ele>
        <time>2015-04-20T15:42:08Z</time>
      </trkpt>
      <trkpt lat="46.14352" lon="2.48075">
        <ele>451</ele>
        <time>2015-04-20T15:42:10Z</time>
      </trkpt>
      <trkpt lat="46.14355" lon="2.48078">
        <ele>451</ele>
        <time>2015-04-20T15:42:12Z</time>
      </trkpt>
      <trkpt lat="46.14357" lon="2.4808">
        <ele>451</ele>
        <time>2015-04-20T15:42:14Z</time>
      </trkpt>
      <trkpt lat="46.14358" lon="2.48082">
        <ele>452</ele>
        <time>2015-04-20T15:42:16Z</time>
      </trkpt>
      <trkpt lat="46.1436" lon="2.48083">
        <ele>452</ele>
        <time>2015-04-20T15:42:18Z</time>
      </trkpt>
      <trkpt lat="46.14362" lon="2.48085">
        <ele>452</ele>
        <time>2015-04-20T15:42:20Z</time>
      </trkpt>
      <trkpt lat="46.14363" lon="2.48087">
        <ele>452</ele>
        <time>2015-04-20T15:42:22Z</time>
      </trkpt>
      <trkpt lat="46.14365" lon="2.48088">
        <ele>452</ele>
        <time>2015-04-20T15:42:24Z</time>
      </trkpt>
      <trkpt lat="46.14367" lon="2.48091">
        <ele>452</ele>
        <time>2015-04-20T15:42:26Z</time>
      </trkpt>
      <trkpt lat="46.14368" lon="2.48093">
        <ele>452</ele>
        <time>2015-04-20T15:42:28Z</time>
      </trkpt>
      <trkpt lat="46.14371" lon="2.48096">
        <ele>452</ele>
        <time>2015-04-20T15:42:30Z</time>
      </trkpt>
      <trkpt lat="46.14373" lon="2.48098">
        <ele>452</ele>
        <time>2015-04-20T15:42:32Z</time>
      </trkpt>
      <trkpt lat="46.14377" lon="2.48101">
        <ele>452</ele>
        <time>2015-04-20T15:42:35Z</time>
      </trkpt>
      <trkpt lat="46.14379" lon="2.48105">
        <ele>452</ele>
        <time>2015-04-20T15:42:37Z</time>
      </trkpt>
      <trkpt lat="46.1438" lon="2.48107">
        <ele>452</ele>
        <time>2015-04-20T15:42:39Z</time>
      </trkpt>
      <trkpt lat="46.14381" lon="2.48109">
        <ele>452</ele>
        <time>2015-04-20T15:42:41Z</time>
      </trkpt>
      <trkpt lat="46.14383" lon="2.48112">
        <ele>452</ele>
        <time>2015-04-20T15:42:43Z</time>
      </trkpt>
      <trkpt lat="46.14385" lon="2.48113">
        <ele>452</ele>
        <time>2015-04-20T15:42:45Z</time>
      </trkpt>
      <trkpt lat="46.14388" lon="2.48114">
        <ele>452</ele>
        <time>2015-04-20T15:42:47Z</time>
      </trkpt>
      <trkpt lat="46.14391" lon="2.48115">
        <ele>452</ele>
        <time>2015-04-20T15:42:49Z</time>
      </trkpt>
      <trkpt lat="46.14393" lon="2.48116">
        <ele>453</ele>
        <time>2015-04-20T15:42:51Z</time>
      </trkpt>
      <trkpt lat="46.14395" lon="2.48117">
        <ele>453</ele>
        <time>2015-04-20T15:42:53Z</time>
      </trkpt>
      <trkpt lat="46.14398" lon="2.4812">
        <ele>454</ele>
        <time>2015-04-20T15:42:56Z</time>
      </trkpt>
      <trkpt lat="46.144" lon="2.4812">
        <ele>454</ele>
        <time>2015-04-20T15:42:58Z</time>
      </trkpt>
      <trkpt lat="46.14402" lon="2.48121">
        <ele>454</ele>
        <time>2015-04-20T15:43:00Z</time>
      </trkpt>
      <trkpt lat="46.14405" lon="2.48123">
        <ele>454</ele>
        <time>2015-04-20T15:43:03Z</time>
      </trkpt>
      <trkpt lat="46.14407" lon="2.48125">
        <ele>455</ele>
        <time>2015-04-20T15:43:05Z</time>
      </trkpt>
      <trkpt lat="46.14409" lon="2.48126">
        <ele>455</ele>
        <time>2015-04-20T15:43:07Z</time>
      </trkpt>
      <trkpt lat="46.14411" lon="2.48128">
        <ele>455</ele>
        <time>2015-04-20T15:43:09Z</time>
      </trkpt>
      <trkpt lat="46.14413" lon="2.4813">
        <ele>455</ele>
        <time>2015-04-20T15:43:11Z</time>
      </trkpt>
      <trkpt lat="46.14415" lon="2.48132">
        <ele>455</ele>
        <time>2015-04-20T15:43:13Z</time>
      </trkpt>
      <trkpt lat="46.14418" lon="2.48133">
        <ele>455</ele>
        <time>2015-04-20T15:43:16Z</time>
      </trkpt>
      <trkpt lat="46.1442" lon="2.48135">
        <ele>456</ele>
        <time>2015-04-20T15:43:18Z</time>
      </trkpt>
      <trkpt lat="46.14421" lon="2.48136">
        <ele>457</ele>
        <time>2015-04-20T15:43:20Z</time>
      </trkpt>
      <trkpt lat="46.14423" lon="2.48137">
        <ele>457</ele>
        <time>2015-04-20T15:43:22Z</time>
      </trkpt>
      <trkpt lat="46.14425" lon="2.48138">
        <ele>458</ele>
        <time>2015-04-20T15:43:24Z</time>
      </trkpt>
      <trkpt lat="46.14426" lon="2.4814">
        <ele>459</ele>
        <time>2015-04-20T15:43:26Z</time>
      </trkpt>
      <trkpt lat="46.14428" lon="2.48143">
        <ele>459</ele>
        <time>2015-04-20T15:43:29Z</time>
      </trkpt>
      <trkpt lat="46.14429" lon="2.48144">
        <ele>460</ele>
        <time>2015-04-20T15:43:31Z</time>
      </trkpt>
      <trkpt lat="46.14431" lon="2.48146">
        <ele>460</ele>
        <time>2015-04-20T15:43:33Z</time>
      </trkpt>
      <trkpt lat="46.14432" lon="2.48147">
        <ele>460</ele>
        <time>2015-04-20T15:43:35Z</time>
      </trkpt>
      <trkpt lat="46.14433" lon="2.48149">
        <ele>460</ele>
        <time>2015-04-20T15:43:37Z</time>
      </trkpt>
      <trkpt lat="46.14434" lon="2.48151">
        <ele>460</ele>
        <time>2015-04-20T15:43:39Z</time>
      </trkpt>
      <trkpt lat="46.14436" lon="2.48152">
        <ele>461</ele>
        <time>2015-04-20T15:43:41Z</time>
      </trkpt>
      <trkpt lat="46.14437" lon="2.48153">
        <ele>461</ele>
        <time>2015-04-20T15:43:43Z</time>
      </trkpt>
      <trkpt lat="46.14439" lon="2.48155">
        <ele>461</ele>
        <time>2015-04-20T15:43:45Z</time>
      </trkpt>
      <trkpt lat="46.1444" lon="2.48157">
        <ele>462</ele>
        <time>2015-04-20T15:43:47Z</time>
      </trkpt>
      <trkpt lat="46.14442" lon="2.48158">
        <ele>463</ele>
        <time>2015-04-20T15:43:49Z</time>
      </trkpt>
      <trkpt lat="46.14443" lon="2.4816">
        <ele>463</ele>
        <time>2015-04-20T15:43:51Z</time>
      </trkpt>
      <trkpt lat="46.14445" lon="2.48162">
        <ele>464</ele>
        <time>2015-04-20T15:43:53Z</time>
      </trkpt>
      <trkpt lat="46.14447" lon="2.48163">
        <ele>464</ele>
        <time>2015-04-20T15:43:55Z</time>
      </trkpt>
      <trkpt lat="46.14448" lon="2.48164">
        <ele>465</ele>
        <time>2015-04-20T15:43:57Z</time>
      </trkpt>
      <trkpt lat="46.1445" lon="2.48165">
        <ele>465</ele>
        <time>2015-04-20T15:43:59Z</time>
      </trkpt>
      <trkpt lat="46.14451" lon="2.48167">
        <ele>466</ele>
        <time>2015-04-20T15:44:01Z</time>
      </trkpt>
      <trkpt lat="46.14452" lon="2.48168">
        <ele>466</ele>
        <time>2015-04-20T15:44:03Z</time>
      </trkpt>
      <trkpt lat="46.14454" lon="2.4817">
        <ele>466</ele>
        <time>2015-04-20T15:44:05Z</time>
      </trkpt>
      <trkpt lat="46.14456" lon="2.48172">
        <ele>466</ele>
        <time>2015-04-20T15:44:07Z</time>
      </trkpt>
      <trkpt lat="46.14458" lon="2.48174">
        <ele>467</ele>
        <time>2015-04-20T15:44:09Z</time>
      </trkpt>
      <trkpt lat="46.1446" lon="2.48176">
        <ele>468</ele>
        <time>2015-04-20T15:44:11Z</time>
      </trkpt>
      <trkpt lat="46.14462" lon="2.48177">
        <ele>468</ele>
        <time>2015-04-20T15:44:13Z</time>
      </trkpt>
      <trkpt lat="46.14464" lon="2.48179">
        <ele>469</ele>
        <time>2015-04-20T15:44:15Z</time>
      </trkpt>
      <trkpt lat="46.14466" lon="2.48181">
        <ele>469</ele>
        <time>2015-04-20T15:44:18Z</time>
      </trkpt>
      <trkpt lat="46.14468" lon="2.48182">
        <ele>469</ele>
        <time>2015-04-20T15:44:20Z</time>
      </trkpt>
      <trkpt lat="46.1447" lon="2.48183">
        <ele>469</ele>
        <time>2015-04-20T15:44:22Z</time>
      </trkpt>
      <trkpt lat="46.14473" lon="2.48185">
        <ele>469</ele>
        <time>2015-04-20T15:44:25Z</time>
      </trkpt>
      <trkpt lat="46.14475" lon="2.48186">
        <ele>469</ele>
        <time>2015-04-20T15:44:27Z</time>
      </trkpt>
      <trkpt lat="46.14477" lon="2.48187">
        <ele>469</ele>
        <time>2015-04-20T15:44:29Z</time>
      </trkpt>
      <trkpt lat="46.14479" lon="2.48187">
        <ele>469</ele>
        <time>2015-04-20T15:44:31Z</time>
      </trkpt>
      <trkpt lat="46.14482" lon="2.48189">
        <ele>470</ele>
        <time>2015-04-20T15:44:34Z</time>
      </trkpt>
      <trkpt lat="46.14483" lon="2.4819">
        <ele>471</ele>
        <time>2015-04-20T15:44:36Z</time>
      </trkpt>
      <trkpt lat="46.14485" lon="2.48191">
        <ele>472</ele>
        <time>2015-04-20T15:44:38Z</time>
      </trkpt>
      <trkpt lat="46.14487" lon="2.48193">
        <ele>472</ele>
        <time>2015-04-20T15:44:40Z</time>
      </trkpt>
      <trkpt lat="46.14489" lon="2.48194">
        <ele>472</ele>
        <time>2015-04-20T15:44:42Z</time>
      </trkpt>
      <trkpt lat="46.14492" lon="2.48195">
        <ele>472</ele>
        <time>2015-04-20T15:44:44Z</time>
      </trkpt>
      <trkpt lat="46.14494" lon="2.48196">
        <ele>473</ele>
        <time>2015-04-20T15:44:46Z</time>
      </trkpt>
      <trkpt lat="46.14497" lon="2.48199">
        <ele>473</ele>
        <time>2015-04-20T15:44:49Z</time>
      </trkpt>
      <trkpt lat="46.14499" lon="2.482">
        <ele>473</ele>
        <time>2015-04-20T15:44:51Z</time>
      </trkpt>
      <trkpt lat="46.14502" lon="2.48202">
        <ele>473</ele>
        <time>2015-04-20T15:44:53Z</time>
      </trkpt>
      <trkpt lat="46.14503" lon="2.48204">
        <ele>474</ele>
        <time>2015-04-20T15:44:55Z</time>
      </trkpt>
      <trkpt lat="46.14506" lon="2.48206">
        <ele>475</ele>
        <time>2015-04-20T15:44:57Z</time>
      </trkpt>
      <trkpt lat="46.14508" lon="2.48208">
        <ele>475</ele>
        <time>2015-04-20T15:44:59Z</time>
      </trkpt>
      <trkpt lat="46.14509" lon="2.4821">
        <ele>475</ele>
        <time>2015-04-20T15:45:01Z</time>
      </trkpt>
      <trkpt lat="46.14512" lon="2.48212">
        <ele>475</ele>
        <time>2015-04-20T15:45:03Z</time>
      </trkpt>
      <trkpt lat="46.14514" lon="2.48214">
        <ele>475</ele>
        <time>2015-04-20T15:45:05Z</time>
      </trkpt>
      <trkpt lat="46.14516" lon="2.48215">
        <ele>475</ele>
        <time>2015-04-20T15:45:07Z</time>
      </trkpt>
      <trkpt lat="46.14518" lon="2.48217">
        <ele>475</ele>
        <time>2015-04-20T15:45:09Z</time>
      </trkpt>
      <trkpt lat="46.14519" lon="2.48219">
        <ele>475</ele>
        <time>2015-04-20T15:45:11Z</time>
      </trkpt>
      <trkpt lat="46.14521" lon="2.48221">
        <ele>475</ele>
        <time>2015-04-20T15:45:13Z</time>
      </trkpt>
      <trkpt lat="46.14523" lon="2.48222">
        <ele>475</ele>
        <time>2015-04-20T15:45:15Z</time>
      </trkpt>
      <trkpt lat="46.14525" lon="2.48224">
        <ele>475</ele>
        <time>2015-04-20T15:45:17Z</time>
      </trkpt>
      <trkpt lat="46.14528" lon="2.48226">
        <ele>475</ele>
        <time>2015-04-20T15:45:20Z</time>
      </trkpt>
      <trkpt lat="46.1453" lon="2.48229">
        <ele>475</ele>
        <time>2015-04-20T15:45:22Z</time>
      </trkpt>
      <trkpt lat="46.14532" lon="2.48231">
        <ele>475</ele>
        <time>2015-04-20T15:45:24Z</time>
      </trkpt>
      <trkpt lat="46.14536" lon="2.48233">
        <ele>475</ele>
        <time>2015-04-20T15:45:26Z</time>
      </trkpt>
      <trkpt lat="46.14538" lon="2.48235">
        <ele>475</ele>
        <time>2015-04-20T15:45:28Z</time>
      </trkpt>
      <trkpt lat="46.14541" lon="2.48237">
        <ele>475</ele>
        <time>2015-04-20T15:45:31Z</time>
      </trkpt>
      <trkpt lat="46.14544" lon="2.48238">
        <ele>475</ele>
        <time>2015-04-20T15:45:33Z</time>
      </trkpt>
      <trkpt lat="46.14547" lon="2.4824">
        <ele>475</ele>
        <time>2015-04-20T15:45:35Z</time>
      </trkpt>
      <trkpt lat="46.14549" lon="2.48242">
        <ele>475</ele>
        <time>2015-04-20T15:45:37Z</time>
      </trkpt>
      <trkpt lat="46.14551" lon="2.48245">
        <ele>475</ele>
        <time>2015-04-20T15:45:39Z</time>
      </trkpt>
      <trkpt lat="46.14554" lon="2.48247">
        <ele>475</ele>
        <time>2015-04-20T15:45:41Z</time>
      </trkpt>
      <trkpt lat="46.14557" lon="2.48251">
        <ele>476</ele>
        <time>2015-04-20T15:45:44Z</time>
      </trkpt>
      <trkpt lat="46.1456" lon="2.48253">
        <ele>476</ele>
        <time>2015-04-20T15:45:46Z</time>
      </trkpt>
      <trkpt lat="46.14562" lon="2.48254">
        <ele>476</ele>
        <time>2015-04-20T15:45:48Z</time>
      </trkpt>
      <trkpt lat="46.14566" lon="2.48256">
        <ele>476</ele>
        <time>2015-04-20T15:45:51Z</time>
      </trkpt>
      <trkpt lat="46.14568" lon="2.48258">
        <ele>476</ele>
        <time>2015-04-20T15:45:53Z</time>
      </trkpt>
      <trkpt lat="46.1457" lon="2.4826">
        <ele>476</ele>
        <time>2015-04-20T15:45:55Z</time>
      </trkpt>
      <trkpt lat="46.14573" lon="2.48262">
        <ele>476</ele>
        <time>2015-04-20T15:45:57Z</time>
      </trkpt>
      <trkpt lat="46.14575" lon="2.48264">
        <ele>476</ele>
        <time>2015-04-20T15:45:59Z</time>
      </trkpt>
      <trkpt lat="46.14579" lon="2.48266">
        <ele>476</ele>
        <time>2015-04-20T15:46:02Z</time>
      </trkpt>
      <trkpt lat="46.14581" lon="2.48268">
        <ele>476</ele>
        <time>2015-04-20T15:46:04Z</time>
      </trkpt>
      <trkpt lat="46.14584" lon="2.4827">
        <ele>476</ele>
        <time>2015-04-20T15:46:06Z</time>
      </trkpt>
      <trkpt lat="46.14587" lon="2.48271">
        <ele>476</ele>
        <time>2015-04-20T15:46:09Z</time>
      </trkpt>
      <trkpt lat="46.14589" lon="2.48273">
        <ele>476</ele>
        <time>2015-04-20T15:46:11Z</time>
      </trkpt>
      <trkpt lat="46.14592" lon="2.48274">
        <ele>476</ele>
        <time>2015-04-20T15:46:13Z</time>
      </trkpt>
      <trkpt lat="46.14595" lon="2.48277">
        <ele>476</ele>
        <time>2015-04-20T15:46:16Z</time>
      </trkpt>
      <trkpt lat="46.14598" lon="2.48279">
        <ele>476</ele>
        <time>2015-04-20T15:46:18Z</time>
      </trkpt>
      <trkpt lat="46.146" lon="2.48282">
        <ele>476</ele>
        <time>2015-04-20T15:46:20Z</time>
      </trkpt>
      <trkpt lat="46.14603" lon="2.48283">
        <ele>476</ele>
        <time>2015-04-20T15:46:22Z</time>
      </trkpt>
      <trkpt lat="46.14606" lon="2.48284">
        <ele>476</ele>
        <time>2015-04-20T15:46:24Z</time>
      </trkpt>
      <trkpt lat="46.14608" lon="2.48286">
        <ele>476</ele>
        <time>2015-04-20T15:46:26Z</time>
      </trkpt>
      <trkpt lat="46.14611" lon="2.48288">
        <ele>476</ele>
        <time>2015-04-20T15:46:28Z</time>
      </trkpt>
      <trkpt lat="46.14613" lon="2.48289">
        <ele>476</ele>
        <time>2015-04-20T15:46:30Z</time>
      </trkpt>
      <trkpt lat="46.14616" lon="2.4829">
        <ele>476</ele>
        <time>2015-04-20T15:46:32Z</time>
      </trkpt>
      <trkpt lat="46.14619" lon="2.48291">
        <ele>476</ele>
        <time>2015-04-20T15:46:34Z</time>
      </trkpt>
      <trkpt lat="46.14622" lon="2.48292">
        <ele>476</ele>
        <time>2015-04-20T15:46:37Z</time>
      </trkpt>
      <trkpt lat="46.14625" lon="2.48292">
        <ele>477</ele>
        <time>2015-04-20T15:46:39Z</time>
      </trkpt>
      <trkpt lat="46.14627" lon="2.48293">
        <ele>477</ele>
        <time>2015-04-20T15:46:41Z</time>
      </trkpt>
      <trkpt lat="46.1463" lon="2.48294">
        <ele>477</ele>
        <time>2015-04-20T15:46:44Z</time>
      </trkpt>
      <trkpt lat="46.14633" lon="2.48294">
        <ele>477</ele>
        <time>2015-04-20T15:46:46Z</time>
      </trkpt>
      <trkpt lat="46.14636" lon="2.48295">
        <ele>478</ele>
        <time>2015-04-20T15:46:49Z</time>
      </trkpt>
      <trkpt lat="46.14639" lon="2.48295">
        <ele>478</ele>
        <time>2015-04-20T15:46:51Z</time>
      </trkpt>
      <trkpt lat="46.14641" lon="2.48295">
        <ele>479</ele>
        <time>2015-04-20T15:46:53Z</time>
      </trkpt>
      <trkpt lat="46.14643" lon="2.48293">
        <ele>479</ele>
        <time>2015-04-20T15:46:55Z</time>
      </trkpt>
      <trkpt lat="46.14646" lon="2.48293">
        <ele>480</ele>
        <time>2015-04-20T15:46:57Z</time>
      </trkpt>
      <trkpt lat="46.14649" lon="2.48292">
        <ele>480</ele>
        <time>2015-04-20T15:46:59Z</time>
      </trkpt>
      <trkpt lat="46.14651" lon="2.48292">
        <ele>480</ele>
        <time>2015-04-20T15:47:01Z</time>
      </trkpt>
      <trkpt lat="46.14654" lon="2.48292">
        <ele>481</ele>
        <time>2015-04-20T15:47:03Z</time>
      </trkpt>
      <trkpt lat="46.14657" lon="2.48291">
        <ele>481</ele>
        <time>2015-04-20T15:47:05Z</time>
      </trkpt>
      <trkpt lat="46.1466" lon="2.4829">
        <ele>481</ele>
        <time>2015-04-20T15:47:07Z</time>
      </trkpt>
      <trkpt lat="46.14663" lon="2.4829">
        <ele>481</ele>
        <time>2015-04-20T15:47:09Z</time>
      </trkpt>
      <trkpt lat="46.14666" lon="2.48288">
        <ele>481</ele>
        <time>2015-04-20T15:47:11Z</time>
      </trkpt>
      <trkpt lat="46.14669" lon="2.48287">
        <ele>481</ele>
        <time>2015-04-20T15:47:13Z</time>
      </trkpt>
      <trkpt lat="46.14672" lon="2.48285">
        <ele>482</ele>
        <time>2015-04-20T15:47:16Z</time>
      </trkpt>
      <trkpt lat="46.14675" lon="2.48285">
        <ele>482</ele>
        <time>2015-04-20T15:47:18Z</time>
      </trkpt>
      <trkpt lat="46.14678" lon="2.48284">
        <ele>482</ele>
        <time>2015-04-20T15:47:20Z</time>
      </trkpt>
      <trkpt lat="46.1468" lon="2.48283">
        <ele>482</ele>
        <time>2015-04-20T15:47:22Z</time>
      </trkpt>
      <trkpt lat="46.14683" lon="2.48281">
        <ele>483</ele>
        <time>2015-04-20T15:47:24Z</time>
      </trkpt>
      <trkpt lat="46.14686" lon="2.48281">
        <ele>483</ele>
        <time>2015-04-20T15:47:26Z</time>
      </trkpt>
      <trkpt lat="46.14688" lon="2.4828">
        <ele>483</ele>
        <time>2015-04-20T15:47:28Z</time>
      </trkpt>
      <trkpt lat="46.14691" lon="2.48281">
        <ele>483</ele>
        <time>2015-04-20T15:47:30Z</time>
      </trkpt>
      <trkpt lat="46.14693" lon="2.4828">
        <ele>483</ele>
        <time>2015-04-20T15:47:32Z</time>
      </trkpt>
      <trkpt lat="46.14696" lon="2.4828">
        <ele>483</ele>
        <time>2015-04-20T15:47:34Z</time>
      </trkpt>
      <trkpt lat="46.14699" lon="2.4828">
        <ele>483</ele>
        <time>2015-04-20T15:47:36Z</time>
      </trkpt>
      <trkpt lat="46.14703" lon="2.48279">
        <ele>483</ele>
        <time>2015-04-20T15:47:38Z</time>
      </trkpt>
      <trkpt lat="46.14706" lon="2.48279">
        <ele>484</ele>
        <time>2015-04-20T15:47:40Z</time>
      </trkpt>
      <trkpt lat="46.14708" lon="2.48279">
        <ele>484</ele>
        <time>2015-04-20T15:47:42Z</time>
      </trkpt>
      <trkpt lat="46.14711" lon="2.48279">
        <ele>484</ele>
        <time>2015-04-20T15:47:44Z</time>
      </trkpt>
      <trkpt lat="46.14714" lon="2.48278">
        <ele>484</ele>
        <time>2015-04-20T15:47:46Z</time>
      </trkpt>
      <trkpt lat="46.14717" lon="2.48278">
        <ele>484</ele>
        <time>2015-04-20T15:47:49Z</time>
      </trkpt>
      <trkpt lat="46.1472" lon="2.48278">
        <ele>484</ele>
        <time>2015-04-20T15:47:51Z</time>
      </trkpt>
      <trkpt lat="46.14723" lon="2.48278">
        <ele>484</ele>
        <time>2015-04-20T15:47:53Z</time>
      </trkpt>
      <trkpt lat="46.14726" lon="2.48278">
        <ele>484</ele>
        <time>2015-04-20T15:47:55Z</time>
      </trkpt>
      <trkpt lat="46.14729" lon="2.48278">
        <ele>485</ele>
        <time>2015-04-20T15:47:57Z</time>
      </trkpt>
      <trkpt lat="46.14731" lon="2.48278">
        <ele>485</ele>
        <time>2015-04-20T15:47:59Z</time>
      </trkpt>
      <trkpt lat="46.14734" lon="2.48278">
        <ele>485</ele>
        <time>2015-04-20T15:48:01Z</time>
      </trkpt>
      <trkpt lat="46.14737" lon="2.48278">
        <ele>485</ele>
        <time>2015-04-20T15:48:03Z</time>
      </trkpt>
      <trkpt lat="46.1474" lon="2.48278">
        <ele>485</ele>
        <time>2015-04-20T15:48:05Z</time>
      </trkpt>
      <trkpt lat="46.14743" lon="2.48278">
        <ele>485</ele>
        <time>2015-04-20T15:48:07Z</time>
      </trkpt>
      <trkpt lat="46.14745" lon="2.48278">
        <ele>485</ele>
        <time>2015-04-20T15:48:09Z</time>
      </trkpt>
      <trkpt lat="46.14749" lon="2.48278">
        <ele>485</ele>
        <time>2015-04-20T15:48:11Z</time>
      </trkpt>
      <trkpt lat="46.14752" lon="2.48279">
        <ele>485</ele>
        <time>2015-04-20T15:48:13Z</time>
      </trkpt>
      <trkpt lat="46.14754" lon="2.48279">
        <ele>485</ele>
        <time>2015-04-20T15:48:15Z</time>
      </trkpt>
      <trkpt lat="46.14758" lon="2.48279">
        <ele>485</ele>
        <time>2015-04-20T15:48:17Z</time>
      </trkpt>
      <trkpt lat="46.14761" lon="2.4828">
        <ele>485</ele>
        <time>2015-04-20T15:48:19Z</time>
      </trkpt>
      <trkpt lat="46.14764" lon="2.4828">
        <ele>486</ele>
        <time>2015-04-20T15:48:21Z</time>
      </trkpt>
      <trkpt lat="46.14767" lon="2.4828">
        <ele>486</ele>
        <time>2015-04-20T15:48:23Z</time>
      </trkpt>
      <trkpt lat="46.1477" lon="2.48281">
        <ele>486</ele>
        <time>2015-04-20T15:48:25Z</time>
      </trkpt>
      <trkpt lat="46.14773" lon="2.48281">
        <ele>486</ele>
        <time>2015-04-20T15:48:27Z</time>
      </trkpt>
      <trkpt lat="46.14776" lon="2.48282">
        <ele>486</ele>
        <time>2015-04-20T15:48:29Z</time>
      </trkpt>
      <trkpt lat="46.14778" lon="2.48283">
        <ele>486</ele>
        <time>2015-04-20T15:48:31Z</time>
      </trkpt>
      <trkpt lat="46.14781" lon="2.48283">
        <ele>486</ele>
        <time>2015-04-20T15:48:33Z</time>
      </trkpt>
      <trkpt lat="46.14784" lon="2.48284">
        <ele>486</ele>
        <time>2015-04-20T15:48:35Z</time>
      </trkpt>
      <trkpt lat="46.14788" lon="2.48285">
        <ele>486</ele>
        <time>2015-04-20T15:48:37Z</time>
      </trkpt>
      <trkpt lat="46.1479" lon="2.48286">
        <ele>486</ele>
        <time>2015-04-20T15:48:39Z</time>
      </trkpt>
      <trkpt lat="46.14793" lon="2.48287">
        <ele>486</ele>
        <time>2015-04-20T15:48:41Z</time>
      </trkpt>
      <trkpt lat="46.14796" lon="2.48288">
        <ele>486</ele>
        <time>2015-04-20T15:48:43Z</time>
      </trkpt>
      <trkpt lat="46.14799" lon="2.48289">
        <ele>486</ele>
        <time>2015-04-20T15:48:45Z</time>
      </trkpt>
      <trkpt lat="46.14802" lon="2.4829">
        <ele>486</ele>
        <time>2015-04-20T15:48:47Z</time>
      </trkpt>
      <trkpt lat="46.14805" lon="2.48291">
        <ele>486</ele>
        <time>2015-04-20T15:48:49Z</time>
      </trkpt>
      <trkpt lat="46.14808" lon="2.48292">
        <ele>486</ele>
        <time>2015-04-20T15:48:51Z</time>
      </trkpt>
      <trkpt lat="46.14811" lon="2.48293">
        <ele>486</ele>
        <time>2015-04-20T15:48:53Z</time>
      </trkpt>
      <trkpt lat="46.14814" lon="2.48294">
        <ele>486</ele>
        <time>2015-04-20T15:48:55Z</time>
      </trkpt>
      <trkpt lat="46.14816" lon="2.48295">
        <ele>486</ele>
        <time>2015-04-20T15:48:57Z</time>
      </trkpt>
      <trkpt lat="46.14819" lon="2.48296">
        <ele>486</ele>
        <time>2015-04-20T15:48:59Z</time>
      </trkpt>
      <trkpt lat="46.14822" lon="2.48298">
        <ele>486</ele>
        <time>2015-04-20T15:49:01Z</time>
      </trkpt>
      <trkpt lat="46.14825" lon="2.48299">
        <ele>486</ele>
        <time>2015-04-20T15:49:03Z</time>
      </trkpt>
      <trkpt lat="46.14827" lon="2.48299">
        <ele>486</ele>
        <time>2015-04-20T15:49:05Z</time>
      </trkpt>
      <trkpt lat="46.1483" lon="2.48299">
        <ele>486</ele>
        <time>2015-04-20T15:49:07Z</time>
      </trkpt>
      <trkpt lat="46.14833" lon="2.48299">
        <ele>486</ele>
        <time>2015-04-20T15:49:09Z</time>
      </trkpt>
      <trkpt lat="46.14836" lon="2.48299">
        <ele>486</ele>
        <time>2015-04-20T15:49:11Z</time>
      </trkpt>
      <trkpt lat="46.14839" lon="2.483">
        <ele>486</ele>
        <time>2015-04-20T15:49:13Z</time>
      </trkpt>
      <trkpt lat="46.14842" lon="2.483">
        <ele>486</ele>
        <time>2015-04-20T15:49:15Z</time>
      </trkpt>
      <trkpt lat="46.14845" lon="2.48301">
        <ele>486</ele>
        <time>2015-04-20T15:49:17Z</time>
      </trkpt>
      <trkpt lat="46.14848" lon="2.48301">
        <ele>486</ele>
        <time>2015-04-20T15:49:19Z</time>
      </trkpt>
      <trkpt lat="46.14851" lon="2.483">
        <ele>486</ele>
        <time>2015-04-20T15:49:21Z</time>
      </trkpt>
      <trkpt lat="46.14854" lon="2.48299">
        <ele>486</ele>
        <time>2015-04-20T15:49:23Z</time>
      </trkpt>
      <trkpt lat="46.14856" lon="2.48297">
        <ele>486</ele>
        <time>2015-04-20T15:49:25Z</time>
      </trkpt>
      <trkpt lat="46.14859" lon="2.48295">
        <ele>486</ele>
        <time>2015-04-20T15:49:27Z</time>
      </trkpt>
      <trkpt lat="46.14861" lon="2.48292">
        <ele>486</ele>
        <time>2015-04-20T15:49:29Z</time>
      </trkpt>
      <trkpt lat="46.14864" lon="2.48289">
        <ele>486</ele>
        <time>2015-04-20T15:49:31Z</time>
      </trkpt>
      <trkpt lat="46.14865" lon="2.48286">
        <ele>486</ele>
        <time>2015-04-20T15:49:33Z</time>
      </trkpt>
      <trkpt lat="46.14867" lon="2.48283">
        <ele>486</ele>
        <time>2015-04-20T15:49:35Z</time>
      </trkpt>
      <trkpt lat="46.14869" lon="2.4828">
        <ele>486</ele>
        <time>2015-04-20T15:49:37Z</time>
      </trkpt>
      <trkpt lat="46.14871" lon="2.48276">
        <ele>486</ele>
        <time>2015-04-20T15:49:39Z</time>
      </trkpt>
      <trkpt lat="46.14873" lon="2.48273">
        <ele>486</ele>
        <time>2015-04-20T15:49:41Z</time>
      </trkpt>
      <trkpt lat="46.14874" lon="2.4827">
        <ele>486</ele>
        <time>2015-04-20T15:49:43Z</time>
      </trkpt>
      <trkpt lat="46.14876" lon="2.48267">
        <ele>486</ele>
        <time>2015-04-20T15:49:45Z</time>
      </trkpt>
      <trkpt lat="46.14878" lon="2.48263">
        <ele>486</ele>
        <time>2015-04-20T15:49:47Z</time>
      </trkpt>
      <trkpt lat="46.1488" lon="2.4826">
        <ele>486</ele>
        <time>2015-04-20T15:49:49Z</time>
      </trkpt>
      <trkpt lat="46.14882" lon="2.48257">
        <ele>486</ele>
        <time>2015-04-20T15:49:51Z</time>
      </trkpt>
      <trkpt lat="46.14883" lon="2.48254">
        <ele>486</ele>
        <time>2015-04-20T15:49:53Z</time>
      </trkpt>
      <trkpt lat="46.14885" lon="2.48251">
        <ele>486</ele>
        <time>2015-04-20T15:49:55Z</time>
      </trkpt>
      <trkpt lat="46.14887" lon="2.48247">
        <ele>486</ele>
        <time>2015-04-20T15:49:57Z</time>
      </trkpt>
      <trkpt lat="46.1489" lon="2.48243">
        <ele>486</ele>
        <time>2015-04-20T15:50:00Z</time>
      </trkpt>
      <trkpt lat="46.14893" lon="2.48239">
        <ele>486</ele>
        <time>2015-04-20T15:50:03Z</time>
      </trkpt>
      <trkpt lat="46.14894" lon="2.48236">
        <ele>486</ele>
        <time>2015-04-20T15:50:05Z</time>
      </trkpt>
      <trkpt lat="46.14897" lon="2.48232">
        <ele>486</ele>
        <time>2015-04-20T15:50:08Z</time>
      </trkpt>
      <trkpt lat="46.14899" lon="2.48229">
        <ele>486</ele>
        <time>2015-04-20T15:50:10Z</time>
      </trkpt>
      <trkpt lat="46.14901" lon="2.48226">
        <ele>487</ele>
        <time>2015-04-20T15:50:12Z</time>
      </trkpt>
      <trkpt lat="46.14904" lon="2.48222">
        <ele>487</ele>
        <time>2015-04-20T15:50:15Z</time>
      </trkpt>
      <trkpt lat="46.14906" lon="2.48219">
        <ele>487</ele>
        <time>2015-04-20T15:50:17Z</time>
      </trkpt>
      <trkpt lat="46.14907" lon="2.48216">
        <ele>487</ele>
        <time>2015-04-20T15:50:20Z</time>
      </trkpt>
      <trkpt lat="46.1491" lon="2.48211">
        <ele>487</ele>
        <time>2015-04-20T15:50:22Z</time>
      </trkpt>
      <trkpt lat="46.14912" lon="2.48208">
        <ele>487</ele>
        <time>2015-04-20T15:50:24Z</time>
      </trkpt>
      <trkpt lat="46.14914" lon="2.48205">
        <ele>487</ele>
        <time>2015-04-20T15:50:26Z</time>
      </trkpt>
      <trkpt lat="46.14916" lon="2.48201">
        <ele>487</ele>
        <time>2015-04-20T15:50:28Z</time>
      </trkpt>
      <trkpt lat="46.14918" lon="2.48199">
        <ele>487</ele>
        <time>2015-04-20T15:50:30Z</time>
      </trkpt>
      <trkpt lat="46.14921" lon="2.48196">
        <ele>487</ele>
        <time>2015-04-20T15:50:32Z</time>
      </trkpt>
      <trkpt lat="46.14923" lon="2.48193">
        <ele>487</ele>
        <time>2015-04-20T15:50:34Z</time>
      </trkpt>
      <trkpt lat="46.14925" lon="2.4819">
        <ele>487</ele>
        <time>2015-04-20T15:50:36Z</time>
      </trkpt>
      <trkpt lat="46.14927" lon="2.48187">
        <ele>487</ele>
        <time>2015-04-20T15:50:38Z</time>
      </trkpt>
      <trkpt lat="46.14929" lon="2.48184">
        <ele>487</ele>
        <time>2015-04-20T15:50:40Z</time>
      </trkpt>
      <trkpt lat="46.14932" lon="2.48181">
        <ele>487</ele>
        <time>2015-04-20T15:50:42Z</time>
      </trkpt>
      <trkpt lat="46.14934" lon="2.48178">
        <ele>487</ele>
        <time>2015-04-20T15:50:44Z</time>
      </trkpt>
      <trkpt lat="46.14937" lon="2.48175">
        <ele>487</ele>
        <time>2015-04-20T15:50:46Z</time>
      </trkpt>
      <trkpt lat="46.14939" lon="2.48172">
        <ele>487</ele>
        <time>2015-04-20T15:50:48Z</time>
      </trkpt>
      <trkpt lat="46.14941" lon="2.48169">
        <ele>487</ele>
        <time>2015-04-20T15:50:50Z</time>
      </trkpt>
      <trkpt lat="46.14944" lon="2.48166">
        <ele>487</ele>
        <time>2015-04-20T15:50:52Z</time>
      </trkpt>
      <trkpt lat="46.14946" lon="2.48163">
        <ele>487</ele>
        <time>2015-04-20T15:50:54Z</time>
      </trkpt>
      <trkpt lat="46.14949" lon="2.48161">
        <ele>487</ele>
        <time>2015-04-20T15:50:56Z</time>
      </trkpt>
      <trkpt lat="46.14952" lon="2.48158">
        <ele>487</ele>
        <time>2015-04-20T15:50:58Z</time>
      </trkpt>
      <trkpt lat="46.14955" lon="2.48155">
        <ele>487</ele>
        <time>2015-04-20T15:51:00Z</time>
      </trkpt>
      <trkpt lat="46.14957" lon="2.48152">
        <ele>487</ele>
        <time>2015-04-20T15:51:02Z</time>
      </trkpt>
      <trkpt lat="46.1496" lon="2.48149">
        <ele>487</ele>
        <time>2015-04-20T15:51:04Z</time>
      </trkpt>
      <trkpt lat="46.14962" lon="2.48146">
        <ele>487</ele>
        <time>2015-04-20T15:51:06Z</time>
      </trkpt>
      <trkpt lat="46.14964" lon="2.48143">
        <ele>487</ele>
        <time>2015-04-20T15:51:08Z</time>
      </trkpt>
      <trkpt lat="46.14966" lon="2.4814">
        <ele>487</ele>
        <time>2015-04-20T15:51:10Z</time>
      </trkpt>
      <trkpt lat="46.14968" lon="2.48137">
        <ele>487</ele>
        <time>2015-04-20T15:51:12Z</time>
      </trkpt>
      <trkpt lat="46.1497" lon="2.48134">
        <ele>487</ele>
        <time>2015-04-20T15:51:14Z</time>
      </trkpt>
      <trkpt lat="46.14973" lon="2.4813">
        <ele>487</ele>
        <time>2015-04-20T15:51:16Z</time>
      </trkpt>
      <trkpt lat="46.14975" lon="2.48127">
        <ele>487</ele>
        <time>2015-04-20T15:51:18Z</time>
      </trkpt>
      <trkpt lat="46.14977" lon="2.48124">
        <ele>487</ele>
        <time>2015-04-20T15:51:20Z</time>
      </trkpt>
      <trkpt lat="46.1498" lon="2.48121">
        <ele>487</ele>
        <time>2015-04-20T15:51:22Z</time>
      </trkpt>
      <trkpt lat="46.14982" lon="2.48118">
        <ele>487</ele>
        <time>2015-04-20T15:51:24Z</time>
      </trkpt>
      <trkpt lat="46.14984" lon="2.48114">
        <ele>487</ele>
        <time>2015-04-20T15:51:26Z</time>
      </trkpt>
      <trkpt lat="46.14986" lon="2.48111">
        <ele>487</ele>
        <time>2015-04-20T15:51:28Z</time>
      </trkpt>
      <trkpt lat="46.14987" lon="2.48107">
        <ele>487</ele>
        <time>2015-04-20T15:51:30Z</time>
      </trkpt>
      <trkpt lat="46.14989" lon="2.48103">
        <ele>487</ele>
        <time>2015-04-20T15:51:32Z</time>
      </trkpt>
      <trkpt lat="46.14991" lon="2.481">
        <ele>487</ele>
        <time>2015-04-20T15:51:34Z</time>
      </trkpt>
      <trkpt lat="46.14993" lon="2.48096">
        <ele>487</ele>
        <time>2015-04-20T15:51:36Z</time>
      </trkpt>
      <trkpt lat="46.14995" lon="2.48092">
        <ele>487</ele>
        <time>2015-04-20T15:51:38Z</time>
      </trkpt>
      <trkpt lat="46.14997" lon="2.48089">
        <ele>487</ele>
        <time>2015-04-20T15:51:40Z</time>
      </trkpt>
      <trkpt lat="46.14998" lon="2.48085">
        <ele>487</ele>
        <time>2015-04-20T15:51:42Z</time>
      </trkpt>
      <trkpt lat="46.15" lon="2.48081">
        <ele>487</ele>
        <time>2015-04-20T15:51:44Z</time>
      </trkpt>
      <trkpt lat="46.15002" lon="2.48078">
        <ele>487</ele>
        <time>2015-04-20T15:51:46Z</time>
      </trkpt>
      <trkpt lat="46.15003" lon="2.48074">
        <ele>487</ele>
        <time>2015-04-20T15:51:48Z</time>
      </trkpt>
      <trkpt lat="46.15005" lon="2.4807">
        <ele>487</ele>
        <time>2015-04-20T15:51:50Z</time>
      </trkpt>
      <trkpt lat="46.15007" lon="2.48066">
        <ele>487</ele>
        <time>2015-04-20T15:51:52Z</time>
      </trkpt>
      <trkpt lat="46.15008" lon="2.48062">
        <ele>487</ele>
        <time>2015-04-20T15:51:54Z</time>
      </trkpt>
      <trkpt lat="46.15009" lon="2.48058">
        <ele>487</ele>
        <time>2015-04-20T15:51:56Z</time>
      </trkpt>
      <trkpt lat="46.1501" lon="2.48054">
        <ele>487</ele>
        <time>2015-04-20T15:51:58Z</time>
      </trkpt>
      <trkpt lat="46.15011" lon="2.4805">
        <ele>487</ele>
        <time>2015-04-20T15:52:00Z</time>
      </trkpt>
      <trkpt lat="46.15012" lon="2.48046">
        <ele>487</ele>
        <time>2015-04-20T15:52:02Z</time>
      </trkpt>
      <trkpt lat="46.15013" lon="2.48043">
        <ele>487</ele>
        <time>2015-04-20T15:52:04Z</time>
      </trkpt>
      <trkpt lat="46.15014" lon="2.48039">
        <ele>487</ele>
        <time>2015-04-20T15:52:06Z</time>
      </trkpt>
      <trkpt lat="46.15015" lon="2.48035">
        <ele>487</ele>
        <time>2015-04-20T15:52:08Z</time>
      </trkpt>
      <trkpt lat="46.15016" lon="2.4803">
        <ele>487</ele>
        <time>2015-04-20T15:52:10Z</time>
      </trkpt>
      <trkpt lat="46.15017" lon="2.48026">
        <ele>487</ele>
        <time>2015-04-20T15:52:12Z</time>
      </trkpt>
      <trkpt lat="46.15018" lon="2.48023">
        <ele>487</ele>
        <time>2015-04-20T15:52:14Z</time>
      </trkpt>
      <trkpt lat="46.1502" lon="2.48019">
        <ele>487</ele>
        <time>2015-04-20T15:52:16Z</time>
      </trkpt>
      <trkpt lat="46.15021" lon="2.48015">
        <ele>487</ele>
        <time>2015-04-20T15:52:18Z</time>
      </trkpt>
      <trkpt lat="46.15022" lon="2.48011">
        <ele>487</ele>
        <time>2015-04-20T15:52:20Z</time>
      </trkpt>
      <trkpt lat="46.15023" lon="2.48007">
        <ele>487</ele>
        <time>2015-04-20T15:52:22Z</time>
      </trkpt>
      <trkpt lat="46.15024" lon="2.48003">
        <ele>487</ele>
        <time>2015-04-20T15:52:24Z</time>
      </trkpt>
      <trkpt lat="46.15026" lon="2.47999">
        <ele>487</ele>
        <time>2015-04-20T15:52:26Z</time>
      </trkpt>
      <trkpt lat="46.15027" lon="2.47995">
        <ele>487</ele>
        <time>2015-04-20T15:52:28Z</time>
      </trkpt>
      <trkpt lat="46.15028" lon="2.4799">
        <ele>487</ele>
        <time>2015-04-20T15:52:30Z</time>
      </trkpt>
      <trkpt lat="46.1503" lon="2.47986">
        <ele>487</ele>
        <time>2015-04-20T15:52:32Z</time>
      </trkpt>
      <trkpt lat="46.15031" lon="2.47982">
        <ele>487</ele>
        <time>2015-04-20T15:52:34Z</time>
      </trkpt>
      <trkpt lat="46.15032" lon="2.47978">
        <ele>487</ele>
        <time>2015-04-20T15:52:36Z</time>
      </trkpt>
      <trkpt lat="46.15033" lon="2.47974">
        <ele>487</ele>
        <time>2015-04-20T15:52:38Z</time>
      </trkpt>
      <trkpt lat="46.15035" lon="2.4797">
        <ele>487</ele>
        <time>2015-04-20T15:52:40Z</time>
      </trkpt>
      <trkpt lat="46.15036" lon="2.47966">
        <ele>487</ele>
        <time>2015-04-20T15:52:42Z</time>
      </trkpt>
      <trkpt lat="46.15038" lon="2.47961">
        <ele>487</ele>
        <time>2015-04-20T15:52:44Z</time>
      </trkpt>
      <trkpt lat="46.15039" lon="2.47957">
        <ele>487</ele>
        <time>2015-04-20T15:52:46Z</time>
      </trkpt>
      <trkpt lat="46.15041" lon="2.47953">
        <ele>487</ele>
        <time>2015-04-20T15:52:48Z</time>
      </trkpt>
      <trkpt lat="46.15042" lon="2.47949">
        <ele>487</ele>
        <time>2015-04-20T15:52:50Z</time>
      </trkpt>
      <trkpt lat="46.15043" lon="2.47945">
        <ele>487</ele>
        <time>2015-04-20T15:52:52Z</time>
      </trkpt>
      <trkpt lat="46.15044" lon="2.47941">
        <ele>487</ele>
        <time>2015-04-20T15:52:54Z</time>
      </trkpt>
      <trkpt lat="46.15046" lon="2.47937">
        <ele>487</ele>
        <time>2015-04-20T15:52:56Z</time>
      </trkpt>
      <trkpt lat="46.15047" lon="2.47933">
        <ele>487</ele>
        <time>2015-04-20T15:52:58Z</time>
      </trkpt>
      <trkpt lat="46.15048" lon="2.47929">
        <ele>487</ele>
        <time>2015-04-20T15:53:00Z</time>
      </trkpt>
      <trkpt lat="46.15049" lon="2.47925">
        <ele>487</ele>
        <time>2015-04-20T15:53:02Z</time>
      </trkpt>
      <trkpt lat="46.15051" lon="2.47921">
        <ele>487</ele>
        <time>2015-04-20T15:53:04Z</time>
      </trkpt>
      <trkpt lat="46.15052" lon="2.47918">
        <ele>487</ele>
        <time>2015-04-20T15:53:06Z</time>
      </trkpt>
      <trkpt lat="46.15053" lon="2.47914">
        <ele>487</ele>
        <time>2015-04-20T15:53:08Z</time>
      </trkpt>
      <trkpt lat="46.15055" lon="2.4791">
        <ele>487</ele>
        <time>2015-04-20T15:53:10Z</time>
      </trkpt>
      <trkpt lat="46.15056" lon="2.47906">
        <ele>487</ele>
        <time>2015-04-20T15:53:12Z</time>
      </trkpt>
      <trkpt lat="46.15058" lon="2.47902">
        <ele>487</ele>
        <time>2015-04-20T15:53:14Z</time>
      </trkpt>
      <trkpt lat="46.15059" lon="2.47898">
        <ele>487</ele>
        <time>2015-04-20T15:53:16Z</time>
      </trkpt>
      <trkpt lat="46.15061" lon="2.47894">
        <ele>487</ele>
        <time>2015-04-20T15:53:18Z</time>
      </trkpt>
      <trkpt lat="46.15062" lon="2.4789">
        <ele>487</ele>
        <time>2015-04-20T15:53:20Z</time>
      </trkpt>
      <trkpt lat="46.15064" lon="2.47887">
        <ele>487</ele>
        <time>2015-04-20T15:53:22Z</time>
      </trkpt>
      <trkpt lat="46.15065" lon="2.47883">
        <ele>487</ele>
        <time>2015-04-20T15:53:24Z</time>
      </trkpt>
      <trkpt lat="46.15067" lon="2.47879">
        <ele>487</ele>
        <time>2015-04-20T15:53:26Z</time>
      </trkpt>
      <trkpt lat="46.15069" lon="2.47876">
        <ele>487</ele>
        <time>2015-04-20T15:53:28Z</time>
      </trkpt>
      <trkpt lat="46.15072" lon="2.47871">
        <ele>487</ele>
        <time>2015-04-20T15:53:31Z</time>
      </trkpt>
      <trkpt lat="46.15074" lon="2.47868">
        <ele>487</ele>
        <time>2015-04-20T15:53:33Z</time>
      </trkpt>
      <trkpt lat="46.15077" lon="2.47864">
        <ele>487</ele>
        <time>2015-04-20T15:53:36Z</time>
      </trkpt>
      <trkpt lat="46.1508" lon="2.47863">
        <ele>487</ele>
        <time>2015-04-20T15:53:38Z</time>
      </trkpt>
      <trkpt lat="46.15083" lon="2.47863">
        <ele>487</ele>
        <time>2015-04-20T15:53:40Z</time>
      </trkpt>
      <trkpt lat="46.15086" lon="2.47864">
        <ele>487</ele>
        <time>2015-04-20T15:53:42Z</time>
      </trkpt>
      <trkpt lat="46.15089" lon="2.47865">
        <ele>487</ele>
        <time>2015-04-20T15:53:44Z</time>
      </trkpt>
      <trkpt lat="46.15092" lon="2.47867">
        <ele>487</ele>
        <time>2015-04-20T15:53:46Z</time>
      </trkpt>
      <trkpt lat="46.15095" lon="2.47868">
        <ele>487</ele>
        <time>2015-04-20T15:53:48Z</time>
      </trkpt>
      <trkpt lat="46.15098" lon="2.47869">
        <ele>487</ele>
        <time>2015-04-20T15:53:50Z</time>
      </trkpt>
      <trkpt lat="46.15101" lon="2.4787">
        <ele>487</ele>
        <time>2015-04-20T15:53:52Z</time>
      </trkpt>
      <trkpt lat="46.15104" lon="2.47871">
        <ele>487</ele>
        <time>2015-04-20T15:53:54Z</time>
      </trkpt>
      <trkpt lat="46.15107" lon="2.47873">
        <ele>487</ele>
        <time>2015-04-20T15:53:56Z</time>
      </trkpt>
      <trkpt lat="46.15109" lon="2.47874">
        <ele>487</ele>
        <time>2015-04-20T15:53:58Z</time>
      </trkpt>
      <trkpt lat="46.15112" lon="2.47875">
        <ele>487</ele>
        <time>2015-04-20T15:54:00Z</time>
      </trkpt>
      <trkpt lat="46.15115" lon="2.47877">
        <ele>487</ele>
        <time>2015-04-20T15:54:02Z</time>
      </trkpt>
      <trkpt lat="46.15118" lon="2.47878">
        <ele>487</ele>
        <time>2015-04-20T15:54:04Z</time>
      </trkpt>
      <trkpt lat="46.15121" lon="2.47879">
        <ele>487</ele>
        <time>2015-04-20T15:54:06Z</time>
      </trkpt>
      <trkpt lat="46.15123" lon="2.4788">
        <ele>487</ele>
        <time>2015-04-20T15:54:08Z</time>
      </trkpt>
      <trkpt lat="46.15126" lon="2.47881">
        <ele>487</ele>
        <time>2015-04-20T15:54:10Z</time>
      </trkpt>
      <trkpt lat="46.15129" lon="2.47882">
        <ele>487</ele>
        <time>2015-04-20T15:54:12Z</time>
      </trkpt>
      <trkpt lat="46.15131" lon="2.47883">
        <ele>487</ele>
        <time>2015-04-20T15:54:14Z</time>
      </trkpt>
      <trkpt lat="46.15134" lon="2.47884">
        <ele>487</ele>
        <time>2015-04-20T15:54:16Z</time>
      </trkpt>
      <trkpt lat="46.15137" lon="2.47885">
        <ele>487</ele>
        <time>2015-04-20T15:54:18Z</time>
      </trkpt>
      <trkpt lat="46.1514" lon="2.47887">
        <ele>487</ele>
        <time>2015-04-20T15:54:20Z</time>
      </trkpt>
      <trkpt lat="46.15143" lon="2.47888">
        <ele>487</ele>
        <time>2015-04-20T15:54:22Z</time>
      </trkpt>
      <trkpt lat="46.15146" lon="2.47889">
        <ele>487</ele>
        <time>2015-04-20T15:54:24Z</time>
      </trkpt>
      <trkpt lat="46.15149" lon="2.47891">
        <ele>487</ele>
        <time>2015-04-20T15:54:26Z</time>
      </trkpt>
      <trkpt lat="46.15152" lon="2.47891">
        <ele>487</ele>
        <time>2015-04-20T15:54:28Z</time>
      </trkpt>
      <trkpt lat="46.15155" lon="2.47892">
        <ele>487</ele>
        <time>2015-04-20T15:54:30Z</time>
      </trkpt>
      <trkpt lat="46.15157" lon="2.47893">
        <ele>487</ele>
        <time>2015-04-20T15:54:32Z</time>
      </trkpt>
      <trkpt lat="46.1516" lon="2.47894">
        <ele>487</ele>
        <time>2015-04-20T15:54:34Z</time>
      </trkpt>
      <trkpt lat="46.15163" lon="2.47895">
        <ele>487</ele>
        <time>2015-04-20T15:54:36Z</time>
      </trkpt>
      <trkpt lat="46.15166" lon="2.47896">
        <ele>486</ele>
        <time>2015-04-20T15:54:38Z</time>
      </trkpt>
      <trkpt lat="46.15168" lon="2.47897">
        <ele>486</ele>
        <time>2015-04-20T15:54:40Z</time>
      </trkpt>
      <trkpt lat="46.15171" lon="2.47898">
        <ele>486</ele>
        <time>2015-04-20T15:54:42Z</time>
      </trkpt>
      <trkpt lat="46.15174" lon="2.47899">
        <ele>486</ele>
        <time>2015-04-20T15:54:44Z</time>
      </trkpt>
      <trkpt lat="46.15178" lon="2.479">
        <ele>486</ele>
        <time>2015-04-20T15:54:46Z</time>
      </trkpt>
      <trkpt lat="46.15181" lon="2.47901">
        <ele>486</ele>
        <time>2015-04-20T15:54:48Z</time>
      </trkpt>
      <trkpt lat="46.15183" lon="2.47902">
        <ele>486</ele>
        <time>2015-04-20T15:54:50Z</time>
      </trkpt>
      <trkpt lat="46.15186" lon="2.47904">
        <ele>486</ele>
        <time>2015-04-20T15:54:52Z</time>
      </trkpt>
      <trkpt lat="46.15189" lon="2.47905">
        <ele>485</ele>
        <time>2015-04-20T15:54:54Z</time>
      </trkpt>
      <trkpt lat="46.15192" lon="2.47907">
        <ele>485</ele>
        <time>2015-04-20T15:54:56Z</time>
      </trkpt>
      <trkpt lat="46.15195" lon="2.47908">
        <ele>485</ele>
        <time>2015-04-20T15:54:58Z</time>
      </trkpt>
      <trkpt lat="46.15198" lon="2.4791">
        <ele>485</ele>
        <time>2015-04-20T15:55:00Z</time>
      </trkpt>
      <trkpt lat="46.15201" lon="2.47911">
        <ele>485</ele>
        <time>2015-04-20T15:55:02Z</time>
      </trkpt>
      <trkpt lat="46.15204" lon="2.47913">
        <ele>485</ele>
        <time>2015-04-20T15:55:04Z</time>
      </trkpt>
      <trkpt lat="46.15207" lon="2.47914">
        <ele>485</ele>
        <time>2015-04-20T15:55:06Z</time>
      </trkpt>
      <trkpt lat="46.1521" lon="2.47915">
        <ele>485</ele>
        <time>2015-04-20T15:55:08Z</time>
      </trkpt>
      <trkpt lat="46.15214" lon="2.47917">
        <ele>485</ele>
        <time>2015-04-20T15:55:11Z</time>
      </trkpt>
      <trkpt lat="46.15217" lon="2.47918">
        <ele>485</ele>
        <time>2015-04-20T15:55:13Z</time>
      </trkpt>
      <trkpt lat="46.1522" lon="2.47919">
        <ele>485</ele>
        <time>2015-04-20T15:55:15Z</time>
      </trkpt>
      <trkpt lat="46.15223" lon="2.47919">
        <ele>485</ele>
        <time>2015-04-20T15:55:17Z</time>
      </trkpt>
      <trkpt lat="46.15226" lon="2.4792">
        <ele>484</ele>
        <time>2015-04-20T15:55:19Z</time>
      </trkpt>
      <trkpt lat="46.15229" lon="2.4792">
        <ele>484</ele>
        <time>2015-04-20T15:55:21Z</time>
      </trkpt>
      <trkpt lat="46.15233" lon="2.4792">
        <ele>484</ele>
        <time>2015-04-20T15:55:24Z</time>
      </trkpt>
      <trkpt lat="46.15236" lon="2.4792">
        <ele>484</ele>
        <time>2015-04-20T15:55:26Z</time>
      </trkpt>
      <trkpt lat="46.15239" lon="2.47919">
        <ele>484</ele>
        <time>2015-04-20T15:55:28Z</time>
      </trkpt>
      <trkpt lat="46.15243" lon="2.4792">
        <ele>484</ele>
        <time>2015-04-20T15:55:31Z</time>
      </trkpt>
      <trkpt lat="46.15246" lon="2.47919">
        <ele>484</ele>
        <time>2015-04-20T15:55:33Z</time>
      </trkpt>
      <trkpt lat="46.15249" lon="2.47919">
        <ele>484</ele>
        <time>2015-04-20T15:55:35Z</time>
      </trkpt>
      <trkpt lat="46.15253" lon="2.47919">
        <ele>484</ele>
        <time>2015-04-20T15:55:38Z</time>
      </trkpt>
      <trkpt lat="46.15256" lon="2.47918">
        <ele>484</ele>
        <time>2015-04-20T15:55:40Z</time>
      </trkpt>
      <trkpt lat="46.15258" lon="2.47918">
        <ele>484</ele>
        <time>2015-04-20T15:55:42Z</time>
      </trkpt>
      <trkpt lat="46.15261" lon="2.47917">
        <ele>484</ele>
        <time>2015-04-20T15:55:44Z</time>
      </trkpt>
      <trkpt lat="46.15264" lon="2.47916">
        <ele>484</ele>
        <time>2015-04-20T15:55:46Z</time>
      </trkpt>
      <trkpt lat="46.15267" lon="2.47916">
        <ele>484</ele>
        <time>2015-04-20T15:55:48Z</time>
      </trkpt>
      <trkpt lat="46.1527" lon="2.47915">
        <ele>484</ele>
        <time>2015-04-20T15:55:50Z</time>
      </trkpt>
      <trkpt lat="46.15273" lon="2.47915">
        <ele>484</ele>
        <time>2015-04-20T15:55:53Z</time>
      </trkpt>
      <trkpt lat="46.15274" lon="2.47916">
        <ele>484</ele>
        <time>2015-04-20T15:56:02Z</time>
      </trkpt>
      <trkpt lat="46.15278" lon="2.47916">
        <ele>484</ele>
        <time>2015-04-20T15:56:05Z</time>
      </trkpt>
      <trkpt lat="46.15281" lon="2.47917">
        <ele>484</ele>
        <time>2015-04-20T15:56:07Z</time>
      </trkpt>
      <trkpt lat="46.15285" lon="2.47918">
        <ele>484</ele>
        <time>2015-04-20T15:56:10Z</time>
      </trkpt>
      <trkpt lat="46.15288" lon="2.47919">
        <ele>484</ele>
        <time>2015-04-20T15:56:12Z</time>
      </trkpt>
      <trkpt lat="46.15291" lon="2.4792">
        <ele>484</ele>
        <time>2015-04-20T15:56:14Z</time>
      </trkpt>
      <trkpt lat="46.15295" lon="2.47922">
        <ele>484</ele>
        <time>2015-04-20T15:56:17Z</time>
      </trkpt>
      <trkpt lat="46.15297" lon="2.47924">
        <ele>484</ele>
        <time>2015-04-20T15:56:19Z</time>
      </trkpt>
      <trkpt lat="46.15301" lon="2.47927">
        <ele>484</ele>
        <time>2015-04-20T15:56:22Z</time>
      </trkpt>
      <trkpt lat="46.15304" lon="2.47929">
        <ele>484</ele>
        <time>2015-04-20T15:56:24Z</time>
      </trkpt>
      <trkpt lat="46.15308" lon="2.47931">
        <ele>484</ele>
        <time>2015-04-20T15:56:27Z</time>
      </trkpt>
      <trkpt lat="46.15311" lon="2.47933">
        <ele>483</ele>
        <time>2015-04-20T15:56:29Z</time>
      </trkpt>
      <trkpt lat="46.15313" lon="2.47935">
        <ele>483</ele>
        <time>2015-04-20T15:56:31Z</time>
      </trkpt>
      <trkpt lat="46.15317" lon="2.47937">
        <ele>482</ele>
        <time>2015-04-20T15:56:34Z</time>
      </trkpt>
      <trkpt lat="46.1532" lon="2.47939">
        <ele>482</ele>
        <time>2015-04-20T15:56:36Z</time>
      </trkpt>
      <trkpt lat="46.15323" lon="2.47941">
        <ele>482</ele>
        <time>2015-04-20T15:56:38Z</time>
      </trkpt>
      <trkpt lat="46.15325" lon="2.47943">
        <ele>482</ele>
        <time>2015-04-20T15:56:40Z</time>
      </trkpt>
      <trkpt lat="46.15329" lon="2.47944">
        <ele>482</ele>
        <time>2015-04-20T15:56:43Z</time>
      </trkpt>
      <trkpt lat="46.15332" lon="2.47946">
        <ele>481</ele>
        <time>2015-04-20T15:56:45Z</time>
      </trkpt>
      <trkpt lat="46.15336" lon="2.47948">
        <ele>481</ele>
        <time>2015-04-20T15:56:48Z</time>
      </trkpt>
      <trkpt lat="46.15339" lon="2.4795">
        <ele>481</ele>
        <time>2015-04-20T15:56:50Z</time>
      </trkpt>
      <trkpt lat="46.15342" lon="2.47953">
        <ele>481</ele>
        <time>2015-04-20T15:56:53Z</time>
      </trkpt>
      <trkpt lat="46.15345" lon="2.47955">
        <ele>481</ele>
        <time>2015-04-20T15:56:55Z</time>
      </trkpt>
      <trkpt lat="46.15349" lon="2.47957">
        <ele>481</ele>
        <time>2015-04-20T15:56:58Z</time>
      </trkpt>
      <trkpt lat="46.15352" lon="2.47959">
        <ele>481</ele>
        <time>2015-04-20T15:57:00Z</time>
      </trkpt>
      <trkpt lat="46.15355" lon="2.47961">
        <ele>481</ele>
        <time>2015-04-20T15:57:02Z</time>
      </trkpt>
      <trkpt lat="46.15359" lon="2.47962">
        <ele>481</ele>
        <time>2015-04-20T15:57:05Z</time>
      </trkpt>
      <trkpt lat="46.15363" lon="2.47962">
        <ele>481</ele>
        <time>2015-04-20T15:57:08Z</time>
      </trkpt>
      <trkpt lat="46.15366" lon="2.47962">
        <ele>481</ele>
        <time>2015-04-20T15:57:10Z</time>
      </trkpt>
      <trkpt lat="46.15369" lon="2.47961">
        <ele>481</ele>
        <time>2015-04-20T15:57:12Z</time>
      </trkpt>
      <trkpt lat="46.15372" lon="2.47959">
        <ele>481</ele>
        <time>2015-04-20T15:57:14Z</time>
      </trkpt>
      <trkpt lat="46.15375" lon="2.47955">
        <ele>481</ele>
        <time>2015-04-20T15:57:17Z</time>
      </trkpt>
      <trkpt lat="46.15378" lon="2.47952">
        <ele>481</ele>
        <time>2015-04-20T15:57:19Z</time>
      </trkpt>
      <trkpt lat="46.1538" lon="2.47949">
        <ele>481</ele>
        <time>2015-04-20T15:57:21Z</time>
      </trkpt>
      <trkpt lat="46.15382" lon="2.47946">
        <ele>481</ele>
        <time>2015-04-20T15:57:23Z</time>
      </trkpt>
      <trkpt lat="46.15384" lon="2.47943">
        <ele>481</ele>
        <time>2015-04-20T15:57:25Z</time>
      </trkpt>
      <trkpt lat="46.15387" lon="2.47938">
        <ele>481</ele>
        <time>2015-04-20T15:57:28Z</time>
      </trkpt>
      <trkpt lat="46.15389" lon="2.47935">
        <ele>481</ele>
        <time>2015-04-20T15:57:30Z</time>
      </trkpt>
      <trkpt lat="46.15391" lon="2.47932">
        <ele>481</ele>
        <time>2015-04-20T15:57:32Z</time>
      </trkpt>
      <trkpt lat="46.15395" lon="2.47926">
        <ele>481</ele>
        <time>2015-04-20T15:57:36Z</time>
      </trkpt>
      <trkpt lat="46.15396" lon="2.47923">
        <ele>481</ele>
        <time>2015-04-20T15:57:38Z</time>
      </trkpt>
      <trkpt lat="46.15398" lon="2.4792">
        <ele>481</ele>
        <time>2015-04-20T15:57:40Z</time>
      </trkpt>
      <trkpt lat="46.15401" lon="2.47915">
        <ele>481</ele>
        <time>2015-04-20T15:57:43Z</time>
      </trkpt>
      <trkpt lat="46.15403" lon="2.47912">
        <ele>481</ele>
        <time>2015-04-20T15:57:45Z</time>
      </trkpt>
      <trkpt lat="46.15405" lon="2.47909">
        <ele>481</ele>
        <time>2015-04-20T15:57:47Z</time>
      </trkpt>
      <trkpt lat="46.15406" lon="2.47906">
        <ele>481</ele>
        <time>2015-04-20T15:57:49Z</time>
      </trkpt>
      <trkpt lat="46.1541" lon="2.47901">
        <ele>481</ele>
        <time>2015-04-20T15:57:52Z</time>
      </trkpt>
      <trkpt lat="46.15412" lon="2.47898">
        <ele>481</ele>
        <time>2015-04-20T15:57:54Z</time>
      </trkpt>
      <trkpt lat="46.15414" lon="2.47895">
        <ele>481</ele>
        <time>2015-04-20T15:57:56Z</time>
      </trkpt>
      <trkpt lat="46.15417" lon="2.4789">
        <ele>481</ele>
        <time>2015-04-20T15:57:59Z</time>
      </trkpt>
      <trkpt lat="46.15419" lon="2.47887">
        <ele>481</ele>
        <time>2015-04-20T15:58:01Z</time>
      </trkpt>
      <trkpt lat="46.15421" lon="2.47884">
        <ele>481</ele>
        <time>2015-04-20T15:58:03Z</time>
      </trkpt>
      <trkpt lat="46.15422" lon="2.47881">
        <ele>481</ele>
        <time>2015-04-20T15:58:05Z</time>
      </trkpt>
      <trkpt lat="46.15425" lon="2.47877">
        <ele>481</ele>
        <time>2015-04-20T15:58:07Z</time>
      </trkpt>
      <trkpt lat="46.15427" lon="2.47874">
        <ele>481</ele>
        <time>2015-04-20T15:58:09Z</time>
      </trkpt>
      <trkpt lat="46.15429" lon="2.47871">
        <ele>481</ele>
        <time>2015-04-20T15:58:11Z</time>
      </trkpt>
      <trkpt lat="46.1543" lon="2.47868">
        <ele>481</ele>
        <time>2015-04-20T15:58:13Z</time>
      </trkpt>
      <trkpt lat="46.15432" lon="2.47865">
        <ele>481</ele>
        <time>2015-04-20T15:58:15Z</time>
      </trkpt>
      <trkpt lat="46.15434" lon="2.47861">
        <ele>481</ele>
        <time>2015-04-20T15:58:17Z</time>
      </trkpt>
      <trkpt lat="46.15437" lon="2.47856">
        <ele>481</ele>
        <time>2015-04-20T15:58:20Z</time>
      </trkpt>
      <trkpt lat="46.15439" lon="2.47853">
        <ele>481</ele>
        <time>2015-04-20T15:58:22Z</time>
      </trkpt>
      <trkpt lat="46.15442" lon="2.47848">
        <ele>481</ele>
        <time>2015-04-20T15:58:25Z</time>
      </trkpt>
      <trkpt lat="46.15444" lon="2.47845">
        <ele>481</ele>
        <time>2015-04-20T15:58:27Z</time>
      </trkpt>
      <trkpt lat="46.15446" lon="2.47839">
        <ele>481</ele>
        <time>2015-04-20T15:58:30Z</time>
      </trkpt>
      <trkpt lat="46.15448" lon="2.47836">
        <ele>481</ele>
        <time>2015-04-20T15:58:32Z</time>
      </trkpt>
      <trkpt lat="46.15451" lon="2.47831">
        <ele>481</ele>
        <time>2015-04-20T15:58:35Z</time>
      </trkpt>
      <trkpt lat="46.15453" lon="2.47828">
        <ele>481</ele>
        <time>2015-04-20T15:58:37Z</time>
      </trkpt>
      <trkpt lat="46.15455" lon="2.47825">
        <ele>481</ele>
        <time>2015-04-20T15:58:39Z</time>
      </trkpt>
      <trkpt lat="46.15457" lon="2.47821">
        <ele>481</ele>
        <time>2015-04-20T15:58:41Z</time>
      </trkpt>
      <trkpt lat="46.15458" lon="2.47818">
        <ele>481</ele>
        <time>2015-04-20T15:58:43Z</time>
      </trkpt>
      <trkpt lat="46.1546" lon="2.47815">
        <ele>481</ele>
        <time>2015-04-20T15:58:45Z</time>
      </trkpt>
      <trkpt lat="46.15462" lon="2.47812">
        <ele>481</ele>
        <time>2015-04-20T15:58:47Z</time>
      </trkpt>
      <trkpt lat="46.15464" lon="2.47809">
        <ele>481</ele>
        <time>2015-04-20T15:58:49Z</time>
      </trkpt>
      <trkpt lat="46.15465" lon="2.47806">
        <ele>481</ele>
        <time>2015-04-20T15:58:51Z</time>
      </trkpt>
      <trkpt lat="46.15467" lon="2.47802">
        <ele>481</ele>
        <time>2015-04-20T15:58:53Z</time>
      </trkpt>
      <trkpt lat="46.15469" lon="2.47799">
        <ele>481</ele>
        <time>2015-04-20T15:58:55Z</time>
      </trkpt>
      <trkpt lat="46.1547" lon="2.47796">
        <ele>481</ele>
        <time>2015-04-20T15:58:57Z</time>
      </trkpt>
      <trkpt lat="46.15472" lon="2.47793">
        <ele>481</ele>
        <time>2015-04-20T15:58:59Z</time>
      </trkpt>
      <trkpt lat="46.15474" lon="2.47789">
        <ele>481</ele>
        <time>2015-04-20T15:59:01Z</time>
      </trkpt>
      <trkpt lat="46.15475" lon="2.47786">
        <ele>481</ele>
        <time>2015-04-20T15:59:03Z</time>
      </trkpt>
      <trkpt lat="46.15477" lon="2.47782">
        <ele>481</ele>
        <time>2015-04-20T15:59:05Z</time>
      </trkpt>
      <trkpt lat="46.15479" lon="2.47779">
        <ele>481</ele>
        <time>2015-04-20T15:59:07Z</time>
      </trkpt>
      <trkpt lat="46.15482" lon="2.47774">
        <ele>481</ele>
        <time>2015-04-20T15:59:10Z</time>
      </trkpt>
      <trkpt lat="46.15483" lon="2.4777">
        <ele>481</ele>
        <time>2015-04-20T15:59:12Z</time>
      </trkpt>
      <trkpt lat="46.15485" lon="2.47767">
        <ele>481</ele>
        <time>2015-04-20T15:59:14Z</time>
      </trkpt>
      <trkpt lat="46.15487" lon="2.47764">
        <ele>481</ele>
        <time>2015-04-20T15:59:16Z</time>
      </trkpt>
      <trkpt lat="46.15488" lon="2.47761">
        <ele>481</ele>
        <time>2015-04-20T15:59:18Z</time>
      </trkpt>
      <trkpt lat="46.1549" lon="2.47757">
        <ele>481</ele>
        <time>2015-04-20T15:59:20Z</time>
      </trkpt>
      <trkpt lat="46.15492" lon="2.47755">
        <ele>481</ele>
        <time>2015-04-20T15:59:22Z</time>
      </trkpt>
      <trkpt lat="46.15494" lon="2.47752">
        <ele>481</ele>
        <time>2015-04-20T15:59:24Z</time>
      </trkpt>
      <trkpt lat="46.15498" lon="2.47748">
        <ele>481</ele>
        <time>2015-04-20T15:59:27Z</time>
      </trkpt>
      <trkpt lat="46.155" lon="2.47746">
        <ele>481</ele>
        <time>2015-04-20T15:59:29Z</time>
      </trkpt>
      <trkpt lat="46.15503" lon="2.47743">
        <ele>481</ele>
        <time>2015-04-20T15:59:31Z</time>
      </trkpt>
      <trkpt lat="46.15504" lon="2.4774">
        <ele>481</ele>
        <time>2015-04-20T15:59:33Z</time>
      </trkpt>
      <trkpt lat="46.15506" lon="2.47738">
        <ele>481</ele>
        <time>2015-04-20T15:59:35Z</time>
      </trkpt>
      <trkpt lat="46.15509" lon="2.47735">
        <ele>481</ele>
        <time>2015-04-20T15:59:37Z</time>
      </trkpt>
      <trkpt lat="46.15511" lon="2.47733">
        <ele>481</ele>
        <time>2015-04-20T15:59:39Z</time>
      </trkpt>
      <trkpt lat="46.15514" lon="2.4773">
        <ele>481</ele>
        <time>2015-04-20T15:59:41Z</time>
      </trkpt>
      <trkpt lat="46.15517" lon="2.47727">
        <ele>481</ele>
        <time>2015-04-20T15:59:44Z</time>
      </trkpt>
      <trkpt lat="46.1552" lon="2.47725">
        <ele>481</ele>
        <time>2015-04-20T15:59:46Z</time>
      </trkpt>
      <trkpt lat="46.15523" lon="2.47723">
        <ele>481</ele>
        <time>2015-04-20T15:59:48Z</time>
      </trkpt>
      <trkpt lat="46.15525" lon="2.47722">
        <ele>481</ele>
        <time>2015-04-20T15:59:50Z</time>
      </trkpt>
      <trkpt lat="46.15527" lon="2.47719">
        <ele>481</ele>
        <time>2015-04-20T15:59:52Z</time>
      </trkpt>
      <trkpt lat="46.1553" lon="2.47717">
        <ele>481</ele>
        <time>2015-04-20T15:59:54Z</time>
      </trkpt>
      <trkpt lat="46.15532" lon="2.47714">
        <ele>481</ele>
        <time>2015-04-20T15:59:56Z</time>
      </trkpt>
      <trkpt lat="46.15535" lon="2.47712">
        <ele>481</ele>
        <time>2015-04-20T15:59:58Z</time>
      </trkpt>
      <trkpt lat="46.15537" lon="2.4771">
        <ele>481</ele>
        <time>2015-04-20T16:00:00Z</time>
      </trkpt>
      <trkpt lat="46.15539" lon="2.47707">
        <ele>481</ele>
        <time>2015-04-20T16:00:02Z</time>
      </trkpt>
      <trkpt lat="46.15541" lon="2.47704">
        <ele>481</ele>
        <time>2015-04-20T16:00:04Z</time>
      </trkpt>
      <trkpt lat="46.15544" lon="2.47701">
        <ele>481</ele>
        <time>2015-04-20T16:00:06Z</time>
      </trkpt>
      <trkpt lat="46.15547" lon="2.47697">
        <ele>481</ele>
        <time>2015-04-20T16:00:08Z</time>
      </trkpt>
      <trkpt lat="46.1555" lon="2.47694">
        <ele>481</ele>
        <time>2015-04-20T16:00:11Z</time>
      </trkpt>
      <trkpt lat="46.15552" lon="2.47692">
        <ele>481</ele>
        <time>2015-04-20T16:00:13Z</time>
      </trkpt>
      <trkpt lat="46.15554" lon="2.4769">
        <ele>481</ele>
        <time>2015-04-20T16:00:15Z</time>
      </trkpt>
      <trkpt lat="46.15557" lon="2.47688">
        <ele>481</ele>
        <time>2015-04-20T16:00:17Z</time>
      </trkpt>
      <trkpt lat="46.1556" lon="2.47686">
        <ele>481</ele>
        <time>2015-04-20T16:00:19Z</time>
      </trkpt>
      <trkpt lat="46.15562" lon="2.47684">
        <ele>481</ele>
        <time>2015-04-20T16:00:21Z</time>
      </trkpt>
      <trkpt lat="46.15565" lon="2.47682">
        <ele>481</ele>
        <time>2015-04-20T16:00:23Z</time>
      </trkpt>
      <trkpt lat="46.15568" lon="2.4768">
        <ele>481</ele>
        <time>2015-04-20T16:00:25Z</time>
      </trkpt>
      <trkpt lat="46.15571" lon="2.47678">
        <ele>481</ele>
        <time>2015-04-20T16:00:27Z</time>
      </trkpt>
      <trkpt lat="46.15574" lon="2.47676">
        <ele>481</ele>
        <time>2015-04-20T16:00:30Z</time>
      </trkpt>
      <trkpt lat="46.15576" lon="2.47674">
        <ele>481</ele>
        <time>2015-04-20T16:00:32Z</time>
      </trkpt>
      <trkpt lat="46.15578" lon="2.47673">
        <ele>481</ele>
        <time>2015-04-20T16:00:34Z</time>
      </trkpt>
      <trkpt lat="46.15581" lon="2.47671">
        <ele>481</ele>
        <time>2015-04-20T16:00:36Z</time>
      </trkpt>
      <trkpt lat="46.15584" lon="2.47669">
        <ele>481</ele>
        <time>2015-04-20T16:00:38Z</time>
      </trkpt>
      <trkpt lat="46.15587" lon="2.47668">
        <ele>481</ele>
        <time>2015-04-20T16:00:40Z</time>
      </trkpt>
      <trkpt lat="46.1559" lon="2.47666">
        <ele>481</ele>
        <time>2015-04-20T16:00:42Z</time>
      </trkpt>
      <trkpt lat="46.15592" lon="2.47664">
        <ele>481</ele>
        <time>2015-04-20T16:00:44Z</time>
      </trkpt>
      <trkpt lat="46.15594" lon="2.47663">
        <ele>481</ele>
        <time>2015-04-20T16:00:46Z</time>
      </trkpt>
      <trkpt lat="46.15597" lon="2.47663">
        <ele>481</ele>
        <time>2015-04-20T16:00:48Z</time>
      </trkpt>
      <trkpt lat="46.156" lon="2.47662">
        <ele>481</ele>
        <time>2015-04-20T16:00:50Z</time>
      </trkpt>
      <trkpt lat="46.15602" lon="2.47661">
        <ele>481</ele>
        <time>2015-04-20T16:00:52Z</time>
      </trkpt>
      <trkpt lat="46.15605" lon="2.47659">
        <ele>481</ele>
        <time>2015-04-20T16:00:54Z</time>
      </trkpt>
      <trkpt lat="46.15608" lon="2.47657">
        <ele>481</ele>
        <time>2015-04-20T16:00:56Z</time>
      </trkpt>
      <trkpt lat="46.15611" lon="2.47656">
        <ele>481</ele>
        <time>2015-04-20T16:00:58Z</time>
      </trkpt>
      <trkpt lat="46.15616" lon="2.47655">
        <ele>481</ele>
        <time>2015-04-20T16:01:00Z</time>
      </trkpt>
      <trkpt lat="46.1562" lon="2.47655">
        <ele>481</ele>
        <time>2015-04-20T16:01:02Z</time>
      </trkpt>
      <trkpt lat="46.15623" lon="2.47654">
        <ele>481</ele>
        <time>2015-04-20T16:01:04Z</time>
      </trkpt>
      <trkpt lat="46.15625" lon="2.47652">
        <ele>481</ele>
        <time>2015-04-20T16:01:06Z</time>
      </trkpt>
      <trkpt lat="46.15627" lon="2.47651">
        <ele>481</ele>
        <time>2015-04-20T16:01:08Z</time>
      </trkpt>
      <trkpt lat="46.1563" lon="2.4765">
        <ele>481</ele>
        <time>2015-04-20T16:01:10Z</time>
      </trkpt>
      <trkpt lat="46.15632" lon="2.47649">
        <ele>481</ele>
        <time>2015-04-20T16:01:12Z</time>
      </trkpt>
      <trkpt lat="46.15634" lon="2.47647">
        <ele>481</ele>
        <time>2015-04-20T16:01:14Z</time>
      </trkpt>
      <trkpt lat="46.15637" lon="2.47645">
        <ele>481</ele>
        <time>2015-04-20T16:01:16Z</time>
      </trkpt>
      <trkpt lat="46.1564" lon="2.47644">
        <ele>481</ele>
        <time>2015-04-20T16:01:18Z</time>
      </trkpt>
      <trkpt lat="46.15643" lon="2.47644">
        <ele>481</ele>
        <time>2015-04-20T16:01:20Z</time>
      </trkpt>
      <trkpt lat="46.15646" lon="2.47643">
        <ele>481</ele>
        <time>2015-04-20T16:01:22Z</time>
      </trkpt>
      <trkpt lat="46.15649" lon="2.47644">
        <ele>481</ele>
        <time>2015-04-20T16:01:24Z</time>
      </trkpt>
      <trkpt lat="46.15651" lon="2.47643">
        <ele>481</ele>
        <time>2015-04-20T16:01:26Z</time>
      </trkpt>
      <trkpt lat="46.15654" lon="2.47643">
        <ele>481</ele>
        <time>2015-04-20T16:01:28Z</time>
      </trkpt>
      <trkpt lat="46.15657" lon="2.47642">
        <ele>481</ele>
        <time>2015-04-20T16:01:30Z</time>
      </trkpt>
      <trkpt lat="46.1566" lon="2.47642">
        <ele>481</ele>
        <time>2015-04-20T16:01:32Z</time>
      </trkpt>
      <trkpt lat="46.15664" lon="2.47641">
        <ele>481</ele>
        <time>2015-04-20T16:01:35Z</time>
      </trkpt>
      <trkpt lat="46.15666" lon="2.47641">
        <ele>481</ele>
        <time>2015-04-20T16:01:37Z</time>
      </trkpt>
      <trkpt lat="46.15669" lon="2.47641">
        <ele>481</ele>
        <time>2015-04-20T16:01:39Z</time>
      </trkpt>
      <trkpt lat="46.15672" lon="2.47642">
        <ele>481</ele>
        <time>2015-04-20T16:01:41Z</time>
      </trkpt>
      <trkpt lat="46.15675" lon="2.47642">
        <ele>481</ele>
        <time>2015-04-20T16:01:43Z</time>
      </trkpt>
      <trkpt lat="46.15679" lon="2.47642">
        <ele>481</ele>
        <time>2015-04-20T16:01:45Z</time>
      </trkpt>
      <trkpt lat="46.15682" lon="2.47642">
        <ele>481</ele>
        <time>2015-04-20T16:01:47Z</time>
      </trkpt>
      <trkpt lat="46.15685" lon="2.47642">
        <ele>481</ele>
        <time>2015-04-20T16:01:49Z</time>
      </trkpt>
      <trkpt lat="46.15688" lon="2.47642">
        <ele>481</ele>
        <time>2015-04-20T16:01:51Z</time>
      </trkpt>
      <trkpt lat="46.1569" lon="2.47643">
        <ele>481</ele>
        <time>2015-04-20T16:01:53Z</time>
      </trkpt>
      <trkpt lat="46.15693" lon="2.47643">
        <ele>481</ele>
        <time>2015-04-20T16:01:55Z</time>
      </trkpt>
      <trkpt lat="46.15695" lon="2.47643">
        <ele>481</ele>
        <time>2015-04-20T16:01:57Z</time>
      </trkpt>
      <trkpt lat="46.15698" lon="2.47642">
        <ele>481</ele>
        <time>2015-04-20T16:01:59Z</time>
      </trkpt>
      <trkpt lat="46.15701" lon="2.47642">
        <ele>481</ele>
        <time>2015-04-20T16:02:01Z</time>
      </trkpt>
      <trkpt lat="46.15704" lon="2.47643">
        <ele>481</ele>
        <time>2015-04-20T16:02:03Z</time>
      </trkpt>
      <trkpt lat="46.15707" lon="2.47643">
        <ele>481</ele>
        <time>2015-04-20T16:02:05Z</time>
      </trkpt>
      <trkpt lat="46.1571" lon="2.47643">
        <ele>481</ele>
        <time>2015-04-20T16:02:07Z</time>
      </trkpt>
      <trkpt lat="46.15712" lon="2.47644">
        <ele>481</ele>
        <time>2015-04-20T16:02:09Z</time>
      </trkpt>
      <trkpt lat="46.15715" lon="2.47644">
        <ele>481</ele>
        <time>2015-04-20T16:02:11Z</time>
      </trkpt>
      <trkpt lat="46.15719" lon="2.47645">
        <ele>481</ele>
        <time>2015-04-20T16:02:13Z</time>
      </trkpt>
      <trkpt lat="46.15723" lon="2.47644">
        <ele>481</ele>
        <time>2015-04-20T16:02:15Z</time>
      </trkpt>
      <trkpt lat="46.15726" lon="2.47642">
        <ele>481</ele>
        <time>2015-04-20T16:02:17Z</time>
      </trkpt>
      <trkpt lat="46.15728" lon="2.47639">
        <ele>481</ele>
        <time>2015-04-20T16:02:19Z</time>
      </trkpt>
      <trkpt lat="46.15729" lon="2.47636">
        <ele>481</ele>
        <time>2015-04-20T16:02:21Z</time>
      </trkpt>
      <trkpt lat="46.15731" lon="2.47632">
        <ele>481</ele>
        <time>2015-04-20T16:02:23Z</time>
      </trkpt>
      <trkpt lat="46.15733" lon="2.47628">
        <ele>481</ele>
        <time>2015-04-20T16:02:25Z</time>
      </trkpt>
      <trkpt lat="46.15734" lon="2.47625">
        <ele>480</ele>
        <time>2015-04-20T16:02:27Z</time>
      </trkpt>
      <trkpt lat="46.15736" lon="2.47621">
        <ele>480</ele>
        <time>2015-04-20T16:02:29Z</time>
      </trkpt>
      <trkpt lat="46.15738" lon="2.47617">
        <ele>480</ele>
        <time>2015-04-20T16:02:31Z</time>
      </trkpt>
      <trkpt lat="46.15739" lon="2.47614">
        <ele>480</ele>
        <time>2015-04-20T16:02:33Z</time>
      </trkpt>
      <trkpt lat="46.15741" lon="2.4761">
        <ele>480</ele>
        <time>2015-04-20T16:02:35Z</time>
      </trkpt>
      <trkpt lat="46.15742" lon="2.47606">
        <ele>480</ele>
        <time>2015-04-20T16:02:37Z</time>
      </trkpt>
      <trkpt lat="46.15743" lon="2.47603">
        <ele>479</ele>
        <time>2015-04-20T16:02:39Z</time>
      </trkpt>
      <trkpt lat="46.15745" lon="2.47599">
        <ele>479</ele>
        <time>2015-04-20T16:02:41Z</time>
      </trkpt>
      <trkpt lat="46.15746" lon="2.47595">
        <ele>479</ele>
        <time>2015-04-20T16:02:43Z</time>
      </trkpt>
      <trkpt lat="46.15748" lon="2.47591">
        <ele>479</ele>
        <time>2015-04-20T16:02:45Z</time>
      </trkpt>
      <trkpt lat="46.15749" lon="2.47587">
        <ele>479</ele>
        <time>2015-04-20T16:02:47Z</time>
      </trkpt>
      <trkpt lat="46.15751" lon="2.47583">
        <ele>479</ele>
        <time>2015-04-20T16:02:49Z</time>
      </trkpt>
      <trkpt lat="46.15752" lon="2.47579">
        <ele>479</ele>
        <time>2015-04-20T16:02:51Z</time>
      </trkpt>
      <trkpt lat="46.15754" lon="2.47576">
        <ele>479</ele>
        <time>2015-04-20T16:02:53Z</time>
      </trkpt>
      <trkpt lat="46.15755" lon="2.47572">
        <ele>478</ele>
        <time>2015-04-20T16:02:55Z</time>
      </trkpt>
      <trkpt lat="46.15757" lon="2.47568">
        <ele>478</ele>
        <time>2015-04-20T16:02:57Z</time>
      </trkpt>
      <trkpt lat="46.15759" lon="2.47564">
        <ele>478</ele>
        <time>2015-04-20T16:02:59Z</time>
      </trkpt>
      <trkpt lat="46.1576" lon="2.4756">
        <ele>478</ele>
        <time>2015-04-20T16:03:01Z</time>
      </trkpt>
      <trkpt lat="46.15762" lon="2.47556">
        <ele>478</ele>
        <time>2015-04-20T16:03:03Z</time>
      </trkpt>
      <trkpt lat="46.15763" lon="2.47553">
        <ele>478</ele>
        <time>2015-04-20T16:03:05Z</time>
      </trkpt>
      <trkpt lat="46.15765" lon="2.47549">
        <ele>478</ele>
        <time>2015-04-20T16:03:07Z</time>
      </trkpt>
      <trkpt lat="46.15766" lon="2.47546">
        <ele>478</ele>
        <time>2015-04-20T16:03:09Z</time>
      </trkpt>
      <trkpt lat="46.15767" lon="2.47543">
        <ele>478</ele>
        <time>2015-04-20T16:03:11Z</time>
      </trkpt>
      <trkpt lat="46.1577" lon="2.47539">
        <ele>478</ele>
        <time>2015-04-20T16:03:14Z</time>
      </trkpt>
      <trkpt lat="46.15773" lon="2.47538">
        <ele>478</ele>
        <time>2015-04-20T16:03:16Z</time>
      </trkpt>
      <trkpt lat="46.15776" lon="2.47539">
        <ele>478</ele>
        <time>2015-04-20T16:03:18Z</time>
      </trkpt>
      <trkpt lat="46.15778" lon="2.47541">
        <ele>478</ele>
        <time>2015-04-20T16:03:20Z</time>
      </trkpt>
      <trkpt lat="46.15781" lon="2.47544">
        <ele>477</ele>
        <time>2015-04-20T16:03:22Z</time>
      </trkpt>
      <trkpt lat="46.15784" lon="2.47546">
        <ele>477</ele>
        <time>2015-04-20T16:03:24Z</time>
      </trkpt>
      <trkpt lat="46.15786" lon="2.47548">
        <ele>477</ele>
        <time>2015-04-20T16:03:26Z</time>
      </trkpt>
      <trkpt lat="46.15789" lon="2.47551">
        <ele>477</ele>
        <time>2015-04-20T16:03:28Z</time>
      </trkpt>
      <trkpt lat="46.15791" lon="2.47553">
        <ele>476</ele>
        <time>2015-04-20T16:03:30Z</time>
      </trkpt>
      <trkpt lat="46.15794" lon="2.47555">
        <ele>476</ele>
        <time>2015-04-20T16:03:32Z</time>
      </trkpt>
      <trkpt lat="46.15797" lon="2.47557">
        <ele>476</ele>
        <time>2015-04-20T16:03:34Z</time>
      </trkpt>
      <trkpt lat="46.15799" lon="2.47559">
        <ele>476</ele>
        <time>2015-04-20T16:03:36Z</time>
      </trkpt>
      <trkpt lat="46.15802" lon="2.47561">
        <ele>476</ele>
        <time>2015-04-20T16:03:38Z</time>
      </trkpt>
      <trkpt lat="46.15805" lon="2.47563">
        <ele>476</ele>
        <time>2015-04-20T16:03:40Z</time>
      </trkpt>
      <trkpt lat="46.15808" lon="2.47565">
        <ele>475</ele>
        <time>2015-04-20T16:03:42Z</time>
      </trkpt>
      <trkpt lat="46.15811" lon="2.47567">
        <ele>475</ele>
        <time>2015-04-20T16:03:44Z</time>
      </trkpt>
      <trkpt lat="46.15813" lon="2.47568">
        <ele>475</ele>
        <time>2015-04-20T16:03:46Z</time>
      </trkpt>
      <trkpt lat="46.15816" lon="2.4757">
        <ele>475</ele>
        <time>2015-04-20T16:03:48Z</time>
      </trkpt>
      <trkpt lat="46.15819" lon="2.47572">
        <ele>475</ele>
        <time>2015-04-20T16:03:50Z</time>
      </trkpt>
      <trkpt lat="46.15821" lon="2.47574">
        <ele>475</ele>
        <time>2015-04-20T16:03:52Z</time>
      </trkpt>
      <trkpt lat="46.15824" lon="2.47575">
        <ele>475</ele>
        <time>2015-04-20T16:03:54Z</time>
      </trkpt>
      <trkpt lat="46.15827" lon="2.47577">
        <ele>475</ele>
        <time>2015-04-20T16:03:56Z</time>
      </trkpt>
      <trkpt lat="46.1583" lon="2.47579">
        <ele>475</ele>
        <time>2015-04-20T16:03:58Z</time>
      </trkpt>
      <trkpt lat="46.15833" lon="2.4758">
        <ele>475</ele>
        <time>2015-04-20T16:04:00Z</time>
      </trkpt>
      <trkpt lat="46.15836" lon="2.47582">
        <ele>475</ele>
        <time>2015-04-20T16:04:02Z</time>
      </trkpt>
      <trkpt lat="46.15839" lon="2.47584">
        <ele>475</ele>
        <time>2015-04-20T16:04:04Z</time>
      </trkpt>
      <trkpt lat="46.15842" lon="2.47585">
        <ele>475</ele>
        <time>2015-04-20T16:04:06Z</time>
      </trkpt>
      <trkpt lat="46.15845" lon="2.47587">
        <ele>475</ele>
        <time>2015-04-20T16:04:08Z</time>
      </trkpt>
      <trkpt lat="46.15847" lon="2.47589">
        <ele>475</ele>
        <time>2015-04-20T16:04:10Z</time>
      </trkpt>
      <trkpt lat="46.1585" lon="2.4759">
        <ele>475</ele>
        <time>2015-04-20T16:04:12Z</time>
      </trkpt>
      <trkpt lat="46.15853" lon="2.47592">
        <ele>475</ele>
        <time>2015-04-20T16:04:14Z</time>
      </trkpt>
      <trkpt lat="46.15856" lon="2.47593">
        <ele>475</ele>
        <time>2015-04-20T16:04:16Z</time>
      </trkpt>
      <trkpt lat="46.15859" lon="2.47595">
        <ele>474</ele>
        <time>2015-04-20T16:04:18Z</time>
      </trkpt>
      <trkpt lat="46.15862" lon="2.47596">
        <ele>474</ele>
        <time>2015-04-20T16:04:20Z</time>
      </trkpt>
      <trkpt lat="46.15865" lon="2.47598">
        <ele>474</ele>
        <time>2015-04-20T16:04:22Z</time>
      </trkpt>
      <trkpt lat="46.15868" lon="2.47599">
        <ele>474</ele>
        <time>2015-04-20T16:04:24Z</time>
      </trkpt>
      <trkpt lat="46.15871" lon="2.47601">
        <ele>474</ele>
        <time>2015-04-20T16:04:26Z</time>
      </trkpt>
      <trkpt lat="46.15873" lon="2.47602">
        <ele>474</ele>
        <time>2015-04-20T16:04:28Z</time>
      </trkpt>
      <trkpt lat="46.15876" lon="2.47604">
        <ele>474</ele>
        <time>2015-04-20T16:04:30Z</time>
      </trkpt>
      <trkpt lat="46.15879" lon="2.47605">
        <ele>474</ele>
        <time>2015-04-20T16:04:32Z</time>
      </trkpt>
      <trkpt lat="46.15881" lon="2.47607">
        <ele>474</ele>
        <time>2015-04-20T16:04:34Z</time>
      </trkpt>
      <trkpt lat="46.15884" lon="2.47608">
        <ele>474</ele>
        <time>2015-04-20T16:04:36Z</time>
      </trkpt>
      <trkpt lat="46.15886" lon="2.47609">
        <ele>473</ele>
        <time>2015-04-20T16:04:38Z</time>
      </trkpt>
      <trkpt lat="46.15889" lon="2.47611">
        <ele>473</ele>
        <time>2015-04-20T16:04:40Z</time>
      </trkpt>
      <trkpt lat="46.15892" lon="2.47612">
        <ele>473</ele>
        <time>2015-04-20T16:04:42Z</time>
      </trkpt>
      <trkpt lat="46.15894" lon="2.47613">
        <ele>473</ele>
        <time>2015-04-20T16:04:44Z</time>
      </trkpt>
      <trkpt lat="46.15897" lon="2.47615">
        <ele>473</ele>
        <time>2015-04-20T16:04:46Z</time>
      </trkpt>
      <trkpt lat="46.15899" lon="2.47617">
        <ele>473</ele>
        <time>2015-04-20T16:04:48Z</time>
      </trkpt>
      <trkpt lat="46.15902" lon="2.47619">
        <ele>473</ele>
        <time>2015-04-20T16:04:50Z</time>
      </trkpt>
      <trkpt lat="46.15905" lon="2.4762">
        <ele>473</ele>
        <time>2015-04-20T16:04:52Z</time>
      </trkpt>
      <trkpt lat="46.15907" lon="2.47621">
        <ele>473</ele>
        <time>2015-04-20T16:04:54Z</time>
      </trkpt>
      <trkpt lat="46.1591" lon="2.47622">
        <ele>473</ele>
        <time>2015-04-20T16:04:56Z</time>
      </trkpt>
      <trkpt lat="46.15913" lon="2.47624">
        <ele>473</ele>
        <time>2015-04-20T16:04:58Z</time>
      </trkpt>
      <trkpt lat="46.15916" lon="2.47626">
        <ele>472</ele>
        <time>2015-04-20T16:05:00Z</time>
      </trkpt>
      <trkpt lat="46.15918" lon="2.47628">
        <ele>472</ele>
        <time>2015-04-20T16:05:02Z</time>
      </trkpt>
      <trkpt lat="46.1592" lon="2.47631">
        <ele>472</ele>
        <time>2015-04-20T16:05:04Z</time>
      </trkpt>
      <trkpt lat="46.15922" lon="2.47633">
        <ele>472</ele>
        <time>2015-04-20T16:05:06Z</time>
      </trkpt>
      <trkpt lat="46.15926" lon="2.47635">
        <ele>472</ele>
        <time>2015-04-20T16:05:08Z</time>
      </trkpt>
      <trkpt lat="46.15929" lon="2.47637">
        <ele>472</ele>
        <time>2015-04-20T16:05:10Z</time>
      </trkpt>
      <trkpt lat="46.15932" lon="2.47639">
        <ele>472</ele>
        <time>2015-04-20T16:05:12Z</time>
      </trkpt>
      <trkpt lat="46.15935" lon="2.47641">
        <ele>472</ele>
        <time>2015-04-20T16:05:14Z</time>
      </trkpt>
      <trkpt lat="46.15938" lon="2.47644">
        <ele>472</ele>
        <time>2015-04-20T16:05:17Z</time>
      </trkpt>
      <trkpt lat="46.15941" lon="2.47647">
        <ele>472</ele>
        <time>2015-04-20T16:05:19Z</time>
      </trkpt>
      <trkpt lat="46.15944" lon="2.47648">
        <ele>471</ele>
        <time>2015-04-20T16:05:21Z</time>
      </trkpt>
      <trkpt lat="46.15947" lon="2.47649">
        <ele>471</ele>
        <time>2015-04-20T16:05:23Z</time>
      </trkpt>
      <trkpt lat="46.1595" lon="2.47651">
        <ele>470</ele>
        <time>2015-04-20T16:05:25Z</time>
      </trkpt>
      <trkpt lat="46.15952" lon="2.47652">
        <ele>469</ele>
        <time>2015-04-20T16:05:27Z</time>
      </trkpt>
      <trkpt lat="46.15955" lon="2.47654">
        <ele>469</ele>
        <time>2015-04-20T16:05:29Z</time>
      </trkpt>
      <trkpt lat="46.15958" lon="2.47656">
        <ele>469</ele>
        <time>2015-04-20T16:05:31Z</time>
      </trkpt>
      <trkpt lat="46.15961" lon="2.47658">
        <ele>469</ele>
        <time>2015-04-20T16:05:33Z</time>
      </trkpt>
      <trkpt lat="46.15963" lon="2.47661">
        <ele>468</ele>
        <time>2015-04-20T16:05:35Z</time>
      </trkpt>
      <trkpt lat="46.15965" lon="2.47665">
        <ele>468</ele>
        <time>2015-04-20T16:05:37Z</time>
      </trkpt>
      <trkpt lat="46.15968" lon="2.47668">
        <ele>468</ele>
        <time>2015-04-20T16:05:39Z</time>
      </trkpt>
      <trkpt lat="46.1597" lon="2.47671">
        <ele>468</ele>
        <time>2015-04-20T16:05:41Z</time>
      </trkpt>
      <trkpt lat="46.15973" lon="2.47674">
        <ele>468</ele>
        <time>2015-04-20T16:05:43Z</time>
      </trkpt>
      <trkpt lat="46.15975" lon="2.47677">
        <ele>468</ele>
        <time>2015-04-20T16:05:45Z</time>
      </trkpt>
      <trkpt lat="46.15977" lon="2.4768">
        <ele>468</ele>
        <time>2015-04-20T16:05:47Z</time>
      </trkpt>
      <trkpt lat="46.15979" lon="2.47684">
        <ele>468</ele>
        <time>2015-04-20T16:05:49Z</time>
      </trkpt>
      <trkpt lat="46.15982" lon="2.47687">
        <ele>468</ele>
        <time>2015-04-20T16:05:51Z</time>
      </trkpt>
      <trkpt lat="46.15985" lon="2.4769">
        <ele>468</ele>
        <time>2015-04-20T16:05:53Z</time>
      </trkpt>
      <trkpt lat="46.15987" lon="2.47693">
        <ele>468</ele>
        <time>2015-04-20T16:05:55Z</time>
      </trkpt>
      <trkpt lat="46.1599" lon="2.47696">
        <ele>468</ele>
        <time>2015-04-20T16:05:57Z</time>
      </trkpt>
      <trkpt lat="46.15992" lon="2.47699">
        <ele>468</ele>
        <time>2015-04-20T16:05:59Z</time>
      </trkpt>
      <trkpt lat="46.15994" lon="2.47702">
        <ele>468</ele>
        <time>2015-04-20T16:06:01Z</time>
      </trkpt>
      <trkpt lat="46.15996" lon="2.47705">
        <ele>468</ele>
        <time>2015-04-20T16:06:03Z</time>
      </trkpt>
      <trkpt lat="46.15999" lon="2.47708">
        <ele>468</ele>
        <time>2015-04-20T16:06:05Z</time>
      </trkpt>
      <trkpt lat="46.16002" lon="2.47712">
        <ele>467</ele>
        <time>2015-04-20T16:06:08Z</time>
      </trkpt>
      <trkpt lat="46.16005" lon="2.47714">
        <ele>466</ele>
        <time>2015-04-20T16:06:10Z</time>
      </trkpt>
      <trkpt lat="46.16007" lon="2.47716">
        <ele>465</ele>
        <time>2015-04-20T16:06:12Z</time>
      </trkpt>
      <trkpt lat="46.1601" lon="2.47718">
        <ele>464</ele>
        <time>2015-04-20T16:06:14Z</time>
      </trkpt>
      <trkpt lat="46.16013" lon="2.4772">
        <ele>464</ele>
        <time>2015-04-20T16:06:16Z</time>
      </trkpt>
      <trkpt lat="46.16015" lon="2.47722">
        <ele>464</ele>
        <time>2015-04-20T16:06:18Z</time>
      </trkpt>
      <trkpt lat="46.16018" lon="2.47724">
        <ele>464</ele>
        <time>2015-04-20T16:06:20Z</time>
      </trkpt>
      <trkpt lat="46.16021" lon="2.47726">
        <ele>464</ele>
        <time>2015-04-20T16:06:22Z</time>
      </trkpt>
      <trkpt lat="46.16024" lon="2.47728">
        <ele>464</ele>
        <time>2015-04-20T16:06:24Z</time>
      </trkpt>
      <trkpt lat="46.16026" lon="2.47729">
        <ele>464</ele>
        <time>2015-04-20T16:06:26Z</time>
      </trkpt>
      <trkpt lat="46.16029" lon="2.47731">
        <ele>464</ele>
        <time>2015-04-20T16:06:28Z</time>
      </trkpt>
      <trkpt lat="46.16032" lon="2.47733">
        <ele>464</ele>
        <time>2015-04-20T16:06:30Z</time>
      </trkpt>
      <trkpt lat="46.16035" lon="2.47734">
        <ele>463</ele>
        <time>2015-04-20T16:06:32Z</time>
      </trkpt>
      <trkpt lat="46.16037" lon="2.47735">
        <ele>463</ele>
        <time>2015-04-20T16:06:34Z</time>
      </trkpt>
      <trkpt lat="46.1604" lon="2.47736">
        <ele>463</ele>
        <time>2015-04-20T16:06:36Z</time>
      </trkpt>
      <trkpt lat="46.16043" lon="2.47737">
        <ele>463</ele>
        <time>2015-04-20T16:06:38Z</time>
      </trkpt>
      <trkpt lat="46.16047" lon="2.47738">
        <ele>463</ele>
        <time>2015-04-20T16:06:40Z</time>
      </trkpt>
      <trkpt lat="46.1605" lon="2.47739">
        <ele>463</ele>
        <time>2015-04-20T16:06:42Z</time>
      </trkpt>
      <trkpt lat="46.16053" lon="2.4774">
        <ele>463</ele>
        <time>2015-04-20T16:06:44Z</time>
      </trkpt>
      <trkpt lat="46.16056" lon="2.47741">
        <ele>463</ele>
        <time>2015-04-20T16:06:46Z</time>
      </trkpt>
      <trkpt lat="46.16059" lon="2.47741">
        <ele>463</ele>
        <time>2015-04-20T16:06:48Z</time>
      </trkpt>
      <trkpt lat="46.16062" lon="2.47742">
        <ele>463</ele>
        <time>2015-04-20T16:06:50Z</time>
      </trkpt>
      <trkpt lat="46.16065" lon="2.47743">
        <ele>463</ele>
        <time>2015-04-20T16:06:52Z</time>
      </trkpt>
      <trkpt lat="46.16068" lon="2.47743">
        <ele>463</ele>
        <time>2015-04-20T16:06:54Z</time>
      </trkpt>
      <trkpt lat="46.16071" lon="2.47744">
        <ele>463</ele>
        <time>2015-04-20T16:06:56Z</time>
      </trkpt>
      <trkpt lat="46.16074" lon="2.47745">
        <ele>463</ele>
        <time>2015-04-20T16:06:58Z</time>
      </trkpt>
      <trkpt lat="46.16077" lon="2.47746">
        <ele>463</ele>
        <time>2015-04-20T16:07:00Z</time>
      </trkpt>
      <trkpt lat="46.1608" lon="2.47746">
        <ele>463</ele>
        <time>2015-04-20T16:07:02Z</time>
      </trkpt>
      <trkpt lat="46.16083" lon="2.47747">
        <ele>463</ele>
        <time>2015-04-20T16:07:04Z</time>
      </trkpt>
      <trkpt lat="46.16086" lon="2.47747">
        <ele>463</ele>
        <time>2015-04-20T16:07:06Z</time>
      </trkpt>
      <trkpt lat="46.16089" lon="2.47748">
        <ele>463</ele>
        <time>2015-04-20T16:07:08Z</time>
      </trkpt>
      <trkpt lat="46.16092" lon="2.47749">
        <ele>463</ele>
        <time>2015-04-20T16:07:10Z</time>
      </trkpt>
      <trkpt lat="46.16095" lon="2.4775">
        <ele>463</ele>
        <time>2015-04-20T16:07:12Z</time>
      </trkpt>
      <trkpt lat="46.16098" lon="2.4775">
        <ele>463</ele>
        <time>2015-04-20T16:07:14Z</time>
      </trkpt>
      <trkpt lat="46.16101" lon="2.47752">
        <ele>463</ele>
        <time>2015-04-20T16:07:16Z</time>
      </trkpt>
      <trkpt lat="46.16103" lon="2.47752">
        <ele>463</ele>
        <time>2015-04-20T16:07:18Z</time>
      </trkpt>
      <trkpt lat="46.16106" lon="2.47753">
        <ele>463</ele>
        <time>2015-04-20T16:07:20Z</time>
      </trkpt>
      <trkpt lat="46.16109" lon="2.47754">
        <ele>463</ele>
        <time>2015-04-20T16:07:22Z</time>
      </trkpt>
      <trkpt lat="46.16111" lon="2.47755">
        <ele>463</ele>
        <time>2015-04-20T16:07:24Z</time>
      </trkpt>
      <trkpt lat="46.16114" lon="2.47756">
        <ele>463</ele>
        <time>2015-04-20T16:07:26Z</time>
      </trkpt>
      <trkpt lat="46.16117" lon="2.47758">
        <ele>463</ele>
        <time>2015-04-20T16:07:28Z</time>
      </trkpt>
      <trkpt lat="46.1612" lon="2.47759">
        <ele>463</ele>
        <time>2015-04-20T16:07:30Z</time>
      </trkpt>
      <trkpt lat="46.16123" lon="2.4776">
        <ele>463</ele>
        <time>2015-04-20T16:07:32Z</time>
      </trkpt>
      <trkpt lat="46.16125" lon="2.47761">
        <ele>463</ele>
        <time>2015-04-20T16:07:34Z</time>
      </trkpt>
      <trkpt lat="46.16128" lon="2.47763">
        <ele>463</ele>
        <time>2015-04-20T16:07:36Z</time>
      </trkpt>
      <trkpt lat="46.16131" lon="2.47765">
        <ele>463</ele>
        <time>2015-04-20T16:07:38Z</time>
      </trkpt>
      <trkpt lat="46.16134" lon="2.47766">
        <ele>463</ele>
        <time>2015-04-20T16:07:40Z</time>
      </trkpt>
      <trkpt lat="46.16137" lon="2.47767">
        <ele>463</ele>
        <time>2015-04-20T16:07:42Z</time>
      </trkpt>
      <trkpt lat="46.1614" lon="2.47769">
        <ele>463</ele>
        <time>2015-04-20T16:07:44Z</time>
      </trkpt>
      <trkpt lat="46.16143" lon="2.47771">
        <ele>463</ele>
        <time>2015-04-20T16:07:46Z</time>
      </trkpt>
      <trkpt lat="46.16145" lon="2.47772">
        <ele>463</ele>
        <time>2015-04-20T16:07:48Z</time>
      </trkpt>
      <trkpt lat="46.16148" lon="2.47775">
        <ele>463</ele>
        <time>2015-04-20T16:07:50Z</time>
      </trkpt>
      <trkpt lat="46.16151" lon="2.47777">
        <ele>463</ele>
        <time>2015-04-20T16:07:52Z</time>
      </trkpt>
      <trkpt lat="46.16154" lon="2.47777">
        <ele>463</ele>
        <time>2015-04-20T16:07:54Z</time>
      </trkpt>
      <trkpt lat="46.16157" lon="2.47778">
        <ele>463</ele>
        <time>2015-04-20T16:07:56Z</time>
      </trkpt>
      <trkpt lat="46.1616" lon="2.4778">
        <ele>463</ele>
        <time>2015-04-20T16:07:58Z</time>
      </trkpt>
      <trkpt lat="46.16163" lon="2.47781">
        <ele>463</ele>
        <time>2015-04-20T16:08:00Z</time>
      </trkpt>
      <trkpt lat="46.16166" lon="2.47782">
        <ele>463</ele>
        <time>2015-04-20T16:08:02Z</time>
      </trkpt>
      <trkpt lat="46.16168" lon="2.47783">
        <ele>463</ele>
        <time>2015-04-20T16:08:04Z</time>
      </trkpt>
      <trkpt lat="46.16171" lon="2.47784">
        <ele>463</ele>
        <time>2015-04-20T16:08:06Z</time>
      </trkpt>
      <trkpt lat="46.16174" lon="2.47786">
        <ele>463</ele>
        <time>2015-04-20T16:08:08Z</time>
      </trkpt>
      <trkpt lat="46.16177" lon="2.47787">
        <ele>463</ele>
        <time>2015-04-20T16:08:10Z</time>
      </trkpt>
      <trkpt lat="46.1618" lon="2.47789">
        <ele>463</ele>
        <time>2015-04-20T16:08:12Z</time>
      </trkpt>
      <trkpt lat="46.16183" lon="2.4779">
        <ele>463</ele>
        <time>2015-04-20T16:08:14Z</time>
      </trkpt>
      <trkpt lat="46.16186" lon="2.47792">
        <ele>463</ele>
        <time>2015-04-20T16:08:16Z</time>
      </trkpt>
      <trkpt lat="46.16189" lon="2.47793">
        <ele>463</ele>
        <time>2015-04-20T16:08:18Z</time>
      </trkpt>
      <trkpt lat="46.16191" lon="2.47794">
        <ele>463</ele>
        <time>2015-04-20T16:08:20Z</time>
      </trkpt>
      <trkpt lat="46.16194" lon="2.47795">
        <ele>463</ele>
        <time>2015-04-20T16:08:22Z</time>
      </trkpt>
      <trkpt lat="46.16197" lon="2.47796">
        <ele>463</ele>
        <time>2015-04-20T16:08:24Z</time>
      </trkpt>
      <trkpt lat="46.162" lon="2.47797">
        <ele>463</ele>
        <time>2015-04-20T16:08:26Z</time>
      </trkpt>
      <trkpt lat="46.16203" lon="2.47799">
        <ele>463</ele>
        <time>2015-04-20T16:08:28Z</time>
      </trkpt>
      <trkpt lat="46.16206" lon="2.47801">
        <ele>463</ele>
        <time>2015-04-20T16:08:30Z</time>
      </trkpt>
      <trkpt lat="46.16209" lon="2.47802">
        <ele>463</ele>
        <time>2015-04-20T16:08:32Z</time>
      </trkpt>
      <trkpt lat="46.16211" lon="2.47803">
        <ele>463</ele>
        <time>2015-04-20T16:08:34Z</time>
      </trkpt>
      <trkpt lat="46.16214" lon="2.47805">
        <ele>463</ele>
        <time>2015-04-20T16:08:36Z</time>
      </trkpt>
      <trkpt lat="46.16217" lon="2.47806">
        <ele>463</ele>
        <time>2015-04-20T16:08:38Z</time>
      </trkpt>
      <trkpt lat="46.1622" lon="2.47808">
        <ele>463</ele>
        <time>2015-04-20T16:08:40Z</time>
      </trkpt>
      <trkpt lat="46.16223" lon="2.4781">
        <ele>463</ele>
        <time>2015-04-20T16:08:42Z</time>
      </trkpt>
      <trkpt lat="46.16226" lon="2.47811">
        <ele>463</ele>
        <time>2015-04-20T16:08:44Z</time>
      </trkpt>
      <trkpt lat="46.16229" lon="2.47813">
        <ele>463</ele>
        <time>2015-04-20T16:08:46Z</time>
      </trkpt>
      <trkpt lat="46.16232" lon="2.47814">
        <ele>463</ele>
        <time>2015-04-20T16:08:48Z</time>
      </trkpt>
      <trkpt lat="46.16234" lon="2.47815">
        <ele>463</ele>
        <time>2015-04-20T16:08:50Z</time>
      </trkpt>
      <trkpt lat="46.16237" lon="2.47817">
        <ele>463</ele>
        <time>2015-04-20T16:08:52Z</time>
      </trkpt>
      <trkpt lat="46.1624" lon="2.47818">
        <ele>463</ele>
        <time>2015-04-20T16:08:54Z</time>
      </trkpt>
      <trkpt lat="46.16243" lon="2.4782">
        <ele>463</ele>
        <time>2015-04-20T16:08:56Z</time>
      </trkpt>
      <trkpt lat="46.16246" lon="2.47821">
        <ele>463</ele>
        <time>2015-04-20T16:08:58Z</time>
      </trkpt>
      <trkpt lat="46.16249" lon="2.47823">
        <ele>463</ele>
        <time>2015-04-20T16:09:00Z</time>
      </trkpt>
      <trkpt lat="46.16252" lon="2.47824">
        <ele>463</ele>
        <time>2015-04-20T16:09:02Z</time>
      </trkpt>
      <trkpt lat="46.16255" lon="2.47825">
        <ele>463</ele>
        <time>2015-04-20T16:09:04Z</time>
      </trkpt>
      <trkpt lat="46.16258" lon="2.47827">
        <ele>463</ele>
        <time>2015-04-20T16:09:06Z</time>
      </trkpt>
      <trkpt lat="46.16261" lon="2.47828">
        <ele>463</ele>
        <time>2015-04-20T16:09:08Z</time>
      </trkpt>
      <trkpt lat="46.16264" lon="2.47829">
        <ele>463</ele>
        <time>2015-04-20T16:09:10Z</time>
      </trkpt>
      <trkpt lat="46.16267" lon="2.4783">
        <ele>463</ele>
        <time>2015-04-20T16:09:12Z</time>
      </trkpt>
      <trkpt lat="46.1627" lon="2.47831">
        <ele>463</ele>
        <time>2015-04-20T16:09:14Z</time>
      </trkpt>
      <trkpt lat="46.16273" lon="2.47832">
        <ele>463</ele>
        <time>2015-04-20T16:09:16Z</time>
      </trkpt>
      <trkpt lat="46.16275" lon="2.47833">
        <ele>463</ele>
        <time>2015-04-20T16:09:18Z</time>
      </trkpt>
      <trkpt lat="46.16279" lon="2.47834">
        <ele>463</ele>
        <time>2015-04-20T16:09:20Z</time>
      </trkpt>
      <trkpt lat="46.16282" lon="2.47835">
        <ele>463</ele>
        <time>2015-04-20T16:09:22Z</time>
      </trkpt>
      <trkpt lat="46.16285" lon="2.47836">
        <ele>463</ele>
        <time>2015-04-20T16:09:24Z</time>
      </trkpt>
      <trkpt lat="46.16288" lon="2.47837">
        <ele>463</ele>
        <time>2015-04-20T16:09:26Z</time>
      </trkpt>
      <trkpt lat="46.16291" lon="2.47838">
        <ele>463</ele>
        <time>2015-04-20T16:09:28Z</time>
      </trkpt>
      <trkpt lat="46.16293" lon="2.47838">
        <ele>463</ele>
        <time>2015-04-20T16:09:30Z</time>
      </trkpt>
      <trkpt lat="46.16296" lon="2.47839">
        <ele>463</ele>
        <time>2015-04-20T16:09:32Z</time>
      </trkpt>
      <trkpt lat="46.16299" lon="2.4784">
        <ele>463</ele>
        <time>2015-04-20T16:09:34Z</time>
      </trkpt>
      <trkpt lat="46.16302" lon="2.47841">
        <ele>463</ele>
        <time>2015-04-20T16:09:36Z</time>
      </trkpt>
      <trkpt lat="46.16305" lon="2.47842">
        <ele>463</ele>
        <time>2015-04-20T16:09:38Z</time>
      </trkpt>
      <trkpt lat="46.16308" lon="2.47844">
        <ele>463</ele>
        <time>2015-04-20T16:09:40Z</time>
      </trkpt>
      <trkpt lat="46.16311" lon="2.47845">
        <ele>463</ele>
        <time>2015-04-20T16:09:42Z</time>
      </trkpt>
      <trkpt lat="46.16313" lon="2.47845">
        <ele>463</ele>
        <time>2015-04-20T16:09:44Z</time>
      </trkpt>
      <trkpt lat="46.16316" lon="2.47846">
        <ele>463</ele>
        <time>2015-04-20T16:09:46Z</time>
      </trkpt>
      <trkpt lat="46.16319" lon="2.47848">
        <ele>463</ele>
        <time>2015-04-20T16:09:48Z</time>
      </trkpt>
      <trkpt lat="46.16322" lon="2.47849">
        <ele>463</ele>
        <time>2015-04-20T16:09:50Z</time>
      </trkpt>
      <trkpt lat="46.16325" lon="2.4785">
        <ele>463</ele>
        <time>2015-04-20T16:09:52Z</time>
      </trkpt>
      <trkpt lat="46.16328" lon="2.47852">
        <ele>463</ele>
        <time>2015-04-20T16:09:54Z</time>
      </trkpt>
      <trkpt lat="46.1633" lon="2.47853">
        <ele>463</ele>
        <time>2015-04-20T16:09:56Z</time>
      </trkpt>
      <trkpt lat="46.16333" lon="2.47854">
        <ele>463</ele>
        <time>2015-04-20T16:09:58Z</time>
      </trkpt>
      <trkpt lat="46.16336" lon="2.47855">
        <ele>463</ele>
        <time>2015-04-20T16:10:00Z</time>
      </trkpt>
      <trkpt lat="46.16339" lon="2.47857">
        <ele>463</ele>
        <time>2015-04-20T16:10:02Z</time>
      </trkpt>
      <trkpt lat="46.16342" lon="2.47859">
        <ele>463</ele>
        <time>2015-04-20T16:10:04Z</time>
      </trkpt>
      <trkpt lat="46.16344" lon="2.4786">
        <ele>463</ele>
        <time>2015-04-20T16:10:06Z</time>
      </trkpt>
      <trkpt lat="46.16347" lon="2.47861">
        <ele>463</ele>
        <time>2015-04-20T16:10:08Z</time>
      </trkpt>
      <trkpt lat="46.1635" lon="2.47863">
        <ele>463</ele>
        <time>2015-04-20T16:10:10Z</time>
      </trkpt>
      <trkpt lat="46.16353" lon="2.47864">
        <ele>463</ele>
        <time>2015-04-20T16:10:12Z</time>
      </trkpt>
      <trkpt lat="46.16356" lon="2.47865">
        <ele>463</ele>
        <time>2015-04-20T16:10:14Z</time>
      </trkpt>
      <trkpt lat="46.16359" lon="2.47867">
        <ele>463</ele>
        <time>2015-04-20T16:10:16Z</time>
      </trkpt>
      <trkpt lat="46.16362" lon="2.47868">
        <ele>463</ele>
        <time>2015-04-20T16:10:18Z</time>
      </trkpt>
      <trkpt lat="46.16365" lon="2.4787">
        <ele>463</ele>
        <time>2015-04-20T16:10:20Z</time>
      </trkpt>
      <trkpt lat="46.16367" lon="2.47871">
        <ele>463</ele>
        <time>2015-04-20T16:10:22Z</time>
      </trkpt>
      <trkpt lat="46.1637" lon="2.47873">
        <ele>463</ele>
        <time>2015-04-20T16:10:24Z</time>
      </trkpt>
      <trkpt lat="46.16373" lon="2.47874">
        <ele>463</ele>
        <time>2015-04-20T16:10:26Z</time>
      </trkpt>
      <trkpt lat="46.16375" lon="2.47876">
        <ele>463</ele>
        <time>2015-04-20T16:10:28Z</time>
      </trkpt>
      <trkpt lat="46.16378" lon="2.47877">
        <ele>463</ele>
        <time>2015-04-20T16:10:30Z</time>
      </trkpt>
      <trkpt lat="46.16381" lon="2.47879">
        <ele>463</ele>
        <time>2015-04-20T16:10:32Z</time>
      </trkpt>
      <trkpt lat="46.16384" lon="2.4788">
        <ele>463</ele>
        <time>2015-04-20T16:10:34Z</time>
      </trkpt>
      <trkpt lat="46.16386" lon="2.47882">
        <ele>463</ele>
        <time>2015-04-20T16:10:36Z</time>
      </trkpt>
      <trkpt lat="46.16389" lon="2.47883">
        <ele>463</ele>
        <time>2015-04-20T16:10:38Z</time>
      </trkpt>
      <trkpt lat="46.16391" lon="2.47884">
        <ele>463</ele>
        <time>2015-04-20T16:10:40Z</time>
      </trkpt>
      <trkpt lat="46.16394" lon="2.47886">
        <ele>463</ele>
        <time>2015-04-20T16:10:42Z</time>
      </trkpt>
      <trkpt lat="46.16397" lon="2.47888">
        <ele>463</ele>
        <time>2015-04-20T16:10:44Z</time>
      </trkpt>
      <trkpt lat="46.16399" lon="2.47889">
        <ele>463</ele>
        <time>2015-04-20T16:10:46Z</time>
      </trkpt>
      <trkpt lat="46.16401" lon="2.4789">
        <ele>463</ele>
        <time>2015-04-20T16:10:48Z</time>
      </trkpt>
      <trkpt lat="46.16404" lon="2.47892">
        <ele>463</ele>
        <time>2015-04-20T16:10:50Z</time>
      </trkpt>
      <trkpt lat="46.16407" lon="2.47893">
        <ele>463</ele>
        <time>2015-04-20T16:10:52Z</time>
      </trkpt>
      <trkpt lat="46.1641" lon="2.47894">
        <ele>463</ele>
        <time>2015-04-20T16:10:54Z</time>
      </trkpt>
      <trkpt lat="46.16413" lon="2.47894">
        <ele>463</ele>
        <time>2015-04-20T16:10:56Z</time>
      </trkpt>
      <trkpt lat="46.16417" lon="2.47894">
        <ele>463</ele>
        <time>2015-04-20T16:10:58Z</time>
      </trkpt>
      <trkpt lat="46.1642" lon="2.47893">
        <ele>463</ele>
        <time>2015-04-20T16:11:00Z</time>
      </trkpt>
      <trkpt lat="46.16423" lon="2.47892">
        <ele>463</ele>
        <time>2015-04-20T16:11:02Z</time>
      </trkpt>
      <trkpt lat="46.16425" lon="2.4789">
        <ele>463</ele>
        <time>2015-04-20T16:11:04Z</time>
      </trkpt>
      <trkpt lat="46.16428" lon="2.47889">
        <ele>463</ele>
        <time>2015-04-20T16:11:06Z</time>
      </trkpt>
      <trkpt lat="46.16432" lon="2.47886">
        <ele>463</ele>
        <time>2015-04-20T16:11:09Z</time>
      </trkpt>
      <trkpt lat="46.16434" lon="2.47884">
        <ele>463</ele>
        <time>2015-04-20T16:11:11Z</time>
      </trkpt>
      <trkpt lat="46.16437" lon="2.47882">
        <ele>463</ele>
        <time>2015-04-20T16:11:13Z</time>
      </trkpt>
      <trkpt lat="46.1644" lon="2.4788">
        <ele>463</ele>
        <time>2015-04-20T16:11:15Z</time>
      </trkpt>
      <trkpt lat="46.16442" lon="2.47879">
        <ele>463</ele>
        <time>2015-04-20T16:11:17Z</time>
      </trkpt>
      <trkpt lat="46.16445" lon="2.47878">
        <ele>463</ele>
        <time>2015-04-20T16:11:19Z</time>
      </trkpt>
      <trkpt lat="46.16449" lon="2.47877">
        <ele>463</ele>
        <time>2015-04-20T16:11:21Z</time>
      </trkpt>
      <trkpt lat="46.16452" lon="2.47877">
        <ele>463</ele>
        <time>2015-04-20T16:11:23Z</time>
      </trkpt>
      <trkpt lat="46.16455" lon="2.47878">
        <ele>463</ele>
        <time>2015-04-20T16:11:25Z</time>
      </trkpt>
      <trkpt lat="46.16458" lon="2.47879">
        <ele>463</ele>
        <time>2015-04-20T16:11:27Z</time>
      </trkpt>
      <trkpt lat="46.1646" lon="2.47881">
        <ele>463</ele>
        <time>2015-04-20T16:11:29Z</time>
      </trkpt>
      <trkpt lat="46.16463" lon="2.47883">
        <ele>463</ele>
        <time>2015-04-20T16:11:31Z</time>
      </trkpt>
      <trkpt lat="46.16465" lon="2.47885">
        <ele>463</ele>
        <time>2015-04-20T16:11:33Z</time>
      </trkpt>
      <trkpt lat="46.16468" lon="2.47887">
        <ele>463</ele>
        <time>2015-04-20T16:11:35Z</time>
      </trkpt>
      <trkpt lat="46.16469" lon="2.47891">
        <ele>463</ele>
        <time>2015-04-20T16:11:37Z</time>
      </trkpt>
      <trkpt lat="46.1647" lon="2.47895">
        <ele>463</ele>
        <time>2015-04-20T16:11:39Z</time>
      </trkpt>
      <trkpt lat="46.16472" lon="2.47898">
        <ele>463</ele>
        <time>2015-04-20T16:11:41Z</time>
      </trkpt>
      <trkpt lat="46.16473" lon="2.47902">
        <ele>463</ele>
        <time>2015-04-20T16:11:43Z</time>
      </trkpt>
      <trkpt lat="46.16474" lon="2.47906">
        <ele>463</ele>
        <time>2015-04-20T16:11:45Z</time>
      </trkpt>
      <trkpt lat="46.16475" lon="2.4791">
        <ele>463</ele>
        <time>2015-04-20T16:11:47Z</time>
      </trkpt>
      <trkpt lat="46.16477" lon="2.47914">
        <ele>463</ele>
        <time>2015-04-20T16:11:49Z</time>
      </trkpt>
      <trkpt lat="46.16478" lon="2.47917">
        <ele>463</ele>
        <time>2015-04-20T16:11:51Z</time>
      </trkpt>
      <trkpt lat="46.1648" lon="2.47921">
        <ele>463</ele>
        <time>2015-04-20T16:11:53Z</time>
      </trkpt>
      <trkpt lat="46.16481" lon="2.47924">
        <ele>463</ele>
        <time>2015-04-20T16:11:55Z</time>
      </trkpt>
      <trkpt lat="46.16483" lon="2.47927">
        <ele>463</ele>
        <time>2015-04-20T16:11:57Z</time>
      </trkpt>
      <trkpt lat="46.16486" lon="2.4793">
        <ele>463</ele>
        <time>2015-04-20T16:11:59Z</time>
      </trkpt>
      <trkpt lat="46.16488" lon="2.47933">
        <ele>463</ele>
        <time>2015-04-20T16:12:01Z</time>
      </trkpt>
      <trkpt lat="46.1649" lon="2.47936">
        <ele>463</ele>
        <time>2015-04-20T16:12:03Z</time>
      </trkpt>
      <trkpt lat="46.16492" lon="2.47938">
        <ele>463</ele>
        <time>2015-04-20T16:12:05Z</time>
      </trkpt>
      <trkpt lat="46.16495" lon="2.47941">
        <ele>463</ele>
        <time>2015-04-20T16:12:07Z</time>
      </trkpt>
      <trkpt lat="46.16497" lon="2.47943">
        <ele>463</ele>
        <time>2015-04-20T16:12:09Z</time>
      </trkpt>
      <trkpt lat="46.16499" lon="2.47945">
        <ele>463</ele>
        <time>2015-04-20T16:12:11Z</time>
      </trkpt>
      <trkpt lat="46.16502" lon="2.47947">
        <ele>463</ele>
        <time>2015-04-20T16:12:13Z</time>
      </trkpt>
      <trkpt lat="46.16505" lon="2.4795">
        <ele>463</ele>
        <time>2015-04-20T16:12:15Z</time>
      </trkpt>
      <trkpt lat="46.16507" lon="2.47953">
        <ele>463</ele>
        <time>2015-04-20T16:12:17Z</time>
      </trkpt>
      <trkpt lat="46.1651" lon="2.47955">
        <ele>463</ele>
        <time>2015-04-20T16:12:19Z</time>
      </trkpt>
      <trkpt lat="46.16512" lon="2.47957">
        <ele>463</ele>
        <time>2015-04-20T16:12:21Z</time>
      </trkpt>
      <trkpt lat="46.16515" lon="2.4796">
        <ele>463</ele>
        <time>2015-04-20T16:12:23Z</time>
      </trkpt>
      <trkpt lat="46.16518" lon="2.47962">
        <ele>463</ele>
        <time>2015-04-20T16:12:25Z</time>
      </trkpt>
      <trkpt lat="46.1652" lon="2.47964">
        <ele>463</ele>
        <time>2015-04-20T16:12:27Z</time>
      </trkpt>
      <trkpt lat="46.16522" lon="2.47966">
        <ele>463</ele>
        <time>2015-04-20T16:12:29Z</time>
      </trkpt>
      <trkpt lat="46.16525" lon="2.47968">
        <ele>463</ele>
        <time>2015-04-20T16:12:31Z</time>
      </trkpt>
      <trkpt lat="46.16528" lon="2.4797">
        <ele>463</ele>
        <time>2015-04-20T16:12:33Z</time>
      </trkpt>
      <trkpt lat="46.16531" lon="2.47972">
        <ele>463</ele>
        <time>2015-04-20T16:12:35Z</time>
      </trkpt>
      <trkpt lat="46.16533" lon="2.47974">
        <ele>463</ele>
        <time>2015-04-20T16:12:37Z</time>
      </trkpt>
      <trkpt lat="46.16537" lon="2.47977">
        <ele>463</ele>
        <time>2015-04-20T16:12:40Z</time>
      </trkpt>
      <trkpt lat="46.1654" lon="2.47979">
        <ele>463</ele>
        <time>2015-04-20T16:12:42Z</time>
      </trkpt>
      <trkpt lat="46.16543" lon="2.47981">
        <ele>463</ele>
        <time>2015-04-20T16:12:44Z</time>
      </trkpt>
      <trkpt lat="46.16545" lon="2.47984">
        <ele>463</ele>
        <time>2015-04-20T16:12:46Z</time>
      </trkpt>
      <trkpt lat="46.16548" lon="2.47986">
        <ele>463</ele>
        <time>2015-04-20T16:12:48Z</time>
      </trkpt>
      <trkpt lat="46.1655" lon="2.47989">
        <ele>463</ele>
        <time>2015-04-20T16:12:50Z</time>
      </trkpt>
      <trkpt lat="46.16553" lon="2.47991">
        <ele>463</ele>
        <time>2015-04-20T16:12:52Z</time>
      </trkpt>
      <trkpt lat="46.16555" lon="2.47993">
        <ele>463</ele>
        <time>2015-04-20T16:12:54Z</time>
      </trkpt>
      <trkpt lat="46.16558" lon="2.47995">
        <ele>463</ele>
        <time>2015-04-20T16:12:56Z</time>
      </trkpt>
      <trkpt lat="46.1656" lon="2.47997">
        <ele>463</ele>
        <time>2015-04-20T16:12:58Z</time>
      </trkpt>
      <trkpt lat="46.16563" lon="2.48">
        <ele>463</ele>
        <time>2015-04-20T16:13:00Z</time>
      </trkpt>
      <trkpt lat="46.16565" lon="2.48002">
        <ele>463</ele>
        <time>2015-04-20T16:13:02Z</time>
      </trkpt>
      <trkpt lat="46.16568" lon="2.48004">
        <ele>463</ele>
        <time>2015-04-20T16:13:04Z</time>
      </trkpt>
      <trkpt lat="46.16571" lon="2.48005">
        <ele>463</ele>
        <time>2015-04-20T16:13:06Z</time>
      </trkpt>
      <trkpt lat="46.16573" lon="2.48007">
        <ele>463</ele>
        <time>2015-04-20T16:13:08Z</time>
      </trkpt>
      <trkpt lat="46.16576" lon="2.48009">
        <ele>463</ele>
        <time>2015-04-20T16:13:10Z</time>
      </trkpt>
      <trkpt lat="46.16578" lon="2.48011">
        <ele>463</ele>
        <time>2015-04-20T16:13:12Z</time>
      </trkpt>
      <trkpt lat="46.16581" lon="2.48014">
        <ele>463</ele>
        <time>2015-04-20T16:13:14Z</time>
      </trkpt>
      <trkpt lat="46.16583" lon="2.48016">
        <ele>463</ele>
        <time>2015-04-20T16:13:16Z</time>
      </trkpt>
      <trkpt lat="46.16586" lon="2.48019">
        <ele>463</ele>
        <time>2015-04-20T16:13:18Z</time>
      </trkpt>
      <trkpt lat="46.16588" lon="2.48021">
        <ele>463</ele>
        <time>2015-04-20T16:13:20Z</time>
      </trkpt>
      <trkpt lat="46.1659" lon="2.48024">
        <ele>463</ele>
        <time>2015-04-20T16:13:22Z</time>
      </trkpt>
      <trkpt lat="46.16593" lon="2.48026">
        <ele>463</ele>
        <time>2015-04-20T16:13:24Z</time>
      </trkpt>
      <trkpt lat="46.16595" lon="2.48029">
        <ele>463</ele>
        <time>2015-04-20T16:13:26Z</time>
      </trkpt>
      <trkpt lat="46.16597" lon="2.48032">
        <ele>463</ele>
        <time>2015-04-20T16:13:28Z</time>
      </trkpt>
      <trkpt lat="46.16599" lon="2.48035">
        <ele>463</ele>
        <time>2015-04-20T16:13:30Z</time>
      </trkpt>
      <trkpt lat="46.16602" lon="2.48038">
        <ele>463</ele>
        <time>2015-04-20T16:13:32Z</time>
      </trkpt>
      <trkpt lat="46.16604" lon="2.48041">
        <ele>463</ele>
        <time>2015-04-20T16:13:34Z</time>
      </trkpt>
      <trkpt lat="46.16606" lon="2.48044">
        <ele>463</ele>
        <time>2015-04-20T16:13:36Z</time>
      </trkpt>
      <trkpt lat="46.16608" lon="2.48047">
        <ele>463</ele>
        <time>2015-04-20T16:13:38Z</time>
      </trkpt>
      <trkpt lat="46.16611" lon="2.48051">
        <ele>463</ele>
        <time>2015-04-20T16:13:41Z</time>
      </trkpt>
      <trkpt lat="46.16613" lon="2.48054">
        <ele>463</ele>
        <time>2015-04-20T16:13:43Z</time>
      </trkpt>
      <trkpt lat="46.16615" lon="2.48058">
        <ele>463</ele>
        <time>2015-04-20T16:13:45Z</time>
      </trkpt>
      <trkpt lat="46.16617" lon="2.4806">
        <ele>463</ele>
        <time>2015-04-20T16:13:47Z</time>
      </trkpt>
      <trkpt lat="46.16619" lon="2.48063">
        <ele>463</ele>
        <time>2015-04-20T16:13:49Z</time>
      </trkpt>
      <trkpt lat="46.16622" lon="2.48065">
        <ele>463</ele>
        <time>2015-04-20T16:13:51Z</time>
      </trkpt>
      <trkpt lat="46.16625" lon="2.48067">
        <ele>463</ele>
        <time>2015-04-20T16:13:53Z</time>
      </trkpt>
      <trkpt lat="46.16628" lon="2.48067">
        <ele>463</ele>
        <time>2015-04-20T16:13:55Z</time>
      </trkpt>
      <trkpt lat="46.1663" lon="2.48067">
        <ele>463</ele>
        <time>2015-04-20T16:13:57Z</time>
      </trkpt>
      <trkpt lat="46.16633" lon="2.48067">
        <ele>463</ele>
        <time>2015-04-20T16:13:59Z</time>
      </trkpt>
      <trkpt lat="46.16636" lon="2.48068">
        <ele>463</ele>
        <time>2015-04-20T16:14:01Z</time>
      </trkpt>
      <trkpt lat="46.16639" lon="2.48068">
        <ele>463</ele>
        <time>2015-04-20T16:14:03Z</time>
      </trkpt>
      <trkpt lat="46.16642" lon="2.48068">
        <ele>463</ele>
        <time>2015-04-20T16:14:05Z</time>
      </trkpt>
      <trkpt lat="46.16645" lon="2.48068">
        <ele>463</ele>
        <time>2015-04-20T16:14:07Z</time>
      </trkpt>
      <trkpt lat="46.16647" lon="2.48069">
        <ele>463</ele>
        <time>2015-04-20T16:14:09Z</time>
      </trkpt>
      <trkpt lat="46.1665" lon="2.48069">
        <ele>463</ele>
        <time>2015-04-20T16:14:11Z</time>
      </trkpt>
      <trkpt lat="46.16653" lon="2.48069">
        <ele>463</ele>
        <time>2015-04-20T16:14:13Z</time>
      </trkpt>
      <trkpt lat="46.16656" lon="2.48069">
        <ele>463</ele>
        <time>2015-04-20T16:14:15Z</time>
      </trkpt>
      <trkpt lat="46.16659" lon="2.4807">
        <ele>463</ele>
        <time>2015-04-20T16:14:17Z</time>
      </trkpt>
      <trkpt lat="46.16662" lon="2.4807">
        <ele>463</ele>
        <time>2015-04-20T16:14:19Z</time>
      </trkpt>
      <trkpt lat="46.16665" lon="2.48071">
        <ele>463</ele>
        <time>2015-04-20T16:14:21Z</time>
      </trkpt>
      <trkpt lat="46.16668" lon="2.48071">
        <ele>463</ele>
        <time>2015-04-20T16:14:23Z</time>
      </trkpt>
      <trkpt lat="46.16671" lon="2.48072">
        <ele>463</ele>
        <time>2015-04-20T16:14:25Z</time>
      </trkpt>
      <trkpt lat="46.16674" lon="2.48072">
        <ele>463</ele>
        <time>2015-04-20T16:14:27Z</time>
      </trkpt>
      <trkpt lat="46.16677" lon="2.48072">
        <ele>463</ele>
        <time>2015-04-20T16:14:29Z</time>
      </trkpt>
      <trkpt lat="46.1668" lon="2.48073">
        <ele>463</ele>
        <time>2015-04-20T16:14:31Z</time>
      </trkpt>
      <trkpt lat="46.16682" lon="2.48073">
        <ele>463</ele>
        <time>2015-04-20T16:14:33Z</time>
      </trkpt>
      <trkpt lat="46.16685" lon="2.48073">
        <ele>463</ele>
        <time>2015-04-20T16:14:35Z</time>
      </trkpt>
      <trkpt lat="46.16687" lon="2.48073">
        <ele>463</ele>
        <time>2015-04-20T16:14:37Z</time>
      </trkpt>
      <trkpt lat="46.1669" lon="2.48073">
        <ele>463</ele>
        <time>2015-04-20T16:14:39Z</time>
      </trkpt>
      <trkpt lat="46.16693" lon="2.48073">
        <ele>463</ele>
        <time>2015-04-20T16:14:41Z</time>
      </trkpt>
      <trkpt lat="46.16696" lon="2.48073">
        <ele>463</ele>
        <time>2015-04-20T16:14:43Z</time>
      </trkpt>
      <trkpt lat="46.16699" lon="2.48074">
        <ele>463</ele>
        <time>2015-04-20T16:14:45Z</time>
      </trkpt>
      <trkpt lat="46.16702" lon="2.48074">
        <ele>463</ele>
        <time>2015-04-20T16:14:47Z</time>
      </trkpt>
      <trkpt lat="46.16705" lon="2.48074">
        <ele>463</ele>
        <time>2015-04-20T16:14:49Z</time>
      </trkpt>
      <trkpt lat="46.16708" lon="2.48075">
        <ele>463</ele>
        <time>2015-04-20T16:14:51Z</time>
      </trkpt>
      <trkpt lat="46.16711" lon="2.48075">
        <ele>463</ele>
        <time>2015-04-20T16:14:53Z</time>
      </trkpt>
      <trkpt lat="46.16714" lon="2.48076">
        <ele>463</ele>
        <time>2015-04-20T16:14:55Z</time>
      </trkpt>
      <trkpt lat="46.16717" lon="2.48076">
        <ele>463</ele>
        <time>2015-04-20T16:14:57Z</time>
      </trkpt>
      <trkpt lat="46.1672" lon="2.48077">
        <ele>463</ele>
        <time>2015-04-20T16:14:59Z</time>
      </trkpt>
      <trkpt lat="46.16723" lon="2.48076">
        <ele>463</ele>
        <time>2015-04-20T16:15:01Z</time>
      </trkpt>
      <trkpt lat="46.16726" lon="2.48076">
        <ele>463</ele>
        <time>2015-04-20T16:15:03Z</time>
      </trkpt>
      <trkpt lat="46.16729" lon="2.48077">
        <ele>463</ele>
        <time>2015-04-20T16:15:05Z</time>
      </trkpt>
      <trkpt lat="46.16732" lon="2.48077">
        <ele>463</ele>
        <time>2015-04-20T16:15:07Z</time>
      </trkpt>
      <trkpt lat="46.16735" lon="2.48077">
        <ele>463</ele>
        <time>2015-04-20T16:15:09Z</time>
      </trkpt>
      <trkpt lat="46.16738" lon="2.48078">
        <ele>463</ele>
        <time>2015-04-20T16:15:11Z</time>
      </trkpt>
      <trkpt lat="46.16741" lon="2.48078">
        <ele>463</ele>
        <time>2015-04-20T16:15:13Z</time>
      </trkpt>
      <trkpt lat="46.16744" lon="2.48078">
        <ele>463</ele>
        <time>2015-04-20T16:15:15Z</time>
      </trkpt>
      <trkpt lat="46.16747" lon="2.48078">
        <ele>463</ele>
        <time>2015-04-20T16:15:17Z</time>
      </trkpt>
      <trkpt lat="46.1675" lon="2.48079">
        <ele>463</ele>
        <time>2015-04-20T16:15:19Z</time>
      </trkpt>
      <trkpt lat="46.16753" lon="2.48079">
        <ele>463</ele>
        <time>2015-04-20T16:15:21Z</time>
      </trkpt>
      <trkpt lat="46.16756" lon="2.48079">
        <ele>463</ele>
        <time>2015-04-20T16:15:23Z</time>
      </trkpt>
      <trkpt lat="46.16758" lon="2.4808">
        <ele>463</ele>
        <time>2015-04-20T16:15:25Z</time>
      </trkpt>
      <trkpt lat="46.16761" lon="2.48081">
        <ele>463</ele>
        <time>2015-04-20T16:15:27Z</time>
      </trkpt>
      <trkpt lat="46.16764" lon="2.48082">
        <ele>463</ele>
        <time>2015-04-20T16:15:29Z</time>
      </trkpt>
      <trkpt lat="46.16766" lon="2.48082">
        <ele>463</ele>
        <time>2015-04-20T16:15:31Z</time>
      </trkpt>
      <trkpt lat="46.1677" lon="2.48082">
        <ele>463</ele>
        <time>2015-04-20T16:15:33Z</time>
      </trkpt>
      <trkpt lat="46.16773" lon="2.48083">
        <ele>463</ele>
        <time>2015-04-20T16:15:35Z</time>
      </trkpt>
      <trkpt lat="46.16776" lon="2.48083">
        <ele>463</ele>
        <time>2015-04-20T16:15:37Z</time>
      </trkpt>
      <trkpt lat="46.16779" lon="2.48083">
        <ele>463</ele>
        <time>2015-04-20T16:15:39Z</time>
      </trkpt>
      <trkpt lat="46.16781" lon="2.48083">
        <ele>463</ele>
        <time>2015-04-20T16:15:41Z</time>
      </trkpt>
      <trkpt lat="46.16784" lon="2.48083">
        <ele>463</ele>
        <time>2015-04-20T16:15:43Z</time>
      </trkpt>
      <trkpt lat="46.16787" lon="2.48084">
        <ele>463</ele>
        <time>2015-04-20T16:15:45Z</time>
      </trkpt>
      <trkpt lat="46.16791" lon="2.48084">
        <ele>463</ele>
        <time>2015-04-20T16:15:47Z</time>
      </trkpt>
      <trkpt lat="46.16794" lon="2.48084">
        <ele>463</ele>
        <time>2015-04-20T16:15:49Z</time>
      </trkpt>
      <trkpt lat="46.16797" lon="2.48084">
        <ele>463</ele>
        <time>2015-04-20T16:15:51Z</time>
      </trkpt>
      <trkpt lat="46.168" lon="2.48084">
        <ele>463</ele>
        <time>2015-04-20T16:15:53Z</time>
      </trkpt>
      <trkpt lat="46.16803" lon="2.48084">
        <ele>463</ele>
        <time>2015-04-20T16:15:55Z</time>
      </trkpt>
      <trkpt lat="46.16805" lon="2.48085">
        <ele>463</ele>
        <time>2015-04-20T16:15:57Z</time>
      </trkpt>
      <trkpt lat="46.16808" lon="2.48085">
        <ele>463</ele>
        <time>2015-04-20T16:15:59Z</time>
      </trkpt>
      <trkpt lat="46.16811" lon="2.48085">
        <ele>463</ele>
        <time>2015-04-20T16:16:01Z</time>
      </trkpt>
      <trkpt lat="46.16814" lon="2.48085">
        <ele>463</ele>
        <time>2015-04-20T16:16:03Z</time>
      </trkpt>
      <trkpt lat="46.16817" lon="2.48086">
        <ele>463</ele>
        <time>2015-04-20T16:16:05Z</time>
      </trkpt>
      <trkpt lat="46.16819" lon="2.48086">
        <ele>463</ele>
        <time>2015-04-20T16:16:07Z</time>
      </trkpt>
      <trkpt lat="46.16822" lon="2.48087">
        <ele>463</ele>
        <time>2015-04-20T16:16:09Z</time>
      </trkpt>
      <trkpt lat="46.16826" lon="2.48087">
        <ele>463</ele>
        <time>2015-04-20T16:16:11Z</time>
      </trkpt>
      <trkpt lat="46.16829" lon="2.48088">
        <ele>463</ele>
        <time>2015-04-20T16:16:13Z</time>
      </trkpt>
      <trkpt lat="46.16832" lon="2.48088">
        <ele>463</ele>
        <time>2015-04-20T16:16:15Z</time>
      </trkpt>
      <trkpt lat="46.16836" lon="2.48088">
        <ele>463</ele>
        <time>2015-04-20T16:16:17Z</time>
      </trkpt>
      <trkpt lat="46.16839" lon="2.48089">
        <ele>463</ele>
        <time>2015-04-20T16:16:19Z</time>
      </trkpt>
      <trkpt lat="46.16841" lon="2.48089">
        <ele>463</ele>
        <time>2015-04-20T16:16:21Z</time>
      </trkpt>
      <trkpt lat="46.16844" lon="2.48089">
        <ele>463</ele>
        <time>2015-04-20T16:16:23Z</time>
      </trkpt>
      <trkpt lat="46.16847" lon="2.4809">
        <ele>463</ele>
        <time>2015-04-20T16:16:25Z</time>
      </trkpt>
      <trkpt lat="46.1685" lon="2.4809">
        <ele>463</ele>
        <time>2015-04-20T16:16:27Z</time>
      </trkpt>
      <trkpt lat="46.16853" lon="2.4809">
        <ele>463</ele>
        <time>2015-04-20T16:16:29Z</time>
      </trkpt>
      <trkpt lat="46.16856" lon="2.4809">
        <ele>463</ele>
        <time>2015-04-20T16:16:31Z</time>
      </trkpt>
      <trkpt lat="46.16859" lon="2.4809">
        <ele>463</ele>
        <time>2015-04-20T16:16:33Z</time>
      </trkpt>
      <trkpt lat="46.16862" lon="2.48092">
        <ele>463</ele>
        <time>2015-04-20T16:16:35Z</time>
      </trkpt>
      <trkpt lat="46.16865" lon="2.48092">
        <ele>463</ele>
        <time>2015-04-20T16:16:37Z</time>
      </trkpt>
      <trkpt lat="46.16868" lon="2.48093">
        <ele>463</ele>
        <time>2015-04-20T16:16:39Z</time>
      </trkpt>
      <trkpt lat="46.16871" lon="2.48093">
        <ele>463</ele>
        <time>2015-04-20T16:16:41Z</time>
      </trkpt>
      <trkpt lat="46.16874" lon="2.48093">
        <ele>463</ele>
        <time>2015-04-20T16:16:43Z</time>
      </trkpt>
      <trkpt lat="46.16877" lon="2.48093">
        <ele>463</ele>
        <time>2015-04-20T16:16:45Z</time>
      </trkpt>
      <trkpt lat="46.1688" lon="2.48094">
        <ele>463</ele>
        <time>2015-04-20T16:16:47Z</time>
      </trkpt>
      <trkpt lat="46.16883" lon="2.48094">
        <ele>463</ele>
        <time>2015-04-20T16:16:49Z</time>
      </trkpt>
      <trkpt lat="46.16886" lon="2.48094">
        <ele>463</ele>
        <time>2015-04-20T16:16:51Z</time>
      </trkpt>
      <trkpt lat="46.1689" lon="2.48094">
        <ele>463</ele>
        <time>2015-04-20T16:16:53Z</time>
      </trkpt>
      <trkpt lat="46.16893" lon="2.48094">
        <ele>463</ele>
        <time>2015-04-20T16:16:55Z</time>
      </trkpt>
      <trkpt lat="46.16896" lon="2.48095">
        <ele>463</ele>
        <time>2015-04-20T16:16:57Z</time>
      </trkpt>
      <trkpt lat="46.16898" lon="2.48095">
        <ele>463</ele>
        <time>2015-04-20T16:16:59Z</time>
      </trkpt>
      <trkpt lat="46.16901" lon="2.48095">
        <ele>463</ele>
        <time>2015-04-20T16:17:01Z</time>
      </trkpt>
      <trkpt lat="46.16904" lon="2.48095">
        <ele>463</ele>
        <time>2015-04-20T16:17:03Z</time>
      </trkpt>
      <trkpt lat="46.16907" lon="2.48095">
        <ele>463</ele>
        <time>2015-04-20T16:17:05Z</time>
      </trkpt>
      <trkpt lat="46.1691" lon="2.48096">
        <ele>463</ele>
        <time>2015-04-20T16:17:07Z</time>
      </trkpt>
      <trkpt lat="46.16912" lon="2.48096">
        <ele>463</ele>
        <time>2015-04-20T16:17:09Z</time>
      </trkpt>
      <trkpt lat="46.16915" lon="2.48096">
        <ele>463</ele>
        <time>2015-04-20T16:17:11Z</time>
      </trkpt>
      <trkpt lat="46.16918" lon="2.48096">
        <ele>463</ele>
        <time>2015-04-20T16:17:13Z</time>
      </trkpt>
      <trkpt lat="46.1692" lon="2.48096">
        <ele>463</ele>
        <time>2015-04-20T16:17:15Z</time>
      </trkpt>
      <trkpt lat="46.16923" lon="2.48096">
        <ele>463</ele>
        <time>2015-04-20T16:17:17Z</time>
      </trkpt>
      <trkpt lat="46.16927" lon="2.48097">
        <ele>463</ele>
        <time>2015-04-20T16:17:19Z</time>
      </trkpt>
      <trkpt lat="46.1693" lon="2.48097">
        <ele>463</ele>
        <time>2015-04-20T16:17:21Z</time>
      </trkpt>
      <trkpt lat="46.16933" lon="2.48098">
        <ele>463</ele>
        <time>2015-04-20T16:17:23Z</time>
      </trkpt>
      <trkpt lat="46.16936" lon="2.48098">
        <ele>463</ele>
        <time>2015-04-20T16:17:25Z</time>
      </trkpt>
      <trkpt lat="46.16939" lon="2.48099">
        <ele>463</ele>
        <time>2015-04-20T16:17:27Z</time>
      </trkpt>
      <trkpt lat="46.16942" lon="2.48099">
        <ele>463</ele>
        <time>2015-04-20T16:17:29Z</time>
      </trkpt>
      <trkpt lat="46.16945" lon="2.481">
        <ele>463</ele>
        <time>2015-04-20T16:17:31Z</time>
      </trkpt>
      <trkpt lat="46.16949" lon="2.48102">
        <ele>463</ele>
        <time>2015-04-20T16:17:34Z</time>
      </trkpt>
      <trkpt lat="46.16952" lon="2.48102">
        <ele>463</ele>
        <time>2015-04-20T16:17:36Z</time>
      </trkpt>
      <trkpt lat="46.16954" lon="2.48104">
        <ele>463</ele>
        <time>2015-04-20T16:17:38Z</time>
      </trkpt>
      <trkpt lat="46.16956" lon="2.48105">
        <ele>463</ele>
        <time>2015-04-20T16:17:40Z</time>
      </trkpt>
      <trkpt lat="46.1696" lon="2.48105">
        <ele>463</ele>
        <time>2015-04-20T16:17:42Z</time>
      </trkpt>
      <trkpt lat="46.16963" lon="2.48103">
        <ele>463</ele>
        <time>2015-04-20T16:17:44Z</time>
      </trkpt>
      <trkpt lat="46.16966" lon="2.48103">
        <ele>463</ele>
        <time>2015-04-20T16:17:46Z</time>
      </trkpt>
      <trkpt lat="46.16969" lon="2.48102">
        <ele>463</ele>
        <time>2015-04-20T16:17:48Z</time>
      </trkpt>
      <trkpt lat="46.16971" lon="2.48103">
        <ele>463</ele>
        <time>2015-04-20T16:17:50Z</time>
      </trkpt>
      <trkpt lat="46.16974" lon="2.48103">
        <ele>463</ele>
        <time>2015-04-20T16:17:52Z</time>
      </trkpt>
      <trkpt lat="46.16977" lon="2.48103">
        <ele>463</ele>
        <time>2015-04-20T16:17:54Z</time>
      </trkpt>
      <trkpt lat="46.1698" lon="2.48103">
        <ele>463</ele>
        <time>2015-04-20T16:17:56Z</time>
      </trkpt>
      <trkpt lat="46.16983" lon="2.48103">
        <ele>463</ele>
        <time>2015-04-20T16:17:58Z</time>
      </trkpt>
      <trkpt lat="46.16986" lon="2.48104">
        <ele>463</ele>
        <time>2015-04-20T16:18:00Z</time>
      </trkpt>
      <trkpt lat="46.16989" lon="2.48105">
        <ele>463</ele>
        <time>2015-04-20T16:18:02Z</time>
      </trkpt>
      <trkpt lat="46.16992" lon="2.48106">
        <ele>463</ele>
        <time>2015-04-20T16:18:04Z</time>
      </trkpt>
      <trkpt lat="46.16995" lon="2.48107">
        <ele>463</ele>
        <time>2015-04-20T16:18:06Z</time>
      </trkpt>
      <trkpt lat="46.16998" lon="2.48108">
        <ele>463</ele>
        <time>2015-04-20T16:18:08Z</time>
      </trkpt>
      <trkpt lat="46.17001" lon="2.4811">
        <ele>463</ele>
        <time>2015-04-20T16:18:10Z</time>
      </trkpt>
      <trkpt lat="46.17004" lon="2.48111">
        <ele>463</ele>
        <time>2015-04-20T16:18:12Z</time>
      </trkpt>
      <trkpt lat="46.17006" lon="2.48111">
        <ele>463</ele>
        <time>2015-04-20T16:18:14Z</time>
      </trkpt>
      <trkpt lat="46.17009" lon="2.48112">
        <ele>463</ele>
        <time>2015-04-20T16:18:16Z</time>
      </trkpt>
      <trkpt lat="46.17012" lon="2.48113">
        <ele>463</ele>
        <time>2015-04-20T16:18:18Z</time>
      </trkpt>
      <trkpt lat="46.17015" lon="2.48115">
        <ele>463</ele>
        <time>2015-04-20T16:18:20Z</time>
      </trkpt>
      <trkpt lat="46.17018" lon="2.48116">
        <ele>463</ele>
        <time>2015-04-20T16:18:22Z</time>
      </trkpt>
      <trkpt lat="46.17021" lon="2.48117">
        <ele>463</ele>
        <time>2015-04-20T16:18:24Z</time>
      </trkpt>
      <trkpt lat="46.17023" lon="2.48117">
        <ele>463</ele>
        <time>2015-04-20T16:18:26Z</time>
      </trkpt>
      <trkpt lat="46.17027" lon="2.48119">
        <ele>463</ele>
        <time>2015-04-20T16:18:28Z</time>
      </trkpt>
      <trkpt lat="46.17029" lon="2.4812">
        <ele>463</ele>
        <time>2015-04-20T16:18:30Z</time>
      </trkpt>
      <trkpt lat="46.17032" lon="2.48122">
        <ele>463</ele>
        <time>2015-04-20T16:18:32Z</time>
      </trkpt>
      <trkpt lat="46.17035" lon="2.48123">
        <ele>463</ele>
        <time>2015-04-20T16:18:34Z</time>
      </trkpt>
      <trkpt lat="46.17038" lon="2.48123">
        <ele>463</ele>
        <time>2015-04-20T16:18:36Z</time>
      </trkpt>
      <trkpt lat="46.17041" lon="2.48124">
        <ele>463</ele>
        <time>2015-04-20T16:18:38Z</time>
      </trkpt>
      <trkpt lat="46.17044" lon="2.48125">
        <ele>463</ele>
        <time>2015-04-20T16:18:40Z</time>
      </trkpt>
      <trkpt lat="46.17046" lon="2.48126">
        <ele>463</ele>
        <time>2015-04-20T16:18:42Z</time>
      </trkpt>
      <trkpt lat="46.17049" lon="2.48126">
        <ele>463</ele>
        <time>2015-04-20T16:18:44Z</time>
      </trkpt>
      <trkpt lat="46.17052" lon="2.48127">
        <ele>463</ele>
        <time>2015-04-20T16:18:46Z</time>
      </trkpt>
      <trkpt lat="46.17055" lon="2.48128">
        <ele>463</ele>
        <time>2015-04-20T16:18:48Z</time>
      </trkpt>
      <trkpt lat="46.17058" lon="2.4813">
        <ele>463</ele>
        <time>2015-04-20T16:18:50Z</time>
      </trkpt>
      <trkpt lat="46.17061" lon="2.48131">
        <ele>463</ele>
        <time>2015-04-20T16:18:52Z</time>
      </trkpt>
      <trkpt lat="46.17064" lon="2.48132">
        <ele>463</ele>
        <time>2015-04-20T16:18:54Z</time>
      </trkpt>
      <trkpt lat="46.17067" lon="2.48133">
        <ele>463</ele>
        <time>2015-04-20T16:18:56Z</time>
      </trkpt>
      <trkpt lat="46.1707" lon="2.48134">
        <ele>463</ele>
        <time>2015-04-20T16:18:58Z</time>
      </trkpt>
      <trkpt lat="46.17072" lon="2.48136">
        <ele>463</ele>
        <time>2015-04-20T16:19:00Z</time>
      </trkpt>
      <trkpt lat="46.17075" lon="2.48138">
        <ele>463</ele>
        <time>2015-04-20T16:19:02Z</time>
      </trkpt>
      <trkpt lat="46.17078" lon="2.48139">
        <ele>463</ele>
        <time>2015-04-20T16:19:04Z</time>
      </trkpt>
      <trkpt lat="46.17081" lon="2.48141">
        <ele>463</ele>
        <time>2015-04-20T16:19:06Z</time>
      </trkpt>
      <trkpt lat="46.17083" lon="2.48142">
        <ele>463</ele>
        <time>2015-04-20T16:19:08Z</time>
      </trkpt>
      <trkpt lat="46.17086" lon="2.48143">
        <ele>463</ele>
        <time>2015-04-20T16:19:10Z</time>
      </trkpt>
      <trkpt lat="46.1709" lon="2.48144">
        <ele>463</ele>
        <time>2015-04-20T16:19:12Z</time>
      </trkpt>
      <trkpt lat="46.17093" lon="2.48146">
        <ele>463</ele>
        <time>2015-04-20T16:19:14Z</time>
      </trkpt>
      <trkpt lat="46.17095" lon="2.48147">
        <ele>463</ele>
        <time>2015-04-20T16:19:16Z</time>
      </trkpt>
      <trkpt lat="46.17097" lon="2.48148">
        <ele>463</ele>
        <time>2015-04-20T16:19:18Z</time>
      </trkpt>
      <trkpt lat="46.171" lon="2.48149">
        <ele>463</ele>
        <time>2015-04-20T16:19:20Z</time>
      </trkpt>
      <trkpt lat="46.17103" lon="2.48149">
        <ele>463</ele>
        <time>2015-04-20T16:19:22Z</time>
      </trkpt>
      <trkpt lat="46.17106" lon="2.4815">
        <ele>463</ele>
        <time>2015-04-20T16:19:24Z</time>
      </trkpt>
      <trkpt lat="46.17109" lon="2.48151">
        <ele>463</ele>
        <time>2015-04-20T16:19:26Z</time>
      </trkpt>
      <trkpt lat="46.17111" lon="2.48151">
        <ele>463</ele>
        <time>2015-04-20T16:19:28Z</time>
      </trkpt>
      <trkpt lat="46.17114" lon="2.48152">
        <ele>463</ele>
        <time>2015-04-20T16:19:30Z</time>
      </trkpt>
      <trkpt lat="46.17117" lon="2.48153">
        <ele>463</ele>
        <time>2015-04-20T16:19:32Z</time>
      </trkpt>
      <trkpt lat="46.1712" lon="2.48154">
        <ele>463</ele>
        <time>2015-04-20T16:19:34Z</time>
      </trkpt>
      <trkpt lat="46.17123" lon="2.48155">
        <ele>463</ele>
        <time>2015-04-20T16:19:36Z</time>
      </trkpt>
      <trkpt lat="46.17126" lon="2.48157">
        <ele>463</ele>
        <time>2015-04-20T16:19:38Z</time>
      </trkpt>
      <trkpt lat="46.17129" lon="2.48158">
        <ele>463</ele>
        <time>2015-04-20T16:19:40Z</time>
      </trkpt>
      <trkpt lat="46.17132" lon="2.4816">
        <ele>463</ele>
        <time>2015-04-20T16:19:42Z</time>
      </trkpt>
      <trkpt lat="46.17135" lon="2.48162">
        <ele>462</ele>
        <time>2015-04-20T16:19:45Z</time>
      </trkpt>
      <trkpt lat="46.17138" lon="2.48162">
        <ele>462</ele>
        <time>2015-04-20T16:19:47Z</time>
      </trkpt>
      <trkpt lat="46.17141" lon="2.48163">
        <ele>462</ele>
        <time>2015-04-20T16:19:49Z</time>
      </trkpt>
      <trkpt lat="46.17144" lon="2.48164">
        <ele>461</ele>
        <time>2015-04-20T16:19:51Z</time>
      </trkpt>
      <trkpt lat="46.17147" lon="2.48165">
        <ele>461</ele>
        <time>2015-04-20T16:19:53Z</time>
      </trkpt>
      <trkpt lat="46.1715" lon="2.48165">
        <ele>461</ele>
        <time>2015-04-20T16:19:55Z</time>
      </trkpt>
      <trkpt lat="46.17153" lon="2.48166">
        <ele>461</ele>
        <time>2015-04-20T16:19:57Z</time>
      </trkpt>
      <trkpt lat="46.17156" lon="2.48167">
        <ele>461</ele>
        <time>2015-04-20T16:19:59Z</time>
      </trkpt>
      <trkpt lat="46.17158" lon="2.48167">
        <ele>460</ele>
        <time>2015-04-20T16:20:01Z</time>
      </trkpt>
      <trkpt lat="46.17161" lon="2.48168">
        <ele>460</ele>
        <time>2015-04-20T16:20:03Z</time>
      </trkpt>
      <trkpt lat="46.17165" lon="2.4817">
        <ele>460</ele>
        <time>2015-04-20T16:20:05Z</time>
      </trkpt>
      <trkpt lat="46.17168" lon="2.48171">
        <ele>460</ele>
        <time>2015-04-20T16:20:07Z</time>
      </trkpt>
      <trkpt lat="46.1717" lon="2.48171">
        <ele>460</ele>
        <time>2015-04-20T16:20:09Z</time>
      </trkpt>
      <trkpt lat="46.17173" lon="2.48173">
        <ele>460</ele>
        <time>2015-04-20T16:20:11Z</time>
      </trkpt>
      <trkpt lat="46.17176" lon="2.48174">
        <ele>460</ele>
        <time>2015-04-20T16:20:13Z</time>
      </trkpt>
      <trkpt lat="46.17179" lon="2.48175">
        <ele>460</ele>
        <time>2015-04-20T16:20:15Z</time>
      </trkpt>
      <trkpt lat="46.17182" lon="2.48176">
        <ele>460</ele>
        <time>2015-04-20T16:20:17Z</time>
      </trkpt>
      <trkpt lat="46.17185" lon="2.48178">
        <ele>460</ele>
        <time>2015-04-20T16:20:19Z</time>
      </trkpt>
      <trkpt lat="46.17188" lon="2.48179">
        <ele>460</ele>
        <time>2015-04-20T16:20:21Z</time>
      </trkpt>
      <trkpt lat="46.1719" lon="2.4818">
        <ele>460</ele>
        <time>2015-04-20T16:20:23Z</time>
      </trkpt>
      <trkpt lat="46.17193" lon="2.48181">
        <ele>460</ele>
        <time>2015-04-20T16:20:25Z</time>
      </trkpt>
      <trkpt lat="46.17196" lon="2.48182">
        <ele>460</ele>
        <time>2015-04-20T16:20:27Z</time>
      </trkpt>
      <trkpt lat="46.17199" lon="2.48183">
        <ele>460</ele>
        <time>2015-04-20T16:20:29Z</time>
      </trkpt>
      <trkpt lat="46.17201" lon="2.48185">
        <ele>460</ele>
        <time>2015-04-20T16:20:31Z</time>
      </trkpt>
      <trkpt lat="46.17204" lon="2.48185">
        <ele>460</ele>
        <time>2015-04-20T16:20:33Z</time>
      </trkpt>
      <trkpt lat="46.17207" lon="2.48187">
        <ele>460</ele>
        <time>2015-04-20T16:20:35Z</time>
      </trkpt>
      <trkpt lat="46.1721" lon="2.48188">
        <ele>460</ele>
        <time>2015-04-20T16:20:37Z</time>
      </trkpt>
      <trkpt lat="46.17214" lon="2.48189">
        <ele>460</ele>
        <time>2015-04-20T16:20:40Z</time>
      </trkpt>
      <trkpt lat="46.17217" lon="2.4819">
        <ele>460</ele>
        <time>2015-04-20T16:20:42Z</time>
      </trkpt>
      <trkpt lat="46.1722" lon="2.48192">
        <ele>460</ele>
        <time>2015-04-20T16:20:44Z</time>
      </trkpt>
      <trkpt lat="46.17223" lon="2.48193">
        <ele>460</ele>
        <time>2015-04-20T16:20:46Z</time>
      </trkpt>
      <trkpt lat="46.17226" lon="2.48194">
        <ele>460</ele>
        <time>2015-04-20T16:20:48Z</time>
      </trkpt>
      <trkpt lat="46.17229" lon="2.48195">
        <ele>460</ele>
        <time>2015-04-20T16:20:50Z</time>
      </trkpt>
      <trkpt lat="46.17232" lon="2.48196">
        <ele>460</ele>
        <time>2015-04-20T16:20:52Z</time>
      </trkpt>
      <trkpt lat="46.17234" lon="2.48197">
        <ele>460</ele>
        <time>2015-04-20T16:20:54Z</time>
      </trkpt>
      <trkpt lat="46.17237" lon="2.48198">
        <ele>460</ele>
        <time>2015-04-20T16:20:56Z</time>
      </trkpt>
      <trkpt lat="46.1724" lon="2.48199">
        <ele>460</ele>
        <time>2015-04-20T16:20:58Z</time>
      </trkpt>
      <trkpt lat="46.17243" lon="2.482">
        <ele>460</ele>
        <time>2015-04-20T16:21:00Z</time>
      </trkpt>
      <trkpt lat="46.17246" lon="2.48201">
        <ele>460</ele>
        <time>2015-04-20T16:21:02Z</time>
      </trkpt>
      <trkpt lat="46.17249" lon="2.48202">
        <ele>460</ele>
        <time>2015-04-20T16:21:04Z</time>
      </trkpt>
      <trkpt lat="46.17251" lon="2.48203">
        <ele>460</ele>
        <time>2015-04-20T16:21:06Z</time>
      </trkpt>
      <trkpt lat="46.17254" lon="2.48204">
        <ele>460</ele>
        <time>2015-04-20T16:21:08Z</time>
      </trkpt>
      <trkpt lat="46.17257" lon="2.48205">
        <ele>460</ele>
        <time>2015-04-20T16:21:10Z</time>
      </trkpt>
      <trkpt lat="46.17259" lon="2.48206">
        <ele>460</ele>
        <time>2015-04-20T16:21:12Z</time>
      </trkpt>
      <trkpt lat="46.17262" lon="2.48207">
        <ele>460</ele>
        <time>2015-04-20T16:21:14Z</time>
      </trkpt>
      <trkpt lat="46.17265" lon="2.48208">
        <ele>460</ele>
        <time>2015-04-20T16:21:16Z</time>
      </trkpt>
      <trkpt lat="46.17268" lon="2.48208">
        <ele>460</ele>
        <time>2015-04-20T16:21:18Z</time>
      </trkpt>
      <trkpt lat="46.17271" lon="2.48208">
        <ele>460</ele>
        <time>2015-04-20T16:21:20Z</time>
      </trkpt>
      <trkpt lat="46.17274" lon="2.48209">
        <ele>460</ele>
        <time>2015-04-20T16:21:22Z</time>
      </trkpt>
      <trkpt lat="46.17277" lon="2.48209">
        <ele>460</ele>
        <time>2015-04-20T16:21:24Z</time>
      </trkpt>
      <trkpt lat="46.1728" lon="2.48209">
        <ele>460</ele>
        <time>2015-04-20T16:21:26Z</time>
      </trkpt>
      <trkpt lat="46.17283" lon="2.48208">
        <ele>460</ele>
        <time>2015-04-20T16:21:28Z</time>
      </trkpt>
      <trkpt lat="46.17286" lon="2.48208">
        <ele>460</ele>
        <time>2015-04-20T16:21:30Z</time>
      </trkpt>
      <trkpt lat="46.17289" lon="2.48207">
        <ele>460</ele>
        <time>2015-04-20T16:21:32Z</time>
      </trkpt>
      <trkpt lat="46.17291" lon="2.48207">
        <ele>460</ele>
        <time>2015-04-20T16:21:34Z</time>
      </trkpt>
      <trkpt lat="46.17294" lon="2.48206">
        <ele>460</ele>
        <time>2015-04-20T16:21:36Z</time>
      </trkpt>
      <trkpt lat="46.17297" lon="2.48206">
        <ele>460</ele>
        <time>2015-04-20T16:21:38Z</time>
      </trkpt>
      <trkpt lat="46.173" lon="2.48205">
        <ele>460</ele>
        <time>2015-04-20T16:21:40Z</time>
      </trkpt>
      <trkpt lat="46.17302" lon="2.48204">
        <ele>460</ele>
        <time>2015-04-20T16:21:42Z</time>
      </trkpt>
      <trkpt lat="46.17305" lon="2.48203">
        <ele>460</ele>
        <time>2015-04-20T16:21:44Z</time>
      </trkpt>
      <trkpt lat="46.17308" lon="2.48203">
        <ele>460</ele>
        <time>2015-04-20T16:21:46Z</time>
      </trkpt>
      <trkpt lat="46.17311" lon="2.48202">
        <ele>460</ele>
        <time>2015-04-20T16:21:49Z</time>
      </trkpt>
      <trkpt lat="46.17314" lon="2.48201">
        <ele>460</ele>
        <time>2015-04-20T16:21:51Z</time>
      </trkpt>
      <trkpt lat="46.17317" lon="2.482">
        <ele>460</ele>
        <time>2015-04-20T16:21:53Z</time>
      </trkpt>
      <trkpt lat="46.1732" lon="2.48199">
        <ele>460</ele>
        <time>2015-04-20T16:21:55Z</time>
      </trkpt>
      <trkpt lat="46.17324" lon="2.48198">
        <ele>460</ele>
        <time>2015-04-20T16:21:57Z</time>
      </trkpt>
      <trkpt lat="46.17326" lon="2.48197">
        <ele>460</ele>
        <time>2015-04-20T16:21:59Z</time>
      </trkpt>
      <trkpt lat="46.17329" lon="2.48196">
        <ele>460</ele>
        <time>2015-04-20T16:22:01Z</time>
      </trkpt>
      <trkpt lat="46.17331" lon="2.48196">
        <ele>460</ele>
        <time>2015-04-20T16:22:03Z</time>
      </trkpt>
      <trkpt lat="46.17333" lon="2.48196">
        <ele>460</ele>
        <time>2015-04-20T16:22:05Z</time>
      </trkpt>
      <trkpt lat="46.17335" lon="2.48197">
        <ele>460</ele>
        <time>2015-04-20T16:22:07Z</time>
      </trkpt>
      <trkpt lat="46.17337" lon="2.48198">
        <ele>460</ele>
        <time>2015-04-20T16:22:09Z</time>
      </trkpt>
      <trkpt lat="46.17339" lon="2.48198">
        <ele>460</ele>
        <time>2015-04-20T16:22:11Z</time>
      </trkpt>
      <trkpt lat="46.17342" lon="2.48199">
        <ele>460</ele>
        <time>2015-04-20T16:22:13Z</time>
      </trkpt>
      <trkpt lat="46.17346" lon="2.482">
        <ele>461</ele>
        <time>2015-04-20T16:22:15Z</time>
      </trkpt>
      <trkpt lat="46.1735" lon="2.482">
        <ele>462</ele>
        <time>2015-04-20T16:22:17Z</time>
      </trkpt>
      <trkpt lat="46.17354" lon="2.48202">
        <ele>464</ele>
        <time>2015-04-20T16:22:20Z</time>
      </trkpt>
      <trkpt lat="46.17356" lon="2.48203">
        <ele>465</ele>
        <time>2015-04-20T16:22:22Z</time>
      </trkpt>
      <trkpt lat="46.17359" lon="2.48204">
        <ele>465</ele>
        <time>2015-04-20T16:22:24Z</time>
      </trkpt>
      <trkpt lat="46.17361" lon="2.48205">
        <ele>465</ele>
        <time>2015-04-20T16:22:26Z</time>
      </trkpt>
      <trkpt lat="46.17364" lon="2.48206">
        <ele>465</ele>
        <time>2015-04-20T16:22:28Z</time>
      </trkpt>
      <trkpt lat="46.17367" lon="2.48206">
        <ele>466</ele>
        <time>2015-04-20T16:22:30Z</time>
      </trkpt>
      <trkpt lat="46.1737" lon="2.48206">
        <ele>466</ele>
        <time>2015-04-20T16:22:32Z</time>
      </trkpt>
      <trkpt lat="46.17374" lon="2.48208">
        <ele>466</ele>
        <time>2015-04-20T16:22:35Z</time>
      </trkpt>
      <trkpt lat="46.17377" lon="2.48208">
        <ele>466</ele>
        <time>2015-04-20T16:22:37Z</time>
      </trkpt>
      <trkpt lat="46.1738" lon="2.48209">
        <ele>467</ele>
        <time>2015-04-20T16:22:39Z</time>
      </trkpt>
      <trkpt lat="46.17383" lon="2.4821">
        <ele>467</ele>
        <time>2015-04-20T16:22:41Z</time>
      </trkpt>
      <trkpt lat="46.17386" lon="2.48212">
        <ele>467</ele>
        <time>2015-04-20T16:22:43Z</time>
      </trkpt>
      <trkpt lat="46.17389" lon="2.48213">
        <ele>467</ele>
        <time>2015-04-20T16:22:45Z</time>
      </trkpt>
      <trkpt lat="46.17392" lon="2.48213">
        <ele>467</ele>
        <time>2015-04-20T16:22:47Z</time>
      </trkpt>
      <trkpt lat="46.17394" lon="2.48213">
        <ele>467</ele>
        <time>2015-04-20T16:22:49Z</time>
      </trkpt>
      <trkpt lat="46.17398" lon="2.48212">
        <ele>467</ele>
        <time>2015-04-20T16:22:51Z</time>
      </trkpt>
      <trkpt lat="46.17402" lon="2.48211">
        <ele>467</ele>
        <time>2015-04-20T16:22:53Z</time>
      </trkpt>
      <trkpt lat="46.17405" lon="2.48212">
        <ele>467</ele>
        <time>2015-04-20T16:22:55Z</time>
      </trkpt>
      <trkpt lat="46.17406" lon="2.48214">
        <ele>467</ele>
        <time>2015-04-20T16:22:57Z</time>
      </trkpt>
      <trkpt lat="46.17409" lon="2.48217">
        <ele>467</ele>
        <time>2015-04-20T16:22:59Z</time>
      </trkpt>
      <trkpt lat="46.17411" lon="2.4822">
        <ele>467</ele>
        <time>2015-04-20T16:23:01Z</time>
      </trkpt>
      <trkpt lat="46.17414" lon="2.48224">
        <ele>467</ele>
        <time>2015-04-20T16:23:03Z</time>
      </trkpt>
      <trkpt lat="46.17415" lon="2.48229">
        <ele>467</ele>
        <time>2015-04-20T16:23:05Z</time>
      </trkpt>
      <trkpt lat="46.17416" lon="2.48234">
        <ele>467</ele>
        <time>2015-04-20T16:23:07Z</time>
      </trkpt>
      <trkpt lat="46.17417" lon="2.48238">
        <ele>467</ele>
        <time>2015-04-20T16:23:09Z</time>
      </trkpt>
      <trkpt lat="46.17418" lon="2.48242">
        <ele>467</ele>
        <time>2015-04-20T16:23:11Z</time>
      </trkpt>
      <trkpt lat="46.17419" lon="2.48246">
        <ele>467</ele>
        <time>2015-04-20T16:23:13Z</time>
      </trkpt>
      <trkpt lat="46.17419" lon="2.4825">
        <ele>467</ele>
        <time>2015-04-20T16:23:15Z</time>
      </trkpt>
      <trkpt lat="46.1742" lon="2.48255">
        <ele>467</ele>
        <time>2015-04-20T16:23:17Z</time>
      </trkpt>
      <trkpt lat="46.17422" lon="2.48259">
        <ele>467</ele>
        <time>2015-04-20T16:23:19Z</time>
      </trkpt>
      <trkpt lat="46.17423" lon="2.48264">
        <ele>467</ele>
        <time>2015-04-20T16:23:21Z</time>
      </trkpt>
      <trkpt lat="46.17423" lon="2.48268">
        <ele>467</ele>
        <time>2015-04-20T16:23:23Z</time>
      </trkpt>
      <trkpt lat="46.17424" lon="2.48272">
        <ele>467</ele>
        <time>2015-04-20T16:23:25Z</time>
      </trkpt>
      <trkpt lat="46.17423" lon="2.48277">
        <ele>467</ele>
        <time>2015-04-20T16:23:27Z</time>
      </trkpt>
      <trkpt lat="46.17424" lon="2.48281">
        <ele>467</ele>
        <time>2015-04-20T16:23:29Z</time>
      </trkpt>
      <trkpt lat="46.17423" lon="2.48285">
        <ele>467</ele>
        <time>2015-04-20T16:23:31Z</time>
      </trkpt>
      <trkpt lat="46.17424" lon="2.48289">
        <ele>467</ele>
        <time>2015-04-20T16:23:33Z</time>
      </trkpt>
      <trkpt lat="46.17427" lon="2.48293">
        <ele>467</ele>
        <time>2015-04-20T16:23:35Z</time>
      </trkpt>
      <trkpt lat="46.1743" lon="2.48296">
        <ele>467</ele>
        <time>2015-04-20T16:23:37Z</time>
      </trkpt>
      <trkpt lat="46.17432" lon="2.483">
        <ele>467</ele>
        <time>2015-04-20T16:23:39Z</time>
      </trkpt>
      <trkpt lat="46.17434" lon="2.48304">
        <ele>467</ele>
        <time>2015-04-20T16:23:41Z</time>
      </trkpt>
      <trkpt lat="46.17435" lon="2.48309">
        <ele>467</ele>
        <time>2015-04-20T16:23:43Z</time>
      </trkpt>
      <trkpt lat="46.17436" lon="2.48314">
        <ele>467</ele>
        <time>2015-04-20T16:23:46Z</time>
      </trkpt>
      <trkpt lat="46.17436" lon="2.48318">
        <ele>467</ele>
        <time>2015-04-20T16:23:48Z</time>
      </trkpt>
      <trkpt lat="46.17437" lon="2.48322">
        <ele>467</ele>
        <time>2015-04-20T16:23:50Z</time>
      </trkpt>
      <trkpt lat="46.17437" lon="2.48326">
        <ele>467</ele>
        <time>2015-04-20T16:23:52Z</time>
      </trkpt>
      <trkpt lat="46.17437" lon="2.4833">
        <ele>467</ele>
        <time>2015-04-20T16:23:54Z</time>
      </trkpt>
      <trkpt lat="46.17436" lon="2.48334">
        <ele>467</ele>
        <time>2015-04-20T16:23:56Z</time>
      </trkpt>
      <trkpt lat="46.17437" lon="2.48338">
        <ele>467</ele>
        <time>2015-04-20T16:23:58Z</time>
      </trkpt>
      <trkpt lat="46.17437" lon="2.48342">
        <ele>467</ele>
        <time>2015-04-20T16:24:00Z</time>
      </trkpt>
      <trkpt lat="46.17437" lon="2.48346">
        <ele>467</ele>
        <time>2015-04-20T16:24:02Z</time>
      </trkpt>
      <trkpt lat="46.17439" lon="2.48349">
        <ele>467</ele>
        <time>2015-04-20T16:24:04Z</time>
      </trkpt>
      <trkpt lat="46.17439" lon="2.48353">
        <ele>467</ele>
        <time>2015-04-20T16:24:06Z</time>
      </trkpt>
      <trkpt lat="46.1744" lon="2.48358">
        <ele>467</ele>
        <time>2015-04-20T16:24:09Z</time>
      </trkpt>
      <trkpt lat="46.1744" lon="2.48363">
        <ele>467</ele>
        <time>2015-04-20T16:24:11Z</time>
      </trkpt>
      <trkpt lat="46.1744" lon="2.48367">
        <ele>467</ele>
        <time>2015-04-20T16:24:13Z</time>
      </trkpt>
      <trkpt lat="46.1744" lon="2.48371">
        <ele>467</ele>
        <time>2015-04-20T16:24:15Z</time>
      </trkpt>
      <trkpt lat="46.17442" lon="2.48374">
        <ele>467</ele>
        <time>2015-04-20T16:24:17Z</time>
      </trkpt>
      <trkpt lat="46.17445" lon="2.48377">
        <ele>467</ele>
        <time>2015-04-20T16:24:19Z</time>
      </trkpt>
      <trkpt lat="46.17447" lon="2.48382">
        <ele>467</ele>
        <time>2015-04-20T16:24:21Z</time>
      </trkpt>
      <trkpt lat="46.17448" lon="2.48387">
        <ele>467</ele>
        <time>2015-04-20T16:24:23Z</time>
      </trkpt>
      <trkpt lat="46.1745" lon="2.4839">
        <ele>467</ele>
        <time>2015-04-20T16:24:25Z</time>
      </trkpt>
      <trkpt lat="46.1745" lon="2.48394">
        <ele>467</ele>
        <time>2015-04-20T16:24:27Z</time>
      </trkpt>
      <trkpt lat="46.17451" lon="2.48398">
        <ele>467</ele>
        <time>2015-04-20T16:24:29Z</time>
      </trkpt>
      <trkpt lat="46.17451" lon="2.48403">
        <ele>467</ele>
        <time>2015-04-20T16:24:31Z</time>
      </trkpt>
      <trkpt lat="46.17451" lon="2.48407">
        <ele>467</ele>
        <time>2015-04-20T16:24:33Z</time>
      </trkpt>
      <trkpt lat="46.17451" lon="2.48412">
        <ele>467</ele>
        <time>2015-04-20T16:24:35Z</time>
      </trkpt>
      <trkpt lat="46.17453" lon="2.48416">
        <ele>467</ele>
        <time>2015-04-20T16:24:37Z</time>
      </trkpt>
      <trkpt lat="46.17453" lon="2.4842">
        <ele>467</ele>
        <time>2015-04-20T16:24:39Z</time>
      </trkpt>
      <trkpt lat="46.17452" lon="2.48425">
        <ele>467</ele>
        <time>2015-04-20T16:24:41Z</time>
      </trkpt>
      <trkpt lat="46.17453" lon="2.48429">
        <ele>467</ele>
        <time>2015-04-20T16:24:43Z</time>
      </trkpt>
      <trkpt lat="46.17454" lon="2.48433">
        <ele>467</ele>
        <time>2015-04-20T16:24:45Z</time>
      </trkpt>
      <trkpt lat="46.17454" lon="2.48438">
        <ele>467</ele>
        <time>2015-04-20T16:24:47Z</time>
      </trkpt>
      <trkpt lat="46.17455" lon="2.48442">
        <ele>467</ele>
        <time>2015-04-20T16:24:49Z</time>
      </trkpt>
      <trkpt lat="46.17454" lon="2.48447">
        <ele>467</ele>
        <time>2015-04-20T16:24:51Z</time>
      </trkpt>
      <trkpt lat="46.17455" lon="2.4845">
        <ele>467</ele>
        <time>2015-04-20T16:24:53Z</time>
      </trkpt>
      <trkpt lat="46.17454" lon="2.48454">
        <ele>467</ele>
        <time>2015-04-20T16:24:55Z</time>
      </trkpt>
      <trkpt lat="46.17453" lon="2.48458">
        <ele>467</ele>
        <time>2015-04-20T16:24:57Z</time>
      </trkpt>
      <trkpt lat="46.17451" lon="2.48462">
        <ele>467</ele>
        <time>2015-04-20T16:25:00Z</time>
      </trkpt>
      <trkpt lat="46.1745" lon="2.48464">
        <ele>467</ele>
        <time>2015-04-20T16:25:02Z</time>
      </trkpt>
      <trkpt lat="46.17449" lon="2.48467">
        <ele>466</ele>
        <time>2015-04-20T16:25:04Z</time>
      </trkpt>
      <trkpt lat="46.17447" lon="2.48472">
        <ele>465</ele>
        <time>2015-04-20T16:25:07Z</time>
      </trkpt>
      <trkpt lat="46.17445" lon="2.48476">
        <ele>463</ele>
        <time>2015-04-20T16:25:10Z</time>
      </trkpt>
      <trkpt lat="46.17443" lon="2.48479">
        <ele>462</ele>
        <time>2015-04-20T16:25:12Z</time>
      </trkpt>
      <trkpt lat="46.17442" lon="2.48483">
        <ele>462</ele>
        <time>2015-04-20T16:25:14Z</time>
      </trkpt>
      <trkpt lat="46.1744" lon="2.48487">
        <ele>462</ele>
        <time>2015-04-20T16:25:16Z</time>
      </trkpt>
      <trkpt lat="46.17439" lon="2.4849">
        <ele>461</ele>
        <time>2015-04-20T16:25:18Z</time>
      </trkpt>
      <trkpt lat="46.17438" lon="2.48494">
        <ele>461</ele>
        <time>2015-04-20T16:25:20Z</time>
      </trkpt>
      <trkpt lat="46.17436" lon="2.48497">
        <ele>461</ele>
        <time>2015-04-20T16:25:22Z</time>
      </trkpt>
      <trkpt lat="46.17435" lon="2.48502">
        <ele>461</ele>
        <time>2015-04-20T16:25:24Z</time>
      </trkpt>
      <trkpt lat="46.17434" lon="2.48505">
        <ele>461</ele>
        <time>2015-04-20T16:25:26Z</time>
      </trkpt>
      <trkpt lat="46.17432" lon="2.48509">
        <ele>461</ele>
        <time>2015-04-20T16:25:28Z</time>
      </trkpt>
      <trkpt lat="46.17432" lon="2.48514">
        <ele>461</ele>
        <time>2015-04-20T16:25:30Z</time>
      </trkpt>
      <trkpt lat="46.1743" lon="2.4852">
        <ele>461</ele>
        <time>2015-04-20T16:25:32Z</time>
      </trkpt>
      <trkpt lat="46.1743" lon="2.48525">
        <ele>461</ele>
        <time>2015-04-20T16:25:34Z</time>
      </trkpt>
      <trkpt lat="46.17433" lon="2.48529">
        <ele>461</ele>
        <time>2015-04-20T16:25:37Z</time>
      </trkpt>
      <trkpt lat="46.17436" lon="2.4853">
        <ele>461</ele>
        <time>2015-04-20T16:25:39Z</time>
      </trkpt>
      <trkpt lat="46.17438" lon="2.48532">
        <ele>461</ele>
        <time>2015-04-20T16:25:41Z</time>
      </trkpt>
      <trkpt lat="46.1744" lon="2.48535">
        <ele>463</ele>
        <time>2015-04-20T16:25:44Z</time>
      </trkpt>
      <trkpt lat="46.17441" lon="2.48537">
        <ele>464</ele>
        <time>2015-04-20T16:25:46Z</time>
      </trkpt>
      <trkpt lat="46.17444" lon="2.48537">
        <ele>465</ele>
        <time>2015-04-20T16:25:48Z</time>
      </trkpt>
      <trkpt lat="46.17448" lon="2.48537">
        <ele>465</ele>
        <time>2015-04-20T16:25:50Z</time>
      </trkpt>
      <trkpt lat="46.1745" lon="2.48539">
        <ele>465</ele>
        <time>2015-04-20T16:25:52Z</time>
      </trkpt>
      <trkpt lat="46.17453" lon="2.4854">
        <ele>465</ele>
        <time>2015-04-20T16:25:54Z</time>
      </trkpt>
      <trkpt lat="46.17457" lon="2.4854">
        <ele>466</ele>
        <time>2015-04-20T16:25:56Z</time>
      </trkpt>
      <trkpt lat="46.17461" lon="2.4854">
        <ele>466</ele>
        <time>2015-04-20T16:25:58Z</time>
      </trkpt>
      <trkpt lat="46.17464" lon="2.48542">
        <ele>466</ele>
        <time>2015-04-20T16:26:00Z</time>
      </trkpt>
      <trkpt lat="46.17466" lon="2.48547">
        <ele>466</ele>
        <time>2015-04-20T16:26:03Z</time>
      </trkpt>
      <trkpt lat="46.17468" lon="2.4855">
        <ele>466</ele>
        <time>2015-04-20T16:26:05Z</time>
      </trkpt>
      <trkpt lat="46.17469" lon="2.48555">
        <ele>466</ele>
        <time>2015-04-20T16:26:08Z</time>
      </trkpt>
      <trkpt lat="46.1747" lon="2.48558">
        <ele>466</ele>
        <time>2015-04-20T16:26:10Z</time>
      </trkpt>
      <trkpt lat="46.17471" lon="2.48561">
        <ele>466</ele>
        <time>2015-04-20T16:26:12Z</time>
      </trkpt>
      <trkpt lat="46.17471" lon="2.48565">
        <ele>466</ele>
        <time>2015-04-20T16:26:14Z</time>
      </trkpt>
      <trkpt lat="46.17471" lon="2.48568">
        <ele>466</ele>
        <time>2015-04-20T16:26:16Z</time>
      </trkpt>
      <trkpt lat="46.1747" lon="2.48572">
        <ele>466</ele>
        <time>2015-04-20T16:26:18Z</time>
      </trkpt>
      <trkpt lat="46.1747" lon="2.48575">
        <ele>465</ele>
        <time>2015-04-20T16:26:20Z</time>
      </trkpt>
      <trkpt lat="46.1747" lon="2.48579">
        <ele>465</ele>
        <time>2015-04-20T16:26:22Z</time>
      </trkpt>
      <trkpt lat="46.17471" lon="2.48584">
        <ele>464</ele>
        <time>2015-04-20T16:26:24Z</time>
      </trkpt>
      <trkpt lat="46.17471" lon="2.48589">
        <ele>464</ele>
        <time>2015-04-20T16:26:26Z</time>
      </trkpt>
      <trkpt lat="46.17473" lon="2.48592">
        <ele>464</ele>
        <time>2015-04-20T16:26:28Z</time>
      </trkpt>
      <trkpt lat="46.17474" lon="2.48597">
        <ele>464</ele>
        <time>2015-04-20T16:26:30Z</time>
      </trkpt>
      <trkpt lat="46.17475" lon="2.48601">
        <ele>464</ele>
        <time>2015-04-20T16:26:32Z</time>
      </trkpt>
      <trkpt lat="46.17477" lon="2.48605">
        <ele>464</ele>
        <time>2015-04-20T16:26:34Z</time>
      </trkpt>
      <trkpt lat="46.17479" lon="2.48607">
        <ele>464</ele>
        <time>2015-04-20T16:26:36Z</time>
      </trkpt>
      <trkpt lat="46.17482" lon="2.48609">
        <ele>464</ele>
        <time>2015-04-20T16:26:38Z</time>
      </trkpt>
      <trkpt lat="46.17484" lon="2.48611">
        <ele>464</ele>
        <time>2015-04-20T16:26:40Z</time>
      </trkpt>
      <trkpt lat="46.17487" lon="2.48613">
        <ele>464</ele>
        <time>2015-04-20T16:26:42Z</time>
      </trkpt>
      <trkpt lat="46.17489" lon="2.48615">
        <ele>464</ele>
        <time>2015-04-20T16:26:44Z</time>
      </trkpt>
      <trkpt lat="46.17492" lon="2.48617">
        <ele>464</ele>
        <time>2015-04-20T16:26:46Z</time>
      </trkpt>
      <trkpt lat="46.17494" lon="2.48618">
        <ele>464</ele>
        <time>2015-04-20T16:26:48Z</time>
      </trkpt>
      <trkpt lat="46.17497" lon="2.48619">
        <ele>464</ele>
        <time>2015-04-20T16:26:50Z</time>
      </trkpt>
      <trkpt lat="46.17499" lon="2.48621">
        <ele>464</ele>
        <time>2015-04-20T16:26:52Z</time>
      </trkpt>
      <trkpt lat="46.17501" lon="2.48622">
        <ele>464</ele>
        <time>2015-04-20T16:26:54Z</time>
      </trkpt>
      <trkpt lat="46.17506" lon="2.48621">
        <ele>464</ele>
        <time>2015-04-20T16:26:56Z</time>
      </trkpt>
      <trkpt lat="46.17509" lon="2.48621">
        <ele>464</ele>
        <time>2015-04-20T16:26:58Z</time>
      </trkpt>
      <trkpt lat="46.17512" lon="2.4862">
        <ele>464</ele>
        <time>2015-04-20T16:27:01Z</time>
      </trkpt>
      <trkpt lat="46.17514" lon="2.48617">
        <ele>463</ele>
        <time>2015-04-20T16:27:03Z</time>
      </trkpt>
      <trkpt lat="46.17517" lon="2.48614">
        <ele>461</ele>
        <time>2015-04-20T16:27:05Z</time>
      </trkpt>
      <trkpt lat="46.1752" lon="2.48612">
        <ele>460</ele>
        <time>2015-04-20T16:27:07Z</time>
      </trkpt>
      <trkpt lat="46.17524" lon="2.4861">
        <ele>458</ele>
        <time>2015-04-20T16:27:09Z</time>
      </trkpt>
      <trkpt lat="46.17527" lon="2.48608">
        <ele>458</ele>
        <time>2015-04-20T16:27:11Z</time>
      </trkpt>
      <trkpt lat="46.17529" lon="2.48607">
        <ele>457</ele>
        <time>2015-04-20T16:27:13Z</time>
      </trkpt>
      <trkpt lat="46.17532" lon="2.48606">
        <ele>457</ele>
        <time>2015-04-20T16:27:15Z</time>
      </trkpt>
      <trkpt lat="46.17535" lon="2.48606">
        <ele>457</ele>
        <time>2015-04-20T16:27:17Z</time>
      </trkpt>
      <trkpt lat="46.17538" lon="2.48607">
        <ele>457</ele>
        <time>2015-04-20T16:27:19Z</time>
      </trkpt>
      <trkpt lat="46.17542" lon="2.48607">
        <ele>457</ele>
        <time>2015-04-20T16:27:22Z</time>
      </trkpt>
      <trkpt lat="46.17544" lon="2.48607">
        <ele>457</ele>
        <time>2015-04-20T16:27:24Z</time>
      </trkpt>
      <trkpt lat="46.17548" lon="2.48607">
        <ele>457</ele>
        <time>2015-04-20T16:27:26Z</time>
      </trkpt>
      <trkpt lat="46.17551" lon="2.48607">
        <ele>457</ele>
        <time>2015-04-20T16:27:28Z</time>
      </trkpt>
      <trkpt lat="46.17553" lon="2.48608">
        <ele>457</ele>
        <time>2015-04-20T16:27:30Z</time>
      </trkpt>
      <trkpt lat="46.17557" lon="2.48607">
        <ele>457</ele>
        <time>2015-04-20T16:27:32Z</time>
      </trkpt>
      <trkpt lat="46.1756" lon="2.48607">
        <ele>457</ele>
        <time>2015-04-20T16:27:34Z</time>
      </trkpt>
      <trkpt lat="46.17562" lon="2.48609">
        <ele>457</ele>
        <time>2015-04-20T16:27:36Z</time>
      </trkpt>
      <trkpt lat="46.17564" lon="2.4861">
        <ele>458</ele>
        <time>2015-04-20T16:27:38Z</time>
      </trkpt>
      <trkpt lat="46.17569" lon="2.48608">
        <ele>459</ele>
        <time>2015-04-20T16:27:40Z</time>
      </trkpt>
      <trkpt lat="46.17572" lon="2.48607">
        <ele>459</ele>
        <time>2015-04-20T16:27:43Z</time>
      </trkpt>
      <trkpt lat="46.17575" lon="2.48608">
        <ele>459</ele>
        <time>2015-04-20T16:27:45Z</time>
      </trkpt>
      <trkpt lat="46.17579" lon="2.48608">
        <ele>459</ele>
        <time>2015-04-20T16:27:47Z</time>
      </trkpt>
      <trkpt lat="46.17583" lon="2.48607">
        <ele>459</ele>
        <time>2015-04-20T16:27:49Z</time>
      </trkpt>
      <trkpt lat="46.17585" lon="2.48608">
        <ele>460</ele>
        <time>2015-04-20T16:27:51Z</time>
      </trkpt>
      <trkpt lat="46.17587" lon="2.48609">
        <ele>461</ele>
        <time>2015-04-20T16:27:53Z</time>
      </trkpt>
      <trkpt lat="46.17589" lon="2.4861">
        <ele>462</ele>
        <time>2015-04-20T16:27:55Z</time>
      </trkpt>
      <trkpt lat="46.17593" lon="2.48611">
        <ele>463</ele>
        <time>2015-04-20T16:27:58Z</time>
      </trkpt>
      <trkpt lat="46.17594" lon="2.48613">
        <ele>463</ele>
        <time>2015-04-20T16:28:00Z</time>
      </trkpt>
      <trkpt lat="46.17596" lon="2.48615">
        <ele>464</ele>
        <time>2015-04-20T16:28:02Z</time>
      </trkpt>
      <trkpt lat="46.176" lon="2.48618">
        <ele>466</ele>
        <time>2015-04-20T16:28:04Z</time>
      </trkpt>
      <trkpt lat="46.17605" lon="2.48621">
        <ele>468</ele>
        <time>2015-04-20T16:28:07Z</time>
      </trkpt>
      <trkpt lat="46.17607" lon="2.48622">
        <ele>469</ele>
        <time>2015-04-20T16:28:09Z</time>
      </trkpt>
      <trkpt lat="46.17608" lon="2.48624">
        <ele>469</ele>
        <time>2015-04-20T16:28:11Z</time>
      </trkpt>
      <trkpt lat="46.17611" lon="2.48626">
        <ele>469</ele>
        <time>2015-04-20T16:28:14Z</time>
      </trkpt>
      <trkpt lat="46.17615" lon="2.48628">
        <ele>469</ele>
        <time>2015-04-20T16:28:17Z</time>
      </trkpt>
      <trkpt lat="46.17619" lon="2.48631">
        <ele>469</ele>
        <time>2015-04-20T16:28:19Z</time>
      </trkpt>
      <trkpt lat="46.17621" lon="2.48633">
        <ele>469</ele>
        <time>2015-04-20T16:28:21Z</time>
      </trkpt>
      <trkpt lat="46.17626" lon="2.48633">
        <ele>469</ele>
        <time>2015-04-20T16:28:23Z</time>
      </trkpt>
      <trkpt lat="46.1763" lon="2.48632">
        <ele>469</ele>
        <time>2015-04-20T16:28:25Z</time>
      </trkpt>
      <trkpt lat="46.17633" lon="2.48629">
        <ele>468</ele>
        <time>2015-04-20T16:28:27Z</time>
      </trkpt>
      <trkpt lat="46.17635" lon="2.48625">
        <ele>466</ele>
        <time>2015-04-20T16:28:29Z</time>
      </trkpt>
      <trkpt lat="46.17639" lon="2.48623">
        <ele>463</ele>
        <time>2015-04-20T16:28:32Z</time>
      </trkpt>
      <trkpt lat="46.17643" lon="2.48622">
        <ele>460</ele>
        <time>2015-04-20T16:28:35Z</time>
      </trkpt>
      <trkpt lat="46.17646" lon="2.48622">
        <ele>458</ele>
        <time>2015-04-20T16:28:37Z</time>
      </trkpt>
      <trkpt lat="46.17649" lon="2.4862">
        <ele>457</ele>
        <time>2015-04-20T16:28:39Z</time>
      </trkpt>
      <trkpt lat="46.17651" lon="2.48619">
        <ele>457</ele>
        <time>2015-04-20T16:28:41Z</time>
      </trkpt>
      <trkpt lat="46.17654" lon="2.48618">
        <ele>456</ele>
        <time>2015-04-20T16:28:43Z</time>
      </trkpt>
      <trkpt lat="46.17656" lon="2.48618">
        <ele>456</ele>
        <time>2015-04-20T16:28:45Z</time>
      </trkpt>
      <trkpt lat="46.17658" lon="2.48617">
        <ele>455</ele>
        <time>2015-04-20T16:28:47Z</time>
      </trkpt>
      <trkpt lat="46.17661" lon="2.48617">
        <ele>454</ele>
        <time>2015-04-20T16:28:49Z</time>
      </trkpt>
      <trkpt lat="46.17664" lon="2.48616">
        <ele>454</ele>
        <time>2015-04-20T16:28:51Z</time>
      </trkpt>
      <trkpt lat="46.17667" lon="2.48616">
        <ele>454</ele>
        <time>2015-04-20T16:28:53Z</time>
      </trkpt>
      <trkpt lat="46.1767" lon="2.48616">
        <ele>454</ele>
        <time>2015-04-20T16:28:55Z</time>
      </trkpt>
      <trkpt lat="46.17673" lon="2.48617">
        <ele>454</ele>
        <time>2015-04-20T16:28:57Z</time>
      </trkpt>
      <trkpt lat="46.17676" lon="2.48619">
        <ele>454</ele>
        <time>2015-04-20T16:28:59Z</time>
      </trkpt>
      <trkpt lat="46.17678" lon="2.48622">
        <ele>454</ele>
        <time>2015-04-20T16:29:01Z</time>
      </trkpt>
      <trkpt lat="46.1768" lon="2.48625">
        <ele>454</ele>
        <time>2015-04-20T16:29:03Z</time>
      </trkpt>
      <trkpt lat="46.17681" lon="2.4863">
        <ele>454</ele>
        <time>2015-04-20T16:29:05Z</time>
      </trkpt>
      <trkpt lat="46.17681" lon="2.48634">
        <ele>454</ele>
        <time>2015-04-20T16:29:07Z</time>
      </trkpt>
      <trkpt lat="46.17682" lon="2.48638">
        <ele>454</ele>
        <time>2015-04-20T16:29:09Z</time>
      </trkpt>
      <trkpt lat="46.17682" lon="2.48641">
        <ele>454</ele>
        <time>2015-04-20T16:29:11Z</time>
      </trkpt>
      <trkpt lat="46.17682" lon="2.48645">
        <ele>454</ele>
        <time>2015-04-20T16:29:13Z</time>
      </trkpt>
      <trkpt lat="46.17682" lon="2.48649">
        <ele>454</ele>
        <time>2015-04-20T16:29:15Z</time>
      </trkpt>
      <trkpt lat="46.17683" lon="2.48653">
        <ele>454</ele>
        <time>2015-04-20T16:29:17Z</time>
      </trkpt>
      <trkpt lat="46.17683" lon="2.48657">
        <ele>454</ele>
        <time>2015-04-20T16:29:19Z</time>
      </trkpt>
      <trkpt lat="46.17685" lon="2.4866">
        <ele>454</ele>
        <time>2015-04-20T16:29:22Z</time>
      </trkpt>
      <trkpt lat="46.17688" lon="2.48662">
        <ele>453</ele>
        <time>2015-04-20T16:29:25Z</time>
      </trkpt>
      <trkpt lat="46.1769" lon="2.48664">
        <ele>452</ele>
        <time>2015-04-20T16:29:27Z</time>
      </trkpt>
      <trkpt lat="46.17692" lon="2.48665">
        <ele>451</ele>
        <time>2015-04-20T16:29:29Z</time>
      </trkpt>
      <trkpt lat="46.17694" lon="2.48667">
        <ele>450</ele>
        <time>2015-04-20T16:29:31Z</time>
      </trkpt>
      <trkpt lat="46.17696" lon="2.48669">
        <ele>450</ele>
        <time>2015-04-20T16:29:33Z</time>
      </trkpt>
      <trkpt lat="46.17698" lon="2.48672">
        <ele>450</ele>
        <time>2015-04-20T16:29:35Z</time>
      </trkpt>
      <trkpt lat="46.17699" lon="2.48675">
        <ele>450</ele>
        <time>2015-04-20T16:29:37Z</time>
      </trkpt>
      <trkpt lat="46.17701" lon="2.48678">
        <ele>449</ele>
        <time>2015-04-20T16:29:39Z</time>
      </trkpt>
      <trkpt lat="46.17703" lon="2.4868">
        <ele>449</ele>
        <time>2015-04-20T16:29:41Z</time>
      </trkpt>
      <trkpt lat="46.17706" lon="2.48685">
        <ele>448</ele>
        <time>2015-04-20T16:29:44Z</time>
      </trkpt>
      <trkpt lat="46.17708" lon="2.48689">
        <ele>448</ele>
        <time>2015-04-20T16:29:46Z</time>
      </trkpt>
      <trkpt lat="46.17709" lon="2.48693">
        <ele>448</ele>
        <time>2015-04-20T16:29:48Z</time>
      </trkpt>
      <trkpt lat="46.1771" lon="2.48698">
        <ele>448</ele>
        <time>2015-04-20T16:29:50Z</time>
      </trkpt>
      <trkpt lat="46.17711" lon="2.48702">
        <ele>448</ele>
        <time>2015-04-20T16:29:52Z</time>
      </trkpt>
      <trkpt lat="46.17711" lon="2.48706">
        <ele>448</ele>
        <time>2015-04-20T16:29:54Z</time>
      </trkpt>
      <trkpt lat="46.17711" lon="2.4871">
        <ele>448</ele>
        <time>2015-04-20T16:29:56Z</time>
      </trkpt>
      <trkpt lat="46.17712" lon="2.48714">
        <ele>448</ele>
        <time>2015-04-20T16:29:58Z</time>
      </trkpt>
      <trkpt lat="46.17712" lon="2.48718">
        <ele>448</ele>
        <time>2015-04-20T16:30:00Z</time>
      </trkpt>
      <trkpt lat="46.17714" lon="2.48722">
        <ele>448</ele>
        <time>2015-04-20T16:30:02Z</time>
      </trkpt>
      <trkpt lat="46.17714" lon="2.48725">
        <ele>448</ele>
        <time>2015-04-20T16:30:04Z</time>
      </trkpt>
      <trkpt lat="46.17715" lon="2.4873">
        <ele>448</ele>
        <time>2015-04-20T16:30:06Z</time>
      </trkpt>
      <trkpt lat="46.17715" lon="2.48735">
        <ele>448</ele>
        <time>2015-04-20T16:30:08Z</time>
      </trkpt>
      <trkpt lat="46.17716" lon="2.48739">
        <ele>448</ele>
        <time>2015-04-20T16:30:10Z</time>
      </trkpt>
      <trkpt lat="46.17717" lon="2.48743">
        <ele>448</ele>
        <time>2015-04-20T16:30:12Z</time>
      </trkpt>
      <trkpt lat="46.17718" lon="2.48747">
        <ele>448</ele>
        <time>2015-04-20T16:30:14Z</time>
      </trkpt>
      <trkpt lat="46.17719" lon="2.4875">
        <ele>448</ele>
        <time>2015-04-20T16:30:16Z</time>
      </trkpt>
      <trkpt lat="46.17719" lon="2.48754">
        <ele>448</ele>
        <time>2015-04-20T16:30:18Z</time>
      </trkpt>
      <trkpt lat="46.17719" lon="2.4876">
        <ele>448</ele>
        <time>2015-04-20T16:30:20Z</time>
      </trkpt>
      <trkpt lat="46.17719" lon="2.48764">
        <ele>448</ele>
        <time>2015-04-20T16:30:22Z</time>
      </trkpt>
      <trkpt lat="46.1772" lon="2.48768">
        <ele>448</ele>
        <time>2015-04-20T16:30:24Z</time>
      </trkpt>
      <trkpt lat="46.1772" lon="2.48773">
        <ele>448</ele>
        <time>2015-04-20T16:30:26Z</time>
      </trkpt>
      <trkpt lat="46.1772" lon="2.48778">
        <ele>448</ele>
        <time>2015-04-20T16:30:28Z</time>
      </trkpt>
      <trkpt lat="46.1772" lon="2.48782">
        <ele>448</ele>
        <time>2015-04-20T16:30:30Z</time>
      </trkpt>
      <trkpt lat="46.17719" lon="2.48787">
        <ele>448</ele>
        <time>2015-04-20T16:30:32Z</time>
      </trkpt>
      <trkpt lat="46.1772" lon="2.48791">
        <ele>448</ele>
        <time>2015-04-20T16:30:34Z</time>
      </trkpt>
      <trkpt lat="46.17721" lon="2.48795">
        <ele>448</ele>
        <time>2015-04-20T16:30:36Z</time>
      </trkpt>
      <trkpt lat="46.17722" lon="2.48799">
        <ele>448</ele>
        <time>2015-04-20T16:30:38Z</time>
      </trkpt>
      <trkpt lat="46.17722" lon="2.48803">
        <ele>448</ele>
        <time>2015-04-20T16:30:40Z</time>
      </trkpt>
      <trkpt lat="46.17723" lon="2.48807">
        <ele>448</ele>
        <time>2015-04-20T16:30:42Z</time>
      </trkpt>
      <trkpt lat="46.17724" lon="2.48812">
        <ele>448</ele>
        <time>2015-04-20T16:30:44Z</time>
      </trkpt>
      <trkpt lat="46.17724" lon="2.48815">
        <ele>448</ele>
        <time>2015-04-20T16:30:46Z</time>
      </trkpt>
      <trkpt lat="46.17726" lon="2.48819">
        <ele>448</ele>
        <time>2015-04-20T16:30:48Z</time>
      </trkpt>
      <trkpt lat="46.17728" lon="2.48822">
        <ele>448</ele>
        <time>2015-04-20T16:30:50Z</time>
      </trkpt>
      <trkpt lat="46.17731" lon="2.48826">
        <ele>448</ele>
        <time>2015-04-20T16:30:52Z</time>
      </trkpt>
      <trkpt lat="46.17733" lon="2.48829">
        <ele>448</ele>
        <time>2015-04-20T16:30:54Z</time>
      </trkpt>
      <trkpt lat="46.17734" lon="2.48833">
        <ele>448</ele>
        <time>2015-04-20T16:30:56Z</time>
      </trkpt>
      <trkpt lat="46.17736" lon="2.48836">
        <ele>448</ele>
        <time>2015-04-20T16:30:58Z</time>
      </trkpt>
      <trkpt lat="46.17738" lon="2.48838">
        <ele>448</ele>
        <time>2015-04-20T16:31:00Z</time>
      </trkpt>
      <trkpt lat="46.1774" lon="2.48842">
        <ele>448</ele>
        <time>2015-04-20T16:31:02Z</time>
      </trkpt>
      <trkpt lat="46.17743" lon="2.48845">
        <ele>448</ele>
        <time>2015-04-20T16:31:04Z</time>
      </trkpt>
      <trkpt lat="46.17745" lon="2.48847">
        <ele>448</ele>
        <time>2015-04-20T16:31:06Z</time>
      </trkpt>
      <trkpt lat="46.17747" lon="2.4885">
        <ele>447</ele>
        <time>2015-04-20T16:31:08Z</time>
      </trkpt>
      <trkpt lat="46.17749" lon="2.48853">
        <ele>447</ele>
        <time>2015-04-20T16:31:10Z</time>
      </trkpt>
      <trkpt lat="46.17751" lon="2.48856">
        <ele>447</ele>
        <time>2015-04-20T16:31:12Z</time>
      </trkpt>
      <trkpt lat="46.17752" lon="2.4886">
        <ele>447</ele>
        <time>2015-04-20T16:31:14Z</time>
      </trkpt>
      <trkpt lat="46.17754" lon="2.48863">
        <ele>447</ele>
        <time>2015-04-20T16:31:16Z</time>
      </trkpt>
      <trkpt lat="46.17757" lon="2.48866">
        <ele>447</ele>
        <time>2015-04-20T16:31:18Z</time>
      </trkpt>
      <trkpt lat="46.17759" lon="2.48868">
        <ele>447</ele>
        <time>2015-04-20T16:31:20Z</time>
      </trkpt>
      <trkpt lat="46.17761" lon="2.48871">
        <ele>447</ele>
        <time>2015-04-20T16:31:22Z</time>
      </trkpt>
      <trkpt lat="46.17764" lon="2.48875">
        <ele>446</ele>
        <time>2015-04-20T16:31:25Z</time>
      </trkpt>
      <trkpt lat="46.17767" lon="2.48878">
        <ele>446</ele>
        <time>2015-04-20T16:31:27Z</time>
      </trkpt>
      <trkpt lat="46.17769" lon="2.48881">
        <ele>446</ele>
        <time>2015-04-20T16:31:29Z</time>
      </trkpt>
      <trkpt lat="46.17771" lon="2.48885">
        <ele>446</ele>
        <time>2015-04-20T16:31:31Z</time>
      </trkpt>
      <trkpt lat="46.17773" lon="2.48888">
        <ele>446</ele>
        <time>2015-04-20T16:31:33Z</time>
      </trkpt>
      <trkpt lat="46.17776" lon="2.48891">
        <ele>446</ele>
        <time>2015-04-20T16:31:35Z</time>
      </trkpt>
      <trkpt lat="46.17777" lon="2.48895">
        <ele>446</ele>
        <time>2015-04-20T16:31:37Z</time>
      </trkpt>
      <trkpt lat="46.17778" lon="2.48899">
        <ele>446</ele>
        <time>2015-04-20T16:31:39Z</time>
      </trkpt>
      <trkpt lat="46.17779" lon="2.48903">
        <ele>446</ele>
        <time>2015-04-20T16:31:41Z</time>
      </trkpt>
      <trkpt lat="46.17781" lon="2.48907">
        <ele>445</ele>
        <time>2015-04-20T16:31:43Z</time>
      </trkpt>
      <trkpt lat="46.17781" lon="2.48911">
        <ele>445</ele>
        <time>2015-04-20T16:31:45Z</time>
      </trkpt>
      <trkpt lat="46.17783" lon="2.48915">
        <ele>445</ele>
        <time>2015-04-20T16:31:47Z</time>
      </trkpt>
      <trkpt lat="46.17781" lon="2.48921">
        <ele>445</ele>
        <time>2015-04-20T16:31:49Z</time>
      </trkpt>
      <trkpt lat="46.17781" lon="2.48926">
        <ele>445</ele>
        <time>2015-04-20T16:31:51Z</time>
      </trkpt>
      <trkpt lat="46.17781" lon="2.4893">
        <ele>445</ele>
        <time>2015-04-20T16:31:53Z</time>
      </trkpt>
      <trkpt lat="46.17782" lon="2.48935">
        <ele>445</ele>
        <time>2015-04-20T16:31:55Z</time>
      </trkpt>
      <trkpt lat="46.17782" lon="2.48939">
        <ele>445</ele>
        <time>2015-04-20T16:31:57Z</time>
      </trkpt>
      <trkpt lat="46.17782" lon="2.48944">
        <ele>445</ele>
        <time>2015-04-20T16:31:59Z</time>
      </trkpt>
      <trkpt lat="46.17783" lon="2.48948">
        <ele>445</ele>
        <time>2015-04-20T16:32:01Z</time>
      </trkpt>
      <trkpt lat="46.17784" lon="2.48952">
        <ele>445</ele>
        <time>2015-04-20T16:32:03Z</time>
      </trkpt>
      <trkpt lat="46.17785" lon="2.48955">
        <ele>445</ele>
        <time>2015-04-20T16:32:05Z</time>
      </trkpt>
      <trkpt lat="46.17785" lon="2.48959">
        <ele>445</ele>
        <time>2015-04-20T16:32:07Z</time>
      </trkpt>
      <trkpt lat="46.17786" lon="2.48963">
        <ele>445</ele>
        <time>2015-04-20T16:32:09Z</time>
      </trkpt>
      <trkpt lat="46.17786" lon="2.48967">
        <ele>445</ele>
        <time>2015-04-20T16:32:11Z</time>
      </trkpt>
      <trkpt lat="46.17787" lon="2.48971">
        <ele>445</ele>
        <time>2015-04-20T16:32:13Z</time>
      </trkpt>
      <trkpt lat="46.17788" lon="2.48975">
        <ele>445</ele>
        <time>2015-04-20T16:32:15Z</time>
      </trkpt>
      <trkpt lat="46.17789" lon="2.48979">
        <ele>445</ele>
        <time>2015-04-20T16:32:17Z</time>
      </trkpt>
      <trkpt lat="46.1779" lon="2.48984">
        <ele>445</ele>
        <time>2015-04-20T16:32:19Z</time>
      </trkpt>
      <trkpt lat="46.17791" lon="2.48988">
        <ele>445</ele>
        <time>2015-04-20T16:32:21Z</time>
      </trkpt>
      <trkpt lat="46.17793" lon="2.48991">
        <ele>445</ele>
        <time>2015-04-20T16:32:23Z</time>
      </trkpt>
      <trkpt lat="46.17795" lon="2.48994">
        <ele>445</ele>
        <time>2015-04-20T16:32:25Z</time>
      </trkpt>
      <trkpt lat="46.17798" lon="2.48998">
        <ele>445</ele>
        <time>2015-04-20T16:32:28Z</time>
      </trkpt>
      <trkpt lat="46.178" lon="2.49001">
        <ele>445</ele>
        <time>2015-04-20T16:32:30Z</time>
      </trkpt>
      <trkpt lat="46.17803" lon="2.49003">
        <ele>445</ele>
        <time>2015-04-20T16:32:32Z</time>
      </trkpt>
      <trkpt lat="46.17805" lon="2.49004">
        <ele>445</ele>
        <time>2015-04-20T16:32:34Z</time>
      </trkpt>
      <trkpt lat="46.17808" lon="2.49005">
        <ele>445</ele>
        <time>2015-04-20T16:32:36Z</time>
      </trkpt>
      <trkpt lat="46.1781" lon="2.49007">
        <ele>445</ele>
        <time>2015-04-20T16:32:38Z</time>
      </trkpt>
      <trkpt lat="46.17813" lon="2.49011">
        <ele>445</ele>
        <time>2015-04-20T16:32:40Z</time>
      </trkpt>
      <trkpt lat="46.17815" lon="2.49013">
        <ele>445</ele>
        <time>2015-04-20T16:32:42Z</time>
      </trkpt>
      <trkpt lat="46.17818" lon="2.49013">
        <ele>445</ele>
        <time>2015-04-20T16:32:44Z</time>
      </trkpt>
      <trkpt lat="46.17821" lon="2.49013">
        <ele>444</ele>
        <time>2015-04-20T16:32:46Z</time>
      </trkpt>
      <trkpt lat="46.17823" lon="2.49013">
        <ele>444</ele>
        <time>2015-04-20T16:32:48Z</time>
      </trkpt>
      <trkpt lat="46.17826" lon="2.49013">
        <ele>444</ele>
        <time>2015-04-20T16:32:50Z</time>
      </trkpt>
      <trkpt lat="46.17829" lon="2.49012">
        <ele>444</ele>
        <time>2015-04-20T16:32:52Z</time>
      </trkpt>
      <trkpt lat="46.17832" lon="2.49011">
        <ele>444</ele>
        <time>2015-04-20T16:32:55Z</time>
      </trkpt>
      <trkpt lat="46.17836" lon="2.49009">
        <ele>443</ele>
        <time>2015-04-20T16:32:58Z</time>
      </trkpt>
      <trkpt lat="46.17839" lon="2.49008">
        <ele>443</ele>
        <time>2015-04-20T16:33:00Z</time>
      </trkpt>
      <trkpt lat="46.17842" lon="2.49006">
        <ele>443</ele>
        <time>2015-04-20T16:33:02Z</time>
      </trkpt>
      <trkpt lat="46.17844" lon="2.49004">
        <ele>443</ele>
        <time>2015-04-20T16:33:04Z</time>
      </trkpt>
      <trkpt lat="46.17846" lon="2.49001">
        <ele>443</ele>
        <time>2015-04-20T16:33:06Z</time>
      </trkpt>
      <trkpt lat="46.17848" lon="2.48998">
        <ele>443</ele>
        <time>2015-04-20T16:33:08Z</time>
      </trkpt>
      <trkpt lat="46.17851" lon="2.48995">
        <ele>443</ele>
        <time>2015-04-20T16:33:10Z</time>
      </trkpt>
      <trkpt lat="46.17854" lon="2.48991">
        <ele>443</ele>
        <time>2015-04-20T16:33:13Z</time>
      </trkpt>
      <trkpt lat="46.17856" lon="2.48988">
        <ele>443</ele>
        <time>2015-04-20T16:33:15Z</time>
      </trkpt>
      <trkpt lat="46.17858" lon="2.48985">
        <ele>443</ele>
        <time>2015-04-20T16:33:17Z</time>
      </trkpt>
      <trkpt lat="46.1786" lon="2.48982">
        <ele>443</ele>
        <time>2015-04-20T16:33:19Z</time>
      </trkpt>
      <trkpt lat="46.17862" lon="2.48979">
        <ele>443</ele>
        <time>2015-04-20T16:33:21Z</time>
      </trkpt>
      <trkpt lat="46.17864" lon="2.48976">
        <ele>443</ele>
        <time>2015-04-20T16:33:23Z</time>
      </trkpt>
      <trkpt lat="46.17866" lon="2.48972">
        <ele>443</ele>
        <time>2015-04-20T16:33:26Z</time>
      </trkpt>
      <trkpt lat="46.17868" lon="2.48969">
        <ele>443</ele>
        <time>2015-04-20T16:33:28Z</time>
      </trkpt>
      <trkpt lat="46.17868" lon="2.48965">
        <ele>443</ele>
        <time>2015-04-20T16:33:30Z</time>
      </trkpt>
      <trkpt lat="46.17869" lon="2.48961">
        <ele>443</ele>
        <time>2015-04-20T16:33:32Z</time>
      </trkpt>
      <trkpt lat="46.17868" lon="2.48958">
        <ele>443</ele>
        <time>2015-04-20T16:33:34Z</time>
      </trkpt>
      <trkpt lat="46.17868" lon="2.48955">
        <ele>443</ele>
        <time>2015-04-20T16:33:36Z</time>
      </trkpt>
      <trkpt lat="46.17866" lon="2.48951">
        <ele>443</ele>
        <time>2015-04-20T16:33:38Z</time>
      </trkpt>
      <trkpt lat="46.17865" lon="2.48948">
        <ele>443</ele>
        <time>2015-04-20T16:33:40Z</time>
      </trkpt>
      <trkpt lat="46.17864" lon="2.48944">
        <ele>443</ele>
        <time>2015-04-20T16:33:42Z</time>
      </trkpt>
      <trkpt lat="46.17863" lon="2.48941">
        <ele>443</ele>
        <time>2015-04-20T16:33:44Z</time>
      </trkpt>
      <trkpt lat="46.17862" lon="2.48937">
        <ele>443</ele>
        <time>2015-04-20T16:33:46Z</time>
      </trkpt>
      <trkpt lat="46.17861" lon="2.48933">
        <ele>443</ele>
        <time>2015-04-20T16:33:48Z</time>
      </trkpt>
      <trkpt lat="46.1786" lon="2.48929">
        <ele>443</ele>
        <time>2015-04-20T16:33:50Z</time>
      </trkpt>
      <trkpt lat="46.1786" lon="2.48926">
        <ele>443</ele>
        <time>2015-04-20T16:33:52Z</time>
      </trkpt>
      <trkpt lat="46.17859" lon="2.48922">
        <ele>443</ele>
        <time>2015-04-20T16:33:54Z</time>
      </trkpt>
      <trkpt lat="46.1786" lon="2.48919">
        <ele>443</ele>
        <time>2015-04-20T16:33:56Z</time>
      </trkpt>
      <trkpt lat="46.1786" lon="2.48915">
        <ele>443</ele>
        <time>2015-04-20T16:33:58Z</time>
      </trkpt>
      <trkpt lat="46.17862" lon="2.48911">
        <ele>443</ele>
        <time>2015-04-20T16:34:01Z</time>
      </trkpt>
      <trkpt lat="46.17864" lon="2.4891">
        <ele>443</ele>
        <time>2015-04-20T16:34:03Z</time>
      </trkpt>
      <trkpt lat="46.17865" lon="2.48907">
        <ele>443</ele>
        <time>2015-04-20T16:34:05Z</time>
      </trkpt>
      <trkpt lat="46.17867" lon="2.48906">
        <ele>443</ele>
        <time>2015-04-20T16:34:07Z</time>
      </trkpt>
      <trkpt lat="46.17867" lon="2.48905">
        <ele>443</ele>
        <time>2015-04-20T16:34:09Z</time>
      </trkpt>
    </trkseg>
  </trk>
</gpx>